<?xml version="1.0" encoding="UTF-8" standalone="no" ?>
<gpx xmlns="http://www.topografix.com/GPX/1/1" xmlns:xsi="http://www.w3.org/2001/XMLSchema-instance" xsi:schemaLocation="http://www.topografix.com/GPX/1/1 http://www.topografix.com/GPX/1/1/gpx.xsd" version="1.1" creator="VisuGPX - https://www.visugpx.com">
  <metadata>
    <name>Activité Randonnée TwoNav</name>
    <desc><![CDATA[2022-04-17_101600--__t6829321_deutsch-franzoesischer.trk]]></desc>
  </metadata>
  <trk>
    <name><![CDATA[Activité Randonnée TwoNav_1]]></name>
    <trkseg>
      <trkpt lat="49.03673" lon="7.68367">
        <ele>246</ele>
        <time>2022-04-17T08:16:00Z</time>
      </trkpt>
      <trkpt lat="49.03673" lon="7.68364">
        <ele>246.1</ele>
        <time>2022-04-17T08:16:01Z</time>
      </trkpt>
      <trkpt lat="49.03673" lon="7.68361">
        <ele>246.1</ele>
        <time>2022-04-17T08:16:19Z</time>
      </trkpt>
      <trkpt lat="49.03673" lon="7.68359">
        <ele>246.1</ele>
        <time>2022-04-17T08:16:20Z</time>
      </trkpt>
      <trkpt lat="49.03673" lon="7.68356">
        <ele>246.1</ele>
        <time>2022-04-17T08:16:30Z</time>
      </trkpt>
      <trkpt lat="49.03672" lon="7.68353">
        <ele>246.2</ele>
        <time>2022-04-17T08:16:30Z</time>
      </trkpt>
      <trkpt lat="49.03678" lon="7.68342">
        <ele>246.3</ele>
        <time>2022-04-17T08:16:37Z</time>
      </trkpt>
      <trkpt lat="49.03681" lon="7.68328">
        <ele>246.3</ele>
        <time>2022-04-17T08:16:56Z</time>
      </trkpt>
      <trkpt lat="49.03686" lon="7.68314">
        <ele>246.4</ele>
        <time>2022-04-17T08:17:03Z</time>
      </trkpt>
      <trkpt lat="49.03688" lon="7.683">
        <ele>246.4</ele>
        <time>2022-04-17T08:17:15Z</time>
      </trkpt>
      <trkpt lat="49.03693" lon="7.68286">
        <ele>246.4</ele>
        <time>2022-04-17T08:17:22Z</time>
      </trkpt>
      <trkpt lat="49.03697" lon="7.68274">
        <ele>246.4</ele>
        <time>2022-04-17T08:17:27Z</time>
      </trkpt>
      <trkpt lat="49.03703" lon="7.68262">
        <ele>247.9</ele>
        <time>2022-04-17T08:17:33Z</time>
      </trkpt>
      <trkpt lat="49.03712" lon="7.68259">
        <ele>249.9</ele>
        <time>2022-04-17T08:17:40Z</time>
      </trkpt>
      <trkpt lat="49.03719" lon="7.68249">
        <ele>252</ele>
        <time>2022-04-17T08:17:47Z</time>
      </trkpt>
      <trkpt lat="49.03726" lon="7.68241">
        <ele>253.9</ele>
        <time>2022-04-17T08:17:55Z</time>
      </trkpt>
      <trkpt lat="49.03733" lon="7.6823">
        <ele>254.7</ele>
        <time>2022-04-17T08:18:03Z</time>
      </trkpt>
      <trkpt lat="49.03738" lon="7.68219">
        <ele>254.8</ele>
        <time>2022-04-17T08:18:10Z</time>
      </trkpt>
      <trkpt lat="49.03745" lon="7.68209">
        <ele>254.9</ele>
        <time>2022-04-17T08:18:17Z</time>
      </trkpt>
      <trkpt lat="49.03753" lon="7.682">
        <ele>255.1</ele>
        <time>2022-04-17T08:18:24Z</time>
      </trkpt>
      <trkpt lat="49.03758" lon="7.68188">
        <ele>255.3</ele>
        <time>2022-04-17T08:18:31Z</time>
      </trkpt>
      <trkpt lat="49.03766" lon="7.6818">
        <ele>255.4</ele>
        <time>2022-04-17T08:18:37Z</time>
      </trkpt>
      <trkpt lat="49.03771" lon="7.68169">
        <ele>255.5</ele>
        <time>2022-04-17T08:18:44Z</time>
      </trkpt>
      <trkpt lat="49.03779" lon="7.68163">
        <ele>255.5</ele>
        <time>2022-04-17T08:18:51Z</time>
      </trkpt>
      <trkpt lat="49.03788" lon="7.68155">
        <ele>255.6</ele>
        <time>2022-04-17T08:18:59Z</time>
      </trkpt>
      <trkpt lat="49.03796" lon="7.68149">
        <ele>255.6</ele>
        <time>2022-04-17T08:19:07Z</time>
      </trkpt>
      <trkpt lat="49.03805" lon="7.68148">
        <ele>255.5</ele>
        <time>2022-04-17T08:19:13Z</time>
      </trkpt>
      <trkpt lat="49.03814" lon="7.68147">
        <ele>255.5</ele>
        <time>2022-04-17T08:19:19Z</time>
      </trkpt>
      <trkpt lat="49.03823" lon="7.6814">
        <ele>255.5</ele>
        <time>2022-04-17T08:19:28Z</time>
      </trkpt>
      <trkpt lat="49.03834" lon="7.68135">
        <ele>255.7</ele>
        <time>2022-04-17T08:19:34Z</time>
      </trkpt>
      <trkpt lat="49.03844" lon="7.68132">
        <ele>255.7</ele>
        <time>2022-04-17T08:19:41Z</time>
      </trkpt>
      <trkpt lat="49.03853" lon="7.68129">
        <ele>255.6</ele>
        <time>2022-04-17T08:19:51Z</time>
      </trkpt>
      <trkpt lat="49.03863" lon="7.68126">
        <ele>255.4</ele>
        <time>2022-04-17T08:20:00Z</time>
      </trkpt>
      <trkpt lat="49.03872" lon="7.6812">
        <ele>255.3</ele>
        <time>2022-04-17T08:20:07Z</time>
      </trkpt>
      <trkpt lat="49.03881" lon="7.68115">
        <ele>255.2</ele>
        <time>2022-04-17T08:20:14Z</time>
      </trkpt>
      <trkpt lat="49.03891" lon="7.68111">
        <ele>255</ele>
        <time>2022-04-17T08:20:21Z</time>
      </trkpt>
      <trkpt lat="49.03901" lon="7.68106">
        <ele>254.9</ele>
        <time>2022-04-17T08:20:29Z</time>
      </trkpt>
      <trkpt lat="49.0391" lon="7.68101">
        <ele>254.8</ele>
        <time>2022-04-17T08:20:35Z</time>
      </trkpt>
      <trkpt lat="49.03919" lon="7.68097">
        <ele>254.9</ele>
        <time>2022-04-17T08:20:41Z</time>
      </trkpt>
      <trkpt lat="49.03928" lon="7.68092">
        <ele>255.3</ele>
        <time>2022-04-17T08:20:48Z</time>
      </trkpt>
      <trkpt lat="49.03938" lon="7.68091">
        <ele>255.9</ele>
        <time>2022-04-17T08:20:56Z</time>
      </trkpt>
      <trkpt lat="49.03947" lon="7.68091">
        <ele>256.3</ele>
        <time>2022-04-17T08:21:03Z</time>
      </trkpt>
      <trkpt lat="49.03956" lon="7.68089">
        <ele>256.9</ele>
        <time>2022-04-17T08:21:10Z</time>
      </trkpt>
      <trkpt lat="49.03965" lon="7.6809">
        <ele>257</ele>
        <time>2022-04-17T08:21:31Z</time>
      </trkpt>
      <trkpt lat="49.03974" lon="7.68085">
        <ele>256.7</ele>
        <time>2022-04-17T08:21:39Z</time>
      </trkpt>
      <trkpt lat="49.03984" lon="7.68081">
        <ele>256.5</ele>
        <time>2022-04-17T08:21:47Z</time>
      </trkpt>
      <trkpt lat="49.03993" lon="7.68079">
        <ele>256.2</ele>
        <time>2022-04-17T08:21:52Z</time>
      </trkpt>
      <trkpt lat="49.04003" lon="7.68084">
        <ele>255.9</ele>
        <time>2022-04-17T08:22:14Z</time>
      </trkpt>
      <trkpt lat="49.04013" lon="7.68082">
        <ele>255.9</ele>
        <time>2022-04-17T08:22:21Z</time>
      </trkpt>
      <trkpt lat="49.04022" lon="7.68075">
        <ele>255.9</ele>
        <time>2022-04-17T08:22:31Z</time>
      </trkpt>
      <trkpt lat="49.04031" lon="7.68071">
        <ele>255.9</ele>
        <time>2022-04-17T08:22:37Z</time>
      </trkpt>
      <trkpt lat="49.04041" lon="7.6807">
        <ele>256</ele>
        <time>2022-04-17T08:22:45Z</time>
      </trkpt>
      <trkpt lat="49.04052" lon="7.68065">
        <ele>256.3</ele>
        <time>2022-04-17T08:22:51Z</time>
      </trkpt>
      <trkpt lat="49.04062" lon="7.68064">
        <ele>256.6</ele>
        <time>2022-04-17T08:22:57Z</time>
      </trkpt>
      <trkpt lat="49.04072" lon="7.68062">
        <ele>257</ele>
        <time>2022-04-17T08:23:06Z</time>
      </trkpt>
      <trkpt lat="49.04082" lon="7.68064">
        <ele>257.4</ele>
        <time>2022-04-17T08:23:16Z</time>
      </trkpt>
      <trkpt lat="49.04091" lon="7.68068">
        <ele>257.8</ele>
        <time>2022-04-17T08:23:21Z</time>
      </trkpt>
      <trkpt lat="49.041" lon="7.68075">
        <ele>258.2</ele>
        <time>2022-04-17T08:23:31Z</time>
      </trkpt>
      <trkpt lat="49.0411" lon="7.68078">
        <ele>258.5</ele>
        <time>2022-04-17T08:23:35Z</time>
      </trkpt>
      <trkpt lat="49.0412" lon="7.68081">
        <ele>258.7</ele>
        <time>2022-04-17T08:23:40Z</time>
      </trkpt>
      <trkpt lat="49.04128" lon="7.6809">
        <ele>259</ele>
        <time>2022-04-17T08:23:52Z</time>
      </trkpt>
      <trkpt lat="49.04137" lon="7.68092">
        <ele>259.2</ele>
        <time>2022-04-17T08:23:59Z</time>
      </trkpt>
      <trkpt lat="49.04148" lon="7.68096">
        <ele>259.4</ele>
        <time>2022-04-17T08:24:08Z</time>
      </trkpt>
      <trkpt lat="49.04157" lon="7.68098">
        <ele>259.6</ele>
        <time>2022-04-17T08:24:14Z</time>
      </trkpt>
      <trkpt lat="49.04166" lon="7.68105">
        <ele>259.9</ele>
        <time>2022-04-17T08:24:25Z</time>
      </trkpt>
      <trkpt lat="49.04175" lon="7.68102">
        <ele>260.1</ele>
        <time>2022-04-17T08:24:37Z</time>
      </trkpt>
      <trkpt lat="49.04183" lon="7.68111">
        <ele>260.3</ele>
        <time>2022-04-17T08:24:42Z</time>
      </trkpt>
      <trkpt lat="49.04192" lon="7.68114">
        <ele>260.5</ele>
        <time>2022-04-17T08:25:02Z</time>
      </trkpt>
      <trkpt lat="49.04192" lon="7.68114">
        <ele>260.5</ele>
        <time>2022-04-17T08:25:03Z</time>
      </trkpt>
      <trkpt lat="49.04193" lon="7.68115">
        <ele>260.5</ele>
        <time>2022-04-17T08:25:04Z</time>
      </trkpt>
      <trkpt lat="49.04187" lon="7.68103">
        <ele>260.8</ele>
        <time>2022-04-17T08:26:12Z</time>
      </trkpt>
      <trkpt lat="49.04194" lon="7.68113">
        <ele>261</ele>
        <time>2022-04-17T08:26:28Z</time>
      </trkpt>
      <trkpt lat="49.04193" lon="7.6812">
        <ele>261.1</ele>
        <time>2022-04-17T08:26:44Z</time>
      </trkpt>
      <trkpt lat="49.04193" lon="7.6812">
        <ele>261.1</ele>
        <time>2022-04-17T08:26:46Z</time>
      </trkpt>
      <trkpt lat="49.04202" lon="7.68125">
        <ele>261.3</ele>
        <time>2022-04-17T08:27:19Z</time>
      </trkpt>
      <trkpt lat="49.04209" lon="7.68134">
        <ele>261.5</ele>
        <time>2022-04-17T08:27:33Z</time>
      </trkpt>
      <trkpt lat="49.04219" lon="7.68139">
        <ele>261.7</ele>
        <time>2022-04-17T08:27:43Z</time>
      </trkpt>
      <trkpt lat="49.0423" lon="7.68138">
        <ele>262</ele>
        <time>2022-04-17T08:27:51Z</time>
      </trkpt>
      <trkpt lat="49.04238" lon="7.68146">
        <ele>262.3</ele>
        <time>2022-04-17T08:28:05Z</time>
      </trkpt>
      <trkpt lat="49.04247" lon="7.68152">
        <ele>262.7</ele>
        <time>2022-04-17T08:28:11Z</time>
      </trkpt>
      <trkpt lat="49.04256" lon="7.68157">
        <ele>263.1</ele>
        <time>2022-04-17T08:28:19Z</time>
      </trkpt>
      <trkpt lat="49.04267" lon="7.68159">
        <ele>263.5</ele>
        <time>2022-04-17T08:28:25Z</time>
      </trkpt>
      <trkpt lat="49.04276" lon="7.68161">
        <ele>263.9</ele>
        <time>2022-04-17T08:28:32Z</time>
      </trkpt>
      <trkpt lat="49.04285" lon="7.68159">
        <ele>264.2</ele>
        <time>2022-04-17T08:28:39Z</time>
      </trkpt>
      <trkpt lat="49.04294" lon="7.68165">
        <ele>264.5</ele>
        <time>2022-04-17T08:28:48Z</time>
      </trkpt>
      <trkpt lat="49.04304" lon="7.6817">
        <ele>264.7</ele>
        <time>2022-04-17T08:28:54Z</time>
      </trkpt>
      <trkpt lat="49.04314" lon="7.68175">
        <ele>265</ele>
        <time>2022-04-17T08:29:01Z</time>
      </trkpt>
      <trkpt lat="49.04323" lon="7.68181">
        <ele>265.2</ele>
        <time>2022-04-17T08:29:07Z</time>
      </trkpt>
      <trkpt lat="49.04332" lon="7.68186">
        <ele>265.5</ele>
        <time>2022-04-17T08:29:13Z</time>
      </trkpt>
      <trkpt lat="49.04341" lon="7.68189">
        <ele>265.7</ele>
        <time>2022-04-17T08:29:20Z</time>
      </trkpt>
      <trkpt lat="49.0435" lon="7.6819">
        <ele>265.9</ele>
        <time>2022-04-17T08:29:29Z</time>
      </trkpt>
      <trkpt lat="49.0436" lon="7.68193">
        <ele>266.1</ele>
        <time>2022-04-17T08:29:37Z</time>
      </trkpt>
      <trkpt lat="49.04369" lon="7.68197">
        <ele>266.3</ele>
        <time>2022-04-17T08:29:43Z</time>
      </trkpt>
      <trkpt lat="49.04377" lon="7.68205">
        <ele>266.5</ele>
        <time>2022-04-17T08:29:49Z</time>
      </trkpt>
      <trkpt lat="49.04386" lon="7.68211">
        <ele>266.7</ele>
        <time>2022-04-17T08:29:55Z</time>
      </trkpt>
      <trkpt lat="49.04395" lon="7.68217">
        <ele>266.8</ele>
        <time>2022-04-17T08:30:01Z</time>
      </trkpt>
      <trkpt lat="49.04404" lon="7.6822">
        <ele>266.9</ele>
        <time>2022-04-17T08:30:08Z</time>
      </trkpt>
      <trkpt lat="49.04413" lon="7.68219">
        <ele>267</ele>
        <time>2022-04-17T08:30:17Z</time>
      </trkpt>
      <trkpt lat="49.04422" lon="7.68223">
        <ele>267.2</ele>
        <time>2022-04-17T08:30:26Z</time>
      </trkpt>
      <trkpt lat="49.04428" lon="7.68227">
        <ele>267.4</ele>
        <time>2022-04-17T08:30:34Z</time>
      </trkpt>
      <trkpt lat="49.04429" lon="7.68228">
        <ele>267.4</ele>
        <time>2022-04-17T08:30:35Z</time>
      </trkpt>
      <trkpt lat="49.04439" lon="7.68232">
        <ele>267.8</ele>
        <time>2022-04-17T08:30:43Z</time>
      </trkpt>
      <trkpt lat="49.04448" lon="7.68233">
        <ele>268.1</ele>
        <time>2022-04-17T08:30:52Z</time>
      </trkpt>
      <trkpt lat="49.04457" lon="7.68236">
        <ele>268.5</ele>
        <time>2022-04-17T08:30:59Z</time>
      </trkpt>
      <trkpt lat="49.04467" lon="7.68244">
        <ele>269.1</ele>
        <time>2022-04-17T08:31:05Z</time>
      </trkpt>
      <trkpt lat="49.04476" lon="7.68246">
        <ele>269.7</ele>
        <time>2022-04-17T08:31:10Z</time>
      </trkpt>
      <trkpt lat="49.04485" lon="7.68253">
        <ele>270.5</ele>
        <time>2022-04-17T08:31:16Z</time>
      </trkpt>
      <trkpt lat="49.04494" lon="7.68258">
        <ele>270.8</ele>
        <time>2022-04-17T08:31:24Z</time>
      </trkpt>
      <trkpt lat="49.04503" lon="7.68262">
        <ele>271.4</ele>
        <time>2022-04-17T08:31:31Z</time>
      </trkpt>
      <trkpt lat="49.04511" lon="7.68269">
        <ele>271.9</ele>
        <time>2022-04-17T08:31:39Z</time>
      </trkpt>
      <trkpt lat="49.04519" lon="7.68275">
        <ele>272.4</ele>
        <time>2022-04-17T08:31:46Z</time>
      </trkpt>
      <trkpt lat="49.04526" lon="7.68274">
        <ele>272.8</ele>
        <time>2022-04-17T08:31:53Z</time>
      </trkpt>
      <trkpt lat="49.04526" lon="7.68275">
        <ele>272.9</ele>
        <time>2022-04-17T08:31:54Z</time>
      </trkpt>
      <trkpt lat="49.04535" lon="7.6828">
        <ele>273.4</ele>
        <time>2022-04-17T08:31:59Z</time>
      </trkpt>
      <trkpt lat="49.04545" lon="7.68283">
        <ele>274.1</ele>
        <time>2022-04-17T08:32:07Z</time>
      </trkpt>
      <trkpt lat="49.04554" lon="7.68286">
        <ele>274.7</ele>
        <time>2022-04-17T08:32:14Z</time>
      </trkpt>
      <trkpt lat="49.04562" lon="7.68295">
        <ele>275.2</ele>
        <time>2022-04-17T08:32:21Z</time>
      </trkpt>
      <trkpt lat="49.04573" lon="7.68301">
        <ele>275.8</ele>
        <time>2022-04-17T08:32:28Z</time>
      </trkpt>
      <trkpt lat="49.04582" lon="7.68304">
        <ele>276.3</ele>
        <time>2022-04-17T08:32:34Z</time>
      </trkpt>
      <trkpt lat="49.04591" lon="7.68307">
        <ele>276.7</ele>
        <time>2022-04-17T08:32:42Z</time>
      </trkpt>
      <trkpt lat="49.04599" lon="7.68314">
        <ele>277.1</ele>
        <time>2022-04-17T08:32:49Z</time>
      </trkpt>
      <trkpt lat="49.04609" lon="7.68315">
        <ele>277.5</ele>
        <time>2022-04-17T08:32:59Z</time>
      </trkpt>
      <trkpt lat="49.04619" lon="7.68316">
        <ele>277.9</ele>
        <time>2022-04-17T08:33:05Z</time>
      </trkpt>
      <trkpt lat="49.04629" lon="7.68317">
        <ele>278.4</ele>
        <time>2022-04-17T08:33:11Z</time>
      </trkpt>
      <trkpt lat="49.04638" lon="7.6832">
        <ele>278.9</ele>
        <time>2022-04-17T08:33:19Z</time>
      </trkpt>
      <trkpt lat="49.04647" lon="7.68318">
        <ele>279.4</ele>
        <time>2022-04-17T08:33:30Z</time>
      </trkpt>
      <trkpt lat="49.04656" lon="7.68323">
        <ele>279.9</ele>
        <time>2022-04-17T08:33:40Z</time>
      </trkpt>
      <trkpt lat="49.04664" lon="7.68331">
        <ele>280.3</ele>
        <time>2022-04-17T08:33:52Z</time>
      </trkpt>
      <trkpt lat="49.04674" lon="7.68328">
        <ele>280.7</ele>
        <time>2022-04-17T08:34:00Z</time>
      </trkpt>
      <trkpt lat="49.04683" lon="7.68331">
        <ele>280.9</ele>
        <time>2022-04-17T08:34:03Z</time>
      </trkpt>
      <trkpt lat="49.04692" lon="7.68335">
        <ele>281.1</ele>
        <time>2022-04-17T08:34:07Z</time>
      </trkpt>
      <trkpt lat="49.04702" lon="7.68334">
        <ele>281.4</ele>
        <time>2022-04-17T08:34:11Z</time>
      </trkpt>
      <trkpt lat="49.04712" lon="7.68336">
        <ele>281.6</ele>
        <time>2022-04-17T08:34:21Z</time>
      </trkpt>
      <trkpt lat="49.0472" lon="7.68343">
        <ele>281.9</ele>
        <time>2022-04-17T08:34:40Z</time>
      </trkpt>
      <trkpt lat="49.04731" lon="7.68343">
        <ele>282.5</ele>
        <time>2022-04-17T08:34:46Z</time>
      </trkpt>
      <trkpt lat="49.04739" lon="7.68351">
        <ele>283.1</ele>
        <time>2022-04-17T08:35:03Z</time>
      </trkpt>
      <trkpt lat="49.04728" lon="7.68352">
        <ele>282.4</ele>
        <time>2022-04-17T08:35:21Z</time>
      </trkpt>
      <trkpt lat="49.04719" lon="7.68347">
        <ele>282</ele>
        <time>2022-04-17T08:35:27Z</time>
      </trkpt>
      <trkpt lat="49.04712" lon="7.68337">
        <ele>281.7</ele>
        <time>2022-04-17T08:35:32Z</time>
      </trkpt>
      <trkpt lat="49.04703" lon="7.68332">
        <ele>281.4</ele>
        <time>2022-04-17T08:35:39Z</time>
      </trkpt>
      <trkpt lat="49.04695" lon="7.68322">
        <ele>281.2</ele>
        <time>2022-04-17T08:35:47Z</time>
      </trkpt>
      <trkpt lat="49.04686" lon="7.68318">
        <ele>280.9</ele>
        <time>2022-04-17T08:35:53Z</time>
      </trkpt>
      <trkpt lat="49.04677" lon="7.68313">
        <ele>280.7</ele>
        <time>2022-04-17T08:36:02Z</time>
      </trkpt>
      <trkpt lat="49.04671" lon="7.68323">
        <ele>280.5</ele>
        <time>2022-04-17T08:36:15Z</time>
      </trkpt>
      <trkpt lat="49.04661" lon="7.68322">
        <ele>280.1</ele>
        <time>2022-04-17T08:36:24Z</time>
      </trkpt>
      <trkpt lat="49.04651" lon="7.6832">
        <ele>279.6</ele>
        <time>2022-04-17T08:36:35Z</time>
      </trkpt>
      <trkpt lat="49.04641" lon="7.68318">
        <ele>279.1</ele>
        <time>2022-04-17T08:36:42Z</time>
      </trkpt>
      <trkpt lat="49.04633" lon="7.68311">
        <ele>277.7</ele>
        <time>2022-04-17T08:36:49Z</time>
      </trkpt>
      <trkpt lat="49.04632" lon="7.68297">
        <ele>277.7</ele>
        <time>2022-04-17T08:36:59Z</time>
      </trkpt>
      <trkpt lat="49.04637" lon="7.68284">
        <ele>275.4</ele>
        <time>2022-04-17T08:37:08Z</time>
      </trkpt>
      <trkpt lat="49.0464" lon="7.6827">
        <ele>274.5</ele>
        <time>2022-04-17T08:37:15Z</time>
      </trkpt>
      <trkpt lat="49.04639" lon="7.68256">
        <ele>273.7</ele>
        <time>2022-04-17T08:37:23Z</time>
      </trkpt>
      <trkpt lat="49.04643" lon="7.68241">
        <ele>272.9</ele>
        <time>2022-04-17T08:37:30Z</time>
      </trkpt>
      <trkpt lat="49.04646" lon="7.68227">
        <ele>272.1</ele>
        <time>2022-04-17T08:37:40Z</time>
      </trkpt>
      <trkpt lat="49.04647" lon="7.68212">
        <ele>271.4</ele>
        <time>2022-04-17T08:37:47Z</time>
      </trkpt>
      <trkpt lat="49.04647" lon="7.68196">
        <ele>270.9</ele>
        <time>2022-04-17T08:37:54Z</time>
      </trkpt>
      <trkpt lat="49.04646" lon="7.68181">
        <ele>270.4</ele>
        <time>2022-04-17T08:38:01Z</time>
      </trkpt>
      <trkpt lat="49.04646" lon="7.68166">
        <ele>270</ele>
        <time>2022-04-17T08:38:09Z</time>
      </trkpt>
      <trkpt lat="49.04647" lon="7.68152">
        <ele>269.7</ele>
        <time>2022-04-17T08:38:16Z</time>
      </trkpt>
      <trkpt lat="49.04649" lon="7.68137">
        <ele>269.7</ele>
        <time>2022-04-17T08:38:24Z</time>
      </trkpt>
      <trkpt lat="49.04651" lon="7.68123">
        <ele>269.8</ele>
        <time>2022-04-17T08:38:32Z</time>
      </trkpt>
      <trkpt lat="49.04654" lon="7.68109">
        <ele>270</ele>
        <time>2022-04-17T08:38:41Z</time>
      </trkpt>
      <trkpt lat="49.04655" lon="7.68095">
        <ele>270.1</ele>
        <time>2022-04-17T08:38:49Z</time>
      </trkpt>
      <trkpt lat="49.04653" lon="7.68081">
        <ele>270.1</ele>
        <time>2022-04-17T08:39:01Z</time>
      </trkpt>
      <trkpt lat="49.04655" lon="7.68066">
        <ele>270.4</ele>
        <time>2022-04-17T08:39:08Z</time>
      </trkpt>
      <trkpt lat="49.04659" lon="7.68052">
        <ele>270.9</ele>
        <time>2022-04-17T08:39:15Z</time>
      </trkpt>
      <trkpt lat="49.04665" lon="7.6804">
        <ele>271</ele>
        <time>2022-04-17T08:39:23Z</time>
      </trkpt>
      <trkpt lat="49.04666" lon="7.68026">
        <ele>271.1</ele>
        <time>2022-04-17T08:39:31Z</time>
      </trkpt>
      <trkpt lat="49.04673" lon="7.68016">
        <ele>271.3</ele>
        <time>2022-04-17T08:39:36Z</time>
      </trkpt>
      <trkpt lat="49.04678" lon="7.68004">
        <ele>271.7</ele>
        <time>2022-04-17T08:39:43Z</time>
      </trkpt>
      <trkpt lat="49.04683" lon="7.67991">
        <ele>272.3</ele>
        <time>2022-04-17T08:39:54Z</time>
      </trkpt>
      <trkpt lat="49.04686" lon="7.67978">
        <ele>273</ele>
        <time>2022-04-17T08:40:01Z</time>
      </trkpt>
      <trkpt lat="49.0469" lon="7.67964">
        <ele>273.9</ele>
        <time>2022-04-17T08:40:10Z</time>
      </trkpt>
      <trkpt lat="49.04693" lon="7.67949">
        <ele>274.7</ele>
        <time>2022-04-17T08:40:16Z</time>
      </trkpt>
      <trkpt lat="49.04695" lon="7.67934">
        <ele>275.1</ele>
        <time>2022-04-17T08:40:24Z</time>
      </trkpt>
      <trkpt lat="49.04688" lon="7.67925">
        <ele>275.1</ele>
        <time>2022-04-17T08:40:30Z</time>
      </trkpt>
      <trkpt lat="49.04681" lon="7.67914">
        <ele>275</ele>
        <time>2022-04-17T08:40:40Z</time>
      </trkpt>
      <trkpt lat="49.04673" lon="7.67907">
        <ele>274.8</ele>
        <time>2022-04-17T08:40:45Z</time>
      </trkpt>
      <trkpt lat="49.04665" lon="7.67899">
        <ele>274.8</ele>
        <time>2022-04-17T08:40:52Z</time>
      </trkpt>
      <trkpt lat="49.0466" lon="7.67888">
        <ele>274.9</ele>
        <time>2022-04-17T08:41:00Z</time>
      </trkpt>
      <trkpt lat="49.04653" lon="7.67877">
        <ele>275.1</ele>
        <time>2022-04-17T08:41:09Z</time>
      </trkpt>
      <trkpt lat="49.04644" lon="7.67869">
        <ele>275.5</ele>
        <time>2022-04-17T08:41:15Z</time>
      </trkpt>
      <trkpt lat="49.04637" lon="7.6786">
        <ele>276</ele>
        <time>2022-04-17T08:41:23Z</time>
      </trkpt>
      <trkpt lat="49.0463" lon="7.67848">
        <ele>276.5</ele>
        <time>2022-04-17T08:41:30Z</time>
      </trkpt>
      <trkpt lat="49.04626" lon="7.67835">
        <ele>276.9</ele>
        <time>2022-04-17T08:41:39Z</time>
      </trkpt>
      <trkpt lat="49.04618" lon="7.67827">
        <ele>277.3</ele>
        <time>2022-04-17T08:41:49Z</time>
      </trkpt>
      <trkpt lat="49.04609" lon="7.67819">
        <ele>277.8</ele>
        <time>2022-04-17T08:41:54Z</time>
      </trkpt>
      <trkpt lat="49.04605" lon="7.67806">
        <ele>278.3</ele>
        <time>2022-04-17T08:42:02Z</time>
      </trkpt>
      <trkpt lat="49.04598" lon="7.67798">
        <ele>278.9</ele>
        <time>2022-04-17T08:42:14Z</time>
      </trkpt>
      <trkpt lat="49.04595" lon="7.67784">
        <ele>279.5</ele>
        <time>2022-04-17T08:42:22Z</time>
      </trkpt>
      <trkpt lat="49.0459" lon="7.67772">
        <ele>280.1</ele>
        <time>2022-04-17T08:42:28Z</time>
      </trkpt>
      <trkpt lat="49.04581" lon="7.67764">
        <ele>280.8</ele>
        <time>2022-04-17T08:42:33Z</time>
      </trkpt>
      <trkpt lat="49.04574" lon="7.67752">
        <ele>281.5</ele>
        <time>2022-04-17T08:42:40Z</time>
      </trkpt>
      <trkpt lat="49.04568" lon="7.6774">
        <ele>282.3</ele>
        <time>2022-04-17T08:42:47Z</time>
      </trkpt>
      <trkpt lat="49.04561" lon="7.67728">
        <ele>283.1</ele>
        <time>2022-04-17T08:42:54Z</time>
      </trkpt>
      <trkpt lat="49.04554" lon="7.67715">
        <ele>284.1</ele>
        <time>2022-04-17T08:43:02Z</time>
      </trkpt>
      <trkpt lat="49.04556" lon="7.67699">
        <ele>285</ele>
        <time>2022-04-17T08:43:10Z</time>
      </trkpt>
      <trkpt lat="49.04556" lon="7.67684">
        <ele>286</ele>
        <time>2022-04-17T08:43:17Z</time>
      </trkpt>
      <trkpt lat="49.04555" lon="7.67669">
        <ele>286.9</ele>
        <time>2022-04-17T08:43:24Z</time>
      </trkpt>
      <trkpt lat="49.0455" lon="7.67657">
        <ele>287.9</ele>
        <time>2022-04-17T08:43:31Z</time>
      </trkpt>
      <trkpt lat="49.04547" lon="7.67643">
        <ele>288.9</ele>
        <time>2022-04-17T08:43:40Z</time>
      </trkpt>
      <trkpt lat="49.04546" lon="7.67629">
        <ele>289.8</ele>
        <time>2022-04-17T08:43:48Z</time>
      </trkpt>
      <trkpt lat="49.04538" lon="7.67623">
        <ele>290.8</ele>
        <time>2022-04-17T08:43:54Z</time>
      </trkpt>
      <trkpt lat="49.04532" lon="7.67613">
        <ele>291.7</ele>
        <time>2022-04-17T08:43:59Z</time>
      </trkpt>
      <trkpt lat="49.04524" lon="7.67603">
        <ele>292.7</ele>
        <time>2022-04-17T08:44:07Z</time>
      </trkpt>
      <trkpt lat="49.04524" lon="7.67589">
        <ele>293.7</ele>
        <time>2022-04-17T08:44:16Z</time>
      </trkpt>
      <trkpt lat="49.04523" lon="7.67575">
        <ele>294.7</ele>
        <time>2022-04-17T08:44:25Z</time>
      </trkpt>
      <trkpt lat="49.04519" lon="7.67561">
        <ele>295.8</ele>
        <time>2022-04-17T08:44:37Z</time>
      </trkpt>
      <trkpt lat="49.04514" lon="7.67546">
        <ele>297</ele>
        <time>2022-04-17T08:44:45Z</time>
      </trkpt>
      <trkpt lat="49.04513" lon="7.67531">
        <ele>298.2</ele>
        <time>2022-04-17T08:44:55Z</time>
      </trkpt>
      <trkpt lat="49.04506" lon="7.6752">
        <ele>299.6</ele>
        <time>2022-04-17T08:45:00Z</time>
      </trkpt>
      <trkpt lat="49.04501" lon="7.67506">
        <ele>301</ele>
        <time>2022-04-17T08:45:08Z</time>
      </trkpt>
      <trkpt lat="49.045" lon="7.67491">
        <ele>302.5</ele>
        <time>2022-04-17T08:45:20Z</time>
      </trkpt>
      <trkpt lat="49.04503" lon="7.67478">
        <ele>304</ele>
        <time>2022-04-17T08:45:28Z</time>
      </trkpt>
      <trkpt lat="49.045" lon="7.67464">
        <ele>305.1</ele>
        <time>2022-04-17T08:45:39Z</time>
      </trkpt>
      <trkpt lat="49.04494" lon="7.67454">
        <ele>305.2</ele>
        <time>2022-04-17T08:45:47Z</time>
      </trkpt>
      <trkpt lat="49.04492" lon="7.6744">
        <ele>305.5</ele>
        <time>2022-04-17T08:45:58Z</time>
      </trkpt>
      <trkpt lat="49.04496" lon="7.67426">
        <ele>305.8</ele>
        <time>2022-04-17T08:46:10Z</time>
      </trkpt>
      <trkpt lat="49.04498" lon="7.67412">
        <ele>305.9</ele>
        <time>2022-04-17T08:46:23Z</time>
      </trkpt>
      <trkpt lat="49.04499" lon="7.674">
        <ele>305.8</ele>
        <time>2022-04-17T08:46:41Z</time>
      </trkpt>
      <trkpt lat="49.04498" lon="7.674">
        <ele>305.8</ele>
        <time>2022-04-17T08:46:42Z</time>
      </trkpt>
      <trkpt lat="49.04502" lon="7.67386">
        <ele>305.2</ele>
        <time>2022-04-17T08:47:06Z</time>
      </trkpt>
      <trkpt lat="49.04502" lon="7.67383">
        <ele>305.6</ele>
        <time>2022-04-17T08:47:11Z</time>
      </trkpt>
      <trkpt lat="49.04501" lon="7.67383">
        <ele>305.7</ele>
        <time>2022-04-17T08:47:12Z</time>
      </trkpt>
      <trkpt lat="49.045" lon="7.67381">
        <ele>305.9</ele>
        <time>2022-04-17T08:47:21Z</time>
      </trkpt>
      <trkpt lat="49.04501" lon="7.67381">
        <ele>306</ele>
        <time>2022-04-17T08:47:22Z</time>
      </trkpt>
      <trkpt lat="49.04501" lon="7.67381">
        <ele>306.1</ele>
        <time>2022-04-17T08:47:24Z</time>
      </trkpt>
      <trkpt lat="49.04501" lon="7.67381">
        <ele>306.1</ele>
        <time>2022-04-17T08:47:25Z</time>
      </trkpt>
      <trkpt lat="49.04501" lon="7.67381">
        <ele>306.1</ele>
        <time>2022-04-17T08:47:26Z</time>
      </trkpt>
      <trkpt lat="49.04501" lon="7.67382">
        <ele>306.1</ele>
        <time>2022-04-17T08:48:19Z</time>
      </trkpt>
      <trkpt lat="49.04502" lon="7.67383">
        <ele>306.2</ele>
        <time>2022-04-17T08:48:23Z</time>
      </trkpt>
      <trkpt lat="49.04502" lon="7.67383">
        <ele>306.3</ele>
        <time>2022-04-17T08:48:24Z</time>
      </trkpt>
      <trkpt lat="49.045" lon="7.67383">
        <ele>306.4</ele>
        <time>2022-04-17T08:48:27Z</time>
      </trkpt>
      <trkpt lat="49.04501" lon="7.67383">
        <ele>306.4</ele>
        <time>2022-04-17T08:48:28Z</time>
      </trkpt>
      <trkpt lat="49.04501" lon="7.67383">
        <ele>306.4</ele>
        <time>2022-04-17T08:48:29Z</time>
      </trkpt>
      <trkpt lat="49.045" lon="7.67383">
        <ele>306.5</ele>
        <time>2022-04-17T08:48:30Z</time>
      </trkpt>
      <trkpt lat="49.04501" lon="7.67382">
        <ele>306.6</ele>
        <time>2022-04-17T08:48:35Z</time>
      </trkpt>
      <trkpt lat="49.04501" lon="7.67382">
        <ele>306.6</ele>
        <time>2022-04-17T08:48:36Z</time>
      </trkpt>
      <trkpt lat="49.04501" lon="7.67382">
        <ele>306.6</ele>
        <time>2022-04-17T08:48:37Z</time>
      </trkpt>
      <trkpt lat="49.04502" lon="7.67382">
        <ele>306.7</ele>
        <time>2022-04-17T08:48:38Z</time>
      </trkpt>
      <trkpt lat="49.04503" lon="7.67382">
        <ele>306.8</ele>
        <time>2022-04-17T08:48:42Z</time>
      </trkpt>
      <trkpt lat="49.04503" lon="7.67382">
        <ele>306.9</ele>
        <time>2022-04-17T08:48:43Z</time>
      </trkpt>
      <trkpt lat="49.04508" lon="7.67383">
        <ele>307.5</ele>
        <time>2022-04-17T08:48:58Z</time>
      </trkpt>
      <trkpt lat="49.04508" lon="7.67383">
        <ele>307.5</ele>
        <time>2022-04-17T08:49:00Z</time>
      </trkpt>
      <trkpt lat="49.04508" lon="7.67383">
        <ele>307.5</ele>
        <time>2022-04-17T08:49:01Z</time>
      </trkpt>
      <trkpt lat="49.04508" lon="7.67384">
        <ele>307.5</ele>
        <time>2022-04-17T08:49:07Z</time>
      </trkpt>
      <trkpt lat="49.04504" lon="7.67384">
        <ele>307.9</ele>
        <time>2022-04-17T08:49:21Z</time>
      </trkpt>
      <trkpt lat="49.04504" lon="7.67384">
        <ele>308</ele>
        <time>2022-04-17T08:49:34Z</time>
      </trkpt>
      <trkpt lat="49.04505" lon="7.67384">
        <ele>308</ele>
        <time>2022-04-17T08:49:36Z</time>
      </trkpt>
      <trkpt lat="49.04505" lon="7.67385">
        <ele>308.1</ele>
        <time>2022-04-17T08:49:37Z</time>
      </trkpt>
      <trkpt lat="49.04513" lon="7.67383">
        <ele>308.9</ele>
        <time>2022-04-17T08:49:51Z</time>
      </trkpt>
      <trkpt lat="49.04514" lon="7.67383">
        <ele>309</ele>
        <time>2022-04-17T08:49:52Z</time>
      </trkpt>
      <trkpt lat="49.04516" lon="7.67382">
        <ele>309.3</ele>
        <time>2022-04-17T08:49:57Z</time>
      </trkpt>
      <trkpt lat="49.04515" lon="7.67382">
        <ele>309.3</ele>
        <time>2022-04-17T08:49:58Z</time>
      </trkpt>
      <trkpt lat="49.04514" lon="7.67382">
        <ele>309.5</ele>
        <time>2022-04-17T08:50:00Z</time>
      </trkpt>
      <trkpt lat="49.04514" lon="7.67382">
        <ele>309.5</ele>
        <time>2022-04-17T08:50:01Z</time>
      </trkpt>
      <trkpt lat="49.04518" lon="7.67386">
        <ele>310.1</ele>
        <time>2022-04-17T08:50:15Z</time>
      </trkpt>
      <trkpt lat="49.04517" lon="7.67386">
        <ele>310.2</ele>
        <time>2022-04-17T08:50:16Z</time>
      </trkpt>
      <trkpt lat="49.04518" lon="7.67375">
        <ele>311</ele>
        <time>2022-04-17T08:50:33Z</time>
      </trkpt>
      <trkpt lat="49.04519" lon="7.67375">
        <ele>311.1</ele>
        <time>2022-04-17T08:50:34Z</time>
      </trkpt>
      <trkpt lat="49.04522" lon="7.67362">
        <ele>312.1</ele>
        <time>2022-04-17T08:50:46Z</time>
      </trkpt>
      <trkpt lat="49.04529" lon="7.67352">
        <ele>313.2</ele>
        <time>2022-04-17T08:51:06Z</time>
      </trkpt>
      <trkpt lat="49.04531" lon="7.67338">
        <ele>319.8</ele>
        <time>2022-04-17T08:51:35Z</time>
      </trkpt>
      <trkpt lat="49.04537" lon="7.67326">
        <ele>325.1</ele>
        <time>2022-04-17T08:51:54Z</time>
      </trkpt>
      <trkpt lat="49.04542" lon="7.67314">
        <ele>325.5</ele>
        <time>2022-04-17T08:52:05Z</time>
      </trkpt>
      <trkpt lat="49.04547" lon="7.673">
        <ele>326.1</ele>
        <time>2022-04-17T08:52:17Z</time>
      </trkpt>
      <trkpt lat="49.04555" lon="7.67295">
        <ele>326.9</ele>
        <time>2022-04-17T08:52:26Z</time>
      </trkpt>
      <trkpt lat="49.04555" lon="7.67282">
        <ele>327.6</ele>
        <time>2022-04-17T08:52:40Z</time>
      </trkpt>
      <trkpt lat="49.04555" lon="7.67282">
        <ele>327.6</ele>
        <time>2022-04-17T08:52:41Z</time>
      </trkpt>
      <trkpt lat="49.04561" lon="7.6727">
        <ele>328.2</ele>
        <time>2022-04-17T08:52:59Z</time>
      </trkpt>
      <trkpt lat="49.04566" lon="7.67259">
        <ele>328.7</ele>
        <time>2022-04-17T08:53:17Z</time>
      </trkpt>
      <trkpt lat="49.04567" lon="7.67258">
        <ele>328.7</ele>
        <time>2022-04-17T08:53:19Z</time>
      </trkpt>
      <trkpt lat="49.04566" lon="7.67256">
        <ele>328.8</ele>
        <time>2022-04-17T08:53:21Z</time>
      </trkpt>
      <trkpt lat="49.04562" lon="7.67244">
        <ele>329.2</ele>
        <time>2022-04-17T08:53:30Z</time>
      </trkpt>
      <trkpt lat="49.04566" lon="7.67232">
        <ele>329.8</ele>
        <time>2022-04-17T08:53:43Z</time>
      </trkpt>
      <trkpt lat="49.04576" lon="7.67229">
        <ele>330.5</ele>
        <time>2022-04-17T08:53:52Z</time>
      </trkpt>
      <trkpt lat="49.04574" lon="7.67215">
        <ele>331.6</ele>
        <time>2022-04-17T08:54:15Z</time>
      </trkpt>
      <trkpt lat="49.04579" lon="7.67204">
        <ele>332.9</ele>
        <time>2022-04-17T08:54:32Z</time>
      </trkpt>
      <trkpt lat="49.04578" lon="7.6719">
        <ele>334.2</ele>
        <time>2022-04-17T08:54:48Z</time>
      </trkpt>
      <trkpt lat="49.04579" lon="7.67176">
        <ele>335.6</ele>
        <time>2022-04-17T08:55:09Z</time>
      </trkpt>
      <trkpt lat="49.04584" lon="7.67164">
        <ele>336.9</ele>
        <time>2022-04-17T08:55:34Z</time>
      </trkpt>
      <trkpt lat="49.04591" lon="7.67155">
        <ele>338.2</ele>
        <time>2022-04-17T08:55:53Z</time>
      </trkpt>
      <trkpt lat="49.04589" lon="7.67141">
        <ele>339.5</ele>
        <time>2022-04-17T08:56:11Z</time>
      </trkpt>
      <trkpt lat="49.04586" lon="7.67138">
        <ele>339.9</ele>
        <time>2022-04-17T08:56:15Z</time>
      </trkpt>
      <trkpt lat="49.04587" lon="7.67138">
        <ele>340</ele>
        <time>2022-04-17T08:56:16Z</time>
      </trkpt>
      <trkpt lat="49.04588" lon="7.67133">
        <ele>340.6</ele>
        <time>2022-04-17T08:56:36Z</time>
      </trkpt>
      <trkpt lat="49.04588" lon="7.67132">
        <ele>340.7</ele>
        <time>2022-04-17T08:56:37Z</time>
      </trkpt>
      <trkpt lat="49.04592" lon="7.67119">
        <ele>342</ele>
        <time>2022-04-17T08:56:51Z</time>
      </trkpt>
      <trkpt lat="49.04592" lon="7.67105">
        <ele>343</ele>
        <time>2022-04-17T08:57:08Z</time>
      </trkpt>
      <trkpt lat="49.0459" lon="7.67091">
        <ele>343.7</ele>
        <time>2022-04-17T08:57:27Z</time>
      </trkpt>
      <trkpt lat="49.0459" lon="7.6708">
        <ele>344.1</ele>
        <time>2022-04-17T08:57:48Z</time>
      </trkpt>
      <trkpt lat="49.0459" lon="7.6708">
        <ele>344.1</ele>
        <time>2022-04-17T08:57:49Z</time>
      </trkpt>
      <trkpt lat="49.04589" lon="7.67078">
        <ele>344.2</ele>
        <time>2022-04-17T08:57:55Z</time>
      </trkpt>
      <trkpt lat="49.04589" lon="7.67077">
        <ele>344.4</ele>
        <time>2022-04-17T08:57:56Z</time>
      </trkpt>
      <trkpt lat="49.04589" lon="7.67077">
        <ele>344.4</ele>
        <time>2022-04-17T08:57:57Z</time>
      </trkpt>
      <trkpt lat="49.04588" lon="7.67077">
        <ele>344.4</ele>
        <time>2022-04-17T08:57:58Z</time>
      </trkpt>
      <trkpt lat="49.04586" lon="7.67076">
        <ele>344.4</ele>
        <time>2022-04-17T08:58:13Z</time>
      </trkpt>
      <trkpt lat="49.04586" lon="7.67076">
        <ele>344.4</ele>
        <time>2022-04-17T08:58:17Z</time>
      </trkpt>
      <trkpt lat="49.04586" lon="7.67074">
        <ele>344.4</ele>
        <time>2022-04-17T08:58:22Z</time>
      </trkpt>
      <trkpt lat="49.04586" lon="7.67075">
        <ele>344.4</ele>
        <time>2022-04-17T08:58:23Z</time>
      </trkpt>
      <trkpt lat="49.04587" lon="7.67075">
        <ele>344.4</ele>
        <time>2022-04-17T08:58:30Z</time>
      </trkpt>
      <trkpt lat="49.04587" lon="7.67075">
        <ele>344.4</ele>
        <time>2022-04-17T08:58:31Z</time>
      </trkpt>
      <trkpt lat="49.04587" lon="7.67075">
        <ele>344.4</ele>
        <time>2022-04-17T08:58:34Z</time>
      </trkpt>
      <trkpt lat="49.04587" lon="7.67075">
        <ele>344.4</ele>
        <time>2022-04-17T08:58:36Z</time>
      </trkpt>
      <trkpt lat="49.04587" lon="7.67075">
        <ele>344.4</ele>
        <time>2022-04-17T08:58:37Z</time>
      </trkpt>
      <trkpt lat="49.04588" lon="7.67076">
        <ele>344.4</ele>
        <time>2022-04-17T08:58:46Z</time>
      </trkpt>
      <trkpt lat="49.04588" lon="7.67075">
        <ele>344.4</ele>
        <time>2022-04-17T08:59:27Z</time>
      </trkpt>
      <trkpt lat="49.04588" lon="7.67075">
        <ele>344.4</ele>
        <time>2022-04-17T08:59:28Z</time>
      </trkpt>
      <trkpt lat="49.04586" lon="7.67073">
        <ele>344.4</ele>
        <time>2022-04-17T08:59:32Z</time>
      </trkpt>
      <trkpt lat="49.04586" lon="7.67073">
        <ele>344.4</ele>
        <time>2022-04-17T08:59:33Z</time>
      </trkpt>
      <trkpt lat="49.04589" lon="7.67077">
        <ele>344.4</ele>
        <time>2022-04-17T09:00:10Z</time>
      </trkpt>
      <trkpt lat="49.0459" lon="7.67078">
        <ele>344.4</ele>
        <time>2022-04-17T09:00:11Z</time>
      </trkpt>
      <trkpt lat="49.04594" lon="7.67079">
        <ele>344.7</ele>
        <time>2022-04-17T09:00:24Z</time>
      </trkpt>
      <trkpt lat="49.04594" lon="7.67079">
        <ele>345</ele>
        <time>2022-04-17T09:00:25Z</time>
      </trkpt>
      <trkpt lat="49.04599" lon="7.67091">
        <ele>348.5</ele>
        <time>2022-04-17T09:00:40Z</time>
      </trkpt>
      <trkpt lat="49.04607" lon="7.67099">
        <ele>352</ele>
        <time>2022-04-17T09:00:47Z</time>
      </trkpt>
      <trkpt lat="49.04602" lon="7.67087">
        <ele>348.5</ele>
        <time>2022-04-17T09:01:18Z</time>
      </trkpt>
      <trkpt lat="49.04601" lon="7.67086">
        <ele>348.3</ele>
        <time>2022-04-17T09:01:33Z</time>
      </trkpt>
      <trkpt lat="49.04601" lon="7.67086">
        <ele>348.3</ele>
        <time>2022-04-17T09:01:34Z</time>
      </trkpt>
      <trkpt lat="49.04595" lon="7.67081">
        <ele>347.4</ele>
        <time>2022-04-17T09:01:42Z</time>
      </trkpt>
      <trkpt lat="49.04595" lon="7.67082">
        <ele>347.3</ele>
        <time>2022-04-17T09:01:43Z</time>
      </trkpt>
      <trkpt lat="49.04595" lon="7.67082">
        <ele>347.2</ele>
        <time>2022-04-17T09:01:47Z</time>
      </trkpt>
      <trkpt lat="49.04595" lon="7.67082">
        <ele>347.1</ele>
        <time>2022-04-17T09:01:48Z</time>
      </trkpt>
      <trkpt lat="49.04595" lon="7.67083">
        <ele>347</ele>
        <time>2022-04-17T09:02:02Z</time>
      </trkpt>
      <trkpt lat="49.04594" lon="7.67081">
        <ele>346.9</ele>
        <time>2022-04-17T09:02:04Z</time>
      </trkpt>
      <trkpt lat="49.0459" lon="7.67088">
        <ele>346</ele>
        <time>2022-04-17T09:02:35Z</time>
      </trkpt>
      <trkpt lat="49.0459" lon="7.67088">
        <ele>346</ele>
        <time>2022-04-17T09:02:36Z</time>
      </trkpt>
      <trkpt lat="49.04585" lon="7.67081">
        <ele>344.4</ele>
        <time>2022-04-17T09:02:46Z</time>
      </trkpt>
      <trkpt lat="49.04585" lon="7.6708">
        <ele>344.4</ele>
        <time>2022-04-17T09:02:48Z</time>
      </trkpt>
      <trkpt lat="49.04582" lon="7.67078">
        <ele>344.4</ele>
        <time>2022-04-17T09:03:01Z</time>
      </trkpt>
      <trkpt lat="49.04581" lon="7.67078">
        <ele>344.4</ele>
        <time>2022-04-17T09:03:05Z</time>
      </trkpt>
      <trkpt lat="49.04581" lon="7.67078">
        <ele>344.4</ele>
        <time>2022-04-17T09:03:06Z</time>
      </trkpt>
      <trkpt lat="49.04582" lon="7.67079">
        <ele>344.4</ele>
        <time>2022-04-17T09:03:11Z</time>
      </trkpt>
      <trkpt lat="49.0458" lon="7.6708">
        <ele>344.4</ele>
        <time>2022-04-17T09:03:16Z</time>
      </trkpt>
      <trkpt lat="49.04581" lon="7.67081">
        <ele>344.4</ele>
        <time>2022-04-17T09:03:17Z</time>
      </trkpt>
      <trkpt lat="49.04583" lon="7.67081">
        <ele>344.4</ele>
        <time>2022-04-17T09:03:29Z</time>
      </trkpt>
      <trkpt lat="49.04584" lon="7.67081">
        <ele>344.4</ele>
        <time>2022-04-17T09:04:16Z</time>
      </trkpt>
      <trkpt lat="49.04585" lon="7.67081">
        <ele>344.4</ele>
        <time>2022-04-17T09:04:18Z</time>
      </trkpt>
      <trkpt lat="49.04585" lon="7.67081">
        <ele>344.4</ele>
        <time>2022-04-17T09:04:30Z</time>
      </trkpt>
      <trkpt lat="49.04586" lon="7.67081">
        <ele>344.4</ele>
        <time>2022-04-17T09:04:32Z</time>
      </trkpt>
      <trkpt lat="49.04586" lon="7.67081">
        <ele>344.4</ele>
        <time>2022-04-17T09:04:33Z</time>
      </trkpt>
      <trkpt lat="49.04586" lon="7.67081">
        <ele>344.4</ele>
        <time>2022-04-17T09:04:34Z</time>
      </trkpt>
      <trkpt lat="49.04586" lon="7.67081">
        <ele>344.4</ele>
        <time>2022-04-17T09:04:35Z</time>
      </trkpt>
      <trkpt lat="49.04586" lon="7.67081">
        <ele>344.4</ele>
        <time>2022-04-17T09:04:36Z</time>
      </trkpt>
      <trkpt lat="49.04586" lon="7.67082">
        <ele>344.4</ele>
        <time>2022-04-17T09:04:44Z</time>
      </trkpt>
      <trkpt lat="49.04586" lon="7.67081">
        <ele>344.4</ele>
        <time>2022-04-17T09:04:46Z</time>
      </trkpt>
      <trkpt lat="49.04586" lon="7.67082">
        <ele>344.4</ele>
        <time>2022-04-17T09:05:14Z</time>
      </trkpt>
      <trkpt lat="49.04587" lon="7.67081">
        <ele>344.4</ele>
        <time>2022-04-17T09:05:17Z</time>
      </trkpt>
      <trkpt lat="49.04587" lon="7.67081">
        <ele>344.4</ele>
        <time>2022-04-17T09:05:22Z</time>
      </trkpt>
      <trkpt lat="49.04587" lon="7.67081">
        <ele>344.4</ele>
        <time>2022-04-17T09:05:23Z</time>
      </trkpt>
      <trkpt lat="49.04587" lon="7.67081">
        <ele>344.4</ele>
        <time>2022-04-17T09:05:32Z</time>
      </trkpt>
      <trkpt lat="49.04587" lon="7.67081">
        <ele>344.4</ele>
        <time>2022-04-17T09:05:36Z</time>
      </trkpt>
      <trkpt lat="49.04587" lon="7.67081">
        <ele>344.4</ele>
        <time>2022-04-17T09:05:38Z</time>
      </trkpt>
      <trkpt lat="49.04587" lon="7.67081">
        <ele>344.4</ele>
        <time>2022-04-17T09:05:41Z</time>
      </trkpt>
      <trkpt lat="49.04587" lon="7.67081">
        <ele>344.4</ele>
        <time>2022-04-17T09:05:52Z</time>
      </trkpt>
      <trkpt lat="49.04587" lon="7.67081">
        <ele>344.4</ele>
        <time>2022-04-17T09:05:53Z</time>
      </trkpt>
      <trkpt lat="49.04587" lon="7.67081">
        <ele>344.4</ele>
        <time>2022-04-17T09:06:05Z</time>
      </trkpt>
      <trkpt lat="49.04587" lon="7.67081">
        <ele>344.4</ele>
        <time>2022-04-17T09:06:06Z</time>
      </trkpt>
      <trkpt lat="49.04587" lon="7.67081">
        <ele>344.4</ele>
        <time>2022-04-17T09:06:07Z</time>
      </trkpt>
      <trkpt lat="49.04587" lon="7.67081">
        <ele>344.4</ele>
        <time>2022-04-17T09:06:08Z</time>
      </trkpt>
      <trkpt lat="49.04587" lon="7.67081">
        <ele>344.4</ele>
        <time>2022-04-17T09:06:11Z</time>
      </trkpt>
      <trkpt lat="49.04587" lon="7.67085">
        <ele>344.4</ele>
        <time>2022-04-17T09:06:30Z</time>
      </trkpt>
      <trkpt lat="49.04587" lon="7.67085">
        <ele>344.4</ele>
        <time>2022-04-17T09:06:31Z</time>
      </trkpt>
      <trkpt lat="49.04592" lon="7.67087">
        <ele>344.4</ele>
        <time>2022-04-17T09:06:42Z</time>
      </trkpt>
      <trkpt lat="49.04591" lon="7.67086">
        <ele>344.4</ele>
        <time>2022-04-17T09:06:43Z</time>
      </trkpt>
      <trkpt lat="49.04591" lon="7.67087">
        <ele>344.4</ele>
        <time>2022-04-17T09:06:48Z</time>
      </trkpt>
      <trkpt lat="49.04591" lon="7.67087">
        <ele>344.4</ele>
        <time>2022-04-17T09:06:49Z</time>
      </trkpt>
      <trkpt lat="49.04594" lon="7.67089">
        <ele>344.4</ele>
        <time>2022-04-17T09:07:15Z</time>
      </trkpt>
      <trkpt lat="49.04595" lon="7.67089">
        <ele>344.4</ele>
        <time>2022-04-17T09:07:16Z</time>
      </trkpt>
      <trkpt lat="49.04591" lon="7.67088">
        <ele>344.4</ele>
        <time>2022-04-17T09:07:45Z</time>
      </trkpt>
      <trkpt lat="49.0459" lon="7.67088">
        <ele>344.4</ele>
        <time>2022-04-17T09:07:54Z</time>
      </trkpt>
      <trkpt lat="49.0459" lon="7.67088">
        <ele>344.4</ele>
        <time>2022-04-17T09:07:56Z</time>
      </trkpt>
      <trkpt lat="49.04589" lon="7.67087">
        <ele>344.4</ele>
        <time>2022-04-17T09:07:58Z</time>
      </trkpt>
      <trkpt lat="49.04589" lon="7.67087">
        <ele>344.4</ele>
        <time>2022-04-17T09:07:59Z</time>
      </trkpt>
      <trkpt lat="49.04589" lon="7.67087">
        <ele>344.4</ele>
        <time>2022-04-17T09:08:03Z</time>
      </trkpt>
      <trkpt lat="49.0459" lon="7.67087">
        <ele>344.4</ele>
        <time>2022-04-17T09:08:06Z</time>
      </trkpt>
      <trkpt lat="49.04591" lon="7.67087">
        <ele>344.4</ele>
        <time>2022-04-17T09:08:12Z</time>
      </trkpt>
      <trkpt lat="49.04591" lon="7.67087">
        <ele>344.4</ele>
        <time>2022-04-17T09:08:13Z</time>
      </trkpt>
      <trkpt lat="49.04591" lon="7.67087">
        <ele>344.4</ele>
        <time>2022-04-17T09:08:17Z</time>
      </trkpt>
      <trkpt lat="49.04595" lon="7.6709">
        <ele>344.4</ele>
        <time>2022-04-17T09:08:31Z</time>
      </trkpt>
      <trkpt lat="49.04596" lon="7.6709">
        <ele>344.4</ele>
        <time>2022-04-17T09:08:33Z</time>
      </trkpt>
      <trkpt lat="49.04596" lon="7.67089">
        <ele>344.5</ele>
        <time>2022-04-17T09:08:37Z</time>
      </trkpt>
      <trkpt lat="49.04596" lon="7.6709">
        <ele>344.5</ele>
        <time>2022-04-17T09:08:38Z</time>
      </trkpt>
      <trkpt lat="49.04599" lon="7.67088">
        <ele>344.7</ele>
        <time>2022-04-17T09:09:09Z</time>
      </trkpt>
      <trkpt lat="49.04598" lon="7.67088">
        <ele>344.8</ele>
        <time>2022-04-17T09:09:17Z</time>
      </trkpt>
      <trkpt lat="49.04594" lon="7.67088">
        <ele>345.1</ele>
        <time>2022-04-17T09:09:26Z</time>
      </trkpt>
      <trkpt lat="49.04594" lon="7.67088">
        <ele>345.1</ele>
        <time>2022-04-17T09:09:27Z</time>
      </trkpt>
      <trkpt lat="49.04594" lon="7.67088">
        <ele>345.2</ele>
        <time>2022-04-17T09:09:32Z</time>
      </trkpt>
      <trkpt lat="49.04594" lon="7.67088">
        <ele>345.2</ele>
        <time>2022-04-17T09:09:33Z</time>
      </trkpt>
      <trkpt lat="49.04594" lon="7.67088">
        <ele>345.2</ele>
        <time>2022-04-17T09:09:34Z</time>
      </trkpt>
      <trkpt lat="49.04594" lon="7.67088">
        <ele>345.2</ele>
        <time>2022-04-17T09:09:35Z</time>
      </trkpt>
      <trkpt lat="49.04596" lon="7.67088">
        <ele>345.4</ele>
        <time>2022-04-17T09:09:38Z</time>
      </trkpt>
      <trkpt lat="49.04596" lon="7.67088">
        <ele>345.4</ele>
        <time>2022-04-17T09:09:41Z</time>
      </trkpt>
      <trkpt lat="49.04596" lon="7.67088">
        <ele>345.4</ele>
        <time>2022-04-17T09:09:42Z</time>
      </trkpt>
      <trkpt lat="49.04596" lon="7.67088">
        <ele>345.4</ele>
        <time>2022-04-17T09:09:53Z</time>
      </trkpt>
      <trkpt lat="49.04596" lon="7.67088">
        <ele>345.4</ele>
        <time>2022-04-17T09:09:54Z</time>
      </trkpt>
      <trkpt lat="49.04596" lon="7.67088">
        <ele>345.4</ele>
        <time>2022-04-17T09:10:20Z</time>
      </trkpt>
      <trkpt lat="49.04596" lon="7.67087">
        <ele>345.4</ele>
        <time>2022-04-17T09:10:23Z</time>
      </trkpt>
      <trkpt lat="49.04596" lon="7.67087">
        <ele>345.5</ele>
        <time>2022-04-17T09:10:30Z</time>
      </trkpt>
      <trkpt lat="49.04597" lon="7.67086">
        <ele>345.6</ele>
        <time>2022-04-17T09:10:34Z</time>
      </trkpt>
      <trkpt lat="49.04597" lon="7.67086">
        <ele>345.6</ele>
        <time>2022-04-17T09:10:35Z</time>
      </trkpt>
      <trkpt lat="49.04597" lon="7.67086">
        <ele>345.6</ele>
        <time>2022-04-17T09:10:36Z</time>
      </trkpt>
      <trkpt lat="49.04597" lon="7.67085">
        <ele>345.6</ele>
        <time>2022-04-17T09:11:10Z</time>
      </trkpt>
      <trkpt lat="49.04597" lon="7.67085">
        <ele>345.6</ele>
        <time>2022-04-17T09:11:11Z</time>
      </trkpt>
      <trkpt lat="49.04597" lon="7.67085">
        <ele>345.7</ele>
        <time>2022-04-17T09:11:18Z</time>
      </trkpt>
      <trkpt lat="49.04596" lon="7.67084">
        <ele>345.7</ele>
        <time>2022-04-17T09:11:21Z</time>
      </trkpt>
      <trkpt lat="49.04596" lon="7.67084">
        <ele>345.7</ele>
        <time>2022-04-17T09:11:22Z</time>
      </trkpt>
      <trkpt lat="49.04595" lon="7.67084">
        <ele>345.8</ele>
        <time>2022-04-17T09:11:25Z</time>
      </trkpt>
      <trkpt lat="49.04596" lon="7.67084">
        <ele>345.8</ele>
        <time>2022-04-17T09:11:30Z</time>
      </trkpt>
      <trkpt lat="49.04597" lon="7.67084">
        <ele>346</ele>
        <time>2022-04-17T09:11:37Z</time>
      </trkpt>
      <trkpt lat="49.04597" lon="7.67084">
        <ele>346</ele>
        <time>2022-04-17T09:11:38Z</time>
      </trkpt>
      <trkpt lat="49.04597" lon="7.67084">
        <ele>346</ele>
        <time>2022-04-17T09:11:39Z</time>
      </trkpt>
      <trkpt lat="49.04597" lon="7.67083">
        <ele>346</ele>
        <time>2022-04-17T09:11:40Z</time>
      </trkpt>
      <trkpt lat="49.046" lon="7.67082">
        <ele>346.3</ele>
        <time>2022-04-17T09:11:47Z</time>
      </trkpt>
      <trkpt lat="49.046" lon="7.67082">
        <ele>346.3</ele>
        <time>2022-04-17T09:11:48Z</time>
      </trkpt>
      <trkpt lat="49.04599" lon="7.67082">
        <ele>346.4</ele>
        <time>2022-04-17T09:11:50Z</time>
      </trkpt>
      <trkpt lat="49.04599" lon="7.67082">
        <ele>346.4</ele>
        <time>2022-04-17T09:11:51Z</time>
      </trkpt>
      <trkpt lat="49.04599" lon="7.67082">
        <ele>346.4</ele>
        <time>2022-04-17T09:11:53Z</time>
      </trkpt>
      <trkpt lat="49.04599" lon="7.67082">
        <ele>346.5</ele>
        <time>2022-04-17T09:12:01Z</time>
      </trkpt>
      <trkpt lat="49.04599" lon="7.67082">
        <ele>346.5</ele>
        <time>2022-04-17T09:12:03Z</time>
      </trkpt>
      <trkpt lat="49.046" lon="7.67082">
        <ele>346.6</ele>
        <time>2022-04-17T09:12:10Z</time>
      </trkpt>
      <trkpt lat="49.046" lon="7.67082">
        <ele>346.6</ele>
        <time>2022-04-17T09:12:11Z</time>
      </trkpt>
      <trkpt lat="49.046" lon="7.67082">
        <ele>346.6</ele>
        <time>2022-04-17T09:12:17Z</time>
      </trkpt>
      <trkpt lat="49.046" lon="7.67082">
        <ele>346.6</ele>
        <time>2022-04-17T09:12:18Z</time>
      </trkpt>
      <trkpt lat="49.046" lon="7.67082">
        <ele>346.6</ele>
        <time>2022-04-17T09:12:22Z</time>
      </trkpt>
      <trkpt lat="49.04602" lon="7.67082">
        <ele>346.8</ele>
        <time>2022-04-17T09:12:29Z</time>
      </trkpt>
      <trkpt lat="49.04602" lon="7.67082">
        <ele>346.8</ele>
        <time>2022-04-17T09:12:30Z</time>
      </trkpt>
      <trkpt lat="49.04603" lon="7.67082">
        <ele>346.9</ele>
        <time>2022-04-17T09:12:34Z</time>
      </trkpt>
      <trkpt lat="49.04603" lon="7.67081">
        <ele>347</ele>
        <time>2022-04-17T09:12:36Z</time>
      </trkpt>
      <trkpt lat="49.04601" lon="7.67081">
        <ele>347.2</ele>
        <time>2022-04-17T09:12:41Z</time>
      </trkpt>
      <trkpt lat="49.04601" lon="7.6708">
        <ele>347.2</ele>
        <time>2022-04-17T09:12:42Z</time>
      </trkpt>
      <trkpt lat="49.04601" lon="7.6708">
        <ele>347.2</ele>
        <time>2022-04-17T09:12:44Z</time>
      </trkpt>
      <trkpt lat="49.046" lon="7.6708">
        <ele>347.3</ele>
        <time>2022-04-17T09:12:46Z</time>
      </trkpt>
      <trkpt lat="49.046" lon="7.6708">
        <ele>347.3</ele>
        <time>2022-04-17T09:12:51Z</time>
      </trkpt>
      <trkpt lat="49.046" lon="7.67079">
        <ele>347.4</ele>
        <time>2022-04-17T09:13:09Z</time>
      </trkpt>
      <trkpt lat="49.04601" lon="7.67078">
        <ele>347.5</ele>
        <time>2022-04-17T09:13:17Z</time>
      </trkpt>
      <trkpt lat="49.046" lon="7.67078">
        <ele>347.6</ele>
        <time>2022-04-17T09:13:18Z</time>
      </trkpt>
      <trkpt lat="49.04593" lon="7.6708">
        <ele>348.4</ele>
        <time>2022-04-17T09:13:30Z</time>
      </trkpt>
      <trkpt lat="49.04593" lon="7.6708">
        <ele>348.4</ele>
        <time>2022-04-17T09:13:31Z</time>
      </trkpt>
      <trkpt lat="49.04595" lon="7.67074">
        <ele>349</ele>
        <time>2022-04-17T09:14:02Z</time>
      </trkpt>
      <trkpt lat="49.04596" lon="7.67074">
        <ele>349</ele>
        <time>2022-04-17T09:14:03Z</time>
      </trkpt>
      <trkpt lat="49.04597" lon="7.67075">
        <ele>349.1</ele>
        <time>2022-04-17T09:14:05Z</time>
      </trkpt>
      <trkpt lat="49.04597" lon="7.67075">
        <ele>349.2</ele>
        <time>2022-04-17T09:14:08Z</time>
      </trkpt>
      <trkpt lat="49.04605" lon="7.67083">
        <ele>350.3</ele>
        <time>2022-04-17T09:14:34Z</time>
      </trkpt>
      <trkpt lat="49.04611" lon="7.67095">
        <ele>351.5</ele>
        <time>2022-04-17T09:14:46Z</time>
      </trkpt>
      <trkpt lat="49.04614" lon="7.67108">
        <ele>355.8</ele>
        <time>2022-04-17T09:14:58Z</time>
      </trkpt>
      <trkpt lat="49.04623" lon="7.67113">
        <ele>361.5</ele>
        <time>2022-04-17T09:15:11Z</time>
      </trkpt>
      <trkpt lat="49.04632" lon="7.67112">
        <ele>363.1</ele>
        <time>2022-04-17T09:15:18Z</time>
      </trkpt>
      <trkpt lat="49.04641" lon="7.67116">
        <ele>364.4</ele>
        <time>2022-04-17T09:15:27Z</time>
      </trkpt>
      <trkpt lat="49.0465" lon="7.67116">
        <ele>365.5</ele>
        <time>2022-04-17T09:15:35Z</time>
      </trkpt>
      <trkpt lat="49.0466" lon="7.67119">
        <ele>366.7</ele>
        <time>2022-04-17T09:15:43Z</time>
      </trkpt>
      <trkpt lat="49.04669" lon="7.67121">
        <ele>367.9</ele>
        <time>2022-04-17T09:15:52Z</time>
      </trkpt>
      <trkpt lat="49.04679" lon="7.67118">
        <ele>369.2</ele>
        <time>2022-04-17T09:15:59Z</time>
      </trkpt>
      <trkpt lat="49.04688" lon="7.67121">
        <ele>370.4</ele>
        <time>2022-04-17T09:16:08Z</time>
      </trkpt>
      <trkpt lat="49.04697" lon="7.67123">
        <ele>371.6</ele>
        <time>2022-04-17T09:16:17Z</time>
      </trkpt>
      <trkpt lat="49.04707" lon="7.67124">
        <ele>373</ele>
        <time>2022-04-17T09:16:26Z</time>
      </trkpt>
      <trkpt lat="49.04716" lon="7.67124">
        <ele>374.3</ele>
        <time>2022-04-17T09:16:34Z</time>
      </trkpt>
      <trkpt lat="49.04726" lon="7.6713">
        <ele>375.7</ele>
        <time>2022-04-17T09:16:47Z</time>
      </trkpt>
      <trkpt lat="49.04735" lon="7.67137">
        <ele>377.2</ele>
        <time>2022-04-17T09:16:52Z</time>
      </trkpt>
      <trkpt lat="49.04745" lon="7.67141">
        <ele>378.7</ele>
        <time>2022-04-17T09:16:56Z</time>
      </trkpt>
      <trkpt lat="49.04752" lon="7.67151">
        <ele>380.1</ele>
        <time>2022-04-17T09:17:04Z</time>
      </trkpt>
      <trkpt lat="49.04759" lon="7.67162">
        <ele>381.6</ele>
        <time>2022-04-17T09:17:12Z</time>
      </trkpt>
      <trkpt lat="49.04765" lon="7.67173">
        <ele>383.1</ele>
        <time>2022-04-17T09:17:20Z</time>
      </trkpt>
      <trkpt lat="49.04769" lon="7.67186">
        <ele>384.8</ele>
        <time>2022-04-17T09:17:28Z</time>
      </trkpt>
      <trkpt lat="49.04774" lon="7.67199">
        <ele>386.4</ele>
        <time>2022-04-17T09:17:35Z</time>
      </trkpt>
      <trkpt lat="49.04782" lon="7.6721">
        <ele>386.6</ele>
        <time>2022-04-17T09:17:42Z</time>
      </trkpt>
      <trkpt lat="49.04789" lon="7.6722">
        <ele>386.8</ele>
        <time>2022-04-17T09:17:48Z</time>
      </trkpt>
      <trkpt lat="49.04794" lon="7.67233">
        <ele>387.1</ele>
        <time>2022-04-17T09:17:57Z</time>
      </trkpt>
      <trkpt lat="49.04798" lon="7.67246">
        <ele>387.5</ele>
        <time>2022-04-17T09:18:07Z</time>
      </trkpt>
      <trkpt lat="49.04804" lon="7.67256">
        <ele>387.8</ele>
        <time>2022-04-17T09:18:14Z</time>
      </trkpt>
      <trkpt lat="49.04811" lon="7.67266">
        <ele>388.2</ele>
        <time>2022-04-17T09:18:20Z</time>
      </trkpt>
      <trkpt lat="49.04817" lon="7.67277">
        <ele>388.5</ele>
        <time>2022-04-17T09:18:27Z</time>
      </trkpt>
      <trkpt lat="49.04821" lon="7.6729">
        <ele>388.7</ele>
        <time>2022-04-17T09:18:35Z</time>
      </trkpt>
      <trkpt lat="49.04821" lon="7.67304">
        <ele>388.9</ele>
        <time>2022-04-17T09:18:43Z</time>
      </trkpt>
      <trkpt lat="49.04822" lon="7.67318">
        <ele>389.1</ele>
        <time>2022-04-17T09:18:50Z</time>
      </trkpt>
      <trkpt lat="49.04827" lon="7.6733">
        <ele>389.3</ele>
        <time>2022-04-17T09:18:58Z</time>
      </trkpt>
      <trkpt lat="49.0483" lon="7.67343">
        <ele>389.5</ele>
        <time>2022-04-17T09:19:06Z</time>
      </trkpt>
      <trkpt lat="49.04837" lon="7.67355">
        <ele>389.7</ele>
        <time>2022-04-17T09:19:14Z</time>
      </trkpt>
      <trkpt lat="49.04843" lon="7.67366">
        <ele>389.9</ele>
        <time>2022-04-17T09:19:19Z</time>
      </trkpt>
      <trkpt lat="49.04848" lon="7.67379">
        <ele>390.1</ele>
        <time>2022-04-17T09:19:26Z</time>
      </trkpt>
      <trkpt lat="49.04849" lon="7.67394">
        <ele>390.3</ele>
        <time>2022-04-17T09:19:35Z</time>
      </trkpt>
      <trkpt lat="49.04854" lon="7.67406">
        <ele>390.5</ele>
        <time>2022-04-17T09:19:44Z</time>
      </trkpt>
      <trkpt lat="49.04857" lon="7.67421">
        <ele>390.7</ele>
        <time>2022-04-17T09:19:52Z</time>
      </trkpt>
      <trkpt lat="49.04862" lon="7.67433">
        <ele>390.9</ele>
        <time>2022-04-17T09:20:00Z</time>
      </trkpt>
      <trkpt lat="49.04867" lon="7.67446">
        <ele>391.1</ele>
        <time>2022-04-17T09:20:08Z</time>
      </trkpt>
      <trkpt lat="49.04875" lon="7.67456">
        <ele>391.3</ele>
        <time>2022-04-17T09:20:15Z</time>
      </trkpt>
      <trkpt lat="49.04882" lon="7.67466">
        <ele>391.4</ele>
        <time>2022-04-17T09:20:21Z</time>
      </trkpt>
      <trkpt lat="49.04889" lon="7.67477">
        <ele>391.5</ele>
        <time>2022-04-17T09:20:27Z</time>
      </trkpt>
      <trkpt lat="49.04895" lon="7.67488">
        <ele>391.5</ele>
        <time>2022-04-17T09:20:35Z</time>
      </trkpt>
      <trkpt lat="49.04901" lon="7.67499">
        <ele>391.5</ele>
        <time>2022-04-17T09:20:42Z</time>
      </trkpt>
      <trkpt lat="49.0491" lon="7.67509">
        <ele>391.5</ele>
        <time>2022-04-17T09:20:48Z</time>
      </trkpt>
      <trkpt lat="49.04917" lon="7.67517">
        <ele>391.4</ele>
        <time>2022-04-17T09:20:53Z</time>
      </trkpt>
      <trkpt lat="49.04924" lon="7.67528">
        <ele>391.5</ele>
        <time>2022-04-17T09:21:01Z</time>
      </trkpt>
      <trkpt lat="49.0493" lon="7.67539">
        <ele>391.3</ele>
        <time>2022-04-17T09:21:09Z</time>
      </trkpt>
      <trkpt lat="49.04938" lon="7.67547">
        <ele>390.8</ele>
        <time>2022-04-17T09:21:17Z</time>
      </trkpt>
      <trkpt lat="49.04945" lon="7.67556">
        <ele>390.4</ele>
        <time>2022-04-17T09:21:26Z</time>
      </trkpt>
      <trkpt lat="49.04951" lon="7.67566">
        <ele>389.9</ele>
        <time>2022-04-17T09:21:34Z</time>
      </trkpt>
      <trkpt lat="49.04959" lon="7.67575">
        <ele>389.4</ele>
        <time>2022-04-17T09:21:40Z</time>
      </trkpt>
      <trkpt lat="49.04966" lon="7.67586">
        <ele>389</ele>
        <time>2022-04-17T09:21:50Z</time>
      </trkpt>
      <trkpt lat="49.04974" lon="7.67594">
        <ele>388.6</ele>
        <time>2022-04-17T09:21:56Z</time>
      </trkpt>
      <trkpt lat="49.04977" lon="7.67599">
        <ele>388.4</ele>
        <time>2022-04-17T09:22:01Z</time>
      </trkpt>
      <trkpt lat="49.04978" lon="7.67599">
        <ele>388.4</ele>
        <time>2022-04-17T09:22:02Z</time>
      </trkpt>
      <trkpt lat="49.04979" lon="7.67597">
        <ele>388.5</ele>
        <time>2022-04-17T09:22:08Z</time>
      </trkpt>
      <trkpt lat="49.04978" lon="7.67597">
        <ele>388.5</ele>
        <time>2022-04-17T09:22:09Z</time>
      </trkpt>
      <trkpt lat="49.0497" lon="7.67587">
        <ele>388.9</ele>
        <time>2022-04-17T09:22:20Z</time>
      </trkpt>
      <trkpt lat="49.04962" lon="7.67579">
        <ele>389.3</ele>
        <time>2022-04-17T09:22:28Z</time>
      </trkpt>
      <trkpt lat="49.04956" lon="7.67568">
        <ele>389.7</ele>
        <time>2022-04-17T09:22:36Z</time>
      </trkpt>
      <trkpt lat="49.0495" lon="7.67559">
        <ele>390.1</ele>
        <time>2022-04-17T09:22:46Z</time>
      </trkpt>
      <trkpt lat="49.04949" lon="7.67559">
        <ele>390.2</ele>
        <time>2022-04-17T09:22:47Z</time>
      </trkpt>
      <trkpt lat="49.04939" lon="7.67554">
        <ele>390.7</ele>
        <time>2022-04-17T09:22:51Z</time>
      </trkpt>
      <trkpt lat="49.04931" lon="7.67545">
        <ele>391.1</ele>
        <time>2022-04-17T09:22:58Z</time>
      </trkpt>
      <trkpt lat="49.04923" lon="7.67536">
        <ele>392</ele>
        <time>2022-04-17T09:23:04Z</time>
      </trkpt>
      <trkpt lat="49.04916" lon="7.67525">
        <ele>393.3</ele>
        <time>2022-04-17T09:23:12Z</time>
      </trkpt>
      <trkpt lat="49.04906" lon="7.67522">
        <ele>394.6</ele>
        <time>2022-04-17T09:23:22Z</time>
      </trkpt>
      <trkpt lat="49.04906" lon="7.67523">
        <ele>394.7</ele>
        <time>2022-04-17T09:23:25Z</time>
      </trkpt>
      <trkpt lat="49.04906" lon="7.67522">
        <ele>394.8</ele>
        <time>2022-04-17T09:23:26Z</time>
      </trkpt>
      <trkpt lat="49.04897" lon="7.67515">
        <ele>395.8</ele>
        <time>2022-04-17T09:23:41Z</time>
      </trkpt>
      <trkpt lat="49.04888" lon="7.67511">
        <ele>396.7</ele>
        <time>2022-04-17T09:23:46Z</time>
      </trkpt>
      <trkpt lat="49.04879" lon="7.67507">
        <ele>397.5</ele>
        <time>2022-04-17T09:23:52Z</time>
      </trkpt>
      <trkpt lat="49.0487" lon="7.67503">
        <ele>398.4</ele>
        <time>2022-04-17T09:24:03Z</time>
      </trkpt>
      <trkpt lat="49.04862" lon="7.67511">
        <ele>399.5</ele>
        <time>2022-04-17T09:24:15Z</time>
      </trkpt>
      <trkpt lat="49.04868" lon="7.67522">
        <ele>400.4</ele>
        <time>2022-04-17T09:24:26Z</time>
      </trkpt>
      <trkpt lat="49.0487" lon="7.67529">
        <ele>400.7</ele>
        <time>2022-04-17T09:24:42Z</time>
      </trkpt>
      <trkpt lat="49.0487" lon="7.6753">
        <ele>400.8</ele>
        <time>2022-04-17T09:24:43Z</time>
      </trkpt>
      <trkpt lat="49.0487" lon="7.6753">
        <ele>400.8</ele>
        <time>2022-04-17T09:24:49Z</time>
      </trkpt>
      <trkpt lat="49.0487" lon="7.6753">
        <ele>400.8</ele>
        <time>2022-04-17T09:24:50Z</time>
      </trkpt>
      <trkpt lat="49.04867" lon="7.67537">
        <ele>401.1</ele>
        <time>2022-04-17T09:25:12Z</time>
      </trkpt>
      <trkpt lat="49.04867" lon="7.67537">
        <ele>401.1</ele>
        <time>2022-04-17T09:25:13Z</time>
      </trkpt>
      <trkpt lat="49.0487" lon="7.67539">
        <ele>401.3</ele>
        <time>2022-04-17T09:25:22Z</time>
      </trkpt>
      <trkpt lat="49.04871" lon="7.67539">
        <ele>401.3</ele>
        <time>2022-04-17T09:25:23Z</time>
      </trkpt>
      <trkpt lat="49.04872" lon="7.67539">
        <ele>401.3</ele>
        <time>2022-04-17T09:25:25Z</time>
      </trkpt>
      <trkpt lat="49.04872" lon="7.67539">
        <ele>401.3</ele>
        <time>2022-04-17T09:25:26Z</time>
      </trkpt>
      <trkpt lat="49.0488" lon="7.67548">
        <ele>402</ele>
        <time>2022-04-17T09:25:44Z</time>
      </trkpt>
      <trkpt lat="49.04882" lon="7.67547">
        <ele>402.2</ele>
        <time>2022-04-17T09:25:50Z</time>
      </trkpt>
      <trkpt lat="49.04883" lon="7.67547">
        <ele>402.2</ele>
        <time>2022-04-17T09:25:51Z</time>
      </trkpt>
      <trkpt lat="49.04883" lon="7.67549">
        <ele>402.3</ele>
        <time>2022-04-17T09:25:53Z</time>
      </trkpt>
      <trkpt lat="49.04882" lon="7.67549">
        <ele>402.3</ele>
        <time>2022-04-17T09:25:54Z</time>
      </trkpt>
      <trkpt lat="49.04889" lon="7.67559">
        <ele>403.4</ele>
        <time>2022-04-17T09:26:03Z</time>
      </trkpt>
      <trkpt lat="49.04888" lon="7.67564">
        <ele>403.8</ele>
        <time>2022-04-17T09:26:16Z</time>
      </trkpt>
      <trkpt lat="49.04888" lon="7.67564">
        <ele>403.8</ele>
        <time>2022-04-17T09:26:19Z</time>
      </trkpt>
      <trkpt lat="49.04888" lon="7.67564">
        <ele>403.8</ele>
        <time>2022-04-17T09:26:20Z</time>
      </trkpt>
      <trkpt lat="49.04888" lon="7.67564">
        <ele>403.8</ele>
        <time>2022-04-17T09:26:26Z</time>
      </trkpt>
      <trkpt lat="49.04883" lon="7.67566">
        <ele>404.4</ele>
        <time>2022-04-17T09:26:32Z</time>
      </trkpt>
      <trkpt lat="49.04884" lon="7.67566">
        <ele>404.5</ele>
        <time>2022-04-17T09:26:33Z</time>
      </trkpt>
      <trkpt lat="49.04884" lon="7.67567">
        <ele>404.5</ele>
        <time>2022-04-17T09:26:34Z</time>
      </trkpt>
      <trkpt lat="49.04884" lon="7.67567">
        <ele>404.5</ele>
        <time>2022-04-17T09:26:36Z</time>
      </trkpt>
      <trkpt lat="49.04884" lon="7.67567">
        <ele>404.5</ele>
        <time>2022-04-17T09:26:37Z</time>
      </trkpt>
      <trkpt lat="49.04884" lon="7.67567">
        <ele>404.5</ele>
        <time>2022-04-17T09:26:42Z</time>
      </trkpt>
      <trkpt lat="49.04888" lon="7.67581">
        <ele>405.5</ele>
        <time>2022-04-17T09:26:58Z</time>
      </trkpt>
      <trkpt lat="49.04895" lon="7.67589">
        <ele>406.1</ele>
        <time>2022-04-17T09:27:09Z</time>
      </trkpt>
      <trkpt lat="49.04904" lon="7.67593">
        <ele>406.5</ele>
        <time>2022-04-17T09:27:24Z</time>
      </trkpt>
      <trkpt lat="49.04912" lon="7.67602">
        <ele>406.7</ele>
        <time>2022-04-17T09:27:33Z</time>
      </trkpt>
      <trkpt lat="49.04919" lon="7.67611">
        <ele>406.6</ele>
        <time>2022-04-17T09:27:42Z</time>
      </trkpt>
      <trkpt lat="49.04926" lon="7.6762">
        <ele>406.3</ele>
        <time>2022-04-17T09:27:54Z</time>
      </trkpt>
      <trkpt lat="49.04933" lon="7.6763">
        <ele>406.1</ele>
        <time>2022-04-17T09:28:03Z</time>
      </trkpt>
      <trkpt lat="49.04937" lon="7.67645">
        <ele>406</ele>
        <time>2022-04-17T09:28:17Z</time>
      </trkpt>
      <trkpt lat="49.04939" lon="7.67654">
        <ele>405.8</ele>
        <time>2022-04-17T09:28:24Z</time>
      </trkpt>
      <trkpt lat="49.04939" lon="7.67655">
        <ele>405.7</ele>
        <time>2022-04-17T09:28:25Z</time>
      </trkpt>
      <trkpt lat="49.04945" lon="7.67665">
        <ele>405.1</ele>
        <time>2022-04-17T09:28:35Z</time>
      </trkpt>
      <trkpt lat="49.04951" lon="7.67676">
        <ele>404.2</ele>
        <time>2022-04-17T09:28:45Z</time>
      </trkpt>
      <trkpt lat="49.04956" lon="7.67689">
        <ele>403</ele>
        <time>2022-04-17T09:28:55Z</time>
      </trkpt>
      <trkpt lat="49.04964" lon="7.67696">
        <ele>401.8</ele>
        <time>2022-04-17T09:29:05Z</time>
      </trkpt>
      <trkpt lat="49.04974" lon="7.67696">
        <ele>400.4</ele>
        <time>2022-04-17T09:29:13Z</time>
      </trkpt>
      <trkpt lat="49.04983" lon="7.67698">
        <ele>399</ele>
        <time>2022-04-17T09:29:26Z</time>
      </trkpt>
      <trkpt lat="49.04992" lon="7.67702">
        <ele>397.4</ele>
        <time>2022-04-17T09:29:34Z</time>
      </trkpt>
      <trkpt lat="49.05001" lon="7.67709">
        <ele>395.7</ele>
        <time>2022-04-17T09:29:45Z</time>
      </trkpt>
      <trkpt lat="49.05009" lon="7.67716">
        <ele>394.1</ele>
        <time>2022-04-17T09:29:57Z</time>
      </trkpt>
      <trkpt lat="49.05017" lon="7.67724">
        <ele>392.8</ele>
        <time>2022-04-17T09:30:04Z</time>
      </trkpt>
      <trkpt lat="49.05025" lon="7.67731">
        <ele>391.3</ele>
        <time>2022-04-17T09:30:16Z</time>
      </trkpt>
      <trkpt lat="49.05033" lon="7.67739">
        <ele>389.8</ele>
        <time>2022-04-17T09:30:30Z</time>
      </trkpt>
      <trkpt lat="49.05038" lon="7.67751">
        <ele>388.6</ele>
        <time>2022-04-17T09:30:38Z</time>
      </trkpt>
      <trkpt lat="49.05047" lon="7.67758">
        <ele>387.5</ele>
        <time>2022-04-17T09:30:46Z</time>
      </trkpt>
      <trkpt lat="49.05056" lon="7.67762">
        <ele>386.5</ele>
        <time>2022-04-17T09:30:53Z</time>
      </trkpt>
      <trkpt lat="49.05065" lon="7.6777">
        <ele>385.4</ele>
        <time>2022-04-17T09:31:02Z</time>
      </trkpt>
      <trkpt lat="49.05075" lon="7.67774">
        <ele>384.3</ele>
        <time>2022-04-17T09:31:09Z</time>
      </trkpt>
      <trkpt lat="49.05083" lon="7.67781">
        <ele>385.3</ele>
        <time>2022-04-17T09:31:15Z</time>
      </trkpt>
      <trkpt lat="49.05087" lon="7.67793">
        <ele>387.8</ele>
        <time>2022-04-17T09:31:22Z</time>
      </trkpt>
      <trkpt lat="49.05092" lon="7.67805">
        <ele>390.4</ele>
        <time>2022-04-17T09:31:30Z</time>
      </trkpt>
      <trkpt lat="49.05098" lon="7.67815">
        <ele>392.7</ele>
        <time>2022-04-17T09:31:42Z</time>
      </trkpt>
      <trkpt lat="49.05107" lon="7.67822">
        <ele>393.3</ele>
        <time>2022-04-17T09:31:50Z</time>
      </trkpt>
      <trkpt lat="49.05116" lon="7.67828">
        <ele>393.8</ele>
        <time>2022-04-17T09:31:59Z</time>
      </trkpt>
      <trkpt lat="49.05126" lon="7.6783">
        <ele>394.4</ele>
        <time>2022-04-17T09:32:07Z</time>
      </trkpt>
      <trkpt lat="49.05135" lon="7.67836">
        <ele>395.1</ele>
        <time>2022-04-17T09:32:13Z</time>
      </trkpt>
      <trkpt lat="49.05145" lon="7.67841">
        <ele>395.8</ele>
        <time>2022-04-17T09:32:21Z</time>
      </trkpt>
      <trkpt lat="49.05154" lon="7.67845">
        <ele>396.6</ele>
        <time>2022-04-17T09:32:28Z</time>
      </trkpt>
      <trkpt lat="49.05162" lon="7.67853">
        <ele>397.6</ele>
        <time>2022-04-17T09:32:39Z</time>
      </trkpt>
      <trkpt lat="49.05171" lon="7.67855">
        <ele>398.7</ele>
        <time>2022-04-17T09:32:50Z</time>
      </trkpt>
      <trkpt lat="49.05179" lon="7.67859">
        <ele>399.9</ele>
        <time>2022-04-17T09:33:00Z</time>
      </trkpt>
      <trkpt lat="49.05188" lon="7.67863">
        <ele>401.1</ele>
        <time>2022-04-17T09:33:07Z</time>
      </trkpt>
      <trkpt lat="49.05199" lon="7.67866">
        <ele>402.5</ele>
        <time>2022-04-17T09:33:16Z</time>
      </trkpt>
      <trkpt lat="49.05209" lon="7.67867">
        <ele>403.9</ele>
        <time>2022-04-17T09:33:22Z</time>
      </trkpt>
      <trkpt lat="49.0522" lon="7.6787">
        <ele>405.2</ele>
        <time>2022-04-17T09:33:28Z</time>
      </trkpt>
      <trkpt lat="49.05228" lon="7.6787">
        <ele>406.2</ele>
        <time>2022-04-17T09:33:37Z</time>
      </trkpt>
      <trkpt lat="49.05227" lon="7.6787">
        <ele>406.2</ele>
        <time>2022-04-17T09:33:38Z</time>
      </trkpt>
      <trkpt lat="49.05236" lon="7.67874">
        <ele>407.4</ele>
        <time>2022-04-17T09:33:53Z</time>
      </trkpt>
      <trkpt lat="49.05245" lon="7.67877">
        <ele>408.5</ele>
        <time>2022-04-17T09:34:02Z</time>
      </trkpt>
      <trkpt lat="49.05255" lon="7.67881">
        <ele>409.8</ele>
        <time>2022-04-17T09:34:14Z</time>
      </trkpt>
      <trkpt lat="49.05264" lon="7.67879">
        <ele>410.9</ele>
        <time>2022-04-17T09:34:23Z</time>
      </trkpt>
      <trkpt lat="49.05273" lon="7.67877">
        <ele>412</ele>
        <time>2022-04-17T09:34:35Z</time>
      </trkpt>
      <trkpt lat="49.05282" lon="7.67871">
        <ele>413.2</ele>
        <time>2022-04-17T09:34:45Z</time>
      </trkpt>
      <trkpt lat="49.05291" lon="7.67865">
        <ele>414.3</ele>
        <time>2022-04-17T09:34:55Z</time>
      </trkpt>
      <trkpt lat="49.05299" lon="7.67859">
        <ele>415.3</ele>
        <time>2022-04-17T09:35:08Z</time>
      </trkpt>
      <trkpt lat="49.05308" lon="7.67868">
        <ele>416.4</ele>
        <time>2022-04-17T09:35:16Z</time>
      </trkpt>
      <trkpt lat="49.05316" lon="7.67877">
        <ele>417.5</ele>
        <time>2022-04-17T09:35:26Z</time>
      </trkpt>
      <trkpt lat="49.05322" lon="7.67888">
        <ele>418.5</ele>
        <time>2022-04-17T09:35:35Z</time>
      </trkpt>
      <trkpt lat="49.05327" lon="7.67901">
        <ele>419.5</ele>
        <time>2022-04-17T09:35:47Z</time>
      </trkpt>
      <trkpt lat="49.05333" lon="7.67913">
        <ele>420.5</ele>
        <time>2022-04-17T09:35:56Z</time>
      </trkpt>
      <trkpt lat="49.05342" lon="7.67916">
        <ele>421.5</ele>
        <time>2022-04-17T09:36:01Z</time>
      </trkpt>
      <trkpt lat="49.05345" lon="7.67929">
        <ele>422.4</ele>
        <time>2022-04-17T09:36:12Z</time>
      </trkpt>
      <trkpt lat="49.05347" lon="7.67943">
        <ele>423.1</ele>
        <time>2022-04-17T09:36:22Z</time>
      </trkpt>
      <trkpt lat="49.0535" lon="7.67957">
        <ele>423.9</ele>
        <time>2022-04-17T09:36:31Z</time>
      </trkpt>
      <trkpt lat="49.05354" lon="7.67971">
        <ele>424.7</ele>
        <time>2022-04-17T09:36:39Z</time>
      </trkpt>
      <trkpt lat="49.05359" lon="7.67984">
        <ele>425.5</ele>
        <time>2022-04-17T09:36:47Z</time>
      </trkpt>
      <trkpt lat="49.05363" lon="7.67998">
        <ele>426.4</ele>
        <time>2022-04-17T09:36:55Z</time>
      </trkpt>
      <trkpt lat="49.05369" lon="7.6801">
        <ele>427.2</ele>
        <time>2022-04-17T09:37:02Z</time>
      </trkpt>
      <trkpt lat="49.05377" lon="7.68019">
        <ele>428.1</ele>
        <time>2022-04-17T09:37:10Z</time>
      </trkpt>
      <trkpt lat="49.05382" lon="7.68031">
        <ele>428.9</ele>
        <time>2022-04-17T09:37:17Z</time>
      </trkpt>
      <trkpt lat="49.05389" lon="7.68042">
        <ele>429.7</ele>
        <time>2022-04-17T09:37:24Z</time>
      </trkpt>
      <trkpt lat="49.05393" lon="7.68055">
        <ele>430.6</ele>
        <time>2022-04-17T09:37:31Z</time>
      </trkpt>
      <trkpt lat="49.05398" lon="7.68066">
        <ele>431.4</ele>
        <time>2022-04-17T09:37:39Z</time>
      </trkpt>
      <trkpt lat="49.05402" lon="7.6808">
        <ele>432.2</ele>
        <time>2022-04-17T09:37:49Z</time>
      </trkpt>
      <trkpt lat="49.05408" lon="7.68091">
        <ele>433</ele>
        <time>2022-04-17T09:38:01Z</time>
      </trkpt>
      <trkpt lat="49.05408" lon="7.68093">
        <ele>433.1</ele>
        <time>2022-04-17T09:38:04Z</time>
      </trkpt>
      <trkpt lat="49.05408" lon="7.68094">
        <ele>433.2</ele>
        <time>2022-04-17T09:38:05Z</time>
      </trkpt>
      <trkpt lat="49.05409" lon="7.68109">
        <ele>434.1</ele>
        <time>2022-04-17T09:38:15Z</time>
      </trkpt>
      <trkpt lat="49.05413" lon="7.68122">
        <ele>434.9</ele>
        <time>2022-04-17T09:38:22Z</time>
      </trkpt>
      <trkpt lat="49.0542" lon="7.68132">
        <ele>435.7</ele>
        <time>2022-04-17T09:38:27Z</time>
      </trkpt>
      <trkpt lat="49.05423" lon="7.68146">
        <ele>436.5</ele>
        <time>2022-04-17T09:38:36Z</time>
      </trkpt>
      <trkpt lat="49.05427" lon="7.68161">
        <ele>437.3</ele>
        <time>2022-04-17T09:38:42Z</time>
      </trkpt>
      <trkpt lat="49.05434" lon="7.68172">
        <ele>438.1</ele>
        <time>2022-04-17T09:38:49Z</time>
      </trkpt>
      <trkpt lat="49.0544" lon="7.68187">
        <ele>439</ele>
        <time>2022-04-17T09:38:57Z</time>
      </trkpt>
      <trkpt lat="49.05444" lon="7.682">
        <ele>439.9</ele>
        <time>2022-04-17T09:39:06Z</time>
      </trkpt>
      <trkpt lat="49.0545" lon="7.6821">
        <ele>440.6</ele>
        <time>2022-04-17T09:39:14Z</time>
      </trkpt>
      <trkpt lat="49.05456" lon="7.68223">
        <ele>441.3</ele>
        <time>2022-04-17T09:39:23Z</time>
      </trkpt>
      <trkpt lat="49.05461" lon="7.68235">
        <ele>441.9</ele>
        <time>2022-04-17T09:39:31Z</time>
      </trkpt>
      <trkpt lat="49.05464" lon="7.68249">
        <ele>442.3</ele>
        <time>2022-04-17T09:39:40Z</time>
      </trkpt>
      <trkpt lat="49.05468" lon="7.68262">
        <ele>442.7</ele>
        <time>2022-04-17T09:39:47Z</time>
      </trkpt>
      <trkpt lat="49.05474" lon="7.68273">
        <ele>443.1</ele>
        <time>2022-04-17T09:39:52Z</time>
      </trkpt>
      <trkpt lat="49.05479" lon="7.68284">
        <ele>443.5</ele>
        <time>2022-04-17T09:39:57Z</time>
      </trkpt>
      <trkpt lat="49.05477" lon="7.68298">
        <ele>443.9</ele>
        <time>2022-04-17T09:40:04Z</time>
      </trkpt>
      <trkpt lat="49.05481" lon="7.68311">
        <ele>444.2</ele>
        <time>2022-04-17T09:40:11Z</time>
      </trkpt>
      <trkpt lat="49.05484" lon="7.68324">
        <ele>444.5</ele>
        <time>2022-04-17T09:40:20Z</time>
      </trkpt>
      <trkpt lat="49.05489" lon="7.68337">
        <ele>444.8</ele>
        <time>2022-04-17T09:40:26Z</time>
      </trkpt>
      <trkpt lat="49.05494" lon="7.6835">
        <ele>445.2</ele>
        <time>2022-04-17T09:40:35Z</time>
      </trkpt>
      <trkpt lat="49.05502" lon="7.68358">
        <ele>445.5</ele>
        <time>2022-04-17T09:40:41Z</time>
      </trkpt>
      <trkpt lat="49.05508" lon="7.6837">
        <ele>445.8</ele>
        <time>2022-04-17T09:40:49Z</time>
      </trkpt>
      <trkpt lat="49.05511" lon="7.68385">
        <ele>446</ele>
        <time>2022-04-17T09:40:57Z</time>
      </trkpt>
      <trkpt lat="49.05515" lon="7.68398">
        <ele>446.2</ele>
        <time>2022-04-17T09:41:05Z</time>
      </trkpt>
      <trkpt lat="49.05522" lon="7.68409">
        <ele>446.4</ele>
        <time>2022-04-17T09:41:13Z</time>
      </trkpt>
      <trkpt lat="49.05531" lon="7.68418">
        <ele>446.7</ele>
        <time>2022-04-17T09:41:19Z</time>
      </trkpt>
      <trkpt lat="49.0554" lon="7.68426">
        <ele>447</ele>
        <time>2022-04-17T09:41:23Z</time>
      </trkpt>
      <trkpt lat="49.05546" lon="7.68436">
        <ele>447.3</ele>
        <time>2022-04-17T09:41:29Z</time>
      </trkpt>
      <trkpt lat="49.05553" lon="7.68447">
        <ele>447.6</ele>
        <time>2022-04-17T09:41:36Z</time>
      </trkpt>
      <trkpt lat="49.05559" lon="7.68458">
        <ele>447.9</ele>
        <time>2022-04-17T09:41:44Z</time>
      </trkpt>
      <trkpt lat="49.05567" lon="7.68466">
        <ele>448.1</ele>
        <time>2022-04-17T09:41:51Z</time>
      </trkpt>
      <trkpt lat="49.05574" lon="7.68474">
        <ele>448.5</ele>
        <time>2022-04-17T09:41:55Z</time>
      </trkpt>
      <trkpt lat="49.05582" lon="7.68484">
        <ele>448.8</ele>
        <time>2022-04-17T09:42:01Z</time>
      </trkpt>
      <trkpt lat="49.05586" lon="7.68496">
        <ele>449.1</ele>
        <time>2022-04-17T09:42:10Z</time>
      </trkpt>
      <trkpt lat="49.05593" lon="7.68507">
        <ele>449.4</ele>
        <time>2022-04-17T09:42:16Z</time>
      </trkpt>
      <trkpt lat="49.05594" lon="7.68521">
        <ele>449.7</ele>
        <time>2022-04-17T09:42:23Z</time>
      </trkpt>
      <trkpt lat="49.05602" lon="7.6853">
        <ele>450</ele>
        <time>2022-04-17T09:42:29Z</time>
      </trkpt>
      <trkpt lat="49.05608" lon="7.68541">
        <ele>450.3</ele>
        <time>2022-04-17T09:42:36Z</time>
      </trkpt>
      <trkpt lat="49.05612" lon="7.68554">
        <ele>450.6</ele>
        <time>2022-04-17T09:42:44Z</time>
      </trkpt>
      <trkpt lat="49.05618" lon="7.68564">
        <ele>450.9</ele>
        <time>2022-04-17T09:42:52Z</time>
      </trkpt>
      <trkpt lat="49.05623" lon="7.68576">
        <ele>450.9</ele>
        <time>2022-04-17T09:43:01Z</time>
      </trkpt>
      <trkpt lat="49.05632" lon="7.68584">
        <ele>450.9</ele>
        <time>2022-04-17T09:43:07Z</time>
      </trkpt>
      <trkpt lat="49.05635" lon="7.68593">
        <ele>450.7</ele>
        <time>2022-04-17T09:43:20Z</time>
      </trkpt>
      <trkpt lat="49.05635" lon="7.68594">
        <ele>450.7</ele>
        <time>2022-04-17T09:43:21Z</time>
      </trkpt>
      <trkpt lat="49.05643" lon="7.68601">
        <ele>450.4</ele>
        <time>2022-04-17T09:43:32Z</time>
      </trkpt>
      <trkpt lat="49.05649" lon="7.68613">
        <ele>449.8</ele>
        <time>2022-04-17T09:43:41Z</time>
      </trkpt>
      <trkpt lat="49.05657" lon="7.68621">
        <ele>448.9</ele>
        <time>2022-04-17T09:43:46Z</time>
      </trkpt>
      <trkpt lat="49.05666" lon="7.68627">
        <ele>448.1</ele>
        <time>2022-04-17T09:43:52Z</time>
      </trkpt>
      <trkpt lat="49.05676" lon="7.68633">
        <ele>447.1</ele>
        <time>2022-04-17T09:43:59Z</time>
      </trkpt>
      <trkpt lat="49.05684" lon="7.6864">
        <ele>446.2</ele>
        <time>2022-04-17T09:44:06Z</time>
      </trkpt>
      <trkpt lat="49.05692" lon="7.6865">
        <ele>445.3</ele>
        <time>2022-04-17T09:44:13Z</time>
      </trkpt>
      <trkpt lat="49.05698" lon="7.68661">
        <ele>444.5</ele>
        <time>2022-04-17T09:44:20Z</time>
      </trkpt>
      <trkpt lat="49.05707" lon="7.68668">
        <ele>443.8</ele>
        <time>2022-04-17T09:44:28Z</time>
      </trkpt>
      <trkpt lat="49.05714" lon="7.68675">
        <ele>443.1</ele>
        <time>2022-04-17T09:44:36Z</time>
      </trkpt>
      <trkpt lat="49.05721" lon="7.68686">
        <ele>442.4</ele>
        <time>2022-04-17T09:44:45Z</time>
      </trkpt>
      <trkpt lat="49.05729" lon="7.68695">
        <ele>441.7</ele>
        <time>2022-04-17T09:44:52Z</time>
      </trkpt>
      <trkpt lat="49.05734" lon="7.68707">
        <ele>440.9</ele>
        <time>2022-04-17T09:44:59Z</time>
      </trkpt>
      <trkpt lat="49.05741" lon="7.68717">
        <ele>440.1</ele>
        <time>2022-04-17T09:45:07Z</time>
      </trkpt>
      <trkpt lat="49.05747" lon="7.68728">
        <ele>439.3</ele>
        <time>2022-04-17T09:45:16Z</time>
      </trkpt>
      <trkpt lat="49.05752" lon="7.68741">
        <ele>438.4</ele>
        <time>2022-04-17T09:45:25Z</time>
      </trkpt>
      <trkpt lat="49.05756" lon="7.68754">
        <ele>437.6</ele>
        <time>2022-04-17T09:45:31Z</time>
      </trkpt>
      <trkpt lat="49.0576" lon="7.68768">
        <ele>436.8</ele>
        <time>2022-04-17T09:45:38Z</time>
      </trkpt>
      <trkpt lat="49.05766" lon="7.68778">
        <ele>436</ele>
        <time>2022-04-17T09:45:45Z</time>
      </trkpt>
      <trkpt lat="49.05773" lon="7.68788">
        <ele>435.2</ele>
        <time>2022-04-17T09:45:51Z</time>
      </trkpt>
      <trkpt lat="49.05773" lon="7.68804">
        <ele>434.4</ele>
        <time>2022-04-17T09:45:59Z</time>
      </trkpt>
      <trkpt lat="49.0578" lon="7.68815">
        <ele>433.6</ele>
        <time>2022-04-17T09:46:07Z</time>
      </trkpt>
      <trkpt lat="49.05783" lon="7.68829">
        <ele>432.8</ele>
        <time>2022-04-17T09:46:14Z</time>
      </trkpt>
      <trkpt lat="49.05787" lon="7.68843">
        <ele>432.1</ele>
        <time>2022-04-17T09:46:21Z</time>
      </trkpt>
      <trkpt lat="49.0579" lon="7.68857">
        <ele>431.4</ele>
        <time>2022-04-17T09:46:28Z</time>
      </trkpt>
      <trkpt lat="49.05796" lon="7.68868">
        <ele>430.7</ele>
        <time>2022-04-17T09:46:34Z</time>
      </trkpt>
      <trkpt lat="49.05796" lon="7.68883">
        <ele>430</ele>
        <time>2022-04-17T09:46:42Z</time>
      </trkpt>
      <trkpt lat="49.05795" lon="7.68897">
        <ele>429.3</ele>
        <time>2022-04-17T09:46:49Z</time>
      </trkpt>
      <trkpt lat="49.05796" lon="7.68912">
        <ele>428.6</ele>
        <time>2022-04-17T09:46:58Z</time>
      </trkpt>
      <trkpt lat="49.05795" lon="7.68927">
        <ele>427.9</ele>
        <time>2022-04-17T09:47:05Z</time>
      </trkpt>
      <trkpt lat="49.05794" lon="7.68941">
        <ele>427.1</ele>
        <time>2022-04-17T09:47:15Z</time>
      </trkpt>
      <trkpt lat="49.05787" lon="7.68952">
        <ele>426.2</ele>
        <time>2022-04-17T09:47:23Z</time>
      </trkpt>
      <trkpt lat="49.05781" lon="7.68963">
        <ele>425.3</ele>
        <time>2022-04-17T09:47:30Z</time>
      </trkpt>
      <trkpt lat="49.05776" lon="7.68976">
        <ele>424.4</ele>
        <time>2022-04-17T09:47:39Z</time>
      </trkpt>
      <trkpt lat="49.0577" lon="7.68986">
        <ele>423.6</ele>
        <time>2022-04-17T09:47:47Z</time>
      </trkpt>
      <trkpt lat="49.05767" lon="7.68999">
        <ele>422.9</ele>
        <time>2022-04-17T09:47:55Z</time>
      </trkpt>
      <trkpt lat="49.05764" lon="7.69014">
        <ele>422.2</ele>
        <time>2022-04-17T09:48:04Z</time>
      </trkpt>
      <trkpt lat="49.0576" lon="7.69027">
        <ele>421.5</ele>
        <time>2022-04-17T09:48:11Z</time>
      </trkpt>
      <trkpt lat="49.05756" lon="7.69041">
        <ele>420.7</ele>
        <time>2022-04-17T09:48:18Z</time>
      </trkpt>
      <trkpt lat="49.05753" lon="7.69056">
        <ele>420</ele>
        <time>2022-04-17T09:48:26Z</time>
      </trkpt>
      <trkpt lat="49.05748" lon="7.6907">
        <ele>419.4</ele>
        <time>2022-04-17T09:48:34Z</time>
      </trkpt>
      <trkpt lat="49.05744" lon="7.69084">
        <ele>418.9</ele>
        <time>2022-04-17T09:48:43Z</time>
      </trkpt>
      <trkpt lat="49.05738" lon="7.69095">
        <ele>418.5</ele>
        <time>2022-04-17T09:48:50Z</time>
      </trkpt>
      <trkpt lat="49.05734" lon="7.69107">
        <ele>416.2</ele>
        <time>2022-04-17T09:48:58Z</time>
      </trkpt>
      <trkpt lat="49.05731" lon="7.69121">
        <ele>413.2</ele>
        <time>2022-04-17T09:49:06Z</time>
      </trkpt>
      <trkpt lat="49.0573" lon="7.69135">
        <ele>410</ele>
        <time>2022-04-17T09:49:17Z</time>
      </trkpt>
      <trkpt lat="49.05736" lon="7.69147">
        <ele>406.7</ele>
        <time>2022-04-17T09:49:26Z</time>
      </trkpt>
      <trkpt lat="49.05738" lon="7.69161">
        <ele>403.2</ele>
        <time>2022-04-17T09:49:34Z</time>
      </trkpt>
      <trkpt lat="49.05745" lon="7.69171">
        <ele>399.7</ele>
        <time>2022-04-17T09:49:45Z</time>
      </trkpt>
      <trkpt lat="49.05746" lon="7.69187">
        <ele>395.9</ele>
        <time>2022-04-17T09:49:54Z</time>
      </trkpt>
      <trkpt lat="49.05745" lon="7.69201">
        <ele>392.5</ele>
        <time>2022-04-17T09:50:03Z</time>
      </trkpt>
      <trkpt lat="49.05745" lon="7.6921">
        <ele>390.1</ele>
        <time>2022-04-17T09:50:12Z</time>
      </trkpt>
      <trkpt lat="49.05744" lon="7.69211">
        <ele>389.9</ele>
        <time>2022-04-17T09:50:13Z</time>
      </trkpt>
      <trkpt lat="49.05748" lon="7.69223">
        <ele>386.9</ele>
        <time>2022-04-17T09:50:26Z</time>
      </trkpt>
      <trkpt lat="49.05747" lon="7.69238">
        <ele>384.3</ele>
        <time>2022-04-17T09:50:41Z</time>
      </trkpt>
      <trkpt lat="49.05749" lon="7.69251">
        <ele>382.2</ele>
        <time>2022-04-17T09:50:47Z</time>
      </trkpt>
      <trkpt lat="49.05749" lon="7.69256">
        <ele>381.5</ele>
        <time>2022-04-17T09:50:54Z</time>
      </trkpt>
      <trkpt lat="49.05749" lon="7.69257">
        <ele>381.4</ele>
        <time>2022-04-17T09:50:55Z</time>
      </trkpt>
      <trkpt lat="49.05751" lon="7.69271">
        <ele>379</ele>
        <time>2022-04-17T09:51:09Z</time>
      </trkpt>
      <trkpt lat="49.05755" lon="7.69283">
        <ele>376.4</ele>
        <time>2022-04-17T09:51:20Z</time>
      </trkpt>
      <trkpt lat="49.05751" lon="7.69295">
        <ele>374</ele>
        <time>2022-04-17T09:51:32Z</time>
      </trkpt>
      <trkpt lat="49.05758" lon="7.69305">
        <ele>371.8</ele>
        <time>2022-04-17T09:51:43Z</time>
      </trkpt>
      <trkpt lat="49.05763" lon="7.6931">
        <ele>371.3</ele>
        <time>2022-04-17T09:52:05Z</time>
      </trkpt>
      <trkpt lat="49.05764" lon="7.6931">
        <ele>371.2</ele>
        <time>2022-04-17T09:52:08Z</time>
      </trkpt>
      <trkpt lat="49.05764" lon="7.69309">
        <ele>371.2</ele>
        <time>2022-04-17T09:52:10Z</time>
      </trkpt>
      <trkpt lat="49.05764" lon="7.69309">
        <ele>371.2</ele>
        <time>2022-04-17T09:52:13Z</time>
      </trkpt>
      <trkpt lat="49.0577" lon="7.69319">
        <ele>370.4</ele>
        <time>2022-04-17T09:52:31Z</time>
      </trkpt>
      <trkpt lat="49.05773" lon="7.69332">
        <ele>369.5</ele>
        <time>2022-04-17T09:52:47Z</time>
      </trkpt>
      <trkpt lat="49.05774" lon="7.69346">
        <ele>367.9</ele>
        <time>2022-04-17T09:53:07Z</time>
      </trkpt>
      <trkpt lat="49.05776" lon="7.69361">
        <ele>366.5</ele>
        <time>2022-04-17T09:53:19Z</time>
      </trkpt>
      <trkpt lat="49.05781" lon="7.69373">
        <ele>365</ele>
        <time>2022-04-17T09:53:30Z</time>
      </trkpt>
      <trkpt lat="49.05791" lon="7.69374">
        <ele>363.4</ele>
        <time>2022-04-17T09:53:42Z</time>
      </trkpt>
      <trkpt lat="49.05792" lon="7.69388">
        <ele>362</ele>
        <time>2022-04-17T09:53:56Z</time>
      </trkpt>
      <trkpt lat="49.05789" lon="7.69402">
        <ele>360.7</ele>
        <time>2022-04-17T09:54:08Z</time>
      </trkpt>
      <trkpt lat="49.05788" lon="7.69416">
        <ele>359.6</ele>
        <time>2022-04-17T09:54:19Z</time>
      </trkpt>
      <trkpt lat="49.05788" lon="7.69431">
        <ele>358.6</ele>
        <time>2022-04-17T09:54:27Z</time>
      </trkpt>
      <trkpt lat="49.05789" lon="7.69445">
        <ele>358</ele>
        <time>2022-04-17T09:54:37Z</time>
      </trkpt>
      <trkpt lat="49.05791" lon="7.69458">
        <ele>357.7</ele>
        <time>2022-04-17T09:54:47Z</time>
      </trkpt>
      <trkpt lat="49.05786" lon="7.6947">
        <ele>357.7</ele>
        <time>2022-04-17T09:54:54Z</time>
      </trkpt>
      <trkpt lat="49.05784" lon="7.69484">
        <ele>357.8</ele>
        <time>2022-04-17T09:55:02Z</time>
      </trkpt>
      <trkpt lat="49.05781" lon="7.69497">
        <ele>357.6</ele>
        <time>2022-04-17T09:55:12Z</time>
      </trkpt>
      <trkpt lat="49.0578" lon="7.69512">
        <ele>357.1</ele>
        <time>2022-04-17T09:55:20Z</time>
      </trkpt>
      <trkpt lat="49.05779" lon="7.69526">
        <ele>356.5</ele>
        <time>2022-04-17T09:55:28Z</time>
      </trkpt>
      <trkpt lat="49.05779" lon="7.69541">
        <ele>355.6</ele>
        <time>2022-04-17T09:55:37Z</time>
      </trkpt>
      <trkpt lat="49.05783" lon="7.69554">
        <ele>352.4</ele>
        <time>2022-04-17T09:55:47Z</time>
      </trkpt>
      <trkpt lat="49.05781" lon="7.69568">
        <ele>353.2</ele>
        <time>2022-04-17T09:56:12Z</time>
      </trkpt>
      <trkpt lat="49.05778" lon="7.69581">
        <ele>354</ele>
        <time>2022-04-17T09:56:21Z</time>
      </trkpt>
      <trkpt lat="49.05778" lon="7.69596">
        <ele>355.6</ele>
        <time>2022-04-17T09:56:44Z</time>
      </trkpt>
      <trkpt lat="49.05776" lon="7.69595">
        <ele>356</ele>
        <time>2022-04-17T09:56:54Z</time>
      </trkpt>
      <trkpt lat="49.05776" lon="7.69595">
        <ele>356.1</ele>
        <time>2022-04-17T09:56:55Z</time>
      </trkpt>
      <trkpt lat="49.05775" lon="7.69602">
        <ele>356.9</ele>
        <time>2022-04-17T09:57:08Z</time>
      </trkpt>
      <trkpt lat="49.05774" lon="7.69603">
        <ele>357.2</ele>
        <time>2022-04-17T09:57:09Z</time>
      </trkpt>
      <trkpt lat="49.05773" lon="7.69618">
        <ele>359</ele>
        <time>2022-04-17T09:57:25Z</time>
      </trkpt>
      <trkpt lat="49.05775" lon="7.69633">
        <ele>360.8</ele>
        <time>2022-04-17T09:57:37Z</time>
      </trkpt>
      <trkpt lat="49.05776" lon="7.69649">
        <ele>360.9</ele>
        <time>2022-04-17T09:57:46Z</time>
      </trkpt>
      <trkpt lat="49.05779" lon="7.69663">
        <ele>361.6</ele>
        <time>2022-04-17T09:57:56Z</time>
      </trkpt>
      <trkpt lat="49.05782" lon="7.69677">
        <ele>362.5</ele>
        <time>2022-04-17T09:58:05Z</time>
      </trkpt>
      <trkpt lat="49.05788" lon="7.69688">
        <ele>363.5</ele>
        <time>2022-04-17T09:58:12Z</time>
      </trkpt>
      <trkpt lat="49.05795" lon="7.69699">
        <ele>364.4</ele>
        <time>2022-04-17T09:58:19Z</time>
      </trkpt>
      <trkpt lat="49.05796" lon="7.69714">
        <ele>365.4</ele>
        <time>2022-04-17T09:58:27Z</time>
      </trkpt>
      <trkpt lat="49.05801" lon="7.69727">
        <ele>366.3</ele>
        <time>2022-04-17T09:58:40Z</time>
      </trkpt>
      <trkpt lat="49.05803" lon="7.69743">
        <ele>367.2</ele>
        <time>2022-04-17T09:58:49Z</time>
      </trkpt>
      <trkpt lat="49.05806" lon="7.69756">
        <ele>367.9</ele>
        <time>2022-04-17T09:59:04Z</time>
      </trkpt>
      <trkpt lat="49.058" lon="7.69745">
        <ele>367.1</ele>
        <time>2022-04-17T09:59:16Z</time>
      </trkpt>
      <trkpt lat="49.05796" lon="7.6973">
        <ele>366.3</ele>
        <time>2022-04-17T09:59:22Z</time>
      </trkpt>
      <trkpt lat="49.05797" lon="7.69716">
        <ele>365.4</ele>
        <time>2022-04-17T09:59:36Z</time>
      </trkpt>
      <trkpt lat="49.05796" lon="7.69701">
        <ele>364.4</ele>
        <time>2022-04-17T09:59:46Z</time>
      </trkpt>
      <trkpt lat="49.05792" lon="7.69688">
        <ele>363.5</ele>
        <time>2022-04-17T09:59:52Z</time>
      </trkpt>
      <trkpt lat="49.05788" lon="7.69675">
        <ele>362.6</ele>
        <time>2022-04-17T09:59:59Z</time>
      </trkpt>
      <trkpt lat="49.05785" lon="7.69661">
        <ele>361.7</ele>
        <time>2022-04-17T10:00:06Z</time>
      </trkpt>
      <trkpt lat="49.05781" lon="7.69648">
        <ele>361.3</ele>
        <time>2022-04-17T10:00:13Z</time>
      </trkpt>
      <trkpt lat="49.05779" lon="7.69642">
        <ele>361.9</ele>
        <time>2022-04-17T10:00:31Z</time>
      </trkpt>
      <trkpt lat="49.05779" lon="7.69642">
        <ele>362</ele>
        <time>2022-04-17T10:00:32Z</time>
      </trkpt>
      <trkpt lat="49.05779" lon="7.69641">
        <ele>362.1</ele>
        <time>2022-04-17T10:00:39Z</time>
      </trkpt>
      <trkpt lat="49.05779" lon="7.69641">
        <ele>362.1</ele>
        <time>2022-04-17T10:00:40Z</time>
      </trkpt>
      <trkpt lat="49.0577" lon="7.69636">
        <ele>363.4</ele>
        <time>2022-04-17T10:00:51Z</time>
      </trkpt>
      <trkpt lat="49.05761" lon="7.69629">
        <ele>364.9</ele>
        <time>2022-04-17T10:00:58Z</time>
      </trkpt>
      <trkpt lat="49.05753" lon="7.69622">
        <ele>366.3</ele>
        <time>2022-04-17T10:01:05Z</time>
      </trkpt>
      <trkpt lat="49.05756" lon="7.69637">
        <ele>367.7</ele>
        <time>2022-04-17T10:01:15Z</time>
      </trkpt>
      <trkpt lat="49.05762" lon="7.69647">
        <ele>367.7</ele>
        <time>2022-04-17T10:01:24Z</time>
      </trkpt>
      <trkpt lat="49.05765" lon="7.69661">
        <ele>370</ele>
        <time>2022-04-17T10:01:32Z</time>
      </trkpt>
      <trkpt lat="49.05768" lon="7.69675">
        <ele>371.3</ele>
        <time>2022-04-17T10:01:44Z</time>
      </trkpt>
      <trkpt lat="49.05758" lon="7.69679">
        <ele>376.3</ele>
        <time>2022-04-17T10:01:55Z</time>
      </trkpt>
      <trkpt lat="49.0575" lon="7.69674">
        <ele>378.7</ele>
        <time>2022-04-17T10:02:07Z</time>
      </trkpt>
      <trkpt lat="49.0574" lon="7.69673">
        <ele>380.5</ele>
        <time>2022-04-17T10:02:16Z</time>
      </trkpt>
      <trkpt lat="49.05731" lon="7.69668">
        <ele>381.9</ele>
        <time>2022-04-17T10:02:31Z</time>
      </trkpt>
      <trkpt lat="49.05723" lon="7.69661">
        <ele>383.4</ele>
        <time>2022-04-17T10:02:44Z</time>
      </trkpt>
      <trkpt lat="49.05721" lon="7.69666">
        <ele>385.7</ele>
        <time>2022-04-17T10:03:01Z</time>
      </trkpt>
      <trkpt lat="49.0572" lon="7.69666">
        <ele>385.7</ele>
        <time>2022-04-17T10:03:02Z</time>
      </trkpt>
      <trkpt lat="49.0572" lon="7.69666">
        <ele>385.8</ele>
        <time>2022-04-17T10:03:03Z</time>
      </trkpt>
      <trkpt lat="49.05721" lon="7.69666">
        <ele>385.8</ele>
        <time>2022-04-17T10:03:04Z</time>
      </trkpt>
      <trkpt lat="49.05723" lon="7.6968">
        <ele>388.2</ele>
        <time>2022-04-17T10:03:17Z</time>
      </trkpt>
      <trkpt lat="49.05721" lon="7.69694">
        <ele>392.8</ele>
        <time>2022-04-17T10:03:26Z</time>
      </trkpt>
      <trkpt lat="49.05728" lon="7.69704">
        <ele>393</ele>
        <time>2022-04-17T10:03:40Z</time>
      </trkpt>
      <trkpt lat="49.05718" lon="7.69704">
        <ele>397.7</ele>
        <time>2022-04-17T10:04:12Z</time>
      </trkpt>
      <trkpt lat="49.0571" lon="7.69697">
        <ele>398.1</ele>
        <time>2022-04-17T10:04:25Z</time>
      </trkpt>
      <trkpt lat="49.05703" lon="7.69688">
        <ele>397.2</ele>
        <time>2022-04-17T10:04:41Z</time>
      </trkpt>
      <trkpt lat="49.05694" lon="7.69682">
        <ele>397.3</ele>
        <time>2022-04-17T10:04:51Z</time>
      </trkpt>
      <trkpt lat="49.05695" lon="7.69697">
        <ele>403.2</ele>
        <time>2022-04-17T10:05:19Z</time>
      </trkpt>
      <trkpt lat="49.05703" lon="7.69708">
        <ele>402.9</ele>
        <time>2022-04-17T10:05:24Z</time>
      </trkpt>
      <trkpt lat="49.057" lon="7.69721">
        <ele>407.9</ele>
        <time>2022-04-17T10:05:47Z</time>
      </trkpt>
      <trkpt lat="49.0571" lon="7.69725">
        <ele>406.1</ele>
        <time>2022-04-17T10:05:59Z</time>
      </trkpt>
      <trkpt lat="49.05705" lon="7.69738">
        <ele>413</ele>
        <time>2022-04-17T10:06:15Z</time>
      </trkpt>
      <trkpt lat="49.05696" lon="7.69738">
        <ele>415.2</ele>
        <time>2022-04-17T10:06:23Z</time>
      </trkpt>
      <trkpt lat="49.05687" lon="7.69735">
        <ele>418.3</ele>
        <time>2022-04-17T10:06:30Z</time>
      </trkpt>
      <trkpt lat="49.05683" lon="7.69722">
        <ele>415.6</ele>
        <time>2022-04-17T10:06:41Z</time>
      </trkpt>
      <trkpt lat="49.05676" lon="7.69713">
        <ele>415.6</ele>
        <time>2022-04-17T10:06:49Z</time>
      </trkpt>
      <trkpt lat="49.05684" lon="7.69723">
        <ele>415.7</ele>
        <time>2022-04-17T10:07:19Z</time>
      </trkpt>
      <trkpt lat="49.05688" lon="7.69736">
        <ele>418.5</ele>
        <time>2022-04-17T10:07:33Z</time>
      </trkpt>
      <trkpt lat="49.05697" lon="7.69742">
        <ele>415.6</ele>
        <time>2022-04-17T10:07:43Z</time>
      </trkpt>
      <trkpt lat="49.05697" lon="7.69757">
        <ele>421.4</ele>
        <time>2022-04-17T10:07:50Z</time>
      </trkpt>
      <trkpt lat="49.057" lon="7.69772">
        <ele>421.7</ele>
        <time>2022-04-17T10:07:58Z</time>
      </trkpt>
      <trkpt lat="49.05694" lon="7.69785">
        <ele>427.6</ele>
        <time>2022-04-17T10:08:01Z</time>
      </trkpt>
      <trkpt lat="49.05684" lon="7.69788">
        <ele>433.8</ele>
        <time>2022-04-17T10:08:06Z</time>
      </trkpt>
      <trkpt lat="49.05677" lon="7.69778">
        <ele>434.8</ele>
        <time>2022-04-17T10:08:21Z</time>
      </trkpt>
      <trkpt lat="49.05669" lon="7.69786">
        <ele>439.3</ele>
        <time>2022-04-17T10:08:35Z</time>
      </trkpt>
      <trkpt lat="49.05669" lon="7.69787">
        <ele>439.3</ele>
        <time>2022-04-17T10:08:36Z</time>
      </trkpt>
      <trkpt lat="49.0566" lon="7.69786">
        <ele>443.5</ele>
        <time>2022-04-17T10:08:45Z</time>
      </trkpt>
      <trkpt lat="49.05651" lon="7.6978">
        <ele>443.5</ele>
        <time>2022-04-17T10:09:03Z</time>
      </trkpt>
      <trkpt lat="49.05641" lon="7.69775">
        <ele>444.7</ele>
        <time>2022-04-17T10:09:13Z</time>
      </trkpt>
      <trkpt lat="49.05649" lon="7.69766">
        <ele>440.3</ele>
        <time>2022-04-17T10:09:22Z</time>
      </trkpt>
      <trkpt lat="49.05642" lon="7.69778">
        <ele>445.9</ele>
        <time>2022-04-17T10:09:33Z</time>
      </trkpt>
      <trkpt lat="49.0565" lon="7.69788">
        <ele>445.9</ele>
        <time>2022-04-17T10:09:52Z</time>
      </trkpt>
      <trkpt lat="49.05658" lon="7.69797">
        <ele>445.9</ele>
        <time>2022-04-17T10:10:01Z</time>
      </trkpt>
      <trkpt lat="49.05652" lon="7.6981">
        <ele>450.1</ele>
        <time>2022-04-17T10:10:16Z</time>
      </trkpt>
      <trkpt lat="49.05643" lon="7.69805">
        <ele>452.1</ele>
        <time>2022-04-17T10:10:37Z</time>
      </trkpt>
      <trkpt lat="49.05638" lon="7.69807">
        <ele>454.3</ele>
        <time>2022-04-17T10:10:49Z</time>
      </trkpt>
      <trkpt lat="49.05637" lon="7.69807">
        <ele>454.4</ele>
        <time>2022-04-17T10:10:50Z</time>
      </trkpt>
      <trkpt lat="49.05629" lon="7.69811">
        <ele>456.8</ele>
        <time>2022-04-17T10:11:06Z</time>
      </trkpt>
      <trkpt lat="49.05619" lon="7.69804">
        <ele>456.3</ele>
        <time>2022-04-17T10:11:15Z</time>
      </trkpt>
      <trkpt lat="49.05625" lon="7.69815">
        <ele>457.8</ele>
        <time>2022-04-17T10:11:47Z</time>
      </trkpt>
      <trkpt lat="49.05634" lon="7.6982">
        <ele>458.8</ele>
        <time>2022-04-17T10:11:57Z</time>
      </trkpt>
      <trkpt lat="49.05639" lon="7.69832">
        <ele>459.5</ele>
        <time>2022-04-17T10:12:05Z</time>
      </trkpt>
      <trkpt lat="49.05644" lon="7.69844">
        <ele>459.9</ele>
        <time>2022-04-17T10:12:15Z</time>
      </trkpt>
      <trkpt lat="49.0565" lon="7.69856">
        <ele>460.1</ele>
        <time>2022-04-17T10:12:23Z</time>
      </trkpt>
      <trkpt lat="49.05658" lon="7.69862">
        <ele>460.2</ele>
        <time>2022-04-17T10:12:30Z</time>
      </trkpt>
      <trkpt lat="49.05664" lon="7.69873">
        <ele>460.5</ele>
        <time>2022-04-17T10:12:37Z</time>
      </trkpt>
      <trkpt lat="49.05667" lon="7.69887">
        <ele>461</ele>
        <time>2022-04-17T10:12:44Z</time>
      </trkpt>
      <trkpt lat="49.05669" lon="7.69901">
        <ele>461.5</ele>
        <time>2022-04-17T10:12:51Z</time>
      </trkpt>
      <trkpt lat="49.05674" lon="7.69912">
        <ele>461.8</ele>
        <time>2022-04-17T10:13:00Z</time>
      </trkpt>
      <trkpt lat="49.0568" lon="7.69923">
        <ele>461.8</ele>
        <time>2022-04-17T10:13:07Z</time>
      </trkpt>
      <trkpt lat="49.05686" lon="7.69933">
        <ele>461.7</ele>
        <time>2022-04-17T10:13:14Z</time>
      </trkpt>
      <trkpt lat="49.05688" lon="7.69947">
        <ele>461.3</ele>
        <time>2022-04-17T10:13:23Z</time>
      </trkpt>
      <trkpt lat="49.05689" lon="7.69961">
        <ele>460.9</ele>
        <time>2022-04-17T10:13:29Z</time>
      </trkpt>
      <trkpt lat="49.05692" lon="7.69976">
        <ele>460.4</ele>
        <time>2022-04-17T10:13:36Z</time>
      </trkpt>
      <trkpt lat="49.05695" lon="7.69991">
        <ele>460</ele>
        <time>2022-04-17T10:13:46Z</time>
      </trkpt>
      <trkpt lat="49.05698" lon="7.70004">
        <ele>459.6</ele>
        <time>2022-04-17T10:13:53Z</time>
      </trkpt>
      <trkpt lat="49.05704" lon="7.70014">
        <ele>459.4</ele>
        <time>2022-04-17T10:13:59Z</time>
      </trkpt>
      <trkpt lat="49.0571" lon="7.70027">
        <ele>459.2</ele>
        <time>2022-04-17T10:14:07Z</time>
      </trkpt>
      <trkpt lat="49.05718" lon="7.70036">
        <ele>459</ele>
        <time>2022-04-17T10:14:15Z</time>
      </trkpt>
      <trkpt lat="49.05725" lon="7.70046">
        <ele>458.9</ele>
        <time>2022-04-17T10:14:23Z</time>
      </trkpt>
      <trkpt lat="49.05728" lon="7.70059">
        <ele>459.1</ele>
        <time>2022-04-17T10:14:30Z</time>
      </trkpt>
      <trkpt lat="49.05728" lon="7.70073">
        <ele>459.4</ele>
        <time>2022-04-17T10:14:37Z</time>
      </trkpt>
      <trkpt lat="49.05724" lon="7.70086">
        <ele>459.8</ele>
        <time>2022-04-17T10:14:45Z</time>
      </trkpt>
      <trkpt lat="49.05723" lon="7.70101">
        <ele>460</ele>
        <time>2022-04-17T10:14:53Z</time>
      </trkpt>
      <trkpt lat="49.05718" lon="7.70114">
        <ele>459.8</ele>
        <time>2022-04-17T10:15:03Z</time>
      </trkpt>
      <trkpt lat="49.05716" lon="7.70128">
        <ele>459.2</ele>
        <time>2022-04-17T10:15:20Z</time>
      </trkpt>
      <trkpt lat="49.05716" lon="7.70143">
        <ele>458.2</ele>
        <time>2022-04-17T10:15:31Z</time>
      </trkpt>
      <trkpt lat="49.05711" lon="7.70154">
        <ele>457</ele>
        <time>2022-04-17T10:15:44Z</time>
      </trkpt>
      <trkpt lat="49.05711" lon="7.70154">
        <ele>457</ele>
        <time>2022-04-17T10:15:45Z</time>
      </trkpt>
      <trkpt lat="49.0571" lon="7.70155">
        <ele>456.8</ele>
        <time>2022-04-17T10:15:46Z</time>
      </trkpt>
      <trkpt lat="49.05709" lon="7.70154">
        <ele>456.6</ele>
        <time>2022-04-17T10:15:51Z</time>
      </trkpt>
      <trkpt lat="49.05709" lon="7.70154">
        <ele>456.6</ele>
        <time>2022-04-17T10:15:52Z</time>
      </trkpt>
      <trkpt lat="49.05709" lon="7.70154">
        <ele>456.6</ele>
        <time>2022-04-17T10:15:53Z</time>
      </trkpt>
      <trkpt lat="49.05709" lon="7.70153">
        <ele>456.5</ele>
        <time>2022-04-17T10:15:55Z</time>
      </trkpt>
      <trkpt lat="49.0571" lon="7.70167">
        <ele>455</ele>
        <time>2022-04-17T10:16:17Z</time>
      </trkpt>
      <trkpt lat="49.05711" lon="7.70182">
        <ele>453.6</ele>
        <time>2022-04-17T10:16:28Z</time>
      </trkpt>
      <trkpt lat="49.0571" lon="7.70196">
        <ele>452.3</ele>
        <time>2022-04-17T10:16:38Z</time>
      </trkpt>
      <trkpt lat="49.05709" lon="7.70211">
        <ele>451.3</ele>
        <time>2022-04-17T10:16:45Z</time>
      </trkpt>
      <trkpt lat="49.0571" lon="7.70225">
        <ele>450.5</ele>
        <time>2022-04-17T10:16:54Z</time>
      </trkpt>
      <trkpt lat="49.05704" lon="7.70238">
        <ele>449.9</ele>
        <time>2022-04-17T10:17:06Z</time>
      </trkpt>
      <trkpt lat="49.05705" lon="7.70254">
        <ele>449.6</ele>
        <time>2022-04-17T10:17:14Z</time>
      </trkpt>
      <trkpt lat="49.05701" lon="7.70267">
        <ele>449.3</ele>
        <time>2022-04-17T10:17:24Z</time>
      </trkpt>
      <trkpt lat="49.05699" lon="7.70283">
        <ele>449.1</ele>
        <time>2022-04-17T10:17:34Z</time>
      </trkpt>
      <trkpt lat="49.05698" lon="7.70297">
        <ele>449</ele>
        <time>2022-04-17T10:17:42Z</time>
      </trkpt>
      <trkpt lat="49.05694" lon="7.70311">
        <ele>448.7</ele>
        <time>2022-04-17T10:17:49Z</time>
      </trkpt>
      <trkpt lat="49.05691" lon="7.70326">
        <ele>448.7</ele>
        <time>2022-04-17T10:17:59Z</time>
      </trkpt>
      <trkpt lat="49.05687" lon="7.70338">
        <ele>449.2</ele>
        <time>2022-04-17T10:18:07Z</time>
      </trkpt>
      <trkpt lat="49.05682" lon="7.7035">
        <ele>450.2</ele>
        <time>2022-04-17T10:18:20Z</time>
      </trkpt>
      <trkpt lat="49.05678" lon="7.70363">
        <ele>451.8</ele>
        <time>2022-04-17T10:18:32Z</time>
      </trkpt>
      <trkpt lat="49.05673" lon="7.70375">
        <ele>453.8</ele>
        <time>2022-04-17T10:18:51Z</time>
      </trkpt>
      <trkpt lat="49.05668" lon="7.70388">
        <ele>456.1</ele>
        <time>2022-04-17T10:19:08Z</time>
      </trkpt>
      <trkpt lat="49.05669" lon="7.70397">
        <ele>457.6</ele>
        <time>2022-04-17T10:19:20Z</time>
      </trkpt>
      <trkpt lat="49.05669" lon="7.70398">
        <ele>457.8</ele>
        <time>2022-04-17T10:19:21Z</time>
      </trkpt>
      <trkpt lat="49.05665" lon="7.7041">
        <ele>460.4</ele>
        <time>2022-04-17T10:19:42Z</time>
      </trkpt>
      <trkpt lat="49.05661" lon="7.70424">
        <ele>463.2</ele>
        <time>2022-04-17T10:19:55Z</time>
      </trkpt>
      <trkpt lat="49.05655" lon="7.70433">
        <ele>466.1</ele>
        <time>2022-04-17T10:20:08Z</time>
      </trkpt>
      <trkpt lat="49.05646" lon="7.70437">
        <ele>474.8</ele>
        <time>2022-04-17T10:20:54Z</time>
      </trkpt>
      <trkpt lat="49.0564" lon="7.70448">
        <ele>477.1</ele>
        <time>2022-04-17T10:21:03Z</time>
      </trkpt>
      <trkpt lat="49.05636" lon="7.70461">
        <ele>479.2</ele>
        <time>2022-04-17T10:21:15Z</time>
      </trkpt>
      <trkpt lat="49.05634" lon="7.70472">
        <ele>480.7</ele>
        <time>2022-04-17T10:21:31Z</time>
      </trkpt>
      <trkpt lat="49.05634" lon="7.70473">
        <ele>480.8</ele>
        <time>2022-04-17T10:21:32Z</time>
      </trkpt>
      <trkpt lat="49.05634" lon="7.70474">
        <ele>480.9</ele>
        <time>2022-04-17T10:21:37Z</time>
      </trkpt>
      <trkpt lat="49.05634" lon="7.70475">
        <ele>481.1</ele>
        <time>2022-04-17T10:21:38Z</time>
      </trkpt>
      <trkpt lat="49.05635" lon="7.7049">
        <ele>482.5</ele>
        <time>2022-04-17T10:21:46Z</time>
      </trkpt>
      <trkpt lat="49.05632" lon="7.70504">
        <ele>483.7</ele>
        <time>2022-04-17T10:21:54Z</time>
      </trkpt>
      <trkpt lat="49.05632" lon="7.70508">
        <ele>484.1</ele>
        <time>2022-04-17T10:21:58Z</time>
      </trkpt>
      <trkpt lat="49.05632" lon="7.70508">
        <ele>484.1</ele>
        <time>2022-04-17T10:21:59Z</time>
      </trkpt>
      <trkpt lat="49.05632" lon="7.70508">
        <ele>484.2</ele>
        <time>2022-04-17T10:22:01Z</time>
      </trkpt>
      <trkpt lat="49.05632" lon="7.70509">
        <ele>484.3</ele>
        <time>2022-04-17T10:22:02Z</time>
      </trkpt>
      <trkpt lat="49.05627" lon="7.70521">
        <ele>485.7</ele>
        <time>2022-04-17T10:22:10Z</time>
      </trkpt>
      <trkpt lat="49.05622" lon="7.70533">
        <ele>487.5</ele>
        <time>2022-04-17T10:22:21Z</time>
      </trkpt>
      <trkpt lat="49.05618" lon="7.70546">
        <ele>489.2</ele>
        <time>2022-04-17T10:22:33Z</time>
      </trkpt>
      <trkpt lat="49.05622" lon="7.7056">
        <ele>490.9</ele>
        <time>2022-04-17T10:22:42Z</time>
      </trkpt>
      <trkpt lat="49.05618" lon="7.70572">
        <ele>490.8</ele>
        <time>2022-04-17T10:22:52Z</time>
      </trkpt>
      <trkpt lat="49.05619" lon="7.70588">
        <ele>490.7</ele>
        <time>2022-04-17T10:23:05Z</time>
      </trkpt>
      <trkpt lat="49.0562" lon="7.70602">
        <ele>490.7</ele>
        <time>2022-04-17T10:23:13Z</time>
      </trkpt>
      <trkpt lat="49.05622" lon="7.70615">
        <ele>490.6</ele>
        <time>2022-04-17T10:23:25Z</time>
      </trkpt>
      <trkpt lat="49.0562" lon="7.7063">
        <ele>490.6</ele>
        <time>2022-04-17T10:23:33Z</time>
      </trkpt>
      <trkpt lat="49.0562" lon="7.70644">
        <ele>490.5</ele>
        <time>2022-04-17T10:23:40Z</time>
      </trkpt>
      <trkpt lat="49.0562" lon="7.70658">
        <ele>490.5</ele>
        <time>2022-04-17T10:23:50Z</time>
      </trkpt>
      <trkpt lat="49.0562" lon="7.70672">
        <ele>490.4</ele>
        <time>2022-04-17T10:24:01Z</time>
      </trkpt>
      <trkpt lat="49.05622" lon="7.70686">
        <ele>490.4</ele>
        <time>2022-04-17T10:24:09Z</time>
      </trkpt>
      <trkpt lat="49.05628" lon="7.70696">
        <ele>490.4</ele>
        <time>2022-04-17T10:24:18Z</time>
      </trkpt>
      <trkpt lat="49.05631" lon="7.7071">
        <ele>490.4</ele>
        <time>2022-04-17T10:24:29Z</time>
      </trkpt>
      <trkpt lat="49.05636" lon="7.70724">
        <ele>490.4</ele>
        <time>2022-04-17T10:24:43Z</time>
      </trkpt>
      <trkpt lat="49.05642" lon="7.70734">
        <ele>490.4</ele>
        <time>2022-04-17T10:25:01Z</time>
      </trkpt>
      <trkpt lat="49.05646" lon="7.7074">
        <ele>490.4</ele>
        <time>2022-04-17T10:25:11Z</time>
      </trkpt>
      <trkpt lat="49.05646" lon="7.7074">
        <ele>490.4</ele>
        <time>2022-04-17T10:25:15Z</time>
      </trkpt>
      <trkpt lat="49.05648" lon="7.70741">
        <ele>490.4</ele>
        <time>2022-04-17T10:25:29Z</time>
      </trkpt>
      <trkpt lat="49.05648" lon="7.70741">
        <ele>490.4</ele>
        <time>2022-04-17T10:25:31Z</time>
      </trkpt>
      <trkpt lat="49.05648" lon="7.70741">
        <ele>490.4</ele>
        <time>2022-04-17T10:25:32Z</time>
      </trkpt>
      <trkpt lat="49.05648" lon="7.7074">
        <ele>490.4</ele>
        <time>2022-04-17T10:25:39Z</time>
      </trkpt>
      <trkpt lat="49.05648" lon="7.7074">
        <ele>490.4</ele>
        <time>2022-04-17T10:25:40Z</time>
      </trkpt>
      <trkpt lat="49.05649" lon="7.70739">
        <ele>490.4</ele>
        <time>2022-04-17T10:26:10Z</time>
      </trkpt>
      <trkpt lat="49.05649" lon="7.70739">
        <ele>490.4</ele>
        <time>2022-04-17T10:26:11Z</time>
      </trkpt>
      <trkpt lat="49.05649" lon="7.70739">
        <ele>490.4</ele>
        <time>2022-04-17T10:26:21Z</time>
      </trkpt>
      <trkpt lat="49.05649" lon="7.70739">
        <ele>490.4</ele>
        <time>2022-04-17T10:26:22Z</time>
      </trkpt>
      <trkpt lat="49.05649" lon="7.70739">
        <ele>490.4</ele>
        <time>2022-04-17T10:26:24Z</time>
      </trkpt>
      <trkpt lat="49.05648" lon="7.7074">
        <ele>490.4</ele>
        <time>2022-04-17T10:26:29Z</time>
      </trkpt>
      <trkpt lat="49.05648" lon="7.7074">
        <ele>490.4</ele>
        <time>2022-04-17T10:26:30Z</time>
      </trkpt>
      <trkpt lat="49.05648" lon="7.7074">
        <ele>490.4</ele>
        <time>2022-04-17T10:26:31Z</time>
      </trkpt>
      <trkpt lat="49.05648" lon="7.70741">
        <ele>490.4</ele>
        <time>2022-04-17T10:26:32Z</time>
      </trkpt>
      <trkpt lat="49.05648" lon="7.70741">
        <ele>490.4</ele>
        <time>2022-04-17T10:26:34Z</time>
      </trkpt>
      <trkpt lat="49.05648" lon="7.70741">
        <ele>490.4</ele>
        <time>2022-04-17T10:26:38Z</time>
      </trkpt>
      <trkpt lat="49.05648" lon="7.70741">
        <ele>490.4</ele>
        <time>2022-04-17T10:26:41Z</time>
      </trkpt>
      <trkpt lat="49.05648" lon="7.70741">
        <ele>490.4</ele>
        <time>2022-04-17T10:26:42Z</time>
      </trkpt>
      <trkpt lat="49.05648" lon="7.70738">
        <ele>490.4</ele>
        <time>2022-04-17T10:26:55Z</time>
      </trkpt>
      <trkpt lat="49.05648" lon="7.70739">
        <ele>490.4</ele>
        <time>2022-04-17T10:26:57Z</time>
      </trkpt>
      <trkpt lat="49.05644" lon="7.70739">
        <ele>490.3</ele>
        <time>2022-04-17T10:27:18Z</time>
      </trkpt>
      <trkpt lat="49.05644" lon="7.70739">
        <ele>490.3</ele>
        <time>2022-04-17T10:27:21Z</time>
      </trkpt>
      <trkpt lat="49.05646" lon="7.70737">
        <ele>490.3</ele>
        <time>2022-04-17T10:27:27Z</time>
      </trkpt>
      <trkpt lat="49.05645" lon="7.70737">
        <ele>490.3</ele>
        <time>2022-04-17T10:27:32Z</time>
      </trkpt>
      <trkpt lat="49.05645" lon="7.70737">
        <ele>490.3</ele>
        <time>2022-04-17T10:27:33Z</time>
      </trkpt>
      <trkpt lat="49.05645" lon="7.70737">
        <ele>490.3</ele>
        <time>2022-04-17T10:27:37Z</time>
      </trkpt>
      <trkpt lat="49.05645" lon="7.70737">
        <ele>490.3</ele>
        <time>2022-04-17T10:27:38Z</time>
      </trkpt>
      <trkpt lat="49.05645" lon="7.70737">
        <ele>490.3</ele>
        <time>2022-04-17T10:27:43Z</time>
      </trkpt>
      <trkpt lat="49.05644" lon="7.70738">
        <ele>490.3</ele>
        <time>2022-04-17T10:27:48Z</time>
      </trkpt>
      <trkpt lat="49.05645" lon="7.70738">
        <ele>490.3</ele>
        <time>2022-04-17T10:27:49Z</time>
      </trkpt>
      <trkpt lat="49.05646" lon="7.70739">
        <ele>490.3</ele>
        <time>2022-04-17T10:27:54Z</time>
      </trkpt>
      <trkpt lat="49.05647" lon="7.7074">
        <ele>490.3</ele>
        <time>2022-04-17T10:27:55Z</time>
      </trkpt>
      <trkpt lat="49.05642" lon="7.70733">
        <ele>490.3</ele>
        <time>2022-04-17T10:28:25Z</time>
      </trkpt>
      <trkpt lat="49.05642" lon="7.70733">
        <ele>490.3</ele>
        <time>2022-04-17T10:28:26Z</time>
      </trkpt>
      <trkpt lat="49.05642" lon="7.70733">
        <ele>490.3</ele>
        <time>2022-04-17T10:28:34Z</time>
      </trkpt>
      <trkpt lat="49.05643" lon="7.70733">
        <ele>490.3</ele>
        <time>2022-04-17T10:28:35Z</time>
      </trkpt>
      <trkpt lat="49.05643" lon="7.70734">
        <ele>490.2</ele>
        <time>2022-04-17T10:28:53Z</time>
      </trkpt>
      <trkpt lat="49.05642" lon="7.70734">
        <ele>490.2</ele>
        <time>2022-04-17T10:28:54Z</time>
      </trkpt>
      <trkpt lat="49.05637" lon="7.70733">
        <ele>490.2</ele>
        <time>2022-04-17T10:29:35Z</time>
      </trkpt>
      <trkpt lat="49.05638" lon="7.70734">
        <ele>490.2</ele>
        <time>2022-04-17T10:29:36Z</time>
      </trkpt>
      <trkpt lat="49.0564" lon="7.70748">
        <ele>490.1</ele>
        <time>2022-04-17T10:29:47Z</time>
      </trkpt>
      <trkpt lat="49.05645" lon="7.70737">
        <ele>490</ele>
        <time>2022-04-17T10:30:06Z</time>
      </trkpt>
      <trkpt lat="49.05654" lon="7.70744">
        <ele>489.8</ele>
        <time>2022-04-17T10:30:13Z</time>
      </trkpt>
      <trkpt lat="49.05645" lon="7.7074">
        <ele>489.7</ele>
        <time>2022-04-17T10:30:27Z</time>
      </trkpt>
      <trkpt lat="49.05636" lon="7.70737">
        <ele>489.5</ele>
        <time>2022-04-17T10:30:32Z</time>
      </trkpt>
      <trkpt lat="49.05644" lon="7.70729">
        <ele>489.3</ele>
        <time>2022-04-17T10:31:43Z</time>
      </trkpt>
      <trkpt lat="49.05653" lon="7.70728">
        <ele>489</ele>
        <time>2022-04-17T10:31:56Z</time>
      </trkpt>
      <trkpt lat="49.05663" lon="7.70724">
        <ele>488.8</ele>
        <time>2022-04-17T10:32:02Z</time>
      </trkpt>
      <trkpt lat="49.05658" lon="7.70736">
        <ele>488.4</ele>
        <time>2022-04-17T10:32:13Z</time>
      </trkpt>
      <trkpt lat="49.05648" lon="7.70734">
        <ele>488</ele>
        <time>2022-04-17T10:33:03Z</time>
      </trkpt>
      <trkpt lat="49.05657" lon="7.70731">
        <ele>487.6</ele>
        <time>2022-04-17T10:33:22Z</time>
      </trkpt>
      <trkpt lat="49.05647" lon="7.70733">
        <ele>487</ele>
        <time>2022-04-17T10:34:05Z</time>
      </trkpt>
      <trkpt lat="49.05639" lon="7.70723">
        <ele>486.3</ele>
        <time>2022-04-17T10:34:10Z</time>
      </trkpt>
      <trkpt lat="49.05647" lon="7.7073">
        <ele>485.6</ele>
        <time>2022-04-17T10:34:54Z</time>
      </trkpt>
      <trkpt lat="49.05639" lon="7.70736">
        <ele>484.8</ele>
        <time>2022-04-17T10:35:11Z</time>
      </trkpt>
      <trkpt lat="49.05632" lon="7.70726">
        <ele>484.1</ele>
        <time>2022-04-17T10:35:37Z</time>
      </trkpt>
      <trkpt lat="49.0564" lon="7.70733">
        <ele>483.3</ele>
        <time>2022-04-17T10:35:56Z</time>
      </trkpt>
      <trkpt lat="49.05648" lon="7.70742">
        <ele>482.5</ele>
        <time>2022-04-17T10:36:02Z</time>
      </trkpt>
      <trkpt lat="49.05642" lon="7.70731">
        <ele>481.8</ele>
        <time>2022-04-17T10:37:05Z</time>
      </trkpt>
      <trkpt lat="49.05641" lon="7.70734">
        <ele>481.6</ele>
        <time>2022-04-17T10:37:19Z</time>
      </trkpt>
      <trkpt lat="49.0564" lon="7.70734">
        <ele>481.5</ele>
        <time>2022-04-17T10:37:20Z</time>
      </trkpt>
      <trkpt lat="49.05648" lon="7.70741">
        <ele>480.8</ele>
        <time>2022-04-17T10:37:45Z</time>
      </trkpt>
      <trkpt lat="49.05657" lon="7.70733">
        <ele>479.7</ele>
        <time>2022-04-17T10:38:06Z</time>
      </trkpt>
      <trkpt lat="49.05646" lon="7.70728">
        <ele>479.7</ele>
        <time>2022-04-17T10:38:29Z</time>
      </trkpt>
      <trkpt lat="49.05635" lon="7.70728">
        <ele>479.7</ele>
        <time>2022-04-17T10:38:32Z</time>
      </trkpt>
      <trkpt lat="49.05627" lon="7.70735">
        <ele>479.7</ele>
        <time>2022-04-17T10:38:43Z</time>
      </trkpt>
      <trkpt lat="49.05638" lon="7.70737">
        <ele>479.7</ele>
        <time>2022-04-17T10:38:53Z</time>
      </trkpt>
      <trkpt lat="49.05646" lon="7.70728">
        <ele>479.7</ele>
        <time>2022-04-17T10:39:47Z</time>
      </trkpt>
      <trkpt lat="49.05656" lon="7.70723">
        <ele>479.7</ele>
        <time>2022-04-17T10:39:52Z</time>
      </trkpt>
      <trkpt lat="49.05646" lon="7.70725">
        <ele>479.7</ele>
        <time>2022-04-17T10:40:13Z</time>
      </trkpt>
      <trkpt lat="49.05641" lon="7.70736">
        <ele>479.7</ele>
        <time>2022-04-17T10:40:49Z</time>
      </trkpt>
      <trkpt lat="49.05645" lon="7.7074">
        <ele>479.7</ele>
        <time>2022-04-17T10:41:25Z</time>
      </trkpt>
      <trkpt lat="49.05645" lon="7.70742">
        <ele>479.7</ele>
        <time>2022-04-17T10:41:26Z</time>
      </trkpt>
      <trkpt lat="49.05636" lon="7.70748">
        <ele>479.7</ele>
        <time>2022-04-17T10:41:32Z</time>
      </trkpt>
      <trkpt lat="49.0564" lon="7.70736">
        <ele>479.6</ele>
        <time>2022-04-17T10:41:40Z</time>
      </trkpt>
      <trkpt lat="49.0565" lon="7.7073">
        <ele>479.6</ele>
        <time>2022-04-17T10:41:49Z</time>
      </trkpt>
      <trkpt lat="49.05655" lon="7.70728">
        <ele>479.6</ele>
        <time>2022-04-17T10:42:02Z</time>
      </trkpt>
      <trkpt lat="49.05655" lon="7.70729">
        <ele>479.6</ele>
        <time>2022-04-17T10:42:03Z</time>
      </trkpt>
      <trkpt lat="49.05659" lon="7.70729">
        <ele>479.6</ele>
        <time>2022-04-17T10:42:13Z</time>
      </trkpt>
      <trkpt lat="49.0566" lon="7.70729">
        <ele>479.6</ele>
        <time>2022-04-17T10:42:14Z</time>
      </trkpt>
      <trkpt lat="49.05661" lon="7.70728">
        <ele>479.6</ele>
        <time>2022-04-17T10:42:18Z</time>
      </trkpt>
      <trkpt lat="49.05661" lon="7.70728">
        <ele>479.6</ele>
        <time>2022-04-17T10:42:19Z</time>
      </trkpt>
      <trkpt lat="49.0566" lon="7.70725">
        <ele>479.6</ele>
        <time>2022-04-17T10:42:22Z</time>
      </trkpt>
      <trkpt lat="49.0566" lon="7.70726">
        <ele>479.6</ele>
        <time>2022-04-17T10:42:23Z</time>
      </trkpt>
      <trkpt lat="49.05653" lon="7.70734">
        <ele>479.6</ele>
        <time>2022-04-17T10:42:40Z</time>
      </trkpt>
      <trkpt lat="49.05643" lon="7.70731">
        <ele>479.6</ele>
        <time>2022-04-17T10:43:03Z</time>
      </trkpt>
      <trkpt lat="49.05634" lon="7.70732">
        <ele>479.6</ele>
        <time>2022-04-17T10:43:09Z</time>
      </trkpt>
      <trkpt lat="49.05633" lon="7.70746">
        <ele>479.6</ele>
        <time>2022-04-17T10:43:53Z</time>
      </trkpt>
      <trkpt lat="49.05632" lon="7.70747">
        <ele>479.6</ele>
        <time>2022-04-17T10:43:55Z</time>
      </trkpt>
      <trkpt lat="49.05632" lon="7.70745">
        <ele>479.6</ele>
        <time>2022-04-17T10:43:56Z</time>
      </trkpt>
      <trkpt lat="49.05639" lon="7.70733">
        <ele>479.6</ele>
        <time>2022-04-17T10:44:02Z</time>
      </trkpt>
      <trkpt lat="49.05644" lon="7.70721">
        <ele>479.6</ele>
        <time>2022-04-17T10:44:19Z</time>
      </trkpt>
      <trkpt lat="49.05647" lon="7.70707">
        <ele>479.6</ele>
        <time>2022-04-17T10:44:27Z</time>
      </trkpt>
      <trkpt lat="49.05647" lon="7.70706">
        <ele>479.6</ele>
        <time>2022-04-17T10:44:32Z</time>
      </trkpt>
      <trkpt lat="49.05646" lon="7.70705">
        <ele>479.6</ele>
        <time>2022-04-17T10:44:33Z</time>
      </trkpt>
      <trkpt lat="49.05653" lon="7.70716">
        <ele>479.6</ele>
        <time>2022-04-17T10:44:43Z</time>
      </trkpt>
      <trkpt lat="49.05646" lon="7.70727">
        <ele>479.6</ele>
        <time>2022-04-17T10:44:58Z</time>
      </trkpt>
      <trkpt lat="49.05637" lon="7.70733">
        <ele>479.6</ele>
        <time>2022-04-17T10:45:11Z</time>
      </trkpt>
      <trkpt lat="49.05645" lon="7.70741">
        <ele>479.6</ele>
        <time>2022-04-17T10:45:31Z</time>
      </trkpt>
      <trkpt lat="49.05646" lon="7.70743">
        <ele>479.6</ele>
        <time>2022-04-17T10:45:37Z</time>
      </trkpt>
      <trkpt lat="49.05647" lon="7.70742">
        <ele>479.6</ele>
        <time>2022-04-17T10:45:38Z</time>
      </trkpt>
      <trkpt lat="49.05655" lon="7.70734">
        <ele>479.6</ele>
        <time>2022-04-17T10:45:44Z</time>
      </trkpt>
      <trkpt lat="49.05658" lon="7.70735">
        <ele>479.6</ele>
        <time>2022-04-17T10:45:52Z</time>
      </trkpt>
      <trkpt lat="49.05657" lon="7.70736">
        <ele>479.6</ele>
        <time>2022-04-17T10:45:53Z</time>
      </trkpt>
      <trkpt lat="49.05656" lon="7.70739">
        <ele>479.6</ele>
        <time>2022-04-17T10:46:05Z</time>
      </trkpt>
      <trkpt lat="49.05656" lon="7.70741">
        <ele>479.6</ele>
        <time>2022-04-17T10:46:06Z</time>
      </trkpt>
      <trkpt lat="49.05663" lon="7.7073">
        <ele>479.6</ele>
        <time>2022-04-17T10:46:17Z</time>
      </trkpt>
      <trkpt lat="49.0567" lon="7.70721">
        <ele>479.6</ele>
        <time>2022-04-17T10:46:29Z</time>
      </trkpt>
      <trkpt lat="49.05661" lon="7.70728">
        <ele>479.6</ele>
        <time>2022-04-17T10:46:32Z</time>
      </trkpt>
      <trkpt lat="49.0567" lon="7.70721">
        <ele>479.6</ele>
        <time>2022-04-17T10:47:00Z</time>
      </trkpt>
      <trkpt lat="49.0567" lon="7.70722">
        <ele>479.6</ele>
        <time>2022-04-17T10:47:01Z</time>
      </trkpt>
      <trkpt lat="49.0567" lon="7.70721">
        <ele>479.6</ele>
        <time>2022-04-17T10:47:02Z</time>
      </trkpt>
      <trkpt lat="49.0567" lon="7.70721">
        <ele>479.6</ele>
        <time>2022-04-17T10:47:03Z</time>
      </trkpt>
      <trkpt lat="49.05668" lon="7.70722">
        <ele>479.6</ele>
        <time>2022-04-17T10:47:04Z</time>
      </trkpt>
      <trkpt lat="49.05659" lon="7.70724">
        <ele>479.6</ele>
        <time>2022-04-17T10:47:20Z</time>
      </trkpt>
      <trkpt lat="49.05662" lon="7.70726">
        <ele>479.6</ele>
        <time>2022-04-17T10:47:36Z</time>
      </trkpt>
      <trkpt lat="49.05663" lon="7.70726">
        <ele>479.6</ele>
        <time>2022-04-17T10:47:37Z</time>
      </trkpt>
      <trkpt lat="49.05655" lon="7.70734">
        <ele>479.5</ele>
        <time>2022-04-17T10:48:29Z</time>
      </trkpt>
      <trkpt lat="49.05648" lon="7.70744">
        <ele>479.5</ele>
        <time>2022-04-17T10:48:51Z</time>
      </trkpt>
      <trkpt lat="49.05648" lon="7.70744">
        <ele>479.5</ele>
        <time>2022-04-17T10:48:52Z</time>
      </trkpt>
      <trkpt lat="49.05647" lon="7.70745">
        <ele>479.5</ele>
        <time>2022-04-17T10:48:53Z</time>
      </trkpt>
      <trkpt lat="49.05656" lon="7.70747">
        <ele>479.5</ele>
        <time>2022-04-17T10:49:47Z</time>
      </trkpt>
      <trkpt lat="49.05662" lon="7.70736">
        <ele>479.5</ele>
        <time>2022-04-17T10:50:06Z</time>
      </trkpt>
      <trkpt lat="49.05663" lon="7.70734">
        <ele>479.5</ele>
        <time>2022-04-17T10:50:09Z</time>
      </trkpt>
      <trkpt lat="49.05662" lon="7.70734">
        <ele>479.5</ele>
        <time>2022-04-17T10:50:10Z</time>
      </trkpt>
      <trkpt lat="49.05663" lon="7.70738">
        <ele>479.5</ele>
        <time>2022-04-17T10:50:44Z</time>
      </trkpt>
      <trkpt lat="49.05662" lon="7.70738">
        <ele>479.5</ele>
        <time>2022-04-17T10:50:45Z</time>
      </trkpt>
      <trkpt lat="49.05668" lon="7.70727">
        <ele>479.5</ele>
        <time>2022-04-17T10:51:38Z</time>
      </trkpt>
      <trkpt lat="49.05672" lon="7.70715">
        <ele>479.5</ele>
        <time>2022-04-17T10:51:43Z</time>
      </trkpt>
      <trkpt lat="49.05667" lon="7.70728">
        <ele>479.5</ele>
        <time>2022-04-17T10:52:03Z</time>
      </trkpt>
      <trkpt lat="49.05658" lon="7.7073">
        <ele>479.5</ele>
        <time>2022-04-17T10:52:17Z</time>
      </trkpt>
      <trkpt lat="49.0565" lon="7.70738">
        <ele>479.5</ele>
        <time>2022-04-17T10:52:28Z</time>
      </trkpt>
      <trkpt lat="49.05646" lon="7.70735">
        <ele>479.5</ele>
        <time>2022-04-17T10:53:02Z</time>
      </trkpt>
      <trkpt lat="49.05645" lon="7.70735">
        <ele>479.5</ele>
        <time>2022-04-17T10:53:03Z</time>
      </trkpt>
      <trkpt lat="49.05648" lon="7.70737">
        <ele>479.5</ele>
        <time>2022-04-17T10:53:41Z</time>
      </trkpt>
      <trkpt lat="49.05648" lon="7.70736">
        <ele>479.5</ele>
        <time>2022-04-17T10:53:42Z</time>
      </trkpt>
      <trkpt lat="49.05648" lon="7.70735">
        <ele>479.5</ele>
        <time>2022-04-17T10:53:44Z</time>
      </trkpt>
      <trkpt lat="49.05647" lon="7.70735">
        <ele>479.5</ele>
        <time>2022-04-17T10:53:45Z</time>
      </trkpt>
      <trkpt lat="49.05653" lon="7.70748">
        <ele>479.5</ele>
        <time>2022-04-17T10:53:58Z</time>
      </trkpt>
      <trkpt lat="49.05653" lon="7.70749">
        <ele>479.5</ele>
        <time>2022-04-17T10:54:00Z</time>
      </trkpt>
      <trkpt lat="49.05653" lon="7.70749">
        <ele>479.5</ele>
        <time>2022-04-17T10:54:01Z</time>
      </trkpt>
      <trkpt lat="49.05644" lon="7.70741">
        <ele>479.5</ele>
        <time>2022-04-17T10:54:06Z</time>
      </trkpt>
      <trkpt lat="49.05655" lon="7.70738">
        <ele>479.5</ele>
        <time>2022-04-17T10:54:42Z</time>
      </trkpt>
      <trkpt lat="49.05664" lon="7.70733">
        <ele>479.5</ele>
        <time>2022-04-17T10:55:02Z</time>
      </trkpt>
      <trkpt lat="49.05661" lon="7.70746">
        <ele>479.5</ele>
        <time>2022-04-17T10:55:34Z</time>
      </trkpt>
      <trkpt lat="49.05665" lon="7.70739">
        <ele>479.5</ele>
        <time>2022-04-17T10:56:07Z</time>
      </trkpt>
      <trkpt lat="49.05665" lon="7.70739">
        <ele>479.5</ele>
        <time>2022-04-17T10:56:08Z</time>
      </trkpt>
      <trkpt lat="49.05662" lon="7.70741">
        <ele>479.5</ele>
        <time>2022-04-17T10:56:14Z</time>
      </trkpt>
      <trkpt lat="49.05661" lon="7.7074">
        <ele>479.5</ele>
        <time>2022-04-17T10:56:15Z</time>
      </trkpt>
      <trkpt lat="49.05652" lon="7.70743">
        <ele>479.5</ele>
        <time>2022-04-17T10:56:36Z</time>
      </trkpt>
      <trkpt lat="49.05647" lon="7.70738">
        <ele>479.5</ele>
        <time>2022-04-17T10:56:56Z</time>
      </trkpt>
      <trkpt lat="49.05647" lon="7.70737">
        <ele>479.5</ele>
        <time>2022-04-17T10:56:57Z</time>
      </trkpt>
      <trkpt lat="49.05658" lon="7.70725">
        <ele>479.5</ele>
        <time>2022-04-17T10:57:17Z</time>
      </trkpt>
      <trkpt lat="49.05667" lon="7.70726">
        <ele>479.5</ele>
        <time>2022-04-17T10:57:31Z</time>
      </trkpt>
      <trkpt lat="49.0566" lon="7.70736">
        <ele>479.5</ele>
        <time>2022-04-17T10:57:46Z</time>
      </trkpt>
      <trkpt lat="49.05651" lon="7.70739">
        <ele>479.4</ele>
        <time>2022-04-17T10:57:59Z</time>
      </trkpt>
      <trkpt lat="49.0566" lon="7.70732">
        <ele>479.4</ele>
        <time>2022-04-17T10:58:14Z</time>
      </trkpt>
      <trkpt lat="49.05651" lon="7.70731">
        <ele>479.4</ele>
        <time>2022-04-17T10:58:57Z</time>
      </trkpt>
      <trkpt lat="49.05661" lon="7.70725">
        <ele>479.4</ele>
        <time>2022-04-17T10:59:04Z</time>
      </trkpt>
      <trkpt lat="49.05663" lon="7.7074">
        <ele>479.4</ele>
        <time>2022-04-17T10:59:37Z</time>
      </trkpt>
      <trkpt lat="49.05664" lon="7.70736">
        <ele>479.4</ele>
        <time>2022-04-17T10:59:58Z</time>
      </trkpt>
      <trkpt lat="49.05664" lon="7.70736">
        <ele>479.4</ele>
        <time>2022-04-17T10:59:59Z</time>
      </trkpt>
      <trkpt lat="49.05665" lon="7.70731">
        <ele>479.4</ele>
        <time>2022-04-17T11:00:14Z</time>
      </trkpt>
      <trkpt lat="49.05665" lon="7.7073">
        <ele>479.4</ele>
        <time>2022-04-17T11:00:15Z</time>
      </trkpt>
      <trkpt lat="49.05655" lon="7.70734">
        <ele>479.4</ele>
        <time>2022-04-17T11:00:34Z</time>
      </trkpt>
      <trkpt lat="49.05647" lon="7.70738">
        <ele>479.4</ele>
        <time>2022-04-17T11:00:43Z</time>
      </trkpt>
      <trkpt lat="49.05656" lon="7.70738">
        <ele>479.4</ele>
        <time>2022-04-17T11:00:50Z</time>
      </trkpt>
      <trkpt lat="49.05665" lon="7.70736">
        <ele>479.4</ele>
        <time>2022-04-17T11:00:55Z</time>
      </trkpt>
      <trkpt lat="49.05662" lon="7.70733">
        <ele>479.4</ele>
        <time>2022-04-17T11:01:18Z</time>
      </trkpt>
      <trkpt lat="49.05662" lon="7.70732">
        <ele>479.4</ele>
        <time>2022-04-17T11:01:19Z</time>
      </trkpt>
      <trkpt lat="49.05671" lon="7.70741">
        <ele>479.4</ele>
        <time>2022-04-17T11:01:34Z</time>
      </trkpt>
      <trkpt lat="49.05663" lon="7.70734">
        <ele>479.4</ele>
        <time>2022-04-17T11:02:05Z</time>
      </trkpt>
      <trkpt lat="49.05656" lon="7.70725">
        <ele>479.4</ele>
        <time>2022-04-17T11:02:11Z</time>
      </trkpt>
      <trkpt lat="49.05654" lon="7.70723">
        <ele>479.4</ele>
        <time>2022-04-17T11:02:14Z</time>
      </trkpt>
      <trkpt lat="49.05654" lon="7.70723">
        <ele>479.4</ele>
        <time>2022-04-17T11:02:15Z</time>
      </trkpt>
      <trkpt lat="49.05649" lon="7.70731">
        <ele>479.4</ele>
        <time>2022-04-17T11:02:58Z</time>
      </trkpt>
      <trkpt lat="49.0565" lon="7.70731">
        <ele>479.4</ele>
        <time>2022-04-17T11:02:59Z</time>
      </trkpt>
      <trkpt lat="49.05642" lon="7.70721">
        <ele>479.4</ele>
        <time>2022-04-17T11:03:26Z</time>
      </trkpt>
      <trkpt lat="49.05653" lon="7.70725">
        <ele>479.4</ele>
        <time>2022-04-17T11:03:37Z</time>
      </trkpt>
      <trkpt lat="49.05652" lon="7.70732">
        <ele>479.4</ele>
        <time>2022-04-17T11:03:47Z</time>
      </trkpt>
      <trkpt lat="49.05651" lon="7.70734">
        <ele>479.4</ele>
        <time>2022-04-17T11:03:48Z</time>
      </trkpt>
      <trkpt lat="49.05639" lon="7.70744">
        <ele>479.4</ele>
        <time>2022-04-17T11:03:53Z</time>
      </trkpt>
      <trkpt lat="49.0563" lon="7.70742">
        <ele>479.4</ele>
        <time>2022-04-17T11:04:05Z</time>
      </trkpt>
      <trkpt lat="49.05639" lon="7.70748">
        <ele>479.2</ele>
        <time>2022-04-17T11:04:11Z</time>
      </trkpt>
      <trkpt lat="49.0564" lon="7.70745">
        <ele>479.2</ele>
        <time>2022-04-17T11:04:15Z</time>
      </trkpt>
      <trkpt lat="49.0564" lon="7.70745">
        <ele>479.2</ele>
        <time>2022-04-17T11:04:16Z</time>
      </trkpt>
      <trkpt lat="49.05631" lon="7.70754">
        <ele>479.2</ele>
        <time>2022-04-17T11:04:31Z</time>
      </trkpt>
      <trkpt lat="49.05636" lon="7.70752">
        <ele>479.2</ele>
        <time>2022-04-17T11:04:41Z</time>
      </trkpt>
      <trkpt lat="49.05636" lon="7.70752">
        <ele>479.2</ele>
        <time>2022-04-17T11:04:42Z</time>
      </trkpt>
      <trkpt lat="49.05642" lon="7.70741">
        <ele>481.2</ele>
        <time>2022-04-17T11:05:00Z</time>
      </trkpt>
      <trkpt lat="49.05644" lon="7.70726">
        <ele>481.7</ele>
        <time>2022-04-17T11:05:16Z</time>
      </trkpt>
      <trkpt lat="49.0564" lon="7.70723">
        <ele>481.9</ele>
        <time>2022-04-17T11:05:26Z</time>
      </trkpt>
      <trkpt lat="49.0564" lon="7.70722">
        <ele>481.9</ele>
        <time>2022-04-17T11:05:27Z</time>
      </trkpt>
      <trkpt lat="49.05632" lon="7.70731">
        <ele>482.4</ele>
        <time>2022-04-17T11:06:04Z</time>
      </trkpt>
      <trkpt lat="49.0564" lon="7.70742">
        <ele>482.9</ele>
        <time>2022-04-17T11:06:12Z</time>
      </trkpt>
      <trkpt lat="49.05648" lon="7.7075">
        <ele>483.4</ele>
        <time>2022-04-17T11:06:21Z</time>
      </trkpt>
      <trkpt lat="49.0564" lon="7.70743">
        <ele>483.9</ele>
        <time>2022-04-17T11:06:34Z</time>
      </trkpt>
      <trkpt lat="49.0564" lon="7.70743">
        <ele>483.9</ele>
        <time>2022-04-17T11:06:35Z</time>
      </trkpt>
      <trkpt lat="49.05642" lon="7.70743">
        <ele>484</ele>
        <time>2022-04-17T11:06:36Z</time>
      </trkpt>
      <trkpt lat="49.05635" lon="7.70733">
        <ele>484.5</ele>
        <time>2022-04-17T11:06:43Z</time>
      </trkpt>
      <trkpt lat="49.05626" lon="7.70725">
        <ele>485</ele>
        <time>2022-04-17T11:07:09Z</time>
      </trkpt>
      <trkpt lat="49.05626" lon="7.70725">
        <ele>485</ele>
        <time>2022-04-17T11:07:10Z</time>
      </trkpt>
      <trkpt lat="49.05627" lon="7.70726">
        <ele>485.1</ele>
        <time>2022-04-17T11:07:11Z</time>
      </trkpt>
      <trkpt lat="49.05634" lon="7.70731">
        <ele>485.4</ele>
        <time>2022-04-17T11:07:25Z</time>
      </trkpt>
      <trkpt lat="49.05634" lon="7.70731">
        <ele>485.5</ele>
        <time>2022-04-17T11:07:26Z</time>
      </trkpt>
      <trkpt lat="49.05632" lon="7.70732">
        <ele>485.6</ele>
        <time>2022-04-17T11:07:38Z</time>
      </trkpt>
      <trkpt lat="49.05633" lon="7.70732">
        <ele>485.6</ele>
        <time>2022-04-17T11:07:39Z</time>
      </trkpt>
      <trkpt lat="49.05632" lon="7.70721">
        <ele>485.9</ele>
        <time>2022-04-17T11:07:49Z</time>
      </trkpt>
      <trkpt lat="49.05631" lon="7.70721">
        <ele>486</ele>
        <time>2022-04-17T11:07:50Z</time>
      </trkpt>
      <trkpt lat="49.0562" lon="7.70719">
        <ele>487.5</ele>
        <time>2022-04-17T11:07:55Z</time>
      </trkpt>
      <trkpt lat="49.05632" lon="7.70723">
        <ele>486</ele>
        <time>2022-04-17T11:08:27Z</time>
      </trkpt>
      <trkpt lat="49.05643" lon="7.7073">
        <ele>483.9</ele>
        <time>2022-04-17T11:08:36Z</time>
      </trkpt>
      <trkpt lat="49.05652" lon="7.70737">
        <ele>482.1</ele>
        <time>2022-04-17T11:08:40Z</time>
      </trkpt>
      <trkpt lat="49.05662" lon="7.70735">
        <ele>480.5</ele>
        <time>2022-04-17T11:08:43Z</time>
      </trkpt>
      <trkpt lat="49.05652" lon="7.70738">
        <ele>479.7</ele>
        <time>2022-04-17T11:08:51Z</time>
      </trkpt>
      <trkpt lat="49.0565" lon="7.7074">
        <ele>479.3</ele>
        <time>2022-04-17T11:08:56Z</time>
      </trkpt>
      <trkpt lat="49.05649" lon="7.7074">
        <ele>479.3</ele>
        <time>2022-04-17T11:08:57Z</time>
      </trkpt>
      <trkpt lat="49.05648" lon="7.70747">
        <ele>478.6</ele>
        <time>2022-04-17T11:09:37Z</time>
      </trkpt>
      <trkpt lat="49.05648" lon="7.70747">
        <ele>478.6</ele>
        <time>2022-04-17T11:09:38Z</time>
      </trkpt>
      <trkpt lat="49.05648" lon="7.70747">
        <ele>478.6</ele>
        <time>2022-04-17T11:09:39Z</time>
      </trkpt>
      <trkpt lat="49.05648" lon="7.70747">
        <ele>478.6</ele>
        <time>2022-04-17T11:09:41Z</time>
      </trkpt>
      <trkpt lat="49.05648" lon="7.70748">
        <ele>478.6</ele>
        <time>2022-04-17T11:09:42Z</time>
      </trkpt>
      <trkpt lat="49.05648" lon="7.70748">
        <ele>478.5</ele>
        <time>2022-04-17T11:09:43Z</time>
      </trkpt>
      <trkpt lat="49.05649" lon="7.70763">
        <ele>477.4</ele>
        <time>2022-04-17T11:10:10Z</time>
      </trkpt>
      <trkpt lat="49.05657" lon="7.70771">
        <ele>476.5</ele>
        <time>2022-04-17T11:10:17Z</time>
      </trkpt>
      <trkpt lat="49.05663" lon="7.70783">
        <ele>475.8</ele>
        <time>2022-04-17T11:10:27Z</time>
      </trkpt>
      <trkpt lat="49.05664" lon="7.70789">
        <ele>475.5</ele>
        <time>2022-04-17T11:10:34Z</time>
      </trkpt>
      <trkpt lat="49.05664" lon="7.70789">
        <ele>475.5</ele>
        <time>2022-04-17T11:10:35Z</time>
      </trkpt>
      <trkpt lat="49.05654" lon="7.70789">
        <ele>475.2</ele>
        <time>2022-04-17T11:11:05Z</time>
      </trkpt>
      <trkpt lat="49.05645" lon="7.70787">
        <ele>475.1</ele>
        <time>2022-04-17T11:11:11Z</time>
      </trkpt>
      <trkpt lat="49.05636" lon="7.70783">
        <ele>475.1</ele>
        <time>2022-04-17T11:11:21Z</time>
      </trkpt>
      <trkpt lat="49.05628" lon="7.70774">
        <ele>475.1</ele>
        <time>2022-04-17T11:11:35Z</time>
      </trkpt>
      <trkpt lat="49.05619" lon="7.70767">
        <ele>475.1</ele>
        <time>2022-04-17T11:11:42Z</time>
      </trkpt>
      <trkpt lat="49.0561" lon="7.7076">
        <ele>475.2</ele>
        <time>2022-04-17T11:11:55Z</time>
      </trkpt>
      <trkpt lat="49.05601" lon="7.70753">
        <ele>475.3</ele>
        <time>2022-04-17T11:12:14Z</time>
      </trkpt>
      <trkpt lat="49.05591" lon="7.70754">
        <ele>475.5</ele>
        <time>2022-04-17T11:12:24Z</time>
      </trkpt>
      <trkpt lat="49.05582" lon="7.70751">
        <ele>475.8</ele>
        <time>2022-04-17T11:12:34Z</time>
      </trkpt>
      <trkpt lat="49.05572" lon="7.70747">
        <ele>476.2</ele>
        <time>2022-04-17T11:12:40Z</time>
      </trkpt>
      <trkpt lat="49.05561" lon="7.70745">
        <ele>476.5</ele>
        <time>2022-04-17T11:12:45Z</time>
      </trkpt>
      <trkpt lat="49.05551" lon="7.70748">
        <ele>476.6</ele>
        <time>2022-04-17T11:12:52Z</time>
      </trkpt>
      <trkpt lat="49.05541" lon="7.70745">
        <ele>476.6</ele>
        <time>2022-04-17T11:13:07Z</time>
      </trkpt>
      <trkpt lat="49.05531" lon="7.70746">
        <ele>476.7</ele>
        <time>2022-04-17T11:13:21Z</time>
      </trkpt>
      <trkpt lat="49.05529" lon="7.70745">
        <ele>476.8</ele>
        <time>2022-04-17T11:13:23Z</time>
      </trkpt>
      <trkpt lat="49.05528" lon="7.70745">
        <ele>476.8</ele>
        <time>2022-04-17T11:13:24Z</time>
      </trkpt>
      <trkpt lat="49.05518" lon="7.70746">
        <ele>477</ele>
        <time>2022-04-17T11:13:33Z</time>
      </trkpt>
      <trkpt lat="49.05508" lon="7.70746">
        <ele>477.3</ele>
        <time>2022-04-17T11:13:38Z</time>
      </trkpt>
      <trkpt lat="49.05498" lon="7.70748">
        <ele>477.7</ele>
        <time>2022-04-17T11:13:45Z</time>
      </trkpt>
      <trkpt lat="49.0549" lon="7.70753">
        <ele>477.7</ele>
        <time>2022-04-17T11:13:51Z</time>
      </trkpt>
      <trkpt lat="49.0548" lon="7.70753">
        <ele>477.6</ele>
        <time>2022-04-17T11:14:01Z</time>
      </trkpt>
      <trkpt lat="49.0547" lon="7.70744">
        <ele>477.5</ele>
        <time>2022-04-17T11:14:09Z</time>
      </trkpt>
      <trkpt lat="49.0546" lon="7.7074">
        <ele>477.5</ele>
        <time>2022-04-17T11:14:11Z</time>
      </trkpt>
      <trkpt lat="49.05452" lon="7.70734">
        <ele>479.7</ele>
        <time>2022-04-17T11:14:15Z</time>
      </trkpt>
      <trkpt lat="49.05443" lon="7.70738">
        <ele>479.8</ele>
        <time>2022-04-17T11:14:26Z</time>
      </trkpt>
      <trkpt lat="49.05449" lon="7.70749">
        <ele>476.8</ele>
        <time>2022-04-17T11:14:37Z</time>
      </trkpt>
      <trkpt lat="49.05455" lon="7.7076">
        <ele>476.2</ele>
        <time>2022-04-17T11:14:49Z</time>
      </trkpt>
      <trkpt lat="49.05464" lon="7.70767">
        <ele>475.5</ele>
        <time>2022-04-17T11:14:58Z</time>
      </trkpt>
      <trkpt lat="49.05473" lon="7.7077">
        <ele>474.6</ele>
        <time>2022-04-17T11:15:05Z</time>
      </trkpt>
      <trkpt lat="49.05483" lon="7.70769">
        <ele>473.5</ele>
        <time>2022-04-17T11:15:12Z</time>
      </trkpt>
      <trkpt lat="49.05493" lon="7.70773">
        <ele>472.6</ele>
        <time>2022-04-17T11:15:20Z</time>
      </trkpt>
      <trkpt lat="49.05503" lon="7.70776">
        <ele>471.7</ele>
        <time>2022-04-17T11:15:26Z</time>
      </trkpt>
      <trkpt lat="49.05512" lon="7.70779">
        <ele>470.8</ele>
        <time>2022-04-17T11:15:34Z</time>
      </trkpt>
      <trkpt lat="49.0552" lon="7.70787">
        <ele>470</ele>
        <time>2022-04-17T11:15:40Z</time>
      </trkpt>
      <trkpt lat="49.05529" lon="7.70793">
        <ele>469.3</ele>
        <time>2022-04-17T11:15:52Z</time>
      </trkpt>
      <trkpt lat="49.05538" lon="7.708">
        <ele>468.7</ele>
        <time>2022-04-17T11:16:01Z</time>
      </trkpt>
      <trkpt lat="49.05547" lon="7.70805">
        <ele>468.3</ele>
        <time>2022-04-17T11:16:08Z</time>
      </trkpt>
      <trkpt lat="49.05555" lon="7.70814">
        <ele>467.7</ele>
        <time>2022-04-17T11:16:15Z</time>
      </trkpt>
      <trkpt lat="49.05561" lon="7.70826">
        <ele>466.5</ele>
        <time>2022-04-17T11:16:22Z</time>
      </trkpt>
      <trkpt lat="49.05568" lon="7.70834">
        <ele>465.4</ele>
        <time>2022-04-17T11:16:29Z</time>
      </trkpt>
      <trkpt lat="49.05575" lon="7.70845">
        <ele>464.5</ele>
        <time>2022-04-17T11:16:36Z</time>
      </trkpt>
      <trkpt lat="49.05584" lon="7.70848">
        <ele>463.5</ele>
        <time>2022-04-17T11:16:43Z</time>
      </trkpt>
      <trkpt lat="49.05591" lon="7.70859">
        <ele>462.5</ele>
        <time>2022-04-17T11:16:50Z</time>
      </trkpt>
      <trkpt lat="49.05598" lon="7.70869">
        <ele>461.1</ele>
        <time>2022-04-17T11:16:59Z</time>
      </trkpt>
      <trkpt lat="49.05607" lon="7.70877">
        <ele>459.4</ele>
        <time>2022-04-17T11:17:07Z</time>
      </trkpt>
      <trkpt lat="49.05613" lon="7.70886">
        <ele>457.4</ele>
        <time>2022-04-17T11:17:15Z</time>
      </trkpt>
      <trkpt lat="49.05622" lon="7.70895">
        <ele>455.1</ele>
        <time>2022-04-17T11:17:24Z</time>
      </trkpt>
      <trkpt lat="49.05631" lon="7.70896">
        <ele>452.5</ele>
        <time>2022-04-17T11:17:32Z</time>
      </trkpt>
      <trkpt lat="49.05635" lon="7.7091">
        <ele>449.6</ele>
        <time>2022-04-17T11:17:44Z</time>
      </trkpt>
      <trkpt lat="49.0564" lon="7.70924">
        <ele>446.6</ele>
        <time>2022-04-17T11:17:54Z</time>
      </trkpt>
      <trkpt lat="49.05646" lon="7.70931">
        <ele>444.3</ele>
        <time>2022-04-17T11:18:04Z</time>
      </trkpt>
      <trkpt lat="49.05646" lon="7.70932">
        <ele>444.1</ele>
        <time>2022-04-17T11:18:05Z</time>
      </trkpt>
      <trkpt lat="49.05642" lon="7.7094">
        <ele>443.1</ele>
        <time>2022-04-17T11:18:13Z</time>
      </trkpt>
      <trkpt lat="49.05643" lon="7.7094">
        <ele>442.9</ele>
        <time>2022-04-17T11:18:14Z</time>
      </trkpt>
      <trkpt lat="49.05652" lon="7.70947">
        <ele>438.2</ele>
        <time>2022-04-17T11:18:20Z</time>
      </trkpt>
      <trkpt lat="49.0566" lon="7.70954">
        <ele>433.9</ele>
        <time>2022-04-17T11:18:33Z</time>
      </trkpt>
      <trkpt lat="49.05663" lon="7.70967">
        <ele>431.5</ele>
        <time>2022-04-17T11:18:44Z</time>
      </trkpt>
      <trkpt lat="49.05665" lon="7.70982">
        <ele>428.7</ele>
        <time>2022-04-17T11:18:55Z</time>
      </trkpt>
      <trkpt lat="49.05671" lon="7.70994">
        <ele>426</ele>
        <time>2022-04-17T11:19:04Z</time>
      </trkpt>
      <trkpt lat="49.05678" lon="7.71003">
        <ele>423.8</ele>
        <time>2022-04-17T11:19:10Z</time>
      </trkpt>
      <trkpt lat="49.05687" lon="7.7101">
        <ele>421.9</ele>
        <time>2022-04-17T11:19:17Z</time>
      </trkpt>
      <trkpt lat="49.05695" lon="7.71018">
        <ele>420.3</ele>
        <time>2022-04-17T11:19:24Z</time>
      </trkpt>
      <trkpt lat="49.05702" lon="7.71028">
        <ele>418.4</ele>
        <time>2022-04-17T11:19:31Z</time>
      </trkpt>
      <trkpt lat="49.0571" lon="7.71033">
        <ele>416.4</ele>
        <time>2022-04-17T11:19:38Z</time>
      </trkpt>
      <trkpt lat="49.05719" lon="7.71038">
        <ele>414.4</ele>
        <time>2022-04-17T11:19:45Z</time>
      </trkpt>
      <trkpt lat="49.05729" lon="7.71036">
        <ele>412.3</ele>
        <time>2022-04-17T11:19:52Z</time>
      </trkpt>
      <trkpt lat="49.05738" lon="7.71031">
        <ele>410.3</ele>
        <time>2022-04-17T11:20:00Z</time>
      </trkpt>
      <trkpt lat="49.05747" lon="7.71024">
        <ele>408.3</ele>
        <time>2022-04-17T11:20:05Z</time>
      </trkpt>
      <trkpt lat="49.05755" lon="7.71016">
        <ele>406.3</ele>
        <time>2022-04-17T11:20:16Z</time>
      </trkpt>
      <trkpt lat="49.05762" lon="7.71007">
        <ele>404.3</ele>
        <time>2022-04-17T11:20:23Z</time>
      </trkpt>
      <trkpt lat="49.0577" lon="7.71">
        <ele>402.3</ele>
        <time>2022-04-17T11:20:30Z</time>
      </trkpt>
      <trkpt lat="49.05777" lon="7.7099">
        <ele>400</ele>
        <time>2022-04-17T11:20:37Z</time>
      </trkpt>
      <trkpt lat="49.05783" lon="7.7098">
        <ele>397.9</ele>
        <time>2022-04-17T11:20:44Z</time>
      </trkpt>
      <trkpt lat="49.05788" lon="7.70968">
        <ele>395.8</ele>
        <time>2022-04-17T11:20:52Z</time>
      </trkpt>
      <trkpt lat="49.05796" lon="7.70959">
        <ele>393.7</ele>
        <time>2022-04-17T11:20:59Z</time>
      </trkpt>
      <trkpt lat="49.05803" lon="7.70949">
        <ele>391.7</ele>
        <time>2022-04-17T11:21:07Z</time>
      </trkpt>
      <trkpt lat="49.0581" lon="7.70939">
        <ele>389.8</ele>
        <time>2022-04-17T11:21:15Z</time>
      </trkpt>
      <trkpt lat="49.05817" lon="7.70928">
        <ele>387.8</ele>
        <time>2022-04-17T11:21:19Z</time>
      </trkpt>
      <trkpt lat="49.05826" lon="7.70921">
        <ele>385.7</ele>
        <time>2022-04-17T11:21:26Z</time>
      </trkpt>
      <trkpt lat="49.05835" lon="7.70914">
        <ele>383.5</ele>
        <time>2022-04-17T11:21:33Z</time>
      </trkpt>
      <trkpt lat="49.05839" lon="7.70929">
        <ele>382.8</ele>
        <time>2022-04-17T11:21:41Z</time>
      </trkpt>
      <trkpt lat="49.05841" lon="7.70942">
        <ele>382.1</ele>
        <time>2022-04-17T11:21:53Z</time>
      </trkpt>
      <trkpt lat="49.05848" lon="7.70951">
        <ele>381.5</ele>
        <time>2022-04-17T11:22:14Z</time>
      </trkpt>
      <trkpt lat="49.05855" lon="7.70961">
        <ele>381.2</ele>
        <time>2022-04-17T11:22:24Z</time>
      </trkpt>
      <trkpt lat="49.05847" lon="7.70972">
        <ele>381.3</ele>
        <time>2022-04-17T11:22:39Z</time>
      </trkpt>
      <trkpt lat="49.05838" lon="7.7098">
        <ele>381.6</ele>
        <time>2022-04-17T11:22:44Z</time>
      </trkpt>
      <trkpt lat="49.05838" lon="7.70995">
        <ele>381.9</ele>
        <time>2022-04-17T11:22:57Z</time>
      </trkpt>
      <trkpt lat="49.05834" lon="7.71008">
        <ele>382.1</ele>
        <time>2022-04-17T11:23:04Z</time>
      </trkpt>
      <trkpt lat="49.05828" lon="7.7102">
        <ele>382.2</ele>
        <time>2022-04-17T11:23:12Z</time>
      </trkpt>
      <trkpt lat="49.05822" lon="7.71032">
        <ele>382.3</ele>
        <time>2022-04-17T11:23:21Z</time>
      </trkpt>
      <trkpt lat="49.0582" lon="7.71045">
        <ele>380.5</ele>
        <time>2022-04-17T11:23:29Z</time>
      </trkpt>
      <trkpt lat="49.0582" lon="7.71059">
        <ele>379</ele>
        <time>2022-04-17T11:23:36Z</time>
      </trkpt>
      <trkpt lat="49.05815" lon="7.71072">
        <ele>377.4</ele>
        <time>2022-04-17T11:23:45Z</time>
      </trkpt>
      <trkpt lat="49.05811" lon="7.71084">
        <ele>375.9</ele>
        <time>2022-04-17T11:23:50Z</time>
      </trkpt>
      <trkpt lat="49.05806" lon="7.71095">
        <ele>374.3</ele>
        <time>2022-04-17T11:23:58Z</time>
      </trkpt>
      <trkpt lat="49.05799" lon="7.71107">
        <ele>372.6</ele>
        <time>2022-04-17T11:24:05Z</time>
      </trkpt>
      <trkpt lat="49.05793" lon="7.71118">
        <ele>370.9</ele>
        <time>2022-04-17T11:24:13Z</time>
      </trkpt>
      <trkpt lat="49.05789" lon="7.71132">
        <ele>369.2</ele>
        <time>2022-04-17T11:24:21Z</time>
      </trkpt>
      <trkpt lat="49.05789" lon="7.71146">
        <ele>367.6</ele>
        <time>2022-04-17T11:24:26Z</time>
      </trkpt>
      <trkpt lat="49.05788" lon="7.7116">
        <ele>366</ele>
        <time>2022-04-17T11:24:32Z</time>
      </trkpt>
      <trkpt lat="49.05788" lon="7.71175">
        <ele>364.4</ele>
        <time>2022-04-17T11:24:40Z</time>
      </trkpt>
      <trkpt lat="49.05785" lon="7.71189">
        <ele>362.9</ele>
        <time>2022-04-17T11:24:47Z</time>
      </trkpt>
      <trkpt lat="49.05787" lon="7.71205">
        <ele>361.3</ele>
        <time>2022-04-17T11:24:58Z</time>
      </trkpt>
      <trkpt lat="49.05781" lon="7.71217">
        <ele>359.8</ele>
        <time>2022-04-17T11:25:02Z</time>
      </trkpt>
      <trkpt lat="49.05775" lon="7.71229">
        <ele>358.3</ele>
        <time>2022-04-17T11:25:06Z</time>
      </trkpt>
      <trkpt lat="49.0577" lon="7.71241">
        <ele>356.9</ele>
        <time>2022-04-17T11:25:11Z</time>
      </trkpt>
      <trkpt lat="49.05767" lon="7.71255">
        <ele>355.4</ele>
        <time>2022-04-17T11:25:17Z</time>
      </trkpt>
      <trkpt lat="49.05766" lon="7.71269">
        <ele>354</ele>
        <time>2022-04-17T11:25:26Z</time>
      </trkpt>
      <trkpt lat="49.05763" lon="7.71283">
        <ele>352.4</ele>
        <time>2022-04-17T11:25:34Z</time>
      </trkpt>
      <trkpt lat="49.05767" lon="7.71296">
        <ele>350.7</ele>
        <time>2022-04-17T11:25:41Z</time>
      </trkpt>
      <trkpt lat="49.05767" lon="7.7131">
        <ele>348.8</ele>
        <time>2022-04-17T11:25:51Z</time>
      </trkpt>
      <trkpt lat="49.05766" lon="7.71313">
        <ele>348.4</ele>
        <time>2022-04-17T11:25:57Z</time>
      </trkpt>
      <trkpt lat="49.05766" lon="7.71312">
        <ele>348.3</ele>
        <time>2022-04-17T11:25:58Z</time>
      </trkpt>
      <trkpt lat="49.05768" lon="7.71323">
        <ele>346.6</ele>
        <time>2022-04-17T11:26:27Z</time>
      </trkpt>
      <trkpt lat="49.05768" lon="7.71323">
        <ele>346.6</ele>
        <time>2022-04-17T11:26:29Z</time>
      </trkpt>
      <trkpt lat="49.05768" lon="7.7132">
        <ele>346.1</ele>
        <time>2022-04-17T11:26:39Z</time>
      </trkpt>
      <trkpt lat="49.05768" lon="7.71319">
        <ele>346</ele>
        <time>2022-04-17T11:26:40Z</time>
      </trkpt>
      <trkpt lat="49.05768" lon="7.71319">
        <ele>346</ele>
        <time>2022-04-17T11:26:41Z</time>
      </trkpt>
      <trkpt lat="49.05768" lon="7.71319">
        <ele>345.9</ele>
        <time>2022-04-17T11:26:42Z</time>
      </trkpt>
      <trkpt lat="49.05768" lon="7.71319">
        <ele>345.9</ele>
        <time>2022-04-17T11:26:43Z</time>
      </trkpt>
      <trkpt lat="49.05769" lon="7.71319">
        <ele>345.8</ele>
        <time>2022-04-17T11:26:44Z</time>
      </trkpt>
      <trkpt lat="49.05772" lon="7.71315">
        <ele>344.8</ele>
        <time>2022-04-17T11:27:01Z</time>
      </trkpt>
      <trkpt lat="49.05772" lon="7.71314">
        <ele>344.7</ele>
        <time>2022-04-17T11:27:03Z</time>
      </trkpt>
      <trkpt lat="49.05772" lon="7.71314">
        <ele>344.7</ele>
        <time>2022-04-17T11:27:04Z</time>
      </trkpt>
      <trkpt lat="49.05771" lon="7.71314">
        <ele>344.6</ele>
        <time>2022-04-17T11:27:06Z</time>
      </trkpt>
      <trkpt lat="49.05769" lon="7.71313">
        <ele>344.1</ele>
        <time>2022-04-17T11:27:12Z</time>
      </trkpt>
      <trkpt lat="49.05769" lon="7.71313">
        <ele>344</ele>
        <time>2022-04-17T11:27:19Z</time>
      </trkpt>
      <trkpt lat="49.05769" lon="7.71314">
        <ele>343.9</ele>
        <time>2022-04-17T11:27:21Z</time>
      </trkpt>
      <trkpt lat="49.05769" lon="7.71314">
        <ele>343.9</ele>
        <time>2022-04-17T11:27:22Z</time>
      </trkpt>
      <trkpt lat="49.05769" lon="7.71314">
        <ele>343.8</ele>
        <time>2022-04-17T11:27:25Z</time>
      </trkpt>
      <trkpt lat="49.05768" lon="7.71314">
        <ele>343.7</ele>
        <time>2022-04-17T11:27:26Z</time>
      </trkpt>
      <trkpt lat="49.05766" lon="7.71314">
        <ele>343.3</ele>
        <time>2022-04-17T11:27:30Z</time>
      </trkpt>
      <trkpt lat="49.05766" lon="7.71314">
        <ele>343.2</ele>
        <time>2022-04-17T11:27:31Z</time>
      </trkpt>
      <trkpt lat="49.05768" lon="7.71321">
        <ele>342.3</ele>
        <time>2022-04-17T11:28:01Z</time>
      </trkpt>
      <trkpt lat="49.05768" lon="7.71321">
        <ele>342.2</ele>
        <time>2022-04-17T11:28:02Z</time>
      </trkpt>
      <trkpt lat="49.05761" lon="7.71332">
        <ele>328.7</ele>
        <time>2022-04-17T11:28:13Z</time>
      </trkpt>
      <trkpt lat="49.05753" lon="7.71339">
        <ele>326.3</ele>
        <time>2022-04-17T11:28:23Z</time>
      </trkpt>
      <trkpt lat="49.05751" lon="7.71333">
        <ele>325.3</ele>
        <time>2022-04-17T11:28:31Z</time>
      </trkpt>
      <trkpt lat="49.05751" lon="7.71332">
        <ele>325.2</ele>
        <time>2022-04-17T11:28:32Z</time>
      </trkpt>
      <trkpt lat="49.05749" lon="7.71348">
        <ele>322.9</ele>
        <time>2022-04-17T11:28:59Z</time>
      </trkpt>
      <trkpt lat="49.05749" lon="7.71363">
        <ele>320.2</ele>
        <time>2022-04-17T11:29:07Z</time>
      </trkpt>
      <trkpt lat="49.05751" lon="7.71378">
        <ele>317.6</ele>
        <time>2022-04-17T11:29:15Z</time>
      </trkpt>
      <trkpt lat="49.05755" lon="7.71393">
        <ele>317.4</ele>
        <time>2022-04-17T11:29:23Z</time>
      </trkpt>
      <trkpt lat="49.05759" lon="7.71405">
        <ele>317.4</ele>
        <time>2022-04-17T11:29:30Z</time>
      </trkpt>
      <trkpt lat="49.05763" lon="7.71414">
        <ele>317.4</ele>
        <time>2022-04-17T11:29:42Z</time>
      </trkpt>
      <trkpt lat="49.05763" lon="7.71414">
        <ele>317.4</ele>
        <time>2022-04-17T11:29:47Z</time>
      </trkpt>
      <trkpt lat="49.05765" lon="7.71412">
        <ele>317.4</ele>
        <time>2022-04-17T11:29:55Z</time>
      </trkpt>
      <trkpt lat="49.05765" lon="7.71412">
        <ele>317.4</ele>
        <time>2022-04-17T11:29:56Z</time>
      </trkpt>
      <trkpt lat="49.05755" lon="7.71408">
        <ele>317.4</ele>
        <time>2022-04-17T11:30:16Z</time>
      </trkpt>
      <trkpt lat="49.05764" lon="7.71398">
        <ele>317.4</ele>
        <time>2022-04-17T11:30:31Z</time>
      </trkpt>
      <trkpt lat="49.05773" lon="7.71392">
        <ele>317.9</ele>
        <time>2022-04-17T11:30:35Z</time>
      </trkpt>
      <trkpt lat="49.05771" lon="7.71378">
        <ele>318.5</ele>
        <time>2022-04-17T11:30:54Z</time>
      </trkpt>
      <trkpt lat="49.0577" lon="7.71375">
        <ele>318.6</ele>
        <time>2022-04-17T11:30:58Z</time>
      </trkpt>
      <trkpt lat="49.0577" lon="7.71374">
        <ele>318.7</ele>
        <time>2022-04-17T11:30:59Z</time>
      </trkpt>
      <trkpt lat="49.05764" lon="7.71363">
        <ele>319.2</ele>
        <time>2022-04-17T11:31:08Z</time>
      </trkpt>
      <trkpt lat="49.05756" lon="7.71355">
        <ele>319.7</ele>
        <time>2022-04-17T11:31:18Z</time>
      </trkpt>
      <trkpt lat="49.05753" lon="7.71353">
        <ele>319.9</ele>
        <time>2022-04-17T11:31:28Z</time>
      </trkpt>
      <trkpt lat="49.05753" lon="7.71354">
        <ele>319.9</ele>
        <time>2022-04-17T11:31:29Z</time>
      </trkpt>
      <trkpt lat="49.05753" lon="7.71355">
        <ele>319.9</ele>
        <time>2022-04-17T11:31:31Z</time>
      </trkpt>
      <trkpt lat="49.05753" lon="7.71354">
        <ele>320</ele>
        <time>2022-04-17T11:31:33Z</time>
      </trkpt>
      <trkpt lat="49.05759" lon="7.71366">
        <ele>320.4</ele>
        <time>2022-04-17T11:31:54Z</time>
      </trkpt>
      <trkpt lat="49.05756" lon="7.71377">
        <ele>320.8</ele>
        <time>2022-04-17T11:32:10Z</time>
      </trkpt>
      <trkpt lat="49.05756" lon="7.71377">
        <ele>320.8</ele>
        <time>2022-04-17T11:32:11Z</time>
      </trkpt>
      <trkpt lat="49.05757" lon="7.71379">
        <ele>320.9</ele>
        <time>2022-04-17T11:32:20Z</time>
      </trkpt>
      <trkpt lat="49.05757" lon="7.7138">
        <ele>321</ele>
        <time>2022-04-17T11:32:21Z</time>
      </trkpt>
      <trkpt lat="49.05758" lon="7.71378">
        <ele>321.1</ele>
        <time>2022-04-17T11:32:29Z</time>
      </trkpt>
      <trkpt lat="49.05759" lon="7.71378">
        <ele>321.1</ele>
        <time>2022-04-17T11:32:32Z</time>
      </trkpt>
      <trkpt lat="49.05759" lon="7.71377">
        <ele>321.1</ele>
        <time>2022-04-17T11:32:34Z</time>
      </trkpt>
      <trkpt lat="49.05759" lon="7.71376">
        <ele>321.2</ele>
        <time>2022-04-17T11:32:37Z</time>
      </trkpt>
      <trkpt lat="49.05759" lon="7.71375">
        <ele>321.2</ele>
        <time>2022-04-17T11:32:41Z</time>
      </trkpt>
      <trkpt lat="49.05759" lon="7.71375">
        <ele>321.2</ele>
        <time>2022-04-17T11:33:07Z</time>
      </trkpt>
      <trkpt lat="49.05759" lon="7.71375">
        <ele>321.2</ele>
        <time>2022-04-17T11:33:08Z</time>
      </trkpt>
      <trkpt lat="49.05759" lon="7.71375">
        <ele>321.2</ele>
        <time>2022-04-17T11:33:13Z</time>
      </trkpt>
      <trkpt lat="49.05758" lon="7.71376">
        <ele>321.3</ele>
        <time>2022-04-17T11:33:18Z</time>
      </trkpt>
      <trkpt lat="49.05758" lon="7.71375">
        <ele>321.3</ele>
        <time>2022-04-17T11:33:22Z</time>
      </trkpt>
      <trkpt lat="49.05758" lon="7.71374">
        <ele>321.4</ele>
        <time>2022-04-17T11:33:28Z</time>
      </trkpt>
      <trkpt lat="49.05758" lon="7.71374">
        <ele>321.4</ele>
        <time>2022-04-17T11:33:30Z</time>
      </trkpt>
      <trkpt lat="49.05758" lon="7.71374">
        <ele>321.4</ele>
        <time>2022-04-17T11:33:31Z</time>
      </trkpt>
      <trkpt lat="49.05758" lon="7.71374">
        <ele>321.4</ele>
        <time>2022-04-17T11:33:36Z</time>
      </trkpt>
      <trkpt lat="49.05758" lon="7.71374">
        <ele>321.4</ele>
        <time>2022-04-17T11:33:37Z</time>
      </trkpt>
      <trkpt lat="49.05759" lon="7.71374">
        <ele>321.4</ele>
        <time>2022-04-17T11:33:38Z</time>
      </trkpt>
      <trkpt lat="49.05759" lon="7.71374">
        <ele>321.4</ele>
        <time>2022-04-17T11:33:39Z</time>
      </trkpt>
      <trkpt lat="49.05759" lon="7.71373">
        <ele>321.4</ele>
        <time>2022-04-17T11:33:44Z</time>
      </trkpt>
      <trkpt lat="49.05759" lon="7.71373">
        <ele>321.4</ele>
        <time>2022-04-17T11:33:46Z</time>
      </trkpt>
      <trkpt lat="49.05759" lon="7.71373">
        <ele>321.4</ele>
        <time>2022-04-17T11:33:48Z</time>
      </trkpt>
      <trkpt lat="49.05759" lon="7.71373">
        <ele>321.4</ele>
        <time>2022-04-17T11:33:50Z</time>
      </trkpt>
      <trkpt lat="49.05759" lon="7.71373">
        <ele>321.4</ele>
        <time>2022-04-17T11:33:52Z</time>
      </trkpt>
      <trkpt lat="49.05759" lon="7.71373">
        <ele>321.4</ele>
        <time>2022-04-17T11:33:53Z</time>
      </trkpt>
      <trkpt lat="49.05759" lon="7.71373">
        <ele>321.4</ele>
        <time>2022-04-17T11:33:54Z</time>
      </trkpt>
      <trkpt lat="49.05759" lon="7.71373">
        <ele>321.4</ele>
        <time>2022-04-17T11:33:55Z</time>
      </trkpt>
      <trkpt lat="49.05758" lon="7.71373">
        <ele>321.5</ele>
        <time>2022-04-17T11:33:56Z</time>
      </trkpt>
      <trkpt lat="49.05759" lon="7.71372">
        <ele>321.5</ele>
        <time>2022-04-17T11:34:00Z</time>
      </trkpt>
      <trkpt lat="49.05759" lon="7.71371">
        <ele>321.5</ele>
        <time>2022-04-17T11:34:14Z</time>
      </trkpt>
      <trkpt lat="49.05761" lon="7.71369">
        <ele>321.6</ele>
        <time>2022-04-17T11:34:24Z</time>
      </trkpt>
      <trkpt lat="49.05761" lon="7.71369">
        <ele>321.7</ele>
        <time>2022-04-17T11:34:25Z</time>
      </trkpt>
      <trkpt lat="49.05761" lon="7.71369">
        <ele>321.7</ele>
        <time>2022-04-17T11:34:26Z</time>
      </trkpt>
      <trkpt lat="49.05761" lon="7.71369">
        <ele>321.7</ele>
        <time>2022-04-17T11:34:28Z</time>
      </trkpt>
      <trkpt lat="49.0576" lon="7.71355">
        <ele>322.6</ele>
        <time>2022-04-17T11:34:43Z</time>
      </trkpt>
      <trkpt lat="49.05753" lon="7.71364">
        <ele>322.1</ele>
        <time>2022-04-17T11:34:53Z</time>
      </trkpt>
      <trkpt lat="49.05772" lon="7.71366">
        <ele>320.9</ele>
        <time>2022-04-17T11:35:21Z</time>
      </trkpt>
      <trkpt lat="49.05763" lon="7.71365">
        <ele>320.3</ele>
        <time>2022-04-17T11:35:23Z</time>
      </trkpt>
      <trkpt lat="49.05758" lon="7.71373">
        <ele>319.9</ele>
        <time>2022-04-17T11:35:27Z</time>
      </trkpt>
      <trkpt lat="49.05757" lon="7.71373">
        <ele>319.8</ele>
        <time>2022-04-17T11:35:31Z</time>
      </trkpt>
      <trkpt lat="49.05757" lon="7.71373">
        <ele>319.8</ele>
        <time>2022-04-17T11:35:32Z</time>
      </trkpt>
      <trkpt lat="49.05757" lon="7.71374">
        <ele>319.8</ele>
        <time>2022-04-17T11:35:38Z</time>
      </trkpt>
      <trkpt lat="49.05753" lon="7.71388">
        <ele>319.1</ele>
        <time>2022-04-17T11:35:45Z</time>
      </trkpt>
      <trkpt lat="49.0575" lon="7.71392">
        <ele>318.8</ele>
        <time>2022-04-17T11:35:52Z</time>
      </trkpt>
      <trkpt lat="49.0575" lon="7.71392">
        <ele>318.7</ele>
        <time>2022-04-17T11:35:54Z</time>
      </trkpt>
      <trkpt lat="49.05753" lon="7.71405">
        <ele>318.1</ele>
        <time>2022-04-17T11:36:08Z</time>
      </trkpt>
      <trkpt lat="49.0576" lon="7.71414">
        <ele>317.4</ele>
        <time>2022-04-17T11:36:25Z</time>
      </trkpt>
      <trkpt lat="49.05767" lon="7.71424">
        <ele>317.4</ele>
        <time>2022-04-17T11:36:39Z</time>
      </trkpt>
      <trkpt lat="49.05766" lon="7.71421">
        <ele>317.4</ele>
        <time>2022-04-17T11:37:25Z</time>
      </trkpt>
      <trkpt lat="49.05766" lon="7.71422">
        <ele>317.4</ele>
        <time>2022-04-17T11:37:37Z</time>
      </trkpt>
      <trkpt lat="49.05767" lon="7.71422">
        <ele>317.4</ele>
        <time>2022-04-17T11:37:39Z</time>
      </trkpt>
      <trkpt lat="49.05767" lon="7.71422">
        <ele>317.4</ele>
        <time>2022-04-17T11:37:40Z</time>
      </trkpt>
      <trkpt lat="49.05768" lon="7.71422">
        <ele>317.4</ele>
        <time>2022-04-17T11:37:46Z</time>
      </trkpt>
      <trkpt lat="49.05768" lon="7.7142">
        <ele>317.4</ele>
        <time>2022-04-17T11:37:47Z</time>
      </trkpt>
      <trkpt lat="49.05768" lon="7.7142">
        <ele>317.4</ele>
        <time>2022-04-17T11:37:48Z</time>
      </trkpt>
      <trkpt lat="49.05768" lon="7.7142">
        <ele>317.4</ele>
        <time>2022-04-17T11:37:51Z</time>
      </trkpt>
      <trkpt lat="49.05765" lon="7.71418">
        <ele>317.4</ele>
        <time>2022-04-17T11:38:02Z</time>
      </trkpt>
      <trkpt lat="49.05765" lon="7.71418">
        <ele>317.4</ele>
        <time>2022-04-17T11:38:04Z</time>
      </trkpt>
      <trkpt lat="49.05765" lon="7.71418">
        <ele>317.4</ele>
        <time>2022-04-17T11:38:05Z</time>
      </trkpt>
      <trkpt lat="49.05765" lon="7.71419">
        <ele>317.4</ele>
        <time>2022-04-17T11:38:09Z</time>
      </trkpt>
      <trkpt lat="49.05764" lon="7.7142">
        <ele>317.4</ele>
        <time>2022-04-17T11:38:16Z</time>
      </trkpt>
      <trkpt lat="49.05764" lon="7.71419">
        <ele>317.4</ele>
        <time>2022-04-17T11:38:17Z</time>
      </trkpt>
      <trkpt lat="49.05764" lon="7.7142">
        <ele>317.4</ele>
        <time>2022-04-17T11:38:21Z</time>
      </trkpt>
      <trkpt lat="49.05764" lon="7.7142">
        <ele>317.4</ele>
        <time>2022-04-17T11:38:35Z</time>
      </trkpt>
      <trkpt lat="49.05764" lon="7.7142">
        <ele>317.4</ele>
        <time>2022-04-17T11:38:36Z</time>
      </trkpt>
      <trkpt lat="49.05765" lon="7.7142">
        <ele>317.4</ele>
        <time>2022-04-17T11:38:46Z</time>
      </trkpt>
      <trkpt lat="49.05765" lon="7.71421">
        <ele>317.4</ele>
        <time>2022-04-17T11:38:48Z</time>
      </trkpt>
      <trkpt lat="49.05765" lon="7.71421">
        <ele>317.4</ele>
        <time>2022-04-17T11:38:50Z</time>
      </trkpt>
      <trkpt lat="49.05767" lon="7.71423">
        <ele>317.4</ele>
        <time>2022-04-17T11:38:56Z</time>
      </trkpt>
      <trkpt lat="49.05767" lon="7.71424">
        <ele>317.4</ele>
        <time>2022-04-17T11:38:57Z</time>
      </trkpt>
      <trkpt lat="49.05767" lon="7.71423">
        <ele>317.4</ele>
        <time>2022-04-17T11:39:01Z</time>
      </trkpt>
      <trkpt lat="49.05767" lon="7.71423">
        <ele>317.4</ele>
        <time>2022-04-17T11:39:04Z</time>
      </trkpt>
      <trkpt lat="49.05767" lon="7.71423">
        <ele>317.4</ele>
        <time>2022-04-17T11:39:05Z</time>
      </trkpt>
      <trkpt lat="49.05767" lon="7.71422">
        <ele>317.4</ele>
        <time>2022-04-17T11:39:17Z</time>
      </trkpt>
      <trkpt lat="49.05765" lon="7.71418">
        <ele>317.4</ele>
        <time>2022-04-17T11:39:24Z</time>
      </trkpt>
      <trkpt lat="49.05765" lon="7.71418">
        <ele>317.4</ele>
        <time>2022-04-17T11:39:28Z</time>
      </trkpt>
      <trkpt lat="49.05766" lon="7.71417">
        <ele>317.4</ele>
        <time>2022-04-17T11:39:31Z</time>
      </trkpt>
      <trkpt lat="49.05766" lon="7.71417">
        <ele>317.4</ele>
        <time>2022-04-17T11:39:32Z</time>
      </trkpt>
      <trkpt lat="49.05766" lon="7.71416">
        <ele>317.4</ele>
        <time>2022-04-17T11:39:35Z</time>
      </trkpt>
      <trkpt lat="49.05766" lon="7.71416">
        <ele>317.4</ele>
        <time>2022-04-17T11:39:42Z</time>
      </trkpt>
      <trkpt lat="49.05766" lon="7.71416">
        <ele>317.4</ele>
        <time>2022-04-17T11:39:49Z</time>
      </trkpt>
      <trkpt lat="49.05766" lon="7.71416">
        <ele>317.4</ele>
        <time>2022-04-17T11:39:54Z</time>
      </trkpt>
      <trkpt lat="49.05766" lon="7.71416">
        <ele>317.4</ele>
        <time>2022-04-17T11:39:55Z</time>
      </trkpt>
      <trkpt lat="49.05766" lon="7.71417">
        <ele>317.4</ele>
        <time>2022-04-17T11:40:03Z</time>
      </trkpt>
      <trkpt lat="49.05766" lon="7.71417">
        <ele>317.4</ele>
        <time>2022-04-17T11:40:07Z</time>
      </trkpt>
      <trkpt lat="49.05765" lon="7.71416">
        <ele>317.4</ele>
        <time>2022-04-17T11:40:08Z</time>
      </trkpt>
      <trkpt lat="49.05765" lon="7.71416">
        <ele>317.4</ele>
        <time>2022-04-17T11:40:12Z</time>
      </trkpt>
      <trkpt lat="49.05764" lon="7.71416">
        <ele>317.4</ele>
        <time>2022-04-17T11:40:13Z</time>
      </trkpt>
      <trkpt lat="49.05766" lon="7.71417">
        <ele>317.4</ele>
        <time>2022-04-17T11:40:35Z</time>
      </trkpt>
      <trkpt lat="49.05765" lon="7.71416">
        <ele>317.4</ele>
        <time>2022-04-17T11:40:36Z</time>
      </trkpt>
      <trkpt lat="49.05765" lon="7.71416">
        <ele>317.4</ele>
        <time>2022-04-17T11:40:40Z</time>
      </trkpt>
      <trkpt lat="49.05765" lon="7.71416">
        <ele>317.4</ele>
        <time>2022-04-17T11:40:41Z</time>
      </trkpt>
      <trkpt lat="49.05766" lon="7.71416">
        <ele>317.4</ele>
        <time>2022-04-17T11:40:43Z</time>
      </trkpt>
      <trkpt lat="49.05766" lon="7.71417">
        <ele>317.4</ele>
        <time>2022-04-17T11:40:44Z</time>
      </trkpt>
      <trkpt lat="49.0577" lon="7.71416">
        <ele>317.4</ele>
        <time>2022-04-17T11:41:03Z</time>
      </trkpt>
      <trkpt lat="49.05771" lon="7.71416">
        <ele>317.4</ele>
        <time>2022-04-17T11:41:04Z</time>
      </trkpt>
      <trkpt lat="49.0577" lon="7.71413">
        <ele>317.4</ele>
        <time>2022-04-17T11:41:19Z</time>
      </trkpt>
      <trkpt lat="49.05771" lon="7.71413">
        <ele>317.4</ele>
        <time>2022-04-17T11:41:20Z</time>
      </trkpt>
      <trkpt lat="49.0577" lon="7.71413">
        <ele>317.4</ele>
        <time>2022-04-17T11:41:23Z</time>
      </trkpt>
      <trkpt lat="49.0577" lon="7.71413">
        <ele>317.4</ele>
        <time>2022-04-17T11:41:24Z</time>
      </trkpt>
      <trkpt lat="49.05772" lon="7.71412">
        <ele>317.4</ele>
        <time>2022-04-17T11:41:38Z</time>
      </trkpt>
      <trkpt lat="49.05773" lon="7.71412">
        <ele>317.4</ele>
        <time>2022-04-17T11:41:40Z</time>
      </trkpt>
      <trkpt lat="49.0577" lon="7.71415">
        <ele>317.4</ele>
        <time>2022-04-17T11:42:05Z</time>
      </trkpt>
      <trkpt lat="49.0577" lon="7.71415">
        <ele>317.4</ele>
        <time>2022-04-17T11:42:06Z</time>
      </trkpt>
      <trkpt lat="49.05762" lon="7.71406">
        <ele>317.4</ele>
        <time>2022-04-17T11:42:22Z</time>
      </trkpt>
      <trkpt lat="49.05755" lon="7.71397">
        <ele>317.4</ele>
        <time>2022-04-17T11:42:28Z</time>
      </trkpt>
      <trkpt lat="49.0575" lon="7.71384">
        <ele>317.4</ele>
        <time>2022-04-17T11:42:35Z</time>
      </trkpt>
      <trkpt lat="49.05751" lon="7.7137">
        <ele>319.7</ele>
        <time>2022-04-17T11:42:42Z</time>
      </trkpt>
      <trkpt lat="49.05748" lon="7.71355">
        <ele>323.2</ele>
        <time>2022-04-17T11:42:50Z</time>
      </trkpt>
      <trkpt lat="49.05745" lon="7.71341">
        <ele>326.1</ele>
        <time>2022-04-17T11:42:57Z</time>
      </trkpt>
      <trkpt lat="49.05755" lon="7.71336">
        <ele>328.7</ele>
        <time>2022-04-17T11:43:05Z</time>
      </trkpt>
      <trkpt lat="49.0576" lon="7.7133">
        <ele>332.8</ele>
        <time>2022-04-17T11:43:23Z</time>
      </trkpt>
      <trkpt lat="49.0576" lon="7.71331">
        <ele>332.9</ele>
        <time>2022-04-17T11:43:27Z</time>
      </trkpt>
      <trkpt lat="49.0576" lon="7.71328">
        <ele>334</ele>
        <time>2022-04-17T11:43:39Z</time>
      </trkpt>
      <trkpt lat="49.05761" lon="7.71327">
        <ele>334.5</ele>
        <time>2022-04-17T11:43:40Z</time>
      </trkpt>
      <trkpt lat="49.05751" lon="7.71326">
        <ele>335.4</ele>
        <time>2022-04-17T11:44:11Z</time>
      </trkpt>
      <trkpt lat="49.05742" lon="7.71325">
        <ele>330.1</ele>
        <time>2022-04-17T11:44:19Z</time>
      </trkpt>
      <trkpt lat="49.0574" lon="7.71311">
        <ele>329.6</ele>
        <time>2022-04-17T11:44:40Z</time>
      </trkpt>
      <trkpt lat="49.05736" lon="7.71298">
        <ele>329.2</ele>
        <time>2022-04-17T11:44:52Z</time>
      </trkpt>
      <trkpt lat="49.0573" lon="7.71287">
        <ele>328.9</ele>
        <time>2022-04-17T11:44:58Z</time>
      </trkpt>
      <trkpt lat="49.05726" lon="7.71274">
        <ele>328.7</ele>
        <time>2022-04-17T11:45:04Z</time>
      </trkpt>
      <trkpt lat="49.05723" lon="7.71261">
        <ele>328.5</ele>
        <time>2022-04-17T11:45:09Z</time>
      </trkpt>
      <trkpt lat="49.05719" lon="7.71248">
        <ele>328.4</ele>
        <time>2022-04-17T11:45:17Z</time>
      </trkpt>
      <trkpt lat="49.05712" lon="7.7124">
        <ele>328.3</ele>
        <time>2022-04-17T11:45:25Z</time>
      </trkpt>
      <trkpt lat="49.05706" lon="7.71229">
        <ele>328.2</ele>
        <time>2022-04-17T11:45:34Z</time>
      </trkpt>
      <trkpt lat="49.05698" lon="7.71221">
        <ele>328.1</ele>
        <time>2022-04-17T11:45:45Z</time>
      </trkpt>
      <trkpt lat="49.05695" lon="7.71206">
        <ele>328</ele>
        <time>2022-04-17T11:45:51Z</time>
      </trkpt>
      <trkpt lat="49.05689" lon="7.71194">
        <ele>327.9</ele>
        <time>2022-04-17T11:46:01Z</time>
      </trkpt>
      <trkpt lat="49.05683" lon="7.7118">
        <ele>327.9</ele>
        <time>2022-04-17T11:46:10Z</time>
      </trkpt>
      <trkpt lat="49.05676" lon="7.7117">
        <ele>327.8</ele>
        <time>2022-04-17T11:46:15Z</time>
      </trkpt>
      <trkpt lat="49.05668" lon="7.71159">
        <ele>327.8</ele>
        <time>2022-04-17T11:46:20Z</time>
      </trkpt>
      <trkpt lat="49.05661" lon="7.71148">
        <ele>327.9</ele>
        <time>2022-04-17T11:46:27Z</time>
      </trkpt>
      <trkpt lat="49.05654" lon="7.71137">
        <ele>328</ele>
        <time>2022-04-17T11:46:34Z</time>
      </trkpt>
      <trkpt lat="49.05646" lon="7.71128">
        <ele>328</ele>
        <time>2022-04-17T11:46:39Z</time>
      </trkpt>
      <trkpt lat="49.05637" lon="7.71119">
        <ele>327.9</ele>
        <time>2022-04-17T11:46:47Z</time>
      </trkpt>
      <trkpt lat="49.05631" lon="7.71109">
        <ele>327.9</ele>
        <time>2022-04-17T11:46:52Z</time>
      </trkpt>
      <trkpt lat="49.05623" lon="7.71101">
        <ele>327.9</ele>
        <time>2022-04-17T11:47:00Z</time>
      </trkpt>
      <trkpt lat="49.05616" lon="7.71093">
        <ele>327.8</ele>
        <time>2022-04-17T11:47:07Z</time>
      </trkpt>
      <trkpt lat="49.05608" lon="7.71085">
        <ele>327.8</ele>
        <time>2022-04-17T11:47:14Z</time>
      </trkpt>
      <trkpt lat="49.05598" lon="7.71081">
        <ele>327.8</ele>
        <time>2022-04-17T11:47:20Z</time>
      </trkpt>
      <trkpt lat="49.05588" lon="7.71081">
        <ele>327.7</ele>
        <time>2022-04-17T11:47:24Z</time>
      </trkpt>
      <trkpt lat="49.05579" lon="7.71076">
        <ele>327.7</ele>
        <time>2022-04-17T11:47:30Z</time>
      </trkpt>
      <trkpt lat="49.05571" lon="7.71069">
        <ele>327.7</ele>
        <time>2022-04-17T11:47:36Z</time>
      </trkpt>
      <trkpt lat="49.05562" lon="7.71065">
        <ele>327.7</ele>
        <time>2022-04-17T11:47:44Z</time>
      </trkpt>
      <trkpt lat="49.05553" lon="7.71058">
        <ele>327.7</ele>
        <time>2022-04-17T11:47:51Z</time>
      </trkpt>
      <trkpt lat="49.05544" lon="7.71052">
        <ele>327.7</ele>
        <time>2022-04-17T11:47:58Z</time>
      </trkpt>
      <trkpt lat="49.05535" lon="7.71054">
        <ele>327.7</ele>
        <time>2022-04-17T11:48:10Z</time>
      </trkpt>
      <trkpt lat="49.05526" lon="7.71063">
        <ele>327.7</ele>
        <time>2022-04-17T11:48:18Z</time>
      </trkpt>
      <trkpt lat="49.05519" lon="7.71071">
        <ele>327.7</ele>
        <time>2022-04-17T11:48:23Z</time>
      </trkpt>
      <trkpt lat="49.0551" lon="7.71081">
        <ele>327.7</ele>
        <time>2022-04-17T11:48:29Z</time>
      </trkpt>
      <trkpt lat="49.05505" lon="7.71094">
        <ele>327.6</ele>
        <time>2022-04-17T11:48:38Z</time>
      </trkpt>
      <trkpt lat="49.05502" lon="7.71107">
        <ele>327.5</ele>
        <time>2022-04-17T11:48:44Z</time>
      </trkpt>
      <trkpt lat="49.05499" lon="7.71121">
        <ele>327.4</ele>
        <time>2022-04-17T11:48:50Z</time>
      </trkpt>
      <trkpt lat="49.05495" lon="7.71136">
        <ele>327.4</ele>
        <time>2022-04-17T11:48:57Z</time>
      </trkpt>
      <trkpt lat="49.05494" lon="7.7115">
        <ele>327.3</ele>
        <time>2022-04-17T11:49:04Z</time>
      </trkpt>
      <trkpt lat="49.0549" lon="7.71162">
        <ele>327.3</ele>
        <time>2022-04-17T11:49:12Z</time>
      </trkpt>
      <trkpt lat="49.05488" lon="7.71177">
        <ele>327.3</ele>
        <time>2022-04-17T11:49:19Z</time>
      </trkpt>
      <trkpt lat="49.0549" lon="7.71192">
        <ele>327.3</ele>
        <time>2022-04-17T11:49:26Z</time>
      </trkpt>
      <trkpt lat="49.05488" lon="7.71207">
        <ele>327.2</ele>
        <time>2022-04-17T11:49:32Z</time>
      </trkpt>
      <trkpt lat="49.05487" lon="7.71222">
        <ele>327.2</ele>
        <time>2022-04-17T11:49:40Z</time>
      </trkpt>
      <trkpt lat="49.05488" lon="7.71238">
        <ele>327.2</ele>
        <time>2022-04-17T11:49:48Z</time>
      </trkpt>
      <trkpt lat="49.05487" lon="7.71253">
        <ele>327.2</ele>
        <time>2022-04-17T11:49:55Z</time>
      </trkpt>
      <trkpt lat="49.05483" lon="7.71266">
        <ele>327.1</ele>
        <time>2022-04-17T11:50:03Z</time>
      </trkpt>
      <trkpt lat="49.05482" lon="7.7128">
        <ele>327</ele>
        <time>2022-04-17T11:50:09Z</time>
      </trkpt>
      <trkpt lat="49.05484" lon="7.71294">
        <ele>326.9</ele>
        <time>2022-04-17T11:50:17Z</time>
      </trkpt>
      <trkpt lat="49.0548" lon="7.71308">
        <ele>326.9</ele>
        <time>2022-04-17T11:50:25Z</time>
      </trkpt>
      <trkpt lat="49.05478" lon="7.71322">
        <ele>326.9</ele>
        <time>2022-04-17T11:50:34Z</time>
      </trkpt>
      <trkpt lat="49.05476" lon="7.71336">
        <ele>326.8</ele>
        <time>2022-04-17T11:50:41Z</time>
      </trkpt>
      <trkpt lat="49.05477" lon="7.71352">
        <ele>326.8</ele>
        <time>2022-04-17T11:50:49Z</time>
      </trkpt>
      <trkpt lat="49.05477" lon="7.71367">
        <ele>326.8</ele>
        <time>2022-04-17T11:50:56Z</time>
      </trkpt>
      <trkpt lat="49.05478" lon="7.71381">
        <ele>326.8</ele>
        <time>2022-04-17T11:51:03Z</time>
      </trkpt>
      <trkpt lat="49.05473" lon="7.71393">
        <ele>326.7</ele>
        <time>2022-04-17T11:51:08Z</time>
      </trkpt>
      <trkpt lat="49.05474" lon="7.71408">
        <ele>326.7</ele>
        <time>2022-04-17T11:51:15Z</time>
      </trkpt>
      <trkpt lat="49.05473" lon="7.71422">
        <ele>326.7</ele>
        <time>2022-04-17T11:51:21Z</time>
      </trkpt>
      <trkpt lat="49.05476" lon="7.71436">
        <ele>326.6</ele>
        <time>2022-04-17T11:51:27Z</time>
      </trkpt>
      <trkpt lat="49.05483" lon="7.71448">
        <ele>326.5</ele>
        <time>2022-04-17T11:51:33Z</time>
      </trkpt>
      <trkpt lat="49.0549" lon="7.71461">
        <ele>326.4</ele>
        <time>2022-04-17T11:51:46Z</time>
      </trkpt>
      <trkpt lat="49.05494" lon="7.71474">
        <ele>326.5</ele>
        <time>2022-04-17T11:51:55Z</time>
      </trkpt>
      <trkpt lat="49.05498" lon="7.71488">
        <ele>326.5</ele>
        <time>2022-04-17T11:52:02Z</time>
      </trkpt>
      <trkpt lat="49.05501" lon="7.71503">
        <ele>326.5</ele>
        <time>2022-04-17T11:52:10Z</time>
      </trkpt>
      <trkpt lat="49.05503" lon="7.71516">
        <ele>326.5</ele>
        <time>2022-04-17T11:52:17Z</time>
      </trkpt>
      <trkpt lat="49.05506" lon="7.7153">
        <ele>326.5</ele>
        <time>2022-04-17T11:52:24Z</time>
      </trkpt>
      <trkpt lat="49.05504" lon="7.71545">
        <ele>326.6</ele>
        <time>2022-04-17T11:52:31Z</time>
      </trkpt>
      <trkpt lat="49.05503" lon="7.71559">
        <ele>326.8</ele>
        <time>2022-04-17T11:52:38Z</time>
      </trkpt>
      <trkpt lat="49.05503" lon="7.71574">
        <ele>327</ele>
        <time>2022-04-17T11:52:47Z</time>
      </trkpt>
      <trkpt lat="49.05504" lon="7.71589">
        <ele>327.3</ele>
        <time>2022-04-17T11:52:55Z</time>
      </trkpt>
      <trkpt lat="49.05505" lon="7.71604">
        <ele>327.6</ele>
        <time>2022-04-17T11:53:02Z</time>
      </trkpt>
      <trkpt lat="49.05501" lon="7.71617">
        <ele>328</ele>
        <time>2022-04-17T11:53:09Z</time>
      </trkpt>
      <trkpt lat="49.05501" lon="7.71632">
        <ele>328.4</ele>
        <time>2022-04-17T11:53:16Z</time>
      </trkpt>
      <trkpt lat="49.055" lon="7.71648">
        <ele>328.8</ele>
        <time>2022-04-17T11:53:23Z</time>
      </trkpt>
      <trkpt lat="49.05499" lon="7.71661">
        <ele>329.2</ele>
        <time>2022-04-17T11:53:29Z</time>
      </trkpt>
      <trkpt lat="49.05495" lon="7.71676">
        <ele>329.7</ele>
        <time>2022-04-17T11:53:37Z</time>
      </trkpt>
      <trkpt lat="49.05488" lon="7.71686">
        <ele>330.1</ele>
        <time>2022-04-17T11:53:45Z</time>
      </trkpt>
      <trkpt lat="49.0548" lon="7.71693">
        <ele>330.5</ele>
        <time>2022-04-17T11:53:52Z</time>
      </trkpt>
      <trkpt lat="49.05473" lon="7.71704">
        <ele>330.9</ele>
        <time>2022-04-17T11:54:00Z</time>
      </trkpt>
      <trkpt lat="49.05466" lon="7.71713">
        <ele>331.4</ele>
        <time>2022-04-17T11:54:06Z</time>
      </trkpt>
      <trkpt lat="49.0546" lon="7.71725">
        <ele>331.9</ele>
        <time>2022-04-17T11:54:13Z</time>
      </trkpt>
      <trkpt lat="49.05452" lon="7.71734">
        <ele>332.3</ele>
        <time>2022-04-17T11:54:23Z</time>
      </trkpt>
      <trkpt lat="49.05445" lon="7.71746">
        <ele>332.8</ele>
        <time>2022-04-17T11:54:30Z</time>
      </trkpt>
      <trkpt lat="49.05436" lon="7.71753">
        <ele>333.3</ele>
        <time>2022-04-17T11:54:38Z</time>
      </trkpt>
      <trkpt lat="49.05427" lon="7.71757">
        <ele>333.5</ele>
        <time>2022-04-17T11:54:44Z</time>
      </trkpt>
      <trkpt lat="49.0542" lon="7.71769">
        <ele>332.5</ele>
        <time>2022-04-17T11:54:52Z</time>
      </trkpt>
      <trkpt lat="49.05413" lon="7.71779">
        <ele>331.5</ele>
        <time>2022-04-17T11:54:58Z</time>
      </trkpt>
      <trkpt lat="49.05405" lon="7.71788">
        <ele>330.6</ele>
        <time>2022-04-17T11:55:05Z</time>
      </trkpt>
      <trkpt lat="49.054" lon="7.718">
        <ele>330.3</ele>
        <time>2022-04-17T11:55:14Z</time>
      </trkpt>
      <trkpt lat="49.05392" lon="7.71809">
        <ele>330.1</ele>
        <time>2022-04-17T11:55:22Z</time>
      </trkpt>
      <trkpt lat="49.05387" lon="7.71821">
        <ele>329.7</ele>
        <time>2022-04-17T11:55:32Z</time>
      </trkpt>
      <trkpt lat="49.05384" lon="7.71835">
        <ele>329.1</ele>
        <time>2022-04-17T11:55:38Z</time>
      </trkpt>
      <trkpt lat="49.05378" lon="7.71846">
        <ele>328.4</ele>
        <time>2022-04-17T11:55:45Z</time>
      </trkpt>
      <trkpt lat="49.05371" lon="7.71856">
        <ele>327.7</ele>
        <time>2022-04-17T11:55:51Z</time>
      </trkpt>
      <trkpt lat="49.05367" lon="7.71866">
        <ele>327.2</ele>
        <time>2022-04-17T11:55:59Z</time>
      </trkpt>
      <trkpt lat="49.05367" lon="7.71866">
        <ele>327.2</ele>
        <time>2022-04-17T11:56:01Z</time>
      </trkpt>
      <trkpt lat="49.05358" lon="7.71874">
        <ele>326.6</ele>
        <time>2022-04-17T11:56:17Z</time>
      </trkpt>
      <trkpt lat="49.0535" lon="7.7188">
        <ele>326</ele>
        <time>2022-04-17T11:56:25Z</time>
      </trkpt>
      <trkpt lat="49.05346" lon="7.71893">
        <ele>325.3</ele>
        <time>2022-04-17T11:56:33Z</time>
      </trkpt>
      <trkpt lat="49.05347" lon="7.71879">
        <ele>324.5</ele>
        <time>2022-04-17T11:56:52Z</time>
      </trkpt>
      <trkpt lat="49.0535" lon="7.71865">
        <ele>323.4</ele>
        <time>2022-04-17T11:56:58Z</time>
      </trkpt>
      <trkpt lat="49.05352" lon="7.71851">
        <ele>322.2</ele>
        <time>2022-04-17T11:57:05Z</time>
      </trkpt>
      <trkpt lat="49.05348" lon="7.71837">
        <ele>320.9</ele>
        <time>2022-04-17T11:57:16Z</time>
      </trkpt>
      <trkpt lat="49.0534" lon="7.7183">
        <ele>319.7</ele>
        <time>2022-04-17T11:57:26Z</time>
      </trkpt>
      <trkpt lat="49.05332" lon="7.71841">
        <ele>318.1</ele>
        <time>2022-04-17T11:57:32Z</time>
      </trkpt>
      <trkpt lat="49.05324" lon="7.71849">
        <ele>316.5</ele>
        <time>2022-04-17T11:57:40Z</time>
      </trkpt>
      <trkpt lat="49.05317" lon="7.71858">
        <ele>315</ele>
        <time>2022-04-17T11:57:50Z</time>
      </trkpt>
      <trkpt lat="49.05309" lon="7.71867">
        <ele>313.9</ele>
        <time>2022-04-17T11:57:57Z</time>
      </trkpt>
      <trkpt lat="49.05304" lon="7.7188">
        <ele>312.9</ele>
        <time>2022-04-17T11:58:05Z</time>
      </trkpt>
      <trkpt lat="49.05296" lon="7.71887">
        <ele>312</ele>
        <time>2022-04-17T11:58:14Z</time>
      </trkpt>
      <trkpt lat="49.05291" lon="7.71899">
        <ele>311.1</ele>
        <time>2022-04-17T11:58:22Z</time>
      </trkpt>
      <trkpt lat="49.05286" lon="7.71911">
        <ele>310.2</ele>
        <time>2022-04-17T11:58:30Z</time>
      </trkpt>
      <trkpt lat="49.05284" lon="7.71925">
        <ele>309</ele>
        <time>2022-04-17T11:58:39Z</time>
      </trkpt>
      <trkpt lat="49.05281" lon="7.7194">
        <ele>307.8</ele>
        <time>2022-04-17T11:58:47Z</time>
      </trkpt>
      <trkpt lat="49.05278" lon="7.71953">
        <ele>306.7</ele>
        <time>2022-04-17T11:58:54Z</time>
      </trkpt>
      <trkpt lat="49.0527" lon="7.71962">
        <ele>305.4</ele>
        <time>2022-04-17T11:59:12Z</time>
      </trkpt>
      <trkpt lat="49.05267" lon="7.71976">
        <ele>304.1</ele>
        <time>2022-04-17T11:59:20Z</time>
      </trkpt>
      <trkpt lat="49.05264" lon="7.7199">
        <ele>302.8</ele>
        <time>2022-04-17T11:59:28Z</time>
      </trkpt>
      <trkpt lat="49.05259" lon="7.72002">
        <ele>301.5</ele>
        <time>2022-04-17T11:59:37Z</time>
      </trkpt>
      <trkpt lat="49.05251" lon="7.7201">
        <ele>300.3</ele>
        <time>2022-04-17T11:59:49Z</time>
      </trkpt>
      <trkpt lat="49.05242" lon="7.72013">
        <ele>299.3</ele>
        <time>2022-04-17T11:59:54Z</time>
      </trkpt>
      <trkpt lat="49.05232" lon="7.72016">
        <ele>298.5</ele>
        <time>2022-04-17T12:00:02Z</time>
      </trkpt>
      <trkpt lat="49.05224" lon="7.72024">
        <ele>297.9</ele>
        <time>2022-04-17T12:00:10Z</time>
      </trkpt>
      <trkpt lat="49.05217" lon="7.72034">
        <ele>297.6</ele>
        <time>2022-04-17T12:00:17Z</time>
      </trkpt>
      <trkpt lat="49.05208" lon="7.72042">
        <ele>297.4</ele>
        <time>2022-04-17T12:00:24Z</time>
      </trkpt>
      <trkpt lat="49.05205" lon="7.72056">
        <ele>297.3</ele>
        <time>2022-04-17T12:00:31Z</time>
      </trkpt>
      <trkpt lat="49.05199" lon="7.72068">
        <ele>297.2</ele>
        <time>2022-04-17T12:00:38Z</time>
      </trkpt>
      <trkpt lat="49.05192" lon="7.72078">
        <ele>297.2</ele>
        <time>2022-04-17T12:00:47Z</time>
      </trkpt>
      <trkpt lat="49.05185" lon="7.72087">
        <ele>297.2</ele>
        <time>2022-04-17T12:00:55Z</time>
      </trkpt>
      <trkpt lat="49.05176" lon="7.72085">
        <ele>297.2</ele>
        <time>2022-04-17T12:01:07Z</time>
      </trkpt>
      <trkpt lat="49.05175" lon="7.72071">
        <ele>297.1</ele>
        <time>2022-04-17T12:01:25Z</time>
      </trkpt>
      <trkpt lat="49.05175" lon="7.72071">
        <ele>297.1</ele>
        <time>2022-04-17T12:01:26Z</time>
      </trkpt>
      <trkpt lat="49.05175" lon="7.72071">
        <ele>297.1</ele>
        <time>2022-04-17T12:01:30Z</time>
      </trkpt>
      <trkpt lat="49.05175" lon="7.72071">
        <ele>297.1</ele>
        <time>2022-04-17T12:01:31Z</time>
      </trkpt>
      <trkpt lat="49.05175" lon="7.72072">
        <ele>297.1</ele>
        <time>2022-04-17T12:01:32Z</time>
      </trkpt>
      <trkpt lat="49.05174" lon="7.7207">
        <ele>297.1</ele>
        <time>2022-04-17T12:01:42Z</time>
      </trkpt>
      <trkpt lat="49.05174" lon="7.7207">
        <ele>297.1</ele>
        <time>2022-04-17T12:01:43Z</time>
      </trkpt>
      <trkpt lat="49.05174" lon="7.72071">
        <ele>297.1</ele>
        <time>2022-04-17T12:01:45Z</time>
      </trkpt>
      <trkpt lat="49.05174" lon="7.7207">
        <ele>297.1</ele>
        <time>2022-04-17T12:01:46Z</time>
      </trkpt>
      <trkpt lat="49.05174" lon="7.7207">
        <ele>297.1</ele>
        <time>2022-04-17T12:01:48Z</time>
      </trkpt>
      <trkpt lat="49.05174" lon="7.7207">
        <ele>297.1</ele>
        <time>2022-04-17T12:01:51Z</time>
      </trkpt>
      <trkpt lat="49.05174" lon="7.7207">
        <ele>297.1</ele>
        <time>2022-04-17T12:01:52Z</time>
      </trkpt>
      <trkpt lat="49.05174" lon="7.7207">
        <ele>297.1</ele>
        <time>2022-04-17T12:01:55Z</time>
      </trkpt>
      <trkpt lat="49.05174" lon="7.7207">
        <ele>297.1</ele>
        <time>2022-04-17T12:01:59Z</time>
      </trkpt>
      <trkpt lat="49.05174" lon="7.7207">
        <ele>297.1</ele>
        <time>2022-04-17T12:02:10Z</time>
      </trkpt>
      <trkpt lat="49.05174" lon="7.7207">
        <ele>297.1</ele>
        <time>2022-04-17T12:02:11Z</time>
      </trkpt>
      <trkpt lat="49.05174" lon="7.7207">
        <ele>297.1</ele>
        <time>2022-04-17T12:02:14Z</time>
      </trkpt>
      <trkpt lat="49.05174" lon="7.7207">
        <ele>297.1</ele>
        <time>2022-04-17T12:02:16Z</time>
      </trkpt>
      <trkpt lat="49.05173" lon="7.7207">
        <ele>297.1</ele>
        <time>2022-04-17T12:02:30Z</time>
      </trkpt>
      <trkpt lat="49.05172" lon="7.72072">
        <ele>297</ele>
        <time>2022-04-17T12:02:35Z</time>
      </trkpt>
      <trkpt lat="49.05171" lon="7.72072">
        <ele>297</ele>
        <time>2022-04-17T12:02:36Z</time>
      </trkpt>
      <trkpt lat="49.0517" lon="7.72073">
        <ele>297</ele>
        <time>2022-04-17T12:02:53Z</time>
      </trkpt>
      <trkpt lat="49.05171" lon="7.72073">
        <ele>297</ele>
        <time>2022-04-17T12:02:54Z</time>
      </trkpt>
      <trkpt lat="49.05171" lon="7.72075">
        <ele>297</ele>
        <time>2022-04-17T12:02:59Z</time>
      </trkpt>
      <trkpt lat="49.05171" lon="7.72076">
        <ele>296.9</ele>
        <time>2022-04-17T12:03:38Z</time>
      </trkpt>
      <trkpt lat="49.05171" lon="7.72078">
        <ele>296.9</ele>
        <time>2022-04-17T12:03:45Z</time>
      </trkpt>
      <trkpt lat="49.05171" lon="7.72078">
        <ele>296.9</ele>
        <time>2022-04-17T12:03:49Z</time>
      </trkpt>
      <trkpt lat="49.05171" lon="7.72078">
        <ele>296.9</ele>
        <time>2022-04-17T12:03:50Z</time>
      </trkpt>
      <trkpt lat="49.05171" lon="7.72078">
        <ele>296.9</ele>
        <time>2022-04-17T12:04:09Z</time>
      </trkpt>
      <trkpt lat="49.05172" lon="7.72079">
        <ele>296.8</ele>
        <time>2022-04-17T12:04:20Z</time>
      </trkpt>
      <trkpt lat="49.05173" lon="7.72079">
        <ele>296.8</ele>
        <time>2022-04-17T12:04:22Z</time>
      </trkpt>
      <trkpt lat="49.05173" lon="7.72079">
        <ele>296.8</ele>
        <time>2022-04-17T12:04:23Z</time>
      </trkpt>
      <trkpt lat="49.05172" lon="7.72079">
        <ele>296.8</ele>
        <time>2022-04-17T12:04:26Z</time>
      </trkpt>
      <trkpt lat="49.05172" lon="7.72079">
        <ele>296.8</ele>
        <time>2022-04-17T12:04:28Z</time>
      </trkpt>
      <trkpt lat="49.05172" lon="7.72078">
        <ele>296.8</ele>
        <time>2022-04-17T12:04:40Z</time>
      </trkpt>
      <trkpt lat="49.05172" lon="7.72078">
        <ele>296.8</ele>
        <time>2022-04-17T12:04:41Z</time>
      </trkpt>
      <trkpt lat="49.05172" lon="7.72078">
        <ele>296.8</ele>
        <time>2022-04-17T12:04:42Z</time>
      </trkpt>
      <trkpt lat="49.05171" lon="7.72079">
        <ele>296.7</ele>
        <time>2022-04-17T12:04:47Z</time>
      </trkpt>
      <trkpt lat="49.05171" lon="7.72078">
        <ele>296.7</ele>
        <time>2022-04-17T12:04:48Z</time>
      </trkpt>
      <trkpt lat="49.05171" lon="7.72077">
        <ele>296.7</ele>
        <time>2022-04-17T12:04:51Z</time>
      </trkpt>
      <trkpt lat="49.0517" lon="7.72077">
        <ele>296.6</ele>
        <time>2022-04-17T12:04:52Z</time>
      </trkpt>
      <trkpt lat="49.05169" lon="7.72076">
        <ele>296.5</ele>
        <time>2022-04-17T12:04:59Z</time>
      </trkpt>
      <trkpt lat="49.05169" lon="7.72077">
        <ele>296.5</ele>
        <time>2022-04-17T12:05:00Z</time>
      </trkpt>
      <trkpt lat="49.05174" lon="7.72089">
        <ele>295.7</ele>
        <time>2022-04-17T12:05:10Z</time>
      </trkpt>
      <trkpt lat="49.05183" lon="7.72092">
        <ele>294.7</ele>
        <time>2022-04-17T12:05:18Z</time>
      </trkpt>
      <trkpt lat="49.05177" lon="7.72103">
        <ele>293.6</ele>
        <time>2022-04-17T12:05:47Z</time>
      </trkpt>
      <trkpt lat="49.05185" lon="7.72111">
        <ele>292.4</ele>
        <time>2022-04-17T12:05:55Z</time>
      </trkpt>
      <trkpt lat="49.05192" lon="7.72122">
        <ele>291.2</ele>
        <time>2022-04-17T12:06:04Z</time>
      </trkpt>
      <trkpt lat="49.05198" lon="7.72131">
        <ele>290.2</ele>
        <time>2022-04-17T12:06:12Z</time>
      </trkpt>
      <trkpt lat="49.05203" lon="7.72144">
        <ele>289.3</ele>
        <time>2022-04-17T12:06:20Z</time>
      </trkpt>
      <trkpt lat="49.05209" lon="7.72155">
        <ele>288.4</ele>
        <time>2022-04-17T12:06:27Z</time>
      </trkpt>
      <trkpt lat="49.05212" lon="7.7217">
        <ele>287.5</ele>
        <time>2022-04-17T12:06:35Z</time>
      </trkpt>
      <trkpt lat="49.05217" lon="7.72185">
        <ele>286.5</ele>
        <time>2022-04-17T12:06:42Z</time>
      </trkpt>
      <trkpt lat="49.05222" lon="7.72196">
        <ele>285.6</ele>
        <time>2022-04-17T12:06:49Z</time>
      </trkpt>
      <trkpt lat="49.05226" lon="7.7221">
        <ele>284.6</ele>
        <time>2022-04-17T12:06:57Z</time>
      </trkpt>
      <trkpt lat="49.0523" lon="7.72224">
        <ele>283.6</ele>
        <time>2022-04-17T12:07:04Z</time>
      </trkpt>
      <trkpt lat="49.05236" lon="7.72237">
        <ele>282.5</ele>
        <time>2022-04-17T12:07:11Z</time>
      </trkpt>
      <trkpt lat="49.05239" lon="7.7225">
        <ele>281.4</ele>
        <time>2022-04-17T12:07:18Z</time>
      </trkpt>
      <trkpt lat="49.05245" lon="7.72262">
        <ele>280.4</ele>
        <time>2022-04-17T12:07:27Z</time>
      </trkpt>
      <trkpt lat="49.05252" lon="7.72274">
        <ele>279.5</ele>
        <time>2022-04-17T12:07:35Z</time>
      </trkpt>
      <trkpt lat="49.05259" lon="7.72286">
        <ele>278.7</ele>
        <time>2022-04-17T12:07:44Z</time>
      </trkpt>
      <trkpt lat="49.05265" lon="7.72295">
        <ele>278.1</ele>
        <time>2022-04-17T12:07:51Z</time>
      </trkpt>
      <trkpt lat="49.05272" lon="7.72305">
        <ele>277.5</ele>
        <time>2022-04-17T12:07:56Z</time>
      </trkpt>
      <trkpt lat="49.05278" lon="7.72317">
        <ele>276.9</ele>
        <time>2022-04-17T12:08:04Z</time>
      </trkpt>
      <trkpt lat="49.05285" lon="7.72327">
        <ele>276.2</ele>
        <time>2022-04-17T12:08:11Z</time>
      </trkpt>
      <trkpt lat="49.05291" lon="7.7234">
        <ele>275.6</ele>
        <time>2022-04-17T12:08:23Z</time>
      </trkpt>
      <trkpt lat="49.05299" lon="7.72348">
        <ele>275.1</ele>
        <time>2022-04-17T12:08:30Z</time>
      </trkpt>
      <trkpt lat="49.05307" lon="7.72355">
        <ele>274.6</ele>
        <time>2022-04-17T12:08:39Z</time>
      </trkpt>
      <trkpt lat="49.05313" lon="7.72365">
        <ele>274.2</ele>
        <time>2022-04-17T12:08:47Z</time>
      </trkpt>
      <trkpt lat="49.05321" lon="7.72375">
        <ele>273.7</ele>
        <time>2022-04-17T12:09:13Z</time>
      </trkpt>
      <trkpt lat="49.05328" lon="7.72385">
        <ele>273.3</ele>
        <time>2022-04-17T12:09:19Z</time>
      </trkpt>
      <trkpt lat="49.05324" lon="7.72372">
        <ele>273.4</ele>
        <time>2022-04-17T12:09:47Z</time>
      </trkpt>
      <trkpt lat="49.05319" lon="7.7237">
        <ele>273.4</ele>
        <time>2022-04-17T12:09:53Z</time>
      </trkpt>
      <trkpt lat="49.05318" lon="7.72369">
        <ele>273.4</ele>
        <time>2022-04-17T12:09:54Z</time>
      </trkpt>
      <trkpt lat="49.05318" lon="7.72369">
        <ele>273.4</ele>
        <time>2022-04-17T12:09:55Z</time>
      </trkpt>
      <trkpt lat="49.05318" lon="7.72369">
        <ele>273.5</ele>
        <time>2022-04-17T12:09:56Z</time>
      </trkpt>
      <trkpt lat="49.05309" lon="7.72374">
        <ele>273.6</ele>
        <time>2022-04-17T12:10:15Z</time>
      </trkpt>
      <trkpt lat="49.05315" lon="7.72386">
        <ele>273.7</ele>
        <time>2022-04-17T12:10:30Z</time>
      </trkpt>
      <trkpt lat="49.05315" lon="7.72394">
        <ele>273.7</ele>
        <time>2022-04-17T12:10:43Z</time>
      </trkpt>
      <trkpt lat="49.05315" lon="7.72394">
        <ele>273.8</ele>
        <time>2022-04-17T12:10:44Z</time>
      </trkpt>
      <trkpt lat="49.05316" lon="7.72398">
        <ele>273.8</ele>
        <time>2022-04-17T12:10:51Z</time>
      </trkpt>
      <trkpt lat="49.05316" lon="7.72398">
        <ele>273.8</ele>
        <time>2022-04-17T12:10:52Z</time>
      </trkpt>
      <trkpt lat="49.05313" lon="7.72395">
        <ele>273.8</ele>
        <time>2022-04-17T12:11:20Z</time>
      </trkpt>
      <trkpt lat="49.05313" lon="7.72395">
        <ele>273.9</ele>
        <time>2022-04-17T12:11:21Z</time>
      </trkpt>
      <trkpt lat="49.05313" lon="7.72393">
        <ele>273.9</ele>
        <time>2022-04-17T12:11:23Z</time>
      </trkpt>
      <trkpt lat="49.05314" lon="7.72394">
        <ele>273.9</ele>
        <time>2022-04-17T12:11:24Z</time>
      </trkpt>
      <trkpt lat="49.05315" lon="7.7239">
        <ele>273.9</ele>
        <time>2022-04-17T12:11:45Z</time>
      </trkpt>
      <trkpt lat="49.05316" lon="7.7239">
        <ele>273.9</ele>
        <time>2022-04-17T12:11:46Z</time>
      </trkpt>
      <trkpt lat="49.0531" lon="7.72379">
        <ele>274</ele>
        <time>2022-04-17T12:12:07Z</time>
      </trkpt>
      <trkpt lat="49.05309" lon="7.72365">
        <ele>274.3</ele>
        <time>2022-04-17T12:12:17Z</time>
      </trkpt>
      <trkpt lat="49.05304" lon="7.72353">
        <ele>274.8</ele>
        <time>2022-04-17T12:12:26Z</time>
      </trkpt>
      <trkpt lat="49.05298" lon="7.72342">
        <ele>275.3</ele>
        <time>2022-04-17T12:12:36Z</time>
      </trkpt>
      <trkpt lat="49.05307" lon="7.72348">
        <ele>274.8</ele>
        <time>2022-04-17T12:12:49Z</time>
      </trkpt>
      <trkpt lat="49.05309" lon="7.72351">
        <ele>274.6</ele>
        <time>2022-04-17T12:12:54Z</time>
      </trkpt>
      <trkpt lat="49.05309" lon="7.72351">
        <ele>274.6</ele>
        <time>2022-04-17T12:12:55Z</time>
      </trkpt>
      <trkpt lat="49.05316" lon="7.7236">
        <ele>274.2</ele>
        <time>2022-04-17T12:13:07Z</time>
      </trkpt>
      <trkpt lat="49.05324" lon="7.72367">
        <ele>273.7</ele>
        <time>2022-04-17T12:13:15Z</time>
      </trkpt>
      <trkpt lat="49.05329" lon="7.72379">
        <ele>273.3</ele>
        <time>2022-04-17T12:13:23Z</time>
      </trkpt>
      <trkpt lat="49.05338" lon="7.72385">
        <ele>273</ele>
        <time>2022-04-17T12:13:31Z</time>
      </trkpt>
      <trkpt lat="49.05346" lon="7.72394">
        <ele>272.8</ele>
        <time>2022-04-17T12:13:39Z</time>
      </trkpt>
      <trkpt lat="49.05354" lon="7.72401">
        <ele>272.6</ele>
        <time>2022-04-17T12:13:47Z</time>
      </trkpt>
      <trkpt lat="49.05361" lon="7.72409">
        <ele>272.4</ele>
        <time>2022-04-17T12:13:54Z</time>
      </trkpt>
      <trkpt lat="49.05369" lon="7.7242">
        <ele>272.2</ele>
        <time>2022-04-17T12:14:01Z</time>
      </trkpt>
      <trkpt lat="49.05377" lon="7.72429">
        <ele>272</ele>
        <time>2022-04-17T12:14:08Z</time>
      </trkpt>
      <trkpt lat="49.05384" lon="7.72437">
        <ele>271.9</ele>
        <time>2022-04-17T12:14:15Z</time>
      </trkpt>
      <trkpt lat="49.05392" lon="7.72445">
        <ele>271.7</ele>
        <time>2022-04-17T12:14:23Z</time>
      </trkpt>
      <trkpt lat="49.054" lon="7.72454">
        <ele>271.5</ele>
        <time>2022-04-17T12:14:30Z</time>
      </trkpt>
      <trkpt lat="49.05408" lon="7.72462">
        <ele>271.3</ele>
        <time>2022-04-17T12:14:37Z</time>
      </trkpt>
      <trkpt lat="49.05414" lon="7.72473">
        <ele>271.1</ele>
        <time>2022-04-17T12:14:44Z</time>
      </trkpt>
      <trkpt lat="49.05422" lon="7.72482">
        <ele>270.9</ele>
        <time>2022-04-17T12:14:52Z</time>
      </trkpt>
      <trkpt lat="49.05431" lon="7.72489">
        <ele>270.6</ele>
        <time>2022-04-17T12:15:00Z</time>
      </trkpt>
      <trkpt lat="49.05438" lon="7.72501">
        <ele>270.4</ele>
        <time>2022-04-17T12:15:07Z</time>
      </trkpt>
      <trkpt lat="49.05444" lon="7.72513">
        <ele>270.1</ele>
        <time>2022-04-17T12:15:14Z</time>
      </trkpt>
      <trkpt lat="49.0545" lon="7.72524">
        <ele>269.9</ele>
        <time>2022-04-17T12:15:21Z</time>
      </trkpt>
      <trkpt lat="49.05457" lon="7.72535">
        <ele>269.7</ele>
        <time>2022-04-17T12:15:28Z</time>
      </trkpt>
      <trkpt lat="49.05464" lon="7.72546">
        <ele>269.5</ele>
        <time>2022-04-17T12:15:35Z</time>
      </trkpt>
      <trkpt lat="49.05471" lon="7.72555">
        <ele>269.2</ele>
        <time>2022-04-17T12:15:42Z</time>
      </trkpt>
      <trkpt lat="49.05478" lon="7.72565">
        <ele>269</ele>
        <time>2022-04-17T12:15:49Z</time>
      </trkpt>
      <trkpt lat="49.05485" lon="7.72574">
        <ele>268.7</ele>
        <time>2022-04-17T12:15:55Z</time>
      </trkpt>
      <trkpt lat="49.05491" lon="7.72586">
        <ele>268.5</ele>
        <time>2022-04-17T12:16:01Z</time>
      </trkpt>
      <trkpt lat="49.05496" lon="7.72597">
        <ele>268.3</ele>
        <time>2022-04-17T12:16:08Z</time>
      </trkpt>
      <trkpt lat="49.05504" lon="7.72604">
        <ele>268.1</ele>
        <time>2022-04-17T12:16:16Z</time>
      </trkpt>
      <trkpt lat="49.05511" lon="7.72615">
        <ele>267.8</ele>
        <time>2022-04-17T12:16:23Z</time>
      </trkpt>
      <trkpt lat="49.05518" lon="7.72624">
        <ele>267.6</ele>
        <time>2022-04-17T12:16:30Z</time>
      </trkpt>
      <trkpt lat="49.05527" lon="7.72628">
        <ele>267.4</ele>
        <time>2022-04-17T12:16:37Z</time>
      </trkpt>
      <trkpt lat="49.05536" lon="7.72631">
        <ele>267.2</ele>
        <time>2022-04-17T12:16:44Z</time>
      </trkpt>
      <trkpt lat="49.05544" lon="7.72639">
        <ele>267.1</ele>
        <time>2022-04-17T12:16:51Z</time>
      </trkpt>
      <trkpt lat="49.05551" lon="7.72649">
        <ele>267</ele>
        <time>2022-04-17T12:16:59Z</time>
      </trkpt>
      <trkpt lat="49.05557" lon="7.72662">
        <ele>266.9</ele>
        <time>2022-04-17T12:17:10Z</time>
      </trkpt>
      <trkpt lat="49.05563" lon="7.72674">
        <ele>266.9</ele>
        <time>2022-04-17T12:17:18Z</time>
      </trkpt>
      <trkpt lat="49.05567" lon="7.72689">
        <ele>266.8</ele>
        <time>2022-04-17T12:17:26Z</time>
      </trkpt>
      <trkpt lat="49.05569" lon="7.72703">
        <ele>266.7</ele>
        <time>2022-04-17T12:17:34Z</time>
      </trkpt>
      <trkpt lat="49.05572" lon="7.72716">
        <ele>266.7</ele>
        <time>2022-04-17T12:17:42Z</time>
      </trkpt>
      <trkpt lat="49.05575" lon="7.72729">
        <ele>266.6</ele>
        <time>2022-04-17T12:17:51Z</time>
      </trkpt>
      <trkpt lat="49.05576" lon="7.72743">
        <ele>266.2</ele>
        <time>2022-04-17T12:18:00Z</time>
      </trkpt>
      <trkpt lat="49.05576" lon="7.72758">
        <ele>264.7</ele>
        <time>2022-04-17T12:18:10Z</time>
      </trkpt>
      <trkpt lat="49.05576" lon="7.72774">
        <ele>263.1</ele>
        <time>2022-04-17T12:18:19Z</time>
      </trkpt>
      <trkpt lat="49.05577" lon="7.72788">
        <ele>261.6</ele>
        <time>2022-04-17T12:18:28Z</time>
      </trkpt>
      <trkpt lat="49.05578" lon="7.72803">
        <ele>259.9</ele>
        <time>2022-04-17T12:18:37Z</time>
      </trkpt>
      <trkpt lat="49.05579" lon="7.72817">
        <ele>258.3</ele>
        <time>2022-04-17T12:18:47Z</time>
      </trkpt>
      <trkpt lat="49.0558" lon="7.72831">
        <ele>256.7</ele>
        <time>2022-04-17T12:19:04Z</time>
      </trkpt>
      <trkpt lat="49.05581" lon="7.72829">
        <ele>256.5</ele>
        <time>2022-04-17T12:19:08Z</time>
      </trkpt>
      <trkpt lat="49.05581" lon="7.72829">
        <ele>256.5</ele>
        <time>2022-04-17T12:19:14Z</time>
      </trkpt>
      <trkpt lat="49.05571" lon="7.7283">
        <ele>254.9</ele>
        <time>2022-04-17T12:19:31Z</time>
      </trkpt>
      <trkpt lat="49.0557" lon="7.72828">
        <ele>254.5</ele>
        <time>2022-04-17T12:19:42Z</time>
      </trkpt>
      <trkpt lat="49.0557" lon="7.72828">
        <ele>254.5</ele>
        <time>2022-04-17T12:19:43Z</time>
      </trkpt>
      <trkpt lat="49.0557" lon="7.72828">
        <ele>254.5</ele>
        <time>2022-04-17T12:19:44Z</time>
      </trkpt>
      <trkpt lat="49.0557" lon="7.72827">
        <ele>254.4</ele>
        <time>2022-04-17T12:19:46Z</time>
      </trkpt>
      <trkpt lat="49.0557" lon="7.72829">
        <ele>254.3</ele>
        <time>2022-04-17T12:19:51Z</time>
      </trkpt>
      <trkpt lat="49.0557" lon="7.72829">
        <ele>254.2</ele>
        <time>2022-04-17T12:19:52Z</time>
      </trkpt>
      <trkpt lat="49.0557" lon="7.72829">
        <ele>254.2</ele>
        <time>2022-04-17T12:19:54Z</time>
      </trkpt>
      <trkpt lat="49.0557" lon="7.7283">
        <ele>254.1</ele>
        <time>2022-04-17T12:19:57Z</time>
      </trkpt>
      <trkpt lat="49.0557" lon="7.72829">
        <ele>254.1</ele>
        <time>2022-04-17T12:19:58Z</time>
      </trkpt>
      <trkpt lat="49.05569" lon="7.7283">
        <ele>254</ele>
        <time>2022-04-17T12:19:59Z</time>
      </trkpt>
      <trkpt lat="49.05569" lon="7.7283">
        <ele>254</ele>
        <time>2022-04-17T12:20:00Z</time>
      </trkpt>
      <trkpt lat="49.05569" lon="7.7283">
        <ele>254</ele>
        <time>2022-04-17T12:20:01Z</time>
      </trkpt>
      <trkpt lat="49.05578" lon="7.72836">
        <ele>253.8</ele>
        <time>2022-04-17T12:20:19Z</time>
      </trkpt>
      <trkpt lat="49.05578" lon="7.72838">
        <ele>253.9</ele>
        <time>2022-04-17T12:20:22Z</time>
      </trkpt>
      <trkpt lat="49.05578" lon="7.72838">
        <ele>253.9</ele>
        <time>2022-04-17T12:20:26Z</time>
      </trkpt>
      <trkpt lat="49.05581" lon="7.72834">
        <ele>254.2</ele>
        <time>2022-04-17T12:20:37Z</time>
      </trkpt>
      <trkpt lat="49.05581" lon="7.72834">
        <ele>254.2</ele>
        <time>2022-04-17T12:20:53Z</time>
      </trkpt>
      <trkpt lat="49.05581" lon="7.72834">
        <ele>254.2</ele>
        <time>2022-04-17T12:20:55Z</time>
      </trkpt>
      <trkpt lat="49.05581" lon="7.72835">
        <ele>254.3</ele>
        <time>2022-04-17T12:20:56Z</time>
      </trkpt>
      <trkpt lat="49.05584" lon="7.72849">
        <ele>255</ele>
        <time>2022-04-17T12:21:03Z</time>
      </trkpt>
      <trkpt lat="49.05588" lon="7.72863">
        <ele>255.8</ele>
        <time>2022-04-17T12:21:12Z</time>
      </trkpt>
      <trkpt lat="49.05592" lon="7.72875">
        <ele>256.6</ele>
        <time>2022-04-17T12:21:19Z</time>
      </trkpt>
      <trkpt lat="49.05598" lon="7.72888">
        <ele>257.5</ele>
        <time>2022-04-17T12:21:27Z</time>
      </trkpt>
      <trkpt lat="49.05604" lon="7.729">
        <ele>258.2</ele>
        <time>2022-04-17T12:21:36Z</time>
      </trkpt>
      <trkpt lat="49.05611" lon="7.7291">
        <ele>258.9</ele>
        <time>2022-04-17T12:21:44Z</time>
      </trkpt>
      <trkpt lat="49.05617" lon="7.72921">
        <ele>259.4</ele>
        <time>2022-04-17T12:21:52Z</time>
      </trkpt>
      <trkpt lat="49.05624" lon="7.72931">
        <ele>259.8</ele>
        <time>2022-04-17T12:22:01Z</time>
      </trkpt>
      <trkpt lat="49.05627" lon="7.72945">
        <ele>259.7</ele>
        <time>2022-04-17T12:22:09Z</time>
      </trkpt>
      <trkpt lat="49.05631" lon="7.72958">
        <ele>259.5</ele>
        <time>2022-04-17T12:22:16Z</time>
      </trkpt>
      <trkpt lat="49.05636" lon="7.72971">
        <ele>259.2</ele>
        <time>2022-04-17T12:22:26Z</time>
      </trkpt>
      <trkpt lat="49.05642" lon="7.72983">
        <ele>258.9</ele>
        <time>2022-04-17T12:22:34Z</time>
      </trkpt>
      <trkpt lat="49.05648" lon="7.72995">
        <ele>258.6</ele>
        <time>2022-04-17T12:22:43Z</time>
      </trkpt>
      <trkpt lat="49.05652" lon="7.73008">
        <ele>258.3</ele>
        <time>2022-04-17T12:22:54Z</time>
      </trkpt>
      <trkpt lat="49.05658" lon="7.7302">
        <ele>257.9</ele>
        <time>2022-04-17T12:23:02Z</time>
      </trkpt>
      <trkpt lat="49.05666" lon="7.73027">
        <ele>257.6</ele>
        <time>2022-04-17T12:23:10Z</time>
      </trkpt>
      <trkpt lat="49.05674" lon="7.73036">
        <ele>257.2</ele>
        <time>2022-04-17T12:23:18Z</time>
      </trkpt>
      <trkpt lat="49.05682" lon="7.73045">
        <ele>256.9</ele>
        <time>2022-04-17T12:23:25Z</time>
      </trkpt>
      <trkpt lat="49.05688" lon="7.73055">
        <ele>256.8</ele>
        <time>2022-04-17T12:23:32Z</time>
      </trkpt>
      <trkpt lat="49.0569" lon="7.73061">
        <ele>256.7</ele>
        <time>2022-04-17T12:23:39Z</time>
      </trkpt>
      <trkpt lat="49.0569" lon="7.73062">
        <ele>256.7</ele>
        <time>2022-04-17T12:23:47Z</time>
      </trkpt>
      <trkpt lat="49.05693" lon="7.73076">
        <ele>256.7</ele>
        <time>2022-04-17T12:23:56Z</time>
      </trkpt>
      <trkpt lat="49.05699" lon="7.73089">
        <ele>256.7</ele>
        <time>2022-04-17T12:24:04Z</time>
      </trkpt>
      <trkpt lat="49.05701" lon="7.73103">
        <ele>256.9</ele>
        <time>2022-04-17T12:24:15Z</time>
      </trkpt>
      <trkpt lat="49.05706" lon="7.73117">
        <ele>257.1</ele>
        <time>2022-04-17T12:24:24Z</time>
      </trkpt>
      <trkpt lat="49.05712" lon="7.73129">
        <ele>257.5</ele>
        <time>2022-04-17T12:24:34Z</time>
      </trkpt>
      <trkpt lat="49.05714" lon="7.73144">
        <ele>257.9</ele>
        <time>2022-04-17T12:24:40Z</time>
      </trkpt>
      <trkpt lat="49.0572" lon="7.73156">
        <ele>258.2</ele>
        <time>2022-04-17T12:24:47Z</time>
      </trkpt>
      <trkpt lat="49.05727" lon="7.73168">
        <ele>258.3</ele>
        <time>2022-04-17T12:24:56Z</time>
      </trkpt>
      <trkpt lat="49.05734" lon="7.73178">
        <ele>258.4</ele>
        <time>2022-04-17T12:25:04Z</time>
      </trkpt>
      <trkpt lat="49.05739" lon="7.73191">
        <ele>258.3</ele>
        <time>2022-04-17T12:25:12Z</time>
      </trkpt>
      <trkpt lat="49.05746" lon="7.73201">
        <ele>258.3</ele>
        <time>2022-04-17T12:25:19Z</time>
      </trkpt>
      <trkpt lat="49.05752" lon="7.73211">
        <ele>258.2</ele>
        <time>2022-04-17T12:25:27Z</time>
      </trkpt>
      <trkpt lat="49.05756" lon="7.73224">
        <ele>258</ele>
        <time>2022-04-17T12:25:34Z</time>
      </trkpt>
      <trkpt lat="49.05761" lon="7.73236">
        <ele>257.6</ele>
        <time>2022-04-17T12:25:44Z</time>
      </trkpt>
      <trkpt lat="49.05765" lon="7.73249">
        <ele>257.1</ele>
        <time>2022-04-17T12:25:51Z</time>
      </trkpt>
      <trkpt lat="49.0577" lon="7.73262">
        <ele>256.4</ele>
        <time>2022-04-17T12:26:01Z</time>
      </trkpt>
      <trkpt lat="49.05776" lon="7.73273">
        <ele>255.8</ele>
        <time>2022-04-17T12:26:08Z</time>
      </trkpt>
      <trkpt lat="49.05781" lon="7.73285">
        <ele>254.8</ele>
        <time>2022-04-17T12:26:16Z</time>
      </trkpt>
      <trkpt lat="49.05786" lon="7.73298">
        <ele>253.7</ele>
        <time>2022-04-17T12:26:26Z</time>
      </trkpt>
      <trkpt lat="49.05791" lon="7.73311">
        <ele>252.5</ele>
        <time>2022-04-17T12:26:35Z</time>
      </trkpt>
      <trkpt lat="49.05795" lon="7.73324">
        <ele>251.2</ele>
        <time>2022-04-17T12:26:45Z</time>
      </trkpt>
      <trkpt lat="49.05803" lon="7.73335">
        <ele>249.9</ele>
        <time>2022-04-17T12:26:54Z</time>
      </trkpt>
      <trkpt lat="49.05805" lon="7.73341">
        <ele>249.2</ele>
        <time>2022-04-17T12:27:00Z</time>
      </trkpt>
      <trkpt lat="49.05805" lon="7.73341">
        <ele>249.2</ele>
        <time>2022-04-17T12:27:10Z</time>
      </trkpt>
      <trkpt lat="49.05808" lon="7.73354">
        <ele>247.9</ele>
        <time>2022-04-17T12:27:24Z</time>
      </trkpt>
      <trkpt lat="49.05809" lon="7.73356">
        <ele>247.7</ele>
        <time>2022-04-17T12:27:28Z</time>
      </trkpt>
      <trkpt lat="49.05809" lon="7.73355">
        <ele>247.7</ele>
        <time>2022-04-17T12:27:39Z</time>
      </trkpt>
      <trkpt lat="49.05809" lon="7.73355">
        <ele>247.7</ele>
        <time>2022-04-17T12:27:40Z</time>
      </trkpt>
      <trkpt lat="49.0581" lon="7.73355">
        <ele>247.6</ele>
        <time>2022-04-17T12:28:08Z</time>
      </trkpt>
      <trkpt lat="49.05815" lon="7.73368">
        <ele>246.3</ele>
        <time>2022-04-17T12:28:18Z</time>
      </trkpt>
      <trkpt lat="49.05819" lon="7.73382">
        <ele>244.9</ele>
        <time>2022-04-17T12:28:28Z</time>
      </trkpt>
      <trkpt lat="49.05822" lon="7.73395">
        <ele>243.7</ele>
        <time>2022-04-17T12:28:35Z</time>
      </trkpt>
      <trkpt lat="49.05824" lon="7.7341">
        <ele>242.3</ele>
        <time>2022-04-17T12:28:42Z</time>
      </trkpt>
      <trkpt lat="49.05829" lon="7.73421">
        <ele>241.1</ele>
        <time>2022-04-17T12:28:49Z</time>
      </trkpt>
      <trkpt lat="49.05833" lon="7.73435">
        <ele>239.9</ele>
        <time>2022-04-17T12:28:56Z</time>
      </trkpt>
      <trkpt lat="49.05838" lon="7.73448">
        <ele>237.8</ele>
        <time>2022-04-17T12:29:04Z</time>
      </trkpt>
      <trkpt lat="49.0584" lon="7.73462">
        <ele>236.7</ele>
        <time>2022-04-17T12:29:12Z</time>
      </trkpt>
      <trkpt lat="49.05845" lon="7.73474">
        <ele>235.7</ele>
        <time>2022-04-17T12:29:35Z</time>
      </trkpt>
      <trkpt lat="49.05846" lon="7.73464">
        <ele>235</ele>
        <time>2022-04-17T12:30:04Z</time>
      </trkpt>
      <trkpt lat="49.05846" lon="7.73464">
        <ele>234.9</ele>
        <time>2022-04-17T12:30:06Z</time>
      </trkpt>
      <trkpt lat="49.05845" lon="7.73464">
        <ele>234.8</ele>
        <time>2022-04-17T12:30:09Z</time>
      </trkpt>
      <trkpt lat="49.05845" lon="7.73464">
        <ele>234.8</ele>
        <time>2022-04-17T12:30:12Z</time>
      </trkpt>
      <trkpt lat="49.05847" lon="7.73479">
        <ele>233.3</ele>
        <time>2022-04-17T12:30:29Z</time>
      </trkpt>
      <trkpt lat="49.05847" lon="7.73493">
        <ele>232.7</ele>
        <time>2022-04-17T12:30:35Z</time>
      </trkpt>
      <trkpt lat="49.05843" lon="7.73507">
        <ele>232.2</ele>
        <time>2022-04-17T12:30:44Z</time>
      </trkpt>
      <trkpt lat="49.05836" lon="7.73518">
        <ele>231.7</ele>
        <time>2022-04-17T12:30:52Z</time>
      </trkpt>
      <trkpt lat="49.05828" lon="7.73528">
        <ele>231.4</ele>
        <time>2022-04-17T12:31:01Z</time>
      </trkpt>
      <trkpt lat="49.0582" lon="7.73537">
        <ele>231.2</ele>
        <time>2022-04-17T12:31:09Z</time>
      </trkpt>
      <trkpt lat="49.05814" lon="7.73549">
        <ele>231.2</ele>
        <time>2022-04-17T12:31:19Z</time>
      </trkpt>
      <trkpt lat="49.05814" lon="7.73563">
        <ele>231.3</ele>
        <time>2022-04-17T12:31:30Z</time>
      </trkpt>
      <trkpt lat="49.05817" lon="7.73576">
        <ele>231.3</ele>
        <time>2022-04-17T12:31:38Z</time>
      </trkpt>
      <trkpt lat="49.05823" lon="7.73589">
        <ele>231.4</ele>
        <time>2022-04-17T12:31:45Z</time>
      </trkpt>
      <trkpt lat="49.05829" lon="7.73601">
        <ele>231.6</ele>
        <time>2022-04-17T12:31:53Z</time>
      </trkpt>
      <trkpt lat="49.05834" lon="7.73613">
        <ele>231.8</ele>
        <time>2022-04-17T12:32:01Z</time>
      </trkpt>
      <trkpt lat="49.05838" lon="7.73626">
        <ele>232</ele>
        <time>2022-04-17T12:32:13Z</time>
      </trkpt>
      <trkpt lat="49.05835" lon="7.73629">
        <ele>232</ele>
        <time>2022-04-17T12:32:32Z</time>
      </trkpt>
      <trkpt lat="49.05834" lon="7.73628">
        <ele>232</ele>
        <time>2022-04-17T12:32:33Z</time>
      </trkpt>
      <trkpt lat="49.05842" lon="7.73637">
        <ele>232.1</ele>
        <time>2022-04-17T12:32:48Z</time>
      </trkpt>
      <trkpt lat="49.05846" lon="7.73651">
        <ele>232.1</ele>
        <time>2022-04-17T12:32:59Z</time>
      </trkpt>
      <trkpt lat="49.0585" lon="7.73665">
        <ele>232</ele>
        <time>2022-04-17T12:33:10Z</time>
      </trkpt>
      <trkpt lat="49.05853" lon="7.73665">
        <ele>232</ele>
        <time>2022-04-17T12:33:20Z</time>
      </trkpt>
      <trkpt lat="49.05853" lon="7.73665">
        <ele>232</ele>
        <time>2022-04-17T12:33:21Z</time>
      </trkpt>
      <trkpt lat="49.05858" lon="7.73678">
        <ele>231.8</ele>
        <time>2022-04-17T12:33:53Z</time>
      </trkpt>
      <trkpt lat="49.05863" lon="7.73692">
        <ele>231.7</ele>
        <time>2022-04-17T12:34:01Z</time>
      </trkpt>
      <trkpt lat="49.05864" lon="7.73706">
        <ele>231.5</ele>
        <time>2022-04-17T12:34:09Z</time>
      </trkpt>
      <trkpt lat="49.0587" lon="7.73717">
        <ele>231.3</ele>
        <time>2022-04-17T12:34:18Z</time>
      </trkpt>
      <trkpt lat="49.0587" lon="7.73731">
        <ele>231.2</ele>
        <time>2022-04-17T12:34:25Z</time>
      </trkpt>
      <trkpt lat="49.05876" lon="7.73743">
        <ele>231</ele>
        <time>2022-04-17T12:34:35Z</time>
      </trkpt>
      <trkpt lat="49.0588" lon="7.73755">
        <ele>230.6</ele>
        <time>2022-04-17T12:34:46Z</time>
      </trkpt>
      <trkpt lat="49.05873" lon="7.73766">
        <ele>230.6</ele>
        <time>2022-04-17T12:34:52Z</time>
      </trkpt>
      <trkpt lat="49.0587" lon="7.7378">
        <ele>230.9</ele>
        <time>2022-04-17T12:35:00Z</time>
      </trkpt>
      <trkpt lat="49.05873" lon="7.73783">
        <ele>231.1</ele>
        <time>2022-04-17T12:35:09Z</time>
      </trkpt>
      <trkpt lat="49.05874" lon="7.73782">
        <ele>231.2</ele>
        <time>2022-04-17T12:35:10Z</time>
      </trkpt>
      <trkpt lat="49.05874" lon="7.73788">
        <ele>231.5</ele>
        <time>2022-04-17T12:35:30Z</time>
      </trkpt>
      <trkpt lat="49.05875" lon="7.73787">
        <ele>231.5</ele>
        <time>2022-04-17T12:35:31Z</time>
      </trkpt>
      <trkpt lat="49.05873" lon="7.73802">
        <ele>232.5</ele>
        <time>2022-04-17T12:35:42Z</time>
      </trkpt>
      <trkpt lat="49.05871" lon="7.73816">
        <ele>233.8</ele>
        <time>2022-04-17T12:35:51Z</time>
      </trkpt>
      <trkpt lat="49.05871" lon="7.73831">
        <ele>235.3</ele>
        <time>2022-04-17T12:36:00Z</time>
      </trkpt>
      <trkpt lat="49.05867" lon="7.73843">
        <ele>236.8</ele>
        <time>2022-04-17T12:36:13Z</time>
      </trkpt>
      <trkpt lat="49.05874" lon="7.73843">
        <ele>238</ele>
        <time>2022-04-17T12:36:40Z</time>
      </trkpt>
      <trkpt lat="49.05874" lon="7.73844">
        <ele>238.1</ele>
        <time>2022-04-17T12:36:42Z</time>
      </trkpt>
      <trkpt lat="49.05874" lon="7.73858">
        <ele>240</ele>
        <time>2022-04-17T12:36:55Z</time>
      </trkpt>
      <trkpt lat="49.05867" lon="7.73868">
        <ele>242.1</ele>
        <time>2022-04-17T12:37:03Z</time>
      </trkpt>
      <trkpt lat="49.05865" lon="7.73883">
        <ele>244.5</ele>
        <time>2022-04-17T12:37:13Z</time>
      </trkpt>
      <trkpt lat="49.0587" lon="7.73895">
        <ele>246.8</ele>
        <time>2022-04-17T12:37:35Z</time>
      </trkpt>
      <trkpt lat="49.05873" lon="7.7391">
        <ele>249.1</ele>
        <time>2022-04-17T12:37:51Z</time>
      </trkpt>
      <trkpt lat="49.05872" lon="7.73918">
        <ele>250.2</ele>
        <time>2022-04-17T12:37:57Z</time>
      </trkpt>
      <trkpt lat="49.05873" lon="7.73918">
        <ele>250.3</ele>
        <time>2022-04-17T12:37:58Z</time>
      </trkpt>
      <trkpt lat="49.05874" lon="7.7392">
        <ele>250.7</ele>
        <time>2022-04-17T12:38:08Z</time>
      </trkpt>
      <trkpt lat="49.05874" lon="7.73921">
        <ele>250.8</ele>
        <time>2022-04-17T12:38:09Z</time>
      </trkpt>
      <trkpt lat="49.05871" lon="7.73931">
        <ele>252.3</ele>
        <time>2022-04-17T12:38:16Z</time>
      </trkpt>
      <trkpt lat="49.05871" lon="7.73932">
        <ele>252.4</ele>
        <time>2022-04-17T12:38:17Z</time>
      </trkpt>
      <trkpt lat="49.05868" lon="7.73947">
        <ele>254.4</ele>
        <time>2022-04-17T12:38:24Z</time>
      </trkpt>
      <trkpt lat="49.05866" lon="7.73962">
        <ele>256.1</ele>
        <time>2022-04-17T12:38:30Z</time>
      </trkpt>
      <trkpt lat="49.05871" lon="7.73977">
        <ele>257.6</ele>
        <time>2022-04-17T12:38:37Z</time>
      </trkpt>
      <trkpt lat="49.05874" lon="7.73992">
        <ele>258.8</ele>
        <time>2022-04-17T12:38:43Z</time>
      </trkpt>
      <trkpt lat="49.05877" lon="7.74006">
        <ele>259.9</ele>
        <time>2022-04-17T12:38:53Z</time>
      </trkpt>
      <trkpt lat="49.05876" lon="7.74021">
        <ele>260.9</ele>
        <time>2022-04-17T12:39:00Z</time>
      </trkpt>
      <trkpt lat="49.05872" lon="7.74035">
        <ele>261.9</ele>
        <time>2022-04-17T12:39:06Z</time>
      </trkpt>
      <trkpt lat="49.05873" lon="7.74049">
        <ele>262.7</ele>
        <time>2022-04-17T12:39:15Z</time>
      </trkpt>
      <trkpt lat="49.05881" lon="7.74058">
        <ele>263.3</ele>
        <time>2022-04-17T12:39:23Z</time>
      </trkpt>
      <trkpt lat="49.05875" lon="7.7407">
        <ele>263.8</ele>
        <time>2022-04-17T12:40:17Z</time>
      </trkpt>
      <trkpt lat="49.05881" lon="7.74081">
        <ele>264</ele>
        <time>2022-04-17T12:40:47Z</time>
      </trkpt>
      <trkpt lat="49.05887" lon="7.74091">
        <ele>264.1</ele>
        <time>2022-04-17T12:40:57Z</time>
      </trkpt>
      <trkpt lat="49.05888" lon="7.74105">
        <ele>264</ele>
        <time>2022-04-17T12:41:04Z</time>
      </trkpt>
      <trkpt lat="49.05891" lon="7.74118">
        <ele>262.8</ele>
        <time>2022-04-17T12:41:13Z</time>
      </trkpt>
      <trkpt lat="49.05893" lon="7.74132">
        <ele>261.4</ele>
        <time>2022-04-17T12:41:21Z</time>
      </trkpt>
      <trkpt lat="49.0589" lon="7.74147">
        <ele>259.5</ele>
        <time>2022-04-17T12:41:31Z</time>
      </trkpt>
      <trkpt lat="49.0589" lon="7.74162">
        <ele>257.5</ele>
        <time>2022-04-17T12:41:41Z</time>
      </trkpt>
      <trkpt lat="49.05896" lon="7.74173">
        <ele>255.2</ele>
        <time>2022-04-17T12:41:54Z</time>
      </trkpt>
      <trkpt lat="49.05902" lon="7.74187">
        <ele>252.4</ele>
        <time>2022-04-17T12:42:01Z</time>
      </trkpt>
      <trkpt lat="49.05904" lon="7.74201">
        <ele>250</ele>
        <time>2022-04-17T12:42:09Z</time>
      </trkpt>
      <trkpt lat="49.05909" lon="7.74213">
        <ele>247.6</ele>
        <time>2022-04-17T12:42:18Z</time>
      </trkpt>
      <trkpt lat="49.05918" lon="7.74218">
        <ele>245.4</ele>
        <time>2022-04-17T12:42:25Z</time>
      </trkpt>
      <trkpt lat="49.05927" lon="7.74222">
        <ele>243.2</ele>
        <time>2022-04-17T12:42:34Z</time>
      </trkpt>
      <trkpt lat="49.05935" lon="7.74231">
        <ele>241.1</ele>
        <time>2022-04-17T12:42:40Z</time>
      </trkpt>
      <trkpt lat="49.05942" lon="7.7424">
        <ele>239.4</ele>
        <time>2022-04-17T12:42:47Z</time>
      </trkpt>
      <trkpt lat="49.05951" lon="7.74242">
        <ele>237.8</ele>
        <time>2022-04-17T12:42:57Z</time>
      </trkpt>
      <trkpt lat="49.05952" lon="7.74245">
        <ele>237.4</ele>
        <time>2022-04-17T12:43:06Z</time>
      </trkpt>
      <trkpt lat="49.05953" lon="7.74244">
        <ele>237.3</ele>
        <time>2022-04-17T12:43:09Z</time>
      </trkpt>
      <trkpt lat="49.05952" lon="7.74245">
        <ele>237.1</ele>
        <time>2022-04-17T12:43:14Z</time>
      </trkpt>
      <trkpt lat="49.05952" lon="7.74246">
        <ele>237.1</ele>
        <time>2022-04-17T12:43:15Z</time>
      </trkpt>
      <trkpt lat="49.05952" lon="7.74248">
        <ele>236.8</ele>
        <time>2022-04-17T12:43:19Z</time>
      </trkpt>
      <trkpt lat="49.05952" lon="7.74248">
        <ele>236.7</ele>
        <time>2022-04-17T12:43:20Z</time>
      </trkpt>
      <trkpt lat="49.05952" lon="7.74248">
        <ele>236.7</ele>
        <time>2022-04-17T12:43:21Z</time>
      </trkpt>
      <trkpt lat="49.05951" lon="7.74248">
        <ele>236.7</ele>
        <time>2022-04-17T12:43:39Z</time>
      </trkpt>
      <trkpt lat="49.05951" lon="7.74248">
        <ele>236.7</ele>
        <time>2022-04-17T12:43:40Z</time>
      </trkpt>
      <trkpt lat="49.05951" lon="7.74248">
        <ele>236.6</ele>
        <time>2022-04-17T12:43:44Z</time>
      </trkpt>
      <trkpt lat="49.05951" lon="7.74248">
        <ele>236.6</ele>
        <time>2022-04-17T12:43:45Z</time>
      </trkpt>
      <trkpt lat="49.05951" lon="7.74248">
        <ele>236.6</ele>
        <time>2022-04-17T12:43:47Z</time>
      </trkpt>
      <trkpt lat="49.05951" lon="7.74247">
        <ele>236.5</ele>
        <time>2022-04-17T12:43:49Z</time>
      </trkpt>
      <trkpt lat="49.05951" lon="7.74247">
        <ele>236.5</ele>
        <time>2022-04-17T12:43:52Z</time>
      </trkpt>
      <trkpt lat="49.05951" lon="7.74247">
        <ele>236.5</ele>
        <time>2022-04-17T12:43:53Z</time>
      </trkpt>
      <trkpt lat="49.05952" lon="7.74246">
        <ele>236.4</ele>
        <time>2022-04-17T12:43:56Z</time>
      </trkpt>
      <trkpt lat="49.05953" lon="7.74245">
        <ele>236.1</ele>
        <time>2022-04-17T12:44:12Z</time>
      </trkpt>
      <trkpt lat="49.05953" lon="7.74245">
        <ele>236.1</ele>
        <time>2022-04-17T12:44:13Z</time>
      </trkpt>
      <trkpt lat="49.05964" lon="7.74247">
        <ele>234.3</ele>
        <time>2022-04-17T12:44:22Z</time>
      </trkpt>
      <trkpt lat="49.05973" lon="7.74251">
        <ele>232.7</ele>
        <time>2022-04-17T12:44:28Z</time>
      </trkpt>
      <trkpt lat="49.05981" lon="7.74255">
        <ele>232.2</ele>
        <time>2022-04-17T12:44:39Z</time>
      </trkpt>
      <trkpt lat="49.05984" lon="7.74254">
        <ele>232.2</ele>
        <time>2022-04-17T12:44:43Z</time>
      </trkpt>
      <trkpt lat="49.05984" lon="7.74254">
        <ele>232.2</ele>
        <time>2022-04-17T12:44:45Z</time>
      </trkpt>
      <trkpt lat="49.05984" lon="7.74256">
        <ele>232.2</ele>
        <time>2022-04-17T12:44:50Z</time>
      </trkpt>
      <trkpt lat="49.05985" lon="7.74255">
        <ele>232.2</ele>
        <time>2022-04-17T12:44:51Z</time>
      </trkpt>
      <trkpt lat="49.05985" lon="7.74256">
        <ele>232.2</ele>
        <time>2022-04-17T12:44:59Z</time>
      </trkpt>
      <trkpt lat="49.05985" lon="7.74256">
        <ele>232.2</ele>
        <time>2022-04-17T12:45:00Z</time>
      </trkpt>
      <trkpt lat="49.05985" lon="7.74256">
        <ele>232.2</ele>
        <time>2022-04-17T12:45:02Z</time>
      </trkpt>
      <trkpt lat="49.05985" lon="7.74255">
        <ele>232.2</ele>
        <time>2022-04-17T12:45:04Z</time>
      </trkpt>
      <trkpt lat="49.05985" lon="7.74254">
        <ele>232.2</ele>
        <time>2022-04-17T12:45:06Z</time>
      </trkpt>
      <trkpt lat="49.05985" lon="7.74254">
        <ele>232.2</ele>
        <time>2022-04-17T12:45:07Z</time>
      </trkpt>
      <trkpt lat="49.05985" lon="7.74254">
        <ele>232.2</ele>
        <time>2022-04-17T12:45:08Z</time>
      </trkpt>
      <trkpt lat="49.05985" lon="7.74254">
        <ele>232.2</ele>
        <time>2022-04-17T12:45:09Z</time>
      </trkpt>
      <trkpt lat="49.05984" lon="7.74255">
        <ele>232.2</ele>
        <time>2022-04-17T12:45:14Z</time>
      </trkpt>
      <trkpt lat="49.05984" lon="7.74256">
        <ele>232.2</ele>
        <time>2022-04-17T12:45:19Z</time>
      </trkpt>
      <trkpt lat="49.05987" lon="7.74255">
        <ele>231.8</ele>
        <time>2022-04-17T12:45:25Z</time>
      </trkpt>
      <trkpt lat="49.05988" lon="7.74254">
        <ele>231.6</ele>
        <time>2022-04-17T12:45:26Z</time>
      </trkpt>
      <trkpt lat="49.05988" lon="7.74253">
        <ele>231.2</ele>
        <time>2022-04-17T12:45:28Z</time>
      </trkpt>
      <trkpt lat="49.05988" lon="7.74253">
        <ele>231.2</ele>
        <time>2022-04-17T12:45:29Z</time>
      </trkpt>
      <trkpt lat="49.05988" lon="7.74253">
        <ele>231.1</ele>
        <time>2022-04-17T12:45:32Z</time>
      </trkpt>
      <trkpt lat="49.05989" lon="7.74254">
        <ele>231</ele>
        <time>2022-04-17T12:45:41Z</time>
      </trkpt>
      <trkpt lat="49.05997" lon="7.7426">
        <ele>228</ele>
        <time>2022-04-17T12:45:53Z</time>
      </trkpt>
      <trkpt lat="49.06004" lon="7.74271">
        <ele>224.5</ele>
        <time>2022-04-17T12:46:01Z</time>
      </trkpt>
      <trkpt lat="49.06011" lon="7.74281">
        <ele>224.3</ele>
        <time>2022-04-17T12:46:10Z</time>
      </trkpt>
      <trkpt lat="49.06013" lon="7.74296">
        <ele>223.9</ele>
        <time>2022-04-17T12:46:18Z</time>
      </trkpt>
      <trkpt lat="49.06015" lon="7.7431">
        <ele>223.5</ele>
        <time>2022-04-17T12:46:26Z</time>
      </trkpt>
      <trkpt lat="49.06021" lon="7.74321">
        <ele>223.3</ele>
        <time>2022-04-17T12:46:36Z</time>
      </trkpt>
      <trkpt lat="49.06022" lon="7.74336">
        <ele>223</ele>
        <time>2022-04-17T12:46:44Z</time>
      </trkpt>
      <trkpt lat="49.06023" lon="7.7435">
        <ele>222.6</ele>
        <time>2022-04-17T12:46:51Z</time>
      </trkpt>
      <trkpt lat="49.06027" lon="7.74363">
        <ele>222.2</ele>
        <time>2022-04-17T12:47:00Z</time>
      </trkpt>
      <trkpt lat="49.06028" lon="7.74378">
        <ele>221.7</ele>
        <time>2022-04-17T12:47:08Z</time>
      </trkpt>
      <trkpt lat="49.0603" lon="7.74392">
        <ele>221.3</ele>
        <time>2022-04-17T12:47:15Z</time>
      </trkpt>
      <trkpt lat="49.06033" lon="7.74406">
        <ele>220.8</ele>
        <time>2022-04-17T12:47:23Z</time>
      </trkpt>
      <trkpt lat="49.06035" lon="7.74421">
        <ele>220.4</ele>
        <time>2022-04-17T12:47:31Z</time>
      </trkpt>
      <trkpt lat="49.06036" lon="7.74436">
        <ele>220</ele>
        <time>2022-04-17T12:47:39Z</time>
      </trkpt>
      <trkpt lat="49.06041" lon="7.74448">
        <ele>219.7</ele>
        <time>2022-04-17T12:47:48Z</time>
      </trkpt>
      <trkpt lat="49.06048" lon="7.7446">
        <ele>219.5</ele>
        <time>2022-04-17T12:47:58Z</time>
      </trkpt>
      <trkpt lat="49.06052" lon="7.74474">
        <ele>219.3</ele>
        <time>2022-04-17T12:48:06Z</time>
      </trkpt>
      <trkpt lat="49.06059" lon="7.74484">
        <ele>219.2</ele>
        <time>2022-04-17T12:48:12Z</time>
      </trkpt>
      <trkpt lat="49.06065" lon="7.74495">
        <ele>219</ele>
        <time>2022-04-17T12:48:18Z</time>
      </trkpt>
      <trkpt lat="49.06065" lon="7.74509">
        <ele>219</ele>
        <time>2022-04-17T12:48:28Z</time>
      </trkpt>
      <trkpt lat="49.06058" lon="7.74521">
        <ele>219</ele>
        <time>2022-04-17T12:48:33Z</time>
      </trkpt>
      <trkpt lat="49.06063" lon="7.74533">
        <ele>219</ele>
        <time>2022-04-17T12:48:40Z</time>
      </trkpt>
      <trkpt lat="49.06063" lon="7.74538">
        <ele>219</ele>
        <time>2022-04-17T12:48:44Z</time>
      </trkpt>
      <trkpt lat="49.06063" lon="7.74539">
        <ele>219</ele>
        <time>2022-04-17T12:48:45Z</time>
      </trkpt>
      <trkpt lat="49.06057" lon="7.7455">
        <ele>218.9</ele>
        <time>2022-04-17T12:48:52Z</time>
      </trkpt>
      <trkpt lat="49.0605" lon="7.74561">
        <ele>218.9</ele>
        <time>2022-04-17T12:48:59Z</time>
      </trkpt>
      <trkpt lat="49.06044" lon="7.74574">
        <ele>218.8</ele>
        <time>2022-04-17T12:49:08Z</time>
      </trkpt>
      <trkpt lat="49.06039" lon="7.74587">
        <ele>218.6</ele>
        <time>2022-04-17T12:49:17Z</time>
      </trkpt>
      <trkpt lat="49.06035" lon="7.74596">
        <ele>218.6</ele>
        <time>2022-04-17T12:49:25Z</time>
      </trkpt>
      <trkpt lat="49.06035" lon="7.74596">
        <ele>218.6</ele>
        <time>2022-04-17T12:49:26Z</time>
      </trkpt>
      <trkpt lat="49.06041" lon="7.74588">
        <ele>218.6</ele>
        <time>2022-04-17T12:50:00Z</time>
      </trkpt>
      <trkpt lat="49.0604" lon="7.74589">
        <ele>218.6</ele>
        <time>2022-04-17T12:50:01Z</time>
      </trkpt>
      <trkpt lat="49.0604" lon="7.74589">
        <ele>218.6</ele>
        <time>2022-04-17T12:50:02Z</time>
      </trkpt>
      <trkpt lat="49.0604" lon="7.7459">
        <ele>218.6</ele>
        <time>2022-04-17T12:50:03Z</time>
      </trkpt>
      <trkpt lat="49.06038" lon="7.7459">
        <ele>218.6</ele>
        <time>2022-04-17T12:50:08Z</time>
      </trkpt>
      <trkpt lat="49.06038" lon="7.7459">
        <ele>218.6</ele>
        <time>2022-04-17T12:50:14Z</time>
      </trkpt>
      <trkpt lat="49.06038" lon="7.74589">
        <ele>218.6</ele>
        <time>2022-04-17T12:50:16Z</time>
      </trkpt>
      <trkpt lat="49.06038" lon="7.74589">
        <ele>218.6</ele>
        <time>2022-04-17T12:50:18Z</time>
      </trkpt>
      <trkpt lat="49.06037" lon="7.74588">
        <ele>218.6</ele>
        <time>2022-04-17T12:50:21Z</time>
      </trkpt>
      <trkpt lat="49.06037" lon="7.74588">
        <ele>218.6</ele>
        <time>2022-04-17T12:50:41Z</time>
      </trkpt>
      <trkpt lat="49.06037" lon="7.74588">
        <ele>218.6</ele>
        <time>2022-04-17T12:50:42Z</time>
      </trkpt>
      <trkpt lat="49.06037" lon="7.74589">
        <ele>218.6</ele>
        <time>2022-04-17T12:50:43Z</time>
      </trkpt>
      <trkpt lat="49.06035" lon="7.74588">
        <ele>218.6</ele>
        <time>2022-04-17T12:51:15Z</time>
      </trkpt>
      <trkpt lat="49.06035" lon="7.74588">
        <ele>218.6</ele>
        <time>2022-04-17T12:51:16Z</time>
      </trkpt>
      <trkpt lat="49.06035" lon="7.7459">
        <ele>218.6</ele>
        <time>2022-04-17T12:51:20Z</time>
      </trkpt>
      <trkpt lat="49.06035" lon="7.7459">
        <ele>218.6</ele>
        <time>2022-04-17T12:51:21Z</time>
      </trkpt>
      <trkpt lat="49.06034" lon="7.7459">
        <ele>218.6</ele>
        <time>2022-04-17T12:51:24Z</time>
      </trkpt>
      <trkpt lat="49.06034" lon="7.74589">
        <ele>218.6</ele>
        <time>2022-04-17T12:51:25Z</time>
      </trkpt>
      <trkpt lat="49.06036" lon="7.74589">
        <ele>218.6</ele>
        <time>2022-04-17T12:51:50Z</time>
      </trkpt>
      <trkpt lat="49.06036" lon="7.7459">
        <ele>218.6</ele>
        <time>2022-04-17T12:51:51Z</time>
      </trkpt>
      <trkpt lat="49.06039" lon="7.74581">
        <ele>218.6</ele>
        <time>2022-04-17T12:52:18Z</time>
      </trkpt>
      <trkpt lat="49.06039" lon="7.74581">
        <ele>218.6</ele>
        <time>2022-04-17T12:52:19Z</time>
      </trkpt>
      <trkpt lat="49.06033" lon="7.74592">
        <ele>218.6</ele>
        <time>2022-04-17T12:52:33Z</time>
      </trkpt>
      <trkpt lat="49.06029" lon="7.74599">
        <ele>218.6</ele>
        <time>2022-04-17T12:52:59Z</time>
      </trkpt>
      <trkpt lat="49.06029" lon="7.74599">
        <ele>218.6</ele>
        <time>2022-04-17T12:53:00Z</time>
      </trkpt>
      <trkpt lat="49.06033" lon="7.74591">
        <ele>218.5</ele>
        <time>2022-04-17T12:53:42Z</time>
      </trkpt>
      <trkpt lat="49.06033" lon="7.74591">
        <ele>218.5</ele>
        <time>2022-04-17T12:53:43Z</time>
      </trkpt>
      <trkpt lat="49.06033" lon="7.74593">
        <ele>218.5</ele>
        <time>2022-04-17T12:54:45Z</time>
      </trkpt>
      <trkpt lat="49.06033" lon="7.74594">
        <ele>218.5</ele>
        <time>2022-04-17T12:54:46Z</time>
      </trkpt>
      <trkpt lat="49.06035" lon="7.74597">
        <ele>218.5</ele>
        <time>2022-04-17T12:54:57Z</time>
      </trkpt>
      <trkpt lat="49.06035" lon="7.74597">
        <ele>218.5</ele>
        <time>2022-04-17T12:54:58Z</time>
      </trkpt>
      <trkpt lat="49.06034" lon="7.74596">
        <ele>218.5</ele>
        <time>2022-04-17T12:55:09Z</time>
      </trkpt>
      <trkpt lat="49.06035" lon="7.74596">
        <ele>218.5</ele>
        <time>2022-04-17T12:55:10Z</time>
      </trkpt>
      <trkpt lat="49.0604" lon="7.74585">
        <ele>218.5</ele>
        <time>2022-04-17T12:55:24Z</time>
      </trkpt>
      <trkpt lat="49.06034" lon="7.74589">
        <ele>218.5</ele>
        <time>2022-04-17T12:55:41Z</time>
      </trkpt>
      <trkpt lat="49.06035" lon="7.74588">
        <ele>218.5</ele>
        <time>2022-04-17T12:55:42Z</time>
      </trkpt>
      <trkpt lat="49.06035" lon="7.74586">
        <ele>218.5</ele>
        <time>2022-04-17T12:56:06Z</time>
      </trkpt>
      <trkpt lat="49.06035" lon="7.74586">
        <ele>218.5</ele>
        <time>2022-04-17T12:56:07Z</time>
      </trkpt>
      <trkpt lat="49.06034" lon="7.74588">
        <ele>218.5</ele>
        <time>2022-04-17T12:56:11Z</time>
      </trkpt>
      <trkpt lat="49.06034" lon="7.74588">
        <ele>218.5</ele>
        <time>2022-04-17T12:56:14Z</time>
      </trkpt>
      <trkpt lat="49.06034" lon="7.74584">
        <ele>218.5</ele>
        <time>2022-04-17T12:56:20Z</time>
      </trkpt>
      <trkpt lat="49.06034" lon="7.74585">
        <ele>218.5</ele>
        <time>2022-04-17T12:56:21Z</time>
      </trkpt>
      <trkpt lat="49.06032" lon="7.7459">
        <ele>218.5</ele>
        <time>2022-04-17T12:56:29Z</time>
      </trkpt>
      <trkpt lat="49.06032" lon="7.7459">
        <ele>218.5</ele>
        <time>2022-04-17T12:56:30Z</time>
      </trkpt>
      <trkpt lat="49.0603" lon="7.74593">
        <ele>218.5</ele>
        <time>2022-04-17T12:56:38Z</time>
      </trkpt>
      <trkpt lat="49.0603" lon="7.74593">
        <ele>218.5</ele>
        <time>2022-04-17T12:56:39Z</time>
      </trkpt>
      <trkpt lat="49.0603" lon="7.74593">
        <ele>218.5</ele>
        <time>2022-04-17T12:56:40Z</time>
      </trkpt>
      <trkpt lat="49.06029" lon="7.74594">
        <ele>218.5</ele>
        <time>2022-04-17T12:56:41Z</time>
      </trkpt>
      <trkpt lat="49.06029" lon="7.74595">
        <ele>218.5</ele>
        <time>2022-04-17T12:56:53Z</time>
      </trkpt>
      <trkpt lat="49.06029" lon="7.74595">
        <ele>218.5</ele>
        <time>2022-04-17T12:56:54Z</time>
      </trkpt>
      <trkpt lat="49.06033" lon="7.74588">
        <ele>218.5</ele>
        <time>2022-04-17T12:57:15Z</time>
      </trkpt>
      <trkpt lat="49.06033" lon="7.74588">
        <ele>218.5</ele>
        <time>2022-04-17T12:57:16Z</time>
      </trkpt>
      <trkpt lat="49.06033" lon="7.74588">
        <ele>218.5</ele>
        <time>2022-04-17T12:57:18Z</time>
      </trkpt>
      <trkpt lat="49.06033" lon="7.74588">
        <ele>218.5</ele>
        <time>2022-04-17T12:57:19Z</time>
      </trkpt>
      <trkpt lat="49.06033" lon="7.74588">
        <ele>218.5</ele>
        <time>2022-04-17T12:57:20Z</time>
      </trkpt>
      <trkpt lat="49.06033" lon="7.74588">
        <ele>218.5</ele>
        <time>2022-04-17T12:57:21Z</time>
      </trkpt>
      <trkpt lat="49.06034" lon="7.7459">
        <ele>218.5</ele>
        <time>2022-04-17T12:57:29Z</time>
      </trkpt>
      <trkpt lat="49.06034" lon="7.74589">
        <ele>218.5</ele>
        <time>2022-04-17T12:57:30Z</time>
      </trkpt>
      <trkpt lat="49.06034" lon="7.74589">
        <ele>218.5</ele>
        <time>2022-04-17T12:57:33Z</time>
      </trkpt>
      <trkpt lat="49.06034" lon="7.74589">
        <ele>218.5</ele>
        <time>2022-04-17T12:57:34Z</time>
      </trkpt>
      <trkpt lat="49.06036" lon="7.74591">
        <ele>218.5</ele>
        <time>2022-04-17T12:57:58Z</time>
      </trkpt>
      <trkpt lat="49.06036" lon="7.74591">
        <ele>218.5</ele>
        <time>2022-04-17T12:57:59Z</time>
      </trkpt>
      <trkpt lat="49.0604" lon="7.7458">
        <ele>218.5</ele>
        <time>2022-04-17T12:58:52Z</time>
      </trkpt>
      <trkpt lat="49.06042" lon="7.74579">
        <ele>218.5</ele>
        <time>2022-04-17T12:59:02Z</time>
      </trkpt>
      <trkpt lat="49.06043" lon="7.74578">
        <ele>218.4</ele>
        <time>2022-04-17T12:59:03Z</time>
      </trkpt>
      <trkpt lat="49.06034" lon="7.74585">
        <ele>218.4</ele>
        <time>2022-04-17T12:59:25Z</time>
      </trkpt>
      <trkpt lat="49.06033" lon="7.74588">
        <ele>218.4</ele>
        <time>2022-04-17T12:59:35Z</time>
      </trkpt>
      <trkpt lat="49.06033" lon="7.74587">
        <ele>218.4</ele>
        <time>2022-04-17T12:59:36Z</time>
      </trkpt>
      <trkpt lat="49.0603" lon="7.74588">
        <ele>218.4</ele>
        <time>2022-04-17T12:59:45Z</time>
      </trkpt>
      <trkpt lat="49.06029" lon="7.74589">
        <ele>218.4</ele>
        <time>2022-04-17T12:59:46Z</time>
      </trkpt>
      <trkpt lat="49.0603" lon="7.74589">
        <ele>218.4</ele>
        <time>2022-04-17T12:59:53Z</time>
      </trkpt>
      <trkpt lat="49.0603" lon="7.74589">
        <ele>218.4</ele>
        <time>2022-04-17T12:59:55Z</time>
      </trkpt>
      <trkpt lat="49.06036" lon="7.74583">
        <ele>218.4</ele>
        <time>2022-04-17T13:00:25Z</time>
      </trkpt>
      <trkpt lat="49.06036" lon="7.74584">
        <ele>218.4</ele>
        <time>2022-04-17T13:00:26Z</time>
      </trkpt>
      <trkpt lat="49.06035" lon="7.74587">
        <ele>218.4</ele>
        <time>2022-04-17T13:00:37Z</time>
      </trkpt>
      <trkpt lat="49.06035" lon="7.74586">
        <ele>218.4</ele>
        <time>2022-04-17T13:00:38Z</time>
      </trkpt>
      <trkpt lat="49.06035" lon="7.74585">
        <ele>218.4</ele>
        <time>2022-04-17T13:00:40Z</time>
      </trkpt>
      <trkpt lat="49.06035" lon="7.74586">
        <ele>218.4</ele>
        <time>2022-04-17T13:00:41Z</time>
      </trkpt>
      <trkpt lat="49.06033" lon="7.74588">
        <ele>218.4</ele>
        <time>2022-04-17T13:00:53Z</time>
      </trkpt>
      <trkpt lat="49.06032" lon="7.7459">
        <ele>218.4</ele>
        <time>2022-04-17T13:00:54Z</time>
      </trkpt>
      <trkpt lat="49.06032" lon="7.7459">
        <ele>218.4</ele>
        <time>2022-04-17T13:00:56Z</time>
      </trkpt>
      <trkpt lat="49.06033" lon="7.7459">
        <ele>218.4</ele>
        <time>2022-04-17T13:00:57Z</time>
      </trkpt>
      <trkpt lat="49.06034" lon="7.746">
        <ele>218.4</ele>
        <time>2022-04-17T13:01:16Z</time>
      </trkpt>
      <trkpt lat="49.06033" lon="7.74601">
        <ele>218.4</ele>
        <time>2022-04-17T13:01:17Z</time>
      </trkpt>
      <trkpt lat="49.0603" lon="7.74607">
        <ele>218.4</ele>
        <time>2022-04-17T13:01:23Z</time>
      </trkpt>
      <trkpt lat="49.0603" lon="7.74607">
        <ele>218.4</ele>
        <time>2022-04-17T13:01:24Z</time>
      </trkpt>
      <trkpt lat="49.06032" lon="7.74601">
        <ele>218.4</ele>
        <time>2022-04-17T13:01:39Z</time>
      </trkpt>
      <trkpt lat="49.06032" lon="7.74601">
        <ele>218.4</ele>
        <time>2022-04-17T13:01:40Z</time>
      </trkpt>
      <trkpt lat="49.06032" lon="7.74601">
        <ele>218.4</ele>
        <time>2022-04-17T13:01:41Z</time>
      </trkpt>
      <trkpt lat="49.06032" lon="7.74602">
        <ele>218.4</ele>
        <time>2022-04-17T13:01:42Z</time>
      </trkpt>
      <trkpt lat="49.06031" lon="7.74603">
        <ele>218.4</ele>
        <time>2022-04-17T13:01:45Z</time>
      </trkpt>
      <trkpt lat="49.06031" lon="7.74603">
        <ele>218.4</ele>
        <time>2022-04-17T13:01:46Z</time>
      </trkpt>
      <trkpt lat="49.0603" lon="7.74603">
        <ele>218.4</ele>
        <time>2022-04-17T13:01:53Z</time>
      </trkpt>
      <trkpt lat="49.0603" lon="7.74603">
        <ele>218.4</ele>
        <time>2022-04-17T13:01:55Z</time>
      </trkpt>
      <trkpt lat="49.06031" lon="7.74604">
        <ele>218.4</ele>
        <time>2022-04-17T13:01:57Z</time>
      </trkpt>
      <trkpt lat="49.0603" lon="7.74604">
        <ele>218.4</ele>
        <time>2022-04-17T13:01:58Z</time>
      </trkpt>
      <trkpt lat="49.06034" lon="7.74592">
        <ele>218.4</ele>
        <time>2022-04-17T13:02:31Z</time>
      </trkpt>
      <trkpt lat="49.06035" lon="7.7459">
        <ele>218.4</ele>
        <time>2022-04-17T13:02:34Z</time>
      </trkpt>
      <trkpt lat="49.06035" lon="7.7459">
        <ele>218.4</ele>
        <time>2022-04-17T13:02:35Z</time>
      </trkpt>
      <trkpt lat="49.0603" lon="7.74602">
        <ele>218.3</ele>
        <time>2022-04-17T13:03:04Z</time>
      </trkpt>
      <trkpt lat="49.06029" lon="7.74602">
        <ele>218.3</ele>
        <time>2022-04-17T13:03:07Z</time>
      </trkpt>
      <trkpt lat="49.06029" lon="7.74603">
        <ele>218.3</ele>
        <time>2022-04-17T13:03:08Z</time>
      </trkpt>
      <trkpt lat="49.06033" lon="7.74593">
        <ele>218.3</ele>
        <time>2022-04-17T13:03:37Z</time>
      </trkpt>
      <trkpt lat="49.06033" lon="7.74594">
        <ele>218.3</ele>
        <time>2022-04-17T13:03:38Z</time>
      </trkpt>
      <trkpt lat="49.06027" lon="7.74598">
        <ele>218.3</ele>
        <time>2022-04-17T13:04:13Z</time>
      </trkpt>
      <trkpt lat="49.06027" lon="7.74599">
        <ele>218.3</ele>
        <time>2022-04-17T13:04:14Z</time>
      </trkpt>
      <trkpt lat="49.06036" lon="7.74602">
        <ele>218.3</ele>
        <time>2022-04-17T13:04:29Z</time>
      </trkpt>
      <trkpt lat="49.06027" lon="7.74609">
        <ele>218.3</ele>
        <time>2022-04-17T13:04:50Z</time>
      </trkpt>
      <trkpt lat="49.06017" lon="7.74615">
        <ele>218.3</ele>
        <time>2022-04-17T13:04:55Z</time>
      </trkpt>
      <trkpt lat="49.06023" lon="7.74604">
        <ele>218.3</ele>
        <time>2022-04-17T13:05:12Z</time>
      </trkpt>
      <trkpt lat="49.0603" lon="7.74594">
        <ele>218.2</ele>
        <time>2022-04-17T13:05:19Z</time>
      </trkpt>
      <trkpt lat="49.06039" lon="7.74593">
        <ele>218.2</ele>
        <time>2022-04-17T13:05:27Z</time>
      </trkpt>
      <trkpt lat="49.06037" lon="7.7459">
        <ele>218.2</ele>
        <time>2022-04-17T13:06:04Z</time>
      </trkpt>
      <trkpt lat="49.06038" lon="7.74589">
        <ele>218.2</ele>
        <time>2022-04-17T13:06:05Z</time>
      </trkpt>
      <trkpt lat="49.06038" lon="7.74588">
        <ele>218.2</ele>
        <time>2022-04-17T13:06:07Z</time>
      </trkpt>
      <trkpt lat="49.06038" lon="7.74588">
        <ele>218.2</ele>
        <time>2022-04-17T13:06:08Z</time>
      </trkpt>
      <trkpt lat="49.06037" lon="7.74589">
        <ele>218.2</ele>
        <time>2022-04-17T13:06:12Z</time>
      </trkpt>
      <trkpt lat="49.06037" lon="7.74588">
        <ele>218.2</ele>
        <time>2022-04-17T13:06:14Z</time>
      </trkpt>
      <trkpt lat="49.06037" lon="7.74587">
        <ele>218.2</ele>
        <time>2022-04-17T13:06:18Z</time>
      </trkpt>
      <trkpt lat="49.06037" lon="7.74587">
        <ele>218.2</ele>
        <time>2022-04-17T13:06:19Z</time>
      </trkpt>
      <trkpt lat="49.06039" lon="7.7459">
        <ele>218.2</ele>
        <time>2022-04-17T13:06:28Z</time>
      </trkpt>
      <trkpt lat="49.06039" lon="7.7459">
        <ele>218.2</ele>
        <time>2022-04-17T13:06:30Z</time>
      </trkpt>
      <trkpt lat="49.06032" lon="7.74593">
        <ele>218.2</ele>
        <time>2022-04-17T13:07:24Z</time>
      </trkpt>
      <trkpt lat="49.06032" lon="7.74592">
        <ele>218.2</ele>
        <time>2022-04-17T13:07:25Z</time>
      </trkpt>
      <trkpt lat="49.06032" lon="7.74592">
        <ele>218.2</ele>
        <time>2022-04-17T13:07:26Z</time>
      </trkpt>
      <trkpt lat="49.06033" lon="7.74592">
        <ele>218.2</ele>
        <time>2022-04-17T13:07:27Z</time>
      </trkpt>
      <trkpt lat="49.0603" lon="7.74607">
        <ele>218.2</ele>
        <time>2022-04-17T13:07:41Z</time>
      </trkpt>
      <trkpt lat="49.06029" lon="7.74622">
        <ele>218.2</ele>
        <time>2022-04-17T13:07:49Z</time>
      </trkpt>
      <trkpt lat="49.06037" lon="7.74628">
        <ele>218.2</ele>
        <time>2022-04-17T13:08:04Z</time>
      </trkpt>
      <trkpt lat="49.06041" lon="7.74629">
        <ele>218.1</ele>
        <time>2022-04-17T13:08:25Z</time>
      </trkpt>
      <trkpt lat="49.06041" lon="7.74629">
        <ele>218.1</ele>
        <time>2022-04-17T13:08:26Z</time>
      </trkpt>
      <trkpt lat="49.0604" lon="7.74629">
        <ele>218.1</ele>
        <time>2022-04-17T13:09:04Z</time>
      </trkpt>
      <trkpt lat="49.0604" lon="7.74629">
        <ele>218.1</ele>
        <time>2022-04-17T13:09:05Z</time>
      </trkpt>
      <trkpt lat="49.06037" lon="7.74643">
        <ele>218</ele>
        <time>2022-04-17T13:09:17Z</time>
      </trkpt>
      <trkpt lat="49.0604" lon="7.74645">
        <ele>218</ele>
        <time>2022-04-17T13:09:27Z</time>
      </trkpt>
      <trkpt lat="49.0604" lon="7.74645">
        <ele>218</ele>
        <time>2022-04-17T13:09:28Z</time>
      </trkpt>
      <trkpt lat="49.0604" lon="7.74647">
        <ele>218</ele>
        <time>2022-04-17T13:09:36Z</time>
      </trkpt>
      <trkpt lat="49.06039" lon="7.74647">
        <ele>218</ele>
        <time>2022-04-17T13:09:38Z</time>
      </trkpt>
      <trkpt lat="49.06039" lon="7.74648">
        <ele>218</ele>
        <time>2022-04-17T13:09:39Z</time>
      </trkpt>
      <trkpt lat="49.06039" lon="7.74649">
        <ele>218</ele>
        <time>2022-04-17T13:09:40Z</time>
      </trkpt>
      <trkpt lat="49.06038" lon="7.7465">
        <ele>218</ele>
        <time>2022-04-17T13:09:42Z</time>
      </trkpt>
      <trkpt lat="49.06038" lon="7.74649">
        <ele>218</ele>
        <time>2022-04-17T13:09:43Z</time>
      </trkpt>
      <trkpt lat="49.06035" lon="7.74651">
        <ele>218</ele>
        <time>2022-04-17T13:09:50Z</time>
      </trkpt>
      <trkpt lat="49.06035" lon="7.74651">
        <ele>217.9</ele>
        <time>2022-04-17T13:09:51Z</time>
      </trkpt>
      <trkpt lat="49.06037" lon="7.74652">
        <ele>217.9</ele>
        <time>2022-04-17T13:10:00Z</time>
      </trkpt>
      <trkpt lat="49.06037" lon="7.74652">
        <ele>217.9</ele>
        <time>2022-04-17T13:10:01Z</time>
      </trkpt>
      <trkpt lat="49.06036" lon="7.74651">
        <ele>217.9</ele>
        <time>2022-04-17T13:10:03Z</time>
      </trkpt>
      <trkpt lat="49.06036" lon="7.74651">
        <ele>217.9</ele>
        <time>2022-04-17T13:10:04Z</time>
      </trkpt>
      <trkpt lat="49.06036" lon="7.74651">
        <ele>217.9</ele>
        <time>2022-04-17T13:10:05Z</time>
      </trkpt>
      <trkpt lat="49.06036" lon="7.74651">
        <ele>217.9</ele>
        <time>2022-04-17T13:10:06Z</time>
      </trkpt>
      <trkpt lat="49.06035" lon="7.74651">
        <ele>217.9</ele>
        <time>2022-04-17T13:10:10Z</time>
      </trkpt>
      <trkpt lat="49.06035" lon="7.7465">
        <ele>217.9</ele>
        <time>2022-04-17T13:10:11Z</time>
      </trkpt>
      <trkpt lat="49.06032" lon="7.74649">
        <ele>217.9</ele>
        <time>2022-04-17T13:10:19Z</time>
      </trkpt>
      <trkpt lat="49.06032" lon="7.74649">
        <ele>217.9</ele>
        <time>2022-04-17T13:10:32Z</time>
      </trkpt>
      <trkpt lat="49.06031" lon="7.74651">
        <ele>217.9</ele>
        <time>2022-04-17T13:10:41Z</time>
      </trkpt>
      <trkpt lat="49.06031" lon="7.7465">
        <ele>217.9</ele>
        <time>2022-04-17T13:10:42Z</time>
      </trkpt>
      <trkpt lat="49.06032" lon="7.74651">
        <ele>217.9</ele>
        <time>2022-04-17T13:10:47Z</time>
      </trkpt>
      <trkpt lat="49.06032" lon="7.74652">
        <ele>217.9</ele>
        <time>2022-04-17T13:10:50Z</time>
      </trkpt>
      <trkpt lat="49.06032" lon="7.74653">
        <ele>217.9</ele>
        <time>2022-04-17T13:10:53Z</time>
      </trkpt>
      <trkpt lat="49.06032" lon="7.74653">
        <ele>217.9</ele>
        <time>2022-04-17T13:10:56Z</time>
      </trkpt>
      <trkpt lat="49.06032" lon="7.74653">
        <ele>217.9</ele>
        <time>2022-04-17T13:10:57Z</time>
      </trkpt>
      <trkpt lat="49.06032" lon="7.74652">
        <ele>217.9</ele>
        <time>2022-04-17T13:11:07Z</time>
      </trkpt>
      <trkpt lat="49.06034" lon="7.7465">
        <ele>217.9</ele>
        <time>2022-04-17T13:11:16Z</time>
      </trkpt>
      <trkpt lat="49.06034" lon="7.7465">
        <ele>217.9</ele>
        <time>2022-04-17T13:11:18Z</time>
      </trkpt>
      <trkpt lat="49.06034" lon="7.7465">
        <ele>217.9</ele>
        <time>2022-04-17T13:11:19Z</time>
      </trkpt>
      <trkpt lat="49.06034" lon="7.7465">
        <ele>217.9</ele>
        <time>2022-04-17T13:11:22Z</time>
      </trkpt>
      <trkpt lat="49.06032" lon="7.74652">
        <ele>217.9</ele>
        <time>2022-04-17T13:11:37Z</time>
      </trkpt>
      <trkpt lat="49.06033" lon="7.74653">
        <ele>217.9</ele>
        <time>2022-04-17T13:11:38Z</time>
      </trkpt>
      <trkpt lat="49.06036" lon="7.74655">
        <ele>217.9</ele>
        <time>2022-04-17T13:11:43Z</time>
      </trkpt>
      <trkpt lat="49.06036" lon="7.74655">
        <ele>217.9</ele>
        <time>2022-04-17T13:11:44Z</time>
      </trkpt>
      <trkpt lat="49.06036" lon="7.74652">
        <ele>217.9</ele>
        <time>2022-04-17T13:11:51Z</time>
      </trkpt>
      <trkpt lat="49.06036" lon="7.74652">
        <ele>217.9</ele>
        <time>2022-04-17T13:11:53Z</time>
      </trkpt>
      <trkpt lat="49.06035" lon="7.74651">
        <ele>217.9</ele>
        <time>2022-04-17T13:11:56Z</time>
      </trkpt>
      <trkpt lat="49.06035" lon="7.74651">
        <ele>217.9</ele>
        <time>2022-04-17T13:11:57Z</time>
      </trkpt>
      <trkpt lat="49.06035" lon="7.74649">
        <ele>217.9</ele>
        <time>2022-04-17T13:12:00Z</time>
      </trkpt>
      <trkpt lat="49.06035" lon="7.74649">
        <ele>217.9</ele>
        <time>2022-04-17T13:12:01Z</time>
      </trkpt>
      <trkpt lat="49.06035" lon="7.74649">
        <ele>217.9</ele>
        <time>2022-04-17T13:12:02Z</time>
      </trkpt>
      <trkpt lat="49.06035" lon="7.74649">
        <ele>217.9</ele>
        <time>2022-04-17T13:12:30Z</time>
      </trkpt>
      <trkpt lat="49.06035" lon="7.74649">
        <ele>217.9</ele>
        <time>2022-04-17T13:12:31Z</time>
      </trkpt>
      <trkpt lat="49.06035" lon="7.7465">
        <ele>217.9</ele>
        <time>2022-04-17T13:12:35Z</time>
      </trkpt>
      <trkpt lat="49.06035" lon="7.7465">
        <ele>217.9</ele>
        <time>2022-04-17T13:12:36Z</time>
      </trkpt>
      <trkpt lat="49.06035" lon="7.7465">
        <ele>217.9</ele>
        <time>2022-04-17T13:12:38Z</time>
      </trkpt>
      <trkpt lat="49.06035" lon="7.74651">
        <ele>217.9</ele>
        <time>2022-04-17T13:12:40Z</time>
      </trkpt>
      <trkpt lat="49.06035" lon="7.74651">
        <ele>217.9</ele>
        <time>2022-04-17T13:12:42Z</time>
      </trkpt>
      <trkpt lat="49.06035" lon="7.74651">
        <ele>217.9</ele>
        <time>2022-04-17T13:12:43Z</time>
      </trkpt>
      <trkpt lat="49.06035" lon="7.74651">
        <ele>217.9</ele>
        <time>2022-04-17T13:12:50Z</time>
      </trkpt>
      <trkpt lat="49.06035" lon="7.74651">
        <ele>217.9</ele>
        <time>2022-04-17T13:12:52Z</time>
      </trkpt>
      <trkpt lat="49.06035" lon="7.74651">
        <ele>217.9</ele>
        <time>2022-04-17T13:12:54Z</time>
      </trkpt>
      <trkpt lat="49.06035" lon="7.74651">
        <ele>217.9</ele>
        <time>2022-04-17T13:12:55Z</time>
      </trkpt>
      <trkpt lat="49.06035" lon="7.74651">
        <ele>217.9</ele>
        <time>2022-04-17T13:12:57Z</time>
      </trkpt>
      <trkpt lat="49.06035" lon="7.74651">
        <ele>217.9</ele>
        <time>2022-04-17T13:13:00Z</time>
      </trkpt>
      <trkpt lat="49.06035" lon="7.7465">
        <ele>217.9</ele>
        <time>2022-04-17T13:13:01Z</time>
      </trkpt>
      <trkpt lat="49.06036" lon="7.74649">
        <ele>217.9</ele>
        <time>2022-04-17T13:13:05Z</time>
      </trkpt>
      <trkpt lat="49.06036" lon="7.74648">
        <ele>217.9</ele>
        <time>2022-04-17T13:13:06Z</time>
      </trkpt>
      <trkpt lat="49.06036" lon="7.74648">
        <ele>217.9</ele>
        <time>2022-04-17T13:13:07Z</time>
      </trkpt>
      <trkpt lat="49.06037" lon="7.74648">
        <ele>217.9</ele>
        <time>2022-04-17T13:13:09Z</time>
      </trkpt>
      <trkpt lat="49.06037" lon="7.74648">
        <ele>217.9</ele>
        <time>2022-04-17T13:13:12Z</time>
      </trkpt>
      <trkpt lat="49.06037" lon="7.74648">
        <ele>217.9</ele>
        <time>2022-04-17T13:13:17Z</time>
      </trkpt>
      <trkpt lat="49.06037" lon="7.74648">
        <ele>217.9</ele>
        <time>2022-04-17T13:13:18Z</time>
      </trkpt>
      <trkpt lat="49.06037" lon="7.74648">
        <ele>217.9</ele>
        <time>2022-04-17T13:13:19Z</time>
      </trkpt>
      <trkpt lat="49.06037" lon="7.74648">
        <ele>217.9</ele>
        <time>2022-04-17T13:13:21Z</time>
      </trkpt>
      <trkpt lat="49.06037" lon="7.74648">
        <ele>217.9</ele>
        <time>2022-04-17T13:13:23Z</time>
      </trkpt>
      <trkpt lat="49.06037" lon="7.74648">
        <ele>217.9</ele>
        <time>2022-04-17T13:13:26Z</time>
      </trkpt>
      <trkpt lat="49.06037" lon="7.74648">
        <ele>217.9</ele>
        <time>2022-04-17T13:13:27Z</time>
      </trkpt>
      <trkpt lat="49.06037" lon="7.74647">
        <ele>217.9</ele>
        <time>2022-04-17T13:13:35Z</time>
      </trkpt>
      <trkpt lat="49.06037" lon="7.74648">
        <ele>217.9</ele>
        <time>2022-04-17T13:13:36Z</time>
      </trkpt>
      <trkpt lat="49.06039" lon="7.74646">
        <ele>217.9</ele>
        <time>2022-04-17T13:14:02Z</time>
      </trkpt>
      <trkpt lat="49.06039" lon="7.74646">
        <ele>217.9</ele>
        <time>2022-04-17T13:14:07Z</time>
      </trkpt>
      <trkpt lat="49.06039" lon="7.74646">
        <ele>217.9</ele>
        <time>2022-04-17T13:14:08Z</time>
      </trkpt>
      <trkpt lat="49.06039" lon="7.74648">
        <ele>217.9</ele>
        <time>2022-04-17T13:14:11Z</time>
      </trkpt>
      <trkpt lat="49.06037" lon="7.74645">
        <ele>217.8</ele>
        <time>2022-04-17T13:14:22Z</time>
      </trkpt>
      <trkpt lat="49.06037" lon="7.74645">
        <ele>217.8</ele>
        <time>2022-04-17T13:14:23Z</time>
      </trkpt>
      <trkpt lat="49.06037" lon="7.74645">
        <ele>217.8</ele>
        <time>2022-04-17T13:14:24Z</time>
      </trkpt>
      <trkpt lat="49.06037" lon="7.74646">
        <ele>217.8</ele>
        <time>2022-04-17T13:14:26Z</time>
      </trkpt>
      <trkpt lat="49.06036" lon="7.74647">
        <ele>217.8</ele>
        <time>2022-04-17T13:14:31Z</time>
      </trkpt>
      <trkpt lat="49.06036" lon="7.74647">
        <ele>217.8</ele>
        <time>2022-04-17T13:14:32Z</time>
      </trkpt>
      <trkpt lat="49.06038" lon="7.74647">
        <ele>217.8</ele>
        <time>2022-04-17T13:14:39Z</time>
      </trkpt>
      <trkpt lat="49.06038" lon="7.74646">
        <ele>217.8</ele>
        <time>2022-04-17T13:14:40Z</time>
      </trkpt>
      <trkpt lat="49.06038" lon="7.74646">
        <ele>217.8</ele>
        <time>2022-04-17T13:14:41Z</time>
      </trkpt>
      <trkpt lat="49.06038" lon="7.74646">
        <ele>217.8</ele>
        <time>2022-04-17T13:14:42Z</time>
      </trkpt>
      <trkpt lat="49.06038" lon="7.74647">
        <ele>217.8</ele>
        <time>2022-04-17T13:14:45Z</time>
      </trkpt>
      <trkpt lat="49.06038" lon="7.74647">
        <ele>217.8</ele>
        <time>2022-04-17T13:14:47Z</time>
      </trkpt>
      <trkpt lat="49.06037" lon="7.7465">
        <ele>217.8</ele>
        <time>2022-04-17T13:14:54Z</time>
      </trkpt>
      <trkpt lat="49.06038" lon="7.7465">
        <ele>217.8</ele>
        <time>2022-04-17T13:14:55Z</time>
      </trkpt>
      <trkpt lat="49.06032" lon="7.74662">
        <ele>217.8</ele>
        <time>2022-04-17T13:15:06Z</time>
      </trkpt>
      <trkpt lat="49.06031" lon="7.74676">
        <ele>217.8</ele>
        <time>2022-04-17T13:15:14Z</time>
      </trkpt>
      <trkpt lat="49.06032" lon="7.7469">
        <ele>217.8</ele>
        <time>2022-04-17T13:15:25Z</time>
      </trkpt>
      <trkpt lat="49.06033" lon="7.74705">
        <ele>217.8</ele>
        <time>2022-04-17T13:15:33Z</time>
      </trkpt>
      <trkpt lat="49.06033" lon="7.74718">
        <ele>217.8</ele>
        <time>2022-04-17T13:15:40Z</time>
      </trkpt>
      <trkpt lat="49.06031" lon="7.74732">
        <ele>217.9</ele>
        <time>2022-04-17T13:15:47Z</time>
      </trkpt>
      <trkpt lat="49.06032" lon="7.74746">
        <ele>217.9</ele>
        <time>2022-04-17T13:15:53Z</time>
      </trkpt>
      <trkpt lat="49.06035" lon="7.74759">
        <ele>218</ele>
        <time>2022-04-17T13:16:00Z</time>
      </trkpt>
      <trkpt lat="49.06041" lon="7.74771">
        <ele>218.2</ele>
        <time>2022-04-17T13:16:09Z</time>
      </trkpt>
      <trkpt lat="49.06043" lon="7.74784">
        <ele>218.2</ele>
        <time>2022-04-17T13:16:16Z</time>
      </trkpt>
      <trkpt lat="49.06044" lon="7.74798">
        <ele>218.9</ele>
        <time>2022-04-17T13:16:22Z</time>
      </trkpt>
      <trkpt lat="49.06046" lon="7.74811">
        <ele>219.2</ele>
        <time>2022-04-17T13:16:29Z</time>
      </trkpt>
      <trkpt lat="49.0605" lon="7.74824">
        <ele>219.6</ele>
        <time>2022-04-17T13:16:39Z</time>
      </trkpt>
      <trkpt lat="49.06057" lon="7.74836">
        <ele>220</ele>
        <time>2022-04-17T13:16:49Z</time>
      </trkpt>
      <trkpt lat="49.06058" lon="7.74842">
        <ele>220.1</ele>
        <time>2022-04-17T13:16:56Z</time>
      </trkpt>
      <trkpt lat="49.06059" lon="7.74842">
        <ele>220.1</ele>
        <time>2022-04-17T13:17:01Z</time>
      </trkpt>
      <trkpt lat="49.06059" lon="7.74842">
        <ele>220.1</ele>
        <time>2022-04-17T13:17:02Z</time>
      </trkpt>
      <trkpt lat="49.06059" lon="7.74842">
        <ele>220.1</ele>
        <time>2022-04-17T13:17:04Z</time>
      </trkpt>
      <trkpt lat="49.06059" lon="7.74842">
        <ele>220.1</ele>
        <time>2022-04-17T13:17:06Z</time>
      </trkpt>
      <trkpt lat="49.06059" lon="7.74842">
        <ele>220.1</ele>
        <time>2022-04-17T13:17:25Z</time>
      </trkpt>
      <trkpt lat="49.06059" lon="7.74841">
        <ele>220.1</ele>
        <time>2022-04-17T13:17:27Z</time>
      </trkpt>
      <trkpt lat="49.06059" lon="7.74842">
        <ele>220.1</ele>
        <time>2022-04-17T13:17:40Z</time>
      </trkpt>
      <trkpt lat="49.06058" lon="7.74842">
        <ele>220.1</ele>
        <time>2022-04-17T13:17:44Z</time>
      </trkpt>
      <trkpt lat="49.06058" lon="7.74841">
        <ele>220.1</ele>
        <time>2022-04-17T13:17:47Z</time>
      </trkpt>
      <trkpt lat="49.06058" lon="7.74841">
        <ele>220.1</ele>
        <time>2022-04-17T13:17:50Z</time>
      </trkpt>
      <trkpt lat="49.06058" lon="7.7484">
        <ele>220.2</ele>
        <time>2022-04-17T13:17:54Z</time>
      </trkpt>
      <trkpt lat="49.06058" lon="7.7484">
        <ele>220.2</ele>
        <time>2022-04-17T13:17:55Z</time>
      </trkpt>
      <trkpt lat="49.06058" lon="7.7484">
        <ele>220.2</ele>
        <time>2022-04-17T13:17:58Z</time>
      </trkpt>
      <trkpt lat="49.06058" lon="7.7484">
        <ele>220.2</ele>
        <time>2022-04-17T13:17:59Z</time>
      </trkpt>
      <trkpt lat="49.06058" lon="7.74839">
        <ele>220.2</ele>
        <time>2022-04-17T13:18:26Z</time>
      </trkpt>
      <trkpt lat="49.06058" lon="7.74839">
        <ele>220.2</ele>
        <time>2022-04-17T13:18:28Z</time>
      </trkpt>
      <trkpt lat="49.06058" lon="7.74839">
        <ele>220.2</ele>
        <time>2022-04-17T13:18:37Z</time>
      </trkpt>
      <trkpt lat="49.06058" lon="7.74839">
        <ele>220.2</ele>
        <time>2022-04-17T13:18:38Z</time>
      </trkpt>
      <trkpt lat="49.06058" lon="7.74839">
        <ele>220.2</ele>
        <time>2022-04-17T13:18:41Z</time>
      </trkpt>
      <trkpt lat="49.06057" lon="7.74839">
        <ele>220.2</ele>
        <time>2022-04-17T13:18:44Z</time>
      </trkpt>
      <trkpt lat="49.06058" lon="7.74839">
        <ele>220.2</ele>
        <time>2022-04-17T13:18:51Z</time>
      </trkpt>
      <trkpt lat="49.06058" lon="7.7484">
        <ele>220.2</ele>
        <time>2022-04-17T13:18:55Z</time>
      </trkpt>
      <trkpt lat="49.06059" lon="7.7484">
        <ele>220.2</ele>
        <time>2022-04-17T13:18:56Z</time>
      </trkpt>
      <trkpt lat="49.06058" lon="7.7484">
        <ele>220.2</ele>
        <time>2022-04-17T13:18:58Z</time>
      </trkpt>
      <trkpt lat="49.06059" lon="7.7484">
        <ele>220.2</ele>
        <time>2022-04-17T13:19:05Z</time>
      </trkpt>
      <trkpt lat="49.06059" lon="7.7484">
        <ele>220.2</ele>
        <time>2022-04-17T13:19:07Z</time>
      </trkpt>
      <trkpt lat="49.06059" lon="7.7484">
        <ele>220.2</ele>
        <time>2022-04-17T13:19:09Z</time>
      </trkpt>
      <trkpt lat="49.06059" lon="7.7484">
        <ele>220.2</ele>
        <time>2022-04-17T13:19:10Z</time>
      </trkpt>
      <trkpt lat="49.06059" lon="7.74839">
        <ele>220.2</ele>
        <time>2022-04-17T13:19:16Z</time>
      </trkpt>
      <trkpt lat="49.06059" lon="7.74839">
        <ele>220.2</ele>
        <time>2022-04-17T13:19:19Z</time>
      </trkpt>
      <trkpt lat="49.06059" lon="7.74839">
        <ele>220.3</ele>
        <time>2022-04-17T13:19:20Z</time>
      </trkpt>
      <trkpt lat="49.06058" lon="7.74839">
        <ele>220.3</ele>
        <time>2022-04-17T13:19:22Z</time>
      </trkpt>
      <trkpt lat="49.06059" lon="7.74839">
        <ele>220.3</ele>
        <time>2022-04-17T13:19:24Z</time>
      </trkpt>
      <trkpt lat="49.06059" lon="7.74839">
        <ele>220.3</ele>
        <time>2022-04-17T13:19:25Z</time>
      </trkpt>
      <trkpt lat="49.06059" lon="7.74839">
        <ele>220.3</ele>
        <time>2022-04-17T13:19:34Z</time>
      </trkpt>
      <trkpt lat="49.06059" lon="7.74839">
        <ele>220.3</ele>
        <time>2022-04-17T13:19:35Z</time>
      </trkpt>
      <trkpt lat="49.06059" lon="7.74839">
        <ele>220.3</ele>
        <time>2022-04-17T13:19:52Z</time>
      </trkpt>
      <trkpt lat="49.06059" lon="7.74839">
        <ele>220.3</ele>
        <time>2022-04-17T13:19:55Z</time>
      </trkpt>
      <trkpt lat="49.06059" lon="7.74839">
        <ele>220.3</ele>
        <time>2022-04-17T13:20:01Z</time>
      </trkpt>
      <trkpt lat="49.06059" lon="7.74839">
        <ele>220.3</ele>
        <time>2022-04-17T13:20:02Z</time>
      </trkpt>
      <trkpt lat="49.06059" lon="7.74839">
        <ele>220.3</ele>
        <time>2022-04-17T13:20:05Z</time>
      </trkpt>
      <trkpt lat="49.06059" lon="7.74839">
        <ele>220.3</ele>
        <time>2022-04-17T13:20:08Z</time>
      </trkpt>
      <trkpt lat="49.06059" lon="7.74839">
        <ele>220.3</ele>
        <time>2022-04-17T13:20:11Z</time>
      </trkpt>
      <trkpt lat="49.06059" lon="7.74839">
        <ele>220.3</ele>
        <time>2022-04-17T13:20:13Z</time>
      </trkpt>
      <trkpt lat="49.06059" lon="7.74839">
        <ele>220.3</ele>
        <time>2022-04-17T13:20:20Z</time>
      </trkpt>
      <trkpt lat="49.06057" lon="7.7484">
        <ele>220.3</ele>
        <time>2022-04-17T13:20:25Z</time>
      </trkpt>
      <trkpt lat="49.06057" lon="7.7484">
        <ele>220.3</ele>
        <time>2022-04-17T13:20:27Z</time>
      </trkpt>
      <trkpt lat="49.06057" lon="7.7484">
        <ele>220.3</ele>
        <time>2022-04-17T13:20:28Z</time>
      </trkpt>
      <trkpt lat="49.06057" lon="7.74841">
        <ele>220.3</ele>
        <time>2022-04-17T13:20:29Z</time>
      </trkpt>
      <trkpt lat="49.06057" lon="7.74841">
        <ele>220.4</ele>
        <time>2022-04-17T13:20:33Z</time>
      </trkpt>
      <trkpt lat="49.06056" lon="7.74841">
        <ele>220.4</ele>
        <time>2022-04-17T13:20:34Z</time>
      </trkpt>
      <trkpt lat="49.06056" lon="7.74842">
        <ele>220.4</ele>
        <time>2022-04-17T13:20:36Z</time>
      </trkpt>
      <trkpt lat="49.06056" lon="7.74842">
        <ele>220.4</ele>
        <time>2022-04-17T13:20:37Z</time>
      </trkpt>
      <trkpt lat="49.06055" lon="7.74842">
        <ele>220.4</ele>
        <time>2022-04-17T13:20:39Z</time>
      </trkpt>
      <trkpt lat="49.06055" lon="7.74842">
        <ele>220.4</ele>
        <time>2022-04-17T13:20:42Z</time>
      </trkpt>
      <trkpt lat="49.06062" lon="7.74852">
        <ele>220.6</ele>
        <time>2022-04-17T13:20:52Z</time>
      </trkpt>
      <trkpt lat="49.06069" lon="7.74862">
        <ele>221.1</ele>
        <time>2022-04-17T13:21:01Z</time>
      </trkpt>
      <trkpt lat="49.06073" lon="7.74874">
        <ele>221.6</ele>
        <time>2022-04-17T13:21:09Z</time>
      </trkpt>
      <trkpt lat="49.06076" lon="7.74888">
        <ele>222.3</ele>
        <time>2022-04-17T13:21:18Z</time>
      </trkpt>
      <trkpt lat="49.06077" lon="7.74894">
        <ele>222.7</ele>
        <time>2022-04-17T13:21:27Z</time>
      </trkpt>
      <trkpt lat="49.06077" lon="7.74895">
        <ele>222.7</ele>
        <time>2022-04-17T13:21:28Z</time>
      </trkpt>
      <trkpt lat="49.0608" lon="7.74907">
        <ele>223</ele>
        <time>2022-04-17T13:21:41Z</time>
      </trkpt>
      <trkpt lat="49.0608" lon="7.74907">
        <ele>223</ele>
        <time>2022-04-17T13:21:42Z</time>
      </trkpt>
      <trkpt lat="49.06081" lon="7.74906">
        <ele>223.1</ele>
        <time>2022-04-17T13:21:48Z</time>
      </trkpt>
      <trkpt lat="49.06081" lon="7.74906">
        <ele>223.1</ele>
        <time>2022-04-17T13:21:49Z</time>
      </trkpt>
      <trkpt lat="49.06082" lon="7.74905">
        <ele>223.1</ele>
        <time>2022-04-17T13:21:51Z</time>
      </trkpt>
      <trkpt lat="49.06082" lon="7.74906">
        <ele>223.1</ele>
        <time>2022-04-17T13:21:54Z</time>
      </trkpt>
      <trkpt lat="49.06082" lon="7.74906">
        <ele>223.1</ele>
        <time>2022-04-17T13:21:55Z</time>
      </trkpt>
      <trkpt lat="49.06082" lon="7.74906">
        <ele>223.2</ele>
        <time>2022-04-17T13:22:04Z</time>
      </trkpt>
      <trkpt lat="49.06082" lon="7.74907">
        <ele>223.2</ele>
        <time>2022-04-17T13:22:07Z</time>
      </trkpt>
      <trkpt lat="49.06082" lon="7.74907">
        <ele>223.2</ele>
        <time>2022-04-17T13:22:14Z</time>
      </trkpt>
      <trkpt lat="49.06082" lon="7.74907">
        <ele>223.2</ele>
        <time>2022-04-17T13:22:16Z</time>
      </trkpt>
      <trkpt lat="49.06082" lon="7.74908">
        <ele>223.2</ele>
        <time>2022-04-17T13:22:17Z</time>
      </trkpt>
      <trkpt lat="49.06083" lon="7.7491">
        <ele>223.2</ele>
        <time>2022-04-17T13:22:38Z</time>
      </trkpt>
      <trkpt lat="49.06083" lon="7.74909">
        <ele>223.2</ele>
        <time>2022-04-17T13:22:39Z</time>
      </trkpt>
      <trkpt lat="49.06082" lon="7.74909">
        <ele>223.2</ele>
        <time>2022-04-17T13:22:41Z</time>
      </trkpt>
      <trkpt lat="49.06082" lon="7.74909">
        <ele>223.3</ele>
        <time>2022-04-17T13:23:01Z</time>
      </trkpt>
      <trkpt lat="49.06082" lon="7.74909">
        <ele>223.3</ele>
        <time>2022-04-17T13:23:02Z</time>
      </trkpt>
      <trkpt lat="49.06082" lon="7.74909">
        <ele>223.3</ele>
        <time>2022-04-17T13:23:04Z</time>
      </trkpt>
      <trkpt lat="49.06091" lon="7.74914">
        <ele>223.4</ele>
        <time>2022-04-17T13:23:13Z</time>
      </trkpt>
      <trkpt lat="49.06092" lon="7.74916">
        <ele>223.4</ele>
        <time>2022-04-17T13:23:23Z</time>
      </trkpt>
      <trkpt lat="49.06092" lon="7.74917">
        <ele>223.4</ele>
        <time>2022-04-17T13:23:24Z</time>
      </trkpt>
      <trkpt lat="49.06094" lon="7.74916">
        <ele>223.4</ele>
        <time>2022-04-17T13:23:29Z</time>
      </trkpt>
      <trkpt lat="49.06094" lon="7.74916">
        <ele>223.4</ele>
        <time>2022-04-17T13:23:34Z</time>
      </trkpt>
      <trkpt lat="49.06094" lon="7.74915">
        <ele>223.5</ele>
        <time>2022-04-17T13:23:37Z</time>
      </trkpt>
      <trkpt lat="49.06094" lon="7.74915">
        <ele>223.5</ele>
        <time>2022-04-17T13:23:40Z</time>
      </trkpt>
      <trkpt lat="49.06094" lon="7.74915">
        <ele>223.5</ele>
        <time>2022-04-17T13:23:41Z</time>
      </trkpt>
      <trkpt lat="49.06095" lon="7.74914">
        <ele>223.5</ele>
        <time>2022-04-17T13:23:49Z</time>
      </trkpt>
      <trkpt lat="49.06095" lon="7.74914">
        <ele>223.5</ele>
        <time>2022-04-17T13:23:50Z</time>
      </trkpt>
      <trkpt lat="49.06094" lon="7.74914">
        <ele>223.5</ele>
        <time>2022-04-17T13:23:52Z</time>
      </trkpt>
      <trkpt lat="49.06095" lon="7.74916">
        <ele>223.5</ele>
        <time>2022-04-17T13:23:57Z</time>
      </trkpt>
      <trkpt lat="49.06095" lon="7.74916">
        <ele>223.5</ele>
        <time>2022-04-17T13:24:10Z</time>
      </trkpt>
      <trkpt lat="49.06095" lon="7.74914">
        <ele>223.5</ele>
        <time>2022-04-17T13:24:13Z</time>
      </trkpt>
      <trkpt lat="49.06095" lon="7.74914">
        <ele>223.5</ele>
        <time>2022-04-17T13:24:14Z</time>
      </trkpt>
      <trkpt lat="49.06096" lon="7.74913">
        <ele>223.5</ele>
        <time>2022-04-17T13:24:18Z</time>
      </trkpt>
      <trkpt lat="49.06096" lon="7.74913">
        <ele>223.5</ele>
        <time>2022-04-17T13:24:21Z</time>
      </trkpt>
      <trkpt lat="49.06096" lon="7.74913">
        <ele>223.5</ele>
        <time>2022-04-17T13:24:22Z</time>
      </trkpt>
      <trkpt lat="49.06096" lon="7.74913">
        <ele>223.5</ele>
        <time>2022-04-17T13:24:23Z</time>
      </trkpt>
      <trkpt lat="49.06096" lon="7.74913">
        <ele>223.5</ele>
        <time>2022-04-17T13:24:24Z</time>
      </trkpt>
      <trkpt lat="49.06096" lon="7.74914">
        <ele>223.5</ele>
        <time>2022-04-17T13:24:28Z</time>
      </trkpt>
      <trkpt lat="49.06099" lon="7.74927">
        <ele>223.5</ele>
        <time>2022-04-17T13:24:36Z</time>
      </trkpt>
      <trkpt lat="49.06101" lon="7.74942">
        <ele>223.5</ele>
        <time>2022-04-17T13:24:43Z</time>
      </trkpt>
      <trkpt lat="49.06108" lon="7.74953">
        <ele>228.5</ele>
        <time>2022-04-17T13:24:52Z</time>
      </trkpt>
      <trkpt lat="49.06119" lon="7.74953">
        <ele>227.8</ele>
        <time>2022-04-17T13:24:59Z</time>
      </trkpt>
      <trkpt lat="49.06126" lon="7.74943">
        <ele>227.2</ele>
        <time>2022-04-17T13:25:07Z</time>
      </trkpt>
      <trkpt lat="49.06126" lon="7.74928">
        <ele>226.7</ele>
        <time>2022-04-17T13:25:15Z</time>
      </trkpt>
      <trkpt lat="49.06125" lon="7.74913">
        <ele>226.1</ele>
        <time>2022-04-17T13:25:23Z</time>
      </trkpt>
      <trkpt lat="49.06123" lon="7.74899">
        <ele>225.6</ele>
        <time>2022-04-17T13:25:30Z</time>
      </trkpt>
      <trkpt lat="49.0612" lon="7.74885">
        <ele>225.1</ele>
        <time>2022-04-17T13:25:38Z</time>
      </trkpt>
      <trkpt lat="49.06119" lon="7.74871">
        <ele>224.3</ele>
        <time>2022-04-17T13:25:46Z</time>
      </trkpt>
      <trkpt lat="49.06119" lon="7.74855">
        <ele>222.9</ele>
        <time>2022-04-17T13:25:54Z</time>
      </trkpt>
      <trkpt lat="49.06122" lon="7.74842">
        <ele>221.4</ele>
        <time>2022-04-17T13:26:01Z</time>
      </trkpt>
      <trkpt lat="49.06126" lon="7.74839">
        <ele>221.3</ele>
        <time>2022-04-17T13:26:07Z</time>
      </trkpt>
      <trkpt lat="49.06126" lon="7.74839">
        <ele>221.3</ele>
        <time>2022-04-17T13:26:08Z</time>
      </trkpt>
      <trkpt lat="49.06133" lon="7.74849">
        <ele>221.2</ele>
        <time>2022-04-17T13:26:17Z</time>
      </trkpt>
      <trkpt lat="49.06139" lon="7.7486">
        <ele>226.5</ele>
        <time>2022-04-17T13:26:26Z</time>
      </trkpt>
      <trkpt lat="49.06146" lon="7.74868">
        <ele>228.9</ele>
        <time>2022-04-17T13:26:33Z</time>
      </trkpt>
      <trkpt lat="49.06151" lon="7.74881">
        <ele>231.5</ele>
        <time>2022-04-17T13:26:42Z</time>
      </trkpt>
      <trkpt lat="49.06149" lon="7.74895">
        <ele>232.4</ele>
        <time>2022-04-17T13:26:58Z</time>
      </trkpt>
      <trkpt lat="49.06149" lon="7.74895">
        <ele>232.5</ele>
        <time>2022-04-17T13:26:59Z</time>
      </trkpt>
      <trkpt lat="49.06149" lon="7.74895">
        <ele>232.5</ele>
        <time>2022-04-17T13:27:00Z</time>
      </trkpt>
      <trkpt lat="49.06149" lon="7.74895">
        <ele>232.5</ele>
        <time>2022-04-17T13:27:01Z</time>
      </trkpt>
      <trkpt lat="49.06149" lon="7.74895">
        <ele>232.5</ele>
        <time>2022-04-17T13:27:05Z</time>
      </trkpt>
      <trkpt lat="49.06149" lon="7.74895">
        <ele>232.6</ele>
        <time>2022-04-17T13:27:07Z</time>
      </trkpt>
      <trkpt lat="49.06149" lon="7.74895">
        <ele>232.6</ele>
        <time>2022-04-17T13:27:09Z</time>
      </trkpt>
      <trkpt lat="49.06159" lon="7.74894">
        <ele>234.4</ele>
        <time>2022-04-17T13:27:19Z</time>
      </trkpt>
      <trkpt lat="49.06168" lon="7.74902">
        <ele>236.1</ele>
        <time>2022-04-17T13:27:27Z</time>
      </trkpt>
      <trkpt lat="49.06176" lon="7.74909">
        <ele>237.7</ele>
        <time>2022-04-17T13:27:35Z</time>
      </trkpt>
      <trkpt lat="49.06184" lon="7.74916">
        <ele>239.3</ele>
        <time>2022-04-17T13:27:43Z</time>
      </trkpt>
      <trkpt lat="49.06194" lon="7.74921">
        <ele>240.7</ele>
        <time>2022-04-17T13:27:51Z</time>
      </trkpt>
      <trkpt lat="49.06203" lon="7.74922">
        <ele>241.6</ele>
        <time>2022-04-17T13:28:01Z</time>
      </trkpt>
      <trkpt lat="49.06212" lon="7.74927">
        <ele>242.1</ele>
        <time>2022-04-17T13:28:10Z</time>
      </trkpt>
      <trkpt lat="49.06221" lon="7.74928">
        <ele>242.1</ele>
        <time>2022-04-17T13:28:19Z</time>
      </trkpt>
      <trkpt lat="49.06229" lon="7.74934">
        <ele>242</ele>
        <time>2022-04-17T13:28:27Z</time>
      </trkpt>
      <trkpt lat="49.06238" lon="7.74935">
        <ele>241.8</ele>
        <time>2022-04-17T13:28:35Z</time>
      </trkpt>
      <trkpt lat="49.06247" lon="7.7493">
        <ele>241.6</ele>
        <time>2022-04-17T13:28:45Z</time>
      </trkpt>
      <trkpt lat="49.06247" lon="7.7493">
        <ele>241.6</ele>
        <time>2022-04-17T13:28:46Z</time>
      </trkpt>
      <trkpt lat="49.06247" lon="7.7493">
        <ele>241.6</ele>
        <time>2022-04-17T13:28:47Z</time>
      </trkpt>
      <trkpt lat="49.06256" lon="7.74928">
        <ele>241.3</ele>
        <time>2022-04-17T13:28:53Z</time>
      </trkpt>
      <trkpt lat="49.06265" lon="7.74932">
        <ele>241</ele>
        <time>2022-04-17T13:29:00Z</time>
      </trkpt>
      <trkpt lat="49.06275" lon="7.74937">
        <ele>240.6</ele>
        <time>2022-04-17T13:29:12Z</time>
      </trkpt>
      <trkpt lat="49.06285" lon="7.74936">
        <ele>240.3</ele>
        <time>2022-04-17T13:29:17Z</time>
      </trkpt>
      <trkpt lat="49.06294" lon="7.74939">
        <ele>240.1</ele>
        <time>2022-04-17T13:29:22Z</time>
      </trkpt>
      <trkpt lat="49.06303" lon="7.74941">
        <ele>240</ele>
        <time>2022-04-17T13:29:29Z</time>
      </trkpt>
      <trkpt lat="49.06307" lon="7.74942">
        <ele>240</ele>
        <time>2022-04-17T13:29:35Z</time>
      </trkpt>
      <trkpt lat="49.06307" lon="7.74942">
        <ele>240</ele>
        <time>2022-04-17T13:29:36Z</time>
      </trkpt>
      <trkpt lat="49.06318" lon="7.74942">
        <ele>240</ele>
        <time>2022-04-17T13:29:45Z</time>
      </trkpt>
      <trkpt lat="49.06328" lon="7.74941">
        <ele>240</ele>
        <time>2022-04-17T13:29:53Z</time>
      </trkpt>
      <trkpt lat="49.06338" lon="7.74942">
        <ele>240.2</ele>
        <time>2022-04-17T13:30:02Z</time>
      </trkpt>
      <trkpt lat="49.06347" lon="7.74941">
        <ele>240.4</ele>
        <time>2022-04-17T13:30:10Z</time>
      </trkpt>
      <trkpt lat="49.06348" lon="7.74942">
        <ele>240.4</ele>
        <time>2022-04-17T13:30:13Z</time>
      </trkpt>
      <trkpt lat="49.06348" lon="7.74942">
        <ele>240.4</ele>
        <time>2022-04-17T13:30:14Z</time>
      </trkpt>
      <trkpt lat="49.06357" lon="7.74946">
        <ele>243.4</ele>
        <time>2022-04-17T13:30:32Z</time>
      </trkpt>
      <trkpt lat="49.06357" lon="7.74946">
        <ele>243.4</ele>
        <time>2022-04-17T13:30:37Z</time>
      </trkpt>
      <trkpt lat="49.06357" lon="7.74946">
        <ele>243.4</ele>
        <time>2022-04-17T13:30:38Z</time>
      </trkpt>
      <trkpt lat="49.06357" lon="7.74946">
        <ele>243.5</ele>
        <time>2022-04-17T13:30:40Z</time>
      </trkpt>
      <trkpt lat="49.06358" lon="7.74948">
        <ele>243.8</ele>
        <time>2022-04-17T13:30:42Z</time>
      </trkpt>
      <trkpt lat="49.06358" lon="7.74948">
        <ele>243.9</ele>
        <time>2022-04-17T13:30:43Z</time>
      </trkpt>
      <trkpt lat="49.06349" lon="7.74953">
        <ele>246.1</ele>
        <time>2022-04-17T13:30:58Z</time>
      </trkpt>
      <trkpt lat="49.06341" lon="7.74962">
        <ele>247.9</ele>
        <time>2022-04-17T13:31:08Z</time>
      </trkpt>
      <trkpt lat="49.0634" lon="7.74961">
        <ele>248.1</ele>
        <time>2022-04-17T13:31:13Z</time>
      </trkpt>
      <trkpt lat="49.06339" lon="7.74961">
        <ele>248.2</ele>
        <time>2022-04-17T13:31:14Z</time>
      </trkpt>
      <trkpt lat="49.06339" lon="7.74961">
        <ele>248.2</ele>
        <time>2022-04-17T13:31:15Z</time>
      </trkpt>
      <trkpt lat="49.06339" lon="7.74962">
        <ele>248.3</ele>
        <time>2022-04-17T13:31:17Z</time>
      </trkpt>
      <trkpt lat="49.06329" lon="7.74962">
        <ele>249.9</ele>
        <time>2022-04-17T13:31:25Z</time>
      </trkpt>
      <trkpt lat="49.06321" lon="7.74967">
        <ele>251.7</ele>
        <time>2022-04-17T13:31:34Z</time>
      </trkpt>
      <trkpt lat="49.06312" lon="7.74974">
        <ele>254.1</ele>
        <time>2022-04-17T13:31:42Z</time>
      </trkpt>
      <trkpt lat="49.06303" lon="7.74979">
        <ele>256.6</ele>
        <time>2022-04-17T13:31:48Z</time>
      </trkpt>
      <trkpt lat="49.0631" lon="7.74988">
        <ele>258.9</ele>
        <time>2022-04-17T13:32:05Z</time>
      </trkpt>
      <trkpt lat="49.06319" lon="7.74993">
        <ele>261.1</ele>
        <time>2022-04-17T13:32:17Z</time>
      </trkpt>
      <trkpt lat="49.06323" lon="7.74992">
        <ele>262</ele>
        <time>2022-04-17T13:32:24Z</time>
      </trkpt>
      <trkpt lat="49.06323" lon="7.74991">
        <ele>262.1</ele>
        <time>2022-04-17T13:32:28Z</time>
      </trkpt>
      <trkpt lat="49.06323" lon="7.7499">
        <ele>262.3</ele>
        <time>2022-04-17T13:32:30Z</time>
      </trkpt>
      <trkpt lat="49.06323" lon="7.7499">
        <ele>262.4</ele>
        <time>2022-04-17T13:32:44Z</time>
      </trkpt>
      <trkpt lat="49.06323" lon="7.7499">
        <ele>262.4</ele>
        <time>2022-04-17T13:32:45Z</time>
      </trkpt>
      <trkpt lat="49.06323" lon="7.74989">
        <ele>262.5</ele>
        <time>2022-04-17T13:33:00Z</time>
      </trkpt>
      <trkpt lat="49.06323" lon="7.74989">
        <ele>262.5</ele>
        <time>2022-04-17T13:33:01Z</time>
      </trkpt>
      <trkpt lat="49.06323" lon="7.74989">
        <ele>262.5</ele>
        <time>2022-04-17T13:33:03Z</time>
      </trkpt>
      <trkpt lat="49.06323" lon="7.74989">
        <ele>262.5</ele>
        <time>2022-04-17T13:33:04Z</time>
      </trkpt>
      <trkpt lat="49.06323" lon="7.74989">
        <ele>262.5</ele>
        <time>2022-04-17T13:33:08Z</time>
      </trkpt>
      <trkpt lat="49.06323" lon="7.74989">
        <ele>262.5</ele>
        <time>2022-04-17T13:33:09Z</time>
      </trkpt>
      <trkpt lat="49.06322" lon="7.74989">
        <ele>262.6</ele>
        <time>2022-04-17T13:33:16Z</time>
      </trkpt>
      <trkpt lat="49.06322" lon="7.74989">
        <ele>262.6</ele>
        <time>2022-04-17T13:33:17Z</time>
      </trkpt>
      <trkpt lat="49.06322" lon="7.74989">
        <ele>262.6</ele>
        <time>2022-04-17T13:33:20Z</time>
      </trkpt>
      <trkpt lat="49.06321" lon="7.74988">
        <ele>262.9</ele>
        <time>2022-04-17T13:33:23Z</time>
      </trkpt>
      <trkpt lat="49.06321" lon="7.74988">
        <ele>262.9</ele>
        <time>2022-04-17T13:33:29Z</time>
      </trkpt>
      <trkpt lat="49.06321" lon="7.74988">
        <ele>263</ele>
        <time>2022-04-17T13:33:30Z</time>
      </trkpt>
      <trkpt lat="49.06321" lon="7.74988">
        <ele>263</ele>
        <time>2022-04-17T13:33:41Z</time>
      </trkpt>
      <trkpt lat="49.06321" lon="7.74988">
        <ele>263</ele>
        <time>2022-04-17T13:33:42Z</time>
      </trkpt>
      <trkpt lat="49.06321" lon="7.74988">
        <ele>263.1</ele>
        <time>2022-04-17T13:34:27Z</time>
      </trkpt>
      <trkpt lat="49.06316" lon="7.75">
        <ele>265.4</ele>
        <time>2022-04-17T13:34:38Z</time>
      </trkpt>
      <trkpt lat="49.06308" lon="7.75009">
        <ele>267.8</ele>
        <time>2022-04-17T13:34:47Z</time>
      </trkpt>
      <trkpt lat="49.06301" lon="7.75018">
        <ele>270</ele>
        <time>2022-04-17T13:34:57Z</time>
      </trkpt>
      <trkpt lat="49.06293" lon="7.75026">
        <ele>272.3</ele>
        <time>2022-04-17T13:35:06Z</time>
      </trkpt>
      <trkpt lat="49.06301" lon="7.75035">
        <ele>274.4</ele>
        <time>2022-04-17T13:35:16Z</time>
      </trkpt>
      <trkpt lat="49.0631" lon="7.75035">
        <ele>276.4</ele>
        <time>2022-04-17T13:35:27Z</time>
      </trkpt>
      <trkpt lat="49.0632" lon="7.75036">
        <ele>278.4</ele>
        <time>2022-04-17T13:35:35Z</time>
      </trkpt>
      <trkpt lat="49.0632" lon="7.75041">
        <ele>279</ele>
        <time>2022-04-17T13:35:40Z</time>
      </trkpt>
      <trkpt lat="49.06319" lon="7.75041">
        <ele>279.1</ele>
        <time>2022-04-17T13:35:41Z</time>
      </trkpt>
      <trkpt lat="49.06316" lon="7.75046">
        <ele>280</ele>
        <time>2022-04-17T13:35:51Z</time>
      </trkpt>
      <trkpt lat="49.06317" lon="7.75046">
        <ele>280</ele>
        <time>2022-04-17T13:36:18Z</time>
      </trkpt>
      <trkpt lat="49.06317" lon="7.75046">
        <ele>280</ele>
        <time>2022-04-17T13:36:19Z</time>
      </trkpt>
      <trkpt lat="49.06317" lon="7.75046">
        <ele>280.1</ele>
        <time>2022-04-17T13:36:51Z</time>
      </trkpt>
      <trkpt lat="49.06317" lon="7.75047">
        <ele>280.2</ele>
        <time>2022-04-17T13:36:54Z</time>
      </trkpt>
      <trkpt lat="49.06317" lon="7.75047">
        <ele>280.3</ele>
        <time>2022-04-17T13:36:56Z</time>
      </trkpt>
      <trkpt lat="49.06308" lon="7.75055">
        <ele>281.8</ele>
        <time>2022-04-17T13:37:08Z</time>
      </trkpt>
      <trkpt lat="49.06301" lon="7.75065">
        <ele>283.2</ele>
        <time>2022-04-17T13:37:18Z</time>
      </trkpt>
      <trkpt lat="49.06293" lon="7.75074">
        <ele>284.2</ele>
        <time>2022-04-17T13:37:26Z</time>
      </trkpt>
      <trkpt lat="49.06285" lon="7.75083">
        <ele>285</ele>
        <time>2022-04-17T13:37:34Z</time>
      </trkpt>
      <trkpt lat="49.06277" lon="7.7509">
        <ele>285.7</ele>
        <time>2022-04-17T13:37:43Z</time>
      </trkpt>
      <trkpt lat="49.06272" lon="7.75102">
        <ele>286.5</ele>
        <time>2022-04-17T13:37:53Z</time>
      </trkpt>
      <trkpt lat="49.0627" lon="7.75117">
        <ele>287.4</ele>
        <time>2022-04-17T13:38:01Z</time>
      </trkpt>
      <trkpt lat="49.06267" lon="7.75131">
        <ele>288.7</ele>
        <time>2022-04-17T13:38:08Z</time>
      </trkpt>
      <trkpt lat="49.06263" lon="7.75144">
        <ele>290.2</ele>
        <time>2022-04-17T13:38:15Z</time>
      </trkpt>
      <trkpt lat="49.06262" lon="7.75158">
        <ele>291.8</ele>
        <time>2022-04-17T13:38:22Z</time>
      </trkpt>
      <trkpt lat="49.06268" lon="7.75171">
        <ele>293.4</ele>
        <time>2022-04-17T13:38:28Z</time>
      </trkpt>
      <trkpt lat="49.0627" lon="7.75185">
        <ele>294.9</ele>
        <time>2022-04-17T13:38:36Z</time>
      </trkpt>
      <trkpt lat="49.06274" lon="7.75199">
        <ele>296.5</ele>
        <time>2022-04-17T13:38:45Z</time>
      </trkpt>
      <trkpt lat="49.06277" lon="7.75214">
        <ele>298.1</ele>
        <time>2022-04-17T13:38:51Z</time>
      </trkpt>
      <trkpt lat="49.06279" lon="7.75223">
        <ele>299.2</ele>
        <time>2022-04-17T13:39:00Z</time>
      </trkpt>
      <trkpt lat="49.0628" lon="7.75223">
        <ele>299.3</ele>
        <time>2022-04-17T13:39:02Z</time>
      </trkpt>
      <trkpt lat="49.06277" lon="7.75227">
        <ele>300.1</ele>
        <time>2022-04-17T13:39:15Z</time>
      </trkpt>
      <trkpt lat="49.06277" lon="7.75228">
        <ele>300.1</ele>
        <time>2022-04-17T13:39:16Z</time>
      </trkpt>
      <trkpt lat="49.06277" lon="7.75229">
        <ele>300.3</ele>
        <time>2022-04-17T13:39:19Z</time>
      </trkpt>
      <trkpt lat="49.06277" lon="7.75229">
        <ele>300.4</ele>
        <time>2022-04-17T13:39:21Z</time>
      </trkpt>
      <trkpt lat="49.06277" lon="7.75229">
        <ele>300.4</ele>
        <time>2022-04-17T13:39:22Z</time>
      </trkpt>
      <trkpt lat="49.06277" lon="7.7523">
        <ele>300.4</ele>
        <time>2022-04-17T13:39:25Z</time>
      </trkpt>
      <trkpt lat="49.06277" lon="7.75229">
        <ele>300.5</ele>
        <time>2022-04-17T13:39:26Z</time>
      </trkpt>
      <trkpt lat="49.06276" lon="7.7523">
        <ele>300.6</ele>
        <time>2022-04-17T13:39:28Z</time>
      </trkpt>
      <trkpt lat="49.06282" lon="7.7524">
        <ele>302</ele>
        <time>2022-04-17T13:39:41Z</time>
      </trkpt>
      <trkpt lat="49.06285" lon="7.75254">
        <ele>303.6</ele>
        <time>2022-04-17T13:39:55Z</time>
      </trkpt>
      <trkpt lat="49.06292" lon="7.75264">
        <ele>305.3</ele>
        <time>2022-04-17T13:40:00Z</time>
      </trkpt>
      <trkpt lat="49.06298" lon="7.75276">
        <ele>307</ele>
        <time>2022-04-17T13:40:11Z</time>
      </trkpt>
      <trkpt lat="49.063" lon="7.7529">
        <ele>308.4</ele>
        <time>2022-04-17T13:40:18Z</time>
      </trkpt>
      <trkpt lat="49.06306" lon="7.75301">
        <ele>309.8</ele>
        <time>2022-04-17T13:40:25Z</time>
      </trkpt>
      <trkpt lat="49.06313" lon="7.75312">
        <ele>311.4</ele>
        <time>2022-04-17T13:40:33Z</time>
      </trkpt>
      <trkpt lat="49.0632" lon="7.75322">
        <ele>313</ele>
        <time>2022-04-17T13:40:42Z</time>
      </trkpt>
      <trkpt lat="49.06327" lon="7.75332">
        <ele>314.5</ele>
        <time>2022-04-17T13:40:49Z</time>
      </trkpt>
      <trkpt lat="49.06336" lon="7.75338">
        <ele>316</ele>
        <time>2022-04-17T13:40:59Z</time>
      </trkpt>
      <trkpt lat="49.06342" lon="7.75349">
        <ele>317.7</ele>
        <time>2022-04-17T13:41:07Z</time>
      </trkpt>
      <trkpt lat="49.0635" lon="7.75357">
        <ele>319.3</ele>
        <time>2022-04-17T13:41:15Z</time>
      </trkpt>
      <trkpt lat="49.06355" lon="7.7537">
        <ele>320.8</ele>
        <time>2022-04-17T13:41:23Z</time>
      </trkpt>
      <trkpt lat="49.0636" lon="7.75383">
        <ele>322.5</ele>
        <time>2022-04-17T13:41:34Z</time>
      </trkpt>
      <trkpt lat="49.06366" lon="7.75393">
        <ele>324</ele>
        <time>2022-04-17T13:42:05Z</time>
      </trkpt>
      <trkpt lat="49.06372" lon="7.75406">
        <ele>325.7</ele>
        <time>2022-04-17T13:42:14Z</time>
      </trkpt>
      <trkpt lat="49.06377" lon="7.75416">
        <ele>327.2</ele>
        <time>2022-04-17T13:42:21Z</time>
      </trkpt>
      <trkpt lat="49.06378" lon="7.75417">
        <ele>327.3</ele>
        <time>2022-04-17T13:42:22Z</time>
      </trkpt>
      <trkpt lat="49.06384" lon="7.75428">
        <ele>329</ele>
        <time>2022-04-17T13:42:31Z</time>
      </trkpt>
      <trkpt lat="49.06388" lon="7.75442">
        <ele>330.7</ele>
        <time>2022-04-17T13:42:39Z</time>
      </trkpt>
      <trkpt lat="49.06389" lon="7.75456">
        <ele>332.4</ele>
        <time>2022-04-17T13:42:47Z</time>
      </trkpt>
      <trkpt lat="49.0639" lon="7.75471">
        <ele>334.2</ele>
        <time>2022-04-17T13:42:56Z</time>
      </trkpt>
      <trkpt lat="49.06391" lon="7.75487">
        <ele>336.2</ele>
        <time>2022-04-17T13:43:07Z</time>
      </trkpt>
      <trkpt lat="49.06392" lon="7.75497">
        <ele>337.6</ele>
        <time>2022-04-17T13:43:24Z</time>
      </trkpt>
      <trkpt lat="49.06392" lon="7.75497">
        <ele>337.6</ele>
        <time>2022-04-17T13:43:25Z</time>
      </trkpt>
      <trkpt lat="49.06395" lon="7.7551">
        <ele>339.5</ele>
        <time>2022-04-17T13:43:37Z</time>
      </trkpt>
      <trkpt lat="49.06397" lon="7.75524">
        <ele>341.4</ele>
        <time>2022-04-17T13:43:47Z</time>
      </trkpt>
      <trkpt lat="49.06401" lon="7.75537">
        <ele>343.4</ele>
        <time>2022-04-17T13:44:00Z</time>
      </trkpt>
      <trkpt lat="49.06404" lon="7.75551">
        <ele>345.4</ele>
        <time>2022-04-17T13:44:09Z</time>
      </trkpt>
      <trkpt lat="49.06408" lon="7.75564">
        <ele>347.3</ele>
        <time>2022-04-17T13:44:19Z</time>
      </trkpt>
      <trkpt lat="49.0641" lon="7.75578">
        <ele>349.2</ele>
        <time>2022-04-17T13:44:31Z</time>
      </trkpt>
      <trkpt lat="49.0641" lon="7.75593">
        <ele>351.4</ele>
        <time>2022-04-17T13:44:39Z</time>
      </trkpt>
      <trkpt lat="49.0641" lon="7.75593">
        <ele>351.4</ele>
        <time>2022-04-17T13:44:40Z</time>
      </trkpt>
      <trkpt lat="49.0641" lon="7.75595">
        <ele>351.6</ele>
        <time>2022-04-17T13:44:41Z</time>
      </trkpt>
      <trkpt lat="49.06414" lon="7.75607">
        <ele>353.7</ele>
        <time>2022-04-17T13:45:18Z</time>
      </trkpt>
      <trkpt lat="49.06416" lon="7.75623">
        <ele>356.1</ele>
        <time>2022-04-17T13:45:32Z</time>
      </trkpt>
      <trkpt lat="49.06422" lon="7.75634">
        <ele>358.3</ele>
        <time>2022-04-17T13:45:43Z</time>
      </trkpt>
      <trkpt lat="49.06426" lon="7.75648">
        <ele>360.6</ele>
        <time>2022-04-17T13:45:50Z</time>
      </trkpt>
      <trkpt lat="49.06426" lon="7.75655">
        <ele>361.8</ele>
        <time>2022-04-17T13:46:29Z</time>
      </trkpt>
      <trkpt lat="49.06426" lon="7.75656">
        <ele>361.9</ele>
        <time>2022-04-17T13:46:30Z</time>
      </trkpt>
      <trkpt lat="49.06425" lon="7.75654">
        <ele>362.2</ele>
        <time>2022-04-17T13:46:34Z</time>
      </trkpt>
      <trkpt lat="49.06425" lon="7.75655">
        <ele>362.3</ele>
        <time>2022-04-17T13:46:43Z</time>
      </trkpt>
      <trkpt lat="49.06425" lon="7.75655">
        <ele>362.3</ele>
        <time>2022-04-17T13:46:44Z</time>
      </trkpt>
      <trkpt lat="49.06425" lon="7.75656">
        <ele>362.5</ele>
        <time>2022-04-17T13:46:58Z</time>
      </trkpt>
      <trkpt lat="49.06425" lon="7.75656">
        <ele>362.5</ele>
        <time>2022-04-17T13:46:59Z</time>
      </trkpt>
      <trkpt lat="49.06425" lon="7.75656">
        <ele>362.6</ele>
        <time>2022-04-17T13:47:00Z</time>
      </trkpt>
      <trkpt lat="49.06424" lon="7.75653">
        <ele>363.2</ele>
        <time>2022-04-17T13:47:06Z</time>
      </trkpt>
      <trkpt lat="49.06423" lon="7.75654">
        <ele>363.5</ele>
        <time>2022-04-17T13:47:09Z</time>
      </trkpt>
      <trkpt lat="49.06424" lon="7.75668">
        <ele>363.9</ele>
        <time>2022-04-17T13:47:18Z</time>
      </trkpt>
      <trkpt lat="49.06423" lon="7.75682">
        <ele>363.3</ele>
        <time>2022-04-17T13:47:25Z</time>
      </trkpt>
      <trkpt lat="49.06424" lon="7.75696">
        <ele>362.4</ele>
        <time>2022-04-17T13:47:33Z</time>
      </trkpt>
      <trkpt lat="49.06424" lon="7.7571">
        <ele>361.4</ele>
        <time>2022-04-17T13:47:40Z</time>
      </trkpt>
      <trkpt lat="49.06426" lon="7.75724">
        <ele>360.4</ele>
        <time>2022-04-17T13:47:48Z</time>
      </trkpt>
      <trkpt lat="49.06427" lon="7.75738">
        <ele>359.4</ele>
        <time>2022-04-17T13:47:56Z</time>
      </trkpt>
      <trkpt lat="49.06428" lon="7.75752">
        <ele>358.4</ele>
        <time>2022-04-17T13:48:03Z</time>
      </trkpt>
      <trkpt lat="49.0643" lon="7.75767">
        <ele>357.3</ele>
        <time>2022-04-17T13:48:12Z</time>
      </trkpt>
      <trkpt lat="49.06431" lon="7.75781">
        <ele>356.4</ele>
        <time>2022-04-17T13:48:20Z</time>
      </trkpt>
      <trkpt lat="49.06435" lon="7.75794">
        <ele>355.5</ele>
        <time>2022-04-17T13:48:28Z</time>
      </trkpt>
      <trkpt lat="49.06433" lon="7.75807">
        <ele>354.7</ele>
        <time>2022-04-17T13:48:35Z</time>
      </trkpt>
      <trkpt lat="49.06433" lon="7.75811">
        <ele>354.5</ele>
        <time>2022-04-17T13:48:41Z</time>
      </trkpt>
      <trkpt lat="49.06433" lon="7.75812">
        <ele>354.4</ele>
        <time>2022-04-17T13:48:44Z</time>
      </trkpt>
      <trkpt lat="49.06438" lon="7.758">
        <ele>356.1</ele>
        <time>2022-04-17T13:49:09Z</time>
      </trkpt>
      <trkpt lat="49.06438" lon="7.75785">
        <ele>357.4</ele>
        <time>2022-04-17T13:49:18Z</time>
      </trkpt>
      <trkpt lat="49.0644" lon="7.75771">
        <ele>358.6</ele>
        <time>2022-04-17T13:49:26Z</time>
      </trkpt>
      <trkpt lat="49.06439" lon="7.75756">
        <ele>359.7</ele>
        <time>2022-04-17T13:49:35Z</time>
      </trkpt>
      <trkpt lat="49.0644" lon="7.75742">
        <ele>360.9</ele>
        <time>2022-04-17T13:49:47Z</time>
      </trkpt>
      <trkpt lat="49.0644" lon="7.75728">
        <ele>362.1</ele>
        <time>2022-04-17T13:50:02Z</time>
      </trkpt>
      <trkpt lat="49.06441" lon="7.75726">
        <ele>362.2</ele>
        <time>2022-04-17T13:50:05Z</time>
      </trkpt>
      <trkpt lat="49.06441" lon="7.75726">
        <ele>362.2</ele>
        <time>2022-04-17T13:50:07Z</time>
      </trkpt>
      <trkpt lat="49.06443" lon="7.7574">
        <ele>363.5</ele>
        <time>2022-04-17T13:50:19Z</time>
      </trkpt>
      <trkpt lat="49.06448" lon="7.75752">
        <ele>364.8</ele>
        <time>2022-04-17T13:50:29Z</time>
      </trkpt>
      <trkpt lat="49.06452" lon="7.75765">
        <ele>366.2</ele>
        <time>2022-04-17T13:50:39Z</time>
      </trkpt>
      <trkpt lat="49.06455" lon="7.75778">
        <ele>367.4</ele>
        <time>2022-04-17T13:50:49Z</time>
      </trkpt>
      <trkpt lat="49.06459" lon="7.75791">
        <ele>368.8</ele>
        <time>2022-04-17T13:51:01Z</time>
      </trkpt>
      <trkpt lat="49.0646" lon="7.75801">
        <ele>369.6</ele>
        <time>2022-04-17T13:51:16Z</time>
      </trkpt>
      <trkpt lat="49.0646" lon="7.75802">
        <ele>369.7</ele>
        <time>2022-04-17T13:51:18Z</time>
      </trkpt>
      <trkpt lat="49.0646" lon="7.75802">
        <ele>369.7</ele>
        <time>2022-04-17T13:51:20Z</time>
      </trkpt>
      <trkpt lat="49.0646" lon="7.75803">
        <ele>369.7</ele>
        <time>2022-04-17T13:51:22Z</time>
      </trkpt>
      <trkpt lat="49.0646" lon="7.75802">
        <ele>369.8</ele>
        <time>2022-04-17T13:51:25Z</time>
      </trkpt>
      <trkpt lat="49.06459" lon="7.75803">
        <ele>370</ele>
        <time>2022-04-17T13:51:26Z</time>
      </trkpt>
      <trkpt lat="49.06462" lon="7.75806">
        <ele>370.4</ele>
        <time>2022-04-17T13:51:48Z</time>
      </trkpt>
      <trkpt lat="49.06462" lon="7.75806">
        <ele>370.5</ele>
        <time>2022-04-17T13:51:49Z</time>
      </trkpt>
      <trkpt lat="49.06459" lon="7.7582">
        <ele>371.7</ele>
        <time>2022-04-17T13:52:05Z</time>
      </trkpt>
      <trkpt lat="49.06462" lon="7.75834">
        <ele>372.8</ele>
        <time>2022-04-17T13:52:16Z</time>
      </trkpt>
      <trkpt lat="49.06465" lon="7.75849">
        <ele>374</ele>
        <time>2022-04-17T13:52:27Z</time>
      </trkpt>
      <trkpt lat="49.06468" lon="7.75863">
        <ele>375.1</ele>
        <time>2022-04-17T13:52:39Z</time>
      </trkpt>
      <trkpt lat="49.06471" lon="7.75876">
        <ele>376.1</ele>
        <time>2022-04-17T13:52:49Z</time>
      </trkpt>
      <trkpt lat="49.06472" lon="7.7589">
        <ele>377.4</ele>
        <time>2022-04-17T13:52:59Z</time>
      </trkpt>
      <trkpt lat="49.06474" lon="7.7589">
        <ele>377.6</ele>
        <time>2022-04-17T13:53:08Z</time>
      </trkpt>
      <trkpt lat="49.06474" lon="7.7589">
        <ele>377.6</ele>
        <time>2022-04-17T13:53:09Z</time>
      </trkpt>
      <trkpt lat="49.06479" lon="7.75901">
        <ele>378.8</ele>
        <time>2022-04-17T13:53:19Z</time>
      </trkpt>
      <trkpt lat="49.06482" lon="7.75914">
        <ele>380</ele>
        <time>2022-04-17T13:53:27Z</time>
      </trkpt>
      <trkpt lat="49.06486" lon="7.75927">
        <ele>381.3</ele>
        <time>2022-04-17T13:53:38Z</time>
      </trkpt>
      <trkpt lat="49.06489" lon="7.7594">
        <ele>382.5</ele>
        <time>2022-04-17T13:53:49Z</time>
      </trkpt>
      <trkpt lat="49.06492" lon="7.75944">
        <ele>382.9</ele>
        <time>2022-04-17T13:53:55Z</time>
      </trkpt>
      <trkpt lat="49.06492" lon="7.75943">
        <ele>383</ele>
        <time>2022-04-17T13:53:56Z</time>
      </trkpt>
      <trkpt lat="49.06489" lon="7.75954">
        <ele>384.1</ele>
        <time>2022-04-17T13:54:11Z</time>
      </trkpt>
      <trkpt lat="49.06489" lon="7.75954">
        <ele>384.1</ele>
        <time>2022-04-17T13:54:13Z</time>
      </trkpt>
      <trkpt lat="49.06489" lon="7.75954">
        <ele>384.1</ele>
        <time>2022-04-17T13:54:15Z</time>
      </trkpt>
      <trkpt lat="49.06489" lon="7.75954">
        <ele>384.1</ele>
        <time>2022-04-17T13:54:34Z</time>
      </trkpt>
      <trkpt lat="49.0649" lon="7.75952">
        <ele>384.4</ele>
        <time>2022-04-17T13:54:38Z</time>
      </trkpt>
      <trkpt lat="49.06491" lon="7.75952">
        <ele>384.4</ele>
        <time>2022-04-17T13:54:39Z</time>
      </trkpt>
      <trkpt lat="49.06491" lon="7.7595">
        <ele>384.6</ele>
        <time>2022-04-17T13:54:44Z</time>
      </trkpt>
      <trkpt lat="49.06491" lon="7.75951">
        <ele>384.6</ele>
        <time>2022-04-17T13:54:45Z</time>
      </trkpt>
      <trkpt lat="49.06491" lon="7.75951">
        <ele>384.6</ele>
        <time>2022-04-17T13:54:46Z</time>
      </trkpt>
      <trkpt lat="49.06491" lon="7.75951">
        <ele>384.6</ele>
        <time>2022-04-17T13:54:50Z</time>
      </trkpt>
      <trkpt lat="49.06491" lon="7.75951">
        <ele>384.6</ele>
        <time>2022-04-17T13:54:51Z</time>
      </trkpt>
      <trkpt lat="49.06491" lon="7.75951">
        <ele>384.7</ele>
        <time>2022-04-17T13:54:59Z</time>
      </trkpt>
      <trkpt lat="49.06492" lon="7.75951">
        <ele>384.8</ele>
        <time>2022-04-17T13:55:02Z</time>
      </trkpt>
      <trkpt lat="49.06492" lon="7.75951">
        <ele>384.8</ele>
        <time>2022-04-17T13:55:07Z</time>
      </trkpt>
      <trkpt lat="49.06492" lon="7.75951">
        <ele>384.8</ele>
        <time>2022-04-17T13:55:08Z</time>
      </trkpt>
      <trkpt lat="49.06492" lon="7.75951">
        <ele>384.8</ele>
        <time>2022-04-17T13:55:09Z</time>
      </trkpt>
      <trkpt lat="49.06491" lon="7.75952">
        <ele>384.9</ele>
        <time>2022-04-17T13:55:11Z</time>
      </trkpt>
      <trkpt lat="49.06491" lon="7.75951">
        <ele>385</ele>
        <time>2022-04-17T13:55:16Z</time>
      </trkpt>
      <trkpt lat="49.06491" lon="7.7595">
        <ele>385.1</ele>
        <time>2022-04-17T13:55:18Z</time>
      </trkpt>
      <trkpt lat="49.06491" lon="7.75951">
        <ele>385.1</ele>
        <time>2022-04-17T13:55:19Z</time>
      </trkpt>
      <trkpt lat="49.06491" lon="7.75951">
        <ele>385.1</ele>
        <time>2022-04-17T13:55:20Z</time>
      </trkpt>
      <trkpt lat="49.06491" lon="7.75951">
        <ele>385.1</ele>
        <time>2022-04-17T13:55:21Z</time>
      </trkpt>
      <trkpt lat="49.06491" lon="7.75951">
        <ele>385.2</ele>
        <time>2022-04-17T13:55:23Z</time>
      </trkpt>
      <trkpt lat="49.0649" lon="7.75951">
        <ele>385.2</ele>
        <time>2022-04-17T13:55:25Z</time>
      </trkpt>
      <trkpt lat="49.06493" lon="7.75965">
        <ele>386.5</ele>
        <time>2022-04-17T13:55:38Z</time>
      </trkpt>
      <trkpt lat="49.06498" lon="7.75977">
        <ele>387.8</ele>
        <time>2022-04-17T13:55:49Z</time>
      </trkpt>
      <trkpt lat="49.06503" lon="7.7599">
        <ele>389.1</ele>
        <time>2022-04-17T13:56:00Z</time>
      </trkpt>
      <trkpt lat="49.06507" lon="7.76002">
        <ele>390.3</ele>
        <time>2022-04-17T13:56:11Z</time>
      </trkpt>
      <trkpt lat="49.06511" lon="7.76014">
        <ele>391.6</ele>
        <time>2022-04-17T13:56:20Z</time>
      </trkpt>
      <trkpt lat="49.06516" lon="7.76027">
        <ele>393</ele>
        <time>2022-04-17T13:56:30Z</time>
      </trkpt>
      <trkpt lat="49.0652" lon="7.7604">
        <ele>394.2</ele>
        <time>2022-04-17T13:56:39Z</time>
      </trkpt>
      <trkpt lat="49.06522" lon="7.76047">
        <ele>394.8</ele>
        <time>2022-04-17T13:56:48Z</time>
      </trkpt>
      <trkpt lat="49.06522" lon="7.76047">
        <ele>394.8</ele>
        <time>2022-04-17T13:56:50Z</time>
      </trkpt>
      <trkpt lat="49.06522" lon="7.76047">
        <ele>394.8</ele>
        <time>2022-04-17T13:56:52Z</time>
      </trkpt>
      <trkpt lat="49.06522" lon="7.76047">
        <ele>394.9</ele>
        <time>2022-04-17T13:56:53Z</time>
      </trkpt>
      <trkpt lat="49.06522" lon="7.76061">
        <ele>396.1</ele>
        <time>2022-04-17T13:57:09Z</time>
      </trkpt>
      <trkpt lat="49.06526" lon="7.76068">
        <ele>396.8</ele>
        <time>2022-04-17T13:57:18Z</time>
      </trkpt>
      <trkpt lat="49.06526" lon="7.76068">
        <ele>396.9</ele>
        <time>2022-04-17T13:57:19Z</time>
      </trkpt>
      <trkpt lat="49.06528" lon="7.76078">
        <ele>397.7</ele>
        <time>2022-04-17T13:57:39Z</time>
      </trkpt>
      <trkpt lat="49.06528" lon="7.76079">
        <ele>397.8</ele>
        <time>2022-04-17T13:57:40Z</time>
      </trkpt>
      <trkpt lat="49.06534" lon="7.76091">
        <ele>399</ele>
        <time>2022-04-17T13:57:51Z</time>
      </trkpt>
      <trkpt lat="49.06542" lon="7.76098">
        <ele>400.3</ele>
        <time>2022-04-17T13:57:58Z</time>
      </trkpt>
      <trkpt lat="49.06543" lon="7.76099">
        <ele>400.4</ele>
        <time>2022-04-17T13:58:01Z</time>
      </trkpt>
      <trkpt lat="49.06543" lon="7.761">
        <ele>400.5</ele>
        <time>2022-04-17T13:58:02Z</time>
      </trkpt>
      <trkpt lat="49.06544" lon="7.76115">
        <ele>402.2</ele>
        <time>2022-04-17T13:58:12Z</time>
      </trkpt>
      <trkpt lat="49.06547" lon="7.76129">
        <ele>403.8</ele>
        <time>2022-04-17T13:58:25Z</time>
      </trkpt>
      <trkpt lat="49.06552" lon="7.76141">
        <ele>405.3</ele>
        <time>2022-04-17T13:58:39Z</time>
      </trkpt>
      <trkpt lat="49.06557" lon="7.76149">
        <ele>406.2</ele>
        <time>2022-04-17T13:58:54Z</time>
      </trkpt>
      <trkpt lat="49.06556" lon="7.76149">
        <ele>406.2</ele>
        <time>2022-04-17T13:58:56Z</time>
      </trkpt>
      <trkpt lat="49.06556" lon="7.76147">
        <ele>406.4</ele>
        <time>2022-04-17T13:59:00Z</time>
      </trkpt>
      <trkpt lat="49.06556" lon="7.76147">
        <ele>406.4</ele>
        <time>2022-04-17T13:59:01Z</time>
      </trkpt>
      <trkpt lat="49.06556" lon="7.76147">
        <ele>406.4</ele>
        <time>2022-04-17T13:59:08Z</time>
      </trkpt>
      <trkpt lat="49.06556" lon="7.76148">
        <ele>406.4</ele>
        <time>2022-04-17T13:59:11Z</time>
      </trkpt>
      <trkpt lat="49.06556" lon="7.76148">
        <ele>406.5</ele>
        <time>2022-04-17T13:59:14Z</time>
      </trkpt>
      <trkpt lat="49.06556" lon="7.76149">
        <ele>406.5</ele>
        <time>2022-04-17T13:59:19Z</time>
      </trkpt>
      <trkpt lat="49.06557" lon="7.76163">
        <ele>408.8</ele>
        <time>2022-04-17T13:59:32Z</time>
      </trkpt>
      <trkpt lat="49.06558" lon="7.76178">
        <ele>411.7</ele>
        <time>2022-04-17T13:59:41Z</time>
      </trkpt>
      <trkpt lat="49.06558" lon="7.76192">
        <ele>414.2</ele>
        <time>2022-04-17T13:59:50Z</time>
      </trkpt>
      <trkpt lat="49.06559" lon="7.76207">
        <ele>417</ele>
        <time>2022-04-17T14:00:02Z</time>
      </trkpt>
      <trkpt lat="49.06562" lon="7.7622">
        <ele>419.6</ele>
        <time>2022-04-17T14:00:12Z</time>
      </trkpt>
      <trkpt lat="49.06562" lon="7.76222">
        <ele>420.2</ele>
        <time>2022-04-17T14:00:17Z</time>
      </trkpt>
      <trkpt lat="49.06562" lon="7.76222">
        <ele>420.2</ele>
        <time>2022-04-17T14:00:19Z</time>
      </trkpt>
      <trkpt lat="49.06562" lon="7.76222">
        <ele>420.3</ele>
        <time>2022-04-17T14:00:21Z</time>
      </trkpt>
      <trkpt lat="49.06562" lon="7.76222">
        <ele>420.4</ele>
        <time>2022-04-17T14:00:22Z</time>
      </trkpt>
      <trkpt lat="49.06562" lon="7.76222">
        <ele>420.4</ele>
        <time>2022-04-17T14:00:23Z</time>
      </trkpt>
      <trkpt lat="49.06562" lon="7.76222">
        <ele>420.5</ele>
        <time>2022-04-17T14:00:24Z</time>
      </trkpt>
      <trkpt lat="49.06567" lon="7.76221">
        <ele>421.8</ele>
        <time>2022-04-17T14:00:38Z</time>
      </trkpt>
      <trkpt lat="49.06566" lon="7.76221">
        <ele>421.9</ele>
        <time>2022-04-17T14:00:39Z</time>
      </trkpt>
      <trkpt lat="49.06565" lon="7.76235">
        <ele>423.9</ele>
        <time>2022-04-17T14:00:53Z</time>
      </trkpt>
      <trkpt lat="49.06562" lon="7.76243">
        <ele>424.8</ele>
        <time>2022-04-17T14:01:11Z</time>
      </trkpt>
      <trkpt lat="49.06562" lon="7.76244">
        <ele>424.9</ele>
        <time>2022-04-17T14:01:14Z</time>
      </trkpt>
      <trkpt lat="49.06561" lon="7.76244">
        <ele>425</ele>
        <time>2022-04-17T14:01:16Z</time>
      </trkpt>
      <trkpt lat="49.06561" lon="7.76243">
        <ele>425.1</ele>
        <time>2022-04-17T14:01:17Z</time>
      </trkpt>
      <trkpt lat="49.06562" lon="7.76237">
        <ele>425.7</ele>
        <time>2022-04-17T14:01:31Z</time>
      </trkpt>
      <trkpt lat="49.06561" lon="7.76236">
        <ele>425.7</ele>
        <time>2022-04-17T14:01:32Z</time>
      </trkpt>
      <trkpt lat="49.06559" lon="7.76236">
        <ele>426.1</ele>
        <time>2022-04-17T14:01:39Z</time>
      </trkpt>
      <trkpt lat="49.06559" lon="7.76236">
        <ele>426.1</ele>
        <time>2022-04-17T14:01:40Z</time>
      </trkpt>
      <trkpt lat="49.06559" lon="7.76235">
        <ele>426.2</ele>
        <time>2022-04-17T14:01:41Z</time>
      </trkpt>
      <trkpt lat="49.06559" lon="7.76235">
        <ele>426.2</ele>
        <time>2022-04-17T14:01:43Z</time>
      </trkpt>
      <trkpt lat="49.0656" lon="7.76232">
        <ele>426.5</ele>
        <time>2022-04-17T14:01:52Z</time>
      </trkpt>
      <trkpt lat="49.0656" lon="7.76232">
        <ele>426.5</ele>
        <time>2022-04-17T14:01:53Z</time>
      </trkpt>
      <trkpt lat="49.0656" lon="7.76232">
        <ele>426.5</ele>
        <time>2022-04-17T14:01:54Z</time>
      </trkpt>
      <trkpt lat="49.06559" lon="7.76232">
        <ele>426.5</ele>
        <time>2022-04-17T14:01:55Z</time>
      </trkpt>
      <trkpt lat="49.06558" lon="7.76226">
        <ele>426.9</ele>
        <time>2022-04-17T14:02:04Z</time>
      </trkpt>
      <trkpt lat="49.06558" lon="7.76226">
        <ele>427</ele>
        <time>2022-04-17T14:02:05Z</time>
      </trkpt>
      <trkpt lat="49.0656" lon="7.76228">
        <ele>427.2</ele>
        <time>2022-04-17T14:02:20Z</time>
      </trkpt>
      <trkpt lat="49.06559" lon="7.76228">
        <ele>427.3</ele>
        <time>2022-04-17T14:02:21Z</time>
      </trkpt>
      <trkpt lat="49.06565" lon="7.76239">
        <ele>428</ele>
        <time>2022-04-17T14:02:38Z</time>
      </trkpt>
      <trkpt lat="49.06564" lon="7.76253">
        <ele>428.9</ele>
        <time>2022-04-17T14:02:52Z</time>
      </trkpt>
      <trkpt lat="49.06564" lon="7.76268">
        <ele>429.7</ele>
        <time>2022-04-17T14:03:02Z</time>
      </trkpt>
      <trkpt lat="49.06567" lon="7.76281">
        <ele>430.5</ele>
        <time>2022-04-17T14:03:12Z</time>
      </trkpt>
      <trkpt lat="49.06572" lon="7.76294">
        <ele>431.2</ele>
        <time>2022-04-17T14:03:20Z</time>
      </trkpt>
      <trkpt lat="49.06576" lon="7.76306">
        <ele>431.9</ele>
        <time>2022-04-17T14:03:28Z</time>
      </trkpt>
      <trkpt lat="49.06581" lon="7.76319">
        <ele>432.7</ele>
        <time>2022-04-17T14:03:38Z</time>
      </trkpt>
      <trkpt lat="49.06587" lon="7.76332">
        <ele>433.6</ele>
        <time>2022-04-17T14:03:46Z</time>
      </trkpt>
      <trkpt lat="49.0659" lon="7.76345">
        <ele>434.4</ele>
        <time>2022-04-17T14:03:53Z</time>
      </trkpt>
      <trkpt lat="49.06594" lon="7.76352">
        <ele>435</ele>
        <time>2022-04-17T14:04:01Z</time>
      </trkpt>
      <trkpt lat="49.06594" lon="7.76352">
        <ele>435</ele>
        <time>2022-04-17T14:04:02Z</time>
      </trkpt>
      <trkpt lat="49.06594" lon="7.76353">
        <ele>435.1</ele>
        <time>2022-04-17T14:04:05Z</time>
      </trkpt>
      <trkpt lat="49.06594" lon="7.76354">
        <ele>435.2</ele>
        <time>2022-04-17T14:04:06Z</time>
      </trkpt>
      <trkpt lat="49.06596" lon="7.76368">
        <ele>436</ele>
        <time>2022-04-17T14:04:21Z</time>
      </trkpt>
      <trkpt lat="49.06601" lon="7.76379">
        <ele>436.6</ele>
        <time>2022-04-17T14:04:29Z</time>
      </trkpt>
      <trkpt lat="49.06606" lon="7.76392">
        <ele>436.9</ele>
        <time>2022-04-17T14:04:37Z</time>
      </trkpt>
      <trkpt lat="49.06613" lon="7.76401">
        <ele>437.4</ele>
        <time>2022-04-17T14:04:50Z</time>
      </trkpt>
      <trkpt lat="49.06615" lon="7.76408">
        <ele>437.8</ele>
        <time>2022-04-17T14:04:58Z</time>
      </trkpt>
      <trkpt lat="49.06615" lon="7.76408">
        <ele>437.8</ele>
        <time>2022-04-17T14:04:59Z</time>
      </trkpt>
      <trkpt lat="49.06615" lon="7.76422">
        <ele>438.7</ele>
        <time>2022-04-17T14:05:20Z</time>
      </trkpt>
      <trkpt lat="49.06615" lon="7.76426">
        <ele>438.9</ele>
        <time>2022-04-17T14:05:26Z</time>
      </trkpt>
      <trkpt lat="49.06615" lon="7.76426">
        <ele>439</ele>
        <time>2022-04-17T14:05:27Z</time>
      </trkpt>
      <trkpt lat="49.06617" lon="7.76425">
        <ele>439.2</ele>
        <time>2022-04-17T14:05:37Z</time>
      </trkpt>
      <trkpt lat="49.06618" lon="7.76425">
        <ele>439.2</ele>
        <time>2022-04-17T14:05:39Z</time>
      </trkpt>
      <trkpt lat="49.06621" lon="7.76424">
        <ele>439.5</ele>
        <time>2022-04-17T14:05:54Z</time>
      </trkpt>
      <trkpt lat="49.06621" lon="7.76424">
        <ele>439.6</ele>
        <time>2022-04-17T14:05:55Z</time>
      </trkpt>
      <trkpt lat="49.06621" lon="7.76424">
        <ele>439.6</ele>
        <time>2022-04-17T14:05:56Z</time>
      </trkpt>
      <trkpt lat="49.06621" lon="7.76424">
        <ele>439.6</ele>
        <time>2022-04-17T14:05:57Z</time>
      </trkpt>
      <trkpt lat="49.06621" lon="7.76422">
        <ele>439.7</ele>
        <time>2022-04-17T14:06:02Z</time>
      </trkpt>
      <trkpt lat="49.06621" lon="7.76422">
        <ele>439.7</ele>
        <time>2022-04-17T14:06:03Z</time>
      </trkpt>
      <trkpt lat="49.06628" lon="7.76432">
        <ele>440.6</ele>
        <time>2022-04-17T14:06:27Z</time>
      </trkpt>
      <trkpt lat="49.06634" lon="7.76443">
        <ele>441.4</ele>
        <time>2022-04-17T14:06:35Z</time>
      </trkpt>
      <trkpt lat="49.06637" lon="7.76455">
        <ele>442.1</ele>
        <time>2022-04-17T14:06:49Z</time>
      </trkpt>
      <trkpt lat="49.06638" lon="7.76455">
        <ele>442.2</ele>
        <time>2022-04-17T14:06:50Z</time>
      </trkpt>
      <trkpt lat="49.06638" lon="7.76455">
        <ele>442.2</ele>
        <time>2022-04-17T14:06:51Z</time>
      </trkpt>
      <trkpt lat="49.06638" lon="7.76454">
        <ele>442.2</ele>
        <time>2022-04-17T14:06:52Z</time>
      </trkpt>
      <trkpt lat="49.06638" lon="7.76454">
        <ele>442.2</ele>
        <time>2022-04-17T14:06:59Z</time>
      </trkpt>
      <trkpt lat="49.06638" lon="7.76454">
        <ele>442.2</ele>
        <time>2022-04-17T14:07:00Z</time>
      </trkpt>
      <trkpt lat="49.06638" lon="7.76454">
        <ele>442.2</ele>
        <time>2022-04-17T14:07:01Z</time>
      </trkpt>
      <trkpt lat="49.06638" lon="7.76455">
        <ele>442.3</ele>
        <time>2022-04-17T14:07:02Z</time>
      </trkpt>
      <trkpt lat="49.06638" lon="7.76454">
        <ele>442.3</ele>
        <time>2022-04-17T14:07:03Z</time>
      </trkpt>
      <trkpt lat="49.06637" lon="7.76454">
        <ele>442.3</ele>
        <time>2022-04-17T14:07:04Z</time>
      </trkpt>
      <trkpt lat="49.06638" lon="7.76451">
        <ele>442.5</ele>
        <time>2022-04-17T14:07:08Z</time>
      </trkpt>
      <trkpt lat="49.06638" lon="7.76451">
        <ele>442.5</ele>
        <time>2022-04-17T14:07:10Z</time>
      </trkpt>
      <trkpt lat="49.06638" lon="7.76451">
        <ele>442.5</ele>
        <time>2022-04-17T14:07:12Z</time>
      </trkpt>
      <trkpt lat="49.06638" lon="7.76451">
        <ele>442.5</ele>
        <time>2022-04-17T14:07:13Z</time>
      </trkpt>
      <trkpt lat="49.06636" lon="7.76453">
        <ele>442.8</ele>
        <time>2022-04-17T14:07:20Z</time>
      </trkpt>
      <trkpt lat="49.06637" lon="7.76454">
        <ele>442.8</ele>
        <time>2022-04-17T14:07:21Z</time>
      </trkpt>
      <trkpt lat="49.06637" lon="7.76455">
        <ele>442.9</ele>
        <time>2022-04-17T14:07:23Z</time>
      </trkpt>
      <trkpt lat="49.06638" lon="7.76455">
        <ele>443</ele>
        <time>2022-04-17T14:07:24Z</time>
      </trkpt>
      <trkpt lat="49.06639" lon="7.76456">
        <ele>443.1</ele>
        <time>2022-04-17T14:07:31Z</time>
      </trkpt>
      <trkpt lat="49.06639" lon="7.76456">
        <ele>443.1</ele>
        <time>2022-04-17T14:07:32Z</time>
      </trkpt>
      <trkpt lat="49.06639" lon="7.76456">
        <ele>443.1</ele>
        <time>2022-04-17T14:07:33Z</time>
      </trkpt>
      <trkpt lat="49.06638" lon="7.76456">
        <ele>443.1</ele>
        <time>2022-04-17T14:07:36Z</time>
      </trkpt>
      <trkpt lat="49.06638" lon="7.76456">
        <ele>443.1</ele>
        <time>2022-04-17T14:07:38Z</time>
      </trkpt>
      <trkpt lat="49.06638" lon="7.76456">
        <ele>443.2</ele>
        <time>2022-04-17T14:07:46Z</time>
      </trkpt>
      <trkpt lat="49.06638" lon="7.76456">
        <ele>443.2</ele>
        <time>2022-04-17T14:07:47Z</time>
      </trkpt>
      <trkpt lat="49.06638" lon="7.76456">
        <ele>443.2</ele>
        <time>2022-04-17T14:07:54Z</time>
      </trkpt>
      <trkpt lat="49.06638" lon="7.76456">
        <ele>443.2</ele>
        <time>2022-04-17T14:07:56Z</time>
      </trkpt>
      <trkpt lat="49.06638" lon="7.76456">
        <ele>443.2</ele>
        <time>2022-04-17T14:07:57Z</time>
      </trkpt>
      <trkpt lat="49.06639" lon="7.76454">
        <ele>443.4</ele>
        <time>2022-04-17T14:08:00Z</time>
      </trkpt>
      <trkpt lat="49.06638" lon="7.76454">
        <ele>443.4</ele>
        <time>2022-04-17T14:08:01Z</time>
      </trkpt>
      <trkpt lat="49.06638" lon="7.76455">
        <ele>443.5</ele>
        <time>2022-04-17T14:08:04Z</time>
      </trkpt>
      <trkpt lat="49.06638" lon="7.76455">
        <ele>443.5</ele>
        <time>2022-04-17T14:08:05Z</time>
      </trkpt>
      <trkpt lat="49.06637" lon="7.76453">
        <ele>443.7</ele>
        <time>2022-04-17T14:08:18Z</time>
      </trkpt>
      <trkpt lat="49.06637" lon="7.76453">
        <ele>443.7</ele>
        <time>2022-04-17T14:08:19Z</time>
      </trkpt>
      <trkpt lat="49.06643" lon="7.76464">
        <ele>444.6</ele>
        <time>2022-04-17T14:08:33Z</time>
      </trkpt>
      <trkpt lat="49.06649" lon="7.76477">
        <ele>445.5</ele>
        <time>2022-04-17T14:08:41Z</time>
      </trkpt>
      <trkpt lat="49.06654" lon="7.76488">
        <ele>446.3</ele>
        <time>2022-04-17T14:08:48Z</time>
      </trkpt>
      <trkpt lat="49.06659" lon="7.765">
        <ele>447.1</ele>
        <time>2022-04-17T14:08:57Z</time>
      </trkpt>
      <trkpt lat="49.06666" lon="7.76511">
        <ele>448.1</ele>
        <time>2022-04-17T14:09:06Z</time>
      </trkpt>
      <trkpt lat="49.06671" lon="7.76524">
        <ele>449</ele>
        <time>2022-04-17T14:09:13Z</time>
      </trkpt>
      <trkpt lat="49.06677" lon="7.76534">
        <ele>449.9</ele>
        <time>2022-04-17T14:09:22Z</time>
      </trkpt>
      <trkpt lat="49.0668" lon="7.76548">
        <ele>450.7</ele>
        <time>2022-04-17T14:09:31Z</time>
      </trkpt>
      <trkpt lat="49.06687" lon="7.76559">
        <ele>451.5</ele>
        <time>2022-04-17T14:09:39Z</time>
      </trkpt>
      <trkpt lat="49.06692" lon="7.7657">
        <ele>452.3</ele>
        <time>2022-04-17T14:09:47Z</time>
      </trkpt>
      <trkpt lat="49.06698" lon="7.76578">
        <ele>453</ele>
        <time>2022-04-17T14:09:57Z</time>
      </trkpt>
      <trkpt lat="49.06698" lon="7.76578">
        <ele>453</ele>
        <time>2022-04-17T14:09:58Z</time>
      </trkpt>
      <trkpt lat="49.06698" lon="7.76578">
        <ele>453</ele>
        <time>2022-04-17T14:09:59Z</time>
      </trkpt>
      <trkpt lat="49.06698" lon="7.76578">
        <ele>453</ele>
        <time>2022-04-17T14:10:00Z</time>
      </trkpt>
      <trkpt lat="49.06694" lon="7.76582">
        <ele>453.4</ele>
        <time>2022-04-17T14:10:16Z</time>
      </trkpt>
      <trkpt lat="49.06695" lon="7.76583">
        <ele>453.5</ele>
        <time>2022-04-17T14:10:17Z</time>
      </trkpt>
      <trkpt lat="49.06697" lon="7.76579">
        <ele>453.8</ele>
        <time>2022-04-17T14:10:33Z</time>
      </trkpt>
      <trkpt lat="49.06698" lon="7.76579">
        <ele>453.8</ele>
        <time>2022-04-17T14:10:34Z</time>
      </trkpt>
      <trkpt lat="49.06704" lon="7.76591">
        <ele>454.6</ele>
        <time>2022-04-17T14:10:43Z</time>
      </trkpt>
      <trkpt lat="49.0671" lon="7.76602">
        <ele>455.3</ele>
        <time>2022-04-17T14:10:51Z</time>
      </trkpt>
      <trkpt lat="49.06714" lon="7.76614">
        <ele>456.1</ele>
        <time>2022-04-17T14:11:01Z</time>
      </trkpt>
      <trkpt lat="49.0672" lon="7.76626">
        <ele>456.9</ele>
        <time>2022-04-17T14:11:10Z</time>
      </trkpt>
      <trkpt lat="49.06728" lon="7.76634">
        <ele>457.7</ele>
        <time>2022-04-17T14:11:18Z</time>
      </trkpt>
      <trkpt lat="49.06731" lon="7.76649">
        <ele>458.6</ele>
        <time>2022-04-17T14:11:25Z</time>
      </trkpt>
      <trkpt lat="49.06736" lon="7.76661">
        <ele>459.5</ele>
        <time>2022-04-17T14:11:32Z</time>
      </trkpt>
      <trkpt lat="49.06742" lon="7.76673">
        <ele>460.4</ele>
        <time>2022-04-17T14:11:41Z</time>
      </trkpt>
      <trkpt lat="49.06745" lon="7.76686">
        <ele>461.2</ele>
        <time>2022-04-17T14:11:55Z</time>
      </trkpt>
      <trkpt lat="49.0675" lon="7.76698">
        <ele>461.9</ele>
        <time>2022-04-17T14:12:12Z</time>
      </trkpt>
      <trkpt lat="49.06756" lon="7.76709">
        <ele>462.7</ele>
        <time>2022-04-17T14:12:24Z</time>
      </trkpt>
      <trkpt lat="49.06762" lon="7.7672">
        <ele>463.5</ele>
        <time>2022-04-17T14:12:34Z</time>
      </trkpt>
      <trkpt lat="49.06767" lon="7.76734">
        <ele>464.4</ele>
        <time>2022-04-17T14:12:43Z</time>
      </trkpt>
      <trkpt lat="49.06769" lon="7.76748">
        <ele>465.2</ele>
        <time>2022-04-17T14:12:54Z</time>
      </trkpt>
      <trkpt lat="49.06775" lon="7.7676">
        <ele>466</ele>
        <time>2022-04-17T14:13:01Z</time>
      </trkpt>
      <trkpt lat="49.06778" lon="7.76766">
        <ele>466.4</ele>
        <time>2022-04-17T14:13:08Z</time>
      </trkpt>
      <trkpt lat="49.06778" lon="7.76766">
        <ele>466.5</ele>
        <time>2022-04-17T14:13:09Z</time>
      </trkpt>
      <trkpt lat="49.06778" lon="7.76773">
        <ele>466.8</ele>
        <time>2022-04-17T14:13:20Z</time>
      </trkpt>
      <trkpt lat="49.06778" lon="7.76773">
        <ele>466.9</ele>
        <time>2022-04-17T14:13:21Z</time>
      </trkpt>
      <trkpt lat="49.06778" lon="7.76773">
        <ele>466.9</ele>
        <time>2022-04-17T14:13:23Z</time>
      </trkpt>
      <trkpt lat="49.06778" lon="7.76773">
        <ele>466.9</ele>
        <time>2022-04-17T14:13:24Z</time>
      </trkpt>
      <trkpt lat="49.06778" lon="7.76773">
        <ele>466.9</ele>
        <time>2022-04-17T14:13:25Z</time>
      </trkpt>
      <trkpt lat="49.06778" lon="7.76773">
        <ele>466.9</ele>
        <time>2022-04-17T14:13:27Z</time>
      </trkpt>
      <trkpt lat="49.0678" lon="7.76787">
        <ele>467.8</ele>
        <time>2022-04-17T14:13:43Z</time>
      </trkpt>
      <trkpt lat="49.06786" lon="7.76797">
        <ele>468.7</ele>
        <time>2022-04-17T14:13:52Z</time>
      </trkpt>
      <trkpt lat="49.06793" lon="7.76806">
        <ele>469.7</ele>
        <time>2022-04-17T14:14:03Z</time>
      </trkpt>
      <trkpt lat="49.06801" lon="7.76816">
        <ele>470.6</ele>
        <time>2022-04-17T14:14:11Z</time>
      </trkpt>
      <trkpt lat="49.06807" lon="7.76827">
        <ele>471.5</ele>
        <time>2022-04-17T14:14:20Z</time>
      </trkpt>
      <trkpt lat="49.06815" lon="7.76835">
        <ele>472.3</ele>
        <time>2022-04-17T14:14:28Z</time>
      </trkpt>
      <trkpt lat="49.06822" lon="7.76844">
        <ele>473.1</ele>
        <time>2022-04-17T14:14:35Z</time>
      </trkpt>
      <trkpt lat="49.06828" lon="7.76854">
        <ele>474.1</ele>
        <time>2022-04-17T14:14:44Z</time>
      </trkpt>
      <trkpt lat="49.06837" lon="7.76861">
        <ele>475.1</ele>
        <time>2022-04-17T14:14:52Z</time>
      </trkpt>
      <trkpt lat="49.0684" lon="7.76863">
        <ele>475.5</ele>
        <time>2022-04-17T14:14:59Z</time>
      </trkpt>
      <trkpt lat="49.06841" lon="7.76862">
        <ele>475.5</ele>
        <time>2022-04-17T14:15:00Z</time>
      </trkpt>
      <trkpt lat="49.06844" lon="7.76865">
        <ele>476</ele>
        <time>2022-04-17T14:15:14Z</time>
      </trkpt>
      <trkpt lat="49.06844" lon="7.76866">
        <ele>476.1</ele>
        <time>2022-04-17T14:15:16Z</time>
      </trkpt>
      <trkpt lat="49.06852" lon="7.76874">
        <ele>477.3</ele>
        <time>2022-04-17T14:15:31Z</time>
      </trkpt>
      <trkpt lat="49.06853" lon="7.76876">
        <ele>477.5</ele>
        <time>2022-04-17T14:15:36Z</time>
      </trkpt>
      <trkpt lat="49.06853" lon="7.76876">
        <ele>477.5</ele>
        <time>2022-04-17T14:15:37Z</time>
      </trkpt>
      <trkpt lat="49.0686" lon="7.76875">
        <ele>478.4</ele>
        <time>2022-04-17T14:16:09Z</time>
      </trkpt>
      <trkpt lat="49.0686" lon="7.76875">
        <ele>478.4</ele>
        <time>2022-04-17T14:16:53Z</time>
      </trkpt>
      <trkpt lat="49.06861" lon="7.76873">
        <ele>478.6</ele>
        <time>2022-04-17T14:17:05Z</time>
      </trkpt>
      <trkpt lat="49.06861" lon="7.76873">
        <ele>478.6</ele>
        <time>2022-04-17T14:17:06Z</time>
      </trkpt>
      <trkpt lat="49.06861" lon="7.76872">
        <ele>478.7</ele>
        <time>2022-04-17T14:17:11Z</time>
      </trkpt>
      <trkpt lat="49.06861" lon="7.76872">
        <ele>478.7</ele>
        <time>2022-04-17T14:17:13Z</time>
      </trkpt>
      <trkpt lat="49.06862" lon="7.76872">
        <ele>478.8</ele>
        <time>2022-04-17T14:17:15Z</time>
      </trkpt>
      <trkpt lat="49.06862" lon="7.76872">
        <ele>478.8</ele>
        <time>2022-04-17T14:17:16Z</time>
      </trkpt>
      <trkpt lat="49.06861" lon="7.7687">
        <ele>478.9</ele>
        <time>2022-04-17T14:17:23Z</time>
      </trkpt>
      <trkpt lat="49.06862" lon="7.7687">
        <ele>479</ele>
        <time>2022-04-17T14:17:24Z</time>
      </trkpt>
      <trkpt lat="49.06862" lon="7.76868">
        <ele>479.1</ele>
        <time>2022-04-17T14:17:31Z</time>
      </trkpt>
      <trkpt lat="49.06862" lon="7.76868">
        <ele>479.1</ele>
        <time>2022-04-17T14:17:32Z</time>
      </trkpt>
      <trkpt lat="49.06861" lon="7.76873">
        <ele>479.3</ele>
        <time>2022-04-17T14:18:11Z</time>
      </trkpt>
      <trkpt lat="49.06861" lon="7.76873">
        <ele>479.3</ele>
        <time>2022-04-17T14:18:12Z</time>
      </trkpt>
      <trkpt lat="49.06862" lon="7.76875">
        <ele>479.4</ele>
        <time>2022-04-17T14:18:16Z</time>
      </trkpt>
      <trkpt lat="49.06862" lon="7.76875">
        <ele>479.4</ele>
        <time>2022-04-17T14:18:18Z</time>
      </trkpt>
      <trkpt lat="49.06862" lon="7.76875">
        <ele>479.4</ele>
        <time>2022-04-17T14:18:19Z</time>
      </trkpt>
      <trkpt lat="49.06862" lon="7.76875">
        <ele>479.4</ele>
        <time>2022-04-17T14:18:21Z</time>
      </trkpt>
      <trkpt lat="49.06861" lon="7.76875">
        <ele>479.5</ele>
        <time>2022-04-17T14:18:23Z</time>
      </trkpt>
      <trkpt lat="49.06861" lon="7.76875">
        <ele>479.5</ele>
        <time>2022-04-17T14:18:35Z</time>
      </trkpt>
      <trkpt lat="49.06861" lon="7.76875">
        <ele>479.5</ele>
        <time>2022-04-17T14:18:36Z</time>
      </trkpt>
      <trkpt lat="49.06861" lon="7.76875">
        <ele>479.5</ele>
        <time>2022-04-17T14:18:51Z</time>
      </trkpt>
      <trkpt lat="49.06861" lon="7.76876">
        <ele>479.5</ele>
        <time>2022-04-17T14:18:53Z</time>
      </trkpt>
      <trkpt lat="49.06861" lon="7.76876">
        <ele>479.5</ele>
        <time>2022-04-17T14:18:56Z</time>
      </trkpt>
      <trkpt lat="49.06861" lon="7.76876">
        <ele>479.5</ele>
        <time>2022-04-17T14:18:58Z</time>
      </trkpt>
      <trkpt lat="49.06861" lon="7.76876">
        <ele>479.5</ele>
        <time>2022-04-17T14:19:05Z</time>
      </trkpt>
      <trkpt lat="49.06861" lon="7.76876">
        <ele>479.5</ele>
        <time>2022-04-17T14:19:06Z</time>
      </trkpt>
      <trkpt lat="49.06861" lon="7.76876">
        <ele>479.5</ele>
        <time>2022-04-17T14:19:15Z</time>
      </trkpt>
      <trkpt lat="49.06861" lon="7.76876">
        <ele>479.5</ele>
        <time>2022-04-17T14:19:16Z</time>
      </trkpt>
      <trkpt lat="49.06861" lon="7.76876">
        <ele>479.5</ele>
        <time>2022-04-17T14:19:18Z</time>
      </trkpt>
      <trkpt lat="49.06861" lon="7.76876">
        <ele>479.5</ele>
        <time>2022-04-17T14:19:19Z</time>
      </trkpt>
      <trkpt lat="49.06862" lon="7.76877">
        <ele>479.6</ele>
        <time>2022-04-17T14:19:20Z</time>
      </trkpt>
      <trkpt lat="49.06862" lon="7.76879">
        <ele>479.7</ele>
        <time>2022-04-17T14:19:24Z</time>
      </trkpt>
      <trkpt lat="49.06861" lon="7.76879">
        <ele>479.7</ele>
        <time>2022-04-17T14:19:25Z</time>
      </trkpt>
      <trkpt lat="49.06861" lon="7.76879">
        <ele>479.7</ele>
        <time>2022-04-17T14:19:26Z</time>
      </trkpt>
      <trkpt lat="49.06862" lon="7.76879">
        <ele>479.7</ele>
        <time>2022-04-17T14:20:05Z</time>
      </trkpt>
      <trkpt lat="49.06862" lon="7.7688">
        <ele>479.7</ele>
        <time>2022-04-17T14:20:07Z</time>
      </trkpt>
      <trkpt lat="49.06862" lon="7.7688">
        <ele>479.7</ele>
        <time>2022-04-17T14:20:24Z</time>
      </trkpt>
      <trkpt lat="49.06862" lon="7.7688">
        <ele>479.8</ele>
        <time>2022-04-17T14:20:27Z</time>
      </trkpt>
      <trkpt lat="49.06862" lon="7.7688">
        <ele>479.8</ele>
        <time>2022-04-17T14:20:31Z</time>
      </trkpt>
      <trkpt lat="49.06862" lon="7.7688">
        <ele>479.8</ele>
        <time>2022-04-17T14:20:32Z</time>
      </trkpt>
      <trkpt lat="49.06862" lon="7.7688">
        <ele>479.8</ele>
        <time>2022-04-17T14:20:41Z</time>
      </trkpt>
      <trkpt lat="49.06862" lon="7.7688">
        <ele>479.8</ele>
        <time>2022-04-17T14:20:43Z</time>
      </trkpt>
      <trkpt lat="49.06862" lon="7.7688">
        <ele>479.8</ele>
        <time>2022-04-17T14:20:54Z</time>
      </trkpt>
      <trkpt lat="49.06861" lon="7.76876">
        <ele>480</ele>
        <time>2022-04-17T14:21:00Z</time>
      </trkpt>
      <trkpt lat="49.06861" lon="7.76876">
        <ele>480</ele>
        <time>2022-04-17T14:21:04Z</time>
      </trkpt>
      <trkpt lat="49.06861" lon="7.76876">
        <ele>480</ele>
        <time>2022-04-17T14:21:05Z</time>
      </trkpt>
      <trkpt lat="49.06861" lon="7.76876">
        <ele>480</ele>
        <time>2022-04-17T14:21:07Z</time>
      </trkpt>
      <trkpt lat="49.06861" lon="7.76876">
        <ele>480.1</ele>
        <time>2022-04-17T14:21:12Z</time>
      </trkpt>
      <trkpt lat="49.06861" lon="7.76876">
        <ele>480.1</ele>
        <time>2022-04-17T14:21:47Z</time>
      </trkpt>
      <trkpt lat="49.06861" lon="7.76876">
        <ele>480.1</ele>
        <time>2022-04-17T14:21:48Z</time>
      </trkpt>
      <trkpt lat="49.06861" lon="7.76876">
        <ele>480.1</ele>
        <time>2022-04-17T14:22:09Z</time>
      </trkpt>
      <trkpt lat="49.06861" lon="7.76876">
        <ele>480.1</ele>
        <time>2022-04-17T14:22:13Z</time>
      </trkpt>
      <trkpt lat="49.06861" lon="7.76876">
        <ele>480.2</ele>
        <time>2022-04-17T14:22:14Z</time>
      </trkpt>
      <trkpt lat="49.06861" lon="7.76877">
        <ele>480.3</ele>
        <time>2022-04-17T14:22:23Z</time>
      </trkpt>
      <trkpt lat="49.06861" lon="7.76878">
        <ele>480.3</ele>
        <time>2022-04-17T14:22:24Z</time>
      </trkpt>
      <trkpt lat="49.06862" lon="7.7688">
        <ele>480.4</ele>
        <time>2022-04-17T14:22:29Z</time>
      </trkpt>
      <trkpt lat="49.06862" lon="7.7688">
        <ele>480.5</ele>
        <time>2022-04-17T14:22:31Z</time>
      </trkpt>
      <trkpt lat="49.06862" lon="7.76881">
        <ele>480.5</ele>
        <time>2022-04-17T14:22:32Z</time>
      </trkpt>
      <trkpt lat="49.06863" lon="7.7688">
        <ele>480.6</ele>
        <time>2022-04-17T14:22:33Z</time>
      </trkpt>
      <trkpt lat="49.06872" lon="7.76887">
        <ele>481.5</ele>
        <time>2022-04-17T14:22:45Z</time>
      </trkpt>
      <trkpt lat="49.06879" lon="7.76896">
        <ele>482.5</ele>
        <time>2022-04-17T14:22:56Z</time>
      </trkpt>
      <trkpt lat="49.06888" lon="7.76902">
        <ele>483.5</ele>
        <time>2022-04-17T14:23:06Z</time>
      </trkpt>
      <trkpt lat="49.06895" lon="7.76911">
        <ele>484.4</ele>
        <time>2022-04-17T14:23:15Z</time>
      </trkpt>
      <trkpt lat="49.06905" lon="7.76916">
        <ele>485.4</ele>
        <time>2022-04-17T14:23:24Z</time>
      </trkpt>
      <trkpt lat="49.06912" lon="7.76924">
        <ele>486.4</ele>
        <time>2022-04-17T14:23:33Z</time>
      </trkpt>
      <trkpt lat="49.0692" lon="7.76934">
        <ele>487.5</ele>
        <time>2022-04-17T14:23:42Z</time>
      </trkpt>
      <trkpt lat="49.06926" lon="7.76944">
        <ele>488.5</ele>
        <time>2022-04-17T14:23:52Z</time>
      </trkpt>
      <trkpt lat="49.06928" lon="7.76947">
        <ele>488.8</ele>
        <time>2022-04-17T14:23:58Z</time>
      </trkpt>
      <trkpt lat="49.06929" lon="7.76947">
        <ele>488.9</ele>
        <time>2022-04-17T14:24:02Z</time>
      </trkpt>
      <trkpt lat="49.06937" lon="7.76955">
        <ele>490</ele>
        <time>2022-04-17T14:24:11Z</time>
      </trkpt>
      <trkpt lat="49.06945" lon="7.76963">
        <ele>491.1</ele>
        <time>2022-04-17T14:24:23Z</time>
      </trkpt>
      <trkpt lat="49.06952" lon="7.76973">
        <ele>492.4</ele>
        <time>2022-04-17T14:24:36Z</time>
      </trkpt>
      <trkpt lat="49.06959" lon="7.76981">
        <ele>493.9</ele>
        <time>2022-04-17T14:24:43Z</time>
      </trkpt>
      <trkpt lat="49.06964" lon="7.76986">
        <ele>495</ele>
        <time>2022-04-17T14:24:54Z</time>
      </trkpt>
      <trkpt lat="49.06964" lon="7.76987">
        <ele>495</ele>
        <time>2022-04-17T14:24:55Z</time>
      </trkpt>
      <trkpt lat="49.06965" lon="7.76987">
        <ele>495.1</ele>
        <time>2022-04-17T14:24:58Z</time>
      </trkpt>
      <trkpt lat="49.06965" lon="7.76987">
        <ele>495.1</ele>
        <time>2022-04-17T14:24:59Z</time>
      </trkpt>
      <trkpt lat="49.0697" lon="7.76999">
        <ele>494.7</ele>
        <time>2022-04-17T14:25:09Z</time>
      </trkpt>
      <trkpt lat="49.06973" lon="7.77013">
        <ele>494.2</ele>
        <time>2022-04-17T14:25:21Z</time>
      </trkpt>
      <trkpt lat="49.06974" lon="7.7702">
        <ele>494</ele>
        <time>2022-04-17T14:25:27Z</time>
      </trkpt>
      <trkpt lat="49.06973" lon="7.77017">
        <ele>493.9</ele>
        <time>2022-04-17T14:25:29Z</time>
      </trkpt>
      <trkpt lat="49.06973" lon="7.77017">
        <ele>493.9</ele>
        <time>2022-04-17T14:25:30Z</time>
      </trkpt>
      <trkpt lat="49.06973" lon="7.77018">
        <ele>493.9</ele>
        <time>2022-04-17T14:25:31Z</time>
      </trkpt>
      <trkpt lat="49.06974" lon="7.77018">
        <ele>493.9</ele>
        <time>2022-04-17T14:25:39Z</time>
      </trkpt>
      <trkpt lat="49.06974" lon="7.77018">
        <ele>493.9</ele>
        <time>2022-04-17T14:26:08Z</time>
      </trkpt>
      <trkpt lat="49.06974" lon="7.77019">
        <ele>493.8</ele>
        <time>2022-04-17T14:26:11Z</time>
      </trkpt>
      <trkpt lat="49.06974" lon="7.77019">
        <ele>493.8</ele>
        <time>2022-04-17T14:26:12Z</time>
      </trkpt>
      <trkpt lat="49.0698" lon="7.7703">
        <ele>494.4</ele>
        <time>2022-04-17T14:26:28Z</time>
      </trkpt>
      <trkpt lat="49.06984" lon="7.77044">
        <ele>495.5</ele>
        <time>2022-04-17T14:26:42Z</time>
      </trkpt>
      <trkpt lat="49.06989" lon="7.77057">
        <ele>496.5</ele>
        <time>2022-04-17T14:26:55Z</time>
      </trkpt>
      <trkpt lat="49.06996" lon="7.77068">
        <ele>497.3</ele>
        <time>2022-04-17T14:27:05Z</time>
      </trkpt>
      <trkpt lat="49.07002" lon="7.77078">
        <ele>498</ele>
        <time>2022-04-17T14:27:15Z</time>
      </trkpt>
      <trkpt lat="49.0701" lon="7.77087">
        <ele>498.8</ele>
        <time>2022-04-17T14:27:27Z</time>
      </trkpt>
      <trkpt lat="49.07015" lon="7.771">
        <ele>499.7</ele>
        <time>2022-04-17T14:27:39Z</time>
      </trkpt>
      <trkpt lat="49.07019" lon="7.77107">
        <ele>500.3</ele>
        <time>2022-04-17T14:27:53Z</time>
      </trkpt>
      <trkpt lat="49.07019" lon="7.77107">
        <ele>500.3</ele>
        <time>2022-04-17T14:27:55Z</time>
      </trkpt>
      <trkpt lat="49.07019" lon="7.77107">
        <ele>500.3</ele>
        <time>2022-04-17T14:27:56Z</time>
      </trkpt>
      <trkpt lat="49.0702" lon="7.77107">
        <ele>500.4</ele>
        <time>2022-04-17T14:27:57Z</time>
      </trkpt>
      <trkpt lat="49.07021" lon="7.77108">
        <ele>500.5</ele>
        <time>2022-04-17T14:28:00Z</time>
      </trkpt>
      <trkpt lat="49.07021" lon="7.77109">
        <ele>500.6</ele>
        <time>2022-04-17T14:28:03Z</time>
      </trkpt>
      <trkpt lat="49.07025" lon="7.77122">
        <ele>501.3</ele>
        <time>2022-04-17T14:28:15Z</time>
      </trkpt>
      <trkpt lat="49.07028" lon="7.77135">
        <ele>501.9</ele>
        <time>2022-04-17T14:28:25Z</time>
      </trkpt>
      <trkpt lat="49.07033" lon="7.77147">
        <ele>502.7</ele>
        <time>2022-04-17T14:28:34Z</time>
      </trkpt>
      <trkpt lat="49.07037" lon="7.7716">
        <ele>503.6</ele>
        <time>2022-04-17T14:28:45Z</time>
      </trkpt>
      <trkpt lat="49.07043" lon="7.77171">
        <ele>504.7</ele>
        <time>2022-04-17T14:28:56Z</time>
      </trkpt>
      <trkpt lat="49.07047" lon="7.77178">
        <ele>505.4</ele>
        <time>2022-04-17T14:29:19Z</time>
      </trkpt>
      <trkpt lat="49.07047" lon="7.77178">
        <ele>505.5</ele>
        <time>2022-04-17T14:29:20Z</time>
      </trkpt>
      <trkpt lat="49.07047" lon="7.77178">
        <ele>505.5</ele>
        <time>2022-04-17T14:29:21Z</time>
      </trkpt>
      <trkpt lat="49.07047" lon="7.77178">
        <ele>505.5</ele>
        <time>2022-04-17T14:29:27Z</time>
      </trkpt>
      <trkpt lat="49.07045" lon="7.77164">
        <ele>506.7</ele>
        <time>2022-04-17T14:29:40Z</time>
      </trkpt>
      <trkpt lat="49.07049" lon="7.77149">
        <ele>507.9</ele>
        <time>2022-04-17T14:29:52Z</time>
      </trkpt>
      <trkpt lat="49.07053" lon="7.77135">
        <ele>508.8</ele>
        <time>2022-04-17T14:30:02Z</time>
      </trkpt>
      <trkpt lat="49.07056" lon="7.77128">
        <ele>509.3</ele>
        <time>2022-04-17T14:30:12Z</time>
      </trkpt>
      <trkpt lat="49.07056" lon="7.77128">
        <ele>509.3</ele>
        <time>2022-04-17T14:30:13Z</time>
      </trkpt>
      <trkpt lat="49.07059" lon="7.77141">
        <ele>510.1</ele>
        <time>2022-04-17T14:30:46Z</time>
      </trkpt>
      <trkpt lat="49.07061" lon="7.77151">
        <ele>510.7</ele>
        <time>2022-04-17T14:30:58Z</time>
      </trkpt>
      <trkpt lat="49.07061" lon="7.77151">
        <ele>510.7</ele>
        <time>2022-04-17T14:30:59Z</time>
      </trkpt>
      <trkpt lat="49.07067" lon="7.77163">
        <ele>511.3</ele>
        <time>2022-04-17T14:31:10Z</time>
      </trkpt>
      <trkpt lat="49.07073" lon="7.77175">
        <ele>511.7</ele>
        <time>2022-04-17T14:31:20Z</time>
      </trkpt>
      <trkpt lat="49.07073" lon="7.77186">
        <ele>511.7</ele>
        <time>2022-04-17T14:31:37Z</time>
      </trkpt>
      <trkpt lat="49.07073" lon="7.77185">
        <ele>511.7</ele>
        <time>2022-04-17T14:31:38Z</time>
      </trkpt>
      <trkpt lat="49.07073" lon="7.77185">
        <ele>511.7</ele>
        <time>2022-04-17T14:31:39Z</time>
      </trkpt>
      <trkpt lat="49.07073" lon="7.77185">
        <ele>511.7</ele>
        <time>2022-04-17T14:31:42Z</time>
      </trkpt>
      <trkpt lat="49.07071" lon="7.77186">
        <ele>511.7</ele>
        <time>2022-04-17T14:31:46Z</time>
      </trkpt>
      <trkpt lat="49.0707" lon="7.77186">
        <ele>511.7</ele>
        <time>2022-04-17T14:31:49Z</time>
      </trkpt>
      <trkpt lat="49.07076" lon="7.77198">
        <ele>511.6</ele>
        <time>2022-04-17T14:31:59Z</time>
      </trkpt>
      <trkpt lat="49.0708" lon="7.77211">
        <ele>511.6</ele>
        <time>2022-04-17T14:32:08Z</time>
      </trkpt>
      <trkpt lat="49.07083" lon="7.77224">
        <ele>511.7</ele>
        <time>2022-04-17T14:32:23Z</time>
      </trkpt>
      <trkpt lat="49.07083" lon="7.77223">
        <ele>511.7</ele>
        <time>2022-04-17T14:32:25Z</time>
      </trkpt>
      <trkpt lat="49.07083" lon="7.77223">
        <ele>511.7</ele>
        <time>2022-04-17T14:32:27Z</time>
      </trkpt>
      <trkpt lat="49.07085" lon="7.77235">
        <ele>511.7</ele>
        <time>2022-04-17T14:32:39Z</time>
      </trkpt>
      <trkpt lat="49.07085" lon="7.77235">
        <ele>511.7</ele>
        <time>2022-04-17T14:32:42Z</time>
      </trkpt>
      <trkpt lat="49.07085" lon="7.77235">
        <ele>511.7</ele>
        <time>2022-04-17T14:32:43Z</time>
      </trkpt>
      <trkpt lat="49.07086" lon="7.77236">
        <ele>511.7</ele>
        <time>2022-04-17T14:32:45Z</time>
      </trkpt>
      <trkpt lat="49.07087" lon="7.7725">
        <ele>511.6</ele>
        <time>2022-04-17T14:33:11Z</time>
      </trkpt>
      <trkpt lat="49.07087" lon="7.77258">
        <ele>511.4</ele>
        <time>2022-04-17T14:33:28Z</time>
      </trkpt>
      <trkpt lat="49.07088" lon="7.77259">
        <ele>511.4</ele>
        <time>2022-04-17T14:33:31Z</time>
      </trkpt>
      <trkpt lat="49.0709" lon="7.77275">
        <ele>510.7</ele>
        <time>2022-04-17T14:33:45Z</time>
      </trkpt>
      <trkpt lat="49.07094" lon="7.77288">
        <ele>509.6</ele>
        <time>2022-04-17T14:33:53Z</time>
      </trkpt>
      <trkpt lat="49.071" lon="7.77299">
        <ele>508.5</ele>
        <time>2022-04-17T14:34:05Z</time>
      </trkpt>
      <trkpt lat="49.07101" lon="7.77299">
        <ele>508.3</ele>
        <time>2022-04-17T14:34:09Z</time>
      </trkpt>
      <trkpt lat="49.07101" lon="7.77299">
        <ele>508.3</ele>
        <time>2022-04-17T14:34:10Z</time>
      </trkpt>
      <trkpt lat="49.07101" lon="7.77299">
        <ele>508.3</ele>
        <time>2022-04-17T14:34:11Z</time>
      </trkpt>
      <trkpt lat="49.07101" lon="7.77299">
        <ele>508.2</ele>
        <time>2022-04-17T14:34:13Z</time>
      </trkpt>
      <trkpt lat="49.07101" lon="7.77299">
        <ele>508.2</ele>
        <time>2022-04-17T14:34:14Z</time>
      </trkpt>
      <trkpt lat="49.071" lon="7.77299">
        <ele>508.1</ele>
        <time>2022-04-17T14:34:21Z</time>
      </trkpt>
      <trkpt lat="49.071" lon="7.77299">
        <ele>508.1</ele>
        <time>2022-04-17T14:34:23Z</time>
      </trkpt>
      <trkpt lat="49.071" lon="7.77299">
        <ele>508.1</ele>
        <time>2022-04-17T14:34:25Z</time>
      </trkpt>
      <trkpt lat="49.07099" lon="7.77301">
        <ele>507.9</ele>
        <time>2022-04-17T14:34:28Z</time>
      </trkpt>
      <trkpt lat="49.071" lon="7.77302">
        <ele>507.7</ele>
        <time>2022-04-17T14:34:29Z</time>
      </trkpt>
      <trkpt lat="49.07099" lon="7.77302">
        <ele>507.6</ele>
        <time>2022-04-17T14:34:42Z</time>
      </trkpt>
      <trkpt lat="49.07099" lon="7.77302">
        <ele>507.6</ele>
        <time>2022-04-17T14:34:46Z</time>
      </trkpt>
      <trkpt lat="49.071" lon="7.77305">
        <ele>507.3</ele>
        <time>2022-04-17T14:34:51Z</time>
      </trkpt>
      <trkpt lat="49.071" lon="7.77305">
        <ele>507.2</ele>
        <time>2022-04-17T14:35:04Z</time>
      </trkpt>
      <trkpt lat="49.071" lon="7.77305">
        <ele>507.2</ele>
        <time>2022-04-17T14:35:05Z</time>
      </trkpt>
      <trkpt lat="49.071" lon="7.77306">
        <ele>507.2</ele>
        <time>2022-04-17T14:35:27Z</time>
      </trkpt>
      <trkpt lat="49.07101" lon="7.77307">
        <ele>507</ele>
        <time>2022-04-17T14:35:29Z</time>
      </trkpt>
      <trkpt lat="49.07101" lon="7.77307">
        <ele>507</ele>
        <time>2022-04-17T14:35:30Z</time>
      </trkpt>
      <trkpt lat="49.07101" lon="7.77306">
        <ele>506.9</ele>
        <time>2022-04-17T14:35:41Z</time>
      </trkpt>
      <trkpt lat="49.07101" lon="7.77305">
        <ele>506.8</ele>
        <time>2022-04-17T14:35:44Z</time>
      </trkpt>
      <trkpt lat="49.071" lon="7.77306">
        <ele>506.7</ele>
        <time>2022-04-17T14:35:47Z</time>
      </trkpt>
      <trkpt lat="49.071" lon="7.77306">
        <ele>506.6</ele>
        <time>2022-04-17T14:35:48Z</time>
      </trkpt>
      <trkpt lat="49.07099" lon="7.7732">
        <ele>504.7</ele>
        <time>2022-04-17T14:36:02Z</time>
      </trkpt>
      <trkpt lat="49.07101" lon="7.77334">
        <ele>502.8</ele>
        <time>2022-04-17T14:36:11Z</time>
      </trkpt>
      <trkpt lat="49.07103" lon="7.77349">
        <ele>501.4</ele>
        <time>2022-04-17T14:36:19Z</time>
      </trkpt>
      <trkpt lat="49.07105" lon="7.77364">
        <ele>500.4</ele>
        <time>2022-04-17T14:36:28Z</time>
      </trkpt>
      <trkpt lat="49.07108" lon="7.77378">
        <ele>499.7</ele>
        <time>2022-04-17T14:36:36Z</time>
      </trkpt>
      <trkpt lat="49.0711" lon="7.77392">
        <ele>499.1</ele>
        <time>2022-04-17T14:36:44Z</time>
      </trkpt>
      <trkpt lat="49.0711" lon="7.77405">
        <ele>498.6</ele>
        <time>2022-04-17T14:36:52Z</time>
      </trkpt>
      <trkpt lat="49.07112" lon="7.7742">
        <ele>498.2</ele>
        <time>2022-04-17T14:37:00Z</time>
      </trkpt>
      <trkpt lat="49.07112" lon="7.77435">
        <ele>497.9</ele>
        <time>2022-04-17T14:37:09Z</time>
      </trkpt>
      <trkpt lat="49.07114" lon="7.77448">
        <ele>497.7</ele>
        <time>2022-04-17T14:37:17Z</time>
      </trkpt>
      <trkpt lat="49.07115" lon="7.77463">
        <ele>497.7</ele>
        <time>2022-04-17T14:37:26Z</time>
      </trkpt>
      <trkpt lat="49.07112" lon="7.77476">
        <ele>497.9</ele>
        <time>2022-04-17T14:37:41Z</time>
      </trkpt>
      <trkpt lat="49.0711" lon="7.77491">
        <ele>497.7</ele>
        <time>2022-04-17T14:37:52Z</time>
      </trkpt>
      <trkpt lat="49.07108" lon="7.77506">
        <ele>497.2</ele>
        <time>2022-04-17T14:38:03Z</time>
      </trkpt>
      <trkpt lat="49.07113" lon="7.77519">
        <ele>496.9</ele>
        <time>2022-04-17T14:38:12Z</time>
      </trkpt>
      <trkpt lat="49.07111" lon="7.77532">
        <ele>496.7</ele>
        <time>2022-04-17T14:38:20Z</time>
      </trkpt>
      <trkpt lat="49.07111" lon="7.77548">
        <ele>496.6</ele>
        <time>2022-04-17T14:38:27Z</time>
      </trkpt>
      <trkpt lat="49.07112" lon="7.77562">
        <ele>496.5</ele>
        <time>2022-04-17T14:38:36Z</time>
      </trkpt>
      <trkpt lat="49.07118" lon="7.77575">
        <ele>496.6</ele>
        <time>2022-04-17T14:38:46Z</time>
      </trkpt>
      <trkpt lat="49.07121" lon="7.77588">
        <ele>497</ele>
        <time>2022-04-17T14:38:57Z</time>
      </trkpt>
      <trkpt lat="49.07126" lon="7.77601">
        <ele>497.4</ele>
        <time>2022-04-17T14:39:07Z</time>
      </trkpt>
      <trkpt lat="49.07128" lon="7.77615">
        <ele>497.9</ele>
        <time>2022-04-17T14:39:18Z</time>
      </trkpt>
      <trkpt lat="49.07132" lon="7.77629">
        <ele>498.3</ele>
        <time>2022-04-17T14:39:26Z</time>
      </trkpt>
      <trkpt lat="49.07132" lon="7.7763">
        <ele>498.4</ele>
        <time>2022-04-17T14:39:29Z</time>
      </trkpt>
      <trkpt lat="49.07132" lon="7.7763">
        <ele>498.4</ele>
        <time>2022-04-17T14:39:30Z</time>
      </trkpt>
      <trkpt lat="49.07135" lon="7.77643">
        <ele>498.8</ele>
        <time>2022-04-17T14:39:41Z</time>
      </trkpt>
      <trkpt lat="49.07138" lon="7.77657">
        <ele>499.4</ele>
        <time>2022-04-17T14:39:53Z</time>
      </trkpt>
      <trkpt lat="49.0714" lon="7.77671">
        <ele>499.9</ele>
        <time>2022-04-17T14:40:02Z</time>
      </trkpt>
      <trkpt lat="49.0714" lon="7.77675">
        <ele>500</ele>
        <time>2022-04-17T14:40:06Z</time>
      </trkpt>
      <trkpt lat="49.07141" lon="7.77676">
        <ele>500</ele>
        <time>2022-04-17T14:40:14Z</time>
      </trkpt>
      <trkpt lat="49.07145" lon="7.7769">
        <ele>500.2</ele>
        <time>2022-04-17T14:40:24Z</time>
      </trkpt>
      <trkpt lat="49.07144" lon="7.77699">
        <ele>500.1</ele>
        <time>2022-04-17T14:40:38Z</time>
      </trkpt>
      <trkpt lat="49.07144" lon="7.77699">
        <ele>500.1</ele>
        <time>2022-04-17T14:40:39Z</time>
      </trkpt>
      <trkpt lat="49.07149" lon="7.77707">
        <ele>500</ele>
        <time>2022-04-17T14:40:51Z</time>
      </trkpt>
      <trkpt lat="49.07148" lon="7.77707">
        <ele>500</ele>
        <time>2022-04-17T14:41:10Z</time>
      </trkpt>
      <trkpt lat="49.07154" lon="7.77718">
        <ele>499.7</ele>
        <time>2022-04-17T14:41:20Z</time>
      </trkpt>
      <trkpt lat="49.07159" lon="7.7773">
        <ele>499.4</ele>
        <time>2022-04-17T14:41:31Z</time>
      </trkpt>
      <trkpt lat="49.07163" lon="7.77743">
        <ele>499.2</ele>
        <time>2022-04-17T14:41:41Z</time>
      </trkpt>
      <trkpt lat="49.07169" lon="7.77755">
        <ele>499.3</ele>
        <time>2022-04-17T14:41:56Z</time>
      </trkpt>
      <trkpt lat="49.07175" lon="7.77767">
        <ele>499.4</ele>
        <time>2022-04-17T14:42:06Z</time>
      </trkpt>
      <trkpt lat="49.07185" lon="7.77768">
        <ele>499.3</ele>
        <time>2022-04-17T14:42:25Z</time>
      </trkpt>
      <trkpt lat="49.07185" lon="7.77768">
        <ele>499.3</ele>
        <time>2022-04-17T14:42:27Z</time>
      </trkpt>
      <trkpt lat="49.07185" lon="7.77768">
        <ele>499.3</ele>
        <time>2022-04-17T14:42:29Z</time>
      </trkpt>
      <trkpt lat="49.07186" lon="7.77768">
        <ele>499.3</ele>
        <time>2022-04-17T14:42:32Z</time>
      </trkpt>
      <trkpt lat="49.07186" lon="7.77769">
        <ele>499.3</ele>
        <time>2022-04-17T14:42:40Z</time>
      </trkpt>
      <trkpt lat="49.07189" lon="7.77767">
        <ele>499.2</ele>
        <time>2022-04-17T14:42:57Z</time>
      </trkpt>
      <trkpt lat="49.07189" lon="7.77767">
        <ele>499.2</ele>
        <time>2022-04-17T14:43:01Z</time>
      </trkpt>
      <trkpt lat="49.07188" lon="7.77769">
        <ele>499.2</ele>
        <time>2022-04-17T14:43:06Z</time>
      </trkpt>
      <trkpt lat="49.07188" lon="7.7777">
        <ele>499.1</ele>
        <time>2022-04-17T14:43:07Z</time>
      </trkpt>
      <trkpt lat="49.07193" lon="7.77782">
        <ele>498.9</ele>
        <time>2022-04-17T14:43:23Z</time>
      </trkpt>
      <trkpt lat="49.07193" lon="7.77782">
        <ele>498.9</ele>
        <time>2022-04-17T14:43:24Z</time>
      </trkpt>
      <trkpt lat="49.07193" lon="7.77782">
        <ele>498.9</ele>
        <time>2022-04-17T14:43:25Z</time>
      </trkpt>
      <trkpt lat="49.07194" lon="7.77783">
        <ele>498.8</ele>
        <time>2022-04-17T14:43:28Z</time>
      </trkpt>
      <trkpt lat="49.07194" lon="7.77783">
        <ele>498.8</ele>
        <time>2022-04-17T14:43:30Z</time>
      </trkpt>
      <trkpt lat="49.07193" lon="7.77783">
        <ele>498.8</ele>
        <time>2022-04-17T14:43:32Z</time>
      </trkpt>
      <trkpt lat="49.07194" lon="7.77783">
        <ele>498.8</ele>
        <time>2022-04-17T14:43:34Z</time>
      </trkpt>
      <trkpt lat="49.07194" lon="7.77783">
        <ele>498.8</ele>
        <time>2022-04-17T14:43:35Z</time>
      </trkpt>
      <trkpt lat="49.07194" lon="7.77783">
        <ele>498.8</ele>
        <time>2022-04-17T14:43:36Z</time>
      </trkpt>
      <trkpt lat="49.07193" lon="7.77783">
        <ele>498.8</ele>
        <time>2022-04-17T14:43:41Z</time>
      </trkpt>
      <trkpt lat="49.07193" lon="7.77783">
        <ele>498.8</ele>
        <time>2022-04-17T14:43:43Z</time>
      </trkpt>
      <trkpt lat="49.07191" lon="7.77786">
        <ele>498.7</ele>
        <time>2022-04-17T14:43:51Z</time>
      </trkpt>
      <trkpt lat="49.07191" lon="7.77786">
        <ele>498.7</ele>
        <time>2022-04-17T14:43:53Z</time>
      </trkpt>
      <trkpt lat="49.07191" lon="7.77786">
        <ele>498.7</ele>
        <time>2022-04-17T14:43:54Z</time>
      </trkpt>
      <trkpt lat="49.07191" lon="7.77787">
        <ele>498.7</ele>
        <time>2022-04-17T14:43:56Z</time>
      </trkpt>
      <trkpt lat="49.07197" lon="7.77797">
        <ele>498.5</ele>
        <time>2022-04-17T14:44:11Z</time>
      </trkpt>
      <trkpt lat="49.07197" lon="7.77797">
        <ele>498.4</ele>
        <time>2022-04-17T14:44:14Z</time>
      </trkpt>
      <trkpt lat="49.07197" lon="7.77797">
        <ele>498.4</ele>
        <time>2022-04-17T14:44:17Z</time>
      </trkpt>
      <trkpt lat="49.07193" lon="7.77785">
        <ele>498.1</ele>
        <time>2022-04-17T14:44:32Z</time>
      </trkpt>
      <trkpt lat="49.07192" lon="7.77791">
        <ele>497.8</ele>
        <time>2022-04-17T14:44:41Z</time>
      </trkpt>
      <trkpt lat="49.07192" lon="7.77792">
        <ele>497.7</ele>
        <time>2022-04-17T14:44:42Z</time>
      </trkpt>
      <trkpt lat="49.07194" lon="7.77805">
        <ele>496.6</ele>
        <time>2022-04-17T14:44:56Z</time>
      </trkpt>
      <trkpt lat="49.07198" lon="7.77818">
        <ele>495</ele>
        <time>2022-04-17T14:45:08Z</time>
      </trkpt>
      <trkpt lat="49.07204" lon="7.7783">
        <ele>493</ele>
        <time>2022-04-17T14:45:24Z</time>
      </trkpt>
      <trkpt lat="49.0721" lon="7.77827">
        <ele>491.6</ele>
        <time>2022-04-17T14:45:40Z</time>
      </trkpt>
      <trkpt lat="49.0721" lon="7.77827">
        <ele>491.5</ele>
        <time>2022-04-17T14:45:42Z</time>
      </trkpt>
      <trkpt lat="49.07219" lon="7.77828">
        <ele>489.6</ele>
        <time>2022-04-17T14:46:05Z</time>
      </trkpt>
      <trkpt lat="49.07228" lon="7.77825">
        <ele>487.1</ele>
        <time>2022-04-17T14:46:20Z</time>
      </trkpt>
      <trkpt lat="49.07231" lon="7.77819">
        <ele>486.2</ele>
        <time>2022-04-17T14:46:29Z</time>
      </trkpt>
      <trkpt lat="49.07231" lon="7.77819">
        <ele>485.8</ele>
        <time>2022-04-17T14:46:36Z</time>
      </trkpt>
      <trkpt lat="49.07231" lon="7.77819">
        <ele>485.5</ele>
        <time>2022-04-17T14:46:37Z</time>
      </trkpt>
      <trkpt lat="49.07231" lon="7.77819">
        <ele>485.1</ele>
        <time>2022-04-17T14:46:39Z</time>
      </trkpt>
      <trkpt lat="49.07231" lon="7.77819">
        <ele>484.8</ele>
        <time>2022-04-17T14:46:40Z</time>
      </trkpt>
      <trkpt lat="49.07231" lon="7.77819">
        <ele>484.5</ele>
        <time>2022-04-17T14:46:42Z</time>
      </trkpt>
      <trkpt lat="49.07235" lon="7.7782">
        <ele>481.9</ele>
        <time>2022-04-17T14:47:09Z</time>
      </trkpt>
      <trkpt lat="49.07235" lon="7.77819">
        <ele>482.7</ele>
        <time>2022-04-17T14:47:14Z</time>
      </trkpt>
      <trkpt lat="49.07235" lon="7.77819">
        <ele>482.4</ele>
        <time>2022-04-17T14:47:15Z</time>
      </trkpt>
      <trkpt lat="49.07235" lon="7.77819">
        <ele>482.1</ele>
        <time>2022-04-17T14:47:21Z</time>
      </trkpt>
      <trkpt lat="49.07235" lon="7.77819">
        <ele>480.6</ele>
        <time>2022-04-17T14:47:23Z</time>
      </trkpt>
      <trkpt lat="49.07235" lon="7.7782">
        <ele>480.2</ele>
        <time>2022-04-17T14:47:29Z</time>
      </trkpt>
      <trkpt lat="49.07236" lon="7.77834">
        <ele>479</ele>
        <time>2022-04-17T14:47:38Z</time>
      </trkpt>
      <trkpt lat="49.07235" lon="7.77848">
        <ele>478.9</ele>
        <time>2022-04-17T14:47:46Z</time>
      </trkpt>
      <trkpt lat="49.07235" lon="7.77863">
        <ele>478.8</ele>
        <time>2022-04-17T14:47:55Z</time>
      </trkpt>
      <trkpt lat="49.0724" lon="7.77875">
        <ele>476.6</ele>
        <time>2022-04-17T14:48:13Z</time>
      </trkpt>
      <trkpt lat="49.07247" lon="7.77884">
        <ele>474.1</ele>
        <time>2022-04-17T14:48:28Z</time>
      </trkpt>
      <trkpt lat="49.07253" lon="7.77894">
        <ele>471.4</ele>
        <time>2022-04-17T14:48:40Z</time>
      </trkpt>
      <trkpt lat="49.07256" lon="7.77907">
        <ele>469.2</ele>
        <time>2022-04-17T14:48:55Z</time>
      </trkpt>
      <trkpt lat="49.07263" lon="7.77918">
        <ele>467.1</ele>
        <time>2022-04-17T14:49:05Z</time>
      </trkpt>
      <trkpt lat="49.07269" lon="7.77929">
        <ele>464.8</ele>
        <time>2022-04-17T14:49:15Z</time>
      </trkpt>
      <trkpt lat="49.07275" lon="7.77939">
        <ele>462.1</ele>
        <time>2022-04-17T14:49:28Z</time>
      </trkpt>
      <trkpt lat="49.07281" lon="7.7795">
        <ele>459.3</ele>
        <time>2022-04-17T14:49:42Z</time>
      </trkpt>
      <trkpt lat="49.07281" lon="7.77952">
        <ele>458.8</ele>
        <time>2022-04-17T14:49:47Z</time>
      </trkpt>
      <trkpt lat="49.07282" lon="7.77952">
        <ele>458.7</ele>
        <time>2022-04-17T14:49:48Z</time>
      </trkpt>
      <trkpt lat="49.07289" lon="7.7796">
        <ele>456.1</ele>
        <time>2022-04-17T14:50:00Z</time>
      </trkpt>
      <trkpt lat="49.07295" lon="7.77971">
        <ele>453.8</ele>
        <time>2022-04-17T14:50:11Z</time>
      </trkpt>
      <trkpt lat="49.07302" lon="7.7798">
        <ele>451.7</ele>
        <time>2022-04-17T14:50:26Z</time>
      </trkpt>
      <trkpt lat="49.07302" lon="7.7798">
        <ele>451.6</ele>
        <time>2022-04-17T14:50:28Z</time>
      </trkpt>
      <trkpt lat="49.07309" lon="7.77989">
        <ele>449.2</ele>
        <time>2022-04-17T14:50:43Z</time>
      </trkpt>
      <trkpt lat="49.07314" lon="7.78001">
        <ele>446.7</ele>
        <time>2022-04-17T14:50:55Z</time>
      </trkpt>
      <trkpt lat="49.07319" lon="7.78013">
        <ele>444.6</ele>
        <time>2022-04-17T14:51:06Z</time>
      </trkpt>
      <trkpt lat="49.07325" lon="7.78023">
        <ele>442.6</ele>
        <time>2022-04-17T14:51:16Z</time>
      </trkpt>
      <trkpt lat="49.07332" lon="7.7803">
        <ele>440.8</ele>
        <time>2022-04-17T14:51:26Z</time>
      </trkpt>
      <trkpt lat="49.07332" lon="7.7803">
        <ele>440.7</ele>
        <time>2022-04-17T14:51:31Z</time>
      </trkpt>
      <trkpt lat="49.07332" lon="7.7803">
        <ele>440.7</ele>
        <time>2022-04-17T14:51:32Z</time>
      </trkpt>
      <trkpt lat="49.07332" lon="7.78029">
        <ele>440.6</ele>
        <time>2022-04-17T14:51:35Z</time>
      </trkpt>
      <trkpt lat="49.07332" lon="7.78029">
        <ele>440.6</ele>
        <time>2022-04-17T14:51:36Z</time>
      </trkpt>
      <trkpt lat="49.07333" lon="7.78029">
        <ele>440.4</ele>
        <time>2022-04-17T14:51:43Z</time>
      </trkpt>
      <trkpt lat="49.07338" lon="7.78041">
        <ele>438</ele>
        <time>2022-04-17T14:51:58Z</time>
      </trkpt>
      <trkpt lat="49.07343" lon="7.78052">
        <ele>435.4</ele>
        <time>2022-04-17T14:52:11Z</time>
      </trkpt>
      <trkpt lat="49.07348" lon="7.78058">
        <ele>434</ele>
        <time>2022-04-17T14:52:20Z</time>
      </trkpt>
      <trkpt lat="49.07348" lon="7.78057">
        <ele>433.9</ele>
        <time>2022-04-17T14:52:23Z</time>
      </trkpt>
      <trkpt lat="49.07348" lon="7.78057">
        <ele>433.9</ele>
        <time>2022-04-17T14:52:24Z</time>
      </trkpt>
      <trkpt lat="49.07348" lon="7.78057">
        <ele>433.8</ele>
        <time>2022-04-17T14:52:27Z</time>
      </trkpt>
      <trkpt lat="49.07354" lon="7.78069">
        <ele>431.5</ele>
        <time>2022-04-17T14:52:41Z</time>
      </trkpt>
      <trkpt lat="49.07353" lon="7.78083">
        <ele>429.3</ele>
        <time>2022-04-17T14:52:56Z</time>
      </trkpt>
      <trkpt lat="49.07349" lon="7.78096">
        <ele>427.6</ele>
        <time>2022-04-17T14:53:07Z</time>
      </trkpt>
      <trkpt lat="49.07342" lon="7.78107">
        <ele>425.6</ele>
        <time>2022-04-17T14:53:16Z</time>
      </trkpt>
      <trkpt lat="49.07337" lon="7.7812">
        <ele>424.5</ele>
        <time>2022-04-17T14:53:25Z</time>
      </trkpt>
      <trkpt lat="49.07336" lon="7.78133">
        <ele>424.3</ele>
        <time>2022-04-17T14:53:38Z</time>
      </trkpt>
      <trkpt lat="49.07336" lon="7.78133">
        <ele>424.2</ele>
        <time>2022-04-17T14:53:39Z</time>
      </trkpt>
      <trkpt lat="49.07337" lon="7.78133">
        <ele>424.2</ele>
        <time>2022-04-17T14:53:45Z</time>
      </trkpt>
      <trkpt lat="49.07337" lon="7.78133">
        <ele>424.2</ele>
        <time>2022-04-17T14:53:52Z</time>
      </trkpt>
      <trkpt lat="49.07337" lon="7.78133">
        <ele>424.2</ele>
        <time>2022-04-17T14:53:53Z</time>
      </trkpt>
      <trkpt lat="49.07336" lon="7.78133">
        <ele>424.2</ele>
        <time>2022-04-17T14:53:54Z</time>
      </trkpt>
      <trkpt lat="49.07337" lon="7.78133">
        <ele>424.2</ele>
        <time>2022-04-17T14:53:56Z</time>
      </trkpt>
      <trkpt lat="49.07336" lon="7.78134">
        <ele>424.2</ele>
        <time>2022-04-17T14:54:44Z</time>
      </trkpt>
      <trkpt lat="49.07336" lon="7.78134">
        <ele>424.2</ele>
        <time>2022-04-17T14:54:45Z</time>
      </trkpt>
      <trkpt lat="49.07336" lon="7.78134">
        <ele>424.2</ele>
        <time>2022-04-17T14:54:51Z</time>
      </trkpt>
      <trkpt lat="49.07336" lon="7.78134">
        <ele>424.2</ele>
        <time>2022-04-17T14:54:53Z</time>
      </trkpt>
      <trkpt lat="49.07336" lon="7.78134">
        <ele>424.2</ele>
        <time>2022-04-17T14:54:55Z</time>
      </trkpt>
      <trkpt lat="49.07337" lon="7.78135">
        <ele>424.1</ele>
        <time>2022-04-17T14:54:59Z</time>
      </trkpt>
      <trkpt lat="49.07337" lon="7.78135">
        <ele>424.1</ele>
        <time>2022-04-17T14:55:21Z</time>
      </trkpt>
      <trkpt lat="49.07338" lon="7.78135">
        <ele>424.1</ele>
        <time>2022-04-17T14:55:23Z</time>
      </trkpt>
      <trkpt lat="49.07337" lon="7.78135">
        <ele>424.1</ele>
        <time>2022-04-17T14:55:27Z</time>
      </trkpt>
      <trkpt lat="49.07337" lon="7.78135">
        <ele>424.1</ele>
        <time>2022-04-17T14:55:28Z</time>
      </trkpt>
      <trkpt lat="49.07337" lon="7.78135">
        <ele>424.1</ele>
        <time>2022-04-17T14:55:36Z</time>
      </trkpt>
      <trkpt lat="49.07337" lon="7.78135">
        <ele>424.1</ele>
        <time>2022-04-17T14:55:40Z</time>
      </trkpt>
      <trkpt lat="49.07337" lon="7.78136">
        <ele>424.1</ele>
        <time>2022-04-17T14:55:41Z</time>
      </trkpt>
      <trkpt lat="49.07338" lon="7.78134">
        <ele>424</ele>
        <time>2022-04-17T14:55:45Z</time>
      </trkpt>
      <trkpt lat="49.07338" lon="7.78134">
        <ele>424</ele>
        <time>2022-04-17T14:55:48Z</time>
      </trkpt>
      <trkpt lat="49.07337" lon="7.7813">
        <ele>424</ele>
        <time>2022-04-17T14:55:56Z</time>
      </trkpt>
      <trkpt lat="49.07337" lon="7.7813">
        <ele>424</ele>
        <time>2022-04-17T14:55:58Z</time>
      </trkpt>
      <trkpt lat="49.07338" lon="7.78129">
        <ele>423.9</ele>
        <time>2022-04-17T14:56:01Z</time>
      </trkpt>
      <trkpt lat="49.07338" lon="7.78129">
        <ele>423.9</ele>
        <time>2022-04-17T14:56:08Z</time>
      </trkpt>
      <trkpt lat="49.07338" lon="7.78129">
        <ele>423.9</ele>
        <time>2022-04-17T14:56:09Z</time>
      </trkpt>
      <trkpt lat="49.07338" lon="7.78129">
        <ele>423.9</ele>
        <time>2022-04-17T14:56:12Z</time>
      </trkpt>
      <trkpt lat="49.07339" lon="7.7813">
        <ele>423.9</ele>
        <time>2022-04-17T14:56:15Z</time>
      </trkpt>
      <trkpt lat="49.07339" lon="7.7813">
        <ele>423.9</ele>
        <time>2022-04-17T14:56:31Z</time>
      </trkpt>
      <trkpt lat="49.07339" lon="7.7813">
        <ele>423.9</ele>
        <time>2022-04-17T14:56:33Z</time>
      </trkpt>
      <trkpt lat="49.07339" lon="7.7813">
        <ele>423.9</ele>
        <time>2022-04-17T14:56:36Z</time>
      </trkpt>
      <trkpt lat="49.0734" lon="7.7813">
        <ele>423.9</ele>
        <time>2022-04-17T14:56:39Z</time>
      </trkpt>
      <trkpt lat="49.0734" lon="7.7813">
        <ele>423.9</ele>
        <time>2022-04-17T14:56:41Z</time>
      </trkpt>
      <trkpt lat="49.0734" lon="7.7813">
        <ele>423.9</ele>
        <time>2022-04-17T14:56:42Z</time>
      </trkpt>
      <trkpt lat="49.0734" lon="7.7813">
        <ele>423.9</ele>
        <time>2022-04-17T14:56:56Z</time>
      </trkpt>
      <trkpt lat="49.07339" lon="7.7813">
        <ele>423.8</ele>
        <time>2022-04-17T14:56:59Z</time>
      </trkpt>
      <trkpt lat="49.07339" lon="7.7813">
        <ele>423.8</ele>
        <time>2022-04-17T14:57:01Z</time>
      </trkpt>
      <trkpt lat="49.07339" lon="7.78131">
        <ele>423.8</ele>
        <time>2022-04-17T14:57:07Z</time>
      </trkpt>
      <trkpt lat="49.07339" lon="7.78131">
        <ele>423.8</ele>
        <time>2022-04-17T14:57:10Z</time>
      </trkpt>
      <trkpt lat="49.07339" lon="7.78131">
        <ele>423.8</ele>
        <time>2022-04-17T14:57:11Z</time>
      </trkpt>
      <trkpt lat="49.07339" lon="7.78131">
        <ele>423.8</ele>
        <time>2022-04-17T14:57:12Z</time>
      </trkpt>
      <trkpt lat="49.0734" lon="7.78131">
        <ele>423.8</ele>
        <time>2022-04-17T14:57:14Z</time>
      </trkpt>
      <trkpt lat="49.07339" lon="7.78131">
        <ele>423.8</ele>
        <time>2022-04-17T14:57:23Z</time>
      </trkpt>
      <trkpt lat="49.07339" lon="7.78131">
        <ele>423.8</ele>
        <time>2022-04-17T14:57:24Z</time>
      </trkpt>
      <trkpt lat="49.0734" lon="7.78131">
        <ele>423.8</ele>
        <time>2022-04-17T14:57:26Z</time>
      </trkpt>
      <trkpt lat="49.0734" lon="7.7813">
        <ele>423.8</ele>
        <time>2022-04-17T14:57:29Z</time>
      </trkpt>
      <trkpt lat="49.0734" lon="7.7813">
        <ele>423.8</ele>
        <time>2022-04-17T14:57:38Z</time>
      </trkpt>
      <trkpt lat="49.0734" lon="7.78129">
        <ele>423.7</ele>
        <time>2022-04-17T14:57:40Z</time>
      </trkpt>
      <trkpt lat="49.0734" lon="7.78129">
        <ele>423.7</ele>
        <time>2022-04-17T14:57:43Z</time>
      </trkpt>
      <trkpt lat="49.0734" lon="7.78129">
        <ele>423.7</ele>
        <time>2022-04-17T14:57:45Z</time>
      </trkpt>
      <trkpt lat="49.0734" lon="7.78129">
        <ele>423.7</ele>
        <time>2022-04-17T14:58:04Z</time>
      </trkpt>
      <trkpt lat="49.0734" lon="7.78129">
        <ele>423.7</ele>
        <time>2022-04-17T14:58:05Z</time>
      </trkpt>
      <trkpt lat="49.07339" lon="7.78129">
        <ele>423.7</ele>
        <time>2022-04-17T14:58:15Z</time>
      </trkpt>
      <trkpt lat="49.07339" lon="7.78129">
        <ele>423.7</ele>
        <time>2022-04-17T14:58:17Z</time>
      </trkpt>
      <trkpt lat="49.07338" lon="7.7813">
        <ele>423.7</ele>
        <time>2022-04-17T14:58:19Z</time>
      </trkpt>
      <trkpt lat="49.07337" lon="7.78131">
        <ele>423.6</ele>
        <time>2022-04-17T14:58:24Z</time>
      </trkpt>
      <trkpt lat="49.07337" lon="7.78131">
        <ele>423.6</ele>
        <time>2022-04-17T14:58:36Z</time>
      </trkpt>
      <trkpt lat="49.07337" lon="7.78131">
        <ele>423.6</ele>
        <time>2022-04-17T14:58:39Z</time>
      </trkpt>
      <trkpt lat="49.07337" lon="7.78131">
        <ele>423.6</ele>
        <time>2022-04-17T14:58:40Z</time>
      </trkpt>
      <trkpt lat="49.07339" lon="7.78128">
        <ele>423.5</ele>
        <time>2022-04-17T14:58:50Z</time>
      </trkpt>
      <trkpt lat="49.07339" lon="7.78128">
        <ele>423.5</ele>
        <time>2022-04-17T14:59:00Z</time>
      </trkpt>
      <trkpt lat="49.0734" lon="7.78129">
        <ele>423.5</ele>
        <time>2022-04-17T14:59:04Z</time>
      </trkpt>
      <trkpt lat="49.0734" lon="7.78129">
        <ele>423.5</ele>
        <time>2022-04-17T14:59:05Z</time>
      </trkpt>
      <trkpt lat="49.07344" lon="7.78127">
        <ele>423.3</ele>
        <time>2022-04-17T14:59:16Z</time>
      </trkpt>
      <trkpt lat="49.07343" lon="7.78127">
        <ele>423.3</ele>
        <time>2022-04-17T14:59:18Z</time>
      </trkpt>
      <trkpt lat="49.0734" lon="7.78127">
        <ele>423.2</ele>
        <time>2022-04-17T14:59:27Z</time>
      </trkpt>
      <trkpt lat="49.07339" lon="7.78127">
        <ele>423.2</ele>
        <time>2022-04-17T14:59:28Z</time>
      </trkpt>
      <trkpt lat="49.07339" lon="7.78127">
        <ele>423.2</ele>
        <time>2022-04-17T14:59:30Z</time>
      </trkpt>
      <trkpt lat="49.07338" lon="7.78127">
        <ele>423.2</ele>
        <time>2022-04-17T14:59:41Z</time>
      </trkpt>
      <trkpt lat="49.07338" lon="7.78127">
        <ele>423.2</ele>
        <time>2022-04-17T14:59:42Z</time>
      </trkpt>
      <trkpt lat="49.07338" lon="7.78127">
        <ele>423.2</ele>
        <time>2022-04-17T14:59:48Z</time>
      </trkpt>
      <trkpt lat="49.07338" lon="7.78127">
        <ele>423.2</ele>
        <time>2022-04-17T14:59:49Z</time>
      </trkpt>
      <trkpt lat="49.07338" lon="7.78128">
        <ele>423.2</ele>
        <time>2022-04-17T14:59:52Z</time>
      </trkpt>
      <trkpt lat="49.07338" lon="7.78128">
        <ele>423.2</ele>
        <time>2022-04-17T14:59:53Z</time>
      </trkpt>
      <trkpt lat="49.07337" lon="7.78128">
        <ele>423.2</ele>
        <time>2022-04-17T14:59:58Z</time>
      </trkpt>
      <trkpt lat="49.07341" lon="7.78135">
        <ele>423</ele>
        <time>2022-04-17T15:00:17Z</time>
      </trkpt>
      <trkpt lat="49.07341" lon="7.78135">
        <ele>423</ele>
        <time>2022-04-17T15:00:19Z</time>
      </trkpt>
      <trkpt lat="49.07341" lon="7.78135">
        <ele>423</ele>
        <time>2022-04-17T15:00:20Z</time>
      </trkpt>
      <trkpt lat="49.07341" lon="7.78135">
        <ele>423</ele>
        <time>2022-04-17T15:00:21Z</time>
      </trkpt>
      <trkpt lat="49.07341" lon="7.78135">
        <ele>423</ele>
        <time>2022-04-17T15:00:22Z</time>
      </trkpt>
      <trkpt lat="49.0734" lon="7.78136">
        <ele>422.9</ele>
        <time>2022-04-17T15:00:24Z</time>
      </trkpt>
      <trkpt lat="49.0734" lon="7.78136">
        <ele>422.9</ele>
        <time>2022-04-17T15:00:26Z</time>
      </trkpt>
      <trkpt lat="49.0734" lon="7.78136">
        <ele>422.9</ele>
        <time>2022-04-17T15:00:30Z</time>
      </trkpt>
      <trkpt lat="49.0734" lon="7.78137">
        <ele>422.9</ele>
        <time>2022-04-17T15:00:31Z</time>
      </trkpt>
      <trkpt lat="49.07341" lon="7.78137">
        <ele>422.9</ele>
        <time>2022-04-17T15:00:32Z</time>
      </trkpt>
      <trkpt lat="49.0734" lon="7.78137">
        <ele>422.9</ele>
        <time>2022-04-17T15:00:35Z</time>
      </trkpt>
      <trkpt lat="49.0734" lon="7.78137">
        <ele>422.9</ele>
        <time>2022-04-17T15:00:37Z</time>
      </trkpt>
      <trkpt lat="49.07339" lon="7.78136">
        <ele>422.9</ele>
        <time>2022-04-17T15:00:42Z</time>
      </trkpt>
      <trkpt lat="49.07339" lon="7.78136">
        <ele>422.9</ele>
        <time>2022-04-17T15:00:44Z</time>
      </trkpt>
      <trkpt lat="49.07338" lon="7.78136">
        <ele>422.8</ele>
        <time>2022-04-17T15:00:46Z</time>
      </trkpt>
      <trkpt lat="49.07338" lon="7.78137">
        <ele>422.8</ele>
        <time>2022-04-17T15:00:48Z</time>
      </trkpt>
      <trkpt lat="49.07338" lon="7.78137">
        <ele>422.8</ele>
        <time>2022-04-17T15:00:49Z</time>
      </trkpt>
      <trkpt lat="49.07338" lon="7.78137">
        <ele>422.8</ele>
        <time>2022-04-17T15:00:51Z</time>
      </trkpt>
      <trkpt lat="49.07338" lon="7.78137">
        <ele>422.8</ele>
        <time>2022-04-17T15:00:52Z</time>
      </trkpt>
      <trkpt lat="49.07338" lon="7.78136">
        <ele>422.8</ele>
        <time>2022-04-17T15:00:58Z</time>
      </trkpt>
      <trkpt lat="49.07338" lon="7.78136">
        <ele>422.8</ele>
        <time>2022-04-17T15:00:59Z</time>
      </trkpt>
      <trkpt lat="49.07338" lon="7.78136">
        <ele>422.8</ele>
        <time>2022-04-17T15:01:01Z</time>
      </trkpt>
      <trkpt lat="49.07338" lon="7.78136">
        <ele>422.8</ele>
        <time>2022-04-17T15:01:02Z</time>
      </trkpt>
      <trkpt lat="49.07338" lon="7.78136">
        <ele>422.8</ele>
        <time>2022-04-17T15:01:05Z</time>
      </trkpt>
      <trkpt lat="49.07339" lon="7.78134">
        <ele>422.8</ele>
        <time>2022-04-17T15:01:13Z</time>
      </trkpt>
      <trkpt lat="49.07339" lon="7.78134">
        <ele>422.8</ele>
        <time>2022-04-17T15:01:15Z</time>
      </trkpt>
      <trkpt lat="49.07339" lon="7.78134">
        <ele>422.7</ele>
        <time>2022-04-17T15:01:17Z</time>
      </trkpt>
      <trkpt lat="49.0734" lon="7.78134">
        <ele>422.7</ele>
        <time>2022-04-17T15:01:18Z</time>
      </trkpt>
      <trkpt lat="49.0734" lon="7.78133">
        <ele>422.7</ele>
        <time>2022-04-17T15:01:20Z</time>
      </trkpt>
      <trkpt lat="49.0734" lon="7.78133">
        <ele>422.7</ele>
        <time>2022-04-17T15:01:24Z</time>
      </trkpt>
      <trkpt lat="49.0734" lon="7.78134">
        <ele>422.7</ele>
        <time>2022-04-17T15:01:27Z</time>
      </trkpt>
      <trkpt lat="49.0734" lon="7.78134">
        <ele>422.7</ele>
        <time>2022-04-17T15:01:29Z</time>
      </trkpt>
      <trkpt lat="49.07338" lon="7.78135">
        <ele>422.7</ele>
        <time>2022-04-17T15:01:34Z</time>
      </trkpt>
      <trkpt lat="49.07339" lon="7.78135">
        <ele>422.7</ele>
        <time>2022-04-17T15:01:35Z</time>
      </trkpt>
      <trkpt lat="49.07339" lon="7.78136">
        <ele>422.6</ele>
        <time>2022-04-17T15:01:40Z</time>
      </trkpt>
      <trkpt lat="49.07339" lon="7.78136">
        <ele>422.6</ele>
        <time>2022-04-17T15:01:41Z</time>
      </trkpt>
      <trkpt lat="49.07339" lon="7.78136">
        <ele>422.6</ele>
        <time>2022-04-17T15:01:45Z</time>
      </trkpt>
      <trkpt lat="49.07339" lon="7.78136">
        <ele>422.6</ele>
        <time>2022-04-17T15:01:47Z</time>
      </trkpt>
      <trkpt lat="49.07339" lon="7.78136">
        <ele>422.6</ele>
        <time>2022-04-17T15:01:49Z</time>
      </trkpt>
      <trkpt lat="49.0734" lon="7.78136">
        <ele>422.6</ele>
        <time>2022-04-17T15:01:50Z</time>
      </trkpt>
      <trkpt lat="49.0734" lon="7.78136">
        <ele>422.6</ele>
        <time>2022-04-17T15:01:53Z</time>
      </trkpt>
      <trkpt lat="49.0734" lon="7.78135">
        <ele>422.6</ele>
        <time>2022-04-17T15:01:54Z</time>
      </trkpt>
      <trkpt lat="49.07341" lon="7.78134">
        <ele>422.6</ele>
        <time>2022-04-17T15:01:58Z</time>
      </trkpt>
      <trkpt lat="49.07341" lon="7.78134">
        <ele>422.5</ele>
        <time>2022-04-17T15:02:01Z</time>
      </trkpt>
      <trkpt lat="49.07341" lon="7.78134">
        <ele>422.5</ele>
        <time>2022-04-17T15:02:02Z</time>
      </trkpt>
      <trkpt lat="49.0734" lon="7.78134">
        <ele>422.5</ele>
        <time>2022-04-17T15:02:03Z</time>
      </trkpt>
      <trkpt lat="49.07338" lon="7.78135">
        <ele>422.5</ele>
        <time>2022-04-17T15:02:08Z</time>
      </trkpt>
      <trkpt lat="49.07338" lon="7.78135">
        <ele>422.5</ele>
        <time>2022-04-17T15:02:22Z</time>
      </trkpt>
      <trkpt lat="49.07338" lon="7.78135">
        <ele>422.5</ele>
        <time>2022-04-17T15:02:23Z</time>
      </trkpt>
      <trkpt lat="49.07338" lon="7.78135">
        <ele>422.5</ele>
        <time>2022-04-17T15:02:32Z</time>
      </trkpt>
      <trkpt lat="49.07338" lon="7.78135">
        <ele>422.5</ele>
        <time>2022-04-17T15:02:33Z</time>
      </trkpt>
      <trkpt lat="49.07338" lon="7.78135">
        <ele>422.4</ele>
        <time>2022-04-17T15:02:41Z</time>
      </trkpt>
      <trkpt lat="49.07338" lon="7.78135">
        <ele>422.4</ele>
        <time>2022-04-17T15:02:44Z</time>
      </trkpt>
      <trkpt lat="49.07338" lon="7.78135">
        <ele>422.4</ele>
        <time>2022-04-17T15:02:58Z</time>
      </trkpt>
      <trkpt lat="49.07338" lon="7.78135">
        <ele>422.4</ele>
        <time>2022-04-17T15:02:59Z</time>
      </trkpt>
      <trkpt lat="49.07338" lon="7.78135">
        <ele>422.4</ele>
        <time>2022-04-17T15:03:08Z</time>
      </trkpt>
      <trkpt lat="49.07338" lon="7.78136">
        <ele>422.4</ele>
        <time>2022-04-17T15:03:10Z</time>
      </trkpt>
      <trkpt lat="49.07338" lon="7.78136">
        <ele>422.4</ele>
        <time>2022-04-17T15:03:22Z</time>
      </trkpt>
      <trkpt lat="49.07339" lon="7.78134">
        <ele>422.4</ele>
        <time>2022-04-17T15:03:26Z</time>
      </trkpt>
      <trkpt lat="49.07339" lon="7.78134">
        <ele>422.4</ele>
        <time>2022-04-17T15:03:28Z</time>
      </trkpt>
      <trkpt lat="49.07339" lon="7.78133">
        <ele>422.3</ele>
        <time>2022-04-17T15:03:37Z</time>
      </trkpt>
      <trkpt lat="49.07339" lon="7.78133">
        <ele>422.3</ele>
        <time>2022-04-17T15:03:38Z</time>
      </trkpt>
      <trkpt lat="49.07344" lon="7.78129">
        <ele>422.1</ele>
        <time>2022-04-17T15:03:52Z</time>
      </trkpt>
      <trkpt lat="49.07345" lon="7.78129">
        <ele>422.1</ele>
        <time>2022-04-17T15:03:53Z</time>
      </trkpt>
      <trkpt lat="49.07345" lon="7.78129">
        <ele>422.1</ele>
        <time>2022-04-17T15:03:54Z</time>
      </trkpt>
      <trkpt lat="49.07345" lon="7.78128">
        <ele>422.1</ele>
        <time>2022-04-17T15:03:57Z</time>
      </trkpt>
      <trkpt lat="49.07346" lon="7.78128">
        <ele>422.1</ele>
        <time>2022-04-17T15:04:02Z</time>
      </trkpt>
      <trkpt lat="49.07346" lon="7.78128">
        <ele>422.1</ele>
        <time>2022-04-17T15:04:03Z</time>
      </trkpt>
      <trkpt lat="49.07346" lon="7.78129">
        <ele>422.1</ele>
        <time>2022-04-17T15:04:04Z</time>
      </trkpt>
      <trkpt lat="49.07346" lon="7.78129">
        <ele>422</ele>
        <time>2022-04-17T15:04:05Z</time>
      </trkpt>
      <trkpt lat="49.07346" lon="7.78131">
        <ele>422</ele>
        <time>2022-04-17T15:04:16Z</time>
      </trkpt>
      <trkpt lat="49.07346" lon="7.7813">
        <ele>422</ele>
        <time>2022-04-17T15:04:18Z</time>
      </trkpt>
      <trkpt lat="49.07345" lon="7.7813">
        <ele>422</ele>
        <time>2022-04-17T15:04:33Z</time>
      </trkpt>
      <trkpt lat="49.07345" lon="7.78129">
        <ele>422</ele>
        <time>2022-04-17T15:04:34Z</time>
      </trkpt>
      <trkpt lat="49.07346" lon="7.78129">
        <ele>421.9</ele>
        <time>2022-04-17T15:04:36Z</time>
      </trkpt>
      <trkpt lat="49.07346" lon="7.78129">
        <ele>421.9</ele>
        <time>2022-04-17T15:04:41Z</time>
      </trkpt>
      <trkpt lat="49.07346" lon="7.78128">
        <ele>421.9</ele>
        <time>2022-04-17T15:04:46Z</time>
      </trkpt>
      <trkpt lat="49.07345" lon="7.78128">
        <ele>421.9</ele>
        <time>2022-04-17T15:04:56Z</time>
      </trkpt>
      <trkpt lat="49.07345" lon="7.78128">
        <ele>421.9</ele>
        <time>2022-04-17T15:04:58Z</time>
      </trkpt>
      <trkpt lat="49.07345" lon="7.78129">
        <ele>421.9</ele>
        <time>2022-04-17T15:04:59Z</time>
      </trkpt>
      <trkpt lat="49.07345" lon="7.78129">
        <ele>421.9</ele>
        <time>2022-04-17T15:05:00Z</time>
      </trkpt>
      <trkpt lat="49.07345" lon="7.78129">
        <ele>421.9</ele>
        <time>2022-04-17T15:05:01Z</time>
      </trkpt>
      <trkpt lat="49.07343" lon="7.7813">
        <ele>421.8</ele>
        <time>2022-04-17T15:05:06Z</time>
      </trkpt>
      <trkpt lat="49.07343" lon="7.78131">
        <ele>421.8</ele>
        <time>2022-04-17T15:05:11Z</time>
      </trkpt>
      <trkpt lat="49.07342" lon="7.78131">
        <ele>421.8</ele>
        <time>2022-04-17T15:05:14Z</time>
      </trkpt>
      <trkpt lat="49.07343" lon="7.78131">
        <ele>421.8</ele>
        <time>2022-04-17T15:05:17Z</time>
      </trkpt>
      <trkpt lat="49.07346" lon="7.78131">
        <ele>421.7</ele>
        <time>2022-04-17T15:05:32Z</time>
      </trkpt>
      <trkpt lat="49.07347" lon="7.7813">
        <ele>421.7</ele>
        <time>2022-04-17T15:05:33Z</time>
      </trkpt>
      <trkpt lat="49.07348" lon="7.7813">
        <ele>421.6</ele>
        <time>2022-04-17T15:05:36Z</time>
      </trkpt>
      <trkpt lat="49.07348" lon="7.7813">
        <ele>421.6</ele>
        <time>2022-04-17T15:05:37Z</time>
      </trkpt>
      <trkpt lat="49.07348" lon="7.7813">
        <ele>421.6</ele>
        <time>2022-04-17T15:05:40Z</time>
      </trkpt>
      <trkpt lat="49.07348" lon="7.7813">
        <ele>421.6</ele>
        <time>2022-04-17T15:05:43Z</time>
      </trkpt>
      <trkpt lat="49.07349" lon="7.78129">
        <ele>421.6</ele>
        <time>2022-04-17T15:05:48Z</time>
      </trkpt>
      <trkpt lat="49.07349" lon="7.7813">
        <ele>421.6</ele>
        <time>2022-04-17T15:05:50Z</time>
      </trkpt>
      <trkpt lat="49.07347" lon="7.78131">
        <ele>421.5</ele>
        <time>2022-04-17T15:06:02Z</time>
      </trkpt>
      <trkpt lat="49.07346" lon="7.78131">
        <ele>421.5</ele>
        <time>2022-04-17T15:06:04Z</time>
      </trkpt>
      <trkpt lat="49.07346" lon="7.78131">
        <ele>421.5</ele>
        <time>2022-04-17T15:06:05Z</time>
      </trkpt>
      <trkpt lat="49.07346" lon="7.78131">
        <ele>421.5</ele>
        <time>2022-04-17T15:06:07Z</time>
      </trkpt>
      <trkpt lat="49.07346" lon="7.78131">
        <ele>421.5</ele>
        <time>2022-04-17T15:06:10Z</time>
      </trkpt>
      <trkpt lat="49.07346" lon="7.78132">
        <ele>421.5</ele>
        <time>2022-04-17T15:06:11Z</time>
      </trkpt>
      <trkpt lat="49.07344" lon="7.78132">
        <ele>421.4</ele>
        <time>2022-04-17T15:06:17Z</time>
      </trkpt>
      <trkpt lat="49.07344" lon="7.78132">
        <ele>421.4</ele>
        <time>2022-04-17T15:06:19Z</time>
      </trkpt>
      <trkpt lat="49.07344" lon="7.78133">
        <ele>421.4</ele>
        <time>2022-04-17T15:06:22Z</time>
      </trkpt>
      <trkpt lat="49.07344" lon="7.78133">
        <ele>421.4</ele>
        <time>2022-04-17T15:06:24Z</time>
      </trkpt>
      <trkpt lat="49.07343" lon="7.78134">
        <ele>421.4</ele>
        <time>2022-04-17T15:06:26Z</time>
      </trkpt>
      <trkpt lat="49.07343" lon="7.78134">
        <ele>421.4</ele>
        <time>2022-04-17T15:06:30Z</time>
      </trkpt>
      <trkpt lat="49.07343" lon="7.78134">
        <ele>421.4</ele>
        <time>2022-04-17T15:06:34Z</time>
      </trkpt>
      <trkpt lat="49.07343" lon="7.78134">
        <ele>421.4</ele>
        <time>2022-04-17T15:06:35Z</time>
      </trkpt>
      <trkpt lat="49.07343" lon="7.78134">
        <ele>421.4</ele>
        <time>2022-04-17T15:06:36Z</time>
      </trkpt>
      <trkpt lat="49.07343" lon="7.78134">
        <ele>421.3</ele>
        <time>2022-04-17T15:06:38Z</time>
      </trkpt>
      <trkpt lat="49.07343" lon="7.78134">
        <ele>421.3</ele>
        <time>2022-04-17T15:06:39Z</time>
      </trkpt>
      <trkpt lat="49.07343" lon="7.78134">
        <ele>421.3</ele>
        <time>2022-04-17T15:06:42Z</time>
      </trkpt>
      <trkpt lat="49.07343" lon="7.78134">
        <ele>421.3</ele>
        <time>2022-04-17T15:06:44Z</time>
      </trkpt>
      <trkpt lat="49.07343" lon="7.78134">
        <ele>421.3</ele>
        <time>2022-04-17T15:06:47Z</time>
      </trkpt>
      <trkpt lat="49.07344" lon="7.78134">
        <ele>421.3</ele>
        <time>2022-04-17T15:06:49Z</time>
      </trkpt>
      <trkpt lat="49.07344" lon="7.78134">
        <ele>421.3</ele>
        <time>2022-04-17T15:06:50Z</time>
      </trkpt>
      <trkpt lat="49.07344" lon="7.78134">
        <ele>421.3</ele>
        <time>2022-04-17T15:06:53Z</time>
      </trkpt>
      <trkpt lat="49.07343" lon="7.78134">
        <ele>421.3</ele>
        <time>2022-04-17T15:06:54Z</time>
      </trkpt>
      <trkpt lat="49.07343" lon="7.78134">
        <ele>421.3</ele>
        <time>2022-04-17T15:06:55Z</time>
      </trkpt>
      <trkpt lat="49.07344" lon="7.78134">
        <ele>421.3</ele>
        <time>2022-04-17T15:07:01Z</time>
      </trkpt>
      <trkpt lat="49.07344" lon="7.78134">
        <ele>421.3</ele>
        <time>2022-04-17T15:07:02Z</time>
      </trkpt>
      <trkpt lat="49.07343" lon="7.78135">
        <ele>421.3</ele>
        <time>2022-04-17T15:07:07Z</time>
      </trkpt>
      <trkpt lat="49.07343" lon="7.78135">
        <ele>421.3</ele>
        <time>2022-04-17T15:07:08Z</time>
      </trkpt>
      <trkpt lat="49.07343" lon="7.78135">
        <ele>421.3</ele>
        <time>2022-04-17T15:07:17Z</time>
      </trkpt>
      <trkpt lat="49.0734" lon="7.78137">
        <ele>421.2</ele>
        <time>2022-04-17T15:07:26Z</time>
      </trkpt>
      <trkpt lat="49.0734" lon="7.78137">
        <ele>421.2</ele>
        <time>2022-04-17T15:07:27Z</time>
      </trkpt>
      <trkpt lat="49.0734" lon="7.78137">
        <ele>421.2</ele>
        <time>2022-04-17T15:07:28Z</time>
      </trkpt>
      <trkpt lat="49.0734" lon="7.78137">
        <ele>421.2</ele>
        <time>2022-04-17T15:07:30Z</time>
      </trkpt>
      <trkpt lat="49.0734" lon="7.78139">
        <ele>421.1</ele>
        <time>2022-04-17T15:07:39Z</time>
      </trkpt>
      <trkpt lat="49.0734" lon="7.78139">
        <ele>421.1</ele>
        <time>2022-04-17T15:07:40Z</time>
      </trkpt>
      <trkpt lat="49.07339" lon="7.78138">
        <ele>421.1</ele>
        <time>2022-04-17T15:07:43Z</time>
      </trkpt>
      <trkpt lat="49.07339" lon="7.78138">
        <ele>421.1</ele>
        <time>2022-04-17T15:07:45Z</time>
      </trkpt>
      <trkpt lat="49.07339" lon="7.78138">
        <ele>421.1</ele>
        <time>2022-04-17T15:07:46Z</time>
      </trkpt>
      <trkpt lat="49.07339" lon="7.78137">
        <ele>421.1</ele>
        <time>2022-04-17T15:07:47Z</time>
      </trkpt>
      <trkpt lat="49.07339" lon="7.78137">
        <ele>421.1</ele>
        <time>2022-04-17T15:07:49Z</time>
      </trkpt>
      <trkpt lat="49.07339" lon="7.78137">
        <ele>421</ele>
        <time>2022-04-17T15:07:51Z</time>
      </trkpt>
      <trkpt lat="49.07338" lon="7.78138">
        <ele>421</ele>
        <time>2022-04-17T15:07:56Z</time>
      </trkpt>
      <trkpt lat="49.07339" lon="7.78138">
        <ele>421</ele>
        <time>2022-04-17T15:07:57Z</time>
      </trkpt>
      <trkpt lat="49.0734" lon="7.78137">
        <ele>421</ele>
        <time>2022-04-17T15:08:00Z</time>
      </trkpt>
      <trkpt lat="49.0734" lon="7.78137">
        <ele>421</ele>
        <time>2022-04-17T15:08:01Z</time>
      </trkpt>
      <trkpt lat="49.0734" lon="7.78137">
        <ele>421</ele>
        <time>2022-04-17T15:08:02Z</time>
      </trkpt>
      <trkpt lat="49.0734" lon="7.78138">
        <ele>421</ele>
        <time>2022-04-17T15:08:04Z</time>
      </trkpt>
      <trkpt lat="49.0734" lon="7.78138">
        <ele>421</ele>
        <time>2022-04-17T15:08:05Z</time>
      </trkpt>
      <trkpt lat="49.0734" lon="7.78138">
        <ele>421</ele>
        <time>2022-04-17T15:08:15Z</time>
      </trkpt>
      <trkpt lat="49.0734" lon="7.78139">
        <ele>420.9</ele>
        <time>2022-04-17T15:08:17Z</time>
      </trkpt>
      <trkpt lat="49.0734" lon="7.78139">
        <ele>420.9</ele>
        <time>2022-04-17T15:08:32Z</time>
      </trkpt>
      <trkpt lat="49.0734" lon="7.78139">
        <ele>420.9</ele>
        <time>2022-04-17T15:08:33Z</time>
      </trkpt>
      <trkpt lat="49.0734" lon="7.78139">
        <ele>420.9</ele>
        <time>2022-04-17T15:08:44Z</time>
      </trkpt>
      <trkpt lat="49.0734" lon="7.78139">
        <ele>420.9</ele>
        <time>2022-04-17T15:08:45Z</time>
      </trkpt>
      <trkpt lat="49.0734" lon="7.78139">
        <ele>420.9</ele>
        <time>2022-04-17T15:08:49Z</time>
      </trkpt>
      <trkpt lat="49.0734" lon="7.78139">
        <ele>420.9</ele>
        <time>2022-04-17T15:08:52Z</time>
      </trkpt>
      <trkpt lat="49.07341" lon="7.78139">
        <ele>420.9</ele>
        <time>2022-04-17T15:08:59Z</time>
      </trkpt>
      <trkpt lat="49.07341" lon="7.78139">
        <ele>420.9</ele>
        <time>2022-04-17T15:09:00Z</time>
      </trkpt>
      <trkpt lat="49.07341" lon="7.78139">
        <ele>420.9</ele>
        <time>2022-04-17T15:09:25Z</time>
      </trkpt>
      <trkpt lat="49.07341" lon="7.7814">
        <ele>420.9</ele>
        <time>2022-04-17T15:09:33Z</time>
      </trkpt>
      <trkpt lat="49.07341" lon="7.7814">
        <ele>420.9</ele>
        <time>2022-04-17T15:09:36Z</time>
      </trkpt>
      <trkpt lat="49.07341" lon="7.7814">
        <ele>420.9</ele>
        <time>2022-04-17T15:09:37Z</time>
      </trkpt>
      <trkpt lat="49.07342" lon="7.78139">
        <ele>420.9</ele>
        <time>2022-04-17T15:09:39Z</time>
      </trkpt>
      <trkpt lat="49.07342" lon="7.78139">
        <ele>420.9</ele>
        <time>2022-04-17T15:09:40Z</time>
      </trkpt>
      <trkpt lat="49.07342" lon="7.78139">
        <ele>420.8</ele>
        <time>2022-04-17T15:09:50Z</time>
      </trkpt>
      <trkpt lat="49.07342" lon="7.78139">
        <ele>420.8</ele>
        <time>2022-04-17T15:09:51Z</time>
      </trkpt>
      <trkpt lat="49.07342" lon="7.7814">
        <ele>420.8</ele>
        <time>2022-04-17T15:10:00Z</time>
      </trkpt>
      <trkpt lat="49.07341" lon="7.78141">
        <ele>420.8</ele>
        <time>2022-04-17T15:10:05Z</time>
      </trkpt>
      <trkpt lat="49.07341" lon="7.78141">
        <ele>420.1</ele>
        <time>2022-04-17T15:10:06Z</time>
      </trkpt>
      <trkpt lat="49.07341" lon="7.78141">
        <ele>420.1</ele>
        <time>2022-04-17T15:10:08Z</time>
      </trkpt>
      <trkpt lat="49.07341" lon="7.78141">
        <ele>420.1</ele>
        <time>2022-04-17T15:10:12Z</time>
      </trkpt>
      <trkpt lat="49.07341" lon="7.7814">
        <ele>420.1</ele>
        <time>2022-04-17T15:10:14Z</time>
      </trkpt>
      <trkpt lat="49.07341" lon="7.7814">
        <ele>420.1</ele>
        <time>2022-04-17T15:10:47Z</time>
      </trkpt>
      <trkpt lat="49.07341" lon="7.7814">
        <ele>420.1</ele>
        <time>2022-04-17T15:10:49Z</time>
      </trkpt>
      <trkpt lat="49.07341" lon="7.7814">
        <ele>420.1</ele>
        <time>2022-04-17T15:11:05Z</time>
      </trkpt>
      <trkpt lat="49.07341" lon="7.7814">
        <ele>420.1</ele>
        <time>2022-04-17T15:11:06Z</time>
      </trkpt>
      <trkpt lat="49.07341" lon="7.78139">
        <ele>420.1</ele>
        <time>2022-04-17T15:11:08Z</time>
      </trkpt>
      <trkpt lat="49.07341" lon="7.78139">
        <ele>420.1</ele>
        <time>2022-04-17T15:11:09Z</time>
      </trkpt>
      <trkpt lat="49.07341" lon="7.78139">
        <ele>420.1</ele>
        <time>2022-04-17T15:11:24Z</time>
      </trkpt>
      <trkpt lat="49.07341" lon="7.78139">
        <ele>420.1</ele>
        <time>2022-04-17T15:11:25Z</time>
      </trkpt>
      <trkpt lat="49.07341" lon="7.78139">
        <ele>420</ele>
        <time>2022-04-17T15:11:47Z</time>
      </trkpt>
      <trkpt lat="49.07341" lon="7.78139">
        <ele>420</ele>
        <time>2022-04-17T15:11:48Z</time>
      </trkpt>
      <trkpt lat="49.07342" lon="7.78138">
        <ele>420</ele>
        <time>2022-04-17T15:12:05Z</time>
      </trkpt>
      <trkpt lat="49.07342" lon="7.78138">
        <ele>420</ele>
        <time>2022-04-17T15:12:07Z</time>
      </trkpt>
      <trkpt lat="49.07342" lon="7.78138">
        <ele>420</ele>
        <time>2022-04-17T15:12:16Z</time>
      </trkpt>
      <trkpt lat="49.07343" lon="7.78137">
        <ele>420</ele>
        <time>2022-04-17T15:12:18Z</time>
      </trkpt>
      <trkpt lat="49.07342" lon="7.78138">
        <ele>420</ele>
        <time>2022-04-17T15:12:19Z</time>
      </trkpt>
      <trkpt lat="49.07342" lon="7.78138">
        <ele>420</ele>
        <time>2022-04-17T15:12:20Z</time>
      </trkpt>
      <trkpt lat="49.07342" lon="7.78137">
        <ele>420</ele>
        <time>2022-04-17T15:12:26Z</time>
      </trkpt>
      <trkpt lat="49.07342" lon="7.78137">
        <ele>420</ele>
        <time>2022-04-17T15:12:28Z</time>
      </trkpt>
      <trkpt lat="49.07343" lon="7.78137">
        <ele>420</ele>
        <time>2022-04-17T15:12:45Z</time>
      </trkpt>
      <trkpt lat="49.07343" lon="7.78136">
        <ele>420</ele>
        <time>2022-04-17T15:12:47Z</time>
      </trkpt>
      <trkpt lat="49.07343" lon="7.78135">
        <ele>420</ele>
        <time>2022-04-17T15:13:26Z</time>
      </trkpt>
      <trkpt lat="49.07343" lon="7.78135">
        <ele>420</ele>
        <time>2022-04-17T15:13:29Z</time>
      </trkpt>
      <trkpt lat="49.07343" lon="7.78134">
        <ele>420</ele>
        <time>2022-04-17T15:13:34Z</time>
      </trkpt>
      <trkpt lat="49.07344" lon="7.78133">
        <ele>420</ele>
        <time>2022-04-17T15:13:38Z</time>
      </trkpt>
      <trkpt lat="49.07344" lon="7.78133">
        <ele>420</ele>
        <time>2022-04-17T15:13:54Z</time>
      </trkpt>
      <trkpt lat="49.07344" lon="7.78133">
        <ele>420</ele>
        <time>2022-04-17T15:13:55Z</time>
      </trkpt>
      <trkpt lat="49.07344" lon="7.78133">
        <ele>420</ele>
        <time>2022-04-17T15:14:26Z</time>
      </trkpt>
      <trkpt lat="49.07345" lon="7.78132">
        <ele>420</ele>
        <time>2022-04-17T15:14:29Z</time>
      </trkpt>
      <trkpt lat="49.07344" lon="7.78132">
        <ele>420</ele>
        <time>2022-04-17T15:14:37Z</time>
      </trkpt>
      <trkpt lat="49.07344" lon="7.78133">
        <ele>420</ele>
        <time>2022-04-17T15:14:38Z</time>
      </trkpt>
      <trkpt lat="49.07344" lon="7.78133">
        <ele>420</ele>
        <time>2022-04-17T15:14:41Z</time>
      </trkpt>
      <trkpt lat="49.07343" lon="7.78134">
        <ele>419.9</ele>
        <time>2022-04-17T15:14:45Z</time>
      </trkpt>
      <trkpt lat="49.07343" lon="7.78134">
        <ele>419.9</ele>
        <time>2022-04-17T15:15:04Z</time>
      </trkpt>
      <trkpt lat="49.07344" lon="7.78134">
        <ele>419.9</ele>
        <time>2022-04-17T15:15:07Z</time>
      </trkpt>
      <trkpt lat="49.07344" lon="7.78134">
        <ele>419.9</ele>
        <time>2022-04-17T15:15:12Z</time>
      </trkpt>
      <trkpt lat="49.07345" lon="7.78135">
        <ele>419.9</ele>
        <time>2022-04-17T15:15:16Z</time>
      </trkpt>
      <trkpt lat="49.07345" lon="7.78135">
        <ele>419.9</ele>
        <time>2022-04-17T15:15:20Z</time>
      </trkpt>
      <trkpt lat="49.07345" lon="7.78135">
        <ele>419.9</ele>
        <time>2022-04-17T15:15:24Z</time>
      </trkpt>
      <trkpt lat="49.07345" lon="7.78136">
        <ele>419.9</ele>
        <time>2022-04-17T15:15:27Z</time>
      </trkpt>
      <trkpt lat="49.07349" lon="7.78137">
        <ele>419.9</ele>
        <time>2022-04-17T15:15:57Z</time>
      </trkpt>
      <trkpt lat="49.07349" lon="7.78137">
        <ele>419.9</ele>
        <time>2022-04-17T15:15:59Z</time>
      </trkpt>
      <trkpt lat="49.07346" lon="7.78139">
        <ele>419.8</ele>
        <time>2022-04-17T15:16:05Z</time>
      </trkpt>
      <trkpt lat="49.07346" lon="7.7814">
        <ele>419.8</ele>
        <time>2022-04-17T15:16:08Z</time>
      </trkpt>
      <trkpt lat="49.0735" lon="7.78136">
        <ele>419.8</ele>
        <time>2022-04-17T15:16:27Z</time>
      </trkpt>
      <trkpt lat="49.0735" lon="7.78137">
        <ele>419.8</ele>
        <time>2022-04-17T15:16:29Z</time>
      </trkpt>
      <trkpt lat="49.07349" lon="7.78139">
        <ele>419.8</ele>
        <time>2022-04-17T15:16:35Z</time>
      </trkpt>
      <trkpt lat="49.07349" lon="7.78139">
        <ele>419.8</ele>
        <time>2022-04-17T15:16:37Z</time>
      </trkpt>
      <trkpt lat="49.07349" lon="7.7814">
        <ele>419.8</ele>
        <time>2022-04-17T15:16:42Z</time>
      </trkpt>
      <trkpt lat="49.07349" lon="7.7814">
        <ele>419.8</ele>
        <time>2022-04-17T15:16:43Z</time>
      </trkpt>
      <trkpt lat="49.07356" lon="7.78136">
        <ele>419.7</ele>
        <time>2022-04-17T15:17:00Z</time>
      </trkpt>
      <trkpt lat="49.07355" lon="7.78136">
        <ele>419.7</ele>
        <time>2022-04-17T15:17:02Z</time>
      </trkpt>
      <trkpt lat="49.07346" lon="7.78143">
        <ele>419.7</ele>
        <time>2022-04-17T15:17:20Z</time>
      </trkpt>
      <trkpt lat="49.07346" lon="7.78143">
        <ele>419.7</ele>
        <time>2022-04-17T15:17:21Z</time>
      </trkpt>
      <trkpt lat="49.07346" lon="7.78143">
        <ele>419.7</ele>
        <time>2022-04-17T15:17:27Z</time>
      </trkpt>
      <trkpt lat="49.07346" lon="7.78143">
        <ele>419.7</ele>
        <time>2022-04-17T15:17:28Z</time>
      </trkpt>
      <trkpt lat="49.07346" lon="7.78142">
        <ele>419.7</ele>
        <time>2022-04-17T15:17:31Z</time>
      </trkpt>
      <trkpt lat="49.07345" lon="7.78142">
        <ele>419.7</ele>
        <time>2022-04-17T15:17:37Z</time>
      </trkpt>
      <trkpt lat="49.07345" lon="7.78142">
        <ele>419.7</ele>
        <time>2022-04-17T15:17:38Z</time>
      </trkpt>
      <trkpt lat="49.07345" lon="7.78142">
        <ele>419.7</ele>
        <time>2022-04-17T15:17:39Z</time>
      </trkpt>
      <trkpt lat="49.07345" lon="7.78142">
        <ele>419.7</ele>
        <time>2022-04-17T15:17:40Z</time>
      </trkpt>
      <trkpt lat="49.07345" lon="7.78142">
        <ele>419.7</ele>
        <time>2022-04-17T15:17:43Z</time>
      </trkpt>
      <trkpt lat="49.07345" lon="7.78142">
        <ele>419.7</ele>
        <time>2022-04-17T15:17:44Z</time>
      </trkpt>
      <trkpt lat="49.07347" lon="7.78142">
        <ele>419.7</ele>
        <time>2022-04-17T15:17:52Z</time>
      </trkpt>
      <trkpt lat="49.07347" lon="7.78142">
        <ele>419.7</ele>
        <time>2022-04-17T15:17:53Z</time>
      </trkpt>
      <trkpt lat="49.07349" lon="7.78139">
        <ele>419.7</ele>
        <time>2022-04-17T15:17:59Z</time>
      </trkpt>
      <trkpt lat="49.07349" lon="7.78138">
        <ele>419.7</ele>
        <time>2022-04-17T15:18:00Z</time>
      </trkpt>
      <trkpt lat="49.07349" lon="7.78138">
        <ele>419.7</ele>
        <time>2022-04-17T15:18:02Z</time>
      </trkpt>
      <trkpt lat="49.0735" lon="7.78138">
        <ele>419.7</ele>
        <time>2022-04-17T15:18:03Z</time>
      </trkpt>
      <trkpt lat="49.07351" lon="7.78137">
        <ele>419.7</ele>
        <time>2022-04-17T15:18:07Z</time>
      </trkpt>
      <trkpt lat="49.07351" lon="7.78137">
        <ele>419.7</ele>
        <time>2022-04-17T15:18:09Z</time>
      </trkpt>
      <trkpt lat="49.07351" lon="7.78137">
        <ele>419.7</ele>
        <time>2022-04-17T15:18:11Z</time>
      </trkpt>
      <trkpt lat="49.07351" lon="7.78137">
        <ele>419.7</ele>
        <time>2022-04-17T15:18:17Z</time>
      </trkpt>
      <trkpt lat="49.07352" lon="7.78132">
        <ele>419.7</ele>
        <time>2022-04-17T15:18:25Z</time>
      </trkpt>
      <trkpt lat="49.07352" lon="7.78132">
        <ele>419.7</ele>
        <time>2022-04-17T15:18:26Z</time>
      </trkpt>
      <trkpt lat="49.07352" lon="7.78133">
        <ele>419.7</ele>
        <time>2022-04-17T15:18:31Z</time>
      </trkpt>
      <trkpt lat="49.07353" lon="7.78133">
        <ele>419.7</ele>
        <time>2022-04-17T15:18:33Z</time>
      </trkpt>
      <trkpt lat="49.07353" lon="7.78136">
        <ele>419.7</ele>
        <time>2022-04-17T15:18:37Z</time>
      </trkpt>
      <trkpt lat="49.07353" lon="7.78136">
        <ele>419.7</ele>
        <time>2022-04-17T15:18:44Z</time>
      </trkpt>
      <trkpt lat="49.07353" lon="7.78139">
        <ele>419.7</ele>
        <time>2022-04-17T15:18:50Z</time>
      </trkpt>
      <trkpt lat="49.07353" lon="7.78139">
        <ele>419.7</ele>
        <time>2022-04-17T15:18:53Z</time>
      </trkpt>
      <trkpt lat="49.07353" lon="7.78139">
        <ele>419.7</ele>
        <time>2022-04-17T15:18:54Z</time>
      </trkpt>
      <trkpt lat="49.07353" lon="7.78139">
        <ele>419.7</ele>
        <time>2022-04-17T15:18:55Z</time>
      </trkpt>
      <trkpt lat="49.07352" lon="7.78138">
        <ele>419.7</ele>
        <time>2022-04-17T15:18:59Z</time>
      </trkpt>
      <trkpt lat="49.07352" lon="7.78138">
        <ele>419.7</ele>
        <time>2022-04-17T15:19:02Z</time>
      </trkpt>
      <trkpt lat="49.07352" lon="7.78138">
        <ele>419.7</ele>
        <time>2022-04-17T15:19:03Z</time>
      </trkpt>
      <trkpt lat="49.07353" lon="7.78138">
        <ele>419.7</ele>
        <time>2022-04-17T15:19:04Z</time>
      </trkpt>
      <trkpt lat="49.07353" lon="7.78136">
        <ele>419.7</ele>
        <time>2022-04-17T15:19:08Z</time>
      </trkpt>
      <trkpt lat="49.07353" lon="7.78135">
        <ele>419.7</ele>
        <time>2022-04-17T15:19:09Z</time>
      </trkpt>
      <trkpt lat="49.07352" lon="7.78136">
        <ele>419.8</ele>
        <time>2022-04-17T15:19:12Z</time>
      </trkpt>
      <trkpt lat="49.07353" lon="7.78136">
        <ele>419.8</ele>
        <time>2022-04-17T15:19:13Z</time>
      </trkpt>
      <trkpt lat="49.07353" lon="7.78136">
        <ele>419.8</ele>
        <time>2022-04-17T15:19:16Z</time>
      </trkpt>
      <trkpt lat="49.07353" lon="7.78136">
        <ele>419.8</ele>
        <time>2022-04-17T15:19:17Z</time>
      </trkpt>
      <trkpt lat="49.07348" lon="7.78139">
        <ele>419.8</ele>
        <time>2022-04-17T15:19:42Z</time>
      </trkpt>
      <trkpt lat="49.07348" lon="7.78139">
        <ele>419.8</ele>
        <time>2022-04-17T15:19:46Z</time>
      </trkpt>
      <trkpt lat="49.07346" lon="7.78139">
        <ele>419.8</ele>
        <time>2022-04-17T15:19:53Z</time>
      </trkpt>
      <trkpt lat="49.07346" lon="7.78139">
        <ele>419.8</ele>
        <time>2022-04-17T15:19:54Z</time>
      </trkpt>
      <trkpt lat="49.07346" lon="7.78139">
        <ele>419.8</ele>
        <time>2022-04-17T15:20:11Z</time>
      </trkpt>
      <trkpt lat="49.07346" lon="7.78139">
        <ele>419.8</ele>
        <time>2022-04-17T15:20:14Z</time>
      </trkpt>
      <trkpt lat="49.07346" lon="7.78139">
        <ele>419.8</ele>
        <time>2022-04-17T15:20:15Z</time>
      </trkpt>
      <trkpt lat="49.07345" lon="7.78139">
        <ele>419.8</ele>
        <time>2022-04-17T15:20:18Z</time>
      </trkpt>
      <trkpt lat="49.07346" lon="7.78138">
        <ele>419.8</ele>
        <time>2022-04-17T15:20:22Z</time>
      </trkpt>
      <trkpt lat="49.07345" lon="7.78138">
        <ele>419.9</ele>
        <time>2022-04-17T15:20:23Z</time>
      </trkpt>
      <trkpt lat="49.07345" lon="7.78138">
        <ele>419.9</ele>
        <time>2022-04-17T15:20:24Z</time>
      </trkpt>
      <trkpt lat="49.07345" lon="7.78138">
        <ele>419.9</ele>
        <time>2022-04-17T15:20:25Z</time>
      </trkpt>
      <trkpt lat="49.07345" lon="7.78138">
        <ele>419.9</ele>
        <time>2022-04-17T15:20:26Z</time>
      </trkpt>
      <trkpt lat="49.07346" lon="7.78138">
        <ele>419.9</ele>
        <time>2022-04-17T15:20:27Z</time>
      </trkpt>
      <trkpt lat="49.07349" lon="7.78136">
        <ele>419.9</ele>
        <time>2022-04-17T15:20:37Z</time>
      </trkpt>
      <trkpt lat="49.0735" lon="7.78136">
        <ele>419.9</ele>
        <time>2022-04-17T15:20:38Z</time>
      </trkpt>
      <trkpt lat="49.07352" lon="7.78135">
        <ele>419.9</ele>
        <time>2022-04-17T15:20:42Z</time>
      </trkpt>
      <trkpt lat="49.07353" lon="7.78134">
        <ele>419.9</ele>
        <time>2022-04-17T15:20:44Z</time>
      </trkpt>
      <trkpt lat="49.0735" lon="7.78137">
        <ele>419.9</ele>
        <time>2022-04-17T15:21:16Z</time>
      </trkpt>
      <trkpt lat="49.0735" lon="7.78137">
        <ele>419.9</ele>
        <time>2022-04-17T15:21:20Z</time>
      </trkpt>
      <trkpt lat="49.07349" lon="7.78133">
        <ele>419.9</ele>
        <time>2022-04-17T15:21:32Z</time>
      </trkpt>
      <trkpt lat="49.07349" lon="7.78133">
        <ele>419.9</ele>
        <time>2022-04-17T15:21:37Z</time>
      </trkpt>
      <trkpt lat="49.07348" lon="7.78131">
        <ele>420</ele>
        <time>2022-04-17T15:21:44Z</time>
      </trkpt>
      <trkpt lat="49.07348" lon="7.78131">
        <ele>420</ele>
        <time>2022-04-17T15:21:50Z</time>
      </trkpt>
      <trkpt lat="49.07348" lon="7.78131">
        <ele>420</ele>
        <time>2022-04-17T15:21:51Z</time>
      </trkpt>
      <trkpt lat="49.07348" lon="7.78131">
        <ele>420</ele>
        <time>2022-04-17T15:22:03Z</time>
      </trkpt>
      <trkpt lat="49.07348" lon="7.78131">
        <ele>420</ele>
        <time>2022-04-17T15:22:05Z</time>
      </trkpt>
      <trkpt lat="49.07348" lon="7.7813">
        <ele>420</ele>
        <time>2022-04-17T15:22:06Z</time>
      </trkpt>
      <trkpt lat="49.07348" lon="7.7813">
        <ele>420</ele>
        <time>2022-04-17T15:22:07Z</time>
      </trkpt>
      <trkpt lat="49.07348" lon="7.78131">
        <ele>420</ele>
        <time>2022-04-17T15:22:14Z</time>
      </trkpt>
      <trkpt lat="49.07348" lon="7.78132">
        <ele>420.1</ele>
        <time>2022-04-17T15:22:17Z</time>
      </trkpt>
      <trkpt lat="49.07348" lon="7.78132">
        <ele>420.1</ele>
        <time>2022-04-17T15:22:29Z</time>
      </trkpt>
      <trkpt lat="49.07347" lon="7.78132">
        <ele>420.1</ele>
        <time>2022-04-17T15:22:33Z</time>
      </trkpt>
      <trkpt lat="49.07347" lon="7.78133">
        <ele>420.1</ele>
        <time>2022-04-17T15:22:36Z</time>
      </trkpt>
      <trkpt lat="49.07347" lon="7.78133">
        <ele>420.1</ele>
        <time>2022-04-17T15:22:38Z</time>
      </trkpt>
      <trkpt lat="49.07347" lon="7.78133">
        <ele>420.1</ele>
        <time>2022-04-17T15:23:01Z</time>
      </trkpt>
      <trkpt lat="49.07347" lon="7.78133">
        <ele>420.1</ele>
        <time>2022-04-17T15:23:02Z</time>
      </trkpt>
      <trkpt lat="49.07347" lon="7.78133">
        <ele>420.1</ele>
        <time>2022-04-17T15:23:09Z</time>
      </trkpt>
      <trkpt lat="49.07347" lon="7.78133">
        <ele>420.1</ele>
        <time>2022-04-17T15:23:10Z</time>
      </trkpt>
      <trkpt lat="49.07347" lon="7.78133">
        <ele>420.1</ele>
        <time>2022-04-17T15:23:13Z</time>
      </trkpt>
      <trkpt lat="49.07347" lon="7.78133">
        <ele>420.1</ele>
        <time>2022-04-17T15:23:14Z</time>
      </trkpt>
      <trkpt lat="49.07348" lon="7.78132">
        <ele>420.1</ele>
        <time>2022-04-17T15:23:20Z</time>
      </trkpt>
      <trkpt lat="49.07348" lon="7.78132">
        <ele>420.1</ele>
        <time>2022-04-17T15:23:22Z</time>
      </trkpt>
      <trkpt lat="49.07348" lon="7.78134">
        <ele>420.1</ele>
        <time>2022-04-17T15:24:16Z</time>
      </trkpt>
      <trkpt lat="49.07348" lon="7.78134">
        <ele>420.1</ele>
        <time>2022-04-17T15:24:17Z</time>
      </trkpt>
      <trkpt lat="49.07348" lon="7.78134">
        <ele>420.1</ele>
        <time>2022-04-17T15:24:33Z</time>
      </trkpt>
      <trkpt lat="49.0735" lon="7.78134">
        <ele>420.1</ele>
        <time>2022-04-17T15:24:41Z</time>
      </trkpt>
      <trkpt lat="49.07349" lon="7.78134">
        <ele>420.1</ele>
        <time>2022-04-17T15:24:50Z</time>
      </trkpt>
      <trkpt lat="49.07349" lon="7.78134">
        <ele>420.1</ele>
        <time>2022-04-17T15:24:51Z</time>
      </trkpt>
      <trkpt lat="49.07349" lon="7.78135">
        <ele>420.1</ele>
        <time>2022-04-17T15:25:11Z</time>
      </trkpt>
      <trkpt lat="49.0735" lon="7.78136">
        <ele>420.1</ele>
        <time>2022-04-17T15:25:13Z</time>
      </trkpt>
      <trkpt lat="49.0735" lon="7.78136">
        <ele>420.1</ele>
        <time>2022-04-17T15:25:25Z</time>
      </trkpt>
      <trkpt lat="49.0735" lon="7.78136">
        <ele>420.1</ele>
        <time>2022-04-17T15:25:26Z</time>
      </trkpt>
      <trkpt lat="49.0735" lon="7.78136">
        <ele>420.1</ele>
        <time>2022-04-17T15:25:52Z</time>
      </trkpt>
      <trkpt lat="49.0735" lon="7.78136">
        <ele>420.1</ele>
        <time>2022-04-17T15:25:53Z</time>
      </trkpt>
      <trkpt lat="49.07349" lon="7.78136">
        <ele>420.1</ele>
        <time>2022-04-17T15:25:55Z</time>
      </trkpt>
      <trkpt lat="49.07349" lon="7.78136">
        <ele>420.1</ele>
        <time>2022-04-17T15:25:56Z</time>
      </trkpt>
      <trkpt lat="49.07349" lon="7.78136">
        <ele>420.1</ele>
        <time>2022-04-17T15:25:57Z</time>
      </trkpt>
      <trkpt lat="49.07348" lon="7.78136">
        <ele>420.1</ele>
        <time>2022-04-17T15:26:00Z</time>
      </trkpt>
      <trkpt lat="49.07349" lon="7.78136">
        <ele>420.1</ele>
        <time>2022-04-17T15:26:01Z</time>
      </trkpt>
      <trkpt lat="49.07349" lon="7.78136">
        <ele>420.1</ele>
        <time>2022-04-17T15:26:02Z</time>
      </trkpt>
      <trkpt lat="49.07349" lon="7.78136">
        <ele>420.1</ele>
        <time>2022-04-17T15:26:13Z</time>
      </trkpt>
      <trkpt lat="49.07349" lon="7.78136">
        <ele>420.1</ele>
        <time>2022-04-17T15:26:14Z</time>
      </trkpt>
      <trkpt lat="49.07349" lon="7.78136">
        <ele>420.1</ele>
        <time>2022-04-17T15:26:18Z</time>
      </trkpt>
      <trkpt lat="49.07349" lon="7.78136">
        <ele>420.1</ele>
        <time>2022-04-17T15:26:19Z</time>
      </trkpt>
      <trkpt lat="49.07348" lon="7.78136">
        <ele>420.1</ele>
        <time>2022-04-17T15:26:20Z</time>
      </trkpt>
      <trkpt lat="49.0734" lon="7.78128">
        <ele>420.1</ele>
        <time>2022-04-17T15:26:33Z</time>
      </trkpt>
      <trkpt lat="49.0734" lon="7.78129">
        <ele>420.1</ele>
        <time>2022-04-17T15:26:44Z</time>
      </trkpt>
      <trkpt lat="49.0734" lon="7.78129">
        <ele>420.1</ele>
        <time>2022-04-17T15:26:45Z</time>
      </trkpt>
      <trkpt lat="49.0734" lon="7.78129">
        <ele>420.1</ele>
        <time>2022-04-17T15:26:46Z</time>
      </trkpt>
      <trkpt lat="49.0734" lon="7.78129">
        <ele>420.1</ele>
        <time>2022-04-17T15:26:47Z</time>
      </trkpt>
      <trkpt lat="49.0734" lon="7.78129">
        <ele>420.1</ele>
        <time>2022-04-17T15:26:48Z</time>
      </trkpt>
      <trkpt lat="49.0734" lon="7.78129">
        <ele>420.1</ele>
        <time>2022-04-17T15:26:50Z</time>
      </trkpt>
      <trkpt lat="49.0734" lon="7.78129">
        <ele>420.1</ele>
        <time>2022-04-17T15:26:51Z</time>
      </trkpt>
      <trkpt lat="49.0734" lon="7.7813">
        <ele>420.1</ele>
        <time>2022-04-17T15:26:55Z</time>
      </trkpt>
      <trkpt lat="49.07334" lon="7.7814">
        <ele>420.1</ele>
        <time>2022-04-17T15:27:08Z</time>
      </trkpt>
      <trkpt lat="49.07327" lon="7.7815">
        <ele>419.8</ele>
        <time>2022-04-17T15:27:19Z</time>
      </trkpt>
      <trkpt lat="49.0732" lon="7.78156">
        <ele>419.5</ele>
        <time>2022-04-17T15:27:34Z</time>
      </trkpt>
      <trkpt lat="49.0732" lon="7.78157">
        <ele>419.4</ele>
        <time>2022-04-17T15:27:39Z</time>
      </trkpt>
      <trkpt lat="49.07313" lon="7.78168">
        <ele>419</ele>
        <time>2022-04-17T15:27:48Z</time>
      </trkpt>
      <trkpt lat="49.07305" lon="7.78176">
        <ele>418.7</ele>
        <time>2022-04-17T15:27:56Z</time>
      </trkpt>
      <trkpt lat="49.07297" lon="7.78185">
        <ele>418.3</ele>
        <time>2022-04-17T15:28:04Z</time>
      </trkpt>
      <trkpt lat="49.07288" lon="7.78191">
        <ele>418</ele>
        <time>2022-04-17T15:28:13Z</time>
      </trkpt>
      <trkpt lat="49.07283" lon="7.78204">
        <ele>418.8</ele>
        <time>2022-04-17T15:28:22Z</time>
      </trkpt>
      <trkpt lat="49.07277" lon="7.78215">
        <ele>420.2</ele>
        <time>2022-04-17T15:28:35Z</time>
      </trkpt>
      <trkpt lat="49.07275" lon="7.78217">
        <ele>420.6</ele>
        <time>2022-04-17T15:28:40Z</time>
      </trkpt>
      <trkpt lat="49.07275" lon="7.78218">
        <ele>420.6</ele>
        <time>2022-04-17T15:28:41Z</time>
      </trkpt>
      <trkpt lat="49.07275" lon="7.78218">
        <ele>420.7</ele>
        <time>2022-04-17T15:28:44Z</time>
      </trkpt>
      <trkpt lat="49.07275" lon="7.78218">
        <ele>420.7</ele>
        <time>2022-04-17T15:28:47Z</time>
      </trkpt>
      <trkpt lat="49.07275" lon="7.78218">
        <ele>420.7</ele>
        <time>2022-04-17T15:28:48Z</time>
      </trkpt>
      <trkpt lat="49.07275" lon="7.78218">
        <ele>420.7</ele>
        <time>2022-04-17T15:28:49Z</time>
      </trkpt>
      <trkpt lat="49.07275" lon="7.78218">
        <ele>420.7</ele>
        <time>2022-04-17T15:28:50Z</time>
      </trkpt>
      <trkpt lat="49.07274" lon="7.78218">
        <ele>420.8</ele>
        <time>2022-04-17T15:28:52Z</time>
      </trkpt>
      <trkpt lat="49.07266" lon="7.78225">
        <ele>422.3</ele>
        <time>2022-04-17T15:29:02Z</time>
      </trkpt>
      <trkpt lat="49.07258" lon="7.78233">
        <ele>423.6</ele>
        <time>2022-04-17T15:29:10Z</time>
      </trkpt>
      <trkpt lat="49.0725" lon="7.78241">
        <ele>424.4</ele>
        <time>2022-04-17T15:29:18Z</time>
      </trkpt>
      <trkpt lat="49.07242" lon="7.78251">
        <ele>425</ele>
        <time>2022-04-17T15:29:26Z</time>
      </trkpt>
      <trkpt lat="49.07235" lon="7.78261">
        <ele>425.7</ele>
        <time>2022-04-17T15:29:35Z</time>
      </trkpt>
      <trkpt lat="49.07229" lon="7.78272">
        <ele>426.6</ele>
        <time>2022-04-17T15:29:43Z</time>
      </trkpt>
      <trkpt lat="49.07226" lon="7.78285">
        <ele>427.6</ele>
        <time>2022-04-17T15:29:51Z</time>
      </trkpt>
      <trkpt lat="49.07224" lon="7.78299">
        <ele>428.5</ele>
        <time>2022-04-17T15:29:58Z</time>
      </trkpt>
      <trkpt lat="49.07218" lon="7.7831">
        <ele>429.4</ele>
        <time>2022-04-17T15:30:06Z</time>
      </trkpt>
      <trkpt lat="49.07211" lon="7.78321">
        <ele>430.7</ele>
        <time>2022-04-17T15:30:15Z</time>
      </trkpt>
      <trkpt lat="49.07204" lon="7.78331">
        <ele>432.2</ele>
        <time>2022-04-17T15:30:23Z</time>
      </trkpt>
      <trkpt lat="49.07202" lon="7.78336">
        <ele>432.9</ele>
        <time>2022-04-17T15:30:30Z</time>
      </trkpt>
      <trkpt lat="49.07202" lon="7.78337">
        <ele>432.9</ele>
        <time>2022-04-17T15:30:34Z</time>
      </trkpt>
      <trkpt lat="49.07199" lon="7.78351">
        <ele>434.6</ele>
        <time>2022-04-17T15:30:43Z</time>
      </trkpt>
      <trkpt lat="49.07199" lon="7.78366">
        <ele>436.4</ele>
        <time>2022-04-17T15:30:52Z</time>
      </trkpt>
      <trkpt lat="49.07199" lon="7.78379">
        <ele>438.3</ele>
        <time>2022-04-17T15:31:04Z</time>
      </trkpt>
      <trkpt lat="49.07199" lon="7.78379">
        <ele>438.3</ele>
        <time>2022-04-17T15:31:05Z</time>
      </trkpt>
      <trkpt lat="49.07199" lon="7.78379">
        <ele>438.4</ele>
        <time>2022-04-17T15:31:06Z</time>
      </trkpt>
      <trkpt lat="49.07199" lon="7.78379">
        <ele>438.4</ele>
        <time>2022-04-17T15:31:11Z</time>
      </trkpt>
      <trkpt lat="49.07199" lon="7.7838">
        <ele>438.4</ele>
        <time>2022-04-17T15:31:12Z</time>
      </trkpt>
      <trkpt lat="49.07199" lon="7.7838">
        <ele>438.5</ele>
        <time>2022-04-17T15:31:13Z</time>
      </trkpt>
      <trkpt lat="49.07196" lon="7.78393">
        <ele>440.6</ele>
        <time>2022-04-17T15:31:27Z</time>
      </trkpt>
      <trkpt lat="49.07194" lon="7.78407">
        <ele>442.6</ele>
        <time>2022-04-17T15:31:40Z</time>
      </trkpt>
      <trkpt lat="49.07191" lon="7.78421">
        <ele>444.5</ele>
        <time>2022-04-17T15:31:53Z</time>
      </trkpt>
      <trkpt lat="49.07189" lon="7.78435">
        <ele>446.3</ele>
        <time>2022-04-17T15:32:05Z</time>
      </trkpt>
      <trkpt lat="49.07186" lon="7.78447">
        <ele>448</ele>
        <time>2022-04-17T15:32:15Z</time>
      </trkpt>
      <trkpt lat="49.07182" lon="7.7846">
        <ele>449.9</ele>
        <time>2022-04-17T15:32:26Z</time>
      </trkpt>
      <trkpt lat="49.07177" lon="7.78466">
        <ele>450.4</ele>
        <time>2022-04-17T15:32:35Z</time>
      </trkpt>
      <trkpt lat="49.07177" lon="7.78466">
        <ele>450.4</ele>
        <time>2022-04-17T15:32:40Z</time>
      </trkpt>
      <trkpt lat="49.07177" lon="7.78466">
        <ele>450.4</ele>
        <time>2022-04-17T15:32:41Z</time>
      </trkpt>
      <trkpt lat="49.07177" lon="7.78465">
        <ele>450.5</ele>
        <time>2022-04-17T15:32:44Z</time>
      </trkpt>
      <trkpt lat="49.07168" lon="7.7847">
        <ele>451.4</ele>
        <time>2022-04-17T15:32:56Z</time>
      </trkpt>
      <trkpt lat="49.07158" lon="7.78473">
        <ele>452.3</ele>
        <time>2022-04-17T15:33:06Z</time>
      </trkpt>
      <trkpt lat="49.07149" lon="7.78477">
        <ele>453.3</ele>
        <time>2022-04-17T15:33:16Z</time>
      </trkpt>
      <trkpt lat="49.07144" lon="7.78488">
        <ele>454.7</ele>
        <time>2022-04-17T15:33:30Z</time>
      </trkpt>
      <trkpt lat="49.07144" lon="7.78503">
        <ele>456.7</ele>
        <time>2022-04-17T15:33:42Z</time>
      </trkpt>
      <trkpt lat="49.07145" lon="7.78517">
        <ele>458.8</ele>
        <time>2022-04-17T15:33:55Z</time>
      </trkpt>
      <trkpt lat="49.07147" lon="7.78531">
        <ele>460.7</ele>
        <time>2022-04-17T15:34:05Z</time>
      </trkpt>
      <trkpt lat="49.07152" lon="7.78542">
        <ele>463</ele>
        <time>2022-04-17T15:34:16Z</time>
      </trkpt>
      <trkpt lat="49.07155" lon="7.78549">
        <ele>464.4</ele>
        <time>2022-04-17T15:34:32Z</time>
      </trkpt>
      <trkpt lat="49.07155" lon="7.78548">
        <ele>464.6</ele>
        <time>2022-04-17T15:34:40Z</time>
      </trkpt>
      <trkpt lat="49.07148" lon="7.78558">
        <ele>467</ele>
        <time>2022-04-17T15:35:08Z</time>
      </trkpt>
      <trkpt lat="49.07147" lon="7.78572">
        <ele>469.3</ele>
        <time>2022-04-17T15:35:25Z</time>
      </trkpt>
      <trkpt lat="49.07143" lon="7.78585">
        <ele>471.8</ele>
        <time>2022-04-17T15:35:40Z</time>
      </trkpt>
      <trkpt lat="49.0714" lon="7.78598">
        <ele>474.4</ele>
        <time>2022-04-17T15:36:01Z</time>
      </trkpt>
      <trkpt lat="49.07139" lon="7.78613">
        <ele>477.1</ele>
        <time>2022-04-17T15:36:19Z</time>
      </trkpt>
      <trkpt lat="49.07136" lon="7.78626">
        <ele>479.8</ele>
        <time>2022-04-17T15:36:40Z</time>
      </trkpt>
      <trkpt lat="49.07133" lon="7.7864">
        <ele>482.3</ele>
        <time>2022-04-17T15:36:59Z</time>
      </trkpt>
      <trkpt lat="49.07133" lon="7.78641">
        <ele>483</ele>
        <time>2022-04-17T15:37:02Z</time>
      </trkpt>
      <trkpt lat="49.07133" lon="7.78642">
        <ele>483</ele>
        <time>2022-04-17T15:37:03Z</time>
      </trkpt>
      <trkpt lat="49.07131" lon="7.78643">
        <ele>483.2</ele>
        <time>2022-04-17T15:37:15Z</time>
      </trkpt>
      <trkpt lat="49.0713" lon="7.78643">
        <ele>483.3</ele>
        <time>2022-04-17T15:37:18Z</time>
      </trkpt>
      <trkpt lat="49.0713" lon="7.78642">
        <ele>483.3</ele>
        <time>2022-04-17T15:37:22Z</time>
      </trkpt>
      <trkpt lat="49.0713" lon="7.78642">
        <ele>483.3</ele>
        <time>2022-04-17T15:37:31Z</time>
      </trkpt>
      <trkpt lat="49.0713" lon="7.78642">
        <ele>483.3</ele>
        <time>2022-04-17T15:37:32Z</time>
      </trkpt>
      <trkpt lat="49.0713" lon="7.78642">
        <ele>483.4</ele>
        <time>2022-04-17T15:37:36Z</time>
      </trkpt>
      <trkpt lat="49.0713" lon="7.78641">
        <ele>483.4</ele>
        <time>2022-04-17T15:37:37Z</time>
      </trkpt>
      <trkpt lat="49.0713" lon="7.78641">
        <ele>483.4</ele>
        <time>2022-04-17T15:37:38Z</time>
      </trkpt>
      <trkpt lat="49.07122" lon="7.78632">
        <ele>484.2</ele>
        <time>2022-04-17T15:38:02Z</time>
      </trkpt>
      <trkpt lat="49.07114" lon="7.78626">
        <ele>485</ele>
        <time>2022-04-17T15:38:11Z</time>
      </trkpt>
      <trkpt lat="49.07104" lon="7.78623">
        <ele>485.7</ele>
        <time>2022-04-17T15:38:22Z</time>
      </trkpt>
      <trkpt lat="49.07096" lon="7.78617">
        <ele>486.1</ele>
        <time>2022-04-17T15:38:31Z</time>
      </trkpt>
      <trkpt lat="49.07089" lon="7.78617">
        <ele>486.4</ele>
        <time>2022-04-17T15:38:40Z</time>
      </trkpt>
      <trkpt lat="49.07089" lon="7.78616">
        <ele>486.4</ele>
        <time>2022-04-17T15:38:41Z</time>
      </trkpt>
      <trkpt lat="49.07089" lon="7.78616">
        <ele>486.4</ele>
        <time>2022-04-17T15:38:42Z</time>
      </trkpt>
      <trkpt lat="49.07088" lon="7.78616">
        <ele>486.4</ele>
        <time>2022-04-17T15:38:46Z</time>
      </trkpt>
      <trkpt lat="49.07089" lon="7.78615">
        <ele>486.4</ele>
        <time>2022-04-17T15:38:48Z</time>
      </trkpt>
      <trkpt lat="49.07089" lon="7.78615">
        <ele>486.5</ele>
        <time>2022-04-17T15:38:52Z</time>
      </trkpt>
      <trkpt lat="49.0708" lon="7.78611">
        <ele>486.9</ele>
        <time>2022-04-17T15:39:04Z</time>
      </trkpt>
      <trkpt lat="49.0707" lon="7.78609">
        <ele>487.3</ele>
        <time>2022-04-17T15:39:13Z</time>
      </trkpt>
      <trkpt lat="49.07061" lon="7.78613">
        <ele>487.7</ele>
        <time>2022-04-17T15:39:24Z</time>
      </trkpt>
      <trkpt lat="49.0706" lon="7.78614">
        <ele>487.8</ele>
        <time>2022-04-17T15:39:28Z</time>
      </trkpt>
      <trkpt lat="49.0706" lon="7.78615">
        <ele>487.8</ele>
        <time>2022-04-17T15:39:29Z</time>
      </trkpt>
      <trkpt lat="49.0705" lon="7.78617">
        <ele>488.3</ele>
        <time>2022-04-17T15:39:38Z</time>
      </trkpt>
      <trkpt lat="49.07045" lon="7.78618">
        <ele>488.6</ele>
        <time>2022-04-17T15:39:44Z</time>
      </trkpt>
      <trkpt lat="49.07045" lon="7.78618">
        <ele>488.6</ele>
        <time>2022-04-17T15:39:47Z</time>
      </trkpt>
      <trkpt lat="49.07036" lon="7.78621">
        <ele>489.1</ele>
        <time>2022-04-17T15:40:00Z</time>
      </trkpt>
      <trkpt lat="49.07027" lon="7.78627">
        <ele>489.5</ele>
        <time>2022-04-17T15:40:09Z</time>
      </trkpt>
      <trkpt lat="49.07018" lon="7.78627">
        <ele>489.6</ele>
        <time>2022-04-17T15:40:17Z</time>
      </trkpt>
      <trkpt lat="49.0701" lon="7.78635">
        <ele>489.4</ele>
        <time>2022-04-17T15:40:28Z</time>
      </trkpt>
      <trkpt lat="49.07001" lon="7.78639">
        <ele>489.1</ele>
        <time>2022-04-17T15:40:38Z</time>
      </trkpt>
      <trkpt lat="49.06998" lon="7.78652">
        <ele>489.1</ele>
        <time>2022-04-17T15:40:50Z</time>
      </trkpt>
      <trkpt lat="49.07007" lon="7.78656">
        <ele>490.4</ele>
        <time>2022-04-17T15:41:03Z</time>
      </trkpt>
      <trkpt lat="49.07017" lon="7.78658">
        <ele>492.8</ele>
        <time>2022-04-17T15:41:16Z</time>
      </trkpt>
      <trkpt lat="49.07026" lon="7.78663">
        <ele>495.3</ele>
        <time>2022-04-17T15:41:27Z</time>
      </trkpt>
      <trkpt lat="49.07033" lon="7.78666">
        <ele>496.8</ele>
        <time>2022-04-17T15:41:39Z</time>
      </trkpt>
      <trkpt lat="49.07033" lon="7.78666">
        <ele>496.9</ele>
        <time>2022-04-17T15:41:41Z</time>
      </trkpt>
      <trkpt lat="49.07033" lon="7.78666">
        <ele>496.9</ele>
        <time>2022-04-17T15:41:42Z</time>
      </trkpt>
      <trkpt lat="49.07033" lon="7.78666">
        <ele>497</ele>
        <time>2022-04-17T15:41:49Z</time>
      </trkpt>
      <trkpt lat="49.07041" lon="7.78674">
        <ele>498.6</ele>
        <time>2022-04-17T15:42:05Z</time>
      </trkpt>
      <trkpt lat="49.07048" lon="7.78682">
        <ele>499.8</ele>
        <time>2022-04-17T15:42:18Z</time>
      </trkpt>
      <trkpt lat="49.07055" lon="7.78693">
        <ele>500.8</ele>
        <time>2022-04-17T15:42:29Z</time>
      </trkpt>
      <trkpt lat="49.07048" lon="7.78695">
        <ele>501.4</ele>
        <time>2022-04-17T15:42:47Z</time>
      </trkpt>
      <trkpt lat="49.07048" lon="7.78695">
        <ele>501.5</ele>
        <time>2022-04-17T15:42:50Z</time>
      </trkpt>
      <trkpt lat="49.07042" lon="7.78684">
        <ele>502.1</ele>
        <time>2022-04-17T15:43:07Z</time>
      </trkpt>
      <trkpt lat="49.07033" lon="7.7868">
        <ele>502.8</ele>
        <time>2022-04-17T15:43:19Z</time>
      </trkpt>
      <trkpt lat="49.07023" lon="7.78685">
        <ele>503.7</ele>
        <time>2022-04-17T15:43:32Z</time>
      </trkpt>
      <trkpt lat="49.07014" lon="7.78685">
        <ele>504.8</ele>
        <time>2022-04-17T15:43:41Z</time>
      </trkpt>
      <trkpt lat="49.07005" lon="7.78686">
        <ele>505.8</ele>
        <time>2022-04-17T15:43:53Z</time>
      </trkpt>
      <trkpt lat="49.06996" lon="7.78692">
        <ele>506.6</ele>
        <time>2022-04-17T15:44:04Z</time>
      </trkpt>
      <trkpt lat="49.06997" lon="7.78692">
        <ele>506.7</ele>
        <time>2022-04-17T15:44:07Z</time>
      </trkpt>
      <trkpt lat="49.06997" lon="7.78692">
        <ele>506.7</ele>
        <time>2022-04-17T15:44:16Z</time>
      </trkpt>
      <trkpt lat="49.07006" lon="7.78697">
        <ele>507.2</ele>
        <time>2022-04-17T15:44:34Z</time>
      </trkpt>
      <trkpt lat="49.0701" lon="7.78702">
        <ele>507.5</ele>
        <time>2022-04-17T15:44:39Z</time>
      </trkpt>
      <trkpt lat="49.0701" lon="7.78703">
        <ele>507.5</ele>
        <time>2022-04-17T15:44:41Z</time>
      </trkpt>
      <trkpt lat="49.0701" lon="7.78703">
        <ele>507.5</ele>
        <time>2022-04-17T15:44:42Z</time>
      </trkpt>
      <trkpt lat="49.0701" lon="7.78703">
        <ele>507.5</ele>
        <time>2022-04-17T15:44:46Z</time>
      </trkpt>
      <trkpt lat="49.0701" lon="7.78703">
        <ele>507.5</ele>
        <time>2022-04-17T15:44:47Z</time>
      </trkpt>
      <trkpt lat="49.0701" lon="7.78703">
        <ele>507.5</ele>
        <time>2022-04-17T15:44:51Z</time>
      </trkpt>
      <trkpt lat="49.0701" lon="7.78703">
        <ele>507.5</ele>
        <time>2022-04-17T15:44:52Z</time>
      </trkpt>
      <trkpt lat="49.0701" lon="7.78703">
        <ele>507.5</ele>
        <time>2022-04-17T15:44:53Z</time>
      </trkpt>
      <trkpt lat="49.0701" lon="7.78703">
        <ele>507.5</ele>
        <time>2022-04-17T15:44:56Z</time>
      </trkpt>
      <trkpt lat="49.0701" lon="7.78702">
        <ele>507.5</ele>
        <time>2022-04-17T15:44:57Z</time>
      </trkpt>
      <trkpt lat="49.0701" lon="7.78702">
        <ele>507.5</ele>
        <time>2022-04-17T15:44:58Z</time>
      </trkpt>
      <trkpt lat="49.0701" lon="7.78702">
        <ele>507.5</ele>
        <time>2022-04-17T15:44:59Z</time>
      </trkpt>
      <trkpt lat="49.0701" lon="7.78702">
        <ele>507.6</ele>
        <time>2022-04-17T15:45:01Z</time>
      </trkpt>
      <trkpt lat="49.0701" lon="7.78702">
        <ele>507.6</ele>
        <time>2022-04-17T15:45:03Z</time>
      </trkpt>
      <trkpt lat="49.07009" lon="7.78702">
        <ele>507.6</ele>
        <time>2022-04-17T15:45:06Z</time>
      </trkpt>
      <trkpt lat="49.07009" lon="7.78702">
        <ele>507.6</ele>
        <time>2022-04-17T15:45:08Z</time>
      </trkpt>
      <trkpt lat="49.07006" lon="7.78701">
        <ele>507.7</ele>
        <time>2022-04-17T15:45:16Z</time>
      </trkpt>
      <trkpt lat="49.07005" lon="7.78701">
        <ele>507.8</ele>
        <time>2022-04-17T15:45:26Z</time>
      </trkpt>
      <trkpt lat="49.07004" lon="7.78701">
        <ele>507.8</ele>
        <time>2022-04-17T15:45:31Z</time>
      </trkpt>
      <trkpt lat="49.07004" lon="7.78701">
        <ele>507.8</ele>
        <time>2022-04-17T15:45:32Z</time>
      </trkpt>
      <trkpt lat="49.07002" lon="7.78702">
        <ele>507.9</ele>
        <time>2022-04-17T15:45:39Z</time>
      </trkpt>
      <trkpt lat="49.07002" lon="7.78702">
        <ele>508</ele>
        <time>2022-04-17T15:45:51Z</time>
      </trkpt>
      <trkpt lat="49.07002" lon="7.78702">
        <ele>508</ele>
        <time>2022-04-17T15:45:53Z</time>
      </trkpt>
      <trkpt lat="49.07002" lon="7.78702">
        <ele>508</ele>
        <time>2022-04-17T15:46:00Z</time>
      </trkpt>
      <trkpt lat="49.07002" lon="7.78702">
        <ele>508</ele>
        <time>2022-04-17T15:46:01Z</time>
      </trkpt>
      <trkpt lat="49.07001" lon="7.78702">
        <ele>508</ele>
        <time>2022-04-17T15:46:07Z</time>
      </trkpt>
      <trkpt lat="49.07001" lon="7.78702">
        <ele>508</ele>
        <time>2022-04-17T15:46:10Z</time>
      </trkpt>
      <trkpt lat="49.07001" lon="7.78702">
        <ele>508</ele>
        <time>2022-04-17T15:46:32Z</time>
      </trkpt>
      <trkpt lat="49.06999" lon="7.78702">
        <ele>508.1</ele>
        <time>2022-04-17T15:46:36Z</time>
      </trkpt>
      <trkpt lat="49.06999" lon="7.78702">
        <ele>508.1</ele>
        <time>2022-04-17T15:47:14Z</time>
      </trkpt>
      <trkpt lat="49.06999" lon="7.78702">
        <ele>508.1</ele>
        <time>2022-04-17T15:47:15Z</time>
      </trkpt>
      <trkpt lat="49.06999" lon="7.78702">
        <ele>508.2</ele>
        <time>2022-04-17T15:47:31Z</time>
      </trkpt>
      <trkpt lat="49.06999" lon="7.78704">
        <ele>508.2</ele>
        <time>2022-04-17T15:47:37Z</time>
      </trkpt>
      <trkpt lat="49.06999" lon="7.78703">
        <ele>508.3</ele>
        <time>2022-04-17T15:47:44Z</time>
      </trkpt>
      <trkpt lat="49.06999" lon="7.78703">
        <ele>508.3</ele>
        <time>2022-04-17T15:47:45Z</time>
      </trkpt>
      <trkpt lat="49.06999" lon="7.78703">
        <ele>508.3</ele>
        <time>2022-04-17T15:47:46Z</time>
      </trkpt>
      <trkpt lat="49.06999" lon="7.78703">
        <ele>508.3</ele>
        <time>2022-04-17T15:47:47Z</time>
      </trkpt>
      <trkpt lat="49.06999" lon="7.78703">
        <ele>508.3</ele>
        <time>2022-04-17T15:48:02Z</time>
      </trkpt>
      <trkpt lat="49.06998" lon="7.78703">
        <ele>508.3</ele>
        <time>2022-04-17T15:48:04Z</time>
      </trkpt>
      <trkpt lat="49.06998" lon="7.78704">
        <ele>508.3</ele>
        <time>2022-04-17T15:48:39Z</time>
      </trkpt>
      <trkpt lat="49.06998" lon="7.78704">
        <ele>508.3</ele>
        <time>2022-04-17T15:48:40Z</time>
      </trkpt>
      <trkpt lat="49.06998" lon="7.78703">
        <ele>508.3</ele>
        <time>2022-04-17T15:48:45Z</time>
      </trkpt>
      <trkpt lat="49.06998" lon="7.78703">
        <ele>508.3</ele>
        <time>2022-04-17T15:48:46Z</time>
      </trkpt>
      <trkpt lat="49.06998" lon="7.78704">
        <ele>508.4</ele>
        <time>2022-04-17T15:54:09Z</time>
      </trkpt>
      <trkpt lat="49.06999" lon="7.78704">
        <ele>508.4</ele>
        <time>2022-04-17T15:54:11Z</time>
      </trkpt>
      <trkpt lat="49.06999" lon="7.78705">
        <ele>508.4</ele>
        <time>2022-04-17T15:54:12Z</time>
      </trkpt>
      <trkpt lat="49.07002" lon="7.78706">
        <ele>508.7</ele>
        <time>2022-04-17T15:54:24Z</time>
      </trkpt>
      <trkpt lat="49.07003" lon="7.78706">
        <ele>508.7</ele>
        <time>2022-04-17T15:54:25Z</time>
      </trkpt>
      <trkpt lat="49.07004" lon="7.78706">
        <ele>508.8</ele>
        <time>2022-04-17T15:54:30Z</time>
      </trkpt>
      <trkpt lat="49.07004" lon="7.78706">
        <ele>508.9</ele>
        <time>2022-04-17T15:54:32Z</time>
      </trkpt>
      <trkpt lat="49.07004" lon="7.78706">
        <ele>508.9</ele>
        <time>2022-04-17T15:54:34Z</time>
      </trkpt>
      <trkpt lat="49.07004" lon="7.78706">
        <ele>508.9</ele>
        <time>2022-04-17T15:54:38Z</time>
      </trkpt>
      <trkpt lat="49.07005" lon="7.78706">
        <ele>508.9</ele>
        <time>2022-04-17T15:54:41Z</time>
      </trkpt>
      <trkpt lat="49.07005" lon="7.78706">
        <ele>508.9</ele>
        <time>2022-04-17T15:54:43Z</time>
      </trkpt>
      <trkpt lat="49.07008" lon="7.78707">
        <ele>508.7</ele>
        <time>2022-04-17T15:54:53Z</time>
      </trkpt>
      <trkpt lat="49.07009" lon="7.78707">
        <ele>508.7</ele>
        <time>2022-04-17T15:54:58Z</time>
      </trkpt>
      <trkpt lat="49.0701" lon="7.78706">
        <ele>508.6</ele>
        <time>2022-04-17T15:55:04Z</time>
      </trkpt>
      <trkpt lat="49.0701" lon="7.78706">
        <ele>508.5</ele>
        <time>2022-04-17T15:55:05Z</time>
      </trkpt>
      <trkpt lat="49.0701" lon="7.78706">
        <ele>508.5</ele>
        <time>2022-04-17T15:55:07Z</time>
      </trkpt>
      <trkpt lat="49.07011" lon="7.78706">
        <ele>508.5</ele>
        <time>2022-04-17T15:55:11Z</time>
      </trkpt>
      <trkpt lat="49.07003" lon="7.78699">
        <ele>507.8</ele>
        <time>2022-04-17T15:55:33Z</time>
      </trkpt>
      <trkpt lat="49.07001" lon="7.78698">
        <ele>507.7</ele>
        <time>2022-04-17T15:55:37Z</time>
      </trkpt>
      <trkpt lat="49.07001" lon="7.78698">
        <ele>507.7</ele>
        <time>2022-04-17T15:55:52Z</time>
      </trkpt>
      <trkpt lat="49.07009" lon="7.7869">
        <ele>507.2</ele>
        <time>2022-04-17T15:56:08Z</time>
      </trkpt>
      <trkpt lat="49.07018" lon="7.78687">
        <ele>506.6</ele>
        <time>2022-04-17T15:56:16Z</time>
      </trkpt>
      <trkpt lat="49.07027" lon="7.7869">
        <ele>505.8</ele>
        <time>2022-04-17T15:56:23Z</time>
      </trkpt>
      <trkpt lat="49.07036" lon="7.7869">
        <ele>504.6</ele>
        <time>2022-04-17T15:56:29Z</time>
      </trkpt>
      <trkpt lat="49.07045" lon="7.7869">
        <ele>503.5</ele>
        <time>2022-04-17T15:56:38Z</time>
      </trkpt>
      <trkpt lat="49.07052" lon="7.787">
        <ele>502.5</ele>
        <time>2022-04-17T15:56:49Z</time>
      </trkpt>
      <trkpt lat="49.07055" lon="7.78687">
        <ele>501.8</ele>
        <time>2022-04-17T15:57:01Z</time>
      </trkpt>
      <trkpt lat="49.0705" lon="7.78675">
        <ele>500.9</ele>
        <time>2022-04-17T15:57:09Z</time>
      </trkpt>
      <trkpt lat="49.07043" lon="7.78665">
        <ele>499.8</ele>
        <time>2022-04-17T15:57:17Z</time>
      </trkpt>
      <trkpt lat="49.07035" lon="7.78658">
        <ele>498.4</ele>
        <time>2022-04-17T15:57:25Z</time>
      </trkpt>
      <trkpt lat="49.07027" lon="7.78652">
        <ele>496.5</ele>
        <time>2022-04-17T15:57:32Z</time>
      </trkpt>
      <trkpt lat="49.07018" lon="7.78648">
        <ele>494.2</ele>
        <time>2022-04-17T15:57:39Z</time>
      </trkpt>
      <trkpt lat="49.07009" lon="7.78646">
        <ele>491.5</ele>
        <time>2022-04-17T15:57:46Z</time>
      </trkpt>
      <trkpt lat="49.06999" lon="7.78644">
        <ele>489.4</ele>
        <time>2022-04-17T15:57:55Z</time>
      </trkpt>
      <trkpt lat="49.0701" lon="7.78641">
        <ele>489.1</ele>
        <time>2022-04-17T15:58:07Z</time>
      </trkpt>
      <trkpt lat="49.07019" lon="7.7864">
        <ele>489.5</ele>
        <time>2022-04-17T15:58:12Z</time>
      </trkpt>
      <trkpt lat="49.07028" lon="7.78635">
        <ele>489.6</ele>
        <time>2022-04-17T15:58:21Z</time>
      </trkpt>
      <trkpt lat="49.07038" lon="7.78635">
        <ele>489.4</ele>
        <time>2022-04-17T15:58:29Z</time>
      </trkpt>
      <trkpt lat="49.07046" lon="7.78629">
        <ele>488.9</ele>
        <time>2022-04-17T15:58:40Z</time>
      </trkpt>
      <trkpt lat="49.07056" lon="7.78627">
        <ele>488.2</ele>
        <time>2022-04-17T15:58:48Z</time>
      </trkpt>
      <trkpt lat="49.07065" lon="7.78621">
        <ele>487.7</ele>
        <time>2022-04-17T15:58:58Z</time>
      </trkpt>
      <trkpt lat="49.07074" lon="7.78621">
        <ele>487.3</ele>
        <time>2022-04-17T15:59:04Z</time>
      </trkpt>
      <trkpt lat="49.07084" lon="7.78623">
        <ele>486.7</ele>
        <time>2022-04-17T15:59:10Z</time>
      </trkpt>
      <trkpt lat="49.07094" lon="7.78625">
        <ele>486.3</ele>
        <time>2022-04-17T15:59:20Z</time>
      </trkpt>
      <trkpt lat="49.07103" lon="7.78628">
        <ele>485.8</ele>
        <time>2022-04-17T15:59:28Z</time>
      </trkpt>
      <trkpt lat="49.07112" lon="7.78631">
        <ele>485.1</ele>
        <time>2022-04-17T15:59:36Z</time>
      </trkpt>
      <trkpt lat="49.07122" lon="7.78634">
        <ele>484.2</ele>
        <time>2022-04-17T15:59:44Z</time>
      </trkpt>
      <trkpt lat="49.07129" lon="7.78642">
        <ele>483.4</ele>
        <time>2022-04-17T15:59:53Z</time>
      </trkpt>
      <trkpt lat="49.07136" lon="7.78652">
        <ele>482.8</ele>
        <time>2022-04-17T16:00:03Z</time>
      </trkpt>
      <trkpt lat="49.07139" lon="7.78666">
        <ele>482.5</ele>
        <time>2022-04-17T16:00:12Z</time>
      </trkpt>
      <trkpt lat="49.07143" lon="7.7868">
        <ele>481.8</ele>
        <time>2022-04-17T16:00:20Z</time>
      </trkpt>
      <trkpt lat="49.07146" lon="7.78694">
        <ele>480.7</ele>
        <time>2022-04-17T16:00:28Z</time>
      </trkpt>
      <trkpt lat="49.07147" lon="7.7871">
        <ele>479.5</ele>
        <time>2022-04-17T16:00:37Z</time>
      </trkpt>
      <trkpt lat="49.07148" lon="7.78724">
        <ele>478.4</ele>
        <time>2022-04-17T16:00:45Z</time>
      </trkpt>
      <trkpt lat="49.07152" lon="7.78738">
        <ele>477.2</ele>
        <time>2022-04-17T16:00:52Z</time>
      </trkpt>
      <trkpt lat="49.07154" lon="7.78751">
        <ele>476.2</ele>
        <time>2022-04-17T16:00:59Z</time>
      </trkpt>
      <trkpt lat="49.07157" lon="7.78766">
        <ele>475.2</ele>
        <time>2022-04-17T16:01:07Z</time>
      </trkpt>
      <trkpt lat="49.0716" lon="7.78781">
        <ele>474.1</ele>
        <time>2022-04-17T16:01:15Z</time>
      </trkpt>
      <trkpt lat="49.07159" lon="7.78796">
        <ele>473.2</ele>
        <time>2022-04-17T16:01:25Z</time>
      </trkpt>
      <trkpt lat="49.07152" lon="7.78805">
        <ele>472.4</ele>
        <time>2022-04-17T16:01:34Z</time>
      </trkpt>
      <trkpt lat="49.07142" lon="7.78808">
        <ele>471.8</ele>
        <time>2022-04-17T16:01:42Z</time>
      </trkpt>
      <trkpt lat="49.07132" lon="7.78807">
        <ele>471.2</ele>
        <time>2022-04-17T16:01:49Z</time>
      </trkpt>
      <trkpt lat="49.07122" lon="7.78808">
        <ele>470.7</ele>
        <time>2022-04-17T16:01:57Z</time>
      </trkpt>
      <trkpt lat="49.07112" lon="7.78811">
        <ele>470.1</ele>
        <time>2022-04-17T16:02:03Z</time>
      </trkpt>
      <trkpt lat="49.07104" lon="7.78818">
        <ele>469.7</ele>
        <time>2022-04-17T16:02:12Z</time>
      </trkpt>
      <trkpt lat="49.07094" lon="7.7882">
        <ele>469.4</ele>
        <time>2022-04-17T16:02:20Z</time>
      </trkpt>
      <trkpt lat="49.07085" lon="7.78823">
        <ele>469.1</ele>
        <time>2022-04-17T16:02:27Z</time>
      </trkpt>
      <trkpt lat="49.07076" lon="7.78826">
        <ele>468.8</ele>
        <time>2022-04-17T16:02:35Z</time>
      </trkpt>
      <trkpt lat="49.07067" lon="7.78829">
        <ele>468.5</ele>
        <time>2022-04-17T16:02:42Z</time>
      </trkpt>
      <trkpt lat="49.07057" lon="7.78832">
        <ele>468.1</ele>
        <time>2022-04-17T16:02:49Z</time>
      </trkpt>
      <trkpt lat="49.07048" lon="7.78834">
        <ele>467.7</ele>
        <time>2022-04-17T16:02:57Z</time>
      </trkpt>
      <trkpt lat="49.07038" lon="7.78837">
        <ele>467.2</ele>
        <time>2022-04-17T16:03:06Z</time>
      </trkpt>
      <trkpt lat="49.07028" lon="7.78837">
        <ele>466.6</ele>
        <time>2022-04-17T16:03:12Z</time>
      </trkpt>
      <trkpt lat="49.07018" lon="7.78843">
        <ele>465.9</ele>
        <time>2022-04-17T16:03:20Z</time>
      </trkpt>
      <trkpt lat="49.07008" lon="7.78844">
        <ele>465.3</ele>
        <time>2022-04-17T16:03:27Z</time>
      </trkpt>
      <trkpt lat="49.06999" lon="7.78841">
        <ele>464.6</ele>
        <time>2022-04-17T16:03:34Z</time>
      </trkpt>
      <trkpt lat="49.0699" lon="7.78842">
        <ele>464.1</ele>
        <time>2022-04-17T16:03:41Z</time>
      </trkpt>
      <trkpt lat="49.06979" lon="7.78842">
        <ele>463.4</ele>
        <time>2022-04-17T16:03:48Z</time>
      </trkpt>
      <trkpt lat="49.06969" lon="7.78842">
        <ele>462.8</ele>
        <time>2022-04-17T16:03:56Z</time>
      </trkpt>
      <trkpt lat="49.0696" lon="7.7884">
        <ele>462.2</ele>
        <time>2022-04-17T16:04:04Z</time>
      </trkpt>
      <trkpt lat="49.06951" lon="7.78838">
        <ele>461.5</ele>
        <time>2022-04-17T16:04:12Z</time>
      </trkpt>
      <trkpt lat="49.06941" lon="7.78836">
        <ele>460.9</ele>
        <time>2022-04-17T16:04:20Z</time>
      </trkpt>
      <trkpt lat="49.06932" lon="7.78832">
        <ele>460.3</ele>
        <time>2022-04-17T16:04:29Z</time>
      </trkpt>
      <trkpt lat="49.06922" lon="7.7883">
        <ele>459.7</ele>
        <time>2022-04-17T16:04:37Z</time>
      </trkpt>
      <trkpt lat="49.06913" lon="7.78824">
        <ele>459.1</ele>
        <time>2022-04-17T16:04:45Z</time>
      </trkpt>
      <trkpt lat="49.06904" lon="7.78818">
        <ele>458.5</ele>
        <time>2022-04-17T16:04:53Z</time>
      </trkpt>
      <trkpt lat="49.06895" lon="7.78813">
        <ele>458</ele>
        <time>2022-04-17T16:05:00Z</time>
      </trkpt>
      <trkpt lat="49.06886" lon="7.78807">
        <ele>457.4</ele>
        <time>2022-04-17T16:05:08Z</time>
      </trkpt>
      <trkpt lat="49.06877" lon="7.78804">
        <ele>456.9</ele>
        <time>2022-04-17T16:05:15Z</time>
      </trkpt>
      <trkpt lat="49.06867" lon="7.78797">
        <ele>456.2</ele>
        <time>2022-04-17T16:05:23Z</time>
      </trkpt>
      <trkpt lat="49.06858" lon="7.78792">
        <ele>455.6</ele>
        <time>2022-04-17T16:05:31Z</time>
      </trkpt>
      <trkpt lat="49.06849" lon="7.78786">
        <ele>454.9</ele>
        <time>2022-04-17T16:05:39Z</time>
      </trkpt>
      <trkpt lat="49.06841" lon="7.78777">
        <ele>454.2</ele>
        <time>2022-04-17T16:05:48Z</time>
      </trkpt>
      <trkpt lat="49.06833" lon="7.78768">
        <ele>453.4</ele>
        <time>2022-04-17T16:05:56Z</time>
      </trkpt>
      <trkpt lat="49.06825" lon="7.78763">
        <ele>452.5</ele>
        <time>2022-04-17T16:06:04Z</time>
      </trkpt>
      <trkpt lat="49.06815" lon="7.78757">
        <ele>451.6</ele>
        <time>2022-04-17T16:06:11Z</time>
      </trkpt>
      <trkpt lat="49.06807" lon="7.78752">
        <ele>450.6</ele>
        <time>2022-04-17T16:06:19Z</time>
      </trkpt>
      <trkpt lat="49.06799" lon="7.78746">
        <ele>449.6</ele>
        <time>2022-04-17T16:06:26Z</time>
      </trkpt>
      <trkpt lat="49.06793" lon="7.78742">
        <ele>448.9</ele>
        <time>2022-04-17T16:06:33Z</time>
      </trkpt>
      <trkpt lat="49.06793" lon="7.78742">
        <ele>448.9</ele>
        <time>2022-04-17T16:06:34Z</time>
      </trkpt>
      <trkpt lat="49.06785" lon="7.78733">
        <ele>447.9</ele>
        <time>2022-04-17T16:06:44Z</time>
      </trkpt>
      <trkpt lat="49.06777" lon="7.78727">
        <ele>447</ele>
        <time>2022-04-17T16:06:51Z</time>
      </trkpt>
      <trkpt lat="49.06769" lon="7.78719">
        <ele>446.3</ele>
        <time>2022-04-17T16:06:58Z</time>
      </trkpt>
      <trkpt lat="49.0676" lon="7.78712">
        <ele>445.9</ele>
        <time>2022-04-17T16:07:06Z</time>
      </trkpt>
      <trkpt lat="49.06751" lon="7.78705">
        <ele>445.3</ele>
        <time>2022-04-17T16:07:16Z</time>
      </trkpt>
      <trkpt lat="49.06742" lon="7.78699">
        <ele>444.4</ele>
        <time>2022-04-17T16:07:24Z</time>
      </trkpt>
      <trkpt lat="49.06734" lon="7.78693">
        <ele>443.5</ele>
        <time>2022-04-17T16:07:32Z</time>
      </trkpt>
      <trkpt lat="49.06732" lon="7.78692">
        <ele>443.2</ele>
        <time>2022-04-17T16:07:35Z</time>
      </trkpt>
      <trkpt lat="49.06732" lon="7.78693">
        <ele>443.2</ele>
        <time>2022-04-17T16:07:36Z</time>
      </trkpt>
      <trkpt lat="49.06724" lon="7.78686">
        <ele>442</ele>
        <time>2022-04-17T16:07:48Z</time>
      </trkpt>
      <trkpt lat="49.06719" lon="7.78677">
        <ele>440.7</ele>
        <time>2022-04-17T16:07:57Z</time>
      </trkpt>
      <trkpt lat="49.06719" lon="7.78677">
        <ele>440.7</ele>
        <time>2022-04-17T16:07:58Z</time>
      </trkpt>
      <trkpt lat="49.06719" lon="7.78677">
        <ele>440.7</ele>
        <time>2022-04-17T16:07:59Z</time>
      </trkpt>
      <trkpt lat="49.06719" lon="7.78677">
        <ele>440.7</ele>
        <time>2022-04-17T16:08:02Z</time>
      </trkpt>
      <trkpt lat="49.06722" lon="7.78681">
        <ele>440</ele>
        <time>2022-04-17T16:08:11Z</time>
      </trkpt>
      <trkpt lat="49.06722" lon="7.78681">
        <ele>440</ele>
        <time>2022-04-17T16:08:13Z</time>
      </trkpt>
      <trkpt lat="49.06722" lon="7.78681">
        <ele>440</ele>
        <time>2022-04-17T16:08:15Z</time>
      </trkpt>
      <trkpt lat="49.06722" lon="7.78681">
        <ele>439.9</ele>
        <time>2022-04-17T16:08:26Z</time>
      </trkpt>
      <trkpt lat="49.06722" lon="7.78681">
        <ele>439.9</ele>
        <time>2022-04-17T16:08:28Z</time>
      </trkpt>
      <trkpt lat="49.06721" lon="7.7868">
        <ele>439.8</ele>
        <time>2022-04-17T16:08:36Z</time>
      </trkpt>
      <trkpt lat="49.06721" lon="7.7868">
        <ele>439.7</ele>
        <time>2022-04-17T16:08:39Z</time>
      </trkpt>
      <trkpt lat="49.06721" lon="7.7868">
        <ele>439.7</ele>
        <time>2022-04-17T16:09:04Z</time>
      </trkpt>
      <trkpt lat="49.06721" lon="7.7868">
        <ele>439.7</ele>
        <time>2022-04-17T16:09:05Z</time>
      </trkpt>
      <trkpt lat="49.06721" lon="7.7868">
        <ele>439.6</ele>
        <time>2022-04-17T16:09:22Z</time>
      </trkpt>
      <trkpt lat="49.06715" lon="7.7869">
        <ele>438.3</ele>
        <time>2022-04-17T16:09:36Z</time>
      </trkpt>
      <trkpt lat="49.06706" lon="7.78696">
        <ele>437.3</ele>
        <time>2022-04-17T16:09:48Z</time>
      </trkpt>
      <trkpt lat="49.06697" lon="7.78695">
        <ele>436.7</ele>
        <time>2022-04-17T16:09:56Z</time>
      </trkpt>
      <trkpt lat="49.06687" lon="7.78692">
        <ele>436.4</ele>
        <time>2022-04-17T16:10:05Z</time>
      </trkpt>
      <trkpt lat="49.06678" lon="7.78689">
        <ele>436.2</ele>
        <time>2022-04-17T16:10:12Z</time>
      </trkpt>
      <trkpt lat="49.06669" lon="7.78687">
        <ele>436.1</ele>
        <time>2022-04-17T16:10:20Z</time>
      </trkpt>
      <trkpt lat="49.0666" lon="7.78684">
        <ele>435.9</ele>
        <time>2022-04-17T16:10:27Z</time>
      </trkpt>
      <trkpt lat="49.06651" lon="7.78679">
        <ele>435.9</ele>
        <time>2022-04-17T16:10:35Z</time>
      </trkpt>
      <trkpt lat="49.06642" lon="7.78679">
        <ele>435.8</ele>
        <time>2022-04-17T16:10:43Z</time>
      </trkpt>
      <trkpt lat="49.06632" lon="7.78679">
        <ele>435.8</ele>
        <time>2022-04-17T16:10:51Z</time>
      </trkpt>
      <trkpt lat="49.06622" lon="7.78679">
        <ele>435.6</ele>
        <time>2022-04-17T16:10:59Z</time>
      </trkpt>
      <trkpt lat="49.06613" lon="7.78679">
        <ele>435.2</ele>
        <time>2022-04-17T16:11:07Z</time>
      </trkpt>
      <trkpt lat="49.06603" lon="7.7868">
        <ele>434.8</ele>
        <time>2022-04-17T16:11:21Z</time>
      </trkpt>
      <trkpt lat="49.06594" lon="7.78683">
        <ele>434.5</ele>
        <time>2022-04-17T16:11:28Z</time>
      </trkpt>
      <trkpt lat="49.06585" lon="7.78684">
        <ele>434.4</ele>
        <time>2022-04-17T16:11:36Z</time>
      </trkpt>
      <trkpt lat="49.06575" lon="7.78685">
        <ele>434.6</ele>
        <time>2022-04-17T16:11:43Z</time>
      </trkpt>
      <trkpt lat="49.06565" lon="7.78683">
        <ele>435</ele>
        <time>2022-04-17T16:11:53Z</time>
      </trkpt>
      <trkpt lat="49.06556" lon="7.78684">
        <ele>435.3</ele>
        <time>2022-04-17T16:12:01Z</time>
      </trkpt>
      <trkpt lat="49.06547" lon="7.78685">
        <ele>435.2</ele>
        <time>2022-04-17T16:12:12Z</time>
      </trkpt>
      <trkpt lat="49.06538" lon="7.78692">
        <ele>434.9</ele>
        <time>2022-04-17T16:12:21Z</time>
      </trkpt>
      <trkpt lat="49.06529" lon="7.78693">
        <ele>434.8</ele>
        <time>2022-04-17T16:12:29Z</time>
      </trkpt>
      <trkpt lat="49.06518" lon="7.78689">
        <ele>434.9</ele>
        <time>2022-04-17T16:12:38Z</time>
      </trkpt>
      <trkpt lat="49.06509" lon="7.78688">
        <ele>435.3</ele>
        <time>2022-04-17T16:12:48Z</time>
      </trkpt>
      <trkpt lat="49.065" lon="7.78691">
        <ele>435.6</ele>
        <time>2022-04-17T16:12:58Z</time>
      </trkpt>
      <trkpt lat="49.06491" lon="7.78694">
        <ele>436.2</ele>
        <time>2022-04-17T16:13:07Z</time>
      </trkpt>
      <trkpt lat="49.06481" lon="7.78693">
        <ele>437.1</ele>
        <time>2022-04-17T16:13:13Z</time>
      </trkpt>
      <trkpt lat="49.06471" lon="7.78694">
        <ele>439.1</ele>
        <time>2022-04-17T16:13:19Z</time>
      </trkpt>
      <trkpt lat="49.06467" lon="7.78682">
        <ele>439.2</ele>
        <time>2022-04-17T16:13:34Z</time>
      </trkpt>
      <trkpt lat="49.06467" lon="7.78683">
        <ele>439.2</ele>
        <time>2022-04-17T16:13:35Z</time>
      </trkpt>
      <trkpt lat="49.06467" lon="7.78683">
        <ele>439.2</ele>
        <time>2022-04-17T16:13:36Z</time>
      </trkpt>
      <trkpt lat="49.06467" lon="7.78683">
        <ele>439.2</ele>
        <time>2022-04-17T16:13:37Z</time>
      </trkpt>
      <trkpt lat="49.06468" lon="7.78682">
        <ele>439.3</ele>
        <time>2022-04-17T16:13:40Z</time>
      </trkpt>
      <trkpt lat="49.06468" lon="7.78682">
        <ele>439.3</ele>
        <time>2022-04-17T16:13:41Z</time>
      </trkpt>
      <trkpt lat="49.06467" lon="7.78683">
        <ele>439.3</ele>
        <time>2022-04-17T16:13:46Z</time>
      </trkpt>
      <trkpt lat="49.06467" lon="7.78683">
        <ele>439.3</ele>
        <time>2022-04-17T16:13:51Z</time>
      </trkpt>
      <trkpt lat="49.06467" lon="7.78683">
        <ele>439.3</ele>
        <time>2022-04-17T16:13:53Z</time>
      </trkpt>
      <trkpt lat="49.06467" lon="7.78682">
        <ele>439.3</ele>
        <time>2022-04-17T16:13:56Z</time>
      </trkpt>
      <trkpt lat="49.06467" lon="7.78682">
        <ele>439.3</ele>
        <time>2022-04-17T16:13:57Z</time>
      </trkpt>
      <trkpt lat="49.06467" lon="7.78683">
        <ele>439.3</ele>
        <time>2022-04-17T16:13:59Z</time>
      </trkpt>
      <trkpt lat="49.06467" lon="7.78683">
        <ele>439.3</ele>
        <time>2022-04-17T16:14:01Z</time>
      </trkpt>
      <trkpt lat="49.06467" lon="7.78684">
        <ele>439.3</ele>
        <time>2022-04-17T16:14:13Z</time>
      </trkpt>
      <trkpt lat="49.06467" lon="7.78684">
        <ele>439.3</ele>
        <time>2022-04-17T16:14:14Z</time>
      </trkpt>
      <trkpt lat="49.06467" lon="7.78684">
        <ele>439.3</ele>
        <time>2022-04-17T16:14:17Z</time>
      </trkpt>
      <trkpt lat="49.06467" lon="7.78684">
        <ele>439.3</ele>
        <time>2022-04-17T16:14:18Z</time>
      </trkpt>
      <trkpt lat="49.06467" lon="7.78684">
        <ele>439.3</ele>
        <time>2022-04-17T16:14:21Z</time>
      </trkpt>
      <trkpt lat="49.06466" lon="7.78684">
        <ele>439.3</ele>
        <time>2022-04-17T16:14:24Z</time>
      </trkpt>
      <trkpt lat="49.06466" lon="7.78684">
        <ele>439.3</ele>
        <time>2022-04-17T16:14:40Z</time>
      </trkpt>
      <trkpt lat="49.06466" lon="7.78685">
        <ele>439.3</ele>
        <time>2022-04-17T16:14:44Z</time>
      </trkpt>
      <trkpt lat="49.06465" lon="7.78685">
        <ele>439.3</ele>
        <time>2022-04-17T16:14:45Z</time>
      </trkpt>
      <trkpt lat="49.06465" lon="7.78686">
        <ele>439.4</ele>
        <time>2022-04-17T16:15:04Z</time>
      </trkpt>
      <trkpt lat="49.06467" lon="7.78687">
        <ele>439.4</ele>
        <time>2022-04-17T16:15:05Z</time>
      </trkpt>
      <trkpt lat="49.06472" lon="7.78675">
        <ele>439.6</ele>
        <time>2022-04-17T16:15:14Z</time>
      </trkpt>
      <trkpt lat="49.06469" lon="7.78685">
        <ele>439.7</ele>
        <time>2022-04-17T16:15:26Z</time>
      </trkpt>
      <trkpt lat="49.06469" lon="7.78686">
        <ele>439.7</ele>
        <time>2022-04-17T16:15:28Z</time>
      </trkpt>
      <trkpt lat="49.06469" lon="7.78686">
        <ele>439.7</ele>
        <time>2022-04-17T16:15:29Z</time>
      </trkpt>
      <trkpt lat="49.06469" lon="7.78686">
        <ele>439.7</ele>
        <time>2022-04-17T16:15:35Z</time>
      </trkpt>
      <trkpt lat="49.06464" lon="7.78698">
        <ele>439.4</ele>
        <time>2022-04-17T16:15:45Z</time>
      </trkpt>
      <trkpt lat="49.06456" lon="7.78706">
        <ele>438.8</ele>
        <time>2022-04-17T16:15:55Z</time>
      </trkpt>
      <trkpt lat="49.06447" lon="7.7871">
        <ele>438.3</ele>
        <time>2022-04-17T16:16:03Z</time>
      </trkpt>
      <trkpt lat="49.06438" lon="7.78716">
        <ele>437.6</ele>
        <time>2022-04-17T16:16:13Z</time>
      </trkpt>
      <trkpt lat="49.06429" lon="7.7872">
        <ele>437</ele>
        <time>2022-04-17T16:16:19Z</time>
      </trkpt>
      <trkpt lat="49.0642" lon="7.78725">
        <ele>436.1</ele>
        <time>2022-04-17T16:16:27Z</time>
      </trkpt>
      <trkpt lat="49.06412" lon="7.78734">
        <ele>435</ele>
        <time>2022-04-17T16:16:35Z</time>
      </trkpt>
      <trkpt lat="49.06408" lon="7.78748">
        <ele>433.7</ele>
        <time>2022-04-17T16:16:42Z</time>
      </trkpt>
      <trkpt lat="49.06414" lon="7.7876">
        <ele>432.4</ele>
        <time>2022-04-17T16:16:49Z</time>
      </trkpt>
      <trkpt lat="49.06414" lon="7.7876">
        <ele>432.4</ele>
        <time>2022-04-17T16:16:50Z</time>
      </trkpt>
      <trkpt lat="49.06414" lon="7.7876">
        <ele>432.4</ele>
        <time>2022-04-17T16:16:51Z</time>
      </trkpt>
      <trkpt lat="49.06412" lon="7.78762">
        <ele>432</ele>
        <time>2022-04-17T16:16:54Z</time>
      </trkpt>
      <trkpt lat="49.06412" lon="7.78762">
        <ele>432</ele>
        <time>2022-04-17T16:17:02Z</time>
      </trkpt>
      <trkpt lat="49.06412" lon="7.78763">
        <ele>431.8</ele>
        <time>2022-04-17T16:17:04Z</time>
      </trkpt>
      <trkpt lat="49.06412" lon="7.78764">
        <ele>431.8</ele>
        <time>2022-04-17T16:17:07Z</time>
      </trkpt>
      <trkpt lat="49.06422" lon="7.78759">
        <ele>430.2</ele>
        <time>2022-04-17T16:17:16Z</time>
      </trkpt>
      <trkpt lat="49.06432" lon="7.78757">
        <ele>428.7</ele>
        <time>2022-04-17T16:17:23Z</time>
      </trkpt>
      <trkpt lat="49.0644" lon="7.78752">
        <ele>427.5</ele>
        <time>2022-04-17T16:17:30Z</time>
      </trkpt>
      <trkpt lat="49.06449" lon="7.78748">
        <ele>426.3</ele>
        <time>2022-04-17T16:17:37Z</time>
      </trkpt>
      <trkpt lat="49.06459" lon="7.78746">
        <ele>425</ele>
        <time>2022-04-17T16:17:44Z</time>
      </trkpt>
      <trkpt lat="49.06468" lon="7.78741">
        <ele>423.8</ele>
        <time>2022-04-17T16:17:52Z</time>
      </trkpt>
      <trkpt lat="49.06477" lon="7.78737">
        <ele>422.6</ele>
        <time>2022-04-17T16:18:01Z</time>
      </trkpt>
      <trkpt lat="49.06486" lon="7.78733">
        <ele>421.3</ele>
        <time>2022-04-17T16:18:11Z</time>
      </trkpt>
      <trkpt lat="49.06496" lon="7.78729">
        <ele>419.9</ele>
        <time>2022-04-17T16:18:21Z</time>
      </trkpt>
      <trkpt lat="49.06505" lon="7.78727">
        <ele>418.5</ele>
        <time>2022-04-17T16:18:30Z</time>
      </trkpt>
      <trkpt lat="49.06514" lon="7.78726">
        <ele>417.1</ele>
        <time>2022-04-17T16:18:41Z</time>
      </trkpt>
      <trkpt lat="49.06524" lon="7.78727">
        <ele>415.7</ele>
        <time>2022-04-17T16:18:50Z</time>
      </trkpt>
      <trkpt lat="49.06533" lon="7.78727">
        <ele>414.4</ele>
        <time>2022-04-17T16:19:00Z</time>
      </trkpt>
      <trkpt lat="49.06543" lon="7.78728">
        <ele>413.2</ele>
        <time>2022-04-17T16:19:10Z</time>
      </trkpt>
      <trkpt lat="49.06543" lon="7.78729">
        <ele>413.1</ele>
        <time>2022-04-17T16:19:12Z</time>
      </trkpt>
      <trkpt lat="49.06542" lon="7.78728">
        <ele>413.1</ele>
        <time>2022-04-17T16:19:13Z</time>
      </trkpt>
      <trkpt lat="49.06552" lon="7.78729">
        <ele>412</ele>
        <time>2022-04-17T16:19:23Z</time>
      </trkpt>
      <trkpt lat="49.06561" lon="7.78727">
        <ele>410.9</ele>
        <time>2022-04-17T16:19:30Z</time>
      </trkpt>
      <trkpt lat="49.06571" lon="7.78726">
        <ele>409.9</ele>
        <time>2022-04-17T16:19:39Z</time>
      </trkpt>
      <trkpt lat="49.0658" lon="7.78726">
        <ele>408.9</ele>
        <time>2022-04-17T16:19:46Z</time>
      </trkpt>
      <trkpt lat="49.0659" lon="7.78728">
        <ele>407.9</ele>
        <time>2022-04-17T16:19:51Z</time>
      </trkpt>
      <trkpt lat="49.06599" lon="7.78731">
        <ele>407</ele>
        <time>2022-04-17T16:19:59Z</time>
      </trkpt>
      <trkpt lat="49.06607" lon="7.78737">
        <ele>406.2</ele>
        <time>2022-04-17T16:20:15Z</time>
      </trkpt>
      <trkpt lat="49.06617" lon="7.7874">
        <ele>405.4</ele>
        <time>2022-04-17T16:20:27Z</time>
      </trkpt>
      <trkpt lat="49.06626" lon="7.78741">
        <ele>404.4</ele>
        <time>2022-04-17T16:20:36Z</time>
      </trkpt>
      <trkpt lat="49.06635" lon="7.78746">
        <ele>403.4</ele>
        <time>2022-04-17T16:20:44Z</time>
      </trkpt>
      <trkpt lat="49.06644" lon="7.78749">
        <ele>402.4</ele>
        <time>2022-04-17T16:20:51Z</time>
      </trkpt>
      <trkpt lat="49.06654" lon="7.78754">
        <ele>401.5</ele>
        <time>2022-04-17T16:21:00Z</time>
      </trkpt>
      <trkpt lat="49.06663" lon="7.78757">
        <ele>400.5</ele>
        <time>2022-04-17T16:21:06Z</time>
      </trkpt>
      <trkpt lat="49.06674" lon="7.7876">
        <ele>399.4</ele>
        <time>2022-04-17T16:21:15Z</time>
      </trkpt>
      <trkpt lat="49.06683" lon="7.78767">
        <ele>398.3</ele>
        <time>2022-04-17T16:21:21Z</time>
      </trkpt>
      <trkpt lat="49.0669" lon="7.78774">
        <ele>397.2</ele>
        <time>2022-04-17T16:21:28Z</time>
      </trkpt>
      <trkpt lat="49.067" lon="7.78784">
        <ele>396.7</ele>
        <time>2022-04-17T16:21:37Z</time>
      </trkpt>
      <trkpt lat="49.06695" lon="7.7879">
        <ele>396.7</ele>
        <time>2022-04-17T16:21:51Z</time>
      </trkpt>
      <trkpt lat="49.06695" lon="7.7879">
        <ele>396.7</ele>
        <time>2022-04-17T16:22:00Z</time>
      </trkpt>
      <trkpt lat="49.06695" lon="7.7879">
        <ele>396.7</ele>
        <time>2022-04-17T16:22:01Z</time>
      </trkpt>
      <trkpt lat="49.06695" lon="7.7879">
        <ele>396.7</ele>
        <time>2022-04-17T16:22:02Z</time>
      </trkpt>
      <trkpt lat="49.06695" lon="7.78791">
        <ele>396.7</ele>
        <time>2022-04-17T16:22:03Z</time>
      </trkpt>
      <trkpt lat="49.06695" lon="7.78789">
        <ele>396.7</ele>
        <time>2022-04-17T16:22:06Z</time>
      </trkpt>
      <trkpt lat="49.06689" lon="7.78778">
        <ele>396.8</ele>
        <time>2022-04-17T16:22:15Z</time>
      </trkpt>
      <trkpt lat="49.06683" lon="7.78768">
        <ele>398.2</ele>
        <time>2022-04-17T16:22:22Z</time>
      </trkpt>
      <trkpt lat="49.06676" lon="7.78759">
        <ele>399.2</ele>
        <time>2022-04-17T16:22:31Z</time>
      </trkpt>
      <trkpt lat="49.06676" lon="7.78759">
        <ele>399.2</ele>
        <time>2022-04-17T16:22:32Z</time>
      </trkpt>
      <trkpt lat="49.06667" lon="7.78752">
        <ele>400.3</ele>
        <time>2022-04-17T16:22:41Z</time>
      </trkpt>
      <trkpt lat="49.06658" lon="7.78748">
        <ele>401.2</ele>
        <time>2022-04-17T16:22:48Z</time>
      </trkpt>
      <trkpt lat="49.06649" lon="7.78745">
        <ele>402.1</ele>
        <time>2022-04-17T16:22:55Z</time>
      </trkpt>
      <trkpt lat="49.0664" lon="7.7874">
        <ele>403.1</ele>
        <time>2022-04-17T16:23:03Z</time>
      </trkpt>
      <trkpt lat="49.06631" lon="7.78737">
        <ele>404</ele>
        <time>2022-04-17T16:23:09Z</time>
      </trkpt>
      <trkpt lat="49.06621" lon="7.78734">
        <ele>404.9</ele>
        <time>2022-04-17T16:23:16Z</time>
      </trkpt>
      <trkpt lat="49.06612" lon="7.7873">
        <ele>405.9</ele>
        <time>2022-04-17T16:23:24Z</time>
      </trkpt>
      <trkpt lat="49.06602" lon="7.78728">
        <ele>406.8</ele>
        <time>2022-04-17T16:23:32Z</time>
      </trkpt>
      <trkpt lat="49.06593" lon="7.78722">
        <ele>407.7</ele>
        <time>2022-04-17T16:23:40Z</time>
      </trkpt>
      <trkpt lat="49.06584" lon="7.78722">
        <ele>408.7</ele>
        <time>2022-04-17T16:23:47Z</time>
      </trkpt>
      <trkpt lat="49.06574" lon="7.78721">
        <ele>409.7</ele>
        <time>2022-04-17T16:23:55Z</time>
      </trkpt>
      <trkpt lat="49.06565" lon="7.78721">
        <ele>410.7</ele>
        <time>2022-04-17T16:24:03Z</time>
      </trkpt>
      <trkpt lat="49.06555" lon="7.78717">
        <ele>411.8</ele>
        <time>2022-04-17T16:24:11Z</time>
      </trkpt>
      <trkpt lat="49.06545" lon="7.78714">
        <ele>412.9</ele>
        <time>2022-04-17T16:24:21Z</time>
      </trkpt>
      <trkpt lat="49.06537" lon="7.78716">
        <ele>413.9</ele>
        <time>2022-04-17T16:24:34Z</time>
      </trkpt>
      <trkpt lat="49.06537" lon="7.78718">
        <ele>414</ele>
        <time>2022-04-17T16:24:36Z</time>
      </trkpt>
      <trkpt lat="49.06537" lon="7.7872">
        <ele>414.2</ele>
        <time>2022-04-17T16:24:39Z</time>
      </trkpt>
      <trkpt lat="49.06536" lon="7.78719">
        <ele>414.3</ele>
        <time>2022-04-17T16:24:42Z</time>
      </trkpt>
      <trkpt lat="49.06528" lon="7.78716">
        <ele>415.6</ele>
        <time>2022-04-17T16:24:54Z</time>
      </trkpt>
      <trkpt lat="49.06518" lon="7.78712">
        <ele>417</ele>
        <time>2022-04-17T16:25:04Z</time>
      </trkpt>
      <trkpt lat="49.06508" lon="7.78714">
        <ele>418.5</ele>
        <time>2022-04-17T16:25:11Z</time>
      </trkpt>
      <trkpt lat="49.06499" lon="7.78715">
        <ele>419.8</ele>
        <time>2022-04-17T16:25:21Z</time>
      </trkpt>
      <trkpt lat="49.0649" lon="7.78716">
        <ele>421.2</ele>
        <time>2022-04-17T16:25:30Z</time>
      </trkpt>
      <trkpt lat="49.06481" lon="7.78718">
        <ele>422.5</ele>
        <time>2022-04-17T16:25:40Z</time>
      </trkpt>
      <trkpt lat="49.06473" lon="7.78725">
        <ele>423.6</ele>
        <time>2022-04-17T16:25:49Z</time>
      </trkpt>
      <trkpt lat="49.06464" lon="7.78728">
        <ele>424.8</ele>
        <time>2022-04-17T16:26:00Z</time>
      </trkpt>
      <trkpt lat="49.06454" lon="7.78731">
        <ele>426.1</ele>
        <time>2022-04-17T16:26:09Z</time>
      </trkpt>
      <trkpt lat="49.06444" lon="7.78734">
        <ele>427.4</ele>
        <time>2022-04-17T16:26:17Z</time>
      </trkpt>
      <trkpt lat="49.06435" lon="7.78738">
        <ele>428.7</ele>
        <time>2022-04-17T16:26:25Z</time>
      </trkpt>
      <trkpt lat="49.06426" lon="7.78745">
        <ele>430.2</ele>
        <time>2022-04-17T16:26:35Z</time>
      </trkpt>
      <trkpt lat="49.06424" lon="7.78746">
        <ele>430.5</ele>
        <time>2022-04-17T16:26:41Z</time>
      </trkpt>
      <trkpt lat="49.06424" lon="7.78746">
        <ele>430.6</ele>
        <time>2022-04-17T16:26:42Z</time>
      </trkpt>
      <trkpt lat="49.06424" lon="7.78747">
        <ele>430.6</ele>
        <time>2022-04-17T16:26:44Z</time>
      </trkpt>
      <trkpt lat="49.06424" lon="7.78747">
        <ele>430.6</ele>
        <time>2022-04-17T16:26:46Z</time>
      </trkpt>
      <trkpt lat="49.06424" lon="7.78747">
        <ele>430.6</ele>
        <time>2022-04-17T16:26:47Z</time>
      </trkpt>
      <trkpt lat="49.06423" lon="7.78747">
        <ele>430.7</ele>
        <time>2022-04-17T16:26:48Z</time>
      </trkpt>
      <trkpt lat="49.06414" lon="7.78749">
        <ele>433.6</ele>
        <time>2022-04-17T16:27:02Z</time>
      </trkpt>
      <trkpt lat="49.06414" lon="7.78749">
        <ele>433.7</ele>
        <time>2022-04-17T16:27:05Z</time>
      </trkpt>
      <trkpt lat="49.06413" lon="7.78748">
        <ele>433.8</ele>
        <time>2022-04-17T16:27:18Z</time>
      </trkpt>
      <trkpt lat="49.06412" lon="7.78747">
        <ele>433.9</ele>
        <time>2022-04-17T16:27:22Z</time>
      </trkpt>
      <trkpt lat="49.06412" lon="7.78747">
        <ele>434</ele>
        <time>2022-04-17T16:27:25Z</time>
      </trkpt>
      <trkpt lat="49.06418" lon="7.78736">
        <ele>435.3</ele>
        <time>2022-04-17T16:27:43Z</time>
      </trkpt>
      <trkpt lat="49.06427" lon="7.7873">
        <ele>436.4</ele>
        <time>2022-04-17T16:27:52Z</time>
      </trkpt>
      <trkpt lat="49.06437" lon="7.78726">
        <ele>437.2</ele>
        <time>2022-04-17T16:27:59Z</time>
      </trkpt>
      <trkpt lat="49.06446" lon="7.78723">
        <ele>437.9</ele>
        <time>2022-04-17T16:28:07Z</time>
      </trkpt>
      <trkpt lat="49.06454" lon="7.78716">
        <ele>438.4</ele>
        <time>2022-04-17T16:28:15Z</time>
      </trkpt>
      <trkpt lat="49.06462" lon="7.78708">
        <ele>439</ele>
        <time>2022-04-17T16:28:23Z</time>
      </trkpt>
      <trkpt lat="49.06468" lon="7.78697">
        <ele>439.6</ele>
        <time>2022-04-17T16:28:31Z</time>
      </trkpt>
      <trkpt lat="49.06471" lon="7.78684">
        <ele>440</ele>
        <time>2022-04-17T16:28:37Z</time>
      </trkpt>
      <trkpt lat="49.06465" lon="7.78673">
        <ele>440.7</ele>
        <time>2022-04-17T16:28:43Z</time>
      </trkpt>
      <trkpt lat="49.06456" lon="7.78669">
        <ele>441.8</ele>
        <time>2022-04-17T16:28:50Z</time>
      </trkpt>
      <trkpt lat="49.06447" lon="7.78665">
        <ele>443.1</ele>
        <time>2022-04-17T16:28:58Z</time>
      </trkpt>
      <trkpt lat="49.06437" lon="7.78661">
        <ele>444.4</ele>
        <time>2022-04-17T16:29:07Z</time>
      </trkpt>
      <trkpt lat="49.06428" lon="7.78661">
        <ele>445.6</ele>
        <time>2022-04-17T16:29:16Z</time>
      </trkpt>
      <trkpt lat="49.06418" lon="7.78662">
        <ele>446.9</ele>
        <time>2022-04-17T16:29:24Z</time>
      </trkpt>
      <trkpt lat="49.06409" lon="7.78664">
        <ele>448.2</ele>
        <time>2022-04-17T16:29:32Z</time>
      </trkpt>
      <trkpt lat="49.06399" lon="7.78665">
        <ele>449.6</ele>
        <time>2022-04-17T16:29:40Z</time>
      </trkpt>
      <trkpt lat="49.06389" lon="7.78665">
        <ele>450.9</ele>
        <time>2022-04-17T16:29:48Z</time>
      </trkpt>
      <trkpt lat="49.0638" lon="7.78665">
        <ele>452.3</ele>
        <time>2022-04-17T16:29:58Z</time>
      </trkpt>
      <trkpt lat="49.06377" lon="7.78668">
        <ele>452.7</ele>
        <time>2022-04-17T16:30:09Z</time>
      </trkpt>
      <trkpt lat="49.06377" lon="7.78668">
        <ele>452.8</ele>
        <time>2022-04-17T16:30:12Z</time>
      </trkpt>
      <trkpt lat="49.06377" lon="7.78668">
        <ele>452.8</ele>
        <time>2022-04-17T16:30:14Z</time>
      </trkpt>
      <trkpt lat="49.06377" lon="7.78668">
        <ele>452.8</ele>
        <time>2022-04-17T16:30:21Z</time>
      </trkpt>
      <trkpt lat="49.06377" lon="7.78668">
        <ele>452.8</ele>
        <time>2022-04-17T16:30:22Z</time>
      </trkpt>
      <trkpt lat="49.06376" lon="7.78668">
        <ele>452.9</ele>
        <time>2022-04-17T16:30:23Z</time>
      </trkpt>
      <trkpt lat="49.06376" lon="7.78669">
        <ele>452.9</ele>
        <time>2022-04-17T16:30:27Z</time>
      </trkpt>
      <trkpt lat="49.06376" lon="7.78669">
        <ele>453</ele>
        <time>2022-04-17T16:30:28Z</time>
      </trkpt>
      <trkpt lat="49.06376" lon="7.78672">
        <ele>453.2</ele>
        <time>2022-04-17T16:30:30Z</time>
      </trkpt>
      <trkpt lat="49.06377" lon="7.78671">
        <ele>453.3</ele>
        <time>2022-04-17T16:30:47Z</time>
      </trkpt>
      <trkpt lat="49.06369" lon="7.78663">
        <ele>454.5</ele>
        <time>2022-04-17T16:30:57Z</time>
      </trkpt>
      <trkpt lat="49.0636" lon="7.78659">
        <ele>455.8</ele>
        <time>2022-04-17T16:31:06Z</time>
      </trkpt>
      <trkpt lat="49.06352" lon="7.78651">
        <ele>457.2</ele>
        <time>2022-04-17T16:31:16Z</time>
      </trkpt>
      <trkpt lat="49.06343" lon="7.78643">
        <ele>458.5</ele>
        <time>2022-04-17T16:31:26Z</time>
      </trkpt>
      <trkpt lat="49.06334" lon="7.78637">
        <ele>459.9</ele>
        <time>2022-04-17T16:31:34Z</time>
      </trkpt>
      <trkpt lat="49.06325" lon="7.78629">
        <ele>461.2</ele>
        <time>2022-04-17T16:31:42Z</time>
      </trkpt>
      <trkpt lat="49.06317" lon="7.78621">
        <ele>462.5</ele>
        <time>2022-04-17T16:31:51Z</time>
      </trkpt>
      <trkpt lat="49.06309" lon="7.78612">
        <ele>463.6</ele>
        <time>2022-04-17T16:32:00Z</time>
      </trkpt>
      <trkpt lat="49.06302" lon="7.78603">
        <ele>464.7</ele>
        <time>2022-04-17T16:32:09Z</time>
      </trkpt>
      <trkpt lat="49.06296" lon="7.78593">
        <ele>465.8</ele>
        <time>2022-04-17T16:32:18Z</time>
      </trkpt>
      <trkpt lat="49.06288" lon="7.78586">
        <ele>467</ele>
        <time>2022-04-17T16:32:27Z</time>
      </trkpt>
      <trkpt lat="49.06281" lon="7.78576">
        <ele>468.2</ele>
        <time>2022-04-17T16:32:36Z</time>
      </trkpt>
      <trkpt lat="49.06274" lon="7.78568">
        <ele>469.4</ele>
        <time>2022-04-17T16:32:44Z</time>
      </trkpt>
      <trkpt lat="49.06266" lon="7.78562">
        <ele>470.4</ele>
        <time>2022-04-17T16:32:52Z</time>
      </trkpt>
      <trkpt lat="49.06258" lon="7.78553">
        <ele>471.4</ele>
        <time>2022-04-17T16:33:00Z</time>
      </trkpt>
      <trkpt lat="49.0625" lon="7.78544">
        <ele>472.2</ele>
        <time>2022-04-17T16:33:07Z</time>
      </trkpt>
      <trkpt lat="49.06243" lon="7.78533">
        <ele>473</ele>
        <time>2022-04-17T16:33:15Z</time>
      </trkpt>
      <trkpt lat="49.06236" lon="7.78523">
        <ele>473.8</ele>
        <time>2022-04-17T16:33:24Z</time>
      </trkpt>
      <trkpt lat="49.06228" lon="7.78513">
        <ele>474.6</ele>
        <time>2022-04-17T16:33:33Z</time>
      </trkpt>
      <trkpt lat="49.0622" lon="7.78505">
        <ele>475.4</ele>
        <time>2022-04-17T16:33:41Z</time>
      </trkpt>
      <trkpt lat="49.06213" lon="7.78496">
        <ele>476.3</ele>
        <time>2022-04-17T16:33:49Z</time>
      </trkpt>
      <trkpt lat="49.06206" lon="7.78487">
        <ele>477.1</ele>
        <time>2022-04-17T16:33:58Z</time>
      </trkpt>
      <trkpt lat="49.06198" lon="7.78479">
        <ele>477.9</ele>
        <time>2022-04-17T16:34:06Z</time>
      </trkpt>
      <trkpt lat="49.06191" lon="7.7847">
        <ele>478.7</ele>
        <time>2022-04-17T16:34:15Z</time>
      </trkpt>
      <trkpt lat="49.06183" lon="7.7846">
        <ele>479.6</ele>
        <time>2022-04-17T16:34:26Z</time>
      </trkpt>
      <trkpt lat="49.06176" lon="7.78451">
        <ele>480.4</ele>
        <time>2022-04-17T16:34:34Z</time>
      </trkpt>
      <trkpt lat="49.06169" lon="7.78439">
        <ele>481.1</ele>
        <time>2022-04-17T16:34:42Z</time>
      </trkpt>
      <trkpt lat="49.06164" lon="7.78427">
        <ele>481.9</ele>
        <time>2022-04-17T16:34:50Z</time>
      </trkpt>
      <trkpt lat="49.06157" lon="7.78417">
        <ele>482.6</ele>
        <time>2022-04-17T16:34:58Z</time>
      </trkpt>
      <trkpt lat="49.06151" lon="7.78405">
        <ele>483.5</ele>
        <time>2022-04-17T16:35:06Z</time>
      </trkpt>
      <trkpt lat="49.06148" lon="7.78392">
        <ele>484.2</ele>
        <time>2022-04-17T16:35:16Z</time>
      </trkpt>
      <trkpt lat="49.06145" lon="7.78378">
        <ele>485.1</ele>
        <time>2022-04-17T16:35:25Z</time>
      </trkpt>
      <trkpt lat="49.06144" lon="7.78363">
        <ele>486</ele>
        <time>2022-04-17T16:35:34Z</time>
      </trkpt>
      <trkpt lat="49.06142" lon="7.78349">
        <ele>486.9</ele>
        <time>2022-04-17T16:35:42Z</time>
      </trkpt>
      <trkpt lat="49.06141" lon="7.78334">
        <ele>487.8</ele>
        <time>2022-04-17T16:35:51Z</time>
      </trkpt>
      <trkpt lat="49.06142" lon="7.78319">
        <ele>488.6</ele>
        <time>2022-04-17T16:36:00Z</time>
      </trkpt>
      <trkpt lat="49.06135" lon="7.7831">
        <ele>489.4</ele>
        <time>2022-04-17T16:36:07Z</time>
      </trkpt>
      <trkpt lat="49.06133" lon="7.78296">
        <ele>490.1</ele>
        <time>2022-04-17T16:36:15Z</time>
      </trkpt>
      <trkpt lat="49.06124" lon="7.78286">
        <ele>491</ele>
        <time>2022-04-17T16:36:22Z</time>
      </trkpt>
      <trkpt lat="49.06118" lon="7.78274">
        <ele>491.9</ele>
        <time>2022-04-17T16:36:30Z</time>
      </trkpt>
      <trkpt lat="49.06117" lon="7.7826">
        <ele>492.7</ele>
        <time>2022-04-17T16:36:38Z</time>
      </trkpt>
      <trkpt lat="49.06116" lon="7.78246">
        <ele>493.5</ele>
        <time>2022-04-17T16:36:46Z</time>
      </trkpt>
      <trkpt lat="49.06112" lon="7.78233">
        <ele>494.3</ele>
        <time>2022-04-17T16:36:55Z</time>
      </trkpt>
      <trkpt lat="49.0611" lon="7.78219">
        <ele>495.1</ele>
        <time>2022-04-17T16:37:03Z</time>
      </trkpt>
      <trkpt lat="49.06104" lon="7.78208">
        <ele>496</ele>
        <time>2022-04-17T16:37:11Z</time>
      </trkpt>
      <trkpt lat="49.06101" lon="7.78198">
        <ele>496.8</ele>
        <time>2022-04-17T16:37:22Z</time>
      </trkpt>
      <trkpt lat="49.06101" lon="7.78198">
        <ele>496.8</ele>
        <time>2022-04-17T16:37:24Z</time>
      </trkpt>
      <trkpt lat="49.06099" lon="7.78197">
        <ele>496.9</ele>
        <time>2022-04-17T16:37:28Z</time>
      </trkpt>
      <trkpt lat="49.06099" lon="7.78197">
        <ele>497</ele>
        <time>2022-04-17T16:37:29Z</time>
      </trkpt>
      <trkpt lat="49.06099" lon="7.78195">
        <ele>497.1</ele>
        <time>2022-04-17T16:37:37Z</time>
      </trkpt>
      <trkpt lat="49.06099" lon="7.78195">
        <ele>497.1</ele>
        <time>2022-04-17T16:37:40Z</time>
      </trkpt>
      <trkpt lat="49.06099" lon="7.78195">
        <ele>497.1</ele>
        <time>2022-04-17T16:37:41Z</time>
      </trkpt>
      <trkpt lat="49.06099" lon="7.78196">
        <ele>497.2</ele>
        <time>2022-04-17T16:37:47Z</time>
      </trkpt>
      <trkpt lat="49.0609" lon="7.78202">
        <ele>498</ele>
        <time>2022-04-17T16:37:58Z</time>
      </trkpt>
      <trkpt lat="49.06081" lon="7.7821">
        <ele>489.2</ele>
        <time>2022-04-17T16:38:06Z</time>
      </trkpt>
      <trkpt lat="49.06075" lon="7.78221">
        <ele>489.8</ele>
        <time>2022-04-17T16:38:17Z</time>
      </trkpt>
      <trkpt lat="49.06067" lon="7.78229">
        <ele>490.4</ele>
        <time>2022-04-17T16:38:26Z</time>
      </trkpt>
      <trkpt lat="49.06059" lon="7.78237">
        <ele>490.9</ele>
        <time>2022-04-17T16:38:34Z</time>
      </trkpt>
      <trkpt lat="49.06051" lon="7.78243">
        <ele>491.1</ele>
        <time>2022-04-17T16:38:41Z</time>
      </trkpt>
      <trkpt lat="49.06042" lon="7.7825">
        <ele>491.2</ele>
        <time>2022-04-17T16:38:51Z</time>
      </trkpt>
      <trkpt lat="49.06033" lon="7.78254">
        <ele>491.2</ele>
        <time>2022-04-17T16:38:59Z</time>
      </trkpt>
      <trkpt lat="49.06024" lon="7.78258">
        <ele>491.2</ele>
        <time>2022-04-17T16:39:07Z</time>
      </trkpt>
      <trkpt lat="49.06016" lon="7.78266">
        <ele>491.2</ele>
        <time>2022-04-17T16:39:15Z</time>
      </trkpt>
      <trkpt lat="49.06007" lon="7.78272">
        <ele>491.4</ele>
        <time>2022-04-17T16:39:23Z</time>
      </trkpt>
      <trkpt lat="49.05998" lon="7.78279">
        <ele>491.6</ele>
        <time>2022-04-17T16:39:32Z</time>
      </trkpt>
      <trkpt lat="49.0599" lon="7.78286">
        <ele>491.9</ele>
        <time>2022-04-17T16:39:41Z</time>
      </trkpt>
      <trkpt lat="49.05981" lon="7.78291">
        <ele>492.2</ele>
        <time>2022-04-17T16:39:50Z</time>
      </trkpt>
      <trkpt lat="49.05971" lon="7.78294">
        <ele>492.5</ele>
        <time>2022-04-17T16:39:58Z</time>
      </trkpt>
      <trkpt lat="49.05962" lon="7.78297">
        <ele>492.8</ele>
        <time>2022-04-17T16:40:05Z</time>
      </trkpt>
      <trkpt lat="49.05953" lon="7.78305">
        <ele>493.2</ele>
        <time>2022-04-17T16:40:14Z</time>
      </trkpt>
      <trkpt lat="49.05945" lon="7.7831">
        <ele>493.5</ele>
        <time>2022-04-17T16:40:23Z</time>
      </trkpt>
      <trkpt lat="49.05936" lon="7.78315">
        <ele>493.8</ele>
        <time>2022-04-17T16:40:32Z</time>
      </trkpt>
      <trkpt lat="49.05927" lon="7.7832">
        <ele>494.4</ele>
        <time>2022-04-17T16:40:40Z</time>
      </trkpt>
      <trkpt lat="49.05918" lon="7.78324">
        <ele>494.9</ele>
        <time>2022-04-17T16:40:47Z</time>
      </trkpt>
      <trkpt lat="49.0591" lon="7.78331">
        <ele>495.6</ele>
        <time>2022-04-17T16:40:55Z</time>
      </trkpt>
      <trkpt lat="49.059" lon="7.78337">
        <ele>496.3</ele>
        <time>2022-04-17T16:41:03Z</time>
      </trkpt>
      <trkpt lat="49.05891" lon="7.7834">
        <ele>497.1</ele>
        <time>2022-04-17T16:41:13Z</time>
      </trkpt>
      <trkpt lat="49.05882" lon="7.78346">
        <ele>497.9</ele>
        <time>2022-04-17T16:41:21Z</time>
      </trkpt>
      <trkpt lat="49.05873" lon="7.78348">
        <ele>498.6</ele>
        <time>2022-04-17T16:41:28Z</time>
      </trkpt>
      <trkpt lat="49.05863" lon="7.78351">
        <ele>499.3</ele>
        <time>2022-04-17T16:41:36Z</time>
      </trkpt>
      <trkpt lat="49.05854" lon="7.78353">
        <ele>499.9</ele>
        <time>2022-04-17T16:41:44Z</time>
      </trkpt>
      <trkpt lat="49.05845" lon="7.78358">
        <ele>500.3</ele>
        <time>2022-04-17T16:41:52Z</time>
      </trkpt>
      <trkpt lat="49.05838" lon="7.78368">
        <ele>500.7</ele>
        <time>2022-04-17T16:42:02Z</time>
      </trkpt>
      <trkpt lat="49.05837" lon="7.78378">
        <ele>501</ele>
        <time>2022-04-17T16:42:10Z</time>
      </trkpt>
      <trkpt lat="49.05838" lon="7.78378">
        <ele>501</ele>
        <time>2022-04-17T16:42:23Z</time>
      </trkpt>
      <trkpt lat="49.05843" lon="7.78383">
        <ele>501.3</ele>
        <time>2022-04-17T16:42:39Z</time>
      </trkpt>
      <trkpt lat="49.05843" lon="7.78383">
        <ele>501.3</ele>
        <time>2022-04-17T16:42:40Z</time>
      </trkpt>
      <trkpt lat="49.05844" lon="7.78382">
        <ele>501.2</ele>
        <time>2022-04-17T16:42:44Z</time>
      </trkpt>
      <trkpt lat="49.05844" lon="7.78381">
        <ele>501.2</ele>
        <time>2022-04-17T16:42:47Z</time>
      </trkpt>
      <trkpt lat="49.05845" lon="7.78381">
        <ele>501.2</ele>
        <time>2022-04-17T16:43:01Z</time>
      </trkpt>
      <trkpt lat="49.05845" lon="7.78382">
        <ele>501.2</ele>
        <time>2022-04-17T16:43:11Z</time>
      </trkpt>
      <trkpt lat="49.05845" lon="7.78382">
        <ele>501.2</ele>
        <time>2022-04-17T16:43:12Z</time>
      </trkpt>
      <trkpt lat="49.05845" lon="7.78382">
        <ele>501.1</ele>
        <time>2022-04-17T16:43:40Z</time>
      </trkpt>
      <trkpt lat="49.05845" lon="7.78381">
        <ele>501.1</ele>
        <time>2022-04-17T16:43:42Z</time>
      </trkpt>
      <trkpt lat="49.05845" lon="7.78382">
        <ele>501.1</ele>
        <time>2022-04-17T16:45:05Z</time>
      </trkpt>
      <trkpt lat="49.05845" lon="7.78382">
        <ele>501.1</ele>
        <time>2022-04-17T16:45:06Z</time>
      </trkpt>
      <trkpt lat="49.05845" lon="7.78382">
        <ele>501.1</ele>
        <time>2022-04-17T16:45:08Z</time>
      </trkpt>
      <trkpt lat="49.05845" lon="7.78383">
        <ele>501.1</ele>
        <time>2022-04-17T16:45:10Z</time>
      </trkpt>
      <trkpt lat="49.05845" lon="7.78383">
        <ele>501.1</ele>
        <time>2022-04-17T16:45:32Z</time>
      </trkpt>
      <trkpt lat="49.05845" lon="7.78383">
        <ele>501.1</ele>
        <time>2022-04-17T16:45:33Z</time>
      </trkpt>
      <trkpt lat="49.05845" lon="7.78383">
        <ele>501.1</ele>
        <time>2022-04-17T16:45:38Z</time>
      </trkpt>
      <trkpt lat="49.05845" lon="7.78383">
        <ele>501.1</ele>
        <time>2022-04-17T16:45:39Z</time>
      </trkpt>
      <trkpt lat="49.05845" lon="7.78382">
        <ele>501</ele>
        <time>2022-04-17T16:45:43Z</time>
      </trkpt>
      <trkpt lat="49.05845" lon="7.78382">
        <ele>501</ele>
        <time>2022-04-17T16:45:44Z</time>
      </trkpt>
      <trkpt lat="49.05845" lon="7.78382">
        <ele>501</ele>
        <time>2022-04-17T16:45:48Z</time>
      </trkpt>
      <trkpt lat="49.05845" lon="7.78382">
        <ele>501</ele>
        <time>2022-04-17T16:45:49Z</time>
      </trkpt>
      <trkpt lat="49.05845" lon="7.78382">
        <ele>501</ele>
        <time>2022-04-17T16:46:25Z</time>
      </trkpt>
      <trkpt lat="49.05845" lon="7.78382">
        <ele>501</ele>
        <time>2022-04-17T16:46:26Z</time>
      </trkpt>
      <trkpt lat="49.05845" lon="7.78382">
        <ele>501</ele>
        <time>2022-04-17T16:46:33Z</time>
      </trkpt>
      <trkpt lat="49.05844" lon="7.78383">
        <ele>501</ele>
        <time>2022-04-17T16:46:35Z</time>
      </trkpt>
      <trkpt lat="49.05844" lon="7.78383">
        <ele>501</ele>
        <time>2022-04-17T16:46:36Z</time>
      </trkpt>
      <trkpt lat="49.05844" lon="7.78383">
        <ele>501</ele>
        <time>2022-04-17T16:46:37Z</time>
      </trkpt>
      <trkpt lat="49.05843" lon="7.78383">
        <ele>500.9</ele>
        <time>2022-04-17T16:46:38Z</time>
      </trkpt>
      <trkpt lat="49.05843" lon="7.78383">
        <ele>500.9</ele>
        <time>2022-04-17T16:46:39Z</time>
      </trkpt>
      <trkpt lat="49.05843" lon="7.78383">
        <ele>500.9</ele>
        <time>2022-04-17T16:47:01Z</time>
      </trkpt>
      <trkpt lat="49.05843" lon="7.78383">
        <ele>500.9</ele>
        <time>2022-04-17T16:47:02Z</time>
      </trkpt>
      <trkpt lat="49.05843" lon="7.78383">
        <ele>500.9</ele>
        <time>2022-04-17T16:48:05Z</time>
      </trkpt>
      <trkpt lat="49.05843" lon="7.78383">
        <ele>500.9</ele>
        <time>2022-04-17T16:48:06Z</time>
      </trkpt>
      <trkpt lat="49.05844" lon="7.78383">
        <ele>500.9</ele>
        <time>2022-04-17T16:49:22Z</time>
      </trkpt>
      <trkpt lat="49.05844" lon="7.78383">
        <ele>500.9</ele>
        <time>2022-04-17T16:49:23Z</time>
      </trkpt>
      <trkpt lat="49.05843" lon="7.78384">
        <ele>500.9</ele>
        <time>2022-04-17T16:49:54Z</time>
      </trkpt>
      <trkpt lat="49.05843" lon="7.78384">
        <ele>500.9</ele>
        <time>2022-04-17T16:49:55Z</time>
      </trkpt>
      <trkpt lat="49.05844" lon="7.78384">
        <ele>500.9</ele>
        <time>2022-04-17T16:50:13Z</time>
      </trkpt>
      <trkpt lat="49.05844" lon="7.78384">
        <ele>500.9</ele>
        <time>2022-04-17T16:50:14Z</time>
      </trkpt>
      <trkpt lat="49.05843" lon="7.78384">
        <ele>500.9</ele>
        <time>2022-04-17T16:50:28Z</time>
      </trkpt>
      <trkpt lat="49.05843" lon="7.78384">
        <ele>500.9</ele>
        <time>2022-04-17T16:50:29Z</time>
      </trkpt>
      <trkpt lat="49.05844" lon="7.78384">
        <ele>500.9</ele>
        <time>2022-04-17T16:51:07Z</time>
      </trkpt>
      <trkpt lat="49.05844" lon="7.78384">
        <ele>500.9</ele>
        <time>2022-04-17T16:51:08Z</time>
      </trkpt>
      <trkpt lat="49.05844" lon="7.78384">
        <ele>500.9</ele>
        <time>2022-04-17T16:51:44Z</time>
      </trkpt>
      <trkpt lat="49.05844" lon="7.78384">
        <ele>500.9</ele>
        <time>2022-04-17T16:51:45Z</time>
      </trkpt>
      <trkpt lat="49.05844" lon="7.78384">
        <ele>500.9</ele>
        <time>2022-04-17T16:52:07Z</time>
      </trkpt>
      <trkpt lat="49.05844" lon="7.78384">
        <ele>500.9</ele>
        <time>2022-04-17T16:52:08Z</time>
      </trkpt>
      <trkpt lat="49.05844" lon="7.78384">
        <ele>500.9</ele>
        <time>2022-04-17T16:53:05Z</time>
      </trkpt>
      <trkpt lat="49.05844" lon="7.78384">
        <ele>500.9</ele>
        <time>2022-04-17T16:53:06Z</time>
      </trkpt>
      <trkpt lat="49.05844" lon="7.78384">
        <ele>500.9</ele>
        <time>2022-04-17T16:53:39Z</time>
      </trkpt>
      <trkpt lat="49.05844" lon="7.78384">
        <ele>500.9</ele>
        <time>2022-04-17T16:53:40Z</time>
      </trkpt>
      <trkpt lat="49.05844" lon="7.78384">
        <ele>500.8</ele>
        <time>2022-04-17T16:55:16Z</time>
      </trkpt>
      <trkpt lat="49.05844" lon="7.78384">
        <ele>500.8</ele>
        <time>2022-04-17T16:55:17Z</time>
      </trkpt>
      <trkpt lat="49.05844" lon="7.78384">
        <ele>500.8</ele>
        <time>2022-04-17T16:56:16Z</time>
      </trkpt>
      <trkpt lat="49.05844" lon="7.78384">
        <ele>500.8</ele>
        <time>2022-04-17T16:56:17Z</time>
      </trkpt>
      <trkpt lat="49.05844" lon="7.78384">
        <ele>500.8</ele>
        <time>2022-04-17T16:56:18Z</time>
      </trkpt>
      <trkpt lat="49.05843" lon="7.78383">
        <ele>500.8</ele>
        <time>2022-04-17T16:56:22Z</time>
      </trkpt>
      <trkpt lat="49.05846" lon="7.78378">
        <ele>500.6</ele>
        <time>2022-04-18T07:11:26Z</time>
      </trkpt>
      <trkpt lat="49.05846" lon="7.78381">
        <ele>500.5</ele>
        <time>2022-04-18T07:11:31Z</time>
      </trkpt>
      <trkpt lat="49.05845" lon="7.78381">
        <ele>500.5</ele>
        <time>2022-04-18T07:11:32Z</time>
      </trkpt>
      <trkpt lat="49.05845" lon="7.78381">
        <ele>500.5</ele>
        <time>2022-04-18T07:11:33Z</time>
      </trkpt>
      <trkpt lat="49.05846" lon="7.78381">
        <ele>500.5</ele>
        <time>2022-04-18T07:11:34Z</time>
      </trkpt>
      <trkpt lat="49.05846" lon="7.78377">
        <ele>500.4</ele>
        <time>2022-04-18T07:11:41Z</time>
      </trkpt>
      <trkpt lat="49.05846" lon="7.78377">
        <ele>500.4</ele>
        <time>2022-04-18T07:11:42Z</time>
      </trkpt>
      <trkpt lat="49.05843" lon="7.78383">
        <ele>500.3</ele>
        <time>2022-04-18T07:11:56Z</time>
      </trkpt>
      <trkpt lat="49.05843" lon="7.78384">
        <ele>500.3</ele>
        <time>2022-04-18T07:11:57Z</time>
      </trkpt>
      <trkpt lat="49.05842" lon="7.78379">
        <ele>500.2</ele>
        <time>2022-04-18T07:12:28Z</time>
      </trkpt>
      <trkpt lat="49.05842" lon="7.78379">
        <ele>500.2</ele>
        <time>2022-04-18T07:12:29Z</time>
      </trkpt>
      <trkpt lat="49.05835" lon="7.78387">
        <ele>500.1</ele>
        <time>2022-04-18T07:13:24Z</time>
      </trkpt>
      <trkpt lat="49.05825" lon="7.78389">
        <ele>500.1</ele>
        <time>2022-04-18T07:13:31Z</time>
      </trkpt>
      <trkpt lat="49.05816" lon="7.78391">
        <ele>500.1</ele>
        <time>2022-04-18T07:13:40Z</time>
      </trkpt>
      <trkpt lat="49.05807" lon="7.78392">
        <ele>500.3</ele>
        <time>2022-04-18T07:13:47Z</time>
      </trkpt>
      <trkpt lat="49.05797" lon="7.78391">
        <ele>500.3</ele>
        <time>2022-04-18T07:13:55Z</time>
      </trkpt>
      <trkpt lat="49.05788" lon="7.78391">
        <ele>500.3</ele>
        <time>2022-04-18T07:14:03Z</time>
      </trkpt>
      <trkpt lat="49.05778" lon="7.7839">
        <ele>500.3</ele>
        <time>2022-04-18T07:14:12Z</time>
      </trkpt>
      <trkpt lat="49.05768" lon="7.78388">
        <ele>500.2</ele>
        <time>2022-04-18T07:14:19Z</time>
      </trkpt>
      <trkpt lat="49.05758" lon="7.78385">
        <ele>500.3</ele>
        <time>2022-04-18T07:14:28Z</time>
      </trkpt>
      <trkpt lat="49.05748" lon="7.78385">
        <ele>500.5</ele>
        <time>2022-04-18T07:14:35Z</time>
      </trkpt>
      <trkpt lat="49.05739" lon="7.78382">
        <ele>500.8</ele>
        <time>2022-04-18T07:14:41Z</time>
      </trkpt>
      <trkpt lat="49.05731" lon="7.78378">
        <ele>501.4</ele>
        <time>2022-04-18T07:14:49Z</time>
      </trkpt>
      <trkpt lat="49.05725" lon="7.78378">
        <ele>501.8</ele>
        <time>2022-04-18T07:14:57Z</time>
      </trkpt>
      <trkpt lat="49.05725" lon="7.78378">
        <ele>501.8</ele>
        <time>2022-04-18T07:14:58Z</time>
      </trkpt>
      <trkpt lat="49.05727" lon="7.78379">
        <ele>501.9</ele>
        <time>2022-04-18T07:15:02Z</time>
      </trkpt>
      <trkpt lat="49.05726" lon="7.78379">
        <ele>502</ele>
        <time>2022-04-18T07:15:03Z</time>
      </trkpt>
      <trkpt lat="49.05717" lon="7.78379">
        <ele>502.6</ele>
        <time>2022-04-18T07:15:12Z</time>
      </trkpt>
      <trkpt lat="49.05708" lon="7.78374">
        <ele>503.2</ele>
        <time>2022-04-18T07:15:23Z</time>
      </trkpt>
      <trkpt lat="49.05699" lon="7.78368">
        <ele>504.6</ele>
        <time>2022-04-18T07:15:42Z</time>
      </trkpt>
      <trkpt lat="49.05691" lon="7.78362">
        <ele>506.1</ele>
        <time>2022-04-18T07:15:54Z</time>
      </trkpt>
      <trkpt lat="49.05682" lon="7.78355">
        <ele>507.6</ele>
        <time>2022-04-18T07:16:02Z</time>
      </trkpt>
      <trkpt lat="49.05672" lon="7.78354">
        <ele>509.2</ele>
        <time>2022-04-18T07:16:12Z</time>
      </trkpt>
      <trkpt lat="49.05664" lon="7.78349">
        <ele>510.7</ele>
        <time>2022-04-18T07:16:20Z</time>
      </trkpt>
      <trkpt lat="49.05654" lon="7.7835">
        <ele>512.6</ele>
        <time>2022-04-18T07:16:29Z</time>
      </trkpt>
      <trkpt lat="49.05644" lon="7.78345">
        <ele>514.6</ele>
        <time>2022-04-18T07:16:47Z</time>
      </trkpt>
      <trkpt lat="49.05636" lon="7.78349">
        <ele>516.5</ele>
        <time>2022-04-18T07:16:59Z</time>
      </trkpt>
      <trkpt lat="49.05626" lon="7.78349">
        <ele>518.5</ele>
        <time>2022-04-18T07:17:10Z</time>
      </trkpt>
      <trkpt lat="49.05617" lon="7.78353">
        <ele>520.3</ele>
        <time>2022-04-18T07:17:21Z</time>
      </trkpt>
      <trkpt lat="49.05608" lon="7.78353">
        <ele>522.1</ele>
        <time>2022-04-18T07:17:37Z</time>
      </trkpt>
      <trkpt lat="49.05599" lon="7.7835">
        <ele>523.9</ele>
        <time>2022-04-18T07:17:48Z</time>
      </trkpt>
      <trkpt lat="49.0559" lon="7.78344">
        <ele>526</ele>
        <time>2022-04-18T07:17:56Z</time>
      </trkpt>
      <trkpt lat="49.05581" lon="7.78342">
        <ele>528</ele>
        <time>2022-04-18T07:18:08Z</time>
      </trkpt>
      <trkpt lat="49.05571" lon="7.78341">
        <ele>530</ele>
        <time>2022-04-18T07:18:20Z</time>
      </trkpt>
      <trkpt lat="49.05561" lon="7.7834">
        <ele>531.7</ele>
        <time>2022-04-18T07:18:31Z</time>
      </trkpt>
      <trkpt lat="49.05552" lon="7.7834">
        <ele>533.1</ele>
        <time>2022-04-18T07:18:43Z</time>
      </trkpt>
      <trkpt lat="49.05542" lon="7.78338">
        <ele>533.9</ele>
        <time>2022-04-18T07:19:00Z</time>
      </trkpt>
      <trkpt lat="49.05532" lon="7.78339">
        <ele>534.2</ele>
        <time>2022-04-18T07:19:13Z</time>
      </trkpt>
      <trkpt lat="49.05523" lon="7.7834">
        <ele>534.5</ele>
        <time>2022-04-18T07:19:32Z</time>
      </trkpt>
      <trkpt lat="49.05519" lon="7.78343">
        <ele>534.6</ele>
        <time>2022-04-18T07:19:40Z</time>
      </trkpt>
      <trkpt lat="49.05519" lon="7.78342">
        <ele>534.6</ele>
        <time>2022-04-18T07:19:41Z</time>
      </trkpt>
      <trkpt lat="49.05512" lon="7.78352">
        <ele>535</ele>
        <time>2022-04-18T07:19:53Z</time>
      </trkpt>
      <trkpt lat="49.05506" lon="7.78364">
        <ele>535.6</ele>
        <time>2022-04-18T07:20:02Z</time>
      </trkpt>
      <trkpt lat="49.05502" lon="7.78376">
        <ele>536.3</ele>
        <time>2022-04-18T07:20:11Z</time>
      </trkpt>
      <trkpt lat="49.05506" lon="7.78385">
        <ele>537</ele>
        <time>2022-04-18T07:20:20Z</time>
      </trkpt>
      <trkpt lat="49.05506" lon="7.78385">
        <ele>537</ele>
        <time>2022-04-18T07:20:23Z</time>
      </trkpt>
      <trkpt lat="49.05506" lon="7.78385">
        <ele>537</ele>
        <time>2022-04-18T07:20:26Z</time>
      </trkpt>
      <trkpt lat="49.05506" lon="7.78385">
        <ele>537</ele>
        <time>2022-04-18T07:21:03Z</time>
      </trkpt>
      <trkpt lat="49.05506" lon="7.78388">
        <ele>537.2</ele>
        <time>2022-04-18T07:21:08Z</time>
      </trkpt>
      <trkpt lat="49.05506" lon="7.78388">
        <ele>538.6</ele>
        <time>2022-04-18T07:21:09Z</time>
      </trkpt>
      <trkpt lat="49.05512" lon="7.78377">
        <ele>539.5</ele>
        <time>2022-04-18T07:21:44Z</time>
      </trkpt>
      <trkpt lat="49.0552" lon="7.78372">
        <ele>540.4</ele>
        <time>2022-04-18T07:21:54Z</time>
      </trkpt>
      <trkpt lat="49.05531" lon="7.78369">
        <ele>541.4</ele>
        <time>2022-04-18T07:22:12Z</time>
      </trkpt>
      <trkpt lat="49.05514" lon="7.7834">
        <ele>543.4</ele>
        <time>2022-04-18T07:22:37Z</time>
      </trkpt>
      <trkpt lat="49.05519" lon="7.78353">
        <ele>544.1</ele>
        <time>2022-04-18T07:22:39Z</time>
      </trkpt>
      <trkpt lat="49.05523" lon="7.78366">
        <ele>544.7</ele>
        <time>2022-04-18T07:22:40Z</time>
      </trkpt>
      <trkpt lat="49.05532" lon="7.78372">
        <ele>545.4</ele>
        <time>2022-04-18T07:22:49Z</time>
      </trkpt>
      <trkpt lat="49.05541" lon="7.78374">
        <ele>546.3</ele>
        <time>2022-04-18T07:23:06Z</time>
      </trkpt>
      <trkpt lat="49.05535" lon="7.78384">
        <ele>530.6</ele>
        <time>2022-04-18T07:23:31Z</time>
      </trkpt>
      <trkpt lat="49.05533" lon="7.78383">
        <ele>531</ele>
        <time>2022-04-18T07:23:37Z</time>
      </trkpt>
      <trkpt lat="49.05533" lon="7.78383">
        <ele>531</ele>
        <time>2022-04-18T07:23:39Z</time>
      </trkpt>
      <trkpt lat="49.05533" lon="7.78383">
        <ele>531</ele>
        <time>2022-04-18T07:23:40Z</time>
      </trkpt>
      <trkpt lat="49.05533" lon="7.78383">
        <ele>531</ele>
        <time>2022-04-18T07:23:50Z</time>
      </trkpt>
      <trkpt lat="49.05532" lon="7.78382">
        <ele>531.1</ele>
        <time>2022-04-18T07:23:52Z</time>
      </trkpt>
      <trkpt lat="49.05533" lon="7.78382">
        <ele>531.1</ele>
        <time>2022-04-18T07:24:01Z</time>
      </trkpt>
      <trkpt lat="49.0553" lon="7.78388">
        <ele>531.9</ele>
        <time>2022-04-18T07:24:11Z</time>
      </trkpt>
      <trkpt lat="49.0553" lon="7.78388">
        <ele>532</ele>
        <time>2022-04-18T07:24:12Z</time>
      </trkpt>
      <trkpt lat="49.0553" lon="7.78388">
        <ele>532</ele>
        <time>2022-04-18T07:24:13Z</time>
      </trkpt>
      <trkpt lat="49.0553" lon="7.78387">
        <ele>532</ele>
        <time>2022-04-18T07:24:18Z</time>
      </trkpt>
      <trkpt lat="49.05529" lon="7.78387">
        <ele>532.2</ele>
        <time>2022-04-18T07:24:22Z</time>
      </trkpt>
      <trkpt lat="49.05529" lon="7.78388">
        <ele>532.1</ele>
        <time>2022-04-18T07:24:26Z</time>
      </trkpt>
      <trkpt lat="49.0553" lon="7.78393">
        <ele>532.2</ele>
        <time>2022-04-18T07:24:44Z</time>
      </trkpt>
      <trkpt lat="49.05531" lon="7.78394">
        <ele>532.2</ele>
        <time>2022-04-18T07:24:45Z</time>
      </trkpt>
      <trkpt lat="49.05537" lon="7.7839">
        <ele>532.5</ele>
        <time>2022-04-18T07:24:56Z</time>
      </trkpt>
      <trkpt lat="49.05537" lon="7.7839">
        <ele>532.5</ele>
        <time>2022-04-18T07:24:57Z</time>
      </trkpt>
      <trkpt lat="49.0554" lon="7.78392">
        <ele>532.6</ele>
        <time>2022-04-18T07:25:04Z</time>
      </trkpt>
      <trkpt lat="49.0554" lon="7.78392">
        <ele>532.6</ele>
        <time>2022-04-18T07:25:05Z</time>
      </trkpt>
      <trkpt lat="49.05533" lon="7.78404">
        <ele>533</ele>
        <time>2022-04-18T07:25:28Z</time>
      </trkpt>
      <trkpt lat="49.05538" lon="7.78393">
        <ele>530.2</ele>
        <time>2022-04-18T07:25:44Z</time>
      </trkpt>
      <trkpt lat="49.05539" lon="7.78391">
        <ele>530.3</ele>
        <time>2022-04-18T07:26:00Z</time>
      </trkpt>
      <trkpt lat="49.05539" lon="7.78391">
        <ele>530.3</ele>
        <time>2022-04-18T07:26:17Z</time>
      </trkpt>
      <trkpt lat="49.05539" lon="7.78391">
        <ele>530.3</ele>
        <time>2022-04-18T07:26:18Z</time>
      </trkpt>
      <trkpt lat="49.05539" lon="7.78391">
        <ele>530.3</ele>
        <time>2022-04-18T07:26:25Z</time>
      </trkpt>
      <trkpt lat="49.05539" lon="7.78391">
        <ele>530.3</ele>
        <time>2022-04-18T07:26:26Z</time>
      </trkpt>
      <trkpt lat="49.05539" lon="7.78391">
        <ele>530.3</ele>
        <time>2022-04-18T07:26:33Z</time>
      </trkpt>
      <trkpt lat="49.05539" lon="7.7839">
        <ele>530.3</ele>
        <time>2022-04-18T07:26:35Z</time>
      </trkpt>
      <trkpt lat="49.05539" lon="7.78391">
        <ele>530.3</ele>
        <time>2022-04-18T07:26:51Z</time>
      </trkpt>
      <trkpt lat="49.05539" lon="7.78391">
        <ele>530.3</ele>
        <time>2022-04-18T07:26:52Z</time>
      </trkpt>
      <trkpt lat="49.05539" lon="7.78391">
        <ele>530.3</ele>
        <time>2022-04-18T07:26:56Z</time>
      </trkpt>
      <trkpt lat="49.05539" lon="7.78392">
        <ele>530.3</ele>
        <time>2022-04-18T07:27:00Z</time>
      </trkpt>
      <trkpt lat="49.0554" lon="7.78392">
        <ele>530.3</ele>
        <time>2022-04-18T07:27:34Z</time>
      </trkpt>
      <trkpt lat="49.05539" lon="7.78392">
        <ele>530.3</ele>
        <time>2022-04-18T07:27:36Z</time>
      </trkpt>
      <trkpt lat="49.05539" lon="7.78393">
        <ele>530.3</ele>
        <time>2022-04-18T07:27:52Z</time>
      </trkpt>
      <trkpt lat="49.05539" lon="7.78393">
        <ele>530.3</ele>
        <time>2022-04-18T07:27:53Z</time>
      </trkpt>
      <trkpt lat="49.05539" lon="7.78393">
        <ele>530.3</ele>
        <time>2022-04-18T07:27:59Z</time>
      </trkpt>
      <trkpt lat="49.05539" lon="7.78393">
        <ele>530.3</ele>
        <time>2022-04-18T07:28:00Z</time>
      </trkpt>
      <trkpt lat="49.05539" lon="7.78393">
        <ele>530.3</ele>
        <time>2022-04-18T07:28:22Z</time>
      </trkpt>
      <trkpt lat="49.05539" lon="7.78393">
        <ele>530.3</ele>
        <time>2022-04-18T07:28:23Z</time>
      </trkpt>
      <trkpt lat="49.05539" lon="7.78393">
        <ele>530.3</ele>
        <time>2022-04-18T07:28:24Z</time>
      </trkpt>
      <trkpt lat="49.05539" lon="7.78393">
        <ele>530.3</ele>
        <time>2022-04-18T07:28:25Z</time>
      </trkpt>
      <trkpt lat="49.05539" lon="7.78393">
        <ele>530.3</ele>
        <time>2022-04-18T07:28:46Z</time>
      </trkpt>
      <trkpt lat="49.05539" lon="7.78394">
        <ele>530.4</ele>
        <time>2022-04-18T07:28:48Z</time>
      </trkpt>
      <trkpt lat="49.05539" lon="7.78394">
        <ele>530.4</ele>
        <time>2022-04-18T07:28:55Z</time>
      </trkpt>
      <trkpt lat="49.05539" lon="7.78394">
        <ele>530.4</ele>
        <time>2022-04-18T07:28:57Z</time>
      </trkpt>
      <trkpt lat="49.05539" lon="7.78394">
        <ele>530.4</ele>
        <time>2022-04-18T07:29:04Z</time>
      </trkpt>
      <trkpt lat="49.05539" lon="7.78394">
        <ele>530.4</ele>
        <time>2022-04-18T07:29:05Z</time>
      </trkpt>
      <trkpt lat="49.05539" lon="7.78394">
        <ele>530.4</ele>
        <time>2022-04-18T07:29:12Z</time>
      </trkpt>
      <trkpt lat="49.0554" lon="7.78396">
        <ele>530.4</ele>
        <time>2022-04-18T07:29:18Z</time>
      </trkpt>
      <trkpt lat="49.0554" lon="7.78396">
        <ele>530.4</ele>
        <time>2022-04-18T07:29:19Z</time>
      </trkpt>
      <trkpt lat="49.0554" lon="7.78398">
        <ele>530.4</ele>
        <time>2022-04-18T07:29:23Z</time>
      </trkpt>
      <trkpt lat="49.0554" lon="7.78398">
        <ele>530.4</ele>
        <time>2022-04-18T07:29:28Z</time>
      </trkpt>
      <trkpt lat="49.0554" lon="7.78398">
        <ele>530.4</ele>
        <time>2022-04-18T07:29:29Z</time>
      </trkpt>
      <trkpt lat="49.05539" lon="7.78398">
        <ele>530.4</ele>
        <time>2022-04-18T07:29:30Z</time>
      </trkpt>
      <trkpt lat="49.05539" lon="7.78398">
        <ele>530.4</ele>
        <time>2022-04-18T07:29:31Z</time>
      </trkpt>
      <trkpt lat="49.0554" lon="7.78398">
        <ele>530.4</ele>
        <time>2022-04-18T07:29:38Z</time>
      </trkpt>
      <trkpt lat="49.0554" lon="7.78398">
        <ele>530.4</ele>
        <time>2022-04-18T07:29:39Z</time>
      </trkpt>
      <trkpt lat="49.0554" lon="7.78397">
        <ele>530.4</ele>
        <time>2022-04-18T07:30:13Z</time>
      </trkpt>
      <trkpt lat="49.05538" lon="7.78396">
        <ele>530.5</ele>
        <time>2022-04-18T07:30:21Z</time>
      </trkpt>
      <trkpt lat="49.05538" lon="7.78396">
        <ele>530.5</ele>
        <time>2022-04-18T07:30:23Z</time>
      </trkpt>
      <trkpt lat="49.05538" lon="7.78396">
        <ele>530.5</ele>
        <time>2022-04-18T07:30:24Z</time>
      </trkpt>
      <trkpt lat="49.05538" lon="7.78396">
        <ele>530.5</ele>
        <time>2022-04-18T07:30:47Z</time>
      </trkpt>
      <trkpt lat="49.05538" lon="7.78396">
        <ele>530.5</ele>
        <time>2022-04-18T07:30:49Z</time>
      </trkpt>
      <trkpt lat="49.05538" lon="7.78396">
        <ele>530.5</ele>
        <time>2022-04-18T07:30:50Z</time>
      </trkpt>
      <trkpt lat="49.05537" lon="7.78397">
        <ele>530.5</ele>
        <time>2022-04-18T07:30:56Z</time>
      </trkpt>
      <trkpt lat="49.05537" lon="7.78397">
        <ele>530.5</ele>
        <time>2022-04-18T07:30:58Z</time>
      </trkpt>
      <trkpt lat="49.05537" lon="7.78396">
        <ele>530.5</ele>
        <time>2022-04-18T07:31:01Z</time>
      </trkpt>
      <trkpt lat="49.05537" lon="7.78397">
        <ele>530.5</ele>
        <time>2022-04-18T07:31:27Z</time>
      </trkpt>
      <trkpt lat="49.05537" lon="7.78397">
        <ele>530.6</ele>
        <time>2022-04-18T07:31:28Z</time>
      </trkpt>
      <trkpt lat="49.05537" lon="7.78397">
        <ele>530.6</ele>
        <time>2022-04-18T07:31:29Z</time>
      </trkpt>
      <trkpt lat="49.05537" lon="7.78397">
        <ele>530.6</ele>
        <time>2022-04-18T07:31:31Z</time>
      </trkpt>
      <trkpt lat="49.05537" lon="7.78397">
        <ele>530.6</ele>
        <time>2022-04-18T07:31:33Z</time>
      </trkpt>
      <trkpt lat="49.05536" lon="7.78399">
        <ele>530.6</ele>
        <time>2022-04-18T07:31:45Z</time>
      </trkpt>
      <trkpt lat="49.05536" lon="7.78399">
        <ele>530.6</ele>
        <time>2022-04-18T07:31:46Z</time>
      </trkpt>
      <trkpt lat="49.05536" lon="7.78399">
        <ele>530.6</ele>
        <time>2022-04-18T07:31:47Z</time>
      </trkpt>
      <trkpt lat="49.05536" lon="7.78399">
        <ele>530.6</ele>
        <time>2022-04-18T07:31:56Z</time>
      </trkpt>
      <trkpt lat="49.05536" lon="7.78399">
        <ele>530.6</ele>
        <time>2022-04-18T07:31:57Z</time>
      </trkpt>
      <trkpt lat="49.05537" lon="7.78398">
        <ele>530.6</ele>
        <time>2022-04-18T07:32:20Z</time>
      </trkpt>
      <trkpt lat="49.05537" lon="7.78398">
        <ele>530.6</ele>
        <time>2022-04-18T07:32:22Z</time>
      </trkpt>
      <trkpt lat="49.05537" lon="7.78398">
        <ele>530.6</ele>
        <time>2022-04-18T07:32:57Z</time>
      </trkpt>
      <trkpt lat="49.05537" lon="7.78398">
        <ele>530.6</ele>
        <time>2022-04-18T07:32:58Z</time>
      </trkpt>
      <trkpt lat="49.05538" lon="7.78397">
        <ele>530.7</ele>
        <time>2022-04-18T07:33:05Z</time>
      </trkpt>
      <trkpt lat="49.05538" lon="7.78396">
        <ele>530.7</ele>
        <time>2022-04-18T07:33:08Z</time>
      </trkpt>
      <trkpt lat="49.05537" lon="7.78396">
        <ele>530.7</ele>
        <time>2022-04-18T07:33:09Z</time>
      </trkpt>
      <trkpt lat="49.05537" lon="7.78396">
        <ele>530.7</ele>
        <time>2022-04-18T07:33:10Z</time>
      </trkpt>
      <trkpt lat="49.05537" lon="7.78396">
        <ele>530.7</ele>
        <time>2022-04-18T07:33:13Z</time>
      </trkpt>
      <trkpt lat="49.05537" lon="7.78396">
        <ele>530.7</ele>
        <time>2022-04-18T07:33:14Z</time>
      </trkpt>
      <trkpt lat="49.05537" lon="7.78396">
        <ele>530.7</ele>
        <time>2022-04-18T07:33:15Z</time>
      </trkpt>
      <trkpt lat="49.05537" lon="7.78396">
        <ele>530.7</ele>
        <time>2022-04-18T07:33:16Z</time>
      </trkpt>
      <trkpt lat="49.05537" lon="7.78396">
        <ele>530.7</ele>
        <time>2022-04-18T07:33:18Z</time>
      </trkpt>
      <trkpt lat="49.05538" lon="7.78396">
        <ele>530.7</ele>
        <time>2022-04-18T07:33:20Z</time>
      </trkpt>
      <trkpt lat="49.05538" lon="7.78395">
        <ele>530.7</ele>
        <time>2022-04-18T07:33:29Z</time>
      </trkpt>
      <trkpt lat="49.05538" lon="7.78395">
        <ele>530.7</ele>
        <time>2022-04-18T07:33:32Z</time>
      </trkpt>
      <trkpt lat="49.05538" lon="7.78395">
        <ele>530.7</ele>
        <time>2022-04-18T07:33:35Z</time>
      </trkpt>
      <trkpt lat="49.05538" lon="7.78395">
        <ele>530.7</ele>
        <time>2022-04-18T07:33:36Z</time>
      </trkpt>
      <trkpt lat="49.05538" lon="7.78395">
        <ele>530.7</ele>
        <time>2022-04-18T07:33:39Z</time>
      </trkpt>
      <trkpt lat="49.05538" lon="7.78395">
        <ele>530.7</ele>
        <time>2022-04-18T07:33:42Z</time>
      </trkpt>
      <trkpt lat="49.05538" lon="7.78395">
        <ele>530.7</ele>
        <time>2022-04-18T07:33:44Z</time>
      </trkpt>
      <trkpt lat="49.05538" lon="7.78394">
        <ele>530.7</ele>
        <time>2022-04-18T07:33:47Z</time>
      </trkpt>
      <trkpt lat="49.05539" lon="7.78393">
        <ele>530.8</ele>
        <time>2022-04-18T07:33:48Z</time>
      </trkpt>
      <trkpt lat="49.05537" lon="7.78394">
        <ele>530.8</ele>
        <time>2022-04-18T07:34:04Z</time>
      </trkpt>
      <trkpt lat="49.05537" lon="7.78394">
        <ele>530.8</ele>
        <time>2022-04-18T07:34:05Z</time>
      </trkpt>
      <trkpt lat="49.0554" lon="7.78379">
        <ele>531</ele>
        <time>2022-04-18T07:34:32Z</time>
      </trkpt>
      <trkpt lat="49.05541" lon="7.78382">
        <ele>531</ele>
        <time>2022-04-18T07:34:35Z</time>
      </trkpt>
      <trkpt lat="49.0554" lon="7.78383">
        <ele>531.1</ele>
        <time>2022-04-18T07:34:36Z</time>
      </trkpt>
      <trkpt lat="49.05533" lon="7.78391">
        <ele>531.2</ele>
        <time>2022-04-18T07:34:55Z</time>
      </trkpt>
      <trkpt lat="49.05531" lon="7.78393">
        <ele>531.3</ele>
        <time>2022-04-18T07:35:03Z</time>
      </trkpt>
      <trkpt lat="49.05531" lon="7.78394">
        <ele>531.3</ele>
        <time>2022-04-18T07:35:04Z</time>
      </trkpt>
      <trkpt lat="49.05536" lon="7.78382">
        <ele>531.5</ele>
        <time>2022-04-18T07:35:30Z</time>
      </trkpt>
      <trkpt lat="49.05536" lon="7.78382">
        <ele>531.5</ele>
        <time>2022-04-18T07:35:32Z</time>
      </trkpt>
      <trkpt lat="49.05537" lon="7.78382">
        <ele>531.5</ele>
        <time>2022-04-18T07:35:35Z</time>
      </trkpt>
      <trkpt lat="49.05545" lon="7.78374">
        <ele>546.9</ele>
        <time>2022-04-18T07:35:46Z</time>
      </trkpt>
      <trkpt lat="49.05546" lon="7.78367">
        <ele>546.1</ele>
        <time>2022-04-18T07:35:57Z</time>
      </trkpt>
      <trkpt lat="49.05546" lon="7.78367">
        <ele>546</ele>
        <time>2022-04-18T07:35:58Z</time>
      </trkpt>
      <trkpt lat="49.05537" lon="7.78363">
        <ele>544.7</ele>
        <time>2022-04-18T07:36:13Z</time>
      </trkpt>
      <trkpt lat="49.05527" lon="7.78364">
        <ele>543.6</ele>
        <time>2022-04-18T07:36:18Z</time>
      </trkpt>
      <trkpt lat="49.05518" lon="7.78368">
        <ele>542.5</ele>
        <time>2022-04-18T07:36:26Z</time>
      </trkpt>
      <trkpt lat="49.05512" lon="7.7838">
        <ele>541</ele>
        <time>2022-04-18T07:36:35Z</time>
      </trkpt>
      <trkpt lat="49.05507" lon="7.78392">
        <ele>539.4</ele>
        <time>2022-04-18T07:36:46Z</time>
      </trkpt>
      <trkpt lat="49.05507" lon="7.78395">
        <ele>539</ele>
        <time>2022-04-18T07:36:52Z</time>
      </trkpt>
      <trkpt lat="49.05507" lon="7.78395">
        <ele>539</ele>
        <time>2022-04-18T07:36:55Z</time>
      </trkpt>
      <trkpt lat="49.05504" lon="7.78397">
        <ele>538.5</ele>
        <time>2022-04-18T07:37:02Z</time>
      </trkpt>
      <trkpt lat="49.05504" lon="7.78397">
        <ele>538.5</ele>
        <time>2022-04-18T07:37:04Z</time>
      </trkpt>
      <trkpt lat="49.05504" lon="7.78397">
        <ele>538.5</ele>
        <time>2022-04-18T07:37:05Z</time>
      </trkpt>
      <trkpt lat="49.05504" lon="7.78397">
        <ele>538.5</ele>
        <time>2022-04-18T07:37:07Z</time>
      </trkpt>
      <trkpt lat="49.05502" lon="7.78398">
        <ele>538.1</ele>
        <time>2022-04-18T07:37:13Z</time>
      </trkpt>
      <trkpt lat="49.05502" lon="7.78398">
        <ele>538.1</ele>
        <time>2022-04-18T07:37:14Z</time>
      </trkpt>
      <trkpt lat="49.05501" lon="7.78397">
        <ele>538</ele>
        <time>2022-04-18T07:37:16Z</time>
      </trkpt>
      <trkpt lat="49.05501" lon="7.78397">
        <ele>538</ele>
        <time>2022-04-18T07:37:17Z</time>
      </trkpt>
      <trkpt lat="49.05501" lon="7.78398">
        <ele>538</ele>
        <time>2022-04-18T07:37:21Z</time>
      </trkpt>
      <trkpt lat="49.05501" lon="7.78398">
        <ele>538</ele>
        <time>2022-04-18T07:37:22Z</time>
      </trkpt>
      <trkpt lat="49.05501" lon="7.78399">
        <ele>538</ele>
        <time>2022-04-18T07:37:24Z</time>
      </trkpt>
      <trkpt lat="49.05501" lon="7.78399">
        <ele>538</ele>
        <time>2022-04-18T07:37:25Z</time>
      </trkpt>
      <trkpt lat="49.05501" lon="7.78399">
        <ele>538</ele>
        <time>2022-04-18T07:37:26Z</time>
      </trkpt>
      <trkpt lat="49.055" lon="7.784">
        <ele>538</ele>
        <time>2022-04-18T07:37:28Z</time>
      </trkpt>
      <trkpt lat="49.055" lon="7.784">
        <ele>538</ele>
        <time>2022-04-18T07:37:29Z</time>
      </trkpt>
      <trkpt lat="49.055" lon="7.784">
        <ele>538</ele>
        <time>2022-04-18T07:37:36Z</time>
      </trkpt>
      <trkpt lat="49.055" lon="7.78399">
        <ele>538</ele>
        <time>2022-04-18T07:37:38Z</time>
      </trkpt>
      <trkpt lat="49.055" lon="7.78398">
        <ele>538</ele>
        <time>2022-04-18T07:37:44Z</time>
      </trkpt>
      <trkpt lat="49.05501" lon="7.78397">
        <ele>538</ele>
        <time>2022-04-18T07:37:48Z</time>
      </trkpt>
      <trkpt lat="49.05501" lon="7.78397">
        <ele>538</ele>
        <time>2022-04-18T07:38:13Z</time>
      </trkpt>
      <trkpt lat="49.05501" lon="7.78397">
        <ele>538</ele>
        <time>2022-04-18T07:38:14Z</time>
      </trkpt>
      <trkpt lat="49.05501" lon="7.78397">
        <ele>538</ele>
        <time>2022-04-18T07:38:54Z</time>
      </trkpt>
      <trkpt lat="49.05501" lon="7.78397">
        <ele>538</ele>
        <time>2022-04-18T07:38:56Z</time>
      </trkpt>
      <trkpt lat="49.05501" lon="7.78397">
        <ele>538</ele>
        <time>2022-04-18T07:38:57Z</time>
      </trkpt>
      <trkpt lat="49.05501" lon="7.78403">
        <ele>538</ele>
        <time>2022-04-18T07:39:06Z</time>
      </trkpt>
      <trkpt lat="49.05501" lon="7.78403">
        <ele>538</ele>
        <time>2022-04-18T07:39:18Z</time>
      </trkpt>
      <trkpt lat="49.055" lon="7.78418">
        <ele>537.8</ele>
        <time>2022-04-18T07:39:27Z</time>
      </trkpt>
      <trkpt lat="49.05495" lon="7.78429">
        <ele>537.3</ele>
        <time>2022-04-18T07:39:34Z</time>
      </trkpt>
      <trkpt lat="49.05489" lon="7.78441">
        <ele>536.3</ele>
        <time>2022-04-18T07:39:44Z</time>
      </trkpt>
      <trkpt lat="49.05486" lon="7.78454">
        <ele>534.5</ele>
        <time>2022-04-18T07:39:55Z</time>
      </trkpt>
      <trkpt lat="49.05481" lon="7.78466">
        <ele>532.7</ele>
        <time>2022-04-18T07:40:05Z</time>
      </trkpt>
      <trkpt lat="49.05473" lon="7.78474">
        <ele>530.9</ele>
        <time>2022-04-18T07:40:14Z</time>
      </trkpt>
      <trkpt lat="49.05466" lon="7.78485">
        <ele>529.4</ele>
        <time>2022-04-18T07:40:23Z</time>
      </trkpt>
      <trkpt lat="49.05462" lon="7.78499">
        <ele>528.1</ele>
        <time>2022-04-18T07:40:32Z</time>
      </trkpt>
      <trkpt lat="49.05457" lon="7.78511">
        <ele>527.1</ele>
        <time>2022-04-18T07:40:39Z</time>
      </trkpt>
      <trkpt lat="49.0545" lon="7.78521">
        <ele>526.7</ele>
        <time>2022-04-18T07:40:47Z</time>
      </trkpt>
      <trkpt lat="49.05441" lon="7.78523">
        <ele>526.4</ele>
        <time>2022-04-18T07:40:56Z</time>
      </trkpt>
      <trkpt lat="49.05432" lon="7.78529">
        <ele>526.2</ele>
        <time>2022-04-18T07:41:04Z</time>
      </trkpt>
      <trkpt lat="49.05423" lon="7.78536">
        <ele>525.9</ele>
        <time>2022-04-18T07:41:12Z</time>
      </trkpt>
      <trkpt lat="49.05414" lon="7.78543">
        <ele>525.5</ele>
        <time>2022-04-18T07:41:21Z</time>
      </trkpt>
      <trkpt lat="49.05407" lon="7.78552">
        <ele>524.9</ele>
        <time>2022-04-18T07:41:30Z</time>
      </trkpt>
      <trkpt lat="49.05398" lon="7.78558">
        <ele>524.3</ele>
        <time>2022-04-18T07:41:37Z</time>
      </trkpt>
      <trkpt lat="49.05391" lon="7.78567">
        <ele>524</ele>
        <time>2022-04-18T07:41:45Z</time>
      </trkpt>
      <trkpt lat="49.05384" lon="7.78576">
        <ele>523.8</ele>
        <time>2022-04-18T07:41:52Z</time>
      </trkpt>
      <trkpt lat="49.05376" lon="7.78582">
        <ele>523.9</ele>
        <time>2022-04-18T07:41:59Z</time>
      </trkpt>
      <trkpt lat="49.05367" lon="7.7859">
        <ele>524.4</ele>
        <time>2022-04-18T07:42:08Z</time>
      </trkpt>
      <trkpt lat="49.05362" lon="7.78603">
        <ele>525.2</ele>
        <time>2022-04-18T07:42:16Z</time>
      </trkpt>
      <trkpt lat="49.05358" lon="7.7861">
        <ele>525.5</ele>
        <time>2022-04-18T07:42:25Z</time>
      </trkpt>
      <trkpt lat="49.05358" lon="7.7861">
        <ele>525.5</ele>
        <time>2022-04-18T07:42:27Z</time>
      </trkpt>
      <trkpt lat="49.05358" lon="7.7861">
        <ele>525.5</ele>
        <time>2022-04-18T07:42:29Z</time>
      </trkpt>
      <trkpt lat="49.05358" lon="7.7861">
        <ele>525.5</ele>
        <time>2022-04-18T07:42:32Z</time>
      </trkpt>
      <trkpt lat="49.05358" lon="7.7861">
        <ele>525.5</ele>
        <time>2022-04-18T07:42:33Z</time>
      </trkpt>
      <trkpt lat="49.05358" lon="7.7861">
        <ele>525.5</ele>
        <time>2022-04-18T07:42:40Z</time>
      </trkpt>
      <trkpt lat="49.05348" lon="7.78613">
        <ele>524.9</ele>
        <time>2022-04-18T07:42:51Z</time>
      </trkpt>
      <trkpt lat="49.05339" lon="7.78617">
        <ele>524.2</ele>
        <time>2022-04-18T07:43:00Z</time>
      </trkpt>
      <trkpt lat="49.05329" lon="7.78618">
        <ele>523.6</ele>
        <time>2022-04-18T07:43:09Z</time>
      </trkpt>
      <trkpt lat="49.05325" lon="7.7862">
        <ele>523</ele>
        <time>2022-04-18T07:43:16Z</time>
      </trkpt>
      <trkpt lat="49.05325" lon="7.7862">
        <ele>523</ele>
        <time>2022-04-18T07:43:18Z</time>
      </trkpt>
      <trkpt lat="49.05318" lon="7.78629">
        <ele>521.5</ele>
        <time>2022-04-18T07:43:33Z</time>
      </trkpt>
      <trkpt lat="49.05317" lon="7.78632">
        <ele>521.2</ele>
        <time>2022-04-18T07:43:37Z</time>
      </trkpt>
      <trkpt lat="49.05317" lon="7.78631">
        <ele>521.2</ele>
        <time>2022-04-18T07:43:38Z</time>
      </trkpt>
      <trkpt lat="49.05313" lon="7.78632">
        <ele>520.6</ele>
        <time>2022-04-18T07:43:45Z</time>
      </trkpt>
      <trkpt lat="49.05312" lon="7.78632">
        <ele>520.4</ele>
        <time>2022-04-18T07:43:46Z</time>
      </trkpt>
      <trkpt lat="49.05303" lon="7.78633">
        <ele>520.4</ele>
        <time>2022-04-18T07:43:55Z</time>
      </trkpt>
      <trkpt lat="49.05302" lon="7.78636">
        <ele>520.1</ele>
        <time>2022-04-18T07:43:59Z</time>
      </trkpt>
      <trkpt lat="49.05301" lon="7.78636">
        <ele>520</ele>
        <time>2022-04-18T07:44:28Z</time>
      </trkpt>
      <trkpt lat="49.05292" lon="7.78629">
        <ele>518.5</ele>
        <time>2022-04-18T07:44:50Z</time>
      </trkpt>
      <trkpt lat="49.05289" lon="7.78635">
        <ele>517.8</ele>
        <time>2022-04-18T07:44:57Z</time>
      </trkpt>
      <trkpt lat="49.05289" lon="7.78635">
        <ele>517.7</ele>
        <time>2022-04-18T07:45:00Z</time>
      </trkpt>
      <trkpt lat="49.05289" lon="7.78635">
        <ele>517.7</ele>
        <time>2022-04-18T07:45:02Z</time>
      </trkpt>
      <trkpt lat="49.05289" lon="7.78635">
        <ele>517.7</ele>
        <time>2022-04-18T07:45:03Z</time>
      </trkpt>
      <trkpt lat="49.0529" lon="7.78635">
        <ele>517.5</ele>
        <time>2022-04-18T07:45:08Z</time>
      </trkpt>
      <trkpt lat="49.0529" lon="7.78636">
        <ele>517.5</ele>
        <time>2022-04-18T07:45:09Z</time>
      </trkpt>
      <trkpt lat="49.05288" lon="7.78635">
        <ele>517.2</ele>
        <time>2022-04-18T07:45:16Z</time>
      </trkpt>
      <trkpt lat="49.05288" lon="7.78635">
        <ele>517.2</ele>
        <time>2022-04-18T07:45:17Z</time>
      </trkpt>
      <trkpt lat="49.05287" lon="7.78638">
        <ele>516.9</ele>
        <time>2022-04-18T07:45:22Z</time>
      </trkpt>
      <trkpt lat="49.05287" lon="7.78638">
        <ele>516.9</ele>
        <time>2022-04-18T07:45:23Z</time>
      </trkpt>
      <trkpt lat="49.05288" lon="7.7864">
        <ele>516.7</ele>
        <time>2022-04-18T07:45:30Z</time>
      </trkpt>
      <trkpt lat="49.05288" lon="7.7864">
        <ele>516.7</ele>
        <time>2022-04-18T07:45:31Z</time>
      </trkpt>
      <trkpt lat="49.05297" lon="7.78642">
        <ele>515.5</ele>
        <time>2022-04-18T07:46:20Z</time>
      </trkpt>
      <trkpt lat="49.05299" lon="7.78643">
        <ele>515.2</ele>
        <time>2022-04-18T07:46:28Z</time>
      </trkpt>
      <trkpt lat="49.05299" lon="7.78644">
        <ele>515.2</ele>
        <time>2022-04-18T07:46:30Z</time>
      </trkpt>
      <trkpt lat="49.05301" lon="7.78644">
        <ele>515</ele>
        <time>2022-04-18T07:46:35Z</time>
      </trkpt>
      <trkpt lat="49.05301" lon="7.78644">
        <ele>514.9</ele>
        <time>2022-04-18T07:46:37Z</time>
      </trkpt>
      <trkpt lat="49.05308" lon="7.7864">
        <ele>513.9</ele>
        <time>2022-04-18T07:46:49Z</time>
      </trkpt>
      <trkpt lat="49.05308" lon="7.78639">
        <ele>513.8</ele>
        <time>2022-04-18T07:46:50Z</time>
      </trkpt>
      <trkpt lat="49.05312" lon="7.78638">
        <ele>513.3</ele>
        <time>2022-04-18T07:46:59Z</time>
      </trkpt>
      <trkpt lat="49.05313" lon="7.78638">
        <ele>513.2</ele>
        <time>2022-04-18T07:47:01Z</time>
      </trkpt>
      <trkpt lat="49.05317" lon="7.78637">
        <ele>512.6</ele>
        <time>2022-04-18T07:47:06Z</time>
      </trkpt>
      <trkpt lat="49.05318" lon="7.78636">
        <ele>512.5</ele>
        <time>2022-04-18T07:47:08Z</time>
      </trkpt>
      <trkpt lat="49.05318" lon="7.78636">
        <ele>512.5</ele>
        <time>2022-04-18T07:47:09Z</time>
      </trkpt>
      <trkpt lat="49.05318" lon="7.78636">
        <ele>512.5</ele>
        <time>2022-04-18T07:47:12Z</time>
      </trkpt>
      <trkpt lat="49.05316" lon="7.78622">
        <ele>511.3</ele>
        <time>2022-04-18T07:47:30Z</time>
      </trkpt>
      <trkpt lat="49.05321" lon="7.78609">
        <ele>510.1</ele>
        <time>2022-04-18T07:47:39Z</time>
      </trkpt>
      <trkpt lat="49.05327" lon="7.786">
        <ele>509.1</ele>
        <time>2022-04-18T07:47:46Z</time>
      </trkpt>
      <trkpt lat="49.05335" lon="7.78592">
        <ele>508.2</ele>
        <time>2022-04-18T07:47:55Z</time>
      </trkpt>
      <trkpt lat="49.05342" lon="7.78582">
        <ele>507.3</ele>
        <time>2022-04-18T07:48:03Z</time>
      </trkpt>
      <trkpt lat="49.05345" lon="7.78568">
        <ele>506.5</ele>
        <time>2022-04-18T07:48:10Z</time>
      </trkpt>
      <trkpt lat="49.0535" lon="7.78556">
        <ele>505.7</ele>
        <time>2022-04-18T07:48:19Z</time>
      </trkpt>
      <trkpt lat="49.05357" lon="7.78547">
        <ele>505</ele>
        <time>2022-04-18T07:48:29Z</time>
      </trkpt>
      <trkpt lat="49.05364" lon="7.78537">
        <ele>504.3</ele>
        <time>2022-04-18T07:48:37Z</time>
      </trkpt>
      <trkpt lat="49.05368" lon="7.78525">
        <ele>503.6</ele>
        <time>2022-04-18T07:48:46Z</time>
      </trkpt>
      <trkpt lat="49.05374" lon="7.78514">
        <ele>502.9</ele>
        <time>2022-04-18T07:48:55Z</time>
      </trkpt>
      <trkpt lat="49.05381" lon="7.78504">
        <ele>502.2</ele>
        <time>2022-04-18T07:49:06Z</time>
      </trkpt>
      <trkpt lat="49.05388" lon="7.78494">
        <ele>501.4</ele>
        <time>2022-04-18T07:49:14Z</time>
      </trkpt>
      <trkpt lat="49.05396" lon="7.78485">
        <ele>500.6</ele>
        <time>2022-04-18T07:49:21Z</time>
      </trkpt>
      <trkpt lat="49.05402" lon="7.78472">
        <ele>499.8</ele>
        <time>2022-04-18T07:49:31Z</time>
      </trkpt>
      <trkpt lat="49.05406" lon="7.7846">
        <ele>499</ele>
        <time>2022-04-18T07:49:38Z</time>
      </trkpt>
      <trkpt lat="49.05406" lon="7.78454">
        <ele>498.7</ele>
        <time>2022-04-18T07:49:45Z</time>
      </trkpt>
      <trkpt lat="49.05406" lon="7.78453">
        <ele>498.7</ele>
        <time>2022-04-18T07:49:46Z</time>
      </trkpt>
      <trkpt lat="49.05411" lon="7.7844">
        <ele>497.9</ele>
        <time>2022-04-18T07:49:55Z</time>
      </trkpt>
      <trkpt lat="49.05413" lon="7.78426">
        <ele>497</ele>
        <time>2022-04-18T07:50:04Z</time>
      </trkpt>
      <trkpt lat="49.05414" lon="7.78412">
        <ele>496.2</ele>
        <time>2022-04-18T07:50:12Z</time>
      </trkpt>
      <trkpt lat="49.05417" lon="7.78398">
        <ele>495</ele>
        <time>2022-04-18T07:50:20Z</time>
      </trkpt>
      <trkpt lat="49.05418" lon="7.78383">
        <ele>493.8</ele>
        <time>2022-04-18T07:50:28Z</time>
      </trkpt>
      <trkpt lat="49.05416" lon="7.7837">
        <ele>492.5</ele>
        <time>2022-04-18T07:50:37Z</time>
      </trkpt>
      <trkpt lat="49.0541" lon="7.78362">
        <ele>492.5</ele>
        <time>2022-04-18T07:50:48Z</time>
      </trkpt>
      <trkpt lat="49.05411" lon="7.78362">
        <ele>492.5</ele>
        <time>2022-04-18T07:50:49Z</time>
      </trkpt>
      <trkpt lat="49.05418" lon="7.78355">
        <ele>492.6</ele>
        <time>2022-04-18T07:50:59Z</time>
      </trkpt>
      <trkpt lat="49.05424" lon="7.78343">
        <ele>492.7</ele>
        <time>2022-04-18T07:51:08Z</time>
      </trkpt>
      <trkpt lat="49.05427" lon="7.7833">
        <ele>492.8</ele>
        <time>2022-04-18T07:51:17Z</time>
      </trkpt>
      <trkpt lat="49.05431" lon="7.78316">
        <ele>491.7</ele>
        <time>2022-04-18T07:51:28Z</time>
      </trkpt>
      <trkpt lat="49.05437" lon="7.78306">
        <ele>490.2</ele>
        <time>2022-04-18T07:51:40Z</time>
      </trkpt>
      <trkpt lat="49.0544" lon="7.78293">
        <ele>488.7</ele>
        <time>2022-04-18T07:51:47Z</time>
      </trkpt>
      <trkpt lat="49.05446" lon="7.78282">
        <ele>487.3</ele>
        <time>2022-04-18T07:51:56Z</time>
      </trkpt>
      <trkpt lat="49.05445" lon="7.78267">
        <ele>485.9</ele>
        <time>2022-04-18T07:52:03Z</time>
      </trkpt>
      <trkpt lat="49.0545" lon="7.78254">
        <ele>484.8</ele>
        <time>2022-04-18T07:52:11Z</time>
      </trkpt>
      <trkpt lat="49.05455" lon="7.7824">
        <ele>483.8</ele>
        <time>2022-04-18T07:52:18Z</time>
      </trkpt>
      <trkpt lat="49.05455" lon="7.78226">
        <ele>482.7</ele>
        <time>2022-04-18T07:52:26Z</time>
      </trkpt>
      <trkpt lat="49.05461" lon="7.78215">
        <ele>481.7</ele>
        <time>2022-04-18T07:52:32Z</time>
      </trkpt>
      <trkpt lat="49.05458" lon="7.782">
        <ele>480.7</ele>
        <time>2022-04-18T07:52:39Z</time>
      </trkpt>
      <trkpt lat="49.05454" lon="7.78187">
        <ele>479.8</ele>
        <time>2022-04-18T07:52:46Z</time>
      </trkpt>
      <trkpt lat="49.0546" lon="7.78174">
        <ele>478.8</ele>
        <time>2022-04-18T07:52:53Z</time>
      </trkpt>
      <trkpt lat="49.05463" lon="7.7816">
        <ele>478</ele>
        <time>2022-04-18T07:52:59Z</time>
      </trkpt>
      <trkpt lat="49.05468" lon="7.78148">
        <ele>477</ele>
        <time>2022-04-18T07:53:05Z</time>
      </trkpt>
      <trkpt lat="49.05462" lon="7.78131">
        <ele>475.7</ele>
        <time>2022-04-18T07:53:11Z</time>
      </trkpt>
      <trkpt lat="49.05459" lon="7.78116">
        <ele>475.4</ele>
        <time>2022-04-18T07:53:17Z</time>
      </trkpt>
      <trkpt lat="49.05452" lon="7.78104">
        <ele>475</ele>
        <time>2022-04-18T07:53:23Z</time>
      </trkpt>
      <trkpt lat="49.05443" lon="7.78097">
        <ele>474.8</ele>
        <time>2022-04-18T07:53:36Z</time>
      </trkpt>
      <trkpt lat="49.05436" lon="7.78087">
        <ele>474.5</ele>
        <time>2022-04-18T07:53:43Z</time>
      </trkpt>
      <trkpt lat="49.05431" lon="7.78074">
        <ele>473.2</ele>
        <time>2022-04-18T07:53:52Z</time>
      </trkpt>
      <trkpt lat="49.05424" lon="7.78066">
        <ele>471.7</ele>
        <time>2022-04-18T07:54:03Z</time>
      </trkpt>
      <trkpt lat="49.05414" lon="7.78063">
        <ele>471.3</ele>
        <time>2022-04-18T07:54:08Z</time>
      </trkpt>
      <trkpt lat="49.05406" lon="7.78056">
        <ele>471.3</ele>
        <time>2022-04-18T07:54:14Z</time>
      </trkpt>
      <trkpt lat="49.05398" lon="7.78048">
        <ele>471.4</ele>
        <time>2022-04-18T07:54:21Z</time>
      </trkpt>
      <trkpt lat="49.05391" lon="7.7804">
        <ele>471.3</ele>
        <time>2022-04-18T07:54:31Z</time>
      </trkpt>
      <trkpt lat="49.05384" lon="7.7803">
        <ele>470.5</ele>
        <time>2022-04-18T07:54:39Z</time>
      </trkpt>
      <trkpt lat="49.05376" lon="7.78023">
        <ele>469.2</ele>
        <time>2022-04-18T07:54:49Z</time>
      </trkpt>
      <trkpt lat="49.05371" lon="7.78011">
        <ele>467.6</ele>
        <time>2022-04-18T07:54:58Z</time>
      </trkpt>
      <trkpt lat="49.05364" lon="7.77998">
        <ele>465.6</ele>
        <time>2022-04-18T07:55:05Z</time>
      </trkpt>
      <trkpt lat="49.05354" lon="7.77994">
        <ele>463.9</ele>
        <time>2022-04-18T07:55:14Z</time>
      </trkpt>
      <trkpt lat="49.05344" lon="7.77988">
        <ele>462.3</ele>
        <time>2022-04-18T07:55:23Z</time>
      </trkpt>
      <trkpt lat="49.05335" lon="7.77984">
        <ele>461.1</ele>
        <time>2022-04-18T07:55:31Z</time>
      </trkpt>
      <trkpt lat="49.05328" lon="7.77976">
        <ele>460</ele>
        <time>2022-04-18T07:55:38Z</time>
      </trkpt>
      <trkpt lat="49.0532" lon="7.77967">
        <ele>458.6</ele>
        <time>2022-04-18T07:55:48Z</time>
      </trkpt>
      <trkpt lat="49.05312" lon="7.77959">
        <ele>457.1</ele>
        <time>2022-04-18T07:55:58Z</time>
      </trkpt>
      <trkpt lat="49.05304" lon="7.77951">
        <ele>455.4</ele>
        <time>2022-04-18T07:56:07Z</time>
      </trkpt>
      <trkpt lat="49.05295" lon="7.77951">
        <ele>453.9</ele>
        <time>2022-04-18T07:56:22Z</time>
      </trkpt>
      <trkpt lat="49.05286" lon="7.77944">
        <ele>452.7</ele>
        <time>2022-04-18T07:56:31Z</time>
      </trkpt>
      <trkpt lat="49.05281" lon="7.77931">
        <ele>452.1</ele>
        <time>2022-04-18T07:56:50Z</time>
      </trkpt>
      <trkpt lat="49.05276" lon="7.7792">
        <ele>451.8</ele>
        <time>2022-04-18T07:56:59Z</time>
      </trkpt>
      <trkpt lat="49.05267" lon="7.77914">
        <ele>450.8</ele>
        <time>2022-04-18T07:57:07Z</time>
      </trkpt>
      <trkpt lat="49.05257" lon="7.77909">
        <ele>449.3</ele>
        <time>2022-04-18T07:57:17Z</time>
      </trkpt>
      <trkpt lat="49.05248" lon="7.77906">
        <ele>447.8</ele>
        <time>2022-04-18T07:57:27Z</time>
      </trkpt>
      <trkpt lat="49.05239" lon="7.77902">
        <ele>446.4</ele>
        <time>2022-04-18T07:57:36Z</time>
      </trkpt>
      <trkpt lat="49.05233" lon="7.77891">
        <ele>445</ele>
        <time>2022-04-18T07:57:43Z</time>
      </trkpt>
      <trkpt lat="49.05227" lon="7.7788">
        <ele>443.5</ele>
        <time>2022-04-18T07:57:53Z</time>
      </trkpt>
      <trkpt lat="49.0522" lon="7.7787">
        <ele>441.8</ele>
        <time>2022-04-18T07:58:04Z</time>
      </trkpt>
      <trkpt lat="49.05212" lon="7.77863">
        <ele>440.5</ele>
        <time>2022-04-18T07:58:14Z</time>
      </trkpt>
      <trkpt lat="49.05202" lon="7.77856">
        <ele>439.5</ele>
        <time>2022-04-18T07:58:21Z</time>
      </trkpt>
      <trkpt lat="49.05193" lon="7.7785">
        <ele>439.3</ele>
        <time>2022-04-18T07:58:28Z</time>
      </trkpt>
      <trkpt lat="49.05185" lon="7.77843">
        <ele>438.8</ele>
        <time>2022-04-18T07:58:38Z</time>
      </trkpt>
      <trkpt lat="49.05177" lon="7.77833">
        <ele>437.8</ele>
        <time>2022-04-18T07:58:47Z</time>
      </trkpt>
      <trkpt lat="49.05168" lon="7.77829">
        <ele>436.2</ele>
        <time>2022-04-18T07:58:58Z</time>
      </trkpt>
      <trkpt lat="49.05161" lon="7.77819">
        <ele>434.3</ele>
        <time>2022-04-18T07:59:06Z</time>
      </trkpt>
      <trkpt lat="49.05152" lon="7.77817">
        <ele>432.4</ele>
        <time>2022-04-18T07:59:21Z</time>
      </trkpt>
      <trkpt lat="49.05144" lon="7.77808">
        <ele>430.8</ele>
        <time>2022-04-18T07:59:27Z</time>
      </trkpt>
      <trkpt lat="49.05136" lon="7.77801">
        <ele>429.8</ele>
        <time>2022-04-18T07:59:35Z</time>
      </trkpt>
      <trkpt lat="49.05128" lon="7.77793">
        <ele>429.2</ele>
        <time>2022-04-18T07:59:45Z</time>
      </trkpt>
      <trkpt lat="49.05121" lon="7.77784">
        <ele>428.9</ele>
        <time>2022-04-18T07:59:55Z</time>
      </trkpt>
      <trkpt lat="49.05112" lon="7.77778">
        <ele>428.6</ele>
        <time>2022-04-18T08:00:06Z</time>
      </trkpt>
      <trkpt lat="49.05105" lon="7.77768">
        <ele>428.3</ele>
        <time>2022-04-18T08:00:16Z</time>
      </trkpt>
      <trkpt lat="49.05097" lon="7.7776">
        <ele>427.8</ele>
        <time>2022-04-18T08:00:25Z</time>
      </trkpt>
      <trkpt lat="49.05089" lon="7.7775">
        <ele>427.3</ele>
        <time>2022-04-18T08:00:35Z</time>
      </trkpt>
      <trkpt lat="49.0508" lon="7.77742">
        <ele>427.1</ele>
        <time>2022-04-18T08:00:43Z</time>
      </trkpt>
      <trkpt lat="49.05072" lon="7.77735">
        <ele>427.4</ele>
        <time>2022-04-18T08:00:47Z</time>
      </trkpt>
      <trkpt lat="49.05065" lon="7.77726">
        <ele>427.7</ele>
        <time>2022-04-18T08:00:52Z</time>
      </trkpt>
      <trkpt lat="49.05056" lon="7.77726">
        <ele>427.6</ele>
        <time>2022-04-18T08:01:03Z</time>
      </trkpt>
      <trkpt lat="49.05053" lon="7.77716">
        <ele>426.8</ele>
        <time>2022-04-18T08:01:17Z</time>
      </trkpt>
      <trkpt lat="49.05053" lon="7.77714">
        <ele>426.7</ele>
        <time>2022-04-18T08:01:29Z</time>
      </trkpt>
      <trkpt lat="49.05045" lon="7.77709">
        <ele>425.2</ele>
        <time>2022-04-18T08:01:45Z</time>
      </trkpt>
      <trkpt lat="49.05038" lon="7.77698">
        <ele>423.3</ele>
        <time>2022-04-18T08:02:01Z</time>
      </trkpt>
      <trkpt lat="49.05036" lon="7.77684">
        <ele>421.7</ele>
        <time>2022-04-18T08:02:12Z</time>
      </trkpt>
      <trkpt lat="49.05029" lon="7.77675">
        <ele>420.7</ele>
        <time>2022-04-18T08:02:32Z</time>
      </trkpt>
      <trkpt lat="49.0502" lon="7.77675">
        <ele>420.7</ele>
        <time>2022-04-18T08:02:59Z</time>
      </trkpt>
      <trkpt lat="49.0501" lon="7.77674">
        <ele>421.4</ele>
        <time>2022-04-18T08:03:11Z</time>
      </trkpt>
      <trkpt lat="49.05001" lon="7.77679">
        <ele>421.7</ele>
        <time>2022-04-18T08:03:24Z</time>
      </trkpt>
      <trkpt lat="49.04994" lon="7.77672">
        <ele>421.1</ele>
        <time>2022-04-18T08:03:40Z</time>
      </trkpt>
      <trkpt lat="49.04992" lon="7.77658">
        <ele>419.7</ele>
        <time>2022-04-18T08:04:08Z</time>
      </trkpt>
      <trkpt lat="49.04985" lon="7.77646">
        <ele>417.5</ele>
        <time>2022-04-18T08:04:23Z</time>
      </trkpt>
      <trkpt lat="49.04976" lon="7.77636">
        <ele>415.2</ele>
        <time>2022-04-18T08:04:33Z</time>
      </trkpt>
      <trkpt lat="49.04968" lon="7.7763">
        <ele>413.7</ele>
        <time>2022-04-18T08:04:41Z</time>
      </trkpt>
      <trkpt lat="49.04959" lon="7.77629">
        <ele>412.7</ele>
        <time>2022-04-18T08:04:48Z</time>
      </trkpt>
      <trkpt lat="49.04956" lon="7.77626">
        <ele>412.1</ele>
        <time>2022-04-18T08:04:53Z</time>
      </trkpt>
      <trkpt lat="49.04955" lon="7.77626">
        <ele>411.9</ele>
        <time>2022-04-18T08:04:54Z</time>
      </trkpt>
      <trkpt lat="49.04947" lon="7.77619">
        <ele>409.7</ele>
        <time>2022-04-18T08:05:03Z</time>
      </trkpt>
      <trkpt lat="49.04941" lon="7.77608">
        <ele>407.2</ele>
        <time>2022-04-18T08:05:11Z</time>
      </trkpt>
      <trkpt lat="49.04935" lon="7.77597">
        <ele>404.2</ele>
        <time>2022-04-18T08:05:24Z</time>
      </trkpt>
      <trkpt lat="49.04925" lon="7.77596">
        <ele>401.4</ele>
        <time>2022-04-18T08:05:39Z</time>
      </trkpt>
      <trkpt lat="49.04919" lon="7.77584">
        <ele>398.8</ele>
        <time>2022-04-18T08:05:49Z</time>
      </trkpt>
      <trkpt lat="49.0491" lon="7.7758">
        <ele>396.7</ele>
        <time>2022-04-18T08:05:55Z</time>
      </trkpt>
      <trkpt lat="49.04901" lon="7.77579">
        <ele>394.9</ele>
        <time>2022-04-18T08:06:02Z</time>
      </trkpt>
      <trkpt lat="49.04892" lon="7.77576">
        <ele>393</ele>
        <time>2022-04-18T08:06:12Z</time>
      </trkpt>
      <trkpt lat="49.04883" lon="7.77574">
        <ele>391.2</ele>
        <time>2022-04-18T08:06:22Z</time>
      </trkpt>
      <trkpt lat="49.04875" lon="7.77565">
        <ele>389.5</ele>
        <time>2022-04-18T08:06:39Z</time>
      </trkpt>
      <trkpt lat="49.04867" lon="7.77557">
        <ele>388</ele>
        <time>2022-04-18T08:06:57Z</time>
      </trkpt>
      <trkpt lat="49.04859" lon="7.77551">
        <ele>386.2</ele>
        <time>2022-04-18T08:07:07Z</time>
      </trkpt>
      <trkpt lat="49.0485" lon="7.77549">
        <ele>384.1</ele>
        <time>2022-04-18T08:07:13Z</time>
      </trkpt>
      <trkpt lat="49.04843" lon="7.77538">
        <ele>381.8</ele>
        <time>2022-04-18T08:07:26Z</time>
      </trkpt>
      <trkpt lat="49.04835" lon="7.77528">
        <ele>379.4</ele>
        <time>2022-04-18T08:07:37Z</time>
      </trkpt>
      <trkpt lat="49.04829" lon="7.77516">
        <ele>376.7</ele>
        <time>2022-04-18T08:08:03Z</time>
      </trkpt>
      <trkpt lat="49.0482" lon="7.77519">
        <ele>373.9</ele>
        <time>2022-04-18T08:08:13Z</time>
      </trkpt>
      <trkpt lat="49.04813" lon="7.77509">
        <ele>370.4</ele>
        <time>2022-04-18T08:08:21Z</time>
      </trkpt>
      <trkpt lat="49.04805" lon="7.77499">
        <ele>366.6</ele>
        <time>2022-04-18T08:08:49Z</time>
      </trkpt>
      <trkpt lat="49.04798" lon="7.77487">
        <ele>362.7</ele>
        <time>2022-04-18T08:09:15Z</time>
      </trkpt>
      <trkpt lat="49.04789" lon="7.77486">
        <ele>359.3</ele>
        <time>2022-04-18T08:09:25Z</time>
      </trkpt>
      <trkpt lat="49.04782" lon="7.77494">
        <ele>356.5</ele>
        <time>2022-04-18T08:09:39Z</time>
      </trkpt>
      <trkpt lat="49.04779" lon="7.77492">
        <ele>355.6</ele>
        <time>2022-04-18T08:09:48Z</time>
      </trkpt>
      <trkpt lat="49.0478" lon="7.77493">
        <ele>355.4</ele>
        <time>2022-04-18T08:09:49Z</time>
      </trkpt>
      <trkpt lat="49.04771" lon="7.77485">
        <ele>352.4</ele>
        <time>2022-04-18T08:10:10Z</time>
      </trkpt>
      <trkpt lat="49.04762" lon="7.77488">
        <ele>351.1</ele>
        <time>2022-04-18T08:10:24Z</time>
      </trkpt>
      <trkpt lat="49.04762" lon="7.77488">
        <ele>351.1</ele>
        <time>2022-04-18T08:10:25Z</time>
      </trkpt>
      <trkpt lat="49.04762" lon="7.77489">
        <ele>350.9</ele>
        <time>2022-04-18T08:10:26Z</time>
      </trkpt>
      <trkpt lat="49.04762" lon="7.77475">
        <ele>349.1</ele>
        <time>2022-04-18T08:10:42Z</time>
      </trkpt>
      <trkpt lat="49.04757" lon="7.77463">
        <ele>347.5</ele>
        <time>2022-04-18T08:10:51Z</time>
      </trkpt>
      <trkpt lat="49.04756" lon="7.77449">
        <ele>346.1</ele>
        <time>2022-04-18T08:10:57Z</time>
      </trkpt>
      <trkpt lat="49.04747" lon="7.77448">
        <ele>344.2</ele>
        <time>2022-04-18T08:11:07Z</time>
      </trkpt>
      <trkpt lat="49.04739" lon="7.77458">
        <ele>343.8</ele>
        <time>2022-04-18T08:11:17Z</time>
      </trkpt>
      <trkpt lat="49.04734" lon="7.7747">
        <ele>342.8</ele>
        <time>2022-04-18T08:11:24Z</time>
      </trkpt>
      <trkpt lat="49.04728" lon="7.77481">
        <ele>341.8</ele>
        <time>2022-04-18T08:11:32Z</time>
      </trkpt>
      <trkpt lat="49.04718" lon="7.77484">
        <ele>340.8</ele>
        <time>2022-04-18T08:11:39Z</time>
      </trkpt>
      <trkpt lat="49.0471" lon="7.77478">
        <ele>340.7</ele>
        <time>2022-04-18T08:11:50Z</time>
      </trkpt>
      <trkpt lat="49.04705" lon="7.77466">
        <ele>340.7</ele>
        <time>2022-04-18T08:12:03Z</time>
      </trkpt>
      <trkpt lat="49.047" lon="7.7746">
        <ele>340.6</ele>
        <time>2022-04-18T08:12:21Z</time>
      </trkpt>
      <trkpt lat="49.047" lon="7.7746">
        <ele>340.6</ele>
        <time>2022-04-18T08:12:27Z</time>
      </trkpt>
      <trkpt lat="49.04693" lon="7.77449">
        <ele>340.6</ele>
        <time>2022-04-18T08:12:39Z</time>
      </trkpt>
      <trkpt lat="49.04684" lon="7.77449">
        <ele>340.5</ele>
        <time>2022-04-18T08:12:47Z</time>
      </trkpt>
      <trkpt lat="49.04675" lon="7.7744">
        <ele>340.3</ele>
        <time>2022-04-18T08:12:55Z</time>
      </trkpt>
      <trkpt lat="49.04667" lon="7.77434">
        <ele>340.2</ele>
        <time>2022-04-18T08:13:04Z</time>
      </trkpt>
      <trkpt lat="49.0466" lon="7.77425">
        <ele>340.2</ele>
        <time>2022-04-18T08:13:19Z</time>
      </trkpt>
      <trkpt lat="49.04653" lon="7.77415">
        <ele>340.1</ele>
        <time>2022-04-18T08:13:27Z</time>
      </trkpt>
      <trkpt lat="49.04644" lon="7.77408">
        <ele>340.1</ele>
        <time>2022-04-18T08:13:38Z</time>
      </trkpt>
      <trkpt lat="49.04637" lon="7.77397">
        <ele>340.1</ele>
        <time>2022-04-18T08:13:45Z</time>
      </trkpt>
      <trkpt lat="49.04629" lon="7.77389">
        <ele>340.1</ele>
        <time>2022-04-18T08:13:54Z</time>
      </trkpt>
      <trkpt lat="49.04622" lon="7.7738">
        <ele>340.2</ele>
        <time>2022-04-18T08:14:01Z</time>
      </trkpt>
      <trkpt lat="49.04614" lon="7.77372">
        <ele>340.2</ele>
        <time>2022-04-18T08:14:07Z</time>
      </trkpt>
      <trkpt lat="49.04606" lon="7.77364">
        <ele>340.2</ele>
        <time>2022-04-18T08:14:14Z</time>
      </trkpt>
      <trkpt lat="49.04601" lon="7.77353">
        <ele>340.2</ele>
        <time>2022-04-18T08:14:20Z</time>
      </trkpt>
      <trkpt lat="49.04598" lon="7.77349">
        <ele>340.2</ele>
        <time>2022-04-18T08:14:27Z</time>
      </trkpt>
      <trkpt lat="49.04598" lon="7.77349">
        <ele>340.2</ele>
        <time>2022-04-18T08:14:28Z</time>
      </trkpt>
      <trkpt lat="49.04598" lon="7.77349">
        <ele>340.2</ele>
        <time>2022-04-18T08:14:29Z</time>
      </trkpt>
      <trkpt lat="49.04598" lon="7.77348">
        <ele>340.2</ele>
        <time>2022-04-18T08:14:30Z</time>
      </trkpt>
      <trkpt lat="49.04598" lon="7.77348">
        <ele>340.2</ele>
        <time>2022-04-18T08:14:44Z</time>
      </trkpt>
      <trkpt lat="49.04598" lon="7.77348">
        <ele>340.2</ele>
        <time>2022-04-18T08:14:45Z</time>
      </trkpt>
      <trkpt lat="49.04598" lon="7.77357">
        <ele>340.2</ele>
        <time>2022-04-18T08:14:59Z</time>
      </trkpt>
      <trkpt lat="49.04599" lon="7.77358">
        <ele>340.2</ele>
        <time>2022-04-18T08:15:00Z</time>
      </trkpt>
      <trkpt lat="49.04595" lon="7.77355">
        <ele>340.2</ele>
        <time>2022-04-18T08:15:08Z</time>
      </trkpt>
      <trkpt lat="49.04595" lon="7.77355">
        <ele>340.2</ele>
        <time>2022-04-18T08:15:10Z</time>
      </trkpt>
      <trkpt lat="49.04595" lon="7.77354">
        <ele>340.2</ele>
        <time>2022-04-18T08:15:14Z</time>
      </trkpt>
      <trkpt lat="49.04595" lon="7.77354">
        <ele>340.2</ele>
        <time>2022-04-18T08:15:17Z</time>
      </trkpt>
      <trkpt lat="49.04595" lon="7.77354">
        <ele>340.2</ele>
        <time>2022-04-18T08:15:18Z</time>
      </trkpt>
      <trkpt lat="49.04595" lon="7.77353">
        <ele>340.2</ele>
        <time>2022-04-18T08:15:21Z</time>
      </trkpt>
      <trkpt lat="49.04596" lon="7.77351">
        <ele>340.3</ele>
        <time>2022-04-18T08:15:26Z</time>
      </trkpt>
      <trkpt lat="49.04595" lon="7.7735">
        <ele>340.3</ele>
        <time>2022-04-18T08:15:28Z</time>
      </trkpt>
      <trkpt lat="49.04595" lon="7.77347">
        <ele>340.3</ele>
        <time>2022-04-18T08:15:34Z</time>
      </trkpt>
      <trkpt lat="49.04595" lon="7.77347">
        <ele>340.3</ele>
        <time>2022-04-18T08:15:36Z</time>
      </trkpt>
      <trkpt lat="49.04595" lon="7.77347">
        <ele>340.3</ele>
        <time>2022-04-18T08:15:37Z</time>
      </trkpt>
      <trkpt lat="49.04594" lon="7.77347">
        <ele>340.3</ele>
        <time>2022-04-18T08:15:38Z</time>
      </trkpt>
      <trkpt lat="49.04594" lon="7.77348">
        <ele>340.3</ele>
        <time>2022-04-18T08:15:42Z</time>
      </trkpt>
      <trkpt lat="49.04594" lon="7.77348">
        <ele>340.3</ele>
        <time>2022-04-18T08:15:46Z</time>
      </trkpt>
      <trkpt lat="49.04584" lon="7.77345">
        <ele>340.3</ele>
        <time>2022-04-18T08:16:24Z</time>
      </trkpt>
      <trkpt lat="49.04575" lon="7.77342">
        <ele>340.5</ele>
        <time>2022-04-18T08:16:33Z</time>
      </trkpt>
      <trkpt lat="49.04568" lon="7.77334">
        <ele>340.6</ele>
        <time>2022-04-18T08:16:42Z</time>
      </trkpt>
      <trkpt lat="49.04558" lon="7.77334">
        <ele>340.9</ele>
        <time>2022-04-18T08:16:49Z</time>
      </trkpt>
      <trkpt lat="49.04549" lon="7.77332">
        <ele>341</ele>
        <time>2022-04-18T08:16:57Z</time>
      </trkpt>
      <trkpt lat="49.0454" lon="7.77331">
        <ele>340.8</ele>
        <time>2022-04-18T08:17:03Z</time>
      </trkpt>
      <trkpt lat="49.04531" lon="7.77334">
        <ele>340.4</ele>
        <time>2022-04-18T08:17:09Z</time>
      </trkpt>
      <trkpt lat="49.04521" lon="7.77338">
        <ele>339.7</ele>
        <time>2022-04-18T08:17:17Z</time>
      </trkpt>
      <trkpt lat="49.04511" lon="7.77343">
        <ele>338.9</ele>
        <time>2022-04-18T08:17:24Z</time>
      </trkpt>
      <trkpt lat="49.04502" lon="7.77342">
        <ele>338.1</ele>
        <time>2022-04-18T08:17:31Z</time>
      </trkpt>
      <trkpt lat="49.04492" lon="7.77339">
        <ele>337.3</ele>
        <time>2022-04-18T08:17:43Z</time>
      </trkpt>
      <trkpt lat="49.04483" lon="7.77338">
        <ele>336.5</ele>
        <time>2022-04-18T08:17:54Z</time>
      </trkpt>
      <trkpt lat="49.04473" lon="7.77333">
        <ele>335.6</ele>
        <time>2022-04-18T08:18:01Z</time>
      </trkpt>
      <trkpt lat="49.04462" lon="7.77328">
        <ele>334.8</ele>
        <time>2022-04-18T08:18:05Z</time>
      </trkpt>
      <trkpt lat="49.04454" lon="7.77318">
        <ele>334.1</ele>
        <time>2022-04-18T08:18:10Z</time>
      </trkpt>
      <trkpt lat="49.04447" lon="7.77308">
        <ele>333.4</ele>
        <time>2022-04-18T08:18:19Z</time>
      </trkpt>
      <trkpt lat="49.04438" lon="7.77309">
        <ele>332.7</ele>
        <time>2022-04-18T08:18:26Z</time>
      </trkpt>
      <trkpt lat="49.04439" lon="7.77307">
        <ele>332.5</ele>
        <time>2022-04-18T08:18:27Z</time>
      </trkpt>
      <trkpt lat="49.04439" lon="7.77305">
        <ele>332.3</ele>
        <time>2022-04-18T08:18:37Z</time>
      </trkpt>
      <trkpt lat="49.04438" lon="7.77305">
        <ele>332.2</ele>
        <time>2022-04-18T08:18:38Z</time>
      </trkpt>
      <trkpt lat="49.04429" lon="7.77307">
        <ele>331.1</ele>
        <time>2022-04-18T08:18:42Z</time>
      </trkpt>
      <trkpt lat="49.04423" lon="7.77319">
        <ele>329.9</ele>
        <time>2022-04-18T08:19:00Z</time>
      </trkpt>
      <trkpt lat="49.04416" lon="7.77311">
        <ele>328.6</ele>
        <time>2022-04-18T08:19:12Z</time>
      </trkpt>
      <trkpt lat="49.0441" lon="7.77298">
        <ele>327.2</ele>
        <time>2022-04-18T08:19:21Z</time>
      </trkpt>
      <trkpt lat="49.04402" lon="7.77291">
        <ele>325.8</ele>
        <time>2022-04-18T08:19:29Z</time>
      </trkpt>
      <trkpt lat="49.04393" lon="7.77285">
        <ele>324.3</ele>
        <time>2022-04-18T08:19:39Z</time>
      </trkpt>
      <trkpt lat="49.04383" lon="7.77281">
        <ele>323</ele>
        <time>2022-04-18T08:19:45Z</time>
      </trkpt>
      <trkpt lat="49.04374" lon="7.77284">
        <ele>321.9</ele>
        <time>2022-04-18T08:19:52Z</time>
      </trkpt>
      <trkpt lat="49.04363" lon="7.77283">
        <ele>320.7</ele>
        <time>2022-04-18T08:19:57Z</time>
      </trkpt>
      <trkpt lat="49.04353" lon="7.77282">
        <ele>319.5</ele>
        <time>2022-04-18T08:20:05Z</time>
      </trkpt>
      <trkpt lat="49.04344" lon="7.77281">
        <ele>318.3</ele>
        <time>2022-04-18T08:20:11Z</time>
      </trkpt>
      <trkpt lat="49.04334" lon="7.77277">
        <ele>317</ele>
        <time>2022-04-18T08:20:19Z</time>
      </trkpt>
      <trkpt lat="49.04327" lon="7.77268">
        <ele>315.9</ele>
        <time>2022-04-18T08:20:23Z</time>
      </trkpt>
      <trkpt lat="49.0432" lon="7.77257">
        <ele>314.7</ele>
        <time>2022-04-18T08:20:29Z</time>
      </trkpt>
      <trkpt lat="49.04312" lon="7.77248">
        <ele>313.5</ele>
        <time>2022-04-18T08:20:37Z</time>
      </trkpt>
      <trkpt lat="49.04306" lon="7.77236">
        <ele>312.1</ele>
        <time>2022-04-18T08:20:42Z</time>
      </trkpt>
      <trkpt lat="49.04299" lon="7.77226">
        <ele>310.9</ele>
        <time>2022-04-18T08:20:47Z</time>
      </trkpt>
      <trkpt lat="49.04292" lon="7.77219">
        <ele>309.6</ele>
        <time>2022-04-18T08:20:53Z</time>
      </trkpt>
      <trkpt lat="49.04283" lon="7.77213">
        <ele>308.4</ele>
        <time>2022-04-18T08:21:00Z</time>
      </trkpt>
      <trkpt lat="49.04278" lon="7.77202">
        <ele>307.3</ele>
        <time>2022-04-18T08:21:08Z</time>
      </trkpt>
      <trkpt lat="49.04267" lon="7.77192">
        <ele>305.9</ele>
        <time>2022-04-18T08:21:13Z</time>
      </trkpt>
      <trkpt lat="49.04262" lon="7.7718">
        <ele>305.1</ele>
        <time>2022-04-18T08:21:19Z</time>
      </trkpt>
      <trkpt lat="49.04255" lon="7.7717">
        <ele>304.3</ele>
        <time>2022-04-18T08:21:27Z</time>
      </trkpt>
      <trkpt lat="49.04255" lon="7.77169">
        <ele>304.3</ele>
        <time>2022-04-18T08:21:29Z</time>
      </trkpt>
      <trkpt lat="49.04254" lon="7.77168">
        <ele>304.2</ele>
        <time>2022-04-18T08:21:30Z</time>
      </trkpt>
      <trkpt lat="49.04245" lon="7.77163">
        <ele>303.5</ele>
        <time>2022-04-18T08:21:36Z</time>
      </trkpt>
      <trkpt lat="49.04238" lon="7.77153">
        <ele>302.8</ele>
        <time>2022-04-18T08:21:46Z</time>
      </trkpt>
      <trkpt lat="49.04229" lon="7.77144">
        <ele>302</ele>
        <time>2022-04-18T08:21:57Z</time>
      </trkpt>
      <trkpt lat="49.04222" lon="7.77135">
        <ele>301.1</ele>
        <time>2022-04-18T08:22:02Z</time>
      </trkpt>
      <trkpt lat="49.04215" lon="7.77126">
        <ele>300.3</ele>
        <time>2022-04-18T08:22:08Z</time>
      </trkpt>
      <trkpt lat="49.04207" lon="7.7712">
        <ele>299.4</ele>
        <time>2022-04-18T08:22:17Z</time>
      </trkpt>
      <trkpt lat="49.04199" lon="7.77109">
        <ele>298.2</ele>
        <time>2022-04-18T08:22:24Z</time>
      </trkpt>
      <trkpt lat="49.04194" lon="7.771">
        <ele>297.3</ele>
        <time>2022-04-18T08:22:36Z</time>
      </trkpt>
      <trkpt lat="49.04193" lon="7.77099">
        <ele>297.1</ele>
        <time>2022-04-18T08:22:37Z</time>
      </trkpt>
      <trkpt lat="49.04188" lon="7.77087">
        <ele>295.9</ele>
        <time>2022-04-18T08:22:42Z</time>
      </trkpt>
      <trkpt lat="49.04181" lon="7.77076">
        <ele>294.7</ele>
        <time>2022-04-18T08:22:48Z</time>
      </trkpt>
      <trkpt lat="49.04176" lon="7.77063">
        <ele>293.5</ele>
        <time>2022-04-18T08:22:54Z</time>
      </trkpt>
      <trkpt lat="49.04169" lon="7.77054">
        <ele>292.4</ele>
        <time>2022-04-18T08:23:02Z</time>
      </trkpt>
      <trkpt lat="49.04162" lon="7.77042">
        <ele>291.3</ele>
        <time>2022-04-18T08:23:09Z</time>
      </trkpt>
      <trkpt lat="49.04155" lon="7.77031">
        <ele>290</ele>
        <time>2022-04-18T08:23:17Z</time>
      </trkpt>
      <trkpt lat="49.04147" lon="7.77024">
        <ele>288.7</ele>
        <time>2022-04-18T08:23:25Z</time>
      </trkpt>
      <trkpt lat="49.04141" lon="7.77011">
        <ele>287.2</ele>
        <time>2022-04-18T08:23:32Z</time>
      </trkpt>
      <trkpt lat="49.04135" lon="7.77">
        <ele>285.8</ele>
        <time>2022-04-18T08:23:38Z</time>
      </trkpt>
      <trkpt lat="49.04128" lon="7.76988">
        <ele>284.2</ele>
        <time>2022-04-18T08:23:45Z</time>
      </trkpt>
      <trkpt lat="49.04124" lon="7.76976">
        <ele>282.8</ele>
        <time>2022-04-18T08:23:52Z</time>
      </trkpt>
      <trkpt lat="49.0412" lon="7.76963">
        <ele>281.4</ele>
        <time>2022-04-18T08:24:01Z</time>
      </trkpt>
      <trkpt lat="49.04114" lon="7.7695">
        <ele>280.1</ele>
        <time>2022-04-18T08:24:12Z</time>
      </trkpt>
      <trkpt lat="49.04107" lon="7.7694">
        <ele>278.9</ele>
        <time>2022-04-18T08:24:19Z</time>
      </trkpt>
      <trkpt lat="49.04104" lon="7.76931">
        <ele>278.2</ele>
        <time>2022-04-18T08:24:26Z</time>
      </trkpt>
      <trkpt lat="49.04104" lon="7.76931">
        <ele>278.2</ele>
        <time>2022-04-18T08:24:27Z</time>
      </trkpt>
      <trkpt lat="49.04097" lon="7.76922">
        <ele>277.1</ele>
        <time>2022-04-18T08:24:33Z</time>
      </trkpt>
      <trkpt lat="49.04091" lon="7.76909">
        <ele>276</ele>
        <time>2022-04-18T08:24:41Z</time>
      </trkpt>
      <trkpt lat="49.04084" lon="7.76899">
        <ele>275.1</ele>
        <time>2022-04-18T08:24:47Z</time>
      </trkpt>
      <trkpt lat="49.04077" lon="7.76889">
        <ele>274.3</ele>
        <time>2022-04-18T08:24:51Z</time>
      </trkpt>
      <trkpt lat="49.04069" lon="7.7688">
        <ele>273.5</ele>
        <time>2022-04-18T08:24:57Z</time>
      </trkpt>
      <trkpt lat="49.04063" lon="7.76868">
        <ele>272.6</ele>
        <time>2022-04-18T08:25:05Z</time>
      </trkpt>
      <trkpt lat="49.04052" lon="7.76864">
        <ele>271.5</ele>
        <time>2022-04-18T08:25:10Z</time>
      </trkpt>
      <trkpt lat="49.04043" lon="7.76854">
        <ele>270</ele>
        <time>2022-04-18T08:25:17Z</time>
      </trkpt>
      <trkpt lat="49.04039" lon="7.76845">
        <ele>268.8</ele>
        <time>2022-04-18T08:25:26Z</time>
      </trkpt>
      <trkpt lat="49.04038" lon="7.76843">
        <ele>268.6</ele>
        <time>2022-04-18T08:25:27Z</time>
      </trkpt>
      <trkpt lat="49.04033" lon="7.76831">
        <ele>267</ele>
        <time>2022-04-18T08:25:34Z</time>
      </trkpt>
      <trkpt lat="49.04027" lon="7.76816">
        <ele>265.1</ele>
        <time>2022-04-18T08:25:40Z</time>
      </trkpt>
      <trkpt lat="49.04019" lon="7.76807">
        <ele>263.7</ele>
        <time>2022-04-18T08:25:46Z</time>
      </trkpt>
      <trkpt lat="49.04011" lon="7.76798">
        <ele>262.1</ele>
        <time>2022-04-18T08:25:52Z</time>
      </trkpt>
      <trkpt lat="49.04002" lon="7.76792">
        <ele>260.5</ele>
        <time>2022-04-18T08:25:58Z</time>
      </trkpt>
      <trkpt lat="49.03992" lon="7.76793">
        <ele>258.9</ele>
        <time>2022-04-18T08:26:05Z</time>
      </trkpt>
      <trkpt lat="49.03983" lon="7.76798">
        <ele>257.5</ele>
        <time>2022-04-18T08:26:10Z</time>
      </trkpt>
      <trkpt lat="49.03975" lon="7.76807">
        <ele>256</ele>
        <time>2022-04-18T08:26:16Z</time>
      </trkpt>
      <trkpt lat="49.03966" lon="7.7681">
        <ele>254.7</ele>
        <time>2022-04-18T08:26:24Z</time>
      </trkpt>
      <trkpt lat="49.03959" lon="7.7682">
        <ele>253.4</ele>
        <time>2022-04-18T08:26:31Z</time>
      </trkpt>
      <trkpt lat="49.03951" lon="7.76827">
        <ele>251.9</ele>
        <time>2022-04-18T08:26:40Z</time>
      </trkpt>
      <trkpt lat="49.03941" lon="7.76832">
        <ele>250.2</ele>
        <time>2022-04-18T08:26:49Z</time>
      </trkpt>
      <trkpt lat="49.03931" lon="7.76838">
        <ele>248.7</ele>
        <time>2022-04-18T08:26:56Z</time>
      </trkpt>
      <trkpt lat="49.03923" lon="7.76844">
        <ele>247.3</ele>
        <time>2022-04-18T08:27:03Z</time>
      </trkpt>
      <trkpt lat="49.03913" lon="7.76845">
        <ele>246</ele>
        <time>2022-04-18T08:27:11Z</time>
      </trkpt>
      <trkpt lat="49.03905" lon="7.76851">
        <ele>244.9</ele>
        <time>2022-04-18T08:27:19Z</time>
      </trkpt>
      <trkpt lat="49.03895" lon="7.76851">
        <ele>243.7</ele>
        <time>2022-04-18T08:27:23Z</time>
      </trkpt>
      <trkpt lat="49.03886" lon="7.7685">
        <ele>242.7</ele>
        <time>2022-04-18T08:27:28Z</time>
      </trkpt>
      <trkpt lat="49.03878" lon="7.76858">
        <ele>241.5</ele>
        <time>2022-04-18T08:27:34Z</time>
      </trkpt>
      <trkpt lat="49.03868" lon="7.76857">
        <ele>240.3</ele>
        <time>2022-04-18T08:27:38Z</time>
      </trkpt>
      <trkpt lat="49.03858" lon="7.76861">
        <ele>238.8</ele>
        <time>2022-04-18T08:27:44Z</time>
      </trkpt>
      <trkpt lat="49.03859" lon="7.76847">
        <ele>242.3</ele>
        <time>2022-04-18T08:28:04Z</time>
      </trkpt>
      <trkpt lat="49.03867" lon="7.76837">
        <ele>244.7</ele>
        <time>2022-04-18T08:28:12Z</time>
      </trkpt>
      <trkpt lat="49.03872" lon="7.76825">
        <ele>247.2</ele>
        <time>2022-04-18T08:28:19Z</time>
      </trkpt>
      <trkpt lat="49.0388" lon="7.76815">
        <ele>248.3</ele>
        <time>2022-04-18T08:28:26Z</time>
      </trkpt>
      <trkpt lat="49.03889" lon="7.76809">
        <ele>248.3</ele>
        <time>2022-04-18T08:28:34Z</time>
      </trkpt>
      <trkpt lat="49.03893" lon="7.76801">
        <ele>248.5</ele>
        <time>2022-04-18T08:28:41Z</time>
      </trkpt>
      <trkpt lat="49.03894" lon="7.76801">
        <ele>248.5</ele>
        <time>2022-04-18T08:28:42Z</time>
      </trkpt>
      <trkpt lat="49.03903" lon="7.76799">
        <ele>248.9</ele>
        <time>2022-04-18T08:28:51Z</time>
      </trkpt>
      <trkpt lat="49.03911" lon="7.76791">
        <ele>249</ele>
        <time>2022-04-18T08:28:58Z</time>
      </trkpt>
      <trkpt lat="49.03918" lon="7.76779">
        <ele>248.7</ele>
        <time>2022-04-18T08:29:07Z</time>
      </trkpt>
      <trkpt lat="49.03922" lon="7.76767">
        <ele>247.9</ele>
        <time>2022-04-18T08:29:13Z</time>
      </trkpt>
      <trkpt lat="49.03926" lon="7.76754">
        <ele>246.7</ele>
        <time>2022-04-18T08:29:20Z</time>
      </trkpt>
      <trkpt lat="49.03929" lon="7.7674">
        <ele>245.2</ele>
        <time>2022-04-18T08:29:27Z</time>
      </trkpt>
      <trkpt lat="49.03931" lon="7.76725">
        <ele>243.1</ele>
        <time>2022-04-18T08:29:40Z</time>
      </trkpt>
      <trkpt lat="49.03928" lon="7.76711">
        <ele>240.5</ele>
        <time>2022-04-18T08:29:46Z</time>
      </trkpt>
      <trkpt lat="49.03922" lon="7.76701">
        <ele>238.1</ele>
        <time>2022-04-18T08:29:57Z</time>
      </trkpt>
      <trkpt lat="49.03922" lon="7.76686">
        <ele>235.6</ele>
        <time>2022-04-18T08:30:04Z</time>
      </trkpt>
      <trkpt lat="49.0392" lon="7.76672">
        <ele>232.8</ele>
        <time>2022-04-18T08:30:11Z</time>
      </trkpt>
      <trkpt lat="49.03921" lon="7.76658">
        <ele>230.1</ele>
        <time>2022-04-18T08:30:24Z</time>
      </trkpt>
      <trkpt lat="49.03913" lon="7.76648">
        <ele>227.1</ele>
        <time>2022-04-18T08:30:31Z</time>
      </trkpt>
      <trkpt lat="49.03905" lon="7.7664">
        <ele>224.4</ele>
        <time>2022-04-18T08:30:34Z</time>
      </trkpt>
      <trkpt lat="49.03894" lon="7.76629">
        <ele>220.9</ele>
        <time>2022-04-18T08:30:37Z</time>
      </trkpt>
      <trkpt lat="49.03897" lon="7.76616">
        <ele>214</ele>
        <time>2022-04-18T08:30:48Z</time>
      </trkpt>
      <trkpt lat="49.03896" lon="7.76602">
        <ele>210.7</ele>
        <time>2022-04-18T08:30:56Z</time>
      </trkpt>
      <trkpt lat="49.03899" lon="7.76588">
        <ele>210.6</ele>
        <time>2022-04-18T08:31:01Z</time>
      </trkpt>
      <trkpt lat="49.03899" lon="7.76574">
        <ele>210.6</ele>
        <time>2022-04-18T08:31:10Z</time>
      </trkpt>
      <trkpt lat="49.03893" lon="7.76563">
        <ele>210.6</ele>
        <time>2022-04-18T08:31:21Z</time>
      </trkpt>
      <trkpt lat="49.03886" lon="7.76551">
        <ele>210.6</ele>
        <time>2022-04-18T08:31:30Z</time>
      </trkpt>
      <trkpt lat="49.03879" lon="7.76539">
        <ele>210.6</ele>
        <time>2022-04-18T08:31:36Z</time>
      </trkpt>
      <trkpt lat="49.03871" lon="7.76529">
        <ele>210.5</ele>
        <time>2022-04-18T08:31:45Z</time>
      </trkpt>
      <trkpt lat="49.03862" lon="7.76521">
        <ele>210.4</ele>
        <time>2022-04-18T08:31:51Z</time>
      </trkpt>
      <trkpt lat="49.03858" lon="7.76508">
        <ele>210.2</ele>
        <time>2022-04-18T08:31:59Z</time>
      </trkpt>
      <trkpt lat="49.03852" lon="7.76498">
        <ele>210.1</ele>
        <time>2022-04-18T08:32:08Z</time>
      </trkpt>
      <trkpt lat="49.03842" lon="7.76499">
        <ele>210</ele>
        <time>2022-04-18T08:32:21Z</time>
      </trkpt>
      <trkpt lat="49.03834" lon="7.76508">
        <ele>209.9</ele>
        <time>2022-04-18T08:32:30Z</time>
      </trkpt>
      <trkpt lat="49.03831" lon="7.76519">
        <ele>209.7</ele>
        <time>2022-04-18T08:32:39Z</time>
      </trkpt>
      <trkpt lat="49.03831" lon="7.76519">
        <ele>209.7</ele>
        <time>2022-04-18T08:32:42Z</time>
      </trkpt>
      <trkpt lat="49.03831" lon="7.76519">
        <ele>209.7</ele>
        <time>2022-04-18T08:32:46Z</time>
      </trkpt>
      <trkpt lat="49.03831" lon="7.7652">
        <ele>209.7</ele>
        <time>2022-04-18T08:32:49Z</time>
      </trkpt>
      <trkpt lat="49.03831" lon="7.7652">
        <ele>209.7</ele>
        <time>2022-04-18T08:32:51Z</time>
      </trkpt>
      <trkpt lat="49.03831" lon="7.7652">
        <ele>209.7</ele>
        <time>2022-04-18T08:32:52Z</time>
      </trkpt>
      <trkpt lat="49.03829" lon="7.76519">
        <ele>209.7</ele>
        <time>2022-04-18T08:33:00Z</time>
      </trkpt>
      <trkpt lat="49.03829" lon="7.76519">
        <ele>209.7</ele>
        <time>2022-04-18T08:33:10Z</time>
      </trkpt>
      <trkpt lat="49.0382" lon="7.76524">
        <ele>209.6</ele>
        <time>2022-04-18T08:33:16Z</time>
      </trkpt>
      <trkpt lat="49.03813" lon="7.76534">
        <ele>209.5</ele>
        <time>2022-04-18T08:33:23Z</time>
      </trkpt>
      <trkpt lat="49.03808" lon="7.76545">
        <ele>209.4</ele>
        <time>2022-04-18T08:33:28Z</time>
      </trkpt>
      <trkpt lat="49.038" lon="7.76556">
        <ele>209.3</ele>
        <time>2022-04-18T08:33:34Z</time>
      </trkpt>
      <trkpt lat="49.03792" lon="7.76563">
        <ele>209.2</ele>
        <time>2022-04-18T08:33:39Z</time>
      </trkpt>
      <trkpt lat="49.03783" lon="7.76571">
        <ele>209.1</ele>
        <time>2022-04-18T08:33:47Z</time>
      </trkpt>
      <trkpt lat="49.0378" lon="7.76584">
        <ele>209</ele>
        <time>2022-04-18T08:33:55Z</time>
      </trkpt>
      <trkpt lat="49.03772" lon="7.76592">
        <ele>209</ele>
        <time>2022-04-18T08:34:03Z</time>
      </trkpt>
      <trkpt lat="49.03765" lon="7.76602">
        <ele>208.9</ele>
        <time>2022-04-18T08:34:12Z</time>
      </trkpt>
      <trkpt lat="49.03756" lon="7.76604">
        <ele>208.8</ele>
        <time>2022-04-18T08:34:17Z</time>
      </trkpt>
      <trkpt lat="49.03747" lon="7.7661">
        <ele>208.7</ele>
        <time>2022-04-18T08:34:25Z</time>
      </trkpt>
      <trkpt lat="49.03739" lon="7.76618">
        <ele>208.6</ele>
        <time>2022-04-18T08:34:33Z</time>
      </trkpt>
      <trkpt lat="49.03731" lon="7.76626">
        <ele>208.6</ele>
        <time>2022-04-18T08:34:42Z</time>
      </trkpt>
      <trkpt lat="49.03721" lon="7.76628">
        <ele>208.4</ele>
        <time>2022-04-18T08:34:47Z</time>
      </trkpt>
      <trkpt lat="49.03712" lon="7.76631">
        <ele>208.3</ele>
        <time>2022-04-18T08:34:55Z</time>
      </trkpt>
      <trkpt lat="49.03702" lon="7.76631">
        <ele>208.1</ele>
        <time>2022-04-18T08:35:03Z</time>
      </trkpt>
      <trkpt lat="49.03693" lon="7.7663">
        <ele>208</ele>
        <time>2022-04-18T08:35:09Z</time>
      </trkpt>
      <trkpt lat="49.03684" lon="7.76625">
        <ele>207.9</ele>
        <time>2022-04-18T08:35:15Z</time>
      </trkpt>
      <trkpt lat="49.03674" lon="7.76624">
        <ele>207.8</ele>
        <time>2022-04-18T08:35:22Z</time>
      </trkpt>
      <trkpt lat="49.03664" lon="7.76622">
        <ele>207.8</ele>
        <time>2022-04-18T08:35:29Z</time>
      </trkpt>
      <trkpt lat="49.03658" lon="7.76626">
        <ele>207.8</ele>
        <time>2022-04-18T08:35:36Z</time>
      </trkpt>
      <trkpt lat="49.03657" lon="7.76626">
        <ele>207.8</ele>
        <time>2022-04-18T08:35:37Z</time>
      </trkpt>
      <trkpt lat="49.03652" lon="7.76629">
        <ele>207.8</ele>
        <time>2022-04-18T08:35:45Z</time>
      </trkpt>
      <trkpt lat="49.03652" lon="7.76629">
        <ele>207.8</ele>
        <time>2022-04-18T08:35:47Z</time>
      </trkpt>
      <trkpt lat="49.03644" lon="7.76624">
        <ele>207.7</ele>
        <time>2022-04-18T08:35:54Z</time>
      </trkpt>
      <trkpt lat="49.03634" lon="7.76621">
        <ele>207.7</ele>
        <time>2022-04-18T08:36:01Z</time>
      </trkpt>
      <trkpt lat="49.03625" lon="7.76623">
        <ele>207.6</ele>
        <time>2022-04-18T08:36:10Z</time>
      </trkpt>
      <trkpt lat="49.03615" lon="7.7662">
        <ele>207.6</ele>
        <time>2022-04-18T08:36:17Z</time>
      </trkpt>
      <trkpt lat="49.03606" lon="7.76622">
        <ele>207.5</ele>
        <time>2022-04-18T08:36:23Z</time>
      </trkpt>
      <trkpt lat="49.03597" lon="7.76621">
        <ele>207.5</ele>
        <time>2022-04-18T08:36:28Z</time>
      </trkpt>
      <trkpt lat="49.03587" lon="7.76629">
        <ele>207.5</ele>
        <time>2022-04-18T08:36:38Z</time>
      </trkpt>
      <trkpt lat="49.03587" lon="7.76628">
        <ele>207.5</ele>
        <time>2022-04-18T08:36:40Z</time>
      </trkpt>
      <trkpt lat="49.03587" lon="7.76628">
        <ele>207.5</ele>
        <time>2022-04-18T08:36:43Z</time>
      </trkpt>
      <trkpt lat="49.03587" lon="7.76628">
        <ele>207.5</ele>
        <time>2022-04-18T08:36:44Z</time>
      </trkpt>
      <trkpt lat="49.03586" lon="7.76628">
        <ele>207.5</ele>
        <time>2022-04-18T08:36:45Z</time>
      </trkpt>
      <trkpt lat="49.03582" lon="7.76632">
        <ele>207.5</ele>
        <time>2022-04-18T08:36:55Z</time>
      </trkpt>
      <trkpt lat="49.03582" lon="7.76632">
        <ele>207.5</ele>
        <time>2022-04-18T08:37:00Z</time>
      </trkpt>
      <trkpt lat="49.03585" lon="7.76634">
        <ele>207.5</ele>
        <time>2022-04-18T08:37:02Z</time>
      </trkpt>
      <trkpt lat="49.03584" lon="7.76634">
        <ele>207.5</ele>
        <time>2022-04-18T08:37:07Z</time>
      </trkpt>
      <trkpt lat="49.03584" lon="7.76634">
        <ele>207.5</ele>
        <time>2022-04-18T08:37:08Z</time>
      </trkpt>
      <trkpt lat="49.03584" lon="7.76634">
        <ele>207.5</ele>
        <time>2022-04-18T08:37:09Z</time>
      </trkpt>
      <trkpt lat="49.03581" lon="7.76633">
        <ele>207.5</ele>
        <time>2022-04-18T08:37:17Z</time>
      </trkpt>
      <trkpt lat="49.03582" lon="7.76634">
        <ele>207.5</ele>
        <time>2022-04-18T08:37:19Z</time>
      </trkpt>
      <trkpt lat="49.03579" lon="7.76629">
        <ele>207.5</ele>
        <time>2022-04-18T08:37:32Z</time>
      </trkpt>
      <trkpt lat="49.03579" lon="7.76629">
        <ele>207.5</ele>
        <time>2022-04-18T08:37:33Z</time>
      </trkpt>
      <trkpt lat="49.03579" lon="7.76628">
        <ele>207.5</ele>
        <time>2022-04-18T08:37:36Z</time>
      </trkpt>
      <trkpt lat="49.03579" lon="7.76628">
        <ele>207.5</ele>
        <time>2022-04-18T08:37:39Z</time>
      </trkpt>
      <trkpt lat="49.03579" lon="7.76628">
        <ele>207.5</ele>
        <time>2022-04-18T08:37:41Z</time>
      </trkpt>
      <trkpt lat="49.03579" lon="7.76628">
        <ele>207.5</ele>
        <time>2022-04-18T08:37:42Z</time>
      </trkpt>
      <trkpt lat="49.03577" lon="7.76628">
        <ele>207.5</ele>
        <time>2022-04-18T08:37:48Z</time>
      </trkpt>
      <trkpt lat="49.03576" lon="7.76628">
        <ele>207.5</ele>
        <time>2022-04-18T08:37:51Z</time>
      </trkpt>
      <trkpt lat="49.03568" lon="7.76634">
        <ele>207.6</ele>
        <time>2022-04-18T08:37:59Z</time>
      </trkpt>
      <trkpt lat="49.0356" lon="7.76642">
        <ele>207.7</ele>
        <time>2022-04-18T08:38:07Z</time>
      </trkpt>
      <trkpt lat="49.03552" lon="7.76649">
        <ele>207.8</ele>
        <time>2022-04-18T08:38:14Z</time>
      </trkpt>
      <trkpt lat="49.03542" lon="7.76654">
        <ele>207.8</ele>
        <time>2022-04-18T08:38:22Z</time>
      </trkpt>
      <trkpt lat="49.03533" lon="7.76657">
        <ele>207.9</ele>
        <time>2022-04-18T08:38:30Z</time>
      </trkpt>
      <trkpt lat="49.03524" lon="7.7666">
        <ele>208</ele>
        <time>2022-04-18T08:38:37Z</time>
      </trkpt>
      <trkpt lat="49.03517" lon="7.76669">
        <ele>208</ele>
        <time>2022-04-18T08:38:45Z</time>
      </trkpt>
      <trkpt lat="49.03511" lon="7.7668">
        <ele>208.1</ele>
        <time>2022-04-18T08:38:53Z</time>
      </trkpt>
      <trkpt lat="49.03503" lon="7.76688">
        <ele>208.1</ele>
        <time>2022-04-18T08:39:02Z</time>
      </trkpt>
      <trkpt lat="49.03496" lon="7.76697">
        <ele>208.1</ele>
        <time>2022-04-18T08:39:10Z</time>
      </trkpt>
      <trkpt lat="49.03488" lon="7.76704">
        <ele>208.2</ele>
        <time>2022-04-18T08:39:18Z</time>
      </trkpt>
      <trkpt lat="49.0348" lon="7.76713">
        <ele>208.2</ele>
        <time>2022-04-18T08:39:26Z</time>
      </trkpt>
      <trkpt lat="49.03471" lon="7.76716">
        <ele>208.2</ele>
        <time>2022-04-18T08:39:34Z</time>
      </trkpt>
      <trkpt lat="49.03463" lon="7.76722">
        <ele>208.2</ele>
        <time>2022-04-18T08:39:42Z</time>
      </trkpt>
      <trkpt lat="49.03453" lon="7.76727">
        <ele>208.3</ele>
        <time>2022-04-18T08:39:52Z</time>
      </trkpt>
      <trkpt lat="49.03444" lon="7.76732">
        <ele>208.3</ele>
        <time>2022-04-18T08:40:01Z</time>
      </trkpt>
      <trkpt lat="49.03434" lon="7.76734">
        <ele>208.3</ele>
        <time>2022-04-18T08:40:07Z</time>
      </trkpt>
      <trkpt lat="49.03425" lon="7.76739">
        <ele>208.2</ele>
        <time>2022-04-18T08:40:13Z</time>
      </trkpt>
      <trkpt lat="49.0342" lon="7.7675">
        <ele>208.2</ele>
        <time>2022-04-18T08:40:24Z</time>
      </trkpt>
      <trkpt lat="49.03409" lon="7.76751">
        <ele>208.2</ele>
        <time>2022-04-18T08:40:30Z</time>
      </trkpt>
      <trkpt lat="49.03399" lon="7.7675">
        <ele>208.2</ele>
        <time>2022-04-18T08:40:37Z</time>
      </trkpt>
      <trkpt lat="49.0339" lon="7.76749">
        <ele>208.2</ele>
        <time>2022-04-18T08:40:43Z</time>
      </trkpt>
      <trkpt lat="49.0338" lon="7.76749">
        <ele>208.3</ele>
        <time>2022-04-18T08:40:50Z</time>
      </trkpt>
      <trkpt lat="49.03371" lon="7.76749">
        <ele>208.4</ele>
        <time>2022-04-18T08:40:57Z</time>
      </trkpt>
      <trkpt lat="49.03361" lon="7.76745">
        <ele>208.5</ele>
        <time>2022-04-18T08:41:06Z</time>
      </trkpt>
      <trkpt lat="49.03351" lon="7.76742">
        <ele>208.6</ele>
        <time>2022-04-18T08:41:14Z</time>
      </trkpt>
      <trkpt lat="49.03342" lon="7.7674">
        <ele>208.5</ele>
        <time>2022-04-18T08:41:23Z</time>
      </trkpt>
      <trkpt lat="49.03332" lon="7.76737">
        <ele>208.5</ele>
        <time>2022-04-18T08:41:31Z</time>
      </trkpt>
      <trkpt lat="49.03325" lon="7.76729">
        <ele>208.5</ele>
        <time>2022-04-18T08:41:37Z</time>
      </trkpt>
      <trkpt lat="49.03316" lon="7.76722">
        <ele>208.5</ele>
        <time>2022-04-18T08:41:42Z</time>
      </trkpt>
      <trkpt lat="49.03307" lon="7.76716">
        <ele>208.5</ele>
        <time>2022-04-18T08:41:48Z</time>
      </trkpt>
      <trkpt lat="49.03298" lon="7.76707">
        <ele>208.5</ele>
        <time>2022-04-18T08:41:55Z</time>
      </trkpt>
      <trkpt lat="49.03289" lon="7.76703">
        <ele>208.6</ele>
        <time>2022-04-18T08:42:02Z</time>
      </trkpt>
      <trkpt lat="49.0328" lon="7.76699">
        <ele>208.6</ele>
        <time>2022-04-18T08:42:10Z</time>
      </trkpt>
      <trkpt lat="49.03273" lon="7.7669">
        <ele>208.7</ele>
        <time>2022-04-18T08:42:18Z</time>
      </trkpt>
      <trkpt lat="49.03266" lon="7.7668">
        <ele>208.9</ele>
        <time>2022-04-18T08:42:25Z</time>
      </trkpt>
      <trkpt lat="49.0326" lon="7.7667">
        <ele>209</ele>
        <time>2022-04-18T08:42:34Z</time>
      </trkpt>
      <trkpt lat="49.03252" lon="7.76661">
        <ele>209</ele>
        <time>2022-04-18T08:42:41Z</time>
      </trkpt>
      <trkpt lat="49.03242" lon="7.76656">
        <ele>208.9</ele>
        <time>2022-04-18T08:42:49Z</time>
      </trkpt>
      <trkpt lat="49.03233" lon="7.76653">
        <ele>208.9</ele>
        <time>2022-04-18T08:42:58Z</time>
      </trkpt>
      <trkpt lat="49.03226" lon="7.76643">
        <ele>208.8</ele>
        <time>2022-04-18T08:43:08Z</time>
      </trkpt>
      <trkpt lat="49.0322" lon="7.76636">
        <ele>208.8</ele>
        <time>2022-04-18T08:43:16Z</time>
      </trkpt>
      <trkpt lat="49.03219" lon="7.76635">
        <ele>208.9</ele>
        <time>2022-04-18T08:43:17Z</time>
      </trkpt>
      <trkpt lat="49.0321" lon="7.76629">
        <ele>208.9</ele>
        <time>2022-04-18T08:43:24Z</time>
      </trkpt>
      <trkpt lat="49.03201" lon="7.76622">
        <ele>209</ele>
        <time>2022-04-18T08:43:35Z</time>
      </trkpt>
      <trkpt lat="49.03193" lon="7.76615">
        <ele>209</ele>
        <time>2022-04-18T08:43:43Z</time>
      </trkpt>
      <trkpt lat="49.03184" lon="7.76621">
        <ele>209.1</ele>
        <time>2022-04-18T08:43:54Z</time>
      </trkpt>
      <trkpt lat="49.03175" lon="7.76619">
        <ele>215.1</ele>
        <time>2022-04-18T08:44:01Z</time>
      </trkpt>
      <trkpt lat="49.03173" lon="7.76622">
        <ele>215.6</ele>
        <time>2022-04-18T08:44:13Z</time>
      </trkpt>
      <trkpt lat="49.03174" lon="7.76622">
        <ele>215.6</ele>
        <time>2022-04-18T08:44:14Z</time>
      </trkpt>
      <trkpt lat="49.03174" lon="7.76622">
        <ele>215.6</ele>
        <time>2022-04-18T08:44:15Z</time>
      </trkpt>
      <trkpt lat="49.03174" lon="7.76623">
        <ele>215.7</ele>
        <time>2022-04-18T08:44:19Z</time>
      </trkpt>
      <trkpt lat="49.03174" lon="7.76623">
        <ele>215.7</ele>
        <time>2022-04-18T08:44:20Z</time>
      </trkpt>
      <trkpt lat="49.03173" lon="7.76624">
        <ele>215.8</ele>
        <time>2022-04-18T08:44:34Z</time>
      </trkpt>
      <trkpt lat="49.03173" lon="7.76624">
        <ele>215.8</ele>
        <time>2022-04-18T08:44:36Z</time>
      </trkpt>
      <trkpt lat="49.03173" lon="7.76625">
        <ele>215.9</ele>
        <time>2022-04-18T08:45:10Z</time>
      </trkpt>
      <trkpt lat="49.03173" lon="7.76625">
        <ele>215.9</ele>
        <time>2022-04-18T08:45:11Z</time>
      </trkpt>
      <trkpt lat="49.03173" lon="7.76625">
        <ele>215.9</ele>
        <time>2022-04-18T08:45:14Z</time>
      </trkpt>
      <trkpt lat="49.03173" lon="7.76625">
        <ele>216</ele>
        <time>2022-04-18T08:45:16Z</time>
      </trkpt>
      <trkpt lat="49.03173" lon="7.76625">
        <ele>216</ele>
        <time>2022-04-18T08:45:22Z</time>
      </trkpt>
      <trkpt lat="49.03173" lon="7.76625">
        <ele>216.1</ele>
        <time>2022-04-18T08:45:23Z</time>
      </trkpt>
      <trkpt lat="49.03173" lon="7.76625">
        <ele>216.1</ele>
        <time>2022-04-18T08:45:24Z</time>
      </trkpt>
      <trkpt lat="49.03173" lon="7.76625">
        <ele>216.1</ele>
        <time>2022-04-18T08:45:25Z</time>
      </trkpt>
      <trkpt lat="49.03173" lon="7.76626">
        <ele>216.2</ele>
        <time>2022-04-18T08:45:27Z</time>
      </trkpt>
      <trkpt lat="49.03173" lon="7.76626">
        <ele>216.2</ele>
        <time>2022-04-18T08:45:28Z</time>
      </trkpt>
      <trkpt lat="49.03173" lon="7.76626">
        <ele>216.2</ele>
        <time>2022-04-18T08:45:29Z</time>
      </trkpt>
      <trkpt lat="49.03173" lon="7.76626">
        <ele>216.2</ele>
        <time>2022-04-18T08:45:30Z</time>
      </trkpt>
      <trkpt lat="49.03172" lon="7.76626">
        <ele>216.3</ele>
        <time>2022-04-18T08:45:38Z</time>
      </trkpt>
      <trkpt lat="49.03172" lon="7.76626">
        <ele>216.3</ele>
        <time>2022-04-18T08:45:39Z</time>
      </trkpt>
      <trkpt lat="49.03172" lon="7.76627">
        <ele>216.4</ele>
        <time>2022-04-18T08:45:55Z</time>
      </trkpt>
      <trkpt lat="49.03172" lon="7.76627">
        <ele>216.4</ele>
        <time>2022-04-18T08:45:56Z</time>
      </trkpt>
      <trkpt lat="49.03172" lon="7.76627">
        <ele>216.4</ele>
        <time>2022-04-18T08:46:00Z</time>
      </trkpt>
      <trkpt lat="49.03172" lon="7.76627">
        <ele>216.4</ele>
        <time>2022-04-18T08:46:01Z</time>
      </trkpt>
      <trkpt lat="49.03172" lon="7.76628">
        <ele>216.5</ele>
        <time>2022-04-18T08:46:05Z</time>
      </trkpt>
      <trkpt lat="49.03173" lon="7.76619">
        <ele>217.6</ele>
        <time>2022-04-18T08:46:28Z</time>
      </trkpt>
      <trkpt lat="49.03173" lon="7.76618">
        <ele>217.7</ele>
        <time>2022-04-18T08:46:31Z</time>
      </trkpt>
      <trkpt lat="49.03181" lon="7.76625">
        <ele>219.5</ele>
        <time>2022-04-18T08:46:42Z</time>
      </trkpt>
      <trkpt lat="49.03189" lon="7.76631">
        <ele>221.3</ele>
        <time>2022-04-18T08:46:51Z</time>
      </trkpt>
      <trkpt lat="49.03193" lon="7.76619">
        <ele>209.1</ele>
        <time>2022-04-18T08:47:06Z</time>
      </trkpt>
      <trkpt lat="49.03185" lon="7.76612">
        <ele>209</ele>
        <time>2022-04-18T08:47:13Z</time>
      </trkpt>
      <trkpt lat="49.03178" lon="7.76603">
        <ele>209</ele>
        <time>2022-04-18T08:47:18Z</time>
      </trkpt>
      <trkpt lat="49.03171" lon="7.76592">
        <ele>209</ele>
        <time>2022-04-18T08:47:23Z</time>
      </trkpt>
      <trkpt lat="49.03167" lon="7.76579">
        <ele>209</ele>
        <time>2022-04-18T08:47:29Z</time>
      </trkpt>
      <trkpt lat="49.0316" lon="7.76569">
        <ele>209</ele>
        <time>2022-04-18T08:47:38Z</time>
      </trkpt>
      <trkpt lat="49.03154" lon="7.76556">
        <ele>208.9</ele>
        <time>2022-04-18T08:47:46Z</time>
      </trkpt>
      <trkpt lat="49.03154" lon="7.7654">
        <ele>208.8</ele>
        <time>2022-04-18T08:47:54Z</time>
      </trkpt>
      <trkpt lat="49.03154" lon="7.76525">
        <ele>208.7</ele>
        <time>2022-04-18T08:48:00Z</time>
      </trkpt>
      <trkpt lat="49.03148" lon="7.76513">
        <ele>208.6</ele>
        <time>2022-04-18T08:48:07Z</time>
      </trkpt>
      <trkpt lat="49.03143" lon="7.76499">
        <ele>208.4</ele>
        <time>2022-04-18T08:48:13Z</time>
      </trkpt>
      <trkpt lat="49.03141" lon="7.76483">
        <ele>208.3</ele>
        <time>2022-04-18T08:48:21Z</time>
      </trkpt>
      <trkpt lat="49.03138" lon="7.76469">
        <ele>208.2</ele>
        <time>2022-04-18T08:48:27Z</time>
      </trkpt>
      <trkpt lat="49.03143" lon="7.76457">
        <ele>208.1</ele>
        <time>2022-04-18T08:48:33Z</time>
      </trkpt>
      <trkpt lat="49.03146" lon="7.76444">
        <ele>208</ele>
        <time>2022-04-18T08:48:39Z</time>
      </trkpt>
      <trkpt lat="49.0315" lon="7.76431">
        <ele>207.9</ele>
        <time>2022-04-18T08:48:46Z</time>
      </trkpt>
      <trkpt lat="49.0315" lon="7.76416">
        <ele>207.8</ele>
        <time>2022-04-18T08:48:53Z</time>
      </trkpt>
      <trkpt lat="49.03151" lon="7.76401">
        <ele>207.8</ele>
        <time>2022-04-18T08:49:01Z</time>
      </trkpt>
      <trkpt lat="49.03154" lon="7.76388">
        <ele>207.8</ele>
        <time>2022-04-18T08:49:09Z</time>
      </trkpt>
      <trkpt lat="49.0316" lon="7.76376">
        <ele>207.8</ele>
        <time>2022-04-18T08:49:15Z</time>
      </trkpt>
      <trkpt lat="49.03166" lon="7.76364">
        <ele>207.8</ele>
        <time>2022-04-18T08:49:22Z</time>
      </trkpt>
      <trkpt lat="49.03167" lon="7.76351">
        <ele>207.9</ele>
        <time>2022-04-18T08:49:29Z</time>
      </trkpt>
      <trkpt lat="49.03168" lon="7.76336">
        <ele>207.9</ele>
        <time>2022-04-18T08:49:36Z</time>
      </trkpt>
      <trkpt lat="49.03174" lon="7.76326">
        <ele>208</ele>
        <time>2022-04-18T08:49:43Z</time>
      </trkpt>
      <trkpt lat="49.03178" lon="7.76313">
        <ele>208.1</ele>
        <time>2022-04-18T08:49:53Z</time>
      </trkpt>
      <trkpt lat="49.03181" lon="7.76299">
        <ele>208.1</ele>
        <time>2022-04-18T08:50:01Z</time>
      </trkpt>
      <trkpt lat="49.03183" lon="7.76284">
        <ele>208.2</ele>
        <time>2022-04-18T08:50:09Z</time>
      </trkpt>
      <trkpt lat="49.03188" lon="7.76272">
        <ele>208.3</ele>
        <time>2022-04-18T08:50:15Z</time>
      </trkpt>
      <trkpt lat="49.03192" lon="7.76258">
        <ele>208.5</ele>
        <time>2022-04-18T08:50:23Z</time>
      </trkpt>
      <trkpt lat="49.03197" lon="7.76245">
        <ele>208.5</ele>
        <time>2022-04-18T08:50:31Z</time>
      </trkpt>
      <trkpt lat="49.03202" lon="7.76233">
        <ele>208.7</ele>
        <time>2022-04-18T08:50:40Z</time>
      </trkpt>
      <trkpt lat="49.03207" lon="7.7622">
        <ele>208.8</ele>
        <time>2022-04-18T08:50:46Z</time>
      </trkpt>
      <trkpt lat="49.03212" lon="7.76209">
        <ele>209</ele>
        <time>2022-04-18T08:50:52Z</time>
      </trkpt>
      <trkpt lat="49.03216" lon="7.76196">
        <ele>209.1</ele>
        <time>2022-04-18T08:50:59Z</time>
      </trkpt>
      <trkpt lat="49.03219" lon="7.76181">
        <ele>209.2</ele>
        <time>2022-04-18T08:51:06Z</time>
      </trkpt>
      <trkpt lat="49.03223" lon="7.76168">
        <ele>209.4</ele>
        <time>2022-04-18T08:51:13Z</time>
      </trkpt>
      <trkpt lat="49.03229" lon="7.76155">
        <ele>209.6</ele>
        <time>2022-04-18T08:51:21Z</time>
      </trkpt>
      <trkpt lat="49.03235" lon="7.76142">
        <ele>209.8</ele>
        <time>2022-04-18T08:51:28Z</time>
      </trkpt>
      <trkpt lat="49.03239" lon="7.76128">
        <ele>210</ele>
        <time>2022-04-18T08:51:35Z</time>
      </trkpt>
      <trkpt lat="49.03241" lon="7.76114">
        <ele>210.3</ele>
        <time>2022-04-18T08:51:44Z</time>
      </trkpt>
      <trkpt lat="49.03245" lon="7.761">
        <ele>210.8</ele>
        <time>2022-04-18T08:51:51Z</time>
      </trkpt>
      <trkpt lat="49.03254" lon="7.76093">
        <ele>211.3</ele>
        <time>2022-04-18T08:52:04Z</time>
      </trkpt>
      <trkpt lat="49.03263" lon="7.76097">
        <ele>213</ele>
        <time>2022-04-18T08:52:12Z</time>
      </trkpt>
      <trkpt lat="49.03272" lon="7.76101">
        <ele>214.5</ele>
        <time>2022-04-18T08:52:20Z</time>
      </trkpt>
      <trkpt lat="49.03281" lon="7.76104">
        <ele>216.2</ele>
        <time>2022-04-18T08:52:28Z</time>
      </trkpt>
      <trkpt lat="49.03291" lon="7.76106">
        <ele>217.9</ele>
        <time>2022-04-18T08:52:35Z</time>
      </trkpt>
      <trkpt lat="49.033" lon="7.76106">
        <ele>218.4</ele>
        <time>2022-04-18T08:52:42Z</time>
      </trkpt>
      <trkpt lat="49.03303" lon="7.76102">
        <ele>218.6</ele>
        <time>2022-04-18T08:53:01Z</time>
      </trkpt>
      <trkpt lat="49.03303" lon="7.76102">
        <ele>218.6</ele>
        <time>2022-04-18T08:53:02Z</time>
      </trkpt>
      <trkpt lat="49.03303" lon="7.76102">
        <ele>218.6</ele>
        <time>2022-04-18T08:53:03Z</time>
      </trkpt>
      <trkpt lat="49.03303" lon="7.76102">
        <ele>218.6</ele>
        <time>2022-04-18T08:53:12Z</time>
      </trkpt>
      <trkpt lat="49.03305" lon="7.76099">
        <ele>218.7</ele>
        <time>2022-04-18T08:53:21Z</time>
      </trkpt>
      <trkpt lat="49.03305" lon="7.76099">
        <ele>218.7</ele>
        <time>2022-04-18T08:53:29Z</time>
      </trkpt>
      <trkpt lat="49.03305" lon="7.76099">
        <ele>218.7</ele>
        <time>2022-04-18T08:53:30Z</time>
      </trkpt>
      <trkpt lat="49.03305" lon="7.76098">
        <ele>218.7</ele>
        <time>2022-04-18T08:53:44Z</time>
      </trkpt>
      <trkpt lat="49.03312" lon="7.76089">
        <ele>219</ele>
        <time>2022-04-18T08:53:57Z</time>
      </trkpt>
      <trkpt lat="49.03316" lon="7.76076">
        <ele>219.2</ele>
        <time>2022-04-18T08:54:03Z</time>
      </trkpt>
      <trkpt lat="49.03317" lon="7.76063">
        <ele>219.3</ele>
        <time>2022-04-18T08:54:10Z</time>
      </trkpt>
      <trkpt lat="49.0332" lon="7.76048">
        <ele>219.3</ele>
        <time>2022-04-18T08:54:16Z</time>
      </trkpt>
      <trkpt lat="49.0332" lon="7.76033">
        <ele>219.3</ele>
        <time>2022-04-18T08:54:24Z</time>
      </trkpt>
      <trkpt lat="49.03322" lon="7.7602">
        <ele>219.2</ele>
        <time>2022-04-18T08:54:31Z</time>
      </trkpt>
      <trkpt lat="49.03323" lon="7.76004">
        <ele>219.1</ele>
        <time>2022-04-18T08:54:39Z</time>
      </trkpt>
      <trkpt lat="49.03322" lon="7.7599">
        <ele>218.9</ele>
        <time>2022-04-18T08:54:46Z</time>
      </trkpt>
      <trkpt lat="49.0332" lon="7.75977">
        <ele>218.8</ele>
        <time>2022-04-18T08:54:53Z</time>
      </trkpt>
      <trkpt lat="49.03318" lon="7.75963">
        <ele>218.8</ele>
        <time>2022-04-18T08:55:00Z</time>
      </trkpt>
      <trkpt lat="49.03319" lon="7.75948">
        <ele>219</ele>
        <time>2022-04-18T08:55:08Z</time>
      </trkpt>
      <trkpt lat="49.03314" lon="7.75934">
        <ele>219.3</ele>
        <time>2022-04-18T08:55:17Z</time>
      </trkpt>
      <trkpt lat="49.03313" lon="7.7592">
        <ele>219.6</ele>
        <time>2022-04-18T08:55:25Z</time>
      </trkpt>
      <trkpt lat="49.03313" lon="7.75905">
        <ele>219.9</ele>
        <time>2022-04-18T08:55:34Z</time>
      </trkpt>
      <trkpt lat="49.03314" lon="7.7589">
        <ele>220.2</ele>
        <time>2022-04-18T08:55:42Z</time>
      </trkpt>
      <trkpt lat="49.03314" lon="7.75875">
        <ele>220.3</ele>
        <time>2022-04-18T08:55:50Z</time>
      </trkpt>
      <trkpt lat="49.03314" lon="7.75861">
        <ele>220.2</ele>
        <time>2022-04-18T08:55:58Z</time>
      </trkpt>
      <trkpt lat="49.03312" lon="7.75847">
        <ele>219.9</ele>
        <time>2022-04-18T08:56:06Z</time>
      </trkpt>
      <trkpt lat="49.03311" lon="7.75831">
        <ele>219.4</ele>
        <time>2022-04-18T08:56:16Z</time>
      </trkpt>
      <trkpt lat="49.03311" lon="7.75818">
        <ele>218.8</ele>
        <time>2022-04-18T08:56:22Z</time>
      </trkpt>
      <trkpt lat="49.03307" lon="7.75803">
        <ele>218.2</ele>
        <time>2022-04-18T08:56:29Z</time>
      </trkpt>
      <trkpt lat="49.03303" lon="7.75791">
        <ele>217.5</ele>
        <time>2022-04-18T08:56:36Z</time>
      </trkpt>
      <trkpt lat="49.033" lon="7.75776">
        <ele>216.9</ele>
        <time>2022-04-18T08:56:44Z</time>
      </trkpt>
      <trkpt lat="49.03294" lon="7.75765">
        <ele>216.3</ele>
        <time>2022-04-18T08:56:50Z</time>
      </trkpt>
      <trkpt lat="49.0329" lon="7.75752">
        <ele>215.8</ele>
        <time>2022-04-18T08:56:58Z</time>
      </trkpt>
      <trkpt lat="49.03284" lon="7.75742">
        <ele>215.4</ele>
        <time>2022-04-18T08:57:05Z</time>
      </trkpt>
      <trkpt lat="49.03282" lon="7.75728">
        <ele>215.3</ele>
        <time>2022-04-18T08:57:13Z</time>
      </trkpt>
      <trkpt lat="49.03279" lon="7.75723">
        <ele>215.4</ele>
        <time>2022-04-18T08:57:22Z</time>
      </trkpt>
      <trkpt lat="49.03279" lon="7.75722">
        <ele>215.4</ele>
        <time>2022-04-18T08:57:23Z</time>
      </trkpt>
      <trkpt lat="49.03285" lon="7.75709">
        <ele>215.8</ele>
        <time>2022-04-18T08:57:43Z</time>
      </trkpt>
      <trkpt lat="49.03285" lon="7.75694">
        <ele>216.3</ele>
        <time>2022-04-18T08:57:50Z</time>
      </trkpt>
      <trkpt lat="49.03284" lon="7.7568">
        <ele>216.8</ele>
        <time>2022-04-18T08:57:56Z</time>
      </trkpt>
      <trkpt lat="49.03287" lon="7.75666">
        <ele>217.3</ele>
        <time>2022-04-18T08:58:06Z</time>
      </trkpt>
      <trkpt lat="49.03288" lon="7.75652">
        <ele>217.9</ele>
        <time>2022-04-18T08:58:13Z</time>
      </trkpt>
      <trkpt lat="49.03288" lon="7.75637">
        <ele>218.5</ele>
        <time>2022-04-18T08:58:20Z</time>
      </trkpt>
      <trkpt lat="49.03286" lon="7.75622">
        <ele>219.2</ele>
        <time>2022-04-18T08:58:30Z</time>
      </trkpt>
      <trkpt lat="49.03286" lon="7.75608">
        <ele>219.8</ele>
        <time>2022-04-18T08:58:39Z</time>
      </trkpt>
      <trkpt lat="49.0329" lon="7.75595">
        <ele>220.4</ele>
        <time>2022-04-18T08:58:46Z</time>
      </trkpt>
      <trkpt lat="49.03291" lon="7.7558">
        <ele>221</ele>
        <time>2022-04-18T08:58:54Z</time>
      </trkpt>
      <trkpt lat="49.03293" lon="7.75565">
        <ele>221.7</ele>
        <time>2022-04-18T08:59:02Z</time>
      </trkpt>
      <trkpt lat="49.03293" lon="7.75551">
        <ele>222.2</ele>
        <time>2022-04-18T08:59:09Z</time>
      </trkpt>
      <trkpt lat="49.03293" lon="7.75536">
        <ele>222.7</ele>
        <time>2022-04-18T08:59:18Z</time>
      </trkpt>
      <trkpt lat="49.03297" lon="7.75524">
        <ele>223.3</ele>
        <time>2022-04-18T08:59:26Z</time>
      </trkpt>
      <trkpt lat="49.03303" lon="7.75512">
        <ele>223.9</ele>
        <time>2022-04-18T08:59:33Z</time>
      </trkpt>
      <trkpt lat="49.03308" lon="7.755">
        <ele>224.5</ele>
        <time>2022-04-18T08:59:41Z</time>
      </trkpt>
      <trkpt lat="49.03312" lon="7.75485">
        <ele>225.1</ele>
        <time>2022-04-18T08:59:50Z</time>
      </trkpt>
      <trkpt lat="49.03316" lon="7.75473">
        <ele>225.7</ele>
        <time>2022-04-18T08:59:59Z</time>
      </trkpt>
      <trkpt lat="49.03316" lon="7.75459">
        <ele>226.4</ele>
        <time>2022-04-18T09:00:07Z</time>
      </trkpt>
      <trkpt lat="49.03321" lon="7.75447">
        <ele>227</ele>
        <time>2022-04-18T09:00:17Z</time>
      </trkpt>
      <trkpt lat="49.03325" lon="7.75433">
        <ele>227.5</ele>
        <time>2022-04-18T09:00:27Z</time>
      </trkpt>
      <trkpt lat="49.03326" lon="7.75419">
        <ele>228.1</ele>
        <time>2022-04-18T09:00:33Z</time>
      </trkpt>
      <trkpt lat="49.0333" lon="7.75404">
        <ele>228.8</ele>
        <time>2022-04-18T09:00:41Z</time>
      </trkpt>
      <trkpt lat="49.03335" lon="7.75393">
        <ele>229.5</ele>
        <time>2022-04-18T09:00:49Z</time>
      </trkpt>
      <trkpt lat="49.03337" lon="7.75379">
        <ele>230.1</ele>
        <time>2022-04-18T09:00:58Z</time>
      </trkpt>
      <trkpt lat="49.03341" lon="7.75367">
        <ele>230.6</ele>
        <time>2022-04-18T09:01:06Z</time>
      </trkpt>
      <trkpt lat="49.03347" lon="7.75354">
        <ele>231.2</ele>
        <time>2022-04-18T09:01:13Z</time>
      </trkpt>
      <trkpt lat="49.03346" lon="7.75339">
        <ele>231.8</ele>
        <time>2022-04-18T09:01:21Z</time>
      </trkpt>
      <trkpt lat="49.03346" lon="7.75324">
        <ele>232.4</ele>
        <time>2022-04-18T09:01:29Z</time>
      </trkpt>
      <trkpt lat="49.03348" lon="7.7531">
        <ele>232.9</ele>
        <time>2022-04-18T09:01:37Z</time>
      </trkpt>
      <trkpt lat="49.03352" lon="7.75296">
        <ele>233.6</ele>
        <time>2022-04-18T09:01:46Z</time>
      </trkpt>
      <trkpt lat="49.03354" lon="7.75283">
        <ele>234.2</ele>
        <time>2022-04-18T09:01:54Z</time>
      </trkpt>
      <trkpt lat="49.03357" lon="7.7527">
        <ele>234.7</ele>
        <time>2022-04-18T09:02:02Z</time>
      </trkpt>
      <trkpt lat="49.03358" lon="7.75255">
        <ele>235.3</ele>
        <time>2022-04-18T09:02:09Z</time>
      </trkpt>
      <trkpt lat="49.03357" lon="7.7524">
        <ele>236</ele>
        <time>2022-04-18T09:02:18Z</time>
      </trkpt>
      <trkpt lat="49.03361" lon="7.75225">
        <ele>236.6</ele>
        <time>2022-04-18T09:02:27Z</time>
      </trkpt>
      <trkpt lat="49.03363" lon="7.7521">
        <ele>237.2</ele>
        <time>2022-04-18T09:02:35Z</time>
      </trkpt>
      <trkpt lat="49.03368" lon="7.75198">
        <ele>237.8</ele>
        <time>2022-04-18T09:02:43Z</time>
      </trkpt>
      <trkpt lat="49.03372" lon="7.75184">
        <ele>238.4</ele>
        <time>2022-04-18T09:02:52Z</time>
      </trkpt>
      <trkpt lat="49.03376" lon="7.75171">
        <ele>239</ele>
        <time>2022-04-18T09:02:59Z</time>
      </trkpt>
      <trkpt lat="49.03378" lon="7.75157">
        <ele>239.6</ele>
        <time>2022-04-18T09:03:07Z</time>
      </trkpt>
      <trkpt lat="49.03376" lon="7.75143">
        <ele>240.2</ele>
        <time>2022-04-18T09:03:15Z</time>
      </trkpt>
      <trkpt lat="49.03379" lon="7.75129">
        <ele>240.8</ele>
        <time>2022-04-18T09:03:23Z</time>
      </trkpt>
      <trkpt lat="49.03383" lon="7.75115">
        <ele>241.5</ele>
        <time>2022-04-18T09:03:30Z</time>
      </trkpt>
      <trkpt lat="49.03381" lon="7.75101">
        <ele>242.1</ele>
        <time>2022-04-18T09:03:39Z</time>
      </trkpt>
      <trkpt lat="49.0338" lon="7.75087">
        <ele>242.8</ele>
        <time>2022-04-18T09:03:47Z</time>
      </trkpt>
      <trkpt lat="49.03383" lon="7.75072">
        <ele>243.5</ele>
        <time>2022-04-18T09:03:54Z</time>
      </trkpt>
      <trkpt lat="49.03391" lon="7.75062">
        <ele>244.1</ele>
        <time>2022-04-18T09:03:59Z</time>
      </trkpt>
      <trkpt lat="49.03398" lon="7.75055">
        <ele>244.6</ele>
        <time>2022-04-18T09:04:03Z</time>
      </trkpt>
      <trkpt lat="49.03393" lon="7.75043">
        <ele>245.1</ele>
        <time>2022-04-18T09:04:11Z</time>
      </trkpt>
      <trkpt lat="49.03391" lon="7.75029">
        <ele>245.7</ele>
        <time>2022-04-18T09:04:19Z</time>
      </trkpt>
      <trkpt lat="49.03387" lon="7.75016">
        <ele>246.2</ele>
        <time>2022-04-18T09:04:26Z</time>
      </trkpt>
      <trkpt lat="49.03389" lon="7.75002">
        <ele>246.8</ele>
        <time>2022-04-18T09:04:36Z</time>
      </trkpt>
      <trkpt lat="49.03388" lon="7.74988">
        <ele>247.4</ele>
        <time>2022-04-18T09:04:45Z</time>
      </trkpt>
      <trkpt lat="49.03383" lon="7.74973">
        <ele>248.1</ele>
        <time>2022-04-18T09:04:53Z</time>
      </trkpt>
      <trkpt lat="49.03386" lon="7.74959">
        <ele>248.8</ele>
        <time>2022-04-18T09:05:01Z</time>
      </trkpt>
      <trkpt lat="49.03384" lon="7.74945">
        <ele>249.4</ele>
        <time>2022-04-18T09:05:08Z</time>
      </trkpt>
      <trkpt lat="49.03386" lon="7.74931">
        <ele>250.1</ele>
        <time>2022-04-18T09:05:16Z</time>
      </trkpt>
      <trkpt lat="49.03386" lon="7.74915">
        <ele>250.8</ele>
        <time>2022-04-18T09:05:24Z</time>
      </trkpt>
      <trkpt lat="49.03381" lon="7.74902">
        <ele>251.5</ele>
        <time>2022-04-18T09:05:31Z</time>
      </trkpt>
      <trkpt lat="49.03378" lon="7.74888">
        <ele>252.2</ele>
        <time>2022-04-18T09:05:41Z</time>
      </trkpt>
      <trkpt lat="49.03372" lon="7.74874">
        <ele>253</ele>
        <time>2022-04-18T09:05:48Z</time>
      </trkpt>
      <trkpt lat="49.03372" lon="7.7486">
        <ele>253.6</ele>
        <time>2022-04-18T09:05:55Z</time>
      </trkpt>
      <trkpt lat="49.03375" lon="7.74847">
        <ele>254.1</ele>
        <time>2022-04-18T09:06:03Z</time>
      </trkpt>
      <trkpt lat="49.03375" lon="7.74833">
        <ele>254.7</ele>
        <time>2022-04-18T09:06:10Z</time>
      </trkpt>
      <trkpt lat="49.0338" lon="7.74822">
        <ele>255.3</ele>
        <time>2022-04-18T09:06:16Z</time>
      </trkpt>
      <trkpt lat="49.03379" lon="7.74807">
        <ele>256.1</ele>
        <time>2022-04-18T09:06:25Z</time>
      </trkpt>
      <trkpt lat="49.03378" lon="7.74793">
        <ele>256.8</ele>
        <time>2022-04-18T09:06:35Z</time>
      </trkpt>
      <trkpt lat="49.03382" lon="7.74779">
        <ele>257.4</ele>
        <time>2022-04-18T09:06:43Z</time>
      </trkpt>
      <trkpt lat="49.03385" lon="7.74766">
        <ele>258.1</ele>
        <time>2022-04-18T09:06:52Z</time>
      </trkpt>
      <trkpt lat="49.03391" lon="7.74755">
        <ele>258.7</ele>
        <time>2022-04-18T09:07:02Z</time>
      </trkpt>
      <trkpt lat="49.03398" lon="7.74745">
        <ele>259.3</ele>
        <time>2022-04-18T09:07:14Z</time>
      </trkpt>
      <trkpt lat="49.03407" lon="7.74737">
        <ele>260.1</ele>
        <time>2022-04-18T09:07:24Z</time>
      </trkpt>
      <trkpt lat="49.03416" lon="7.74732">
        <ele>260.8</ele>
        <time>2022-04-18T09:07:35Z</time>
      </trkpt>
      <trkpt lat="49.03425" lon="7.74726">
        <ele>261.5</ele>
        <time>2022-04-18T09:07:46Z</time>
      </trkpt>
      <trkpt lat="49.03433" lon="7.7472">
        <ele>262</ele>
        <time>2022-04-18T09:07:57Z</time>
      </trkpt>
      <trkpt lat="49.03442" lon="7.74714">
        <ele>262.6</ele>
        <time>2022-04-18T09:08:07Z</time>
      </trkpt>
      <trkpt lat="49.0345" lon="7.7471">
        <ele>263.1</ele>
        <time>2022-04-18T09:08:13Z</time>
      </trkpt>
      <trkpt lat="49.03455" lon="7.74702">
        <ele>263.5</ele>
        <time>2022-04-18T09:08:26Z</time>
      </trkpt>
      <trkpt lat="49.03456" lon="7.74702">
        <ele>263.6</ele>
        <time>2022-04-18T09:08:27Z</time>
      </trkpt>
      <trkpt lat="49.03464" lon="7.74695">
        <ele>264.1</ele>
        <time>2022-04-18T09:08:41Z</time>
      </trkpt>
      <trkpt lat="49.03475" lon="7.74687">
        <ele>264.8</ele>
        <time>2022-04-18T09:08:55Z</time>
      </trkpt>
      <trkpt lat="49.03481" lon="7.74679">
        <ele>265.3</ele>
        <time>2022-04-18T09:09:14Z</time>
      </trkpt>
      <trkpt lat="49.03482" lon="7.74679">
        <ele>265.4</ele>
        <time>2022-04-18T09:09:15Z</time>
      </trkpt>
      <trkpt lat="49.03491" lon="7.74679">
        <ele>265.9</ele>
        <time>2022-04-18T09:09:29Z</time>
      </trkpt>
      <trkpt lat="49.03501" lon="7.74678">
        <ele>266.4</ele>
        <time>2022-04-18T09:09:43Z</time>
      </trkpt>
      <trkpt lat="49.03501" lon="7.74677">
        <ele>266.4</ele>
        <time>2022-04-18T09:09:46Z</time>
      </trkpt>
      <trkpt lat="49.03501" lon="7.74678">
        <ele>266.4</ele>
        <time>2022-04-18T09:09:47Z</time>
      </trkpt>
      <trkpt lat="49.03509" lon="7.74685">
        <ele>267</ele>
        <time>2022-04-18T09:09:54Z</time>
      </trkpt>
      <trkpt lat="49.03518" lon="7.74676">
        <ele>267.6</ele>
        <time>2022-04-18T09:10:04Z</time>
      </trkpt>
      <trkpt lat="49.03532" lon="7.74674">
        <ele>268.6</ele>
        <time>2022-04-18T09:10:14Z</time>
      </trkpt>
      <trkpt lat="49.03534" lon="7.74675">
        <ele>268.8</ele>
        <time>2022-04-18T09:10:16Z</time>
      </trkpt>
      <trkpt lat="49.03534" lon="7.74676">
        <ele>268.8</ele>
        <time>2022-04-18T09:10:17Z</time>
      </trkpt>
      <trkpt lat="49.03543" lon="7.74673">
        <ele>269.4</ele>
        <time>2022-04-18T09:10:27Z</time>
      </trkpt>
      <trkpt lat="49.0355" lon="7.74668">
        <ele>270</ele>
        <time>2022-04-18T09:10:44Z</time>
      </trkpt>
      <trkpt lat="49.0355" lon="7.74667">
        <ele>270</ele>
        <time>2022-04-18T09:10:45Z</time>
      </trkpt>
      <trkpt lat="49.03555" lon="7.74666">
        <ele>270.4</ele>
        <time>2022-04-18T09:10:58Z</time>
      </trkpt>
      <trkpt lat="49.03555" lon="7.74666">
        <ele>270.5</ele>
        <time>2022-04-18T09:11:01Z</time>
      </trkpt>
      <trkpt lat="49.03557" lon="7.74666">
        <ele>270.7</ele>
        <time>2022-04-18T09:11:03Z</time>
      </trkpt>
      <trkpt lat="49.03557" lon="7.74667">
        <ele>270.7</ele>
        <time>2022-04-18T09:11:04Z</time>
      </trkpt>
      <trkpt lat="49.03567" lon="7.7467">
        <ele>272.3</ele>
        <time>2022-04-18T09:11:18Z</time>
      </trkpt>
      <trkpt lat="49.03574" lon="7.74678">
        <ele>273.7</ele>
        <time>2022-04-18T09:11:42Z</time>
      </trkpt>
      <trkpt lat="49.03581" lon="7.74687">
        <ele>275</ele>
        <time>2022-04-18T09:11:51Z</time>
      </trkpt>
      <trkpt lat="49.0359" lon="7.74688">
        <ele>276.2</ele>
        <time>2022-04-18T09:12:08Z</time>
      </trkpt>
      <trkpt lat="49.036" lon="7.74688">
        <ele>277.4</ele>
        <time>2022-04-18T09:12:16Z</time>
      </trkpt>
      <trkpt lat="49.03609" lon="7.74691">
        <ele>278.6</ele>
        <time>2022-04-18T09:12:24Z</time>
      </trkpt>
      <trkpt lat="49.03618" lon="7.74697">
        <ele>279.9</ele>
        <time>2022-04-18T09:12:32Z</time>
      </trkpt>
      <trkpt lat="49.03627" lon="7.74698">
        <ele>281.3</ele>
        <time>2022-04-18T09:12:41Z</time>
      </trkpt>
      <trkpt lat="49.03637" lon="7.747">
        <ele>282.8</ele>
        <time>2022-04-18T09:12:50Z</time>
      </trkpt>
      <trkpt lat="49.03645" lon="7.74704">
        <ele>284.2</ele>
        <time>2022-04-18T09:12:59Z</time>
      </trkpt>
      <trkpt lat="49.03655" lon="7.74707">
        <ele>285.6</ele>
        <time>2022-04-18T09:13:08Z</time>
      </trkpt>
      <trkpt lat="49.03664" lon="7.74708">
        <ele>287</ele>
        <time>2022-04-18T09:13:17Z</time>
      </trkpt>
      <trkpt lat="49.03673" lon="7.74707">
        <ele>288.3</ele>
        <time>2022-04-18T09:13:27Z</time>
      </trkpt>
      <trkpt lat="49.03684" lon="7.74708">
        <ele>289.7</ele>
        <time>2022-04-18T09:13:35Z</time>
      </trkpt>
      <trkpt lat="49.03693" lon="7.74706">
        <ele>291.1</ele>
        <time>2022-04-18T09:13:44Z</time>
      </trkpt>
      <trkpt lat="49.03704" lon="7.74707">
        <ele>292.7</ele>
        <time>2022-04-18T09:13:57Z</time>
      </trkpt>
      <trkpt lat="49.03713" lon="7.74708">
        <ele>294.2</ele>
        <time>2022-04-18T09:14:10Z</time>
      </trkpt>
      <trkpt lat="49.03723" lon="7.74709">
        <ele>295.8</ele>
        <time>2022-04-18T09:14:22Z</time>
      </trkpt>
      <trkpt lat="49.03732" lon="7.74714">
        <ele>297.2</ele>
        <time>2022-04-18T09:14:31Z</time>
      </trkpt>
      <trkpt lat="49.0374" lon="7.7472">
        <ele>298.7</ele>
        <time>2022-04-18T09:14:37Z</time>
      </trkpt>
      <trkpt lat="49.03749" lon="7.74724">
        <ele>300.3</ele>
        <time>2022-04-18T09:14:44Z</time>
      </trkpt>
      <trkpt lat="49.03759" lon="7.74723">
        <ele>301.9</ele>
        <time>2022-04-18T09:14:51Z</time>
      </trkpt>
      <trkpt lat="49.0377" lon="7.74717">
        <ele>303.7</ele>
        <time>2022-04-18T09:15:01Z</time>
      </trkpt>
      <trkpt lat="49.03777" lon="7.74709">
        <ele>305.2</ele>
        <time>2022-04-18T09:15:08Z</time>
      </trkpt>
      <trkpt lat="49.03783" lon="7.74696">
        <ele>306.8</ele>
        <time>2022-04-18T09:15:17Z</time>
      </trkpt>
      <trkpt lat="49.03786" lon="7.74681">
        <ele>308.6</ele>
        <time>2022-04-18T09:15:24Z</time>
      </trkpt>
      <trkpt lat="49.03791" lon="7.74668">
        <ele>310.2</ele>
        <time>2022-04-18T09:15:32Z</time>
      </trkpt>
      <trkpt lat="49.03799" lon="7.74659">
        <ele>311.6</ele>
        <time>2022-04-18T09:15:44Z</time>
      </trkpt>
      <trkpt lat="49.03798" lon="7.74645">
        <ele>312.5</ele>
        <time>2022-04-18T09:15:51Z</time>
      </trkpt>
      <trkpt lat="49.03795" lon="7.74631">
        <ele>313.2</ele>
        <time>2022-04-18T09:15:58Z</time>
      </trkpt>
      <trkpt lat="49.03792" lon="7.74617">
        <ele>313.8</ele>
        <time>2022-04-18T09:16:06Z</time>
      </trkpt>
      <trkpt lat="49.03789" lon="7.74604">
        <ele>314.2</ele>
        <time>2022-04-18T09:16:15Z</time>
      </trkpt>
      <trkpt lat="49.03788" lon="7.74589">
        <ele>314.6</ele>
        <time>2022-04-18T09:16:24Z</time>
      </trkpt>
      <trkpt lat="49.03786" lon="7.74574">
        <ele>314.9</ele>
        <time>2022-04-18T09:16:32Z</time>
      </trkpt>
      <trkpt lat="49.03787" lon="7.74559">
        <ele>315.3</ele>
        <time>2022-04-18T09:16:40Z</time>
      </trkpt>
      <trkpt lat="49.03787" lon="7.74544">
        <ele>315.8</ele>
        <time>2022-04-18T09:16:48Z</time>
      </trkpt>
      <trkpt lat="49.03783" lon="7.74531">
        <ele>316.3</ele>
        <time>2022-04-18T09:16:57Z</time>
      </trkpt>
      <trkpt lat="49.03778" lon="7.74517">
        <ele>316.7</ele>
        <time>2022-04-18T09:17:03Z</time>
      </trkpt>
      <trkpt lat="49.03774" lon="7.74504">
        <ele>317</ele>
        <time>2022-04-18T09:17:10Z</time>
      </trkpt>
      <trkpt lat="49.0377" lon="7.74492">
        <ele>317.4</ele>
        <time>2022-04-18T09:17:17Z</time>
      </trkpt>
      <trkpt lat="49.03765" lon="7.74481">
        <ele>317.7</ele>
        <time>2022-04-18T09:17:24Z</time>
      </trkpt>
      <trkpt lat="49.0376" lon="7.74467">
        <ele>318.2</ele>
        <time>2022-04-18T09:17:33Z</time>
      </trkpt>
      <trkpt lat="49.03752" lon="7.74459">
        <ele>318.7</ele>
        <time>2022-04-18T09:17:38Z</time>
      </trkpt>
      <trkpt lat="49.03749" lon="7.74445">
        <ele>319.3</ele>
        <time>2022-04-18T09:17:46Z</time>
      </trkpt>
      <trkpt lat="49.03748" lon="7.74431">
        <ele>319.9</ele>
        <time>2022-04-18T09:17:54Z</time>
      </trkpt>
      <trkpt lat="49.03742" lon="7.7442">
        <ele>320.2</ele>
        <time>2022-04-18T09:18:00Z</time>
      </trkpt>
      <trkpt lat="49.03737" lon="7.74408">
        <ele>320.3</ele>
        <time>2022-04-18T09:18:09Z</time>
      </trkpt>
      <trkpt lat="49.03729" lon="7.74399">
        <ele>320</ele>
        <time>2022-04-18T09:18:16Z</time>
      </trkpt>
      <trkpt lat="49.03726" lon="7.74396">
        <ele>319.9</ele>
        <time>2022-04-18T09:18:23Z</time>
      </trkpt>
      <trkpt lat="49.03726" lon="7.74396">
        <ele>319.8</ele>
        <time>2022-04-18T09:18:24Z</time>
      </trkpt>
      <trkpt lat="49.03716" lon="7.74391">
        <ele>319.2</ele>
        <time>2022-04-18T09:18:44Z</time>
      </trkpt>
      <trkpt lat="49.03707" lon="7.74387">
        <ele>318.3</ele>
        <time>2022-04-18T09:18:51Z</time>
      </trkpt>
      <trkpt lat="49.03698" lon="7.74385">
        <ele>317.4</ele>
        <time>2022-04-18T09:18:58Z</time>
      </trkpt>
      <trkpt lat="49.03688" lon="7.7438">
        <ele>316.3</ele>
        <time>2022-04-18T09:19:08Z</time>
      </trkpt>
      <trkpt lat="49.03679" lon="7.74375">
        <ele>315.2</ele>
        <time>2022-04-18T09:19:16Z</time>
      </trkpt>
      <trkpt lat="49.0367" lon="7.74372">
        <ele>314.4</ele>
        <time>2022-04-18T09:19:24Z</time>
      </trkpt>
      <trkpt lat="49.03661" lon="7.74369">
        <ele>314</ele>
        <time>2022-04-18T09:19:31Z</time>
      </trkpt>
      <trkpt lat="49.03663" lon="7.74355">
        <ele>314.5</ele>
        <time>2022-04-18T09:19:55Z</time>
      </trkpt>
      <trkpt lat="49.03661" lon="7.74341">
        <ele>314.3</ele>
        <time>2022-04-18T09:20:07Z</time>
      </trkpt>
      <trkpt lat="49.03659" lon="7.74333">
        <ele>313.5</ele>
        <time>2022-04-18T09:20:18Z</time>
      </trkpt>
      <trkpt lat="49.03659" lon="7.74333">
        <ele>313.5</ele>
        <time>2022-04-18T09:20:19Z</time>
      </trkpt>
      <trkpt lat="49.0366" lon="7.74331">
        <ele>313.3</ele>
        <time>2022-04-18T09:20:25Z</time>
      </trkpt>
      <trkpt lat="49.03661" lon="7.74331">
        <ele>313.2</ele>
        <time>2022-04-18T09:20:29Z</time>
      </trkpt>
      <trkpt lat="49.03661" lon="7.74331">
        <ele>313.2</ele>
        <time>2022-04-18T09:20:30Z</time>
      </trkpt>
      <trkpt lat="49.03661" lon="7.74331">
        <ele>313.2</ele>
        <time>2022-04-18T09:20:37Z</time>
      </trkpt>
      <trkpt lat="49.0366" lon="7.74328">
        <ele>312.8</ele>
        <time>2022-04-18T09:20:42Z</time>
      </trkpt>
      <trkpt lat="49.0366" lon="7.74329">
        <ele>312.8</ele>
        <time>2022-04-18T09:20:43Z</time>
      </trkpt>
      <trkpt lat="49.03659" lon="7.74329">
        <ele>312.7</ele>
        <time>2022-04-18T09:20:51Z</time>
      </trkpt>
      <trkpt lat="49.03659" lon="7.74329">
        <ele>312.6</ele>
        <time>2022-04-18T09:20:55Z</time>
      </trkpt>
      <trkpt lat="49.03659" lon="7.74328">
        <ele>312.5</ele>
        <time>2022-04-18T09:21:00Z</time>
      </trkpt>
      <trkpt lat="49.03658" lon="7.74328">
        <ele>312.5</ele>
        <time>2022-04-18T09:21:02Z</time>
      </trkpt>
      <trkpt lat="49.03657" lon="7.74327">
        <ele>312.3</ele>
        <time>2022-04-18T09:21:08Z</time>
      </trkpt>
      <trkpt lat="49.03657" lon="7.74327">
        <ele>312.3</ele>
        <time>2022-04-18T09:21:09Z</time>
      </trkpt>
      <trkpt lat="49.03659" lon="7.74326">
        <ele>312</ele>
        <time>2022-04-18T09:21:13Z</time>
      </trkpt>
      <trkpt lat="49.03659" lon="7.74326">
        <ele>312</ele>
        <time>2022-04-18T09:21:14Z</time>
      </trkpt>
      <trkpt lat="49.03659" lon="7.74326">
        <ele>312</ele>
        <time>2022-04-18T09:21:15Z</time>
      </trkpt>
      <trkpt lat="49.03659" lon="7.74326">
        <ele>312</ele>
        <time>2022-04-18T09:21:16Z</time>
      </trkpt>
      <trkpt lat="49.03661" lon="7.74311">
        <ele>312</ele>
        <time>2022-04-18T09:21:29Z</time>
      </trkpt>
      <trkpt lat="49.03666" lon="7.74307">
        <ele>313.2</ele>
        <time>2022-04-18T09:21:46Z</time>
      </trkpt>
      <trkpt lat="49.03667" lon="7.74307">
        <ele>313.3</ele>
        <time>2022-04-18T09:21:49Z</time>
      </trkpt>
      <trkpt lat="49.03676" lon="7.7431">
        <ele>315.5</ele>
        <time>2022-04-18T09:22:03Z</time>
      </trkpt>
      <trkpt lat="49.03678" lon="7.74312">
        <ele>316.2</ele>
        <time>2022-04-18T09:22:12Z</time>
      </trkpt>
      <trkpt lat="49.03677" lon="7.74312">
        <ele>316.2</ele>
        <time>2022-04-18T09:22:13Z</time>
      </trkpt>
      <trkpt lat="49.03686" lon="7.74316">
        <ele>317.8</ele>
        <time>2022-04-18T09:22:36Z</time>
      </trkpt>
      <trkpt lat="49.03693" lon="7.74306">
        <ele>319.8</ele>
        <time>2022-04-18T09:22:49Z</time>
      </trkpt>
      <trkpt lat="49.03702" lon="7.74302">
        <ele>322</ele>
        <time>2022-04-18T09:23:17Z</time>
      </trkpt>
      <trkpt lat="49.03711" lon="7.74309">
        <ele>324.1</ele>
        <time>2022-04-18T09:23:33Z</time>
      </trkpt>
      <trkpt lat="49.03721" lon="7.74311">
        <ele>326</ele>
        <time>2022-04-18T09:23:52Z</time>
      </trkpt>
      <trkpt lat="49.03723" lon="7.74311">
        <ele>326.5</ele>
        <time>2022-04-18T09:23:59Z</time>
      </trkpt>
      <trkpt lat="49.03724" lon="7.74311">
        <ele>326.5</ele>
        <time>2022-04-18T09:24:01Z</time>
      </trkpt>
      <trkpt lat="49.03727" lon="7.74311">
        <ele>327.2</ele>
        <time>2022-04-18T09:24:05Z</time>
      </trkpt>
      <trkpt lat="49.03727" lon="7.74311">
        <ele>327.2</ele>
        <time>2022-04-18T09:24:07Z</time>
      </trkpt>
      <trkpt lat="49.03727" lon="7.74311">
        <ele>327.2</ele>
        <time>2022-04-18T09:24:08Z</time>
      </trkpt>
      <trkpt lat="49.03727" lon="7.74311">
        <ele>327.3</ele>
        <time>2022-04-18T09:24:11Z</time>
      </trkpt>
      <trkpt lat="49.03723" lon="7.74323">
        <ele>327.8</ele>
        <time>2022-04-18T09:24:31Z</time>
      </trkpt>
      <trkpt lat="49.03722" lon="7.7433">
        <ele>328.1</ele>
        <time>2022-04-18T09:24:41Z</time>
      </trkpt>
      <trkpt lat="49.03722" lon="7.7433">
        <ele>328.1</ele>
        <time>2022-04-18T09:24:42Z</time>
      </trkpt>
      <trkpt lat="49.03722" lon="7.7433">
        <ele>328.1</ele>
        <time>2022-04-18T09:24:44Z</time>
      </trkpt>
      <trkpt lat="49.03722" lon="7.7433">
        <ele>328.1</ele>
        <time>2022-04-18T09:24:45Z</time>
      </trkpt>
      <trkpt lat="49.03722" lon="7.74332">
        <ele>328.2</ele>
        <time>2022-04-18T09:24:48Z</time>
      </trkpt>
      <trkpt lat="49.03722" lon="7.74332">
        <ele>328.2</ele>
        <time>2022-04-18T09:24:50Z</time>
      </trkpt>
      <trkpt lat="49.03722" lon="7.74332">
        <ele>328.2</ele>
        <time>2022-04-18T09:24:51Z</time>
      </trkpt>
      <trkpt lat="49.03722" lon="7.74332">
        <ele>328.2</ele>
        <time>2022-04-18T09:24:52Z</time>
      </trkpt>
      <trkpt lat="49.03722" lon="7.74333">
        <ele>328.2</ele>
        <time>2022-04-18T09:24:55Z</time>
      </trkpt>
      <trkpt lat="49.03722" lon="7.74333">
        <ele>328.2</ele>
        <time>2022-04-18T09:24:57Z</time>
      </trkpt>
      <trkpt lat="49.03722" lon="7.74334">
        <ele>328.3</ele>
        <time>2022-04-18T09:24:59Z</time>
      </trkpt>
      <trkpt lat="49.03722" lon="7.74333">
        <ele>328.3</ele>
        <time>2022-04-18T09:25:00Z</time>
      </trkpt>
      <trkpt lat="49.03722" lon="7.74333">
        <ele>328.3</ele>
        <time>2022-04-18T09:25:02Z</time>
      </trkpt>
      <trkpt lat="49.03722" lon="7.74334">
        <ele>328.3</ele>
        <time>2022-04-18T09:26:04Z</time>
      </trkpt>
      <trkpt lat="49.03722" lon="7.74334">
        <ele>328.3</ele>
        <time>2022-04-18T09:26:05Z</time>
      </trkpt>
      <trkpt lat="49.03722" lon="7.74334">
        <ele>328.3</ele>
        <time>2022-04-18T09:26:44Z</time>
      </trkpt>
      <trkpt lat="49.03722" lon="7.74334">
        <ele>328.3</ele>
        <time>2022-04-18T09:26:45Z</time>
      </trkpt>
      <trkpt lat="49.03722" lon="7.74334">
        <ele>328.3</ele>
        <time>2022-04-18T09:28:10Z</time>
      </trkpt>
      <trkpt lat="49.03722" lon="7.74334">
        <ele>328.3</ele>
        <time>2022-04-18T09:28:12Z</time>
      </trkpt>
      <trkpt lat="49.03722" lon="7.74334">
        <ele>328.3</ele>
        <time>2022-04-18T09:28:48Z</time>
      </trkpt>
      <trkpt lat="49.03722" lon="7.74334">
        <ele>328.3</ele>
        <time>2022-04-18T09:28:49Z</time>
      </trkpt>
      <trkpt lat="49.03722" lon="7.74334">
        <ele>328.3</ele>
        <time>2022-04-18T09:31:01Z</time>
      </trkpt>
      <trkpt lat="49.03722" lon="7.74334">
        <ele>328.3</ele>
        <time>2022-04-18T09:31:02Z</time>
      </trkpt>
      <trkpt lat="49.03722" lon="7.74334">
        <ele>328.3</ele>
        <time>2022-04-18T09:31:28Z</time>
      </trkpt>
      <trkpt lat="49.03722" lon="7.74334">
        <ele>328.3</ele>
        <time>2022-04-18T09:31:29Z</time>
      </trkpt>
      <trkpt lat="49.03722" lon="7.74334">
        <ele>328.4</ele>
        <time>2022-04-18T09:31:54Z</time>
      </trkpt>
      <trkpt lat="49.03722" lon="7.74334">
        <ele>328.4</ele>
        <time>2022-04-18T09:31:55Z</time>
      </trkpt>
      <trkpt lat="49.03722" lon="7.74335">
        <ele>328.4</ele>
        <time>2022-04-18T09:37:50Z</time>
      </trkpt>
      <trkpt lat="49.03721" lon="7.74329">
        <ele>328.6</ele>
        <time>2022-04-18T09:38:14Z</time>
      </trkpt>
      <trkpt lat="49.03721" lon="7.74329">
        <ele>328.6</ele>
        <time>2022-04-18T09:38:19Z</time>
      </trkpt>
      <trkpt lat="49.03728" lon="7.74328">
        <ele>329</ele>
        <time>2022-04-18T09:39:01Z</time>
      </trkpt>
      <trkpt lat="49.03728" lon="7.74328">
        <ele>329</ele>
        <time>2022-04-18T09:39:02Z</time>
      </trkpt>
      <trkpt lat="49.0373" lon="7.74314">
        <ele>329.6</ele>
        <time>2022-04-18T09:39:11Z</time>
      </trkpt>
      <trkpt lat="49.03732" lon="7.743">
        <ele>330.3</ele>
        <time>2022-04-18T09:39:21Z</time>
      </trkpt>
      <trkpt lat="49.03738" lon="7.74289">
        <ele>331.1</ele>
        <time>2022-04-18T09:39:32Z</time>
      </trkpt>
      <trkpt lat="49.03744" lon="7.74279">
        <ele>332.1</ele>
        <time>2022-04-18T09:39:43Z</time>
      </trkpt>
      <trkpt lat="49.03753" lon="7.74271">
        <ele>333.3</ele>
        <time>2022-04-18T09:39:52Z</time>
      </trkpt>
      <trkpt lat="49.03763" lon="7.74266">
        <ele>334.6</ele>
        <time>2022-04-18T09:40:00Z</time>
      </trkpt>
      <trkpt lat="49.03771" lon="7.74259">
        <ele>335.6</ele>
        <time>2022-04-18T09:40:08Z</time>
      </trkpt>
      <trkpt lat="49.0378" lon="7.74252">
        <ele>336.5</ele>
        <time>2022-04-18T09:40:19Z</time>
      </trkpt>
      <trkpt lat="49.03788" lon="7.74244">
        <ele>337.3</ele>
        <time>2022-04-18T09:40:28Z</time>
      </trkpt>
      <trkpt lat="49.03796" lon="7.74236">
        <ele>338.3</ele>
        <time>2022-04-18T09:40:34Z</time>
      </trkpt>
      <trkpt lat="49.03804" lon="7.7423">
        <ele>339.3</ele>
        <time>2022-04-18T09:40:43Z</time>
      </trkpt>
      <trkpt lat="49.03807" lon="7.74215">
        <ele>340.5</ele>
        <time>2022-04-18T09:40:52Z</time>
      </trkpt>
      <trkpt lat="49.03811" lon="7.74203">
        <ele>341.6</ele>
        <time>2022-04-18T09:41:04Z</time>
      </trkpt>
      <trkpt lat="49.03816" lon="7.7419">
        <ele>342.7</ele>
        <time>2022-04-18T09:41:13Z</time>
      </trkpt>
      <trkpt lat="49.03822" lon="7.74177">
        <ele>343.8</ele>
        <time>2022-04-18T09:41:21Z</time>
      </trkpt>
      <trkpt lat="49.03828" lon="7.74168">
        <ele>344.9</ele>
        <time>2022-04-18T09:41:29Z</time>
      </trkpt>
      <trkpt lat="49.03833" lon="7.74154">
        <ele>346.2</ele>
        <time>2022-04-18T09:41:39Z</time>
      </trkpt>
      <trkpt lat="49.03836" lon="7.74141">
        <ele>347.5</ele>
        <time>2022-04-18T09:41:57Z</time>
      </trkpt>
      <trkpt lat="49.03837" lon="7.7414">
        <ele>347.7</ele>
        <time>2022-04-18T09:42:01Z</time>
      </trkpt>
      <trkpt lat="49.03838" lon="7.74139">
        <ele>347.9</ele>
        <time>2022-04-18T09:42:02Z</time>
      </trkpt>
      <trkpt lat="49.03841" lon="7.74125">
        <ele>349.3</ele>
        <time>2022-04-18T09:42:14Z</time>
      </trkpt>
      <trkpt lat="49.03842" lon="7.74111">
        <ele>350.7</ele>
        <time>2022-04-18T09:42:27Z</time>
      </trkpt>
      <trkpt lat="49.03845" lon="7.74098">
        <ele>351.8</ele>
        <time>2022-04-18T09:42:35Z</time>
      </trkpt>
      <trkpt lat="49.03845" lon="7.74097">
        <ele>351.9</ele>
        <time>2022-04-18T09:42:39Z</time>
      </trkpt>
      <trkpt lat="49.03845" lon="7.74097">
        <ele>352</ele>
        <time>2022-04-18T09:42:40Z</time>
      </trkpt>
      <trkpt lat="49.03845" lon="7.74098">
        <ele>352.1</ele>
        <time>2022-04-18T09:42:43Z</time>
      </trkpt>
      <trkpt lat="49.03845" lon="7.74098">
        <ele>352.1</ele>
        <time>2022-04-18T09:42:44Z</time>
      </trkpt>
      <trkpt lat="49.03851" lon="7.7411">
        <ele>360.7</ele>
        <time>2022-04-18T09:43:07Z</time>
      </trkpt>
      <trkpt lat="49.03851" lon="7.74112">
        <ele>361.1</ele>
        <time>2022-04-18T09:43:10Z</time>
      </trkpt>
      <trkpt lat="49.03851" lon="7.74112">
        <ele>361.1</ele>
        <time>2022-04-18T09:43:11Z</time>
      </trkpt>
      <trkpt lat="49.03858" lon="7.74101">
        <ele>363.3</ele>
        <time>2022-04-18T09:43:39Z</time>
      </trkpt>
      <trkpt lat="49.03863" lon="7.74089">
        <ele>364.9</ele>
        <time>2022-04-18T09:43:47Z</time>
      </trkpt>
      <trkpt lat="49.03865" lon="7.74074">
        <ele>366.4</ele>
        <time>2022-04-18T09:43:57Z</time>
      </trkpt>
      <trkpt lat="49.03866" lon="7.74059">
        <ele>366.4</ele>
        <time>2022-04-18T09:44:05Z</time>
      </trkpt>
      <trkpt lat="49.03866" lon="7.74045">
        <ele>366.2</ele>
        <time>2022-04-18T09:44:12Z</time>
      </trkpt>
      <trkpt lat="49.03862" lon="7.74032">
        <ele>365.9</ele>
        <time>2022-04-18T09:44:19Z</time>
      </trkpt>
      <trkpt lat="49.03861" lon="7.74018">
        <ele>365.5</ele>
        <time>2022-04-18T09:44:28Z</time>
      </trkpt>
      <trkpt lat="49.0386" lon="7.74003">
        <ele>365</ele>
        <time>2022-04-18T09:44:35Z</time>
      </trkpt>
      <trkpt lat="49.03856" lon="7.7399">
        <ele>364.4</ele>
        <time>2022-04-18T09:44:42Z</time>
      </trkpt>
      <trkpt lat="49.03857" lon="7.73974">
        <ele>363.8</ele>
        <time>2022-04-18T09:44:49Z</time>
      </trkpt>
      <trkpt lat="49.03856" lon="7.73961">
        <ele>363.2</ele>
        <time>2022-04-18T09:44:57Z</time>
      </trkpt>
      <trkpt lat="49.03852" lon="7.73952">
        <ele>362.7</ele>
        <time>2022-04-18T09:45:05Z</time>
      </trkpt>
      <trkpt lat="49.03852" lon="7.73952">
        <ele>362.7</ele>
        <time>2022-04-18T09:45:07Z</time>
      </trkpt>
      <trkpt lat="49.03851" lon="7.7395">
        <ele>362.6</ele>
        <time>2022-04-18T09:45:14Z</time>
      </trkpt>
      <trkpt lat="49.03851" lon="7.7395">
        <ele>362.6</ele>
        <time>2022-04-18T09:45:20Z</time>
      </trkpt>
      <trkpt lat="49.0385" lon="7.73954">
        <ele>362.4</ele>
        <time>2022-04-18T09:45:27Z</time>
      </trkpt>
      <trkpt lat="49.0385" lon="7.73954">
        <ele>362.4</ele>
        <time>2022-04-18T09:45:30Z</time>
      </trkpt>
      <trkpt lat="49.0385" lon="7.73954">
        <ele>362.4</ele>
        <time>2022-04-18T09:45:31Z</time>
      </trkpt>
      <trkpt lat="49.03849" lon="7.73954">
        <ele>362.4</ele>
        <time>2022-04-18T09:45:38Z</time>
      </trkpt>
      <trkpt lat="49.03849" lon="7.73954">
        <ele>362.4</ele>
        <time>2022-04-18T09:45:39Z</time>
      </trkpt>
      <trkpt lat="49.0385" lon="7.73955">
        <ele>362.4</ele>
        <time>2022-04-18T09:45:40Z</time>
      </trkpt>
      <trkpt lat="49.0385" lon="7.73955">
        <ele>362.3</ele>
        <time>2022-04-18T09:45:42Z</time>
      </trkpt>
      <trkpt lat="49.03849" lon="7.73955">
        <ele>362.3</ele>
        <time>2022-04-18T09:45:43Z</time>
      </trkpt>
      <trkpt lat="49.03848" lon="7.73954">
        <ele>362.2</ele>
        <time>2022-04-18T09:45:52Z</time>
      </trkpt>
      <trkpt lat="49.03848" lon="7.73954">
        <ele>362.2</ele>
        <time>2022-04-18T09:45:56Z</time>
      </trkpt>
      <trkpt lat="49.03848" lon="7.73954">
        <ele>362.2</ele>
        <time>2022-04-18T09:45:57Z</time>
      </trkpt>
      <trkpt lat="49.03848" lon="7.73954">
        <ele>362.2</ele>
        <time>2022-04-18T09:45:58Z</time>
      </trkpt>
      <trkpt lat="49.03848" lon="7.73954">
        <ele>362.2</ele>
        <time>2022-04-18T09:46:02Z</time>
      </trkpt>
      <trkpt lat="49.03848" lon="7.73954">
        <ele>362.2</ele>
        <time>2022-04-18T09:46:06Z</time>
      </trkpt>
      <trkpt lat="49.03848" lon="7.73954">
        <ele>362.1</ele>
        <time>2022-04-18T09:46:11Z</time>
      </trkpt>
      <trkpt lat="49.03849" lon="7.73955">
        <ele>362.1</ele>
        <time>2022-04-18T09:46:13Z</time>
      </trkpt>
      <trkpt lat="49.03849" lon="7.73955">
        <ele>362.1</ele>
        <time>2022-04-18T09:46:14Z</time>
      </trkpt>
      <trkpt lat="49.03849" lon="7.73955">
        <ele>362.1</ele>
        <time>2022-04-18T09:46:15Z</time>
      </trkpt>
      <trkpt lat="49.03847" lon="7.73955">
        <ele>362</ele>
        <time>2022-04-18T09:46:20Z</time>
      </trkpt>
      <trkpt lat="49.03847" lon="7.73955">
        <ele>362</ele>
        <time>2022-04-18T09:46:22Z</time>
      </trkpt>
      <trkpt lat="49.03848" lon="7.73955">
        <ele>361.9</ele>
        <time>2022-04-18T09:46:27Z</time>
      </trkpt>
      <trkpt lat="49.03848" lon="7.73954">
        <ele>361.9</ele>
        <time>2022-04-18T09:46:28Z</time>
      </trkpt>
      <trkpt lat="49.0385" lon="7.73955">
        <ele>361.8</ele>
        <time>2022-04-18T09:46:31Z</time>
      </trkpt>
      <trkpt lat="49.0385" lon="7.73955">
        <ele>361.8</ele>
        <time>2022-04-18T09:46:35Z</time>
      </trkpt>
      <trkpt lat="49.0385" lon="7.73955">
        <ele>361.8</ele>
        <time>2022-04-18T09:46:36Z</time>
      </trkpt>
      <trkpt lat="49.0385" lon="7.73955">
        <ele>361.8</ele>
        <time>2022-04-18T09:46:46Z</time>
      </trkpt>
      <trkpt lat="49.03849" lon="7.73957">
        <ele>361.7</ele>
        <time>2022-04-18T09:46:51Z</time>
      </trkpt>
      <trkpt lat="49.03849" lon="7.73957">
        <ele>361.7</ele>
        <time>2022-04-18T09:47:04Z</time>
      </trkpt>
      <trkpt lat="49.03849" lon="7.73957">
        <ele>361.7</ele>
        <time>2022-04-18T09:47:05Z</time>
      </trkpt>
      <trkpt lat="49.03849" lon="7.73957">
        <ele>361.7</ele>
        <time>2022-04-18T09:47:20Z</time>
      </trkpt>
      <trkpt lat="49.03849" lon="7.73957">
        <ele>361.7</ele>
        <time>2022-04-18T09:47:21Z</time>
      </trkpt>
      <trkpt lat="49.03849" lon="7.73957">
        <ele>361.7</ele>
        <time>2022-04-18T09:47:29Z</time>
      </trkpt>
      <trkpt lat="49.03849" lon="7.73957">
        <ele>361.6</ele>
        <time>2022-04-18T09:47:31Z</time>
      </trkpt>
      <trkpt lat="49.03849" lon="7.73957">
        <ele>361.6</ele>
        <time>2022-04-18T09:47:39Z</time>
      </trkpt>
      <trkpt lat="49.03848" lon="7.73957">
        <ele>361.6</ele>
        <time>2022-04-18T09:47:41Z</time>
      </trkpt>
      <trkpt lat="49.03848" lon="7.73957">
        <ele>361.6</ele>
        <time>2022-04-18T09:47:57Z</time>
      </trkpt>
      <trkpt lat="49.03848" lon="7.73957">
        <ele>361.6</ele>
        <time>2022-04-18T09:47:58Z</time>
      </trkpt>
      <trkpt lat="49.03848" lon="7.73958">
        <ele>361.5</ele>
        <time>2022-04-18T09:48:10Z</time>
      </trkpt>
      <trkpt lat="49.03848" lon="7.73958">
        <ele>361.5</ele>
        <time>2022-04-18T09:48:11Z</time>
      </trkpt>
      <trkpt lat="49.03848" lon="7.73958">
        <ele>361.5</ele>
        <time>2022-04-18T09:48:16Z</time>
      </trkpt>
      <trkpt lat="49.03848" lon="7.73958">
        <ele>361.5</ele>
        <time>2022-04-18T09:48:17Z</time>
      </trkpt>
      <trkpt lat="49.03848" lon="7.73958">
        <ele>361.5</ele>
        <time>2022-04-18T09:48:20Z</time>
      </trkpt>
      <trkpt lat="49.03848" lon="7.73956">
        <ele>361.4</ele>
        <time>2022-04-18T09:48:22Z</time>
      </trkpt>
      <trkpt lat="49.03848" lon="7.73956">
        <ele>361.4</ele>
        <time>2022-04-18T09:48:32Z</time>
      </trkpt>
      <trkpt lat="49.03848" lon="7.73956">
        <ele>361.4</ele>
        <time>2022-04-18T09:48:33Z</time>
      </trkpt>
      <trkpt lat="49.03848" lon="7.73955">
        <ele>361.4</ele>
        <time>2022-04-18T09:48:48Z</time>
      </trkpt>
      <trkpt lat="49.03848" lon="7.73955">
        <ele>361.4</ele>
        <time>2022-04-18T09:48:49Z</time>
      </trkpt>
      <trkpt lat="49.03848" lon="7.73955">
        <ele>361.4</ele>
        <time>2022-04-18T09:49:05Z</time>
      </trkpt>
      <trkpt lat="49.03848" lon="7.73954">
        <ele>361.3</ele>
        <time>2022-04-18T09:49:07Z</time>
      </trkpt>
      <trkpt lat="49.03848" lon="7.73954">
        <ele>361.3</ele>
        <time>2022-04-18T09:49:08Z</time>
      </trkpt>
      <trkpt lat="49.03848" lon="7.73955">
        <ele>361.3</ele>
        <time>2022-04-18T09:49:18Z</time>
      </trkpt>
      <trkpt lat="49.03848" lon="7.73955">
        <ele>361.3</ele>
        <time>2022-04-18T09:49:22Z</time>
      </trkpt>
      <trkpt lat="49.03849" lon="7.73955">
        <ele>361.2</ele>
        <time>2022-04-18T09:49:25Z</time>
      </trkpt>
      <trkpt lat="49.03849" lon="7.73955">
        <ele>361.2</ele>
        <time>2022-04-18T09:49:33Z</time>
      </trkpt>
      <trkpt lat="49.03849" lon="7.73955">
        <ele>361.2</ele>
        <time>2022-04-18T09:49:34Z</time>
      </trkpt>
      <trkpt lat="49.03848" lon="7.73955">
        <ele>361.2</ele>
        <time>2022-04-18T09:49:35Z</time>
      </trkpt>
      <trkpt lat="49.03848" lon="7.73955">
        <ele>361.2</ele>
        <time>2022-04-18T09:49:37Z</time>
      </trkpt>
      <trkpt lat="49.03847" lon="7.73954">
        <ele>361.1</ele>
        <time>2022-04-18T09:49:39Z</time>
      </trkpt>
      <trkpt lat="49.03847" lon="7.73954">
        <ele>361.1</ele>
        <time>2022-04-18T09:49:40Z</time>
      </trkpt>
      <trkpt lat="49.03848" lon="7.73954">
        <ele>361.1</ele>
        <time>2022-04-18T09:49:42Z</time>
      </trkpt>
      <trkpt lat="49.03848" lon="7.73953">
        <ele>361</ele>
        <time>2022-04-18T09:49:44Z</time>
      </trkpt>
      <trkpt lat="49.03848" lon="7.73954">
        <ele>361</ele>
        <time>2022-04-18T09:49:45Z</time>
      </trkpt>
      <trkpt lat="49.03849" lon="7.73955">
        <ele>361</ele>
        <time>2022-04-18T09:49:49Z</time>
      </trkpt>
      <trkpt lat="49.03849" lon="7.73955">
        <ele>361</ele>
        <time>2022-04-18T09:49:50Z</time>
      </trkpt>
      <trkpt lat="49.03849" lon="7.73954">
        <ele>360.9</ele>
        <time>2022-04-18T09:49:52Z</time>
      </trkpt>
      <trkpt lat="49.0385" lon="7.73953">
        <ele>360.9</ele>
        <time>2022-04-18T09:49:58Z</time>
      </trkpt>
      <trkpt lat="49.0385" lon="7.73952">
        <ele>360.8</ele>
        <time>2022-04-18T09:50:05Z</time>
      </trkpt>
      <trkpt lat="49.0385" lon="7.73951">
        <ele>360.8</ele>
        <time>2022-04-18T09:50:06Z</time>
      </trkpt>
      <trkpt lat="49.03852" lon="7.7395">
        <ele>360.7</ele>
        <time>2022-04-18T09:50:10Z</time>
      </trkpt>
      <trkpt lat="49.03852" lon="7.73951">
        <ele>360.6</ele>
        <time>2022-04-18T09:50:13Z</time>
      </trkpt>
      <trkpt lat="49.0385" lon="7.73936">
        <ele>360.1</ele>
        <time>2022-04-18T09:50:23Z</time>
      </trkpt>
      <trkpt lat="49.03849" lon="7.73923">
        <ele>359.6</ele>
        <time>2022-04-18T09:50:31Z</time>
      </trkpt>
      <trkpt lat="49.03846" lon="7.73909">
        <ele>359.1</ele>
        <time>2022-04-18T09:50:40Z</time>
      </trkpt>
      <trkpt lat="49.0384" lon="7.73897">
        <ele>358.9</ele>
        <time>2022-04-18T09:50:49Z</time>
      </trkpt>
      <trkpt lat="49.03841" lon="7.73895">
        <ele>359</ele>
        <time>2022-04-18T09:50:53Z</time>
      </trkpt>
      <trkpt lat="49.03841" lon="7.73894">
        <ele>359</ele>
        <time>2022-04-18T09:50:55Z</time>
      </trkpt>
      <trkpt lat="49.03841" lon="7.73891">
        <ele>359.1</ele>
        <time>2022-04-18T09:51:03Z</time>
      </trkpt>
      <trkpt lat="49.03841" lon="7.73891">
        <ele>359.2</ele>
        <time>2022-04-18T09:51:04Z</time>
      </trkpt>
      <trkpt lat="49.03844" lon="7.73888">
        <ele>359.6</ele>
        <time>2022-04-18T09:51:11Z</time>
      </trkpt>
      <trkpt lat="49.03844" lon="7.73888">
        <ele>359.6</ele>
        <time>2022-04-18T09:51:12Z</time>
      </trkpt>
      <trkpt lat="49.03843" lon="7.73873">
        <ele>361.2</ele>
        <time>2022-04-18T09:51:32Z</time>
      </trkpt>
      <trkpt lat="49.03843" lon="7.73859">
        <ele>362.8</ele>
        <time>2022-04-18T09:51:45Z</time>
      </trkpt>
      <trkpt lat="49.03839" lon="7.73846">
        <ele>363.8</ele>
        <time>2022-04-18T09:51:55Z</time>
      </trkpt>
      <trkpt lat="49.03836" lon="7.73833">
        <ele>364</ele>
        <time>2022-04-18T09:52:03Z</time>
      </trkpt>
      <trkpt lat="49.03833" lon="7.73819">
        <ele>364</ele>
        <time>2022-04-18T09:52:12Z</time>
      </trkpt>
      <trkpt lat="49.03828" lon="7.73806">
        <ele>364</ele>
        <time>2022-04-18T09:52:22Z</time>
      </trkpt>
      <trkpt lat="49.03821" lon="7.73797">
        <ele>363.8</ele>
        <time>2022-04-18T09:52:31Z</time>
      </trkpt>
      <trkpt lat="49.03813" lon="7.73788">
        <ele>363.4</ele>
        <time>2022-04-18T09:52:39Z</time>
      </trkpt>
      <trkpt lat="49.0381" lon="7.73774">
        <ele>363.3</ele>
        <time>2022-04-18T09:52:48Z</time>
      </trkpt>
      <trkpt lat="49.03804" lon="7.73763">
        <ele>363.6</ele>
        <time>2022-04-18T09:52:56Z</time>
      </trkpt>
      <trkpt lat="49.03799" lon="7.73751">
        <ele>363.9</ele>
        <time>2022-04-18T09:53:06Z</time>
      </trkpt>
      <trkpt lat="49.03798" lon="7.73736">
        <ele>364.2</ele>
        <time>2022-04-18T09:53:15Z</time>
      </trkpt>
      <trkpt lat="49.03792" lon="7.73725">
        <ele>364.1</ele>
        <time>2022-04-18T09:53:28Z</time>
      </trkpt>
      <trkpt lat="49.03783" lon="7.73724">
        <ele>363.8</ele>
        <time>2022-04-18T09:53:36Z</time>
      </trkpt>
      <trkpt lat="49.03775" lon="7.73717">
        <ele>363.6</ele>
        <time>2022-04-18T09:53:44Z</time>
      </trkpt>
      <trkpt lat="49.03766" lon="7.7371">
        <ele>363.8</ele>
        <time>2022-04-18T09:53:54Z</time>
      </trkpt>
      <trkpt lat="49.03757" lon="7.73703">
        <ele>364.2</ele>
        <time>2022-04-18T09:54:04Z</time>
      </trkpt>
      <trkpt lat="49.03748" lon="7.73699">
        <ele>364.6</ele>
        <time>2022-04-18T09:54:16Z</time>
      </trkpt>
      <trkpt lat="49.03738" lon="7.73695">
        <ele>364.8</ele>
        <time>2022-04-18T09:54:24Z</time>
      </trkpt>
      <trkpt lat="49.03729" lon="7.73695">
        <ele>364.9</ele>
        <time>2022-04-18T09:54:33Z</time>
      </trkpt>
      <trkpt lat="49.03721" lon="7.73691">
        <ele>364.9</ele>
        <time>2022-04-18T09:54:42Z</time>
      </trkpt>
      <trkpt lat="49.03712" lon="7.73687">
        <ele>365</ele>
        <time>2022-04-18T09:54:53Z</time>
      </trkpt>
      <trkpt lat="49.03702" lon="7.73686">
        <ele>365.2</ele>
        <time>2022-04-18T09:55:04Z</time>
      </trkpt>
      <trkpt lat="49.03693" lon="7.73688">
        <ele>365.5</ele>
        <time>2022-04-18T09:55:11Z</time>
      </trkpt>
      <trkpt lat="49.03684" lon="7.73684">
        <ele>365.7</ele>
        <time>2022-04-18T09:55:20Z</time>
      </trkpt>
      <trkpt lat="49.03677" lon="7.73673">
        <ele>365.8</ele>
        <time>2022-04-18T09:55:34Z</time>
      </trkpt>
      <trkpt lat="49.03668" lon="7.73673">
        <ele>365.7</ele>
        <time>2022-04-18T09:55:44Z</time>
      </trkpt>
      <trkpt lat="49.03659" lon="7.73669">
        <ele>365.7</ele>
        <time>2022-04-18T09:55:53Z</time>
      </trkpt>
      <trkpt lat="49.03649" lon="7.73665">
        <ele>365.6</ele>
        <time>2022-04-18T09:56:01Z</time>
      </trkpt>
      <trkpt lat="49.03639" lon="7.73659">
        <ele>365.6</ele>
        <time>2022-04-18T09:56:10Z</time>
      </trkpt>
      <trkpt lat="49.0363" lon="7.73657">
        <ele>365.8</ele>
        <time>2022-04-18T09:56:17Z</time>
      </trkpt>
      <trkpt lat="49.0362" lon="7.73656">
        <ele>366</ele>
        <time>2022-04-18T09:56:24Z</time>
      </trkpt>
      <trkpt lat="49.0361" lon="7.73652">
        <ele>366.2</ele>
        <time>2022-04-18T09:56:33Z</time>
      </trkpt>
      <trkpt lat="49.03601" lon="7.73651">
        <ele>366.4</ele>
        <time>2022-04-18T09:56:44Z</time>
      </trkpt>
      <trkpt lat="49.03591" lon="7.73649">
        <ele>366.4</ele>
        <time>2022-04-18T09:56:53Z</time>
      </trkpt>
      <trkpt lat="49.03581" lon="7.7365">
        <ele>366.5</ele>
        <time>2022-04-18T09:57:00Z</time>
      </trkpt>
      <trkpt lat="49.03572" lon="7.73649">
        <ele>366.5</ele>
        <time>2022-04-18T09:57:06Z</time>
      </trkpt>
      <trkpt lat="49.03563" lon="7.73649">
        <ele>366.6</ele>
        <time>2022-04-18T09:57:15Z</time>
      </trkpt>
      <trkpt lat="49.03553" lon="7.73648">
        <ele>366.6</ele>
        <time>2022-04-18T09:57:24Z</time>
      </trkpt>
      <trkpt lat="49.03543" lon="7.73648">
        <ele>366.6</ele>
        <time>2022-04-18T09:57:34Z</time>
      </trkpt>
      <trkpt lat="49.03534" lon="7.73644">
        <ele>366.6</ele>
        <time>2022-04-18T09:57:43Z</time>
      </trkpt>
      <trkpt lat="49.03527" lon="7.73635">
        <ele>366.7</ele>
        <time>2022-04-18T09:57:53Z</time>
      </trkpt>
      <trkpt lat="49.03518" lon="7.73631">
        <ele>366.8</ele>
        <time>2022-04-18T09:58:02Z</time>
      </trkpt>
      <trkpt lat="49.03508" lon="7.73631">
        <ele>366.8</ele>
        <time>2022-04-18T09:58:09Z</time>
      </trkpt>
      <trkpt lat="49.03499" lon="7.73633">
        <ele>366.7</ele>
        <time>2022-04-18T09:58:18Z</time>
      </trkpt>
      <trkpt lat="49.0349" lon="7.73631">
        <ele>366.8</ele>
        <time>2022-04-18T09:58:32Z</time>
      </trkpt>
      <trkpt lat="49.03481" lon="7.73631">
        <ele>366.9</ele>
        <time>2022-04-18T09:58:41Z</time>
      </trkpt>
      <trkpt lat="49.03474" lon="7.73628">
        <ele>367.1</ele>
        <time>2022-04-18T09:58:51Z</time>
      </trkpt>
      <trkpt lat="49.03474" lon="7.73628">
        <ele>367.1</ele>
        <time>2022-04-18T09:58:52Z</time>
      </trkpt>
      <trkpt lat="49.03464" lon="7.73633">
        <ele>367.5</ele>
        <time>2022-04-18T09:59:03Z</time>
      </trkpt>
      <trkpt lat="49.03455" lon="7.73631">
        <ele>368</ele>
        <time>2022-04-18T09:59:09Z</time>
      </trkpt>
      <trkpt lat="49.03446" lon="7.73627">
        <ele>368.8</ele>
        <time>2022-04-18T09:59:24Z</time>
      </trkpt>
      <trkpt lat="49.03436" lon="7.73624">
        <ele>369.6</ele>
        <time>2022-04-18T09:59:33Z</time>
      </trkpt>
      <trkpt lat="49.03428" lon="7.7362">
        <ele>370.6</ele>
        <time>2022-04-18T09:59:42Z</time>
      </trkpt>
      <trkpt lat="49.03418" lon="7.73619">
        <ele>371.5</ele>
        <time>2022-04-18T09:59:53Z</time>
      </trkpt>
      <trkpt lat="49.03409" lon="7.73624">
        <ele>372.6</ele>
        <time>2022-04-18T10:00:02Z</time>
      </trkpt>
      <trkpt lat="49.03401" lon="7.73633">
        <ele>373.8</ele>
        <time>2022-04-18T10:00:09Z</time>
      </trkpt>
      <trkpt lat="49.03392" lon="7.73636">
        <ele>375.1</ele>
        <time>2022-04-18T10:00:21Z</time>
      </trkpt>
      <trkpt lat="49.03382" lon="7.73635">
        <ele>376.6</ele>
        <time>2022-04-18T10:00:33Z</time>
      </trkpt>
      <trkpt lat="49.03373" lon="7.73632">
        <ele>378.1</ele>
        <time>2022-04-18T10:00:41Z</time>
      </trkpt>
      <trkpt lat="49.03365" lon="7.73625">
        <ele>379</ele>
        <time>2022-04-18T10:00:52Z</time>
      </trkpt>
      <trkpt lat="49.03356" lon="7.73618">
        <ele>379.7</ele>
        <time>2022-04-18T10:01:02Z</time>
      </trkpt>
      <trkpt lat="49.03351" lon="7.73606">
        <ele>380.3</ele>
        <time>2022-04-18T10:01:10Z</time>
      </trkpt>
      <trkpt lat="49.03345" lon="7.73595">
        <ele>381.2</ele>
        <time>2022-04-18T10:01:19Z</time>
      </trkpt>
      <trkpt lat="49.03341" lon="7.73582">
        <ele>382.2</ele>
        <time>2022-04-18T10:01:29Z</time>
      </trkpt>
      <trkpt lat="49.03339" lon="7.73567">
        <ele>383.5</ele>
        <time>2022-04-18T10:01:37Z</time>
      </trkpt>
      <trkpt lat="49.03339" lon="7.73553">
        <ele>385.1</ele>
        <time>2022-04-18T10:01:49Z</time>
      </trkpt>
      <trkpt lat="49.03342" lon="7.7354">
        <ele>387.3</ele>
        <time>2022-04-18T10:02:07Z</time>
      </trkpt>
      <trkpt lat="49.03342" lon="7.7354">
        <ele>387.3</ele>
        <time>2022-04-18T10:02:08Z</time>
      </trkpt>
      <trkpt lat="49.03342" lon="7.7354">
        <ele>387.3</ele>
        <time>2022-04-18T10:02:10Z</time>
      </trkpt>
      <trkpt lat="49.03337" lon="7.73526">
        <ele>387.6</ele>
        <time>2022-04-18T10:02:20Z</time>
      </trkpt>
      <trkpt lat="49.03335" lon="7.73512">
        <ele>387.6</ele>
        <time>2022-04-18T10:02:28Z</time>
      </trkpt>
      <trkpt lat="49.03332" lon="7.73498">
        <ele>387.5</ele>
        <time>2022-04-18T10:02:36Z</time>
      </trkpt>
      <trkpt lat="49.03332" lon="7.73484">
        <ele>387.5</ele>
        <time>2022-04-18T10:02:44Z</time>
      </trkpt>
      <trkpt lat="49.03331" lon="7.73469">
        <ele>387.3</ele>
        <time>2022-04-18T10:02:52Z</time>
      </trkpt>
      <trkpt lat="49.0333" lon="7.73455">
        <ele>387.2</ele>
        <time>2022-04-18T10:03:00Z</time>
      </trkpt>
      <trkpt lat="49.03328" lon="7.7344">
        <ele>387.1</ele>
        <time>2022-04-18T10:03:09Z</time>
      </trkpt>
      <trkpt lat="49.0333" lon="7.73426">
        <ele>386.8</ele>
        <time>2022-04-18T10:03:17Z</time>
      </trkpt>
      <trkpt lat="49.0333" lon="7.73413">
        <ele>386.6</ele>
        <time>2022-04-18T10:03:25Z</time>
      </trkpt>
      <trkpt lat="49.03333" lon="7.73398">
        <ele>386.4</ele>
        <time>2022-04-18T10:03:34Z</time>
      </trkpt>
      <trkpt lat="49.03335" lon="7.73384">
        <ele>386.2</ele>
        <time>2022-04-18T10:03:43Z</time>
      </trkpt>
      <trkpt lat="49.03334" lon="7.73369">
        <ele>386</ele>
        <time>2022-04-18T10:03:53Z</time>
      </trkpt>
      <trkpt lat="49.03337" lon="7.73356">
        <ele>385.9</ele>
        <time>2022-04-18T10:04:01Z</time>
      </trkpt>
      <trkpt lat="49.0334" lon="7.73341">
        <ele>385.8</ele>
        <time>2022-04-18T10:04:11Z</time>
      </trkpt>
      <trkpt lat="49.03345" lon="7.73329">
        <ele>385.6</ele>
        <time>2022-04-18T10:04:20Z</time>
      </trkpt>
      <trkpt lat="49.03352" lon="7.73319">
        <ele>385.4</ele>
        <time>2022-04-18T10:04:29Z</time>
      </trkpt>
      <trkpt lat="49.03359" lon="7.73309">
        <ele>385.3</ele>
        <time>2022-04-18T10:04:37Z</time>
      </trkpt>
      <trkpt lat="49.03366" lon="7.73299">
        <ele>385.2</ele>
        <time>2022-04-18T10:04:46Z</time>
      </trkpt>
      <trkpt lat="49.03375" lon="7.73294">
        <ele>385.2</ele>
        <time>2022-04-18T10:04:54Z</time>
      </trkpt>
      <trkpt lat="49.03382" lon="7.73284">
        <ele>385.2</ele>
        <time>2022-04-18T10:05:06Z</time>
      </trkpt>
      <trkpt lat="49.0339" lon="7.73276">
        <ele>384.4</ele>
        <time>2022-04-18T10:05:14Z</time>
      </trkpt>
      <trkpt lat="49.03399" lon="7.7327">
        <ele>383.4</ele>
        <time>2022-04-18T10:05:29Z</time>
      </trkpt>
      <trkpt lat="49.0341" lon="7.73271">
        <ele>382.5</ele>
        <time>2022-04-18T10:05:40Z</time>
      </trkpt>
      <trkpt lat="49.03419" lon="7.73268">
        <ele>381.6</ele>
        <time>2022-04-18T10:05:48Z</time>
      </trkpt>
      <trkpt lat="49.03428" lon="7.7327">
        <ele>380.8</ele>
        <time>2022-04-18T10:05:55Z</time>
      </trkpt>
      <trkpt lat="49.03438" lon="7.73269">
        <ele>379.8</ele>
        <time>2022-04-18T10:06:05Z</time>
      </trkpt>
      <trkpt lat="49.03447" lon="7.73268">
        <ele>378.8</ele>
        <time>2022-04-18T10:06:17Z</time>
      </trkpt>
      <trkpt lat="49.03457" lon="7.73266">
        <ele>378.2</ele>
        <time>2022-04-18T10:06:24Z</time>
      </trkpt>
      <trkpt lat="49.03466" lon="7.73264">
        <ele>377.8</ele>
        <time>2022-04-18T10:06:32Z</time>
      </trkpt>
      <trkpt lat="49.03476" lon="7.73263">
        <ele>377.5</ele>
        <time>2022-04-18T10:06:38Z</time>
      </trkpt>
      <trkpt lat="49.03486" lon="7.73263">
        <ele>377.1</ele>
        <time>2022-04-18T10:06:51Z</time>
      </trkpt>
      <trkpt lat="49.03495" lon="7.7326">
        <ele>376.7</ele>
        <time>2022-04-18T10:07:01Z</time>
      </trkpt>
      <trkpt lat="49.03504" lon="7.73262">
        <ele>376.3</ele>
        <time>2022-04-18T10:07:08Z</time>
      </trkpt>
      <trkpt lat="49.03514" lon="7.73264">
        <ele>376</ele>
        <time>2022-04-18T10:07:17Z</time>
      </trkpt>
      <trkpt lat="49.03524" lon="7.73267">
        <ele>375.7</ele>
        <time>2022-04-18T10:07:22Z</time>
      </trkpt>
      <trkpt lat="49.03534" lon="7.73268">
        <ele>375.2</ele>
        <time>2022-04-18T10:07:29Z</time>
      </trkpt>
      <trkpt lat="49.03543" lon="7.73265">
        <ele>374.8</ele>
        <time>2022-04-18T10:07:37Z</time>
      </trkpt>
      <trkpt lat="49.03553" lon="7.73263">
        <ele>374.2</ele>
        <time>2022-04-18T10:07:46Z</time>
      </trkpt>
      <trkpt lat="49.03563" lon="7.73262">
        <ele>373.7</ele>
        <time>2022-04-18T10:07:52Z</time>
      </trkpt>
      <trkpt lat="49.03573" lon="7.7326">
        <ele>373.3</ele>
        <time>2022-04-18T10:08:02Z</time>
      </trkpt>
      <trkpt lat="49.03582" lon="7.73258">
        <ele>372.9</ele>
        <time>2022-04-18T10:08:09Z</time>
      </trkpt>
      <trkpt lat="49.03592" lon="7.73257">
        <ele>372.3</ele>
        <time>2022-04-18T10:08:15Z</time>
      </trkpt>
      <trkpt lat="49.03602" lon="7.73254">
        <ele>371.6</ele>
        <time>2022-04-18T10:08:21Z</time>
      </trkpt>
      <trkpt lat="49.03612" lon="7.7325">
        <ele>371.1</ele>
        <time>2022-04-18T10:08:28Z</time>
      </trkpt>
      <trkpt lat="49.03619" lon="7.73241">
        <ele>370.8</ele>
        <time>2022-04-18T10:08:34Z</time>
      </trkpt>
      <trkpt lat="49.03628" lon="7.73234">
        <ele>370.7</ele>
        <time>2022-04-18T10:08:40Z</time>
      </trkpt>
      <trkpt lat="49.03637" lon="7.73229">
        <ele>370.5</ele>
        <time>2022-04-18T10:08:47Z</time>
      </trkpt>
      <trkpt lat="49.03644" lon="7.73222">
        <ele>370.2</ele>
        <time>2022-04-18T10:08:53Z</time>
      </trkpt>
      <trkpt lat="49.03652" lon="7.73212">
        <ele>369.8</ele>
        <time>2022-04-18T10:09:00Z</time>
      </trkpt>
      <trkpt lat="49.03659" lon="7.73203">
        <ele>369.2</ele>
        <time>2022-04-18T10:09:11Z</time>
      </trkpt>
      <trkpt lat="49.03667" lon="7.73195">
        <ele>368.6</ele>
        <time>2022-04-18T10:09:22Z</time>
      </trkpt>
      <trkpt lat="49.03676" lon="7.73195">
        <ele>368</ele>
        <time>2022-04-18T10:09:29Z</time>
      </trkpt>
      <trkpt lat="49.03685" lon="7.73188">
        <ele>367.4</ele>
        <time>2022-04-18T10:09:44Z</time>
      </trkpt>
      <trkpt lat="49.03693" lon="7.73181">
        <ele>366.8</ele>
        <time>2022-04-18T10:09:51Z</time>
      </trkpt>
      <trkpt lat="49.03703" lon="7.7318">
        <ele>366.2</ele>
        <time>2022-04-18T10:09:58Z</time>
      </trkpt>
      <trkpt lat="49.03712" lon="7.73177">
        <ele>365.9</ele>
        <time>2022-04-18T10:10:05Z</time>
      </trkpt>
      <trkpt lat="49.03714" lon="7.73175">
        <ele>365.8</ele>
        <time>2022-04-18T10:10:13Z</time>
      </trkpt>
      <trkpt lat="49.03715" lon="7.73174">
        <ele>365.8</ele>
        <time>2022-04-18T10:10:14Z</time>
      </trkpt>
      <trkpt lat="49.03719" lon="7.73171">
        <ele>365.6</ele>
        <time>2022-04-18T10:10:21Z</time>
      </trkpt>
      <trkpt lat="49.03719" lon="7.73171">
        <ele>365.6</ele>
        <time>2022-04-18T10:10:23Z</time>
      </trkpt>
      <trkpt lat="49.03729" lon="7.73171">
        <ele>365.3</ele>
        <time>2022-04-18T10:10:31Z</time>
      </trkpt>
      <trkpt lat="49.03739" lon="7.73172">
        <ele>364.9</ele>
        <time>2022-04-18T10:10:39Z</time>
      </trkpt>
      <trkpt lat="49.03748" lon="7.73171">
        <ele>364.3</ele>
        <time>2022-04-18T10:10:45Z</time>
      </trkpt>
      <trkpt lat="49.03756" lon="7.73166">
        <ele>363.8</ele>
        <time>2022-04-18T10:10:55Z</time>
      </trkpt>
      <trkpt lat="49.03766" lon="7.73166">
        <ele>363.3</ele>
        <time>2022-04-18T10:11:03Z</time>
      </trkpt>
      <trkpt lat="49.03774" lon="7.73161">
        <ele>362.8</ele>
        <time>2022-04-18T10:11:20Z</time>
      </trkpt>
      <trkpt lat="49.03784" lon="7.73163">
        <ele>362.4</ele>
        <time>2022-04-18T10:11:32Z</time>
      </trkpt>
      <trkpt lat="49.03794" lon="7.73163">
        <ele>362.1</ele>
        <time>2022-04-18T10:11:39Z</time>
      </trkpt>
      <trkpt lat="49.03804" lon="7.7316">
        <ele>361.8</ele>
        <time>2022-04-18T10:11:47Z</time>
      </trkpt>
      <trkpt lat="49.03813" lon="7.7316">
        <ele>361.6</ele>
        <time>2022-04-18T10:11:54Z</time>
      </trkpt>
      <trkpt lat="49.03823" lon="7.73159">
        <ele>361.3</ele>
        <time>2022-04-18T10:12:02Z</time>
      </trkpt>
      <trkpt lat="49.03832" lon="7.73164">
        <ele>361.1</ele>
        <time>2022-04-18T10:12:15Z</time>
      </trkpt>
      <trkpt lat="49.03841" lon="7.73164">
        <ele>360.9</ele>
        <time>2022-04-18T10:12:21Z</time>
      </trkpt>
      <trkpt lat="49.0385" lon="7.73159">
        <ele>360.9</ele>
        <time>2022-04-18T10:12:30Z</time>
      </trkpt>
      <trkpt lat="49.03859" lon="7.73162">
        <ele>360.9</ele>
        <time>2022-04-18T10:12:41Z</time>
      </trkpt>
      <trkpt lat="49.03869" lon="7.7316">
        <ele>360.9</ele>
        <time>2022-04-18T10:12:49Z</time>
      </trkpt>
      <trkpt lat="49.03879" lon="7.73158">
        <ele>360.8</ele>
        <time>2022-04-18T10:12:56Z</time>
      </trkpt>
      <trkpt lat="49.03888" lon="7.73162">
        <ele>360.5</ele>
        <time>2022-04-18T10:13:03Z</time>
      </trkpt>
      <trkpt lat="49.03897" lon="7.73159">
        <ele>360.2</ele>
        <time>2022-04-18T10:13:13Z</time>
      </trkpt>
      <trkpt lat="49.03907" lon="7.73159">
        <ele>359.9</ele>
        <time>2022-04-18T10:13:28Z</time>
      </trkpt>
      <trkpt lat="49.03916" lon="7.73157">
        <ele>359.6</ele>
        <time>2022-04-18T10:13:39Z</time>
      </trkpt>
      <trkpt lat="49.03926" lon="7.73152">
        <ele>359.4</ele>
        <time>2022-04-18T10:13:47Z</time>
      </trkpt>
      <trkpt lat="49.03935" lon="7.73153">
        <ele>359.3</ele>
        <time>2022-04-18T10:13:56Z</time>
      </trkpt>
      <trkpt lat="49.03945" lon="7.73151">
        <ele>359.2</ele>
        <time>2022-04-18T10:14:04Z</time>
      </trkpt>
      <trkpt lat="49.03954" lon="7.73152">
        <ele>359.2</ele>
        <time>2022-04-18T10:14:11Z</time>
      </trkpt>
      <trkpt lat="49.03962" lon="7.73145">
        <ele>359</ele>
        <time>2022-04-18T10:14:21Z</time>
      </trkpt>
      <trkpt lat="49.03972" lon="7.73146">
        <ele>358.9</ele>
        <time>2022-04-18T10:14:30Z</time>
      </trkpt>
      <trkpt lat="49.03981" lon="7.73144">
        <ele>358.7</ele>
        <time>2022-04-18T10:14:36Z</time>
      </trkpt>
      <trkpt lat="49.03991" lon="7.73147">
        <ele>358.6</ele>
        <time>2022-04-18T10:14:46Z</time>
      </trkpt>
      <trkpt lat="49.04" lon="7.73144">
        <ele>358.4</ele>
        <time>2022-04-18T10:14:53Z</time>
      </trkpt>
      <trkpt lat="49.04008" lon="7.73139">
        <ele>358.1</ele>
        <time>2022-04-18T10:15:01Z</time>
      </trkpt>
      <trkpt lat="49.04018" lon="7.73136">
        <ele>357.9</ele>
        <time>2022-04-18T10:15:11Z</time>
      </trkpt>
      <trkpt lat="49.04027" lon="7.73132">
        <ele>357.6</ele>
        <time>2022-04-18T10:15:19Z</time>
      </trkpt>
      <trkpt lat="49.04036" lon="7.73128">
        <ele>357.4</ele>
        <time>2022-04-18T10:15:28Z</time>
      </trkpt>
      <trkpt lat="49.04045" lon="7.73129">
        <ele>357.1</ele>
        <time>2022-04-18T10:15:37Z</time>
      </trkpt>
      <trkpt lat="49.04055" lon="7.73126">
        <ele>356.9</ele>
        <time>2022-04-18T10:15:44Z</time>
      </trkpt>
      <trkpt lat="49.04063" lon="7.73118">
        <ele>356.4</ele>
        <time>2022-04-18T10:15:55Z</time>
      </trkpt>
      <trkpt lat="49.04073" lon="7.73116">
        <ele>355.9</ele>
        <time>2022-04-18T10:16:03Z</time>
      </trkpt>
      <trkpt lat="49.04082" lon="7.73114">
        <ele>355.7</ele>
        <time>2022-04-18T10:16:11Z</time>
      </trkpt>
      <trkpt lat="49.04092" lon="7.73109">
        <ele>355.8</ele>
        <time>2022-04-18T10:16:18Z</time>
      </trkpt>
      <trkpt lat="49.04101" lon="7.7311">
        <ele>355.9</ele>
        <time>2022-04-18T10:16:26Z</time>
      </trkpt>
      <trkpt lat="49.0411" lon="7.7311">
        <ele>356.1</ele>
        <time>2022-04-18T10:16:36Z</time>
      </trkpt>
      <trkpt lat="49.0412" lon="7.73104">
        <ele>356.5</ele>
        <time>2022-04-18T10:16:45Z</time>
      </trkpt>
      <trkpt lat="49.04129" lon="7.731">
        <ele>356.8</ele>
        <time>2022-04-18T10:16:52Z</time>
      </trkpt>
      <trkpt lat="49.04139" lon="7.731">
        <ele>357.2</ele>
        <time>2022-04-18T10:17:00Z</time>
      </trkpt>
      <trkpt lat="49.04148" lon="7.73097">
        <ele>357.5</ele>
        <time>2022-04-18T10:17:08Z</time>
      </trkpt>
      <trkpt lat="49.04158" lon="7.73094">
        <ele>357.8</ele>
        <time>2022-04-18T10:17:20Z</time>
      </trkpt>
      <trkpt lat="49.04167" lon="7.73092">
        <ele>358.2</ele>
        <time>2022-04-18T10:17:29Z</time>
      </trkpt>
      <trkpt lat="49.04176" lon="7.73088">
        <ele>358.5</ele>
        <time>2022-04-18T10:17:39Z</time>
      </trkpt>
      <trkpt lat="49.04186" lon="7.73084">
        <ele>358.9</ele>
        <time>2022-04-18T10:17:46Z</time>
      </trkpt>
      <trkpt lat="49.04195" lon="7.73082">
        <ele>359.3</ele>
        <time>2022-04-18T10:17:53Z</time>
      </trkpt>
      <trkpt lat="49.04203" lon="7.73073">
        <ele>359.6</ele>
        <time>2022-04-18T10:18:00Z</time>
      </trkpt>
      <trkpt lat="49.0421" lon="7.73063">
        <ele>360</ele>
        <time>2022-04-18T10:18:08Z</time>
      </trkpt>
      <trkpt lat="49.04218" lon="7.73056">
        <ele>360.4</ele>
        <time>2022-04-18T10:18:16Z</time>
      </trkpt>
      <trkpt lat="49.04228" lon="7.73054">
        <ele>360.8</ele>
        <time>2022-04-18T10:18:23Z</time>
      </trkpt>
      <trkpt lat="49.04231" lon="7.73047">
        <ele>361.1</ele>
        <time>2022-04-18T10:18:31Z</time>
      </trkpt>
      <trkpt lat="49.04231" lon="7.73046">
        <ele>361.1</ele>
        <time>2022-04-18T10:18:32Z</time>
      </trkpt>
      <trkpt lat="49.0424" lon="7.73039">
        <ele>361.6</ele>
        <time>2022-04-18T10:18:40Z</time>
      </trkpt>
      <trkpt lat="49.0425" lon="7.73041">
        <ele>362.1</ele>
        <time>2022-04-18T10:18:49Z</time>
      </trkpt>
      <trkpt lat="49.04259" lon="7.73042">
        <ele>362.4</ele>
        <time>2022-04-18T10:19:00Z</time>
      </trkpt>
      <trkpt lat="49.0426" lon="7.73028">
        <ele>362.4</ele>
        <time>2022-04-18T10:19:11Z</time>
      </trkpt>
      <trkpt lat="49.04271" lon="7.73028">
        <ele>362.4</ele>
        <time>2022-04-18T10:19:15Z</time>
      </trkpt>
      <trkpt lat="49.04266" lon="7.7304">
        <ele>363.1</ele>
        <time>2022-04-18T10:19:33Z</time>
      </trkpt>
      <trkpt lat="49.04257" lon="7.73044">
        <ele>363.3</ele>
        <time>2022-04-18T10:19:48Z</time>
      </trkpt>
      <trkpt lat="49.04263" lon="7.73038">
        <ele>363.4</ele>
        <time>2022-04-18T10:20:04Z</time>
      </trkpt>
      <trkpt lat="49.04263" lon="7.73039">
        <ele>363.4</ele>
        <time>2022-04-18T10:20:05Z</time>
      </trkpt>
      <trkpt lat="49.0426" lon="7.73042">
        <ele>363.5</ele>
        <time>2022-04-18T10:20:11Z</time>
      </trkpt>
      <trkpt lat="49.0426" lon="7.73044">
        <ele>363.5</ele>
        <time>2022-04-18T10:20:12Z</time>
      </trkpt>
      <trkpt lat="49.04261" lon="7.73043">
        <ele>363.5</ele>
        <time>2022-04-18T10:20:16Z</time>
      </trkpt>
      <trkpt lat="49.04261" lon="7.73043">
        <ele>363.5</ele>
        <time>2022-04-18T10:20:18Z</time>
      </trkpt>
      <trkpt lat="49.04252" lon="7.73045">
        <ele>363.7</ele>
        <time>2022-04-18T10:21:19Z</time>
      </trkpt>
      <trkpt lat="49.04246" lon="7.73055">
        <ele>363.8</ele>
        <time>2022-04-18T10:22:33Z</time>
      </trkpt>
      <trkpt lat="49.04255" lon="7.73053">
        <ele>363.9</ele>
        <time>2022-04-18T10:22:53Z</time>
      </trkpt>
      <trkpt lat="49.04256" lon="7.73058">
        <ele>364</ele>
        <time>2022-04-18T10:23:05Z</time>
      </trkpt>
      <trkpt lat="49.04256" lon="7.73059">
        <ele>364</ele>
        <time>2022-04-18T10:23:06Z</time>
      </trkpt>
      <trkpt lat="49.04256" lon="7.73063">
        <ele>364</ele>
        <time>2022-04-18T10:23:19Z</time>
      </trkpt>
      <trkpt lat="49.04256" lon="7.7306">
        <ele>364</ele>
        <time>2022-04-18T10:23:20Z</time>
      </trkpt>
      <trkpt lat="49.04259" lon="7.73047">
        <ele>364.2</ele>
        <time>2022-04-18T10:23:36Z</time>
      </trkpt>
      <trkpt lat="49.04258" lon="7.73047">
        <ele>364.2</ele>
        <time>2022-04-18T10:23:41Z</time>
      </trkpt>
      <trkpt lat="49.04257" lon="7.73048">
        <ele>364.2</ele>
        <time>2022-04-18T10:23:42Z</time>
      </trkpt>
      <trkpt lat="49.04248" lon="7.73054">
        <ele>364.3</ele>
        <time>2022-04-18T10:24:11Z</time>
      </trkpt>
      <trkpt lat="49.04246" lon="7.73061">
        <ele>364.4</ele>
        <time>2022-04-18T10:24:41Z</time>
      </trkpt>
      <trkpt lat="49.04247" lon="7.73061">
        <ele>364.4</ele>
        <time>2022-04-18T10:24:42Z</time>
      </trkpt>
      <trkpt lat="49.04248" lon="7.73061">
        <ele>364.4</ele>
        <time>2022-04-18T10:25:17Z</time>
      </trkpt>
      <trkpt lat="49.04248" lon="7.73061">
        <ele>364.4</ele>
        <time>2022-04-18T10:25:18Z</time>
      </trkpt>
      <trkpt lat="49.04254" lon="7.73059">
        <ele>364.5</ele>
        <time>2022-04-18T10:25:32Z</time>
      </trkpt>
      <trkpt lat="49.04254" lon="7.73059">
        <ele>364.5</ele>
        <time>2022-04-18T10:25:33Z</time>
      </trkpt>
      <trkpt lat="49.04251" lon="7.73053">
        <ele>364.5</ele>
        <time>2022-04-18T10:25:40Z</time>
      </trkpt>
      <trkpt lat="49.04251" lon="7.73053">
        <ele>364.5</ele>
        <time>2022-04-18T10:25:41Z</time>
      </trkpt>
      <trkpt lat="49.04246" lon="7.73064">
        <ele>364.6</ele>
        <time>2022-04-18T10:26:25Z</time>
      </trkpt>
      <trkpt lat="49.04236" lon="7.73067">
        <ele>364.7</ele>
        <time>2022-04-18T10:26:42Z</time>
      </trkpt>
      <trkpt lat="49.04245" lon="7.73065">
        <ele>364.8</ele>
        <time>2022-04-18T10:27:02Z</time>
      </trkpt>
      <trkpt lat="49.04236" lon="7.73069">
        <ele>364.9</ele>
        <time>2022-04-18T10:27:11Z</time>
      </trkpt>
      <trkpt lat="49.04227" lon="7.73066">
        <ele>365.2</ele>
        <time>2022-04-18T10:27:30Z</time>
      </trkpt>
      <trkpt lat="49.04237" lon="7.73065">
        <ele>365.1</ele>
        <time>2022-04-18T10:27:38Z</time>
      </trkpt>
      <trkpt lat="49.04239" lon="7.7306">
        <ele>365</ele>
        <time>2022-04-18T10:27:53Z</time>
      </trkpt>
      <trkpt lat="49.04239" lon="7.7306">
        <ele>365</ele>
        <time>2022-04-18T10:27:54Z</time>
      </trkpt>
      <trkpt lat="49.04238" lon="7.73061">
        <ele>365</ele>
        <time>2022-04-18T10:27:58Z</time>
      </trkpt>
      <trkpt lat="49.04238" lon="7.73061">
        <ele>365</ele>
        <time>2022-04-18T10:27:59Z</time>
      </trkpt>
      <trkpt lat="49.04238" lon="7.73061">
        <ele>365</ele>
        <time>2022-04-18T10:28:02Z</time>
      </trkpt>
      <trkpt lat="49.04237" lon="7.73062">
        <ele>364.9</ele>
        <time>2022-04-18T10:28:03Z</time>
      </trkpt>
      <trkpt lat="49.0424" lon="7.73068">
        <ele>364.8</ele>
        <time>2022-04-18T10:28:25Z</time>
      </trkpt>
      <trkpt lat="49.0424" lon="7.73068">
        <ele>364.8</ele>
        <time>2022-04-18T10:28:26Z</time>
      </trkpt>
      <trkpt lat="49.04249" lon="7.73065">
        <ele>364.6</ele>
        <time>2022-04-18T10:28:45Z</time>
      </trkpt>
      <trkpt lat="49.04249" lon="7.73065">
        <ele>364.6</ele>
        <time>2022-04-18T10:28:47Z</time>
      </trkpt>
      <trkpt lat="49.0425" lon="7.73065">
        <ele>364.6</ele>
        <time>2022-04-18T10:28:48Z</time>
      </trkpt>
      <trkpt lat="49.04243" lon="7.73057">
        <ele>364.3</ele>
        <time>2022-04-18T10:29:00Z</time>
      </trkpt>
      <trkpt lat="49.04243" lon="7.73043">
        <ele>362.4</ele>
        <time>2022-04-18T10:29:17Z</time>
      </trkpt>
      <trkpt lat="49.04241" lon="7.73035">
        <ele>362.4</ele>
        <time>2022-04-18T10:29:34Z</time>
      </trkpt>
      <trkpt lat="49.04242" lon="7.73035">
        <ele>362.4</ele>
        <time>2022-04-18T10:29:35Z</time>
      </trkpt>
      <trkpt lat="49.04243" lon="7.73029">
        <ele>362.4</ele>
        <time>2022-04-18T10:29:43Z</time>
      </trkpt>
      <trkpt lat="49.04243" lon="7.73029">
        <ele>362.4</ele>
        <time>2022-04-18T10:29:44Z</time>
      </trkpt>
      <trkpt lat="49.04245" lon="7.73034">
        <ele>362.4</ele>
        <time>2022-04-18T10:30:03Z</time>
      </trkpt>
      <trkpt lat="49.04245" lon="7.73035">
        <ele>362.4</ele>
        <time>2022-04-18T10:30:04Z</time>
      </trkpt>
      <trkpt lat="49.04232" lon="7.73034">
        <ele>363</ele>
        <time>2022-04-18T10:30:08Z</time>
      </trkpt>
      <trkpt lat="49.04245" lon="7.73044">
        <ele>384.3</ele>
        <time>2022-04-18T10:30:17Z</time>
      </trkpt>
      <trkpt lat="49.04256" lon="7.73045">
        <ele>384.3</ele>
        <time>2022-04-18T10:30:20Z</time>
      </trkpt>
      <trkpt lat="49.04259" lon="7.7305">
        <ele>384.3</ele>
        <time>2022-04-18T10:30:25Z</time>
      </trkpt>
      <trkpt lat="49.04259" lon="7.7305">
        <ele>384.3</ele>
        <time>2022-04-18T10:30:29Z</time>
      </trkpt>
      <trkpt lat="49.04255" lon="7.73059">
        <ele>384.3</ele>
        <time>2022-04-18T10:30:49Z</time>
      </trkpt>
      <trkpt lat="49.04255" lon="7.73059">
        <ele>384.3</ele>
        <time>2022-04-18T10:30:51Z</time>
      </trkpt>
      <trkpt lat="49.04253" lon="7.73059">
        <ele>384.3</ele>
        <time>2022-04-18T10:31:06Z</time>
      </trkpt>
      <trkpt lat="49.04254" lon="7.73059">
        <ele>384.3</ele>
        <time>2022-04-18T10:31:10Z</time>
      </trkpt>
      <trkpt lat="49.04254" lon="7.73058">
        <ele>384.3</ele>
        <time>2022-04-18T10:31:13Z</time>
      </trkpt>
      <trkpt lat="49.04254" lon="7.73058">
        <ele>384.3</ele>
        <time>2022-04-18T10:31:14Z</time>
      </trkpt>
      <trkpt lat="49.04254" lon="7.73058">
        <ele>384.3</ele>
        <time>2022-04-18T10:31:15Z</time>
      </trkpt>
      <trkpt lat="49.04254" lon="7.73059">
        <ele>384.3</ele>
        <time>2022-04-18T10:31:27Z</time>
      </trkpt>
      <trkpt lat="49.04257" lon="7.73061">
        <ele>384.3</ele>
        <time>2022-04-18T10:31:42Z</time>
      </trkpt>
      <trkpt lat="49.04257" lon="7.73061">
        <ele>384.3</ele>
        <time>2022-04-18T10:31:45Z</time>
      </trkpt>
      <trkpt lat="49.04262" lon="7.73064">
        <ele>384.3</ele>
        <time>2022-04-18T10:32:00Z</time>
      </trkpt>
      <trkpt lat="49.04262" lon="7.73064">
        <ele>384.3</ele>
        <time>2022-04-18T10:32:06Z</time>
      </trkpt>
      <trkpt lat="49.04262" lon="7.73066">
        <ele>384.3</ele>
        <time>2022-04-18T10:32:12Z</time>
      </trkpt>
      <trkpt lat="49.04262" lon="7.73066">
        <ele>384.3</ele>
        <time>2022-04-18T10:32:13Z</time>
      </trkpt>
      <trkpt lat="49.04259" lon="7.73064">
        <ele>384.3</ele>
        <time>2022-04-18T10:32:30Z</time>
      </trkpt>
      <trkpt lat="49.0426" lon="7.73064">
        <ele>384.3</ele>
        <time>2022-04-18T10:32:31Z</time>
      </trkpt>
      <trkpt lat="49.04261" lon="7.73065">
        <ele>384.3</ele>
        <time>2022-04-18T10:32:41Z</time>
      </trkpt>
      <trkpt lat="49.04261" lon="7.73065">
        <ele>384.3</ele>
        <time>2022-04-18T10:32:42Z</time>
      </trkpt>
      <trkpt lat="49.04261" lon="7.73064">
        <ele>384.3</ele>
        <time>2022-04-18T10:32:46Z</time>
      </trkpt>
      <trkpt lat="49.04261" lon="7.73064">
        <ele>384.3</ele>
        <time>2022-04-18T10:32:49Z</time>
      </trkpt>
      <trkpt lat="49.04261" lon="7.73065">
        <ele>384.3</ele>
        <time>2022-04-18T10:32:52Z</time>
      </trkpt>
      <trkpt lat="49.04262" lon="7.73065">
        <ele>384.3</ele>
        <time>2022-04-18T10:32:53Z</time>
      </trkpt>
      <trkpt lat="49.04262" lon="7.73063">
        <ele>384.3</ele>
        <time>2022-04-18T10:33:01Z</time>
      </trkpt>
      <trkpt lat="49.04261" lon="7.73063">
        <ele>384.3</ele>
        <time>2022-04-18T10:33:02Z</time>
      </trkpt>
      <trkpt lat="49.04261" lon="7.73064">
        <ele>384.3</ele>
        <time>2022-04-18T10:33:05Z</time>
      </trkpt>
      <trkpt lat="49.04261" lon="7.73064">
        <ele>384.3</ele>
        <time>2022-04-18T10:33:08Z</time>
      </trkpt>
      <trkpt lat="49.04259" lon="7.73066">
        <ele>384.3</ele>
        <time>2022-04-18T10:33:20Z</time>
      </trkpt>
      <trkpt lat="49.04259" lon="7.73067">
        <ele>384.3</ele>
        <time>2022-04-18T10:33:21Z</time>
      </trkpt>
      <trkpt lat="49.04259" lon="7.73067">
        <ele>384.3</ele>
        <time>2022-04-18T10:33:25Z</time>
      </trkpt>
      <trkpt lat="49.04259" lon="7.73067">
        <ele>384.3</ele>
        <time>2022-04-18T10:33:26Z</time>
      </trkpt>
      <trkpt lat="49.04259" lon="7.73068">
        <ele>384.3</ele>
        <time>2022-04-18T10:33:29Z</time>
      </trkpt>
      <trkpt lat="49.04259" lon="7.73068">
        <ele>384.3</ele>
        <time>2022-04-18T10:33:30Z</time>
      </trkpt>
      <trkpt lat="49.04255" lon="7.73067">
        <ele>384.3</ele>
        <time>2022-04-18T10:33:53Z</time>
      </trkpt>
      <trkpt lat="49.04254" lon="7.73068">
        <ele>384.3</ele>
        <time>2022-04-18T10:33:54Z</time>
      </trkpt>
      <trkpt lat="49.04254" lon="7.73068">
        <ele>384.3</ele>
        <time>2022-04-18T10:33:55Z</time>
      </trkpt>
      <trkpt lat="49.04254" lon="7.73067">
        <ele>384.3</ele>
        <time>2022-04-18T10:33:56Z</time>
      </trkpt>
      <trkpt lat="49.04254" lon="7.73067">
        <ele>384.3</ele>
        <time>2022-04-18T10:33:58Z</time>
      </trkpt>
      <trkpt lat="49.04254" lon="7.73067">
        <ele>384.3</ele>
        <time>2022-04-18T10:34:01Z</time>
      </trkpt>
      <trkpt lat="49.04255" lon="7.73067">
        <ele>384.3</ele>
        <time>2022-04-18T10:34:04Z</time>
      </trkpt>
      <trkpt lat="49.04255" lon="7.73067">
        <ele>384.3</ele>
        <time>2022-04-18T10:34:09Z</time>
      </trkpt>
      <trkpt lat="49.04256" lon="7.73064">
        <ele>384.3</ele>
        <time>2022-04-18T10:34:22Z</time>
      </trkpt>
      <trkpt lat="49.04256" lon="7.73065">
        <ele>384.3</ele>
        <time>2022-04-18T10:34:23Z</time>
      </trkpt>
      <trkpt lat="49.04256" lon="7.73064">
        <ele>384.3</ele>
        <time>2022-04-18T10:34:32Z</time>
      </trkpt>
      <trkpt lat="49.04256" lon="7.73064">
        <ele>384.3</ele>
        <time>2022-04-18T10:34:33Z</time>
      </trkpt>
      <trkpt lat="49.04257" lon="7.73066">
        <ele>384.3</ele>
        <time>2022-04-18T10:34:41Z</time>
      </trkpt>
      <trkpt lat="49.04257" lon="7.73067">
        <ele>384.3</ele>
        <time>2022-04-18T10:34:42Z</time>
      </trkpt>
      <trkpt lat="49.04258" lon="7.73067">
        <ele>384.3</ele>
        <time>2022-04-18T10:34:44Z</time>
      </trkpt>
      <trkpt lat="49.04258" lon="7.73068">
        <ele>384.3</ele>
        <time>2022-04-18T10:34:45Z</time>
      </trkpt>
      <trkpt lat="49.04258" lon="7.73068">
        <ele>384.3</ele>
        <time>2022-04-18T10:34:49Z</time>
      </trkpt>
      <trkpt lat="49.04257" lon="7.73067">
        <ele>384.3</ele>
        <time>2022-04-18T10:34:50Z</time>
      </trkpt>
      <trkpt lat="49.04256" lon="7.73069">
        <ele>384.3</ele>
        <time>2022-04-18T10:35:08Z</time>
      </trkpt>
      <trkpt lat="49.04255" lon="7.7307">
        <ele>384.3</ele>
        <time>2022-04-18T10:35:09Z</time>
      </trkpt>
      <trkpt lat="49.04264" lon="7.73068">
        <ele>384.3</ele>
        <time>2022-04-18T10:35:33Z</time>
      </trkpt>
      <trkpt lat="49.04264" lon="7.73067">
        <ele>384.3</ele>
        <time>2022-04-18T10:35:34Z</time>
      </trkpt>
      <trkpt lat="49.04264" lon="7.73067">
        <ele>384.3</ele>
        <time>2022-04-18T10:35:35Z</time>
      </trkpt>
      <trkpt lat="49.04263" lon="7.73067">
        <ele>384.3</ele>
        <time>2022-04-18T10:35:36Z</time>
      </trkpt>
      <trkpt lat="49.04263" lon="7.73067">
        <ele>384.3</ele>
        <time>2022-04-18T10:35:37Z</time>
      </trkpt>
      <trkpt lat="49.04263" lon="7.73066">
        <ele>384.3</ele>
        <time>2022-04-18T10:35:44Z</time>
      </trkpt>
      <trkpt lat="49.0426" lon="7.73063">
        <ele>384.3</ele>
        <time>2022-04-18T10:35:50Z</time>
      </trkpt>
      <trkpt lat="49.0426" lon="7.73062">
        <ele>384.3</ele>
        <time>2022-04-18T10:35:55Z</time>
      </trkpt>
      <trkpt lat="49.0426" lon="7.73062">
        <ele>384.3</ele>
        <time>2022-04-18T10:35:56Z</time>
      </trkpt>
      <trkpt lat="49.04261" lon="7.73062">
        <ele>384.3</ele>
        <time>2022-04-18T10:35:57Z</time>
      </trkpt>
      <trkpt lat="49.0426" lon="7.73063">
        <ele>384.3</ele>
        <time>2022-04-18T10:36:00Z</time>
      </trkpt>
      <trkpt lat="49.0426" lon="7.73062">
        <ele>384.3</ele>
        <time>2022-04-18T10:36:11Z</time>
      </trkpt>
      <trkpt lat="49.04261" lon="7.73062">
        <ele>384.3</ele>
        <time>2022-04-18T10:36:13Z</time>
      </trkpt>
      <trkpt lat="49.04261" lon="7.73062">
        <ele>384.3</ele>
        <time>2022-04-18T10:36:15Z</time>
      </trkpt>
      <trkpt lat="49.04265" lon="7.73061">
        <ele>384.3</ele>
        <time>2022-04-18T10:36:25Z</time>
      </trkpt>
      <trkpt lat="49.04265" lon="7.73061">
        <ele>384.3</ele>
        <time>2022-04-18T10:36:28Z</time>
      </trkpt>
      <trkpt lat="49.04264" lon="7.73061">
        <ele>384.3</ele>
        <time>2022-04-18T10:36:31Z</time>
      </trkpt>
      <trkpt lat="49.04264" lon="7.73061">
        <ele>384.3</ele>
        <time>2022-04-18T10:36:33Z</time>
      </trkpt>
      <trkpt lat="49.04262" lon="7.7306">
        <ele>384.3</ele>
        <time>2022-04-18T10:36:38Z</time>
      </trkpt>
      <trkpt lat="49.04262" lon="7.7306">
        <ele>384.3</ele>
        <time>2022-04-18T10:36:39Z</time>
      </trkpt>
      <trkpt lat="49.04262" lon="7.73059">
        <ele>384.3</ele>
        <time>2022-04-18T10:36:41Z</time>
      </trkpt>
      <trkpt lat="49.04262" lon="7.73059">
        <ele>384.3</ele>
        <time>2022-04-18T10:36:42Z</time>
      </trkpt>
      <trkpt lat="49.04261" lon="7.73061">
        <ele>384.2</ele>
        <time>2022-04-18T10:36:44Z</time>
      </trkpt>
      <trkpt lat="49.0426" lon="7.73061">
        <ele>384.2</ele>
        <time>2022-04-18T10:36:46Z</time>
      </trkpt>
      <trkpt lat="49.04259" lon="7.73061">
        <ele>384.2</ele>
        <time>2022-04-18T10:36:50Z</time>
      </trkpt>
      <trkpt lat="49.04259" lon="7.73061">
        <ele>384.2</ele>
        <time>2022-04-18T10:36:52Z</time>
      </trkpt>
      <trkpt lat="49.04259" lon="7.73061">
        <ele>384.2</ele>
        <time>2022-04-18T10:36:53Z</time>
      </trkpt>
      <trkpt lat="49.04259" lon="7.73061">
        <ele>384.2</ele>
        <time>2022-04-18T10:36:54Z</time>
      </trkpt>
      <trkpt lat="49.04259" lon="7.73062">
        <ele>384.2</ele>
        <time>2022-04-18T10:36:59Z</time>
      </trkpt>
      <trkpt lat="49.04259" lon="7.73062">
        <ele>384.2</ele>
        <time>2022-04-18T10:37:00Z</time>
      </trkpt>
      <trkpt lat="49.04259" lon="7.73063">
        <ele>384.2</ele>
        <time>2022-04-18T10:37:02Z</time>
      </trkpt>
      <trkpt lat="49.04259" lon="7.73063">
        <ele>384.2</ele>
        <time>2022-04-18T10:37:07Z</time>
      </trkpt>
      <trkpt lat="49.04259" lon="7.73063">
        <ele>384.2</ele>
        <time>2022-04-18T10:37:08Z</time>
      </trkpt>
      <trkpt lat="49.04259" lon="7.73063">
        <ele>384.2</ele>
        <time>2022-04-18T10:37:10Z</time>
      </trkpt>
      <trkpt lat="49.04259" lon="7.73063">
        <ele>384.2</ele>
        <time>2022-04-18T10:37:13Z</time>
      </trkpt>
      <trkpt lat="49.04258" lon="7.73063">
        <ele>384.2</ele>
        <time>2022-04-18T10:37:28Z</time>
      </trkpt>
      <trkpt lat="49.04256" lon="7.73069">
        <ele>384.2</ele>
        <time>2022-04-18T10:37:37Z</time>
      </trkpt>
      <trkpt lat="49.04256" lon="7.73069">
        <ele>384.2</ele>
        <time>2022-04-18T10:37:38Z</time>
      </trkpt>
      <trkpt lat="49.04256" lon="7.73069">
        <ele>384.2</ele>
        <time>2022-04-18T10:37:39Z</time>
      </trkpt>
      <trkpt lat="49.04256" lon="7.73068">
        <ele>384.2</ele>
        <time>2022-04-18T10:37:42Z</time>
      </trkpt>
      <trkpt lat="49.04256" lon="7.7307">
        <ele>384.2</ele>
        <time>2022-04-18T10:37:47Z</time>
      </trkpt>
      <trkpt lat="49.04256" lon="7.73071">
        <ele>384.2</ele>
        <time>2022-04-18T10:37:52Z</time>
      </trkpt>
      <trkpt lat="49.04256" lon="7.73072">
        <ele>384.2</ele>
        <time>2022-04-18T10:37:55Z</time>
      </trkpt>
      <trkpt lat="49.04256" lon="7.73073">
        <ele>384.2</ele>
        <time>2022-04-18T10:37:56Z</time>
      </trkpt>
      <trkpt lat="49.04256" lon="7.73073">
        <ele>384.2</ele>
        <time>2022-04-18T10:37:57Z</time>
      </trkpt>
      <trkpt lat="49.04257" lon="7.73074">
        <ele>384.2</ele>
        <time>2022-04-18T10:37:58Z</time>
      </trkpt>
      <trkpt lat="49.04257" lon="7.73075">
        <ele>384.2</ele>
        <time>2022-04-18T10:38:01Z</time>
      </trkpt>
      <trkpt lat="49.04257" lon="7.73075">
        <ele>384.2</ele>
        <time>2022-04-18T10:38:03Z</time>
      </trkpt>
      <trkpt lat="49.04257" lon="7.73075">
        <ele>384.2</ele>
        <time>2022-04-18T10:38:04Z</time>
      </trkpt>
      <trkpt lat="49.04257" lon="7.73076">
        <ele>384.2</ele>
        <time>2022-04-18T10:38:08Z</time>
      </trkpt>
      <trkpt lat="49.04257" lon="7.73076">
        <ele>384.2</ele>
        <time>2022-04-18T10:38:09Z</time>
      </trkpt>
      <trkpt lat="49.04257" lon="7.73076">
        <ele>384.2</ele>
        <time>2022-04-18T10:38:14Z</time>
      </trkpt>
      <trkpt lat="49.04256" lon="7.73077">
        <ele>384.2</ele>
        <time>2022-04-18T10:38:17Z</time>
      </trkpt>
      <trkpt lat="49.04256" lon="7.73076">
        <ele>384.2</ele>
        <time>2022-04-18T10:38:18Z</time>
      </trkpt>
      <trkpt lat="49.04257" lon="7.73074">
        <ele>384.2</ele>
        <time>2022-04-18T10:38:23Z</time>
      </trkpt>
      <trkpt lat="49.04257" lon="7.73073">
        <ele>384.2</ele>
        <time>2022-04-18T10:38:27Z</time>
      </trkpt>
      <trkpt lat="49.04257" lon="7.73073">
        <ele>384.2</ele>
        <time>2022-04-18T10:38:28Z</time>
      </trkpt>
      <trkpt lat="49.04257" lon="7.73073">
        <ele>384.2</ele>
        <time>2022-04-18T10:38:30Z</time>
      </trkpt>
      <trkpt lat="49.04257" lon="7.73073">
        <ele>384.2</ele>
        <time>2022-04-18T10:38:31Z</time>
      </trkpt>
      <trkpt lat="49.04257" lon="7.73074">
        <ele>384.2</ele>
        <time>2022-04-18T10:38:32Z</time>
      </trkpt>
      <trkpt lat="49.04258" lon="7.73074">
        <ele>384.2</ele>
        <time>2022-04-18T10:38:45Z</time>
      </trkpt>
      <trkpt lat="49.04258" lon="7.73073">
        <ele>384.2</ele>
        <time>2022-04-18T10:38:47Z</time>
      </trkpt>
      <trkpt lat="49.04258" lon="7.73073">
        <ele>384.2</ele>
        <time>2022-04-18T10:38:48Z</time>
      </trkpt>
      <trkpt lat="49.04259" lon="7.73072">
        <ele>384.2</ele>
        <time>2022-04-18T10:38:49Z</time>
      </trkpt>
      <trkpt lat="49.04259" lon="7.73072">
        <ele>384.2</ele>
        <time>2022-04-18T10:38:52Z</time>
      </trkpt>
      <trkpt lat="49.04258" lon="7.73072">
        <ele>384.2</ele>
        <time>2022-04-18T10:38:59Z</time>
      </trkpt>
      <trkpt lat="49.04258" lon="7.73072">
        <ele>384.2</ele>
        <time>2022-04-18T10:39:00Z</time>
      </trkpt>
      <trkpt lat="49.04258" lon="7.73072">
        <ele>384.2</ele>
        <time>2022-04-18T10:39:01Z</time>
      </trkpt>
      <trkpt lat="49.04258" lon="7.73072">
        <ele>384.2</ele>
        <time>2022-04-18T10:39:02Z</time>
      </trkpt>
      <trkpt lat="49.04258" lon="7.73072">
        <ele>384.2</ele>
        <time>2022-04-18T10:39:05Z</time>
      </trkpt>
      <trkpt lat="49.04259" lon="7.73072">
        <ele>384.2</ele>
        <time>2022-04-18T10:39:07Z</time>
      </trkpt>
      <trkpt lat="49.04259" lon="7.73073">
        <ele>384.2</ele>
        <time>2022-04-18T10:39:10Z</time>
      </trkpt>
      <trkpt lat="49.04259" lon="7.73071">
        <ele>384.2</ele>
        <time>2022-04-18T10:39:17Z</time>
      </trkpt>
      <trkpt lat="49.04259" lon="7.73071">
        <ele>384.2</ele>
        <time>2022-04-18T10:39:22Z</time>
      </trkpt>
      <trkpt lat="49.04259" lon="7.73071">
        <ele>384.2</ele>
        <time>2022-04-18T10:39:23Z</time>
      </trkpt>
      <trkpt lat="49.04259" lon="7.73071">
        <ele>384.2</ele>
        <time>2022-04-18T10:39:29Z</time>
      </trkpt>
      <trkpt lat="49.04259" lon="7.73071">
        <ele>384.2</ele>
        <time>2022-04-18T10:39:31Z</time>
      </trkpt>
      <trkpt lat="49.04259" lon="7.7307">
        <ele>384.2</ele>
        <time>2022-04-18T10:39:35Z</time>
      </trkpt>
      <trkpt lat="49.04259" lon="7.7307">
        <ele>384.2</ele>
        <time>2022-04-18T10:39:39Z</time>
      </trkpt>
      <trkpt lat="49.0426" lon="7.7307">
        <ele>384.2</ele>
        <time>2022-04-18T10:39:40Z</time>
      </trkpt>
      <trkpt lat="49.0426" lon="7.7307">
        <ele>384.2</ele>
        <time>2022-04-18T10:39:41Z</time>
      </trkpt>
      <trkpt lat="49.0426" lon="7.73071">
        <ele>384.2</ele>
        <time>2022-04-18T10:39:44Z</time>
      </trkpt>
      <trkpt lat="49.0426" lon="7.73071">
        <ele>384.2</ele>
        <time>2022-04-18T10:39:48Z</time>
      </trkpt>
      <trkpt lat="49.0426" lon="7.73071">
        <ele>384.2</ele>
        <time>2022-04-18T10:39:50Z</time>
      </trkpt>
      <trkpt lat="49.0426" lon="7.7307">
        <ele>384.2</ele>
        <time>2022-04-18T10:39:52Z</time>
      </trkpt>
      <trkpt lat="49.04259" lon="7.7307">
        <ele>384.2</ele>
        <time>2022-04-18T10:39:54Z</time>
      </trkpt>
      <trkpt lat="49.04259" lon="7.7307">
        <ele>384.2</ele>
        <time>2022-04-18T10:39:55Z</time>
      </trkpt>
      <trkpt lat="49.04259" lon="7.73069">
        <ele>384.2</ele>
        <time>2022-04-18T10:39:58Z</time>
      </trkpt>
      <trkpt lat="49.04259" lon="7.73069">
        <ele>384.2</ele>
        <time>2022-04-18T10:39:59Z</time>
      </trkpt>
      <trkpt lat="49.04259" lon="7.73069">
        <ele>384.2</ele>
        <time>2022-04-18T10:40:00Z</time>
      </trkpt>
      <trkpt lat="49.04259" lon="7.73069">
        <ele>384.2</ele>
        <time>2022-04-18T10:40:02Z</time>
      </trkpt>
      <trkpt lat="49.04259" lon="7.73068">
        <ele>384.2</ele>
        <time>2022-04-18T10:40:14Z</time>
      </trkpt>
      <trkpt lat="49.04259" lon="7.73068">
        <ele>384.2</ele>
        <time>2022-04-18T10:40:16Z</time>
      </trkpt>
      <trkpt lat="49.04258" lon="7.73068">
        <ele>384.2</ele>
        <time>2022-04-18T10:40:18Z</time>
      </trkpt>
      <trkpt lat="49.04258" lon="7.73068">
        <ele>384.2</ele>
        <time>2022-04-18T10:40:22Z</time>
      </trkpt>
      <trkpt lat="49.04257" lon="7.73068">
        <ele>384.2</ele>
        <time>2022-04-18T10:40:24Z</time>
      </trkpt>
      <trkpt lat="49.04257" lon="7.73068">
        <ele>384.2</ele>
        <time>2022-04-18T10:40:25Z</time>
      </trkpt>
      <trkpt lat="49.04257" lon="7.73067">
        <ele>384.2</ele>
        <time>2022-04-18T10:40:26Z</time>
      </trkpt>
      <trkpt lat="49.04257" lon="7.73067">
        <ele>384.2</ele>
        <time>2022-04-18T10:40:28Z</time>
      </trkpt>
      <trkpt lat="49.04257" lon="7.73067">
        <ele>384.2</ele>
        <time>2022-04-18T10:40:29Z</time>
      </trkpt>
      <trkpt lat="49.04257" lon="7.73067">
        <ele>384.2</ele>
        <time>2022-04-18T10:40:30Z</time>
      </trkpt>
      <trkpt lat="49.04257" lon="7.73067">
        <ele>384.2</ele>
        <time>2022-04-18T10:40:33Z</time>
      </trkpt>
      <trkpt lat="49.04257" lon="7.73067">
        <ele>384.2</ele>
        <time>2022-04-18T10:40:34Z</time>
      </trkpt>
      <trkpt lat="49.04257" lon="7.73067">
        <ele>384.2</ele>
        <time>2022-04-18T10:40:36Z</time>
      </trkpt>
      <trkpt lat="49.04257" lon="7.73067">
        <ele>384.2</ele>
        <time>2022-04-18T10:40:37Z</time>
      </trkpt>
      <trkpt lat="49.04256" lon="7.73067">
        <ele>384.2</ele>
        <time>2022-04-18T10:40:38Z</time>
      </trkpt>
      <trkpt lat="49.04256" lon="7.73067">
        <ele>384.2</ele>
        <time>2022-04-18T10:40:41Z</time>
      </trkpt>
      <trkpt lat="49.04256" lon="7.73066">
        <ele>384.2</ele>
        <time>2022-04-18T10:40:42Z</time>
      </trkpt>
      <trkpt lat="49.04255" lon="7.73063">
        <ele>384.2</ele>
        <time>2022-04-18T10:40:47Z</time>
      </trkpt>
      <trkpt lat="49.04255" lon="7.73063">
        <ele>384.2</ele>
        <time>2022-04-18T10:40:48Z</time>
      </trkpt>
      <trkpt lat="49.04254" lon="7.73061">
        <ele>384.2</ele>
        <time>2022-04-18T10:40:54Z</time>
      </trkpt>
      <trkpt lat="49.04254" lon="7.7306">
        <ele>384.2</ele>
        <time>2022-04-18T10:40:58Z</time>
      </trkpt>
      <trkpt lat="49.04254" lon="7.73058">
        <ele>384.2</ele>
        <time>2022-04-18T10:41:04Z</time>
      </trkpt>
      <trkpt lat="49.04254" lon="7.73058">
        <ele>384.2</ele>
        <time>2022-04-18T10:41:07Z</time>
      </trkpt>
      <trkpt lat="49.04254" lon="7.73058">
        <ele>384.2</ele>
        <time>2022-04-18T10:41:08Z</time>
      </trkpt>
      <trkpt lat="49.04255" lon="7.73059">
        <ele>384.2</ele>
        <time>2022-04-18T10:41:13Z</time>
      </trkpt>
      <trkpt lat="49.04258" lon="7.73061">
        <ele>384.2</ele>
        <time>2022-04-18T10:41:24Z</time>
      </trkpt>
      <trkpt lat="49.04258" lon="7.73061">
        <ele>384.2</ele>
        <time>2022-04-18T10:41:26Z</time>
      </trkpt>
      <trkpt lat="49.04258" lon="7.73061">
        <ele>384.2</ele>
        <time>2022-04-18T10:41:27Z</time>
      </trkpt>
      <trkpt lat="49.04258" lon="7.73061">
        <ele>384.2</ele>
        <time>2022-04-18T10:41:31Z</time>
      </trkpt>
      <trkpt lat="49.04258" lon="7.73059">
        <ele>384.2</ele>
        <time>2022-04-18T10:41:33Z</time>
      </trkpt>
      <trkpt lat="49.04258" lon="7.73059">
        <ele>384.2</ele>
        <time>2022-04-18T10:41:35Z</time>
      </trkpt>
      <trkpt lat="49.04259" lon="7.73057">
        <ele>384.2</ele>
        <time>2022-04-18T10:41:39Z</time>
      </trkpt>
      <trkpt lat="49.04259" lon="7.73057">
        <ele>384.2</ele>
        <time>2022-04-18T10:41:41Z</time>
      </trkpt>
      <trkpt lat="49.04258" lon="7.73056">
        <ele>384.2</ele>
        <time>2022-04-18T10:41:45Z</time>
      </trkpt>
      <trkpt lat="49.04258" lon="7.73056">
        <ele>384.2</ele>
        <time>2022-04-18T10:41:46Z</time>
      </trkpt>
      <trkpt lat="49.04262" lon="7.73053">
        <ele>384.3</ele>
        <time>2022-04-18T10:41:57Z</time>
      </trkpt>
      <trkpt lat="49.04261" lon="7.73053">
        <ele>384.3</ele>
        <time>2022-04-18T10:42:00Z</time>
      </trkpt>
      <trkpt lat="49.04261" lon="7.73053">
        <ele>384.3</ele>
        <time>2022-04-18T10:42:01Z</time>
      </trkpt>
      <trkpt lat="49.04261" lon="7.73052">
        <ele>384.3</ele>
        <time>2022-04-18T10:42:03Z</time>
      </trkpt>
      <trkpt lat="49.04261" lon="7.73052">
        <ele>384.3</ele>
        <time>2022-04-18T10:42:04Z</time>
      </trkpt>
      <trkpt lat="49.04262" lon="7.73052">
        <ele>384.3</ele>
        <time>2022-04-18T10:42:07Z</time>
      </trkpt>
      <trkpt lat="49.04262" lon="7.73052">
        <ele>384.3</ele>
        <time>2022-04-18T10:42:08Z</time>
      </trkpt>
      <trkpt lat="49.04261" lon="7.73053">
        <ele>384.3</ele>
        <time>2022-04-18T10:42:09Z</time>
      </trkpt>
      <trkpt lat="49.04262" lon="7.73053">
        <ele>384.3</ele>
        <time>2022-04-18T10:42:13Z</time>
      </trkpt>
      <trkpt lat="49.04262" lon="7.73053">
        <ele>384.3</ele>
        <time>2022-04-18T10:42:14Z</time>
      </trkpt>
      <trkpt lat="49.0426" lon="7.73054">
        <ele>384.3</ele>
        <time>2022-04-18T10:42:20Z</time>
      </trkpt>
      <trkpt lat="49.04259" lon="7.73054">
        <ele>384.3</ele>
        <time>2022-04-18T10:42:22Z</time>
      </trkpt>
      <trkpt lat="49.04259" lon="7.73054">
        <ele>384.3</ele>
        <time>2022-04-18T10:42:24Z</time>
      </trkpt>
      <trkpt lat="49.04259" lon="7.73055">
        <ele>384.3</ele>
        <time>2022-04-18T10:42:27Z</time>
      </trkpt>
      <trkpt lat="49.04258" lon="7.73056">
        <ele>384.3</ele>
        <time>2022-04-18T10:42:34Z</time>
      </trkpt>
      <trkpt lat="49.04258" lon="7.73055">
        <ele>384.3</ele>
        <time>2022-04-18T10:42:35Z</time>
      </trkpt>
      <trkpt lat="49.04258" lon="7.73055">
        <ele>384.3</ele>
        <time>2022-04-18T10:42:36Z</time>
      </trkpt>
      <trkpt lat="49.04258" lon="7.73055">
        <ele>384.3</ele>
        <time>2022-04-18T10:42:42Z</time>
      </trkpt>
      <trkpt lat="49.04258" lon="7.73055">
        <ele>384.3</ele>
        <time>2022-04-18T10:42:43Z</time>
      </trkpt>
      <trkpt lat="49.04259" lon="7.73055">
        <ele>384.3</ele>
        <time>2022-04-18T10:42:50Z</time>
      </trkpt>
      <trkpt lat="49.04258" lon="7.73059">
        <ele>384.3</ele>
        <time>2022-04-18T10:43:03Z</time>
      </trkpt>
      <trkpt lat="49.04258" lon="7.73058">
        <ele>384.3</ele>
        <time>2022-04-18T10:43:04Z</time>
      </trkpt>
      <trkpt lat="49.04259" lon="7.73057">
        <ele>384.3</ele>
        <time>2022-04-18T10:43:06Z</time>
      </trkpt>
      <trkpt lat="49.04259" lon="7.73057">
        <ele>384.3</ele>
        <time>2022-04-18T10:43:08Z</time>
      </trkpt>
      <trkpt lat="49.04259" lon="7.73056">
        <ele>384.3</ele>
        <time>2022-04-18T10:43:10Z</time>
      </trkpt>
      <trkpt lat="49.04258" lon="7.73059">
        <ele>384.3</ele>
        <time>2022-04-18T10:43:11Z</time>
      </trkpt>
      <trkpt lat="49.04255" lon="7.73064">
        <ele>384.3</ele>
        <time>2022-04-18T10:43:24Z</time>
      </trkpt>
      <trkpt lat="49.04256" lon="7.73064">
        <ele>384.3</ele>
        <time>2022-04-18T10:43:26Z</time>
      </trkpt>
      <trkpt lat="49.04255" lon="7.73065">
        <ele>384.3</ele>
        <time>2022-04-18T10:43:28Z</time>
      </trkpt>
      <trkpt lat="49.04255" lon="7.73065">
        <ele>384.3</ele>
        <time>2022-04-18T10:43:29Z</time>
      </trkpt>
      <trkpt lat="49.04257" lon="7.73064">
        <ele>384.3</ele>
        <time>2022-04-18T10:43:39Z</time>
      </trkpt>
      <trkpt lat="49.04257" lon="7.73064">
        <ele>384.3</ele>
        <time>2022-04-18T10:43:41Z</time>
      </trkpt>
      <trkpt lat="49.04257" lon="7.73064">
        <ele>384.3</ele>
        <time>2022-04-18T10:43:42Z</time>
      </trkpt>
      <trkpt lat="49.04258" lon="7.73063">
        <ele>384.3</ele>
        <time>2022-04-18T10:43:43Z</time>
      </trkpt>
      <trkpt lat="49.0426" lon="7.7306">
        <ele>384.3</ele>
        <time>2022-04-18T10:43:50Z</time>
      </trkpt>
      <trkpt lat="49.0426" lon="7.7306">
        <ele>384.3</ele>
        <time>2022-04-18T10:43:52Z</time>
      </trkpt>
      <trkpt lat="49.0426" lon="7.73059">
        <ele>384.3</ele>
        <time>2022-04-18T10:43:54Z</time>
      </trkpt>
      <trkpt lat="49.0426" lon="7.7306">
        <ele>384.3</ele>
        <time>2022-04-18T10:43:55Z</time>
      </trkpt>
      <trkpt lat="49.04253" lon="7.7307">
        <ele>384.3</ele>
        <time>2022-04-18T10:44:12Z</time>
      </trkpt>
      <trkpt lat="49.04249" lon="7.73073">
        <ele>384.3</ele>
        <time>2022-04-18T10:44:27Z</time>
      </trkpt>
      <trkpt lat="49.04249" lon="7.73072">
        <ele>384.3</ele>
        <time>2022-04-18T10:44:28Z</time>
      </trkpt>
      <trkpt lat="49.0425" lon="7.73069">
        <ele>384.3</ele>
        <time>2022-04-18T10:44:31Z</time>
      </trkpt>
      <trkpt lat="49.0425" lon="7.73069">
        <ele>384.3</ele>
        <time>2022-04-18T10:44:33Z</time>
      </trkpt>
      <trkpt lat="49.04251" lon="7.73067">
        <ele>384.3</ele>
        <time>2022-04-18T10:44:35Z</time>
      </trkpt>
      <trkpt lat="49.04251" lon="7.73066">
        <ele>384.3</ele>
        <time>2022-04-18T10:44:36Z</time>
      </trkpt>
      <trkpt lat="49.04255" lon="7.73058">
        <ele>384.3</ele>
        <time>2022-04-18T10:44:44Z</time>
      </trkpt>
      <trkpt lat="49.04255" lon="7.73057">
        <ele>384.3</ele>
        <time>2022-04-18T10:44:48Z</time>
      </trkpt>
      <trkpt lat="49.04257" lon="7.73045">
        <ele>384.3</ele>
        <time>2022-04-18T10:44:57Z</time>
      </trkpt>
      <trkpt lat="49.04257" lon="7.73044">
        <ele>384.3</ele>
        <time>2022-04-18T10:45:02Z</time>
      </trkpt>
      <trkpt lat="49.04257" lon="7.73042">
        <ele>384.3</ele>
        <time>2022-04-18T10:45:05Z</time>
      </trkpt>
      <trkpt lat="49.04257" lon="7.73043">
        <ele>384.3</ele>
        <time>2022-04-18T10:45:08Z</time>
      </trkpt>
      <trkpt lat="49.04259" lon="7.73041">
        <ele>384.3</ele>
        <time>2022-04-18T10:45:17Z</time>
      </trkpt>
      <trkpt lat="49.04259" lon="7.73042">
        <ele>384.3</ele>
        <time>2022-04-18T10:45:19Z</time>
      </trkpt>
      <trkpt lat="49.04259" lon="7.73042">
        <ele>384.3</ele>
        <time>2022-04-18T10:45:20Z</time>
      </trkpt>
      <trkpt lat="49.04259" lon="7.73041">
        <ele>384.3</ele>
        <time>2022-04-18T10:45:21Z</time>
      </trkpt>
      <trkpt lat="49.04259" lon="7.73041">
        <ele>384.3</ele>
        <time>2022-04-18T10:45:22Z</time>
      </trkpt>
      <trkpt lat="49.04258" lon="7.73041">
        <ele>384.3</ele>
        <time>2022-04-18T10:45:28Z</time>
      </trkpt>
      <trkpt lat="49.04258" lon="7.7304">
        <ele>384.3</ele>
        <time>2022-04-18T10:45:34Z</time>
      </trkpt>
      <trkpt lat="49.04258" lon="7.7304">
        <ele>384.3</ele>
        <time>2022-04-18T10:45:35Z</time>
      </trkpt>
      <trkpt lat="49.04258" lon="7.7304">
        <ele>384.3</ele>
        <time>2022-04-18T10:45:36Z</time>
      </trkpt>
      <trkpt lat="49.04258" lon="7.7304">
        <ele>384.3</ele>
        <time>2022-04-18T10:45:37Z</time>
      </trkpt>
      <trkpt lat="49.04256" lon="7.73045">
        <ele>384.3</ele>
        <time>2022-04-18T10:45:46Z</time>
      </trkpt>
      <trkpt lat="49.04256" lon="7.73045">
        <ele>384.3</ele>
        <time>2022-04-18T10:45:47Z</time>
      </trkpt>
      <trkpt lat="49.04256" lon="7.73045">
        <ele>384.3</ele>
        <time>2022-04-18T10:45:49Z</time>
      </trkpt>
      <trkpt lat="49.04256" lon="7.73046">
        <ele>384.3</ele>
        <time>2022-04-18T10:45:51Z</time>
      </trkpt>
      <trkpt lat="49.04256" lon="7.73046">
        <ele>384.3</ele>
        <time>2022-04-18T10:45:52Z</time>
      </trkpt>
      <trkpt lat="49.04256" lon="7.73048">
        <ele>384.3</ele>
        <time>2022-04-18T10:45:55Z</time>
      </trkpt>
      <trkpt lat="49.04261" lon="7.73054">
        <ele>384.3</ele>
        <time>2022-04-18T10:46:09Z</time>
      </trkpt>
      <trkpt lat="49.04261" lon="7.73054">
        <ele>384.3</ele>
        <time>2022-04-18T10:46:14Z</time>
      </trkpt>
      <trkpt lat="49.04261" lon="7.73055">
        <ele>384.3</ele>
        <time>2022-04-18T10:46:16Z</time>
      </trkpt>
      <trkpt lat="49.0426" lon="7.73055">
        <ele>384.3</ele>
        <time>2022-04-18T10:46:20Z</time>
      </trkpt>
      <trkpt lat="49.04258" lon="7.73057">
        <ele>384.3</ele>
        <time>2022-04-18T10:46:32Z</time>
      </trkpt>
      <trkpt lat="49.04258" lon="7.73058">
        <ele>384.3</ele>
        <time>2022-04-18T10:46:33Z</time>
      </trkpt>
      <trkpt lat="49.04258" lon="7.73057">
        <ele>384.3</ele>
        <time>2022-04-18T10:46:35Z</time>
      </trkpt>
      <trkpt lat="49.04258" lon="7.73057">
        <ele>384.3</ele>
        <time>2022-04-18T10:46:36Z</time>
      </trkpt>
      <trkpt lat="49.04258" lon="7.73057">
        <ele>384.3</ele>
        <time>2022-04-18T10:46:38Z</time>
      </trkpt>
      <trkpt lat="49.04258" lon="7.73057">
        <ele>384.3</ele>
        <time>2022-04-18T10:46:39Z</time>
      </trkpt>
      <trkpt lat="49.04258" lon="7.73057">
        <ele>384.3</ele>
        <time>2022-04-18T10:46:41Z</time>
      </trkpt>
      <trkpt lat="49.04258" lon="7.73056">
        <ele>384.3</ele>
        <time>2022-04-18T10:46:42Z</time>
      </trkpt>
      <trkpt lat="49.04257" lon="7.73056">
        <ele>384.3</ele>
        <time>2022-04-18T10:46:47Z</time>
      </trkpt>
      <trkpt lat="49.04257" lon="7.73056">
        <ele>384.3</ele>
        <time>2022-04-18T10:46:49Z</time>
      </trkpt>
      <trkpt lat="49.04256" lon="7.73056">
        <ele>384.3</ele>
        <time>2022-04-18T10:46:51Z</time>
      </trkpt>
      <trkpt lat="49.04256" lon="7.73057">
        <ele>384.3</ele>
        <time>2022-04-18T10:46:52Z</time>
      </trkpt>
      <trkpt lat="49.04258" lon="7.73058">
        <ele>384.3</ele>
        <time>2022-04-18T10:47:03Z</time>
      </trkpt>
      <trkpt lat="49.04258" lon="7.73058">
        <ele>384.3</ele>
        <time>2022-04-18T10:47:04Z</time>
      </trkpt>
      <trkpt lat="49.04258" lon="7.73057">
        <ele>384.3</ele>
        <time>2022-04-18T10:47:26Z</time>
      </trkpt>
      <trkpt lat="49.04259" lon="7.73056">
        <ele>384.3</ele>
        <time>2022-04-18T10:47:27Z</time>
      </trkpt>
      <trkpt lat="49.04261" lon="7.73052">
        <ele>384.3</ele>
        <time>2022-04-18T10:47:34Z</time>
      </trkpt>
      <trkpt lat="49.04262" lon="7.73052">
        <ele>384.3</ele>
        <time>2022-04-18T10:47:35Z</time>
      </trkpt>
      <trkpt lat="49.04263" lon="7.73055">
        <ele>384.3</ele>
        <time>2022-04-18T10:47:43Z</time>
      </trkpt>
      <trkpt lat="49.04262" lon="7.73056">
        <ele>384.3</ele>
        <time>2022-04-18T10:47:44Z</time>
      </trkpt>
      <trkpt lat="49.04262" lon="7.73056">
        <ele>384.3</ele>
        <time>2022-04-18T10:47:48Z</time>
      </trkpt>
      <trkpt lat="49.04262" lon="7.73055">
        <ele>384.3</ele>
        <time>2022-04-18T10:47:49Z</time>
      </trkpt>
      <trkpt lat="49.04259" lon="7.73051">
        <ele>384.3</ele>
        <time>2022-04-18T10:48:30Z</time>
      </trkpt>
      <trkpt lat="49.04259" lon="7.73051">
        <ele>384.3</ele>
        <time>2022-04-18T10:48:32Z</time>
      </trkpt>
      <trkpt lat="49.04259" lon="7.73051">
        <ele>384.3</ele>
        <time>2022-04-18T10:48:33Z</time>
      </trkpt>
      <trkpt lat="49.04259" lon="7.73052">
        <ele>384.3</ele>
        <time>2022-04-18T10:48:34Z</time>
      </trkpt>
      <trkpt lat="49.04258" lon="7.73053">
        <ele>384.3</ele>
        <time>2022-04-18T10:48:37Z</time>
      </trkpt>
      <trkpt lat="49.04258" lon="7.73055">
        <ele>384.3</ele>
        <time>2022-04-18T10:48:38Z</time>
      </trkpt>
      <trkpt lat="49.04256" lon="7.73059">
        <ele>384.3</ele>
        <time>2022-04-18T10:48:43Z</time>
      </trkpt>
      <trkpt lat="49.04256" lon="7.73059">
        <ele>384.3</ele>
        <time>2022-04-18T10:48:44Z</time>
      </trkpt>
      <trkpt lat="49.04256" lon="7.73059">
        <ele>384.3</ele>
        <time>2022-04-18T10:48:45Z</time>
      </trkpt>
      <trkpt lat="49.04256" lon="7.73058">
        <ele>384.3</ele>
        <time>2022-04-18T10:48:46Z</time>
      </trkpt>
      <trkpt lat="49.04256" lon="7.7305">
        <ele>384.3</ele>
        <time>2022-04-18T10:48:54Z</time>
      </trkpt>
      <trkpt lat="49.04256" lon="7.7305">
        <ele>384.3</ele>
        <time>2022-04-18T10:48:55Z</time>
      </trkpt>
      <trkpt lat="49.04256" lon="7.73051">
        <ele>384.3</ele>
        <time>2022-04-18T10:49:00Z</time>
      </trkpt>
      <trkpt lat="49.04255" lon="7.73054">
        <ele>384.3</ele>
        <time>2022-04-18T10:49:01Z</time>
      </trkpt>
      <trkpt lat="49.04255" lon="7.73056">
        <ele>384.3</ele>
        <time>2022-04-18T10:49:05Z</time>
      </trkpt>
      <trkpt lat="49.04255" lon="7.73056">
        <ele>384.3</ele>
        <time>2022-04-18T10:49:06Z</time>
      </trkpt>
      <trkpt lat="49.04255" lon="7.73056">
        <ele>384.3</ele>
        <time>2022-04-18T10:49:09Z</time>
      </trkpt>
      <trkpt lat="49.04255" lon="7.73057">
        <ele>384.3</ele>
        <time>2022-04-18T10:49:10Z</time>
      </trkpt>
      <trkpt lat="49.04255" lon="7.73057">
        <ele>384.3</ele>
        <time>2022-04-18T10:49:12Z</time>
      </trkpt>
      <trkpt lat="49.04255" lon="7.73057">
        <ele>384.3</ele>
        <time>2022-04-18T10:49:13Z</time>
      </trkpt>
      <trkpt lat="49.04254" lon="7.73057">
        <ele>384.3</ele>
        <time>2022-04-18T10:49:15Z</time>
      </trkpt>
      <trkpt lat="49.04254" lon="7.73057">
        <ele>384.3</ele>
        <time>2022-04-18T10:49:16Z</time>
      </trkpt>
      <trkpt lat="49.04254" lon="7.73057">
        <ele>384.3</ele>
        <time>2022-04-18T10:49:17Z</time>
      </trkpt>
      <trkpt lat="49.04255" lon="7.73056">
        <ele>384.3</ele>
        <time>2022-04-18T10:49:18Z</time>
      </trkpt>
      <trkpt lat="49.04255" lon="7.73056">
        <ele>384.3</ele>
        <time>2022-04-18T10:49:22Z</time>
      </trkpt>
      <trkpt lat="49.04255" lon="7.73055">
        <ele>384.3</ele>
        <time>2022-04-18T10:49:23Z</time>
      </trkpt>
      <trkpt lat="49.04255" lon="7.73055">
        <ele>384.3</ele>
        <time>2022-04-18T10:49:27Z</time>
      </trkpt>
      <trkpt lat="49.04255" lon="7.73054">
        <ele>384.3</ele>
        <time>2022-04-18T10:49:28Z</time>
      </trkpt>
      <trkpt lat="49.04256" lon="7.73053">
        <ele>384.3</ele>
        <time>2022-04-18T10:49:33Z</time>
      </trkpt>
      <trkpt lat="49.04255" lon="7.73053">
        <ele>384.3</ele>
        <time>2022-04-18T10:49:34Z</time>
      </trkpt>
      <trkpt lat="49.04255" lon="7.73054">
        <ele>384.3</ele>
        <time>2022-04-18T10:49:37Z</time>
      </trkpt>
      <trkpt lat="49.04255" lon="7.73054">
        <ele>384.3</ele>
        <time>2022-04-18T10:49:38Z</time>
      </trkpt>
      <trkpt lat="49.04255" lon="7.73054">
        <ele>384.3</ele>
        <time>2022-04-18T10:49:39Z</time>
      </trkpt>
      <trkpt lat="49.04255" lon="7.73055">
        <ele>384.3</ele>
        <time>2022-04-18T10:49:40Z</time>
      </trkpt>
      <trkpt lat="49.04255" lon="7.73054">
        <ele>384.3</ele>
        <time>2022-04-18T10:49:42Z</time>
      </trkpt>
      <trkpt lat="49.04255" lon="7.73054">
        <ele>384.3</ele>
        <time>2022-04-18T10:49:43Z</time>
      </trkpt>
      <trkpt lat="49.04256" lon="7.73052">
        <ele>384.3</ele>
        <time>2022-04-18T10:49:50Z</time>
      </trkpt>
      <trkpt lat="49.04256" lon="7.73052">
        <ele>384.3</ele>
        <time>2022-04-18T10:49:51Z</time>
      </trkpt>
      <trkpt lat="49.04256" lon="7.73051">
        <ele>384.3</ele>
        <time>2022-04-18T10:49:56Z</time>
      </trkpt>
      <trkpt lat="49.04256" lon="7.73051">
        <ele>384.3</ele>
        <time>2022-04-18T10:49:58Z</time>
      </trkpt>
      <trkpt lat="49.04256" lon="7.73051">
        <ele>384.3</ele>
        <time>2022-04-18T10:49:59Z</time>
      </trkpt>
      <trkpt lat="49.04257" lon="7.73051">
        <ele>384.3</ele>
        <time>2022-04-18T10:50:00Z</time>
      </trkpt>
      <trkpt lat="49.04257" lon="7.73051">
        <ele>384.3</ele>
        <time>2022-04-18T10:50:01Z</time>
      </trkpt>
      <trkpt lat="49.04257" lon="7.73051">
        <ele>384.3</ele>
        <time>2022-04-18T10:50:02Z</time>
      </trkpt>
      <trkpt lat="49.04257" lon="7.73051">
        <ele>384.3</ele>
        <time>2022-04-18T10:50:06Z</time>
      </trkpt>
      <trkpt lat="49.04257" lon="7.73051">
        <ele>384.3</ele>
        <time>2022-04-18T10:50:07Z</time>
      </trkpt>
      <trkpt lat="49.04257" lon="7.73051">
        <ele>384.3</ele>
        <time>2022-04-18T10:50:08Z</time>
      </trkpt>
      <trkpt lat="49.04256" lon="7.73052">
        <ele>384.3</ele>
        <time>2022-04-18T10:50:09Z</time>
      </trkpt>
      <trkpt lat="49.04256" lon="7.73052">
        <ele>384.3</ele>
        <time>2022-04-18T10:50:11Z</time>
      </trkpt>
      <trkpt lat="49.04256" lon="7.73051">
        <ele>384.3</ele>
        <time>2022-04-18T10:50:12Z</time>
      </trkpt>
      <trkpt lat="49.04256" lon="7.73051">
        <ele>384.3</ele>
        <time>2022-04-18T10:50:13Z</time>
      </trkpt>
      <trkpt lat="49.04256" lon="7.73052">
        <ele>384.3</ele>
        <time>2022-04-18T10:50:14Z</time>
      </trkpt>
      <trkpt lat="49.04253" lon="7.73053">
        <ele>384.3</ele>
        <time>2022-04-18T10:50:25Z</time>
      </trkpt>
      <trkpt lat="49.04253" lon="7.73053">
        <ele>384.3</ele>
        <time>2022-04-18T10:50:26Z</time>
      </trkpt>
      <trkpt lat="49.04252" lon="7.73053">
        <ele>384.3</ele>
        <time>2022-04-18T10:50:30Z</time>
      </trkpt>
      <trkpt lat="49.04252" lon="7.73054">
        <ele>384.3</ele>
        <time>2022-04-18T10:50:32Z</time>
      </trkpt>
      <trkpt lat="49.04253" lon="7.73051">
        <ele>384.3</ele>
        <time>2022-04-18T10:50:36Z</time>
      </trkpt>
      <trkpt lat="49.04253" lon="7.73052">
        <ele>384.3</ele>
        <time>2022-04-18T10:50:37Z</time>
      </trkpt>
      <trkpt lat="49.04255" lon="7.73046">
        <ele>384.3</ele>
        <time>2022-04-18T10:50:52Z</time>
      </trkpt>
      <trkpt lat="49.04255" lon="7.73045">
        <ele>384.3</ele>
        <time>2022-04-18T10:50:53Z</time>
      </trkpt>
      <trkpt lat="49.04254" lon="7.73048">
        <ele>384.3</ele>
        <time>2022-04-18T10:51:09Z</time>
      </trkpt>
      <trkpt lat="49.04254" lon="7.7305">
        <ele>384.3</ele>
        <time>2022-04-18T10:51:10Z</time>
      </trkpt>
      <trkpt lat="49.04254" lon="7.73049">
        <ele>384.3</ele>
        <time>2022-04-18T10:51:12Z</time>
      </trkpt>
      <trkpt lat="49.04254" lon="7.7305">
        <ele>384.3</ele>
        <time>2022-04-18T10:51:14Z</time>
      </trkpt>
      <trkpt lat="49.04253" lon="7.7305">
        <ele>384.3</ele>
        <time>2022-04-18T10:51:16Z</time>
      </trkpt>
      <trkpt lat="49.04253" lon="7.7305">
        <ele>384.3</ele>
        <time>2022-04-18T10:51:21Z</time>
      </trkpt>
      <trkpt lat="49.04253" lon="7.73051">
        <ele>384.3</ele>
        <time>2022-04-18T10:51:25Z</time>
      </trkpt>
      <trkpt lat="49.04253" lon="7.73052">
        <ele>384.3</ele>
        <time>2022-04-18T10:51:26Z</time>
      </trkpt>
      <trkpt lat="49.04253" lon="7.73052">
        <ele>384.3</ele>
        <time>2022-04-18T10:51:28Z</time>
      </trkpt>
      <trkpt lat="49.04252" lon="7.73053">
        <ele>384.3</ele>
        <time>2022-04-18T10:51:33Z</time>
      </trkpt>
      <trkpt lat="49.04252" lon="7.73053">
        <ele>384.3</ele>
        <time>2022-04-18T10:51:35Z</time>
      </trkpt>
      <trkpt lat="49.04253" lon="7.73052">
        <ele>384.3</ele>
        <time>2022-04-18T10:52:04Z</time>
      </trkpt>
      <trkpt lat="49.04253" lon="7.73052">
        <ele>384.3</ele>
        <time>2022-04-18T10:52:05Z</time>
      </trkpt>
      <trkpt lat="49.04253" lon="7.73052">
        <ele>384.3</ele>
        <time>2022-04-18T10:52:07Z</time>
      </trkpt>
      <trkpt lat="49.04253" lon="7.73052">
        <ele>384.3</ele>
        <time>2022-04-18T10:52:08Z</time>
      </trkpt>
      <trkpt lat="49.04253" lon="7.73051">
        <ele>384.3</ele>
        <time>2022-04-18T10:52:10Z</time>
      </trkpt>
      <trkpt lat="49.04254" lon="7.73048">
        <ele>384.3</ele>
        <time>2022-04-18T10:52:16Z</time>
      </trkpt>
      <trkpt lat="49.04254" lon="7.73048">
        <ele>384.3</ele>
        <time>2022-04-18T10:52:20Z</time>
      </trkpt>
      <trkpt lat="49.04255" lon="7.73048">
        <ele>384.3</ele>
        <time>2022-04-18T10:52:24Z</time>
      </trkpt>
      <trkpt lat="49.04255" lon="7.73049">
        <ele>384.3</ele>
        <time>2022-04-18T10:52:30Z</time>
      </trkpt>
      <trkpt lat="49.04255" lon="7.73049">
        <ele>384.3</ele>
        <time>2022-04-18T10:52:32Z</time>
      </trkpt>
      <trkpt lat="49.04255" lon="7.73049">
        <ele>384.3</ele>
        <time>2022-04-18T10:52:43Z</time>
      </trkpt>
      <trkpt lat="49.0426" lon="7.73042">
        <ele>384.3</ele>
        <time>2022-04-18T10:53:17Z</time>
      </trkpt>
      <trkpt lat="49.0426" lon="7.73042">
        <ele>384.3</ele>
        <time>2022-04-18T10:53:18Z</time>
      </trkpt>
      <trkpt lat="49.04258" lon="7.73047">
        <ele>384.3</ele>
        <time>2022-04-18T10:53:30Z</time>
      </trkpt>
      <trkpt lat="49.04258" lon="7.73047">
        <ele>384.3</ele>
        <time>2022-04-18T10:53:41Z</time>
      </trkpt>
      <trkpt lat="49.04258" lon="7.73047">
        <ele>384.3</ele>
        <time>2022-04-18T10:53:42Z</time>
      </trkpt>
      <trkpt lat="49.04257" lon="7.73047">
        <ele>384.3</ele>
        <time>2022-04-18T10:53:51Z</time>
      </trkpt>
      <trkpt lat="49.04256" lon="7.73052">
        <ele>384.3</ele>
        <time>2022-04-18T10:53:57Z</time>
      </trkpt>
      <trkpt lat="49.04256" lon="7.73052">
        <ele>384.3</ele>
        <time>2022-04-18T10:54:05Z</time>
      </trkpt>
      <trkpt lat="49.04253" lon="7.73051">
        <ele>384.3</ele>
        <time>2022-04-18T10:54:22Z</time>
      </trkpt>
      <trkpt lat="49.04253" lon="7.73052">
        <ele>384.3</ele>
        <time>2022-04-18T10:54:23Z</time>
      </trkpt>
      <trkpt lat="49.04253" lon="7.73052">
        <ele>384.3</ele>
        <time>2022-04-18T10:54:25Z</time>
      </trkpt>
      <trkpt lat="49.04253" lon="7.73053">
        <ele>384.3</ele>
        <time>2022-04-18T10:54:26Z</time>
      </trkpt>
      <trkpt lat="49.04253" lon="7.73053">
        <ele>384.3</ele>
        <time>2022-04-18T10:54:28Z</time>
      </trkpt>
      <trkpt lat="49.04253" lon="7.73053">
        <ele>384.3</ele>
        <time>2022-04-18T10:54:29Z</time>
      </trkpt>
      <trkpt lat="49.04253" lon="7.73053">
        <ele>384.3</ele>
        <time>2022-04-18T10:54:32Z</time>
      </trkpt>
      <trkpt lat="49.04253" lon="7.73052">
        <ele>384.3</ele>
        <time>2022-04-18T10:54:33Z</time>
      </trkpt>
      <trkpt lat="49.04253" lon="7.73053">
        <ele>384.3</ele>
        <time>2022-04-18T10:54:37Z</time>
      </trkpt>
      <trkpt lat="49.04253" lon="7.73054">
        <ele>384.3</ele>
        <time>2022-04-18T10:54:38Z</time>
      </trkpt>
      <trkpt lat="49.04253" lon="7.73054">
        <ele>384.3</ele>
        <time>2022-04-18T10:54:39Z</time>
      </trkpt>
      <trkpt lat="49.04253" lon="7.73054">
        <ele>384.3</ele>
        <time>2022-04-18T10:54:40Z</time>
      </trkpt>
      <trkpt lat="49.04253" lon="7.73051">
        <ele>384.3</ele>
        <time>2022-04-18T10:54:49Z</time>
      </trkpt>
      <trkpt lat="49.04253" lon="7.73052">
        <ele>384.3</ele>
        <time>2022-04-18T10:54:50Z</time>
      </trkpt>
      <trkpt lat="49.04253" lon="7.73054">
        <ele>384.3</ele>
        <time>2022-04-18T10:54:54Z</time>
      </trkpt>
      <trkpt lat="49.04254" lon="7.73054">
        <ele>384.3</ele>
        <time>2022-04-18T10:55:10Z</time>
      </trkpt>
      <trkpt lat="49.04255" lon="7.73045">
        <ele>384.3</ele>
        <time>2022-04-18T10:55:19Z</time>
      </trkpt>
      <trkpt lat="49.04255" lon="7.73045">
        <ele>384.3</ele>
        <time>2022-04-18T10:55:20Z</time>
      </trkpt>
      <trkpt lat="49.04256" lon="7.73045">
        <ele>384.3</ele>
        <time>2022-04-18T10:55:23Z</time>
      </trkpt>
      <trkpt lat="49.04256" lon="7.73045">
        <ele>384.3</ele>
        <time>2022-04-18T10:55:24Z</time>
      </trkpt>
      <trkpt lat="49.04257" lon="7.73045">
        <ele>384.3</ele>
        <time>2022-04-18T10:55:31Z</time>
      </trkpt>
      <trkpt lat="49.04257" lon="7.73044">
        <ele>384.3</ele>
        <time>2022-04-18T10:55:32Z</time>
      </trkpt>
      <trkpt lat="49.04257" lon="7.73052">
        <ele>384.3</ele>
        <time>2022-04-18T10:55:48Z</time>
      </trkpt>
      <trkpt lat="49.04257" lon="7.73053">
        <ele>384.3</ele>
        <time>2022-04-18T10:55:49Z</time>
      </trkpt>
      <trkpt lat="49.04257" lon="7.73053">
        <ele>384.3</ele>
        <time>2022-04-18T10:55:52Z</time>
      </trkpt>
      <trkpt lat="49.04257" lon="7.73053">
        <ele>384.3</ele>
        <time>2022-04-18T10:55:54Z</time>
      </trkpt>
      <trkpt lat="49.04257" lon="7.73053">
        <ele>384.3</ele>
        <time>2022-04-18T10:55:58Z</time>
      </trkpt>
      <trkpt lat="49.04257" lon="7.73053">
        <ele>384.3</ele>
        <time>2022-04-18T10:56:07Z</time>
      </trkpt>
      <trkpt lat="49.04257" lon="7.73051">
        <ele>384.3</ele>
        <time>2022-04-18T10:56:11Z</time>
      </trkpt>
      <trkpt lat="49.04257" lon="7.73052">
        <ele>384.3</ele>
        <time>2022-04-18T10:56:19Z</time>
      </trkpt>
      <trkpt lat="49.04257" lon="7.73053">
        <ele>384.3</ele>
        <time>2022-04-18T10:56:22Z</time>
      </trkpt>
      <trkpt lat="49.04256" lon="7.73053">
        <ele>384.3</ele>
        <time>2022-04-18T10:56:31Z</time>
      </trkpt>
      <trkpt lat="49.04256" lon="7.73053">
        <ele>384.3</ele>
        <time>2022-04-18T10:56:33Z</time>
      </trkpt>
      <trkpt lat="49.04256" lon="7.73053">
        <ele>384.3</ele>
        <time>2022-04-18T10:56:38Z</time>
      </trkpt>
      <trkpt lat="49.04255" lon="7.73061">
        <ele>384.3</ele>
        <time>2022-04-18T10:56:52Z</time>
      </trkpt>
      <trkpt lat="49.04255" lon="7.7306">
        <ele>384.3</ele>
        <time>2022-04-18T10:56:53Z</time>
      </trkpt>
      <trkpt lat="49.04255" lon="7.73059">
        <ele>384.3</ele>
        <time>2022-04-18T10:57:11Z</time>
      </trkpt>
      <trkpt lat="49.04255" lon="7.73059">
        <ele>384.3</ele>
        <time>2022-04-18T10:57:12Z</time>
      </trkpt>
      <trkpt lat="49.04256" lon="7.73057">
        <ele>384.3</ele>
        <time>2022-04-18T10:57:25Z</time>
      </trkpt>
      <trkpt lat="49.04256" lon="7.73057">
        <ele>384.3</ele>
        <time>2022-04-18T10:57:26Z</time>
      </trkpt>
      <trkpt lat="49.04256" lon="7.73056">
        <ele>384.3</ele>
        <time>2022-04-18T10:57:28Z</time>
      </trkpt>
      <trkpt lat="49.04256" lon="7.73057">
        <ele>384.3</ele>
        <time>2022-04-18T10:57:31Z</time>
      </trkpt>
      <trkpt lat="49.04256" lon="7.73056">
        <ele>384.3</ele>
        <time>2022-04-18T10:57:33Z</time>
      </trkpt>
      <trkpt lat="49.04256" lon="7.73056">
        <ele>384.3</ele>
        <time>2022-04-18T10:57:34Z</time>
      </trkpt>
      <trkpt lat="49.04256" lon="7.73054">
        <ele>384.3</ele>
        <time>2022-04-18T10:57:40Z</time>
      </trkpt>
      <trkpt lat="49.04256" lon="7.73055">
        <ele>384.3</ele>
        <time>2022-04-18T10:57:44Z</time>
      </trkpt>
      <trkpt lat="49.04254" lon="7.73052">
        <ele>384.3</ele>
        <time>2022-04-18T10:57:59Z</time>
      </trkpt>
      <trkpt lat="49.04254" lon="7.73052">
        <ele>384.3</ele>
        <time>2022-04-18T10:58:03Z</time>
      </trkpt>
      <trkpt lat="49.04254" lon="7.73052">
        <ele>384.3</ele>
        <time>2022-04-18T10:58:04Z</time>
      </trkpt>
      <trkpt lat="49.04254" lon="7.73051">
        <ele>384.3</ele>
        <time>2022-04-18T10:58:05Z</time>
      </trkpt>
      <trkpt lat="49.04254" lon="7.73051">
        <ele>384.3</ele>
        <time>2022-04-18T10:58:06Z</time>
      </trkpt>
      <trkpt lat="49.04254" lon="7.73052">
        <ele>384.3</ele>
        <time>2022-04-18T10:58:08Z</time>
      </trkpt>
      <trkpt lat="49.04254" lon="7.73053">
        <ele>384.3</ele>
        <time>2022-04-18T10:58:10Z</time>
      </trkpt>
      <trkpt lat="49.04254" lon="7.73053">
        <ele>384.3</ele>
        <time>2022-04-18T10:58:11Z</time>
      </trkpt>
      <trkpt lat="49.04254" lon="7.73053">
        <ele>384.3</ele>
        <time>2022-04-18T10:58:12Z</time>
      </trkpt>
      <trkpt lat="49.04254" lon="7.73053">
        <ele>384.3</ele>
        <time>2022-04-18T10:58:13Z</time>
      </trkpt>
      <trkpt lat="49.04254" lon="7.73053">
        <ele>384.3</ele>
        <time>2022-04-18T10:58:16Z</time>
      </trkpt>
      <trkpt lat="49.04255" lon="7.73052">
        <ele>384.3</ele>
        <time>2022-04-18T10:58:18Z</time>
      </trkpt>
      <trkpt lat="49.04255" lon="7.73052">
        <ele>384.3</ele>
        <time>2022-04-18T10:58:19Z</time>
      </trkpt>
      <trkpt lat="49.04255" lon="7.73051">
        <ele>384.3</ele>
        <time>2022-04-18T10:58:20Z</time>
      </trkpt>
      <trkpt lat="49.04246" lon="7.73053">
        <ele>384.3</ele>
        <time>2022-04-18T10:58:43Z</time>
      </trkpt>
      <trkpt lat="49.04246" lon="7.73053">
        <ele>384.3</ele>
        <time>2022-04-18T10:58:44Z</time>
      </trkpt>
      <trkpt lat="49.04253" lon="7.73043">
        <ele>384.3</ele>
        <time>2022-04-18T10:59:06Z</time>
      </trkpt>
      <trkpt lat="49.04252" lon="7.73041">
        <ele>384.3</ele>
        <time>2022-04-18T10:59:26Z</time>
      </trkpt>
      <trkpt lat="49.04253" lon="7.73041">
        <ele>384.3</ele>
        <time>2022-04-18T10:59:27Z</time>
      </trkpt>
      <trkpt lat="49.04254" lon="7.73041">
        <ele>384.3</ele>
        <time>2022-04-18T10:59:47Z</time>
      </trkpt>
      <trkpt lat="49.04253" lon="7.73041">
        <ele>384.3</ele>
        <time>2022-04-18T10:59:48Z</time>
      </trkpt>
      <trkpt lat="49.04248" lon="7.7305">
        <ele>384.3</ele>
        <time>2022-04-18T11:00:15Z</time>
      </trkpt>
      <trkpt lat="49.04248" lon="7.7305">
        <ele>384.3</ele>
        <time>2022-04-18T11:00:16Z</time>
      </trkpt>
      <trkpt lat="49.04247" lon="7.7305">
        <ele>384.3</ele>
        <time>2022-04-18T11:00:18Z</time>
      </trkpt>
      <trkpt lat="49.04246" lon="7.7305">
        <ele>384.3</ele>
        <time>2022-04-18T11:00:22Z</time>
      </trkpt>
      <trkpt lat="49.04247" lon="7.7305">
        <ele>384.3</ele>
        <time>2022-04-18T11:00:28Z</time>
      </trkpt>
      <trkpt lat="49.04247" lon="7.73049">
        <ele>384.3</ele>
        <time>2022-04-18T11:00:29Z</time>
      </trkpt>
      <trkpt lat="49.04246" lon="7.7305">
        <ele>384.3</ele>
        <time>2022-04-18T11:00:40Z</time>
      </trkpt>
      <trkpt lat="49.04246" lon="7.73049">
        <ele>384.3</ele>
        <time>2022-04-18T11:00:41Z</time>
      </trkpt>
      <trkpt lat="49.04249" lon="7.73049">
        <ele>384.3</ele>
        <time>2022-04-18T11:01:01Z</time>
      </trkpt>
      <trkpt lat="49.04249" lon="7.73049">
        <ele>384.3</ele>
        <time>2022-04-18T11:01:02Z</time>
      </trkpt>
      <trkpt lat="49.04248" lon="7.73047">
        <ele>384.3</ele>
        <time>2022-04-18T11:01:06Z</time>
      </trkpt>
      <trkpt lat="49.04247" lon="7.73047">
        <ele>384.3</ele>
        <time>2022-04-18T11:01:08Z</time>
      </trkpt>
      <trkpt lat="49.04248" lon="7.73046">
        <ele>384.3</ele>
        <time>2022-04-18T11:01:11Z</time>
      </trkpt>
      <trkpt lat="49.04248" lon="7.73046">
        <ele>384.3</ele>
        <time>2022-04-18T11:01:13Z</time>
      </trkpt>
      <trkpt lat="49.04251" lon="7.73042">
        <ele>384.3</ele>
        <time>2022-04-18T11:01:30Z</time>
      </trkpt>
      <trkpt lat="49.04251" lon="7.73042">
        <ele>384.3</ele>
        <time>2022-04-18T11:01:31Z</time>
      </trkpt>
      <trkpt lat="49.04256" lon="7.73031">
        <ele>384.3</ele>
        <time>2022-04-18T11:01:50Z</time>
      </trkpt>
      <trkpt lat="49.04257" lon="7.73031">
        <ele>384.3</ele>
        <time>2022-04-18T11:01:51Z</time>
      </trkpt>
      <trkpt lat="49.04258" lon="7.73029">
        <ele>384.3</ele>
        <time>2022-04-18T11:01:55Z</time>
      </trkpt>
      <trkpt lat="49.04257" lon="7.7303">
        <ele>384.3</ele>
        <time>2022-04-18T11:01:56Z</time>
      </trkpt>
      <trkpt lat="49.04256" lon="7.7303">
        <ele>384.3</ele>
        <time>2022-04-18T11:02:07Z</time>
      </trkpt>
      <trkpt lat="49.04256" lon="7.7303">
        <ele>384.3</ele>
        <time>2022-04-18T11:02:08Z</time>
      </trkpt>
      <trkpt lat="49.04248" lon="7.73021">
        <ele>362.5</ele>
        <time>2022-04-18T11:02:18Z</time>
      </trkpt>
      <trkpt lat="49.0424" lon="7.73011">
        <ele>363.2</ele>
        <time>2022-04-18T11:02:27Z</time>
      </trkpt>
      <trkpt lat="49.04232" lon="7.73003">
        <ele>363.8</ele>
        <time>2022-04-18T11:02:35Z</time>
      </trkpt>
      <trkpt lat="49.04224" lon="7.72996">
        <ele>364.4</ele>
        <time>2022-04-18T11:02:42Z</time>
      </trkpt>
      <trkpt lat="49.04216" lon="7.72989">
        <ele>364.9</ele>
        <time>2022-04-18T11:02:49Z</time>
      </trkpt>
      <trkpt lat="49.04208" lon="7.7298">
        <ele>365.4</ele>
        <time>2022-04-18T11:02:56Z</time>
      </trkpt>
      <trkpt lat="49.04201" lon="7.72969">
        <ele>365.9</ele>
        <time>2022-04-18T11:03:04Z</time>
      </trkpt>
      <trkpt lat="49.04196" lon="7.72957">
        <ele>366.4</ele>
        <time>2022-04-18T11:03:12Z</time>
      </trkpt>
      <trkpt lat="49.04189" lon="7.72946">
        <ele>367</ele>
        <time>2022-04-18T11:03:21Z</time>
      </trkpt>
      <trkpt lat="49.04182" lon="7.72934">
        <ele>367.6</ele>
        <time>2022-04-18T11:03:29Z</time>
      </trkpt>
      <trkpt lat="49.04176" lon="7.72924">
        <ele>368.2</ele>
        <time>2022-04-18T11:03:36Z</time>
      </trkpt>
      <trkpt lat="49.04169" lon="7.72912">
        <ele>368.8</ele>
        <time>2022-04-18T11:03:45Z</time>
      </trkpt>
      <trkpt lat="49.04164" lon="7.729">
        <ele>369.4</ele>
        <time>2022-04-18T11:03:53Z</time>
      </trkpt>
      <trkpt lat="49.04158" lon="7.7289">
        <ele>370</ele>
        <time>2022-04-18T11:04:01Z</time>
      </trkpt>
      <trkpt lat="49.04152" lon="7.72879">
        <ele>370.6</ele>
        <time>2022-04-18T11:04:08Z</time>
      </trkpt>
      <trkpt lat="49.04148" lon="7.72866">
        <ele>371.2</ele>
        <time>2022-04-18T11:04:16Z</time>
      </trkpt>
      <trkpt lat="49.04143" lon="7.72853">
        <ele>371.9</ele>
        <time>2022-04-18T11:04:24Z</time>
      </trkpt>
      <trkpt lat="49.04137" lon="7.72841">
        <ele>372.5</ele>
        <time>2022-04-18T11:04:32Z</time>
      </trkpt>
      <trkpt lat="49.04133" lon="7.72827">
        <ele>373.2</ele>
        <time>2022-04-18T11:04:40Z</time>
      </trkpt>
      <trkpt lat="49.04129" lon="7.72814">
        <ele>373.9</ele>
        <time>2022-04-18T11:04:48Z</time>
      </trkpt>
      <trkpt lat="49.04126" lon="7.728">
        <ele>374.6</ele>
        <time>2022-04-18T11:04:56Z</time>
      </trkpt>
      <trkpt lat="49.04122" lon="7.72786">
        <ele>375.2</ele>
        <time>2022-04-18T11:05:04Z</time>
      </trkpt>
      <trkpt lat="49.04121" lon="7.72771">
        <ele>375.9</ele>
        <time>2022-04-18T11:05:13Z</time>
      </trkpt>
      <trkpt lat="49.04118" lon="7.72756">
        <ele>376.6</ele>
        <time>2022-04-18T11:05:22Z</time>
      </trkpt>
      <trkpt lat="49.04117" lon="7.72741">
        <ele>377.4</ele>
        <time>2022-04-18T11:05:31Z</time>
      </trkpt>
      <trkpt lat="49.04117" lon="7.72727">
        <ele>378.1</ele>
        <time>2022-04-18T11:05:40Z</time>
      </trkpt>
      <trkpt lat="49.04115" lon="7.72713">
        <ele>378.8</ele>
        <time>2022-04-18T11:05:48Z</time>
      </trkpt>
      <trkpt lat="49.04117" lon="7.72699">
        <ele>379.5</ele>
        <time>2022-04-18T11:05:57Z</time>
      </trkpt>
      <trkpt lat="49.04117" lon="7.72684">
        <ele>380.2</ele>
        <time>2022-04-18T11:06:05Z</time>
      </trkpt>
      <trkpt lat="49.04118" lon="7.7267">
        <ele>380.9</ele>
        <time>2022-04-18T11:06:14Z</time>
      </trkpt>
      <trkpt lat="49.0412" lon="7.72655">
        <ele>381.6</ele>
        <time>2022-04-18T11:06:23Z</time>
      </trkpt>
      <trkpt lat="49.04121" lon="7.72641">
        <ele>382.3</ele>
        <time>2022-04-18T11:06:31Z</time>
      </trkpt>
      <trkpt lat="49.0412" lon="7.72628">
        <ele>382.9</ele>
        <time>2022-04-18T11:06:39Z</time>
      </trkpt>
      <trkpt lat="49.04122" lon="7.72614">
        <ele>383.5</ele>
        <time>2022-04-18T11:06:48Z</time>
      </trkpt>
      <trkpt lat="49.04125" lon="7.726">
        <ele>384.2</ele>
        <time>2022-04-18T11:06:56Z</time>
      </trkpt>
      <trkpt lat="49.04126" lon="7.72586">
        <ele>384.7</ele>
        <time>2022-04-18T11:07:05Z</time>
      </trkpt>
      <trkpt lat="49.04127" lon="7.72572">
        <ele>385.4</ele>
        <time>2022-04-18T11:07:14Z</time>
      </trkpt>
      <trkpt lat="49.04125" lon="7.72559">
        <ele>386</ele>
        <time>2022-04-18T11:07:23Z</time>
      </trkpt>
      <trkpt lat="49.04123" lon="7.72544">
        <ele>386.7</ele>
        <time>2022-04-18T11:07:31Z</time>
      </trkpt>
      <trkpt lat="49.04119" lon="7.7253">
        <ele>387.3</ele>
        <time>2022-04-18T11:07:37Z</time>
      </trkpt>
      <trkpt lat="49.04115" lon="7.72517">
        <ele>387.9</ele>
        <time>2022-04-18T11:07:44Z</time>
      </trkpt>
      <trkpt lat="49.04109" lon="7.72505">
        <ele>388.6</ele>
        <time>2022-04-18T11:07:51Z</time>
      </trkpt>
      <trkpt lat="49.04103" lon="7.72493">
        <ele>389.3</ele>
        <time>2022-04-18T11:07:58Z</time>
      </trkpt>
      <trkpt lat="49.04098" lon="7.72482">
        <ele>390</ele>
        <time>2022-04-18T11:08:05Z</time>
      </trkpt>
      <trkpt lat="49.04095" lon="7.72468">
        <ele>390.7</ele>
        <time>2022-04-18T11:08:14Z</time>
      </trkpt>
      <trkpt lat="49.04096" lon="7.72453">
        <ele>391.4</ele>
        <time>2022-04-18T11:08:23Z</time>
      </trkpt>
      <trkpt lat="49.04098" lon="7.72438">
        <ele>392</ele>
        <time>2022-04-18T11:08:33Z</time>
      </trkpt>
      <trkpt lat="49.04098" lon="7.72424">
        <ele>392.6</ele>
        <time>2022-04-18T11:08:43Z</time>
      </trkpt>
      <trkpt lat="49.04095" lon="7.72411">
        <ele>393.3</ele>
        <time>2022-04-18T11:08:52Z</time>
      </trkpt>
      <trkpt lat="49.04091" lon="7.72397">
        <ele>394</ele>
        <time>2022-04-18T11:09:03Z</time>
      </trkpt>
      <trkpt lat="49.04086" lon="7.72385">
        <ele>394.7</ele>
        <time>2022-04-18T11:09:10Z</time>
      </trkpt>
      <trkpt lat="49.04083" lon="7.72371">
        <ele>395.3</ele>
        <time>2022-04-18T11:09:17Z</time>
      </trkpt>
      <trkpt lat="49.0408" lon="7.72358">
        <ele>396</ele>
        <time>2022-04-18T11:09:26Z</time>
      </trkpt>
      <trkpt lat="49.04073" lon="7.72347">
        <ele>396.7</ele>
        <time>2022-04-18T11:09:33Z</time>
      </trkpt>
      <trkpt lat="49.04069" lon="7.72332">
        <ele>397.4</ele>
        <time>2022-04-18T11:09:42Z</time>
      </trkpt>
      <trkpt lat="49.04066" lon="7.72318">
        <ele>398.1</ele>
        <time>2022-04-18T11:09:52Z</time>
      </trkpt>
      <trkpt lat="49.04066" lon="7.72303">
        <ele>398.7</ele>
        <time>2022-04-18T11:10:00Z</time>
      </trkpt>
      <trkpt lat="49.04062" lon="7.72288">
        <ele>399.4</ele>
        <time>2022-04-18T11:10:08Z</time>
      </trkpt>
      <trkpt lat="49.04059" lon="7.72275">
        <ele>400</ele>
        <time>2022-04-18T11:10:16Z</time>
      </trkpt>
      <trkpt lat="49.04057" lon="7.7226">
        <ele>400.7</ele>
        <time>2022-04-18T11:10:24Z</time>
      </trkpt>
      <trkpt lat="49.04064" lon="7.72251">
        <ele>401.4</ele>
        <time>2022-04-18T11:10:32Z</time>
      </trkpt>
      <trkpt lat="49.04072" lon="7.72246">
        <ele>401.6</ele>
        <time>2022-04-18T11:10:40Z</time>
      </trkpt>
      <trkpt lat="49.04081" lon="7.72239">
        <ele>401.7</ele>
        <time>2022-04-18T11:10:50Z</time>
      </trkpt>
      <trkpt lat="49.04089" lon="7.72231">
        <ele>401.9</ele>
        <time>2022-04-18T11:10:59Z</time>
      </trkpt>
      <trkpt lat="49.04097" lon="7.72227">
        <ele>402.1</ele>
        <time>2022-04-18T11:11:09Z</time>
      </trkpt>
      <trkpt lat="49.04097" lon="7.72226">
        <ele>402.1</ele>
        <time>2022-04-18T11:11:10Z</time>
      </trkpt>
      <trkpt lat="49.04107" lon="7.72227">
        <ele>402.9</ele>
        <time>2022-04-18T11:11:24Z</time>
      </trkpt>
      <trkpt lat="49.04116" lon="7.72229">
        <ele>404</ele>
        <time>2022-04-18T11:11:30Z</time>
      </trkpt>
      <trkpt lat="49.04125" lon="7.72226">
        <ele>405.3</ele>
        <time>2022-04-18T11:11:39Z</time>
      </trkpt>
      <trkpt lat="49.04135" lon="7.72226">
        <ele>406.7</ele>
        <time>2022-04-18T11:11:51Z</time>
      </trkpt>
      <trkpt lat="49.04145" lon="7.72225">
        <ele>407.9</ele>
        <time>2022-04-18T11:12:00Z</time>
      </trkpt>
      <trkpt lat="49.04155" lon="7.72228">
        <ele>408.8</ele>
        <time>2022-04-18T11:12:11Z</time>
      </trkpt>
      <trkpt lat="49.04165" lon="7.72227">
        <ele>409.5</ele>
        <time>2022-04-18T11:12:17Z</time>
      </trkpt>
      <trkpt lat="49.04174" lon="7.72224">
        <ele>410.1</ele>
        <time>2022-04-18T11:12:29Z</time>
      </trkpt>
      <trkpt lat="49.04183" lon="7.72223">
        <ele>410.5</ele>
        <time>2022-04-18T11:12:33Z</time>
      </trkpt>
      <trkpt lat="49.04193" lon="7.7222">
        <ele>411.3</ele>
        <time>2022-04-18T11:12:42Z</time>
      </trkpt>
      <trkpt lat="49.04202" lon="7.72219">
        <ele>412.3</ele>
        <time>2022-04-18T11:12:50Z</time>
      </trkpt>
      <trkpt lat="49.04212" lon="7.72217">
        <ele>413.6</ele>
        <time>2022-04-18T11:12:56Z</time>
      </trkpt>
      <trkpt lat="49.04221" lon="7.72217">
        <ele>414.8</ele>
        <time>2022-04-18T11:13:03Z</time>
      </trkpt>
      <trkpt lat="49.04231" lon="7.72215">
        <ele>416</ele>
        <time>2022-04-18T11:13:11Z</time>
      </trkpt>
      <trkpt lat="49.0424" lon="7.72213">
        <ele>417.4</ele>
        <time>2022-04-18T11:13:21Z</time>
      </trkpt>
      <trkpt lat="49.04249" lon="7.72213">
        <ele>418.8</ele>
        <time>2022-04-18T11:13:28Z</time>
      </trkpt>
      <trkpt lat="49.04258" lon="7.72208">
        <ele>420.2</ele>
        <time>2022-04-18T11:13:35Z</time>
      </trkpt>
      <trkpt lat="49.04265" lon="7.72199">
        <ele>421.5</ele>
        <time>2022-04-18T11:13:43Z</time>
      </trkpt>
      <trkpt lat="49.04274" lon="7.72192">
        <ele>422.9</ele>
        <time>2022-04-18T11:13:51Z</time>
      </trkpt>
      <trkpt lat="49.04283" lon="7.72186">
        <ele>424.3</ele>
        <time>2022-04-18T11:14:00Z</time>
      </trkpt>
      <trkpt lat="49.04292" lon="7.7219">
        <ele>425.6</ele>
        <time>2022-04-18T11:14:06Z</time>
      </trkpt>
      <trkpt lat="49.04301" lon="7.72198">
        <ele>427</ele>
        <time>2022-04-18T11:14:14Z</time>
      </trkpt>
      <trkpt lat="49.0431" lon="7.72195">
        <ele>426.9</ele>
        <time>2022-04-18T11:14:23Z</time>
      </trkpt>
      <trkpt lat="49.04315" lon="7.72183">
        <ele>426.7</ele>
        <time>2022-04-18T11:14:32Z</time>
      </trkpt>
      <trkpt lat="49.04322" lon="7.72173">
        <ele>426.4</ele>
        <time>2022-04-18T11:14:39Z</time>
      </trkpt>
      <trkpt lat="49.04328" lon="7.72163">
        <ele>426</ele>
        <time>2022-04-18T11:14:46Z</time>
      </trkpt>
      <trkpt lat="49.04335" lon="7.72151">
        <ele>425.7</ele>
        <time>2022-04-18T11:14:53Z</time>
      </trkpt>
      <trkpt lat="49.04341" lon="7.7214">
        <ele>425.3</ele>
        <time>2022-04-18T11:15:00Z</time>
      </trkpt>
      <trkpt lat="49.04345" lon="7.72135">
        <ele>425.2</ele>
        <time>2022-04-18T11:15:06Z</time>
      </trkpt>
      <trkpt lat="49.04346" lon="7.72135">
        <ele>425.1</ele>
        <time>2022-04-18T11:15:07Z</time>
      </trkpt>
      <trkpt lat="49.04353" lon="7.72125">
        <ele>424.8</ele>
        <time>2022-04-18T11:15:15Z</time>
      </trkpt>
      <trkpt lat="49.04361" lon="7.72115">
        <ele>424.5</ele>
        <time>2022-04-18T11:15:23Z</time>
      </trkpt>
      <trkpt lat="49.04367" lon="7.72104">
        <ele>424.2</ele>
        <time>2022-04-18T11:15:30Z</time>
      </trkpt>
      <trkpt lat="49.04374" lon="7.72093">
        <ele>423.9</ele>
        <time>2022-04-18T11:15:37Z</time>
      </trkpt>
      <trkpt lat="49.0438" lon="7.72083">
        <ele>423.7</ele>
        <time>2022-04-18T11:15:44Z</time>
      </trkpt>
      <trkpt lat="49.04386" lon="7.72072">
        <ele>423.4</ele>
        <time>2022-04-18T11:15:51Z</time>
      </trkpt>
      <trkpt lat="49.04392" lon="7.72059">
        <ele>423.1</ele>
        <time>2022-04-18T11:15:59Z</time>
      </trkpt>
      <trkpt lat="49.04399" lon="7.72048">
        <ele>422.8</ele>
        <time>2022-04-18T11:16:07Z</time>
      </trkpt>
      <trkpt lat="49.04404" lon="7.72037">
        <ele>422.5</ele>
        <time>2022-04-18T11:16:14Z</time>
      </trkpt>
      <trkpt lat="49.0441" lon="7.72025">
        <ele>422.2</ele>
        <time>2022-04-18T11:16:21Z</time>
      </trkpt>
      <trkpt lat="49.04416" lon="7.72014">
        <ele>421.9</ele>
        <time>2022-04-18T11:16:29Z</time>
      </trkpt>
      <trkpt lat="49.04422" lon="7.72002">
        <ele>421.7</ele>
        <time>2022-04-18T11:16:37Z</time>
      </trkpt>
      <trkpt lat="49.04428" lon="7.7199">
        <ele>421.4</ele>
        <time>2022-04-18T11:16:44Z</time>
      </trkpt>
      <trkpt lat="49.04433" lon="7.71977">
        <ele>421</ele>
        <time>2022-04-18T11:16:52Z</time>
      </trkpt>
      <trkpt lat="49.04437" lon="7.71965">
        <ele>420.8</ele>
        <time>2022-04-18T11:16:59Z</time>
      </trkpt>
      <trkpt lat="49.04442" lon="7.71952">
        <ele>420.4</ele>
        <time>2022-04-18T11:17:06Z</time>
      </trkpt>
      <trkpt lat="49.04445" lon="7.71939">
        <ele>420.1</ele>
        <time>2022-04-18T11:17:13Z</time>
      </trkpt>
      <trkpt lat="49.04448" lon="7.71925">
        <ele>419.9</ele>
        <time>2022-04-18T11:17:20Z</time>
      </trkpt>
      <trkpt lat="49.0445" lon="7.71911">
        <ele>419.6</ele>
        <time>2022-04-18T11:17:27Z</time>
      </trkpt>
      <trkpt lat="49.04452" lon="7.71898">
        <ele>419.4</ele>
        <time>2022-04-18T11:17:34Z</time>
      </trkpt>
      <trkpt lat="49.04452" lon="7.71882">
        <ele>419.2</ele>
        <time>2022-04-18T11:17:42Z</time>
      </trkpt>
      <trkpt lat="49.04451" lon="7.71868">
        <ele>419</ele>
        <time>2022-04-18T11:17:49Z</time>
      </trkpt>
      <trkpt lat="49.04451" lon="7.71854">
        <ele>418.7</ele>
        <time>2022-04-18T11:17:55Z</time>
      </trkpt>
      <trkpt lat="49.04451" lon="7.71838">
        <ele>418.5</ele>
        <time>2022-04-18T11:18:02Z</time>
      </trkpt>
      <trkpt lat="49.0445" lon="7.71824">
        <ele>418.2</ele>
        <time>2022-04-18T11:18:09Z</time>
      </trkpt>
      <trkpt lat="49.0445" lon="7.71809">
        <ele>417.9</ele>
        <time>2022-04-18T11:18:16Z</time>
      </trkpt>
      <trkpt lat="49.04449" lon="7.71794">
        <ele>417.6</ele>
        <time>2022-04-18T11:18:23Z</time>
      </trkpt>
      <trkpt lat="49.04449" lon="7.7178">
        <ele>417.4</ele>
        <time>2022-04-18T11:18:30Z</time>
      </trkpt>
      <trkpt lat="49.04447" lon="7.71765">
        <ele>417.1</ele>
        <time>2022-04-18T11:18:38Z</time>
      </trkpt>
      <trkpt lat="49.04445" lon="7.71751">
        <ele>416.9</ele>
        <time>2022-04-18T11:18:45Z</time>
      </trkpt>
      <trkpt lat="49.04446" lon="7.71736">
        <ele>416.9</ele>
        <time>2022-04-18T11:18:52Z</time>
      </trkpt>
      <trkpt lat="49.04443" lon="7.71722">
        <ele>418.1</ele>
        <time>2022-04-18T11:19:01Z</time>
      </trkpt>
      <trkpt lat="49.04438" lon="7.71709">
        <ele>419.6</ele>
        <time>2022-04-18T11:19:10Z</time>
      </trkpt>
      <trkpt lat="49.04433" lon="7.71696">
        <ele>421</ele>
        <time>2022-04-18T11:19:19Z</time>
      </trkpt>
      <trkpt lat="49.0443" lon="7.71683">
        <ele>422.3</ele>
        <time>2022-04-18T11:19:28Z</time>
      </trkpt>
      <trkpt lat="49.04426" lon="7.7167">
        <ele>423.5</ele>
        <time>2022-04-18T11:19:36Z</time>
      </trkpt>
      <trkpt lat="49.04424" lon="7.71656">
        <ele>424.5</ele>
        <time>2022-04-18T11:19:44Z</time>
      </trkpt>
      <trkpt lat="49.0442" lon="7.71643">
        <ele>425.4</ele>
        <time>2022-04-18T11:19:51Z</time>
      </trkpt>
      <trkpt lat="49.0442" lon="7.71641">
        <ele>425.5</ele>
        <time>2022-04-18T11:19:54Z</time>
      </trkpt>
      <trkpt lat="49.0442" lon="7.7164">
        <ele>425.6</ele>
        <time>2022-04-18T11:19:56Z</time>
      </trkpt>
      <trkpt lat="49.04414" lon="7.71628">
        <ele>426.7</ele>
        <time>2022-04-18T11:20:02Z</time>
      </trkpt>
      <trkpt lat="49.0441" lon="7.71615">
        <ele>427.8</ele>
        <time>2022-04-18T11:20:09Z</time>
      </trkpt>
      <trkpt lat="49.04405" lon="7.71602">
        <ele>428.9</ele>
        <time>2022-04-18T11:20:17Z</time>
      </trkpt>
      <trkpt lat="49.04399" lon="7.71591">
        <ele>430.1</ele>
        <time>2022-04-18T11:20:24Z</time>
      </trkpt>
      <trkpt lat="49.04393" lon="7.71579">
        <ele>431.4</ele>
        <time>2022-04-18T11:20:32Z</time>
      </trkpt>
      <trkpt lat="49.04389" lon="7.71567">
        <ele>432.6</ele>
        <time>2022-04-18T11:20:40Z</time>
      </trkpt>
      <trkpt lat="49.04382" lon="7.71555">
        <ele>433.9</ele>
        <time>2022-04-18T11:20:48Z</time>
      </trkpt>
      <trkpt lat="49.04378" lon="7.71542">
        <ele>435.2</ele>
        <time>2022-04-18T11:20:56Z</time>
      </trkpt>
      <trkpt lat="49.04374" lon="7.71528">
        <ele>436.7</ele>
        <time>2022-04-18T11:21:05Z</time>
      </trkpt>
      <trkpt lat="49.04368" lon="7.71516">
        <ele>438.1</ele>
        <time>2022-04-18T11:21:15Z</time>
      </trkpt>
      <trkpt lat="49.04362" lon="7.71505">
        <ele>439.3</ele>
        <time>2022-04-18T11:21:24Z</time>
      </trkpt>
      <trkpt lat="49.04363" lon="7.71491">
        <ele>440.7</ele>
        <time>2022-04-18T11:21:33Z</time>
      </trkpt>
      <trkpt lat="49.04361" lon="7.71476">
        <ele>442.1</ele>
        <time>2022-04-18T11:21:41Z</time>
      </trkpt>
      <trkpt lat="49.04359" lon="7.71461">
        <ele>443.2</ele>
        <time>2022-04-18T11:21:52Z</time>
      </trkpt>
      <trkpt lat="49.04359" lon="7.71454">
        <ele>443</ele>
        <time>2022-04-18T11:22:01Z</time>
      </trkpt>
      <trkpt lat="49.04359" lon="7.71454">
        <ele>443</ele>
        <time>2022-04-18T11:22:03Z</time>
      </trkpt>
      <trkpt lat="49.04357" lon="7.7144">
        <ele>442.3</ele>
        <time>2022-04-18T11:22:13Z</time>
      </trkpt>
      <trkpt lat="49.04358" lon="7.71425">
        <ele>441.5</ele>
        <time>2022-04-18T11:22:22Z</time>
      </trkpt>
      <trkpt lat="49.04359" lon="7.7141">
        <ele>441</ele>
        <time>2022-04-18T11:22:31Z</time>
      </trkpt>
      <trkpt lat="49.04357" lon="7.71395">
        <ele>440.8</ele>
        <time>2022-04-18T11:22:40Z</time>
      </trkpt>
      <trkpt lat="49.04356" lon="7.71382">
        <ele>440.5</ele>
        <time>2022-04-18T11:22:47Z</time>
      </trkpt>
      <trkpt lat="49.04355" lon="7.71367">
        <ele>439.8</ele>
        <time>2022-04-18T11:22:54Z</time>
      </trkpt>
      <trkpt lat="49.04355" lon="7.71352">
        <ele>438.9</ele>
        <time>2022-04-18T11:23:02Z</time>
      </trkpt>
      <trkpt lat="49.04357" lon="7.71339">
        <ele>437.9</ele>
        <time>2022-04-18T11:23:09Z</time>
      </trkpt>
      <trkpt lat="49.04357" lon="7.71325">
        <ele>436.6</ele>
        <time>2022-04-18T11:23:16Z</time>
      </trkpt>
      <trkpt lat="49.04362" lon="7.7131">
        <ele>435.2</ele>
        <time>2022-04-18T11:23:23Z</time>
      </trkpt>
      <trkpt lat="49.04365" lon="7.71297">
        <ele>434</ele>
        <time>2022-04-18T11:23:29Z</time>
      </trkpt>
      <trkpt lat="49.0437" lon="7.71285">
        <ele>432.9</ele>
        <time>2022-04-18T11:23:36Z</time>
      </trkpt>
      <trkpt lat="49.04376" lon="7.71273">
        <ele>431.6</ele>
        <time>2022-04-18T11:23:44Z</time>
      </trkpt>
      <trkpt lat="49.04379" lon="7.71259">
        <ele>430.4</ele>
        <time>2022-04-18T11:23:51Z</time>
      </trkpt>
      <trkpt lat="49.04383" lon="7.71245">
        <ele>429.1</ele>
        <time>2022-04-18T11:23:59Z</time>
      </trkpt>
      <trkpt lat="49.04384" lon="7.71231">
        <ele>427.9</ele>
        <time>2022-04-18T11:24:05Z</time>
      </trkpt>
      <trkpt lat="49.04387" lon="7.71216">
        <ele>426.6</ele>
        <time>2022-04-18T11:24:11Z</time>
      </trkpt>
      <trkpt lat="49.04391" lon="7.71203">
        <ele>425.4</ele>
        <time>2022-04-18T11:24:17Z</time>
      </trkpt>
      <trkpt lat="49.04396" lon="7.71189">
        <ele>424.2</ele>
        <time>2022-04-18T11:24:23Z</time>
      </trkpt>
      <trkpt lat="49.04396" lon="7.71174">
        <ele>423.1</ele>
        <time>2022-04-18T11:24:31Z</time>
      </trkpt>
      <trkpt lat="49.04398" lon="7.7116">
        <ele>422.1</ele>
        <time>2022-04-18T11:24:37Z</time>
      </trkpt>
      <trkpt lat="49.04398" lon="7.71146">
        <ele>421</ele>
        <time>2022-04-18T11:24:44Z</time>
      </trkpt>
      <trkpt lat="49.044" lon="7.7113">
        <ele>419.7</ele>
        <time>2022-04-18T11:24:50Z</time>
      </trkpt>
      <trkpt lat="49.04399" lon="7.71116">
        <ele>418.6</ele>
        <time>2022-04-18T11:24:57Z</time>
      </trkpt>
      <trkpt lat="49.04399" lon="7.711">
        <ele>417.4</ele>
        <time>2022-04-18T11:25:04Z</time>
      </trkpt>
      <trkpt lat="49.04397" lon="7.71086">
        <ele>416.3</ele>
        <time>2022-04-18T11:25:10Z</time>
      </trkpt>
      <trkpt lat="49.04394" lon="7.71071">
        <ele>415.1</ele>
        <time>2022-04-18T11:25:17Z</time>
      </trkpt>
      <trkpt lat="49.04395" lon="7.71056">
        <ele>413.9</ele>
        <time>2022-04-18T11:25:24Z</time>
      </trkpt>
      <trkpt lat="49.04394" lon="7.71041">
        <ele>412.8</ele>
        <time>2022-04-18T11:25:30Z</time>
      </trkpt>
      <trkpt lat="49.04397" lon="7.71027">
        <ele>411.6</ele>
        <time>2022-04-18T11:25:38Z</time>
      </trkpt>
      <trkpt lat="49.04398" lon="7.71013">
        <ele>410.4</ele>
        <time>2022-04-18T11:25:44Z</time>
      </trkpt>
      <trkpt lat="49.044" lon="7.70999">
        <ele>409.2</ele>
        <time>2022-04-18T11:25:52Z</time>
      </trkpt>
      <trkpt lat="49.04408" lon="7.70989">
        <ele>408.2</ele>
        <time>2022-04-18T11:26:01Z</time>
      </trkpt>
      <trkpt lat="49.04407" lon="7.70975">
        <ele>407.3</ele>
        <time>2022-04-18T11:26:07Z</time>
      </trkpt>
      <trkpt lat="49.04404" lon="7.70962">
        <ele>406.3</ele>
        <time>2022-04-18T11:26:13Z</time>
      </trkpt>
      <trkpt lat="49.04399" lon="7.70949">
        <ele>405.2</ele>
        <time>2022-04-18T11:26:19Z</time>
      </trkpt>
      <trkpt lat="49.04394" lon="7.70938">
        <ele>404.1</ele>
        <time>2022-04-18T11:26:26Z</time>
      </trkpt>
      <trkpt lat="49.0439" lon="7.70926">
        <ele>403.3</ele>
        <time>2022-04-18T11:26:32Z</time>
      </trkpt>
      <trkpt lat="49.04388" lon="7.70912">
        <ele>402.7</ele>
        <time>2022-04-18T11:26:39Z</time>
      </trkpt>
      <trkpt lat="49.0439" lon="7.70897">
        <ele>402.6</ele>
        <time>2022-04-18T11:26:46Z</time>
      </trkpt>
      <trkpt lat="49.0439" lon="7.70882">
        <ele>402.5</ele>
        <time>2022-04-18T11:26:53Z</time>
      </trkpt>
      <trkpt lat="49.04391" lon="7.70867">
        <ele>402.3</ele>
        <time>2022-04-18T11:27:00Z</time>
      </trkpt>
      <trkpt lat="49.04393" lon="7.70853">
        <ele>402.2</ele>
        <time>2022-04-18T11:27:07Z</time>
      </trkpt>
      <trkpt lat="49.04396" lon="7.7084">
        <ele>402.1</ele>
        <time>2022-04-18T11:27:14Z</time>
      </trkpt>
      <trkpt lat="49.04401" lon="7.70827">
        <ele>401.9</ele>
        <time>2022-04-18T11:27:23Z</time>
      </trkpt>
      <trkpt lat="49.04407" lon="7.70816">
        <ele>401.7</ele>
        <time>2022-04-18T11:27:32Z</time>
      </trkpt>
      <trkpt lat="49.04412" lon="7.70805">
        <ele>401.5</ele>
        <time>2022-04-18T11:27:40Z</time>
      </trkpt>
      <trkpt lat="49.04414" lon="7.708">
        <ele>401.4</ele>
        <time>2022-04-18T11:27:48Z</time>
      </trkpt>
      <trkpt lat="49.04414" lon="7.708">
        <ele>401.4</ele>
        <time>2022-04-18T11:27:50Z</time>
      </trkpt>
      <trkpt lat="49.04414" lon="7.708">
        <ele>401.4</ele>
        <time>2022-04-18T11:27:52Z</time>
      </trkpt>
      <trkpt lat="49.04413" lon="7.708">
        <ele>401.4</ele>
        <time>2022-04-18T11:27:58Z</time>
      </trkpt>
      <trkpt lat="49.04413" lon="7.708">
        <ele>401.4</ele>
        <time>2022-04-18T11:27:59Z</time>
      </trkpt>
      <trkpt lat="49.04413" lon="7.70799">
        <ele>401.4</ele>
        <time>2022-04-18T11:28:13Z</time>
      </trkpt>
      <trkpt lat="49.04414" lon="7.70798">
        <ele>401.3</ele>
        <time>2022-04-18T11:28:16Z</time>
      </trkpt>
      <trkpt lat="49.04414" lon="7.70797">
        <ele>401.3</ele>
        <time>2022-04-18T11:28:19Z</time>
      </trkpt>
      <trkpt lat="49.04416" lon="7.70792">
        <ele>401.2</ele>
        <time>2022-04-18T11:28:29Z</time>
      </trkpt>
      <trkpt lat="49.04416" lon="7.70792">
        <ele>401.2</ele>
        <time>2022-04-18T11:28:30Z</time>
      </trkpt>
      <trkpt lat="49.0442" lon="7.7078">
        <ele>400.9</ele>
        <time>2022-04-18T11:28:42Z</time>
      </trkpt>
      <trkpt lat="49.0443" lon="7.70775">
        <ele>400.5</ele>
        <time>2022-04-18T11:28:59Z</time>
      </trkpt>
      <trkpt lat="49.04439" lon="7.70769">
        <ele>400</ele>
        <time>2022-04-18T11:29:06Z</time>
      </trkpt>
      <trkpt lat="49.04448" lon="7.70765">
        <ele>399.4</ele>
        <time>2022-04-18T11:29:14Z</time>
      </trkpt>
      <trkpt lat="49.04456" lon="7.70757">
        <ele>398.9</ele>
        <time>2022-04-18T11:29:21Z</time>
      </trkpt>
      <trkpt lat="49.04465" lon="7.7075">
        <ele>398.2</ele>
        <time>2022-04-18T11:29:30Z</time>
      </trkpt>
      <trkpt lat="49.04474" lon="7.70746">
        <ele>397.5</ele>
        <time>2022-04-18T11:29:42Z</time>
      </trkpt>
      <trkpt lat="49.04482" lon="7.70736">
        <ele>396.7</ele>
        <time>2022-04-18T11:29:53Z</time>
      </trkpt>
      <trkpt lat="49.04491" lon="7.70728">
        <ele>395.9</ele>
        <time>2022-04-18T11:30:00Z</time>
      </trkpt>
      <trkpt lat="49.04497" lon="7.70717">
        <ele>395.1</ele>
        <time>2022-04-18T11:30:07Z</time>
      </trkpt>
      <trkpt lat="49.04506" lon="7.7071">
        <ele>394.3</ele>
        <time>2022-04-18T11:30:14Z</time>
      </trkpt>
      <trkpt lat="49.04515" lon="7.70702">
        <ele>393.5</ele>
        <time>2022-04-18T11:30:22Z</time>
      </trkpt>
      <trkpt lat="49.04521" lon="7.7069">
        <ele>392.8</ele>
        <time>2022-04-18T11:30:29Z</time>
      </trkpt>
      <trkpt lat="49.04528" lon="7.70678">
        <ele>392.1</ele>
        <time>2022-04-18T11:30:35Z</time>
      </trkpt>
      <trkpt lat="49.04532" lon="7.70665">
        <ele>391.5</ele>
        <time>2022-04-18T11:30:41Z</time>
      </trkpt>
      <trkpt lat="49.04537" lon="7.70652">
        <ele>390.9</ele>
        <time>2022-04-18T11:30:49Z</time>
      </trkpt>
      <trkpt lat="49.04542" lon="7.7064">
        <ele>390.3</ele>
        <time>2022-04-18T11:30:56Z</time>
      </trkpt>
      <trkpt lat="49.04548" lon="7.70627">
        <ele>389.8</ele>
        <time>2022-04-18T11:31:05Z</time>
      </trkpt>
      <trkpt lat="49.04556" lon="7.70618">
        <ele>389.5</ele>
        <time>2022-04-18T11:31:12Z</time>
      </trkpt>
      <trkpt lat="49.04563" lon="7.70608">
        <ele>389.2</ele>
        <time>2022-04-18T11:31:20Z</time>
      </trkpt>
      <trkpt lat="49.04565" lon="7.70593">
        <ele>388.8</ele>
        <time>2022-04-18T11:31:28Z</time>
      </trkpt>
      <trkpt lat="49.04568" lon="7.70579">
        <ele>388.5</ele>
        <time>2022-04-18T11:31:37Z</time>
      </trkpt>
      <trkpt lat="49.04576" lon="7.70573">
        <ele>388.2</ele>
        <time>2022-04-18T11:31:48Z</time>
      </trkpt>
      <trkpt lat="49.04586" lon="7.7057">
        <ele>387.6</ele>
        <time>2022-04-18T11:31:59Z</time>
      </trkpt>
      <trkpt lat="49.04596" lon="7.70569">
        <ele>387.2</ele>
        <time>2022-04-18T11:32:08Z</time>
      </trkpt>
      <trkpt lat="49.04604" lon="7.70563">
        <ele>386.1</ele>
        <time>2022-04-18T11:32:15Z</time>
      </trkpt>
      <trkpt lat="49.04613" lon="7.70558">
        <ele>385</ele>
        <time>2022-04-18T11:32:25Z</time>
      </trkpt>
      <trkpt lat="49.04622" lon="7.70552">
        <ele>383.8</ele>
        <time>2022-04-18T11:32:32Z</time>
      </trkpt>
      <trkpt lat="49.04629" lon="7.70543">
        <ele>382.6</ele>
        <time>2022-04-18T11:32:39Z</time>
      </trkpt>
      <trkpt lat="49.04638" lon="7.70538">
        <ele>381.2</ele>
        <time>2022-04-18T11:32:47Z</time>
      </trkpt>
      <trkpt lat="49.04645" lon="7.70528">
        <ele>379.8</ele>
        <time>2022-04-18T11:32:57Z</time>
      </trkpt>
      <trkpt lat="49.04652" lon="7.70518">
        <ele>378.4</ele>
        <time>2022-04-18T11:33:04Z</time>
      </trkpt>
      <trkpt lat="49.04658" lon="7.70507">
        <ele>377.1</ele>
        <time>2022-04-18T11:33:13Z</time>
      </trkpt>
      <trkpt lat="49.04665" lon="7.70495">
        <ele>375.8</ele>
        <time>2022-04-18T11:33:22Z</time>
      </trkpt>
      <trkpt lat="49.04672" lon="7.70485">
        <ele>374.5</ele>
        <time>2022-04-18T11:33:29Z</time>
      </trkpt>
      <trkpt lat="49.04677" lon="7.70473">
        <ele>373.5</ele>
        <time>2022-04-18T11:33:36Z</time>
      </trkpt>
      <trkpt lat="49.04683" lon="7.70462">
        <ele>372.3</ele>
        <time>2022-04-18T11:33:47Z</time>
      </trkpt>
      <trkpt lat="49.04688" lon="7.70449">
        <ele>371</ele>
        <time>2022-04-18T11:33:55Z</time>
      </trkpt>
      <trkpt lat="49.04693" lon="7.70437">
        <ele>369.7</ele>
        <time>2022-04-18T11:34:02Z</time>
      </trkpt>
      <trkpt lat="49.04698" lon="7.70425">
        <ele>368.5</ele>
        <time>2022-04-18T11:34:10Z</time>
      </trkpt>
      <trkpt lat="49.04702" lon="7.70413">
        <ele>367.2</ele>
        <time>2022-04-18T11:34:19Z</time>
      </trkpt>
      <trkpt lat="49.04708" lon="7.70401">
        <ele>365.9</ele>
        <time>2022-04-18T11:34:27Z</time>
      </trkpt>
      <trkpt lat="49.04713" lon="7.70389">
        <ele>364.6</ele>
        <time>2022-04-18T11:34:35Z</time>
      </trkpt>
      <trkpt lat="49.04716" lon="7.70375">
        <ele>363.2</ele>
        <time>2022-04-18T11:34:44Z</time>
      </trkpt>
      <trkpt lat="49.04716" lon="7.7036">
        <ele>361.7</ele>
        <time>2022-04-18T11:34:52Z</time>
      </trkpt>
      <trkpt lat="49.04716" lon="7.70344">
        <ele>360</ele>
        <time>2022-04-18T11:35:00Z</time>
      </trkpt>
      <trkpt lat="49.04715" lon="7.70331">
        <ele>358.7</ele>
        <time>2022-04-18T11:35:10Z</time>
      </trkpt>
      <trkpt lat="49.04723" lon="7.70326">
        <ele>357.5</ele>
        <time>2022-04-18T11:35:20Z</time>
      </trkpt>
      <trkpt lat="49.04732" lon="7.70319">
        <ele>356.2</ele>
        <time>2022-04-18T11:35:28Z</time>
      </trkpt>
      <trkpt lat="49.04741" lon="7.70312">
        <ele>355</ele>
        <time>2022-04-18T11:35:37Z</time>
      </trkpt>
      <trkpt lat="49.04751" lon="7.70307">
        <ele>353.7</ele>
        <time>2022-04-18T11:35:46Z</time>
      </trkpt>
      <trkpt lat="49.04757" lon="7.70296">
        <ele>352.5</ele>
        <time>2022-04-18T11:35:53Z</time>
      </trkpt>
      <trkpt lat="49.04761" lon="7.70281">
        <ele>351.2</ele>
        <time>2022-04-18T11:36:00Z</time>
      </trkpt>
      <trkpt lat="49.04764" lon="7.70267">
        <ele>350.2</ele>
        <time>2022-04-18T11:36:07Z</time>
      </trkpt>
      <trkpt lat="49.04767" lon="7.70263">
        <ele>350.3</ele>
        <time>2022-04-18T11:36:14Z</time>
      </trkpt>
      <trkpt lat="49.04767" lon="7.70263">
        <ele>350.3</ele>
        <time>2022-04-18T11:36:15Z</time>
      </trkpt>
      <trkpt lat="49.04767" lon="7.70263">
        <ele>350.3</ele>
        <time>2022-04-18T11:36:16Z</time>
      </trkpt>
      <trkpt lat="49.04767" lon="7.70264">
        <ele>350.3</ele>
        <time>2022-04-18T11:36:30Z</time>
      </trkpt>
      <trkpt lat="49.04767" lon="7.70264">
        <ele>350.3</ele>
        <time>2022-04-18T11:36:31Z</time>
      </trkpt>
      <trkpt lat="49.04767" lon="7.70263">
        <ele>350.3</ele>
        <time>2022-04-18T11:36:32Z</time>
      </trkpt>
      <trkpt lat="49.04773" lon="7.70257">
        <ele>350.4</ele>
        <time>2022-04-18T11:36:42Z</time>
      </trkpt>
      <trkpt lat="49.04773" lon="7.70257">
        <ele>350.4</ele>
        <time>2022-04-18T11:36:55Z</time>
      </trkpt>
      <trkpt lat="49.04773" lon="7.70257">
        <ele>350.4</ele>
        <time>2022-04-18T11:36:56Z</time>
      </trkpt>
      <trkpt lat="49.04773" lon="7.70257">
        <ele>350.4</ele>
        <time>2022-04-18T11:37:12Z</time>
      </trkpt>
      <trkpt lat="49.04773" lon="7.70257">
        <ele>350.4</ele>
        <time>2022-04-18T11:37:13Z</time>
      </trkpt>
      <trkpt lat="49.04773" lon="7.70257">
        <ele>350.4</ele>
        <time>2022-04-18T11:37:17Z</time>
      </trkpt>
      <trkpt lat="49.04773" lon="7.70257">
        <ele>350.4</ele>
        <time>2022-04-18T11:37:19Z</time>
      </trkpt>
      <trkpt lat="49.04773" lon="7.70257">
        <ele>350.4</ele>
        <time>2022-04-18T11:37:21Z</time>
      </trkpt>
      <trkpt lat="49.04773" lon="7.70257">
        <ele>350.4</ele>
        <time>2022-04-18T11:37:23Z</time>
      </trkpt>
      <trkpt lat="49.04773" lon="7.70257">
        <ele>350.4</ele>
        <time>2022-04-18T11:37:46Z</time>
      </trkpt>
      <trkpt lat="49.04772" lon="7.70256">
        <ele>350.4</ele>
        <time>2022-04-18T11:37:51Z</time>
      </trkpt>
      <trkpt lat="49.04772" lon="7.70256">
        <ele>350.4</ele>
        <time>2022-04-18T11:37:58Z</time>
      </trkpt>
      <trkpt lat="49.04764" lon="7.70264">
        <ele>350.2</ele>
        <time>2022-04-18T11:38:07Z</time>
      </trkpt>
      <trkpt lat="49.04757" lon="7.70274">
        <ele>349.2</ele>
        <time>2022-04-18T11:38:14Z</time>
      </trkpt>
      <trkpt lat="49.04749" lon="7.70281">
        <ele>348.1</ele>
        <time>2022-04-18T11:38:21Z</time>
      </trkpt>
      <trkpt lat="49.0474" lon="7.70287">
        <ele>347</ele>
        <time>2022-04-18T11:38:29Z</time>
      </trkpt>
      <trkpt lat="49.0473" lon="7.7029">
        <ele>345.9</ele>
        <time>2022-04-18T11:38:37Z</time>
      </trkpt>
      <trkpt lat="49.04721" lon="7.70296">
        <ele>345.2</ele>
        <time>2022-04-18T11:38:44Z</time>
      </trkpt>
      <trkpt lat="49.04713" lon="7.70301">
        <ele>344.5</ele>
        <time>2022-04-18T11:38:51Z</time>
      </trkpt>
      <trkpt lat="49.04704" lon="7.70306">
        <ele>343.7</ele>
        <time>2022-04-18T11:38:59Z</time>
      </trkpt>
      <trkpt lat="49.04697" lon="7.70315">
        <ele>342.8</ele>
        <time>2022-04-18T11:39:08Z</time>
      </trkpt>
      <trkpt lat="49.04689" lon="7.70325">
        <ele>341.8</ele>
        <time>2022-04-18T11:39:16Z</time>
      </trkpt>
      <trkpt lat="49.04685" lon="7.70338">
        <ele>340.9</ele>
        <time>2022-04-18T11:39:23Z</time>
      </trkpt>
      <trkpt lat="49.04679" lon="7.7035">
        <ele>340.1</ele>
        <time>2022-04-18T11:39:31Z</time>
      </trkpt>
      <trkpt lat="49.04671" lon="7.70359">
        <ele>339.2</ele>
        <time>2022-04-18T11:39:38Z</time>
      </trkpt>
      <trkpt lat="49.04663" lon="7.70367">
        <ele>338.4</ele>
        <time>2022-04-18T11:39:44Z</time>
      </trkpt>
      <trkpt lat="49.04654" lon="7.70371">
        <ele>337.4</ele>
        <time>2022-04-18T11:39:51Z</time>
      </trkpt>
      <trkpt lat="49.04645" lon="7.70375">
        <ele>336.4</ele>
        <time>2022-04-18T11:39:59Z</time>
      </trkpt>
      <trkpt lat="49.04636" lon="7.70369">
        <ele>335.2</ele>
        <time>2022-04-18T11:40:07Z</time>
      </trkpt>
      <trkpt lat="49.04631" lon="7.70356">
        <ele>334.4</ele>
        <time>2022-04-18T11:40:14Z</time>
      </trkpt>
      <trkpt lat="49.04628" lon="7.70342">
        <ele>333.4</ele>
        <time>2022-04-18T11:40:21Z</time>
      </trkpt>
      <trkpt lat="49.04627" lon="7.70327">
        <ele>332.4</ele>
        <time>2022-04-18T11:40:28Z</time>
      </trkpt>
      <trkpt lat="49.04628" lon="7.70311">
        <ele>331.3</ele>
        <time>2022-04-18T11:40:36Z</time>
      </trkpt>
      <trkpt lat="49.04627" lon="7.70297">
        <ele>330.2</ele>
        <time>2022-04-18T11:40:43Z</time>
      </trkpt>
      <trkpt lat="49.04628" lon="7.70281">
        <ele>329.1</ele>
        <time>2022-04-18T11:40:51Z</time>
      </trkpt>
      <trkpt lat="49.04626" lon="7.70266">
        <ele>328</ele>
        <time>2022-04-18T11:40:57Z</time>
      </trkpt>
      <trkpt lat="49.04626" lon="7.70251">
        <ele>326.9</ele>
        <time>2022-04-18T11:41:04Z</time>
      </trkpt>
      <trkpt lat="49.04625" lon="7.70237">
        <ele>325.9</ele>
        <time>2022-04-18T11:41:10Z</time>
      </trkpt>
      <trkpt lat="49.04623" lon="7.70223">
        <ele>325</ele>
        <time>2022-04-18T11:41:17Z</time>
      </trkpt>
      <trkpt lat="49.04622" lon="7.70208">
        <ele>324</ele>
        <time>2022-04-18T11:41:24Z</time>
      </trkpt>
      <trkpt lat="49.04619" lon="7.70195">
        <ele>322.9</ele>
        <time>2022-04-18T11:41:31Z</time>
      </trkpt>
      <trkpt lat="49.04618" lon="7.7018">
        <ele>321.9</ele>
        <time>2022-04-18T11:41:38Z</time>
      </trkpt>
      <trkpt lat="49.04615" lon="7.70167">
        <ele>320.9</ele>
        <time>2022-04-18T11:41:44Z</time>
      </trkpt>
      <trkpt lat="49.04611" lon="7.70153">
        <ele>319.9</ele>
        <time>2022-04-18T11:41:51Z</time>
      </trkpt>
      <trkpt lat="49.04607" lon="7.70139">
        <ele>318.8</ele>
        <time>2022-04-18T11:41:58Z</time>
      </trkpt>
      <trkpt lat="49.04603" lon="7.70126">
        <ele>317.8</ele>
        <time>2022-04-18T11:42:06Z</time>
      </trkpt>
      <trkpt lat="49.04603" lon="7.70126">
        <ele>317.8</ele>
        <time>2022-04-18T11:42:08Z</time>
      </trkpt>
      <trkpt lat="49.04602" lon="7.70125">
        <ele>317.7</ele>
        <time>2022-04-18T11:42:10Z</time>
      </trkpt>
      <trkpt lat="49.04601" lon="7.70123">
        <ele>317.5</ele>
        <time>2022-04-18T11:42:17Z</time>
      </trkpt>
      <trkpt lat="49.046" lon="7.70123">
        <ele>317.5</ele>
        <time>2022-04-18T11:42:29Z</time>
      </trkpt>
      <trkpt lat="49.046" lon="7.70123">
        <ele>317.5</ele>
        <time>2022-04-18T11:42:30Z</time>
      </trkpt>
      <trkpt lat="49.046" lon="7.70123">
        <ele>317.5</ele>
        <time>2022-04-18T11:42:55Z</time>
      </trkpt>
      <trkpt lat="49.04598" lon="7.70123">
        <ele>317.3</ele>
        <time>2022-04-18T11:42:59Z</time>
      </trkpt>
      <trkpt lat="49.04598" lon="7.70123">
        <ele>317.3</ele>
        <time>2022-04-18T11:43:09Z</time>
      </trkpt>
      <trkpt lat="49.04598" lon="7.70123">
        <ele>317.2</ele>
        <time>2022-04-18T11:43:11Z</time>
      </trkpt>
      <trkpt lat="49.04598" lon="7.70123">
        <ele>317.2</ele>
        <time>2022-04-18T11:43:12Z</time>
      </trkpt>
      <trkpt lat="49.04597" lon="7.70123">
        <ele>317.2</ele>
        <time>2022-04-18T11:43:14Z</time>
      </trkpt>
      <trkpt lat="49.04597" lon="7.70123">
        <ele>317.2</ele>
        <time>2022-04-18T11:43:30Z</time>
      </trkpt>
      <trkpt lat="49.04597" lon="7.70123">
        <ele>317.2</ele>
        <time>2022-04-18T11:43:31Z</time>
      </trkpt>
      <trkpt lat="49.04597" lon="7.70123">
        <ele>317.1</ele>
        <time>2022-04-18T11:43:32Z</time>
      </trkpt>
      <trkpt lat="49.04595" lon="7.70121">
        <ele>316.9</ele>
        <time>2022-04-18T11:43:40Z</time>
      </trkpt>
      <trkpt lat="49.04594" lon="7.70121">
        <ele>316.8</ele>
        <time>2022-04-18T11:43:44Z</time>
      </trkpt>
      <trkpt lat="49.04589" lon="7.70108">
        <ele>315.7</ele>
        <time>2022-04-18T11:43:53Z</time>
      </trkpt>
      <trkpt lat="49.04584" lon="7.70096">
        <ele>314.6</ele>
        <time>2022-04-18T11:44:01Z</time>
      </trkpt>
      <trkpt lat="49.04576" lon="7.70085">
        <ele>313.4</ele>
        <time>2022-04-18T11:44:08Z</time>
      </trkpt>
      <trkpt lat="49.04568" lon="7.70077">
        <ele>312.3</ele>
        <time>2022-04-18T11:44:15Z</time>
      </trkpt>
      <trkpt lat="49.04561" lon="7.70068">
        <ele>311.3</ele>
        <time>2022-04-18T11:44:23Z</time>
      </trkpt>
      <trkpt lat="49.04553" lon="7.70058">
        <ele>310.3</ele>
        <time>2022-04-18T11:44:30Z</time>
      </trkpt>
      <trkpt lat="49.04545" lon="7.70052">
        <ele>309.3</ele>
        <time>2022-04-18T11:44:37Z</time>
      </trkpt>
      <trkpt lat="49.04537" lon="7.70045">
        <ele>308.2</ele>
        <time>2022-04-18T11:44:43Z</time>
      </trkpt>
      <trkpt lat="49.04527" lon="7.70039">
        <ele>307</ele>
        <time>2022-04-18T11:44:50Z</time>
      </trkpt>
      <trkpt lat="49.04518" lon="7.70036">
        <ele>305.9</ele>
        <time>2022-04-18T11:44:56Z</time>
      </trkpt>
      <trkpt lat="49.0451" lon="7.70031">
        <ele>304.8</ele>
        <time>2022-04-18T11:45:03Z</time>
      </trkpt>
      <trkpt lat="49.04499" lon="7.70028">
        <ele>303.6</ele>
        <time>2022-04-18T11:45:11Z</time>
      </trkpt>
      <trkpt lat="49.04489" lon="7.70026">
        <ele>302.4</ele>
        <time>2022-04-18T11:45:18Z</time>
      </trkpt>
      <trkpt lat="49.0448" lon="7.70023">
        <ele>301.4</ele>
        <time>2022-04-18T11:45:25Z</time>
      </trkpt>
      <trkpt lat="49.04471" lon="7.70021">
        <ele>300.3</ele>
        <time>2022-04-18T11:45:33Z</time>
      </trkpt>
      <trkpt lat="49.0446" lon="7.70021">
        <ele>299.2</ele>
        <time>2022-04-18T11:45:40Z</time>
      </trkpt>
      <trkpt lat="49.0445" lon="7.70018">
        <ele>298.1</ele>
        <time>2022-04-18T11:45:48Z</time>
      </trkpt>
      <trkpt lat="49.04441" lon="7.70014">
        <ele>297.1</ele>
        <time>2022-04-18T11:45:56Z</time>
      </trkpt>
      <trkpt lat="49.04432" lon="7.70009">
        <ele>296.1</ele>
        <time>2022-04-18T11:46:04Z</time>
      </trkpt>
      <trkpt lat="49.04422" lon="7.70007">
        <ele>295</ele>
        <time>2022-04-18T11:46:10Z</time>
      </trkpt>
      <trkpt lat="49.04412" lon="7.70006">
        <ele>293.9</ele>
        <time>2022-04-18T11:46:17Z</time>
      </trkpt>
      <trkpt lat="49.04402" lon="7.70003">
        <ele>292.9</ele>
        <time>2022-04-18T11:46:26Z</time>
      </trkpt>
      <trkpt lat="49.04393" lon="7.69999">
        <ele>292</ele>
        <time>2022-04-18T11:46:33Z</time>
      </trkpt>
      <trkpt lat="49.04385" lon="7.69992">
        <ele>291.1</ele>
        <time>2022-04-18T11:46:41Z</time>
      </trkpt>
      <trkpt lat="49.04376" lon="7.69983">
        <ele>290.1</ele>
        <time>2022-04-18T11:46:50Z</time>
      </trkpt>
      <trkpt lat="49.04369" lon="7.69975">
        <ele>289.2</ele>
        <time>2022-04-18T11:46:57Z</time>
      </trkpt>
      <trkpt lat="49.04361" lon="7.69967">
        <ele>288.4</ele>
        <time>2022-04-18T11:47:05Z</time>
      </trkpt>
      <trkpt lat="49.04352" lon="7.6996">
        <ele>287.4</ele>
        <time>2022-04-18T11:47:12Z</time>
      </trkpt>
      <trkpt lat="49.04344" lon="7.69952">
        <ele>286.5</ele>
        <time>2022-04-18T11:47:19Z</time>
      </trkpt>
      <trkpt lat="49.04336" lon="7.69944">
        <ele>285.6</ele>
        <time>2022-04-18T11:47:26Z</time>
      </trkpt>
      <trkpt lat="49.04327" lon="7.69937">
        <ele>284.7</ele>
        <time>2022-04-18T11:47:33Z</time>
      </trkpt>
      <trkpt lat="49.04319" lon="7.69928">
        <ele>283.9</ele>
        <time>2022-04-18T11:47:40Z</time>
      </trkpt>
      <trkpt lat="49.04312" lon="7.69919">
        <ele>283</ele>
        <time>2022-04-18T11:47:47Z</time>
      </trkpt>
      <trkpt lat="49.04305" lon="7.69911">
        <ele>282.2</ele>
        <time>2022-04-18T11:47:55Z</time>
      </trkpt>
      <trkpt lat="49.04296" lon="7.69906">
        <ele>281</ele>
        <time>2022-04-18T11:48:02Z</time>
      </trkpt>
      <trkpt lat="49.04288" lon="7.69901">
        <ele>279.9</ele>
        <time>2022-04-18T11:48:09Z</time>
      </trkpt>
      <trkpt lat="49.04279" lon="7.69894">
        <ele>278.8</ele>
        <time>2022-04-18T11:48:16Z</time>
      </trkpt>
      <trkpt lat="49.0427" lon="7.69889">
        <ele>277.7</ele>
        <time>2022-04-18T11:48:22Z</time>
      </trkpt>
      <trkpt lat="49.04262" lon="7.69883">
        <ele>276.7</ele>
        <time>2022-04-18T11:48:29Z</time>
      </trkpt>
      <trkpt lat="49.04253" lon="7.69879">
        <ele>275.6</ele>
        <time>2022-04-18T11:48:36Z</time>
      </trkpt>
      <trkpt lat="49.04243" lon="7.69877">
        <ele>274.4</ele>
        <time>2022-04-18T11:48:43Z</time>
      </trkpt>
      <trkpt lat="49.04233" lon="7.69873">
        <ele>273.3</ele>
        <time>2022-04-18T11:48:50Z</time>
      </trkpt>
      <trkpt lat="49.04225" lon="7.69867">
        <ele>272.4</ele>
        <time>2022-04-18T11:48:58Z</time>
      </trkpt>
      <trkpt lat="49.04217" lon="7.6986">
        <ele>271.4</ele>
        <time>2022-04-18T11:49:06Z</time>
      </trkpt>
      <trkpt lat="49.04208" lon="7.69853">
        <ele>270.4</ele>
        <time>2022-04-18T11:49:13Z</time>
      </trkpt>
      <trkpt lat="49.042" lon="7.69845">
        <ele>269.5</ele>
        <time>2022-04-18T11:49:20Z</time>
      </trkpt>
      <trkpt lat="49.04191" lon="7.69839">
        <ele>268.4</ele>
        <time>2022-04-18T11:49:27Z</time>
      </trkpt>
      <trkpt lat="49.04182" lon="7.69832">
        <ele>267.3</ele>
        <time>2022-04-18T11:49:34Z</time>
      </trkpt>
      <trkpt lat="49.04173" lon="7.69826">
        <ele>266.2</ele>
        <time>2022-04-18T11:49:42Z</time>
      </trkpt>
      <trkpt lat="49.04164" lon="7.69821">
        <ele>265.2</ele>
        <time>2022-04-18T11:49:49Z</time>
      </trkpt>
      <trkpt lat="49.04156" lon="7.69815">
        <ele>264.3</ele>
        <time>2022-04-18T11:49:56Z</time>
      </trkpt>
      <trkpt lat="49.04146" lon="7.69811">
        <ele>263.3</ele>
        <time>2022-04-18T11:50:04Z</time>
      </trkpt>
      <trkpt lat="49.04136" lon="7.69808">
        <ele>262.2</ele>
        <time>2022-04-18T11:50:12Z</time>
      </trkpt>
      <trkpt lat="49.04127" lon="7.69807">
        <ele>261.2</ele>
        <time>2022-04-18T11:50:20Z</time>
      </trkpt>
      <trkpt lat="49.04118" lon="7.69803">
        <ele>260.2</ele>
        <time>2022-04-18T11:50:28Z</time>
      </trkpt>
      <trkpt lat="49.04109" lon="7.69799">
        <ele>259.3</ele>
        <time>2022-04-18T11:50:37Z</time>
      </trkpt>
      <trkpt lat="49.041" lon="7.69794">
        <ele>258.4</ele>
        <time>2022-04-18T11:50:44Z</time>
      </trkpt>
      <trkpt lat="49.04092" lon="7.69786">
        <ele>257.5</ele>
        <time>2022-04-18T11:50:51Z</time>
      </trkpt>
      <trkpt lat="49.04083" lon="7.69782">
        <ele>256.6</ele>
        <time>2022-04-18T11:50:58Z</time>
      </trkpt>
      <trkpt lat="49.04073" lon="7.69779">
        <ele>255.6</ele>
        <time>2022-04-18T11:51:06Z</time>
      </trkpt>
      <trkpt lat="49.04063" lon="7.69779">
        <ele>254.8</ele>
        <time>2022-04-18T11:51:13Z</time>
      </trkpt>
      <trkpt lat="49.04054" lon="7.69777">
        <ele>253.9</ele>
        <time>2022-04-18T11:51:19Z</time>
      </trkpt>
      <trkpt lat="49.04043" lon="7.69774">
        <ele>253</ele>
        <time>2022-04-18T11:51:27Z</time>
      </trkpt>
      <trkpt lat="49.04034" lon="7.69769">
        <ele>252</ele>
        <time>2022-04-18T11:51:33Z</time>
      </trkpt>
      <trkpt lat="49.04024" lon="7.69768">
        <ele>251.1</ele>
        <time>2022-04-18T11:51:40Z</time>
      </trkpt>
      <trkpt lat="49.04014" lon="7.69767">
        <ele>250.1</ele>
        <time>2022-04-18T11:51:49Z</time>
      </trkpt>
      <trkpt lat="49.04005" lon="7.69765">
        <ele>249.4</ele>
        <time>2022-04-18T11:51:56Z</time>
      </trkpt>
      <trkpt lat="49.03999" lon="7.69755">
        <ele>249.5</ele>
        <time>2022-04-18T11:52:04Z</time>
      </trkpt>
      <trkpt lat="49.03993" lon="7.69744">
        <ele>249.5</ele>
        <time>2022-04-18T11:52:15Z</time>
      </trkpt>
      <trkpt lat="49.03983" lon="7.69743">
        <ele>249.6</ele>
        <time>2022-04-18T11:52:24Z</time>
      </trkpt>
      <trkpt lat="49.03974" lon="7.69742">
        <ele>249.6</ele>
        <time>2022-04-18T11:52:32Z</time>
      </trkpt>
      <trkpt lat="49.03965" lon="7.69739">
        <ele>249.7</ele>
        <time>2022-04-18T11:52:41Z</time>
      </trkpt>
      <trkpt lat="49.03956" lon="7.69736">
        <ele>250</ele>
        <time>2022-04-18T11:52:50Z</time>
      </trkpt>
      <trkpt lat="49.03956" lon="7.69722">
        <ele>252.5</ele>
        <time>2022-04-18T11:53:09Z</time>
      </trkpt>
      <trkpt lat="49.03951" lon="7.6971">
        <ele>254.8</ele>
        <time>2022-04-18T11:53:21Z</time>
      </trkpt>
      <trkpt lat="49.0395" lon="7.69696">
        <ele>257.2</ele>
        <time>2022-04-18T11:53:33Z</time>
      </trkpt>
      <trkpt lat="49.03952" lon="7.69682">
        <ele>259.2</ele>
        <time>2022-04-18T11:53:47Z</time>
      </trkpt>
      <trkpt lat="49.03952" lon="7.69667">
        <ele>261</ele>
        <time>2022-04-18T11:53:57Z</time>
      </trkpt>
      <trkpt lat="49.03956" lon="7.69653">
        <ele>262.5</ele>
        <time>2022-04-18T11:54:06Z</time>
      </trkpt>
      <trkpt lat="49.03955" lon="7.69638">
        <ele>264</ele>
        <time>2022-04-18T11:54:15Z</time>
      </trkpt>
      <trkpt lat="49.03954" lon="7.69624">
        <ele>265.4</ele>
        <time>2022-04-18T11:54:25Z</time>
      </trkpt>
      <trkpt lat="49.03953" lon="7.69609">
        <ele>267</ele>
        <time>2022-04-18T11:54:35Z</time>
      </trkpt>
      <trkpt lat="49.03954" lon="7.69595">
        <ele>268.8</ele>
        <time>2022-04-18T11:54:45Z</time>
      </trkpt>
      <trkpt lat="49.03955" lon="7.69581">
        <ele>271</ele>
        <time>2022-04-18T11:54:58Z</time>
      </trkpt>
      <trkpt lat="49.03956" lon="7.69567">
        <ele>273.5</ele>
        <time>2022-04-18T11:55:12Z</time>
      </trkpt>
      <trkpt lat="49.03953" lon="7.69553">
        <ele>276</ele>
        <time>2022-04-18T11:55:26Z</time>
      </trkpt>
      <trkpt lat="49.03948" lon="7.6954">
        <ele>278.3</ele>
        <time>2022-04-18T11:55:38Z</time>
      </trkpt>
      <trkpt lat="49.03946" lon="7.69526">
        <ele>280</ele>
        <time>2022-04-18T11:55:51Z</time>
      </trkpt>
      <trkpt lat="49.03939" lon="7.69517">
        <ele>280.3</ele>
        <time>2022-04-18T11:56:01Z</time>
      </trkpt>
      <trkpt lat="49.0393" lon="7.69509">
        <ele>279.9</ele>
        <time>2022-04-18T11:56:09Z</time>
      </trkpt>
      <trkpt lat="49.03924" lon="7.69498">
        <ele>279.6</ele>
        <time>2022-04-18T11:56:16Z</time>
      </trkpt>
      <trkpt lat="49.03918" lon="7.69486">
        <ele>279.4</ele>
        <time>2022-04-18T11:56:25Z</time>
      </trkpt>
      <trkpt lat="49.03913" lon="7.69474">
        <ele>279.4</ele>
        <time>2022-04-18T11:56:35Z</time>
      </trkpt>
      <trkpt lat="49.03906" lon="7.69462">
        <ele>279.3</ele>
        <time>2022-04-18T11:56:42Z</time>
      </trkpt>
      <trkpt lat="49.03902" lon="7.69448">
        <ele>279.3</ele>
        <time>2022-04-18T11:56:49Z</time>
      </trkpt>
      <trkpt lat="49.03897" lon="7.69436">
        <ele>279.4</ele>
        <time>2022-04-18T11:56:55Z</time>
      </trkpt>
      <trkpt lat="49.0389" lon="7.69424">
        <ele>279.9</ele>
        <time>2022-04-18T11:57:02Z</time>
      </trkpt>
      <trkpt lat="49.03884" lon="7.69413">
        <ele>280.7</ele>
        <time>2022-04-18T11:57:10Z</time>
      </trkpt>
      <trkpt lat="49.03882" lon="7.69403">
        <ele>291.7</ele>
        <time>2022-04-18T11:57:25Z</time>
      </trkpt>
      <trkpt lat="49.03882" lon="7.69403">
        <ele>291.6</ele>
        <time>2022-04-18T11:57:26Z</time>
      </trkpt>
      <trkpt lat="49.03882" lon="7.69402">
        <ele>291.6</ele>
        <time>2022-04-18T11:57:27Z</time>
      </trkpt>
      <trkpt lat="49.03882" lon="7.69403">
        <ele>291.6</ele>
        <time>2022-04-18T11:57:28Z</time>
      </trkpt>
      <trkpt lat="49.03883" lon="7.69404">
        <ele>291.5</ele>
        <time>2022-04-18T11:57:33Z</time>
      </trkpt>
      <trkpt lat="49.03882" lon="7.69404">
        <ele>291.4</ele>
        <time>2022-04-18T11:57:45Z</time>
      </trkpt>
      <trkpt lat="49.03881" lon="7.69408">
        <ele>291.2</ele>
        <time>2022-04-18T11:57:49Z</time>
      </trkpt>
      <trkpt lat="49.03881" lon="7.69408">
        <ele>291.2</ele>
        <time>2022-04-18T11:57:54Z</time>
      </trkpt>
      <trkpt lat="49.03884" lon="7.69407">
        <ele>290.9</ele>
        <time>2022-04-18T11:57:58Z</time>
      </trkpt>
      <trkpt lat="49.03884" lon="7.69406">
        <ele>290.9</ele>
        <time>2022-04-18T11:58:20Z</time>
      </trkpt>
      <trkpt lat="49.03884" lon="7.69406">
        <ele>290.9</ele>
        <time>2022-04-18T11:58:21Z</time>
      </trkpt>
      <trkpt lat="49.03884" lon="7.69406">
        <ele>290.8</ele>
        <time>2022-04-18T11:58:28Z</time>
      </trkpt>
      <trkpt lat="49.03883" lon="7.69406">
        <ele>290.8</ele>
        <time>2022-04-18T11:58:30Z</time>
      </trkpt>
      <trkpt lat="49.03883" lon="7.69407">
        <ele>290.8</ele>
        <time>2022-04-18T11:58:31Z</time>
      </trkpt>
      <trkpt lat="49.03888" lon="7.69405">
        <ele>290.3</ele>
        <time>2022-04-18T11:58:54Z</time>
      </trkpt>
      <trkpt lat="49.03888" lon="7.69405">
        <ele>290.3</ele>
        <time>2022-04-18T11:58:55Z</time>
      </trkpt>
      <trkpt lat="49.03888" lon="7.69405">
        <ele>290.3</ele>
        <time>2022-04-18T11:58:56Z</time>
      </trkpt>
      <trkpt lat="49.03888" lon="7.69405">
        <ele>290.3</ele>
        <time>2022-04-18T11:59:07Z</time>
      </trkpt>
      <trkpt lat="49.03884" lon="7.694">
        <ele>289.8</ele>
        <time>2022-04-18T11:59:20Z</time>
      </trkpt>
      <trkpt lat="49.03884" lon="7.694">
        <ele>289.8</ele>
        <time>2022-04-18T11:59:31Z</time>
      </trkpt>
      <trkpt lat="49.03884" lon="7.694">
        <ele>289.8</ele>
        <time>2022-04-18T11:59:33Z</time>
      </trkpt>
      <trkpt lat="49.03884" lon="7.694">
        <ele>289.8</ele>
        <time>2022-04-18T11:59:34Z</time>
      </trkpt>
      <trkpt lat="49.03886" lon="7.69401">
        <ele>289.6</ele>
        <time>2022-04-18T11:59:51Z</time>
      </trkpt>
      <trkpt lat="49.03886" lon="7.69401">
        <ele>289.5</ele>
        <time>2022-04-18T11:59:52Z</time>
      </trkpt>
      <trkpt lat="49.03886" lon="7.69401">
        <ele>289.5</ele>
        <time>2022-04-18T11:59:53Z</time>
      </trkpt>
      <trkpt lat="49.03886" lon="7.694">
        <ele>289.5</ele>
        <time>2022-04-18T11:59:54Z</time>
      </trkpt>
      <trkpt lat="49.03886" lon="7.694">
        <ele>289.5</ele>
        <time>2022-04-18T11:59:55Z</time>
      </trkpt>
      <trkpt lat="49.03886" lon="7.694">
        <ele>289.5</ele>
        <time>2022-04-18T11:59:57Z</time>
      </trkpt>
      <trkpt lat="49.03884" lon="7.69399">
        <ele>289.3</ele>
        <time>2022-04-18T12:00:05Z</time>
      </trkpt>
      <trkpt lat="49.03884" lon="7.69399">
        <ele>289.2</ele>
        <time>2022-04-18T12:00:06Z</time>
      </trkpt>
      <trkpt lat="49.03883" lon="7.694">
        <ele>289.2</ele>
        <time>2022-04-18T12:00:08Z</time>
      </trkpt>
      <trkpt lat="49.03884" lon="7.694">
        <ele>289.1</ele>
        <time>2022-04-18T12:00:10Z</time>
      </trkpt>
      <trkpt lat="49.0388" lon="7.69406">
        <ele>288.5</ele>
        <time>2022-04-18T12:00:47Z</time>
      </trkpt>
      <trkpt lat="49.03879" lon="7.69407">
        <ele>288.5</ele>
        <time>2022-04-18T12:00:49Z</time>
      </trkpt>
      <trkpt lat="49.0388" lon="7.69399">
        <ele>288.1</ele>
        <time>2022-04-18T12:01:25Z</time>
      </trkpt>
      <trkpt lat="49.0388" lon="7.69399">
        <ele>288</ele>
        <time>2022-04-18T12:01:26Z</time>
      </trkpt>
      <trkpt lat="49.0388" lon="7.69403">
        <ele>287.7</ele>
        <time>2022-04-18T12:01:44Z</time>
      </trkpt>
      <trkpt lat="49.03879" lon="7.69403">
        <ele>287.7</ele>
        <time>2022-04-18T12:01:45Z</time>
      </trkpt>
      <trkpt lat="49.03877" lon="7.69403">
        <ele>287.5</ele>
        <time>2022-04-18T12:01:50Z</time>
      </trkpt>
      <trkpt lat="49.03876" lon="7.69403">
        <ele>287.4</ele>
        <time>2022-04-18T12:01:51Z</time>
      </trkpt>
      <trkpt lat="49.03876" lon="7.69403">
        <ele>287.4</ele>
        <time>2022-04-18T12:01:52Z</time>
      </trkpt>
      <trkpt lat="49.03875" lon="7.69403">
        <ele>287.3</ele>
        <time>2022-04-18T12:01:53Z</time>
      </trkpt>
      <trkpt lat="49.03876" lon="7.69403">
        <ele>287.3</ele>
        <time>2022-04-18T12:01:55Z</time>
      </trkpt>
      <trkpt lat="49.03876" lon="7.69403">
        <ele>287.2</ele>
        <time>2022-04-18T12:01:56Z</time>
      </trkpt>
      <trkpt lat="49.03885" lon="7.69405">
        <ele>286.4</ele>
        <time>2022-04-18T12:02:04Z</time>
      </trkpt>
      <trkpt lat="49.03881" lon="7.69393">
        <ele>299.3</ele>
        <time>2022-04-18T12:02:19Z</time>
      </trkpt>
      <trkpt lat="49.03875" lon="7.69382">
        <ele>297.7</ele>
        <time>2022-04-18T12:02:28Z</time>
      </trkpt>
      <trkpt lat="49.03869" lon="7.69369">
        <ele>295.8</ele>
        <time>2022-04-18T12:02:51Z</time>
      </trkpt>
      <trkpt lat="49.03863" lon="7.69359">
        <ele>293.9</ele>
        <time>2022-04-18T12:02:59Z</time>
      </trkpt>
      <trkpt lat="49.03857" lon="7.69347">
        <ele>291.9</ele>
        <time>2022-04-18T12:03:06Z</time>
      </trkpt>
      <trkpt lat="49.03853" lon="7.69335">
        <ele>290</ele>
        <time>2022-04-18T12:03:14Z</time>
      </trkpt>
      <trkpt lat="49.03847" lon="7.69324">
        <ele>288.1</ele>
        <time>2022-04-18T12:03:20Z</time>
      </trkpt>
      <trkpt lat="49.03843" lon="7.69311">
        <ele>286.2</ele>
        <time>2022-04-18T12:03:27Z</time>
      </trkpt>
      <trkpt lat="49.03841" lon="7.69297">
        <ele>284.2</ele>
        <time>2022-04-18T12:03:35Z</time>
      </trkpt>
      <trkpt lat="49.03841" lon="7.69292">
        <ele>283.6</ele>
        <time>2022-04-18T12:03:42Z</time>
      </trkpt>
      <trkpt lat="49.0384" lon="7.69291">
        <ele>283.4</ele>
        <time>2022-04-18T12:03:43Z</time>
      </trkpt>
      <trkpt lat="49.03836" lon="7.69278">
        <ele>281.4</ele>
        <time>2022-04-18T12:03:56Z</time>
      </trkpt>
      <trkpt lat="49.03832" lon="7.69264">
        <ele>279.3</ele>
        <time>2022-04-18T12:04:11Z</time>
      </trkpt>
      <trkpt lat="49.03824" lon="7.69255">
        <ele>277.2</ele>
        <time>2022-04-18T12:04:21Z</time>
      </trkpt>
      <trkpt lat="49.03818" lon="7.69241">
        <ele>274.9</ele>
        <time>2022-04-18T12:04:28Z</time>
      </trkpt>
      <trkpt lat="49.03814" lon="7.69228">
        <ele>272.9</ele>
        <time>2022-04-18T12:04:36Z</time>
      </trkpt>
      <trkpt lat="49.03811" lon="7.69213">
        <ele>270.9</ele>
        <time>2022-04-18T12:04:43Z</time>
      </trkpt>
      <trkpt lat="49.03807" lon="7.69202">
        <ele>269</ele>
        <time>2022-04-18T12:04:48Z</time>
      </trkpt>
      <trkpt lat="49.03798" lon="7.69191">
        <ele>266.8</ele>
        <time>2022-04-18T12:04:56Z</time>
      </trkpt>
      <trkpt lat="49.0379" lon="7.69184">
        <ele>264.7</ele>
        <time>2022-04-18T12:05:02Z</time>
      </trkpt>
      <trkpt lat="49.0378" lon="7.69182">
        <ele>262.8</ele>
        <time>2022-04-18T12:05:09Z</time>
      </trkpt>
      <trkpt lat="49.03771" lon="7.69182">
        <ele>261</ele>
        <time>2022-04-18T12:05:16Z</time>
      </trkpt>
      <trkpt lat="49.03761" lon="7.69181">
        <ele>259.2</ele>
        <time>2022-04-18T12:05:22Z</time>
      </trkpt>
      <trkpt lat="49.03752" lon="7.6918">
        <ele>257.6</ele>
        <time>2022-04-18T12:05:28Z</time>
      </trkpt>
      <trkpt lat="49.03743" lon="7.69175">
        <ele>256.2</ele>
        <time>2022-04-18T12:05:35Z</time>
      </trkpt>
      <trkpt lat="49.03734" lon="7.69171">
        <ele>254.8</ele>
        <time>2022-04-18T12:05:41Z</time>
      </trkpt>
      <trkpt lat="49.03725" lon="7.69166">
        <ele>253.4</ele>
        <time>2022-04-18T12:05:48Z</time>
      </trkpt>
      <trkpt lat="49.03716" lon="7.69162">
        <ele>252.2</ele>
        <time>2022-04-18T12:05:55Z</time>
      </trkpt>
      <trkpt lat="49.03705" lon="7.6916">
        <ele>250.6</ele>
        <time>2022-04-18T12:06:04Z</time>
      </trkpt>
      <trkpt lat="49.03696" lon="7.69158">
        <ele>249.1</ele>
        <time>2022-04-18T12:06:10Z</time>
      </trkpt>
      <trkpt lat="49.03687" lon="7.69153">
        <ele>247.6</ele>
        <time>2022-04-18T12:06:16Z</time>
      </trkpt>
      <trkpt lat="49.03678" lon="7.69148">
        <ele>247.2</ele>
        <time>2022-04-18T12:06:23Z</time>
      </trkpt>
      <trkpt lat="49.0367" lon="7.69142">
        <ele>246.9</ele>
        <time>2022-04-18T12:06:31Z</time>
      </trkpt>
      <trkpt lat="49.03663" lon="7.69132">
        <ele>246.4</ele>
        <time>2022-04-18T12:06:39Z</time>
      </trkpt>
      <trkpt lat="49.03659" lon="7.69118">
        <ele>246</ele>
        <time>2022-04-18T12:06:46Z</time>
      </trkpt>
      <trkpt lat="49.03655" lon="7.69106">
        <ele>245.5</ele>
        <time>2022-04-18T12:06:52Z</time>
      </trkpt>
      <trkpt lat="49.03654" lon="7.69106">
        <ele>245.5</ele>
        <time>2022-04-18T12:06:57Z</time>
      </trkpt>
      <trkpt lat="49.03654" lon="7.69106">
        <ele>245.5</ele>
        <time>2022-04-18T12:07:02Z</time>
      </trkpt>
      <trkpt lat="49.03654" lon="7.69106">
        <ele>245.5</ele>
        <time>2022-04-18T12:07:03Z</time>
      </trkpt>
      <trkpt lat="49.03654" lon="7.69105">
        <ele>245.5</ele>
        <time>2022-04-18T12:07:12Z</time>
      </trkpt>
      <trkpt lat="49.03648" lon="7.69095">
        <ele>244.7</ele>
        <time>2022-04-18T12:07:21Z</time>
      </trkpt>
      <trkpt lat="49.03638" lon="7.69092">
        <ele>243.9</ele>
        <time>2022-04-18T12:07:29Z</time>
      </trkpt>
      <trkpt lat="49.03629" lon="7.69089">
        <ele>243.6</ele>
        <time>2022-04-18T12:07:36Z</time>
      </trkpt>
      <trkpt lat="49.03619" lon="7.69086">
        <ele>243.5</ele>
        <time>2022-04-18T12:07:43Z</time>
      </trkpt>
      <trkpt lat="49.0361" lon="7.69085">
        <ele>243.4</ele>
        <time>2022-04-18T12:07:51Z</time>
      </trkpt>
      <trkpt lat="49.03599" lon="7.69085">
        <ele>243.3</ele>
        <time>2022-04-18T12:08:00Z</time>
      </trkpt>
      <trkpt lat="49.0359" lon="7.69083">
        <ele>242.7</ele>
        <time>2022-04-18T12:08:07Z</time>
      </trkpt>
      <trkpt lat="49.03581" lon="7.69078">
        <ele>242.2</ele>
        <time>2022-04-18T12:08:15Z</time>
      </trkpt>
      <trkpt lat="49.03579" lon="7.69076">
        <ele>242.2</ele>
        <time>2022-04-18T12:08:19Z</time>
      </trkpt>
      <trkpt lat="49.03579" lon="7.69076">
        <ele>242.2</ele>
        <time>2022-04-18T12:08:20Z</time>
      </trkpt>
      <trkpt lat="49.03571" lon="7.69084">
        <ele>241.8</ele>
        <time>2022-04-18T12:08:32Z</time>
      </trkpt>
      <trkpt lat="49.03567" lon="7.69096">
        <ele>241.7</ele>
        <time>2022-04-18T12:08:45Z</time>
      </trkpt>
      <trkpt lat="49.03567" lon="7.69096">
        <ele>241.6</ele>
        <time>2022-04-18T12:08:46Z</time>
      </trkpt>
      <trkpt lat="49.0357" lon="7.69098">
        <ele>241.6</ele>
        <time>2022-04-18T12:09:01Z</time>
      </trkpt>
      <trkpt lat="49.03569" lon="7.69099">
        <ele>241.6</ele>
        <time>2022-04-18T12:09:02Z</time>
      </trkpt>
      <trkpt lat="49.0357" lon="7.691">
        <ele>241.6</ele>
        <time>2022-04-18T12:09:11Z</time>
      </trkpt>
      <trkpt lat="49.0357" lon="7.69101">
        <ele>241.6</ele>
        <time>2022-04-18T12:09:12Z</time>
      </trkpt>
      <trkpt lat="49.0357" lon="7.69098">
        <ele>241.6</ele>
        <time>2022-04-18T12:09:25Z</time>
      </trkpt>
      <trkpt lat="49.0357" lon="7.69098">
        <ele>241.6</ele>
        <time>2022-04-18T12:09:26Z</time>
      </trkpt>
      <trkpt lat="49.03566" lon="7.69099">
        <ele>241.6</ele>
        <time>2022-04-18T12:09:59Z</time>
      </trkpt>
      <trkpt lat="49.03566" lon="7.69099">
        <ele>241.6</ele>
        <time>2022-04-18T12:10:00Z</time>
      </trkpt>
      <trkpt lat="49.03566" lon="7.69097">
        <ele>241.6</ele>
        <time>2022-04-18T12:10:35Z</time>
      </trkpt>
      <trkpt lat="49.03566" lon="7.69097">
        <ele>241.6</ele>
        <time>2022-04-18T12:10:36Z</time>
      </trkpt>
      <trkpt lat="49.03565" lon="7.69097">
        <ele>241.6</ele>
        <time>2022-04-18T12:10:38Z</time>
      </trkpt>
      <trkpt lat="49.03566" lon="7.69097">
        <ele>241.6</ele>
        <time>2022-04-18T12:10:39Z</time>
      </trkpt>
      <trkpt lat="49.03566" lon="7.69097">
        <ele>241.6</ele>
        <time>2022-04-18T12:10:40Z</time>
      </trkpt>
      <trkpt lat="49.03566" lon="7.69097">
        <ele>241.6</ele>
        <time>2022-04-18T12:10:44Z</time>
      </trkpt>
      <trkpt lat="49.03566" lon="7.69097">
        <ele>241.6</ele>
        <time>2022-04-18T12:10:46Z</time>
      </trkpt>
      <trkpt lat="49.03565" lon="7.69097">
        <ele>241.6</ele>
        <time>2022-04-18T12:10:47Z</time>
      </trkpt>
      <trkpt lat="49.03565" lon="7.69097">
        <ele>241.6</ele>
        <time>2022-04-18T12:10:50Z</time>
      </trkpt>
      <trkpt lat="49.03565" lon="7.69097">
        <ele>241.6</ele>
        <time>2022-04-18T12:10:54Z</time>
      </trkpt>
      <trkpt lat="49.03567" lon="7.69098">
        <ele>241.6</ele>
        <time>2022-04-18T12:11:02Z</time>
      </trkpt>
      <trkpt lat="49.03567" lon="7.69098">
        <ele>241.6</ele>
        <time>2022-04-18T12:11:05Z</time>
      </trkpt>
      <trkpt lat="49.03567" lon="7.69098">
        <ele>241.6</ele>
        <time>2022-04-18T12:11:06Z</time>
      </trkpt>
      <trkpt lat="49.03566" lon="7.69098">
        <ele>241.6</ele>
        <time>2022-04-18T12:11:07Z</time>
      </trkpt>
      <trkpt lat="49.03566" lon="7.69098">
        <ele>241.6</ele>
        <time>2022-04-18T12:11:08Z</time>
      </trkpt>
      <trkpt lat="49.03567" lon="7.69098">
        <ele>241.6</ele>
        <time>2022-04-18T12:11:09Z</time>
      </trkpt>
      <trkpt lat="49.03567" lon="7.69098">
        <ele>241.6</ele>
        <time>2022-04-18T12:11:10Z</time>
      </trkpt>
      <trkpt lat="49.03567" lon="7.69098">
        <ele>241.6</ele>
        <time>2022-04-18T12:11:13Z</time>
      </trkpt>
      <trkpt lat="49.03568" lon="7.69099">
        <ele>241.6</ele>
        <time>2022-04-18T12:11:16Z</time>
      </trkpt>
      <trkpt lat="49.03567" lon="7.69098">
        <ele>241.6</ele>
        <time>2022-04-18T12:11:17Z</time>
      </trkpt>
      <trkpt lat="49.03567" lon="7.69098">
        <ele>241.6</ele>
        <time>2022-04-18T12:11:19Z</time>
      </trkpt>
      <trkpt lat="49.03567" lon="7.69098">
        <ele>241.6</ele>
        <time>2022-04-18T12:11:20Z</time>
      </trkpt>
      <trkpt lat="49.03568" lon="7.69099">
        <ele>241.6</ele>
        <time>2022-04-18T12:11:25Z</time>
      </trkpt>
      <trkpt lat="49.03568" lon="7.69099">
        <ele>241.6</ele>
        <time>2022-04-18T12:11:28Z</time>
      </trkpt>
      <trkpt lat="49.03566" lon="7.69096">
        <ele>241.6</ele>
        <time>2022-04-18T12:11:35Z</time>
      </trkpt>
      <trkpt lat="49.03566" lon="7.69096">
        <ele>241.6</ele>
        <time>2022-04-18T12:11:38Z</time>
      </trkpt>
      <trkpt lat="49.03565" lon="7.69096">
        <ele>241.6</ele>
        <time>2022-04-18T12:11:45Z</time>
      </trkpt>
      <trkpt lat="49.03564" lon="7.69096">
        <ele>241.6</ele>
        <time>2022-04-18T12:11:46Z</time>
      </trkpt>
      <trkpt lat="49.03566" lon="7.69097">
        <ele>241.6</ele>
        <time>2022-04-18T12:11:58Z</time>
      </trkpt>
      <trkpt lat="49.03567" lon="7.69097">
        <ele>241.6</ele>
        <time>2022-04-18T12:11:59Z</time>
      </trkpt>
      <trkpt lat="49.03567" lon="7.69098">
        <ele>241.6</ele>
        <time>2022-04-18T12:12:03Z</time>
      </trkpt>
      <trkpt lat="49.03566" lon="7.69097">
        <ele>241.6</ele>
        <time>2022-04-18T12:12:04Z</time>
      </trkpt>
      <trkpt lat="49.03566" lon="7.69097">
        <ele>241.6</ele>
        <time>2022-04-18T12:12:06Z</time>
      </trkpt>
      <trkpt lat="49.03566" lon="7.69097">
        <ele>241.6</ele>
        <time>2022-04-18T12:12:08Z</time>
      </trkpt>
      <trkpt lat="49.03566" lon="7.69097">
        <ele>241.6</ele>
        <time>2022-04-18T12:12:10Z</time>
      </trkpt>
      <trkpt lat="49.03565" lon="7.69097">
        <ele>241.6</ele>
        <time>2022-04-18T12:12:11Z</time>
      </trkpt>
      <trkpt lat="49.03566" lon="7.69095">
        <ele>241.6</ele>
        <time>2022-04-18T12:12:23Z</time>
      </trkpt>
      <trkpt lat="49.03566" lon="7.69095">
        <ele>241.6</ele>
        <time>2022-04-18T12:12:24Z</time>
      </trkpt>
      <trkpt lat="49.03566" lon="7.69095">
        <ele>241.6</ele>
        <time>2022-04-18T12:12:25Z</time>
      </trkpt>
      <trkpt lat="49.03567" lon="7.69095">
        <ele>241.6</ele>
        <time>2022-04-18T12:12:27Z</time>
      </trkpt>
      <trkpt lat="49.03567" lon="7.69095">
        <ele>241.6</ele>
        <time>2022-04-18T12:12:28Z</time>
      </trkpt>
      <trkpt lat="49.03567" lon="7.69095">
        <ele>241.6</ele>
        <time>2022-04-18T12:12:29Z</time>
      </trkpt>
      <trkpt lat="49.03568" lon="7.69097">
        <ele>241.6</ele>
        <time>2022-04-18T12:12:35Z</time>
      </trkpt>
      <trkpt lat="49.03567" lon="7.69097">
        <ele>241.6</ele>
        <time>2022-04-18T12:12:37Z</time>
      </trkpt>
      <trkpt lat="49.03568" lon="7.69097">
        <ele>241.6</ele>
        <time>2022-04-18T12:12:41Z</time>
      </trkpt>
      <trkpt lat="49.03568" lon="7.69097">
        <ele>241.6</ele>
        <time>2022-04-18T12:12:42Z</time>
      </trkpt>
      <trkpt lat="49.03567" lon="7.69097">
        <ele>241.6</ele>
        <time>2022-04-18T12:12:45Z</time>
      </trkpt>
      <trkpt lat="49.03567" lon="7.69097">
        <ele>241.6</ele>
        <time>2022-04-18T12:12:46Z</time>
      </trkpt>
      <trkpt lat="49.03567" lon="7.69097">
        <ele>241.6</ele>
        <time>2022-04-18T12:12:50Z</time>
      </trkpt>
      <trkpt lat="49.03568" lon="7.69097">
        <ele>241.6</ele>
        <time>2022-04-18T12:12:54Z</time>
      </trkpt>
      <trkpt lat="49.03568" lon="7.69097">
        <ele>241.6</ele>
        <time>2022-04-18T12:12:56Z</time>
      </trkpt>
      <trkpt lat="49.03568" lon="7.69097">
        <ele>241.6</ele>
        <time>2022-04-18T12:12:57Z</time>
      </trkpt>
      <trkpt lat="49.03569" lon="7.69099">
        <ele>241.6</ele>
        <time>2022-04-18T12:13:09Z</time>
      </trkpt>
      <trkpt lat="49.03569" lon="7.69099">
        <ele>241.6</ele>
        <time>2022-04-18T12:13:11Z</time>
      </trkpt>
      <trkpt lat="49.03575" lon="7.69088">
        <ele>241.7</ele>
        <time>2022-04-18T12:13:24Z</time>
      </trkpt>
      <trkpt lat="49.03577" lon="7.69074">
        <ele>241.8</ele>
        <time>2022-04-18T12:13:32Z</time>
      </trkpt>
      <trkpt lat="49.03583" lon="7.69063">
        <ele>241.8</ele>
        <time>2022-04-18T12:13:42Z</time>
      </trkpt>
      <trkpt lat="49.03584" lon="7.69047">
        <ele>241.9</ele>
        <time>2022-04-18T12:13:50Z</time>
      </trkpt>
      <trkpt lat="49.03585" lon="7.69034">
        <ele>241.9</ele>
        <time>2022-04-18T12:13:58Z</time>
      </trkpt>
      <trkpt lat="49.03586" lon="7.69018">
        <ele>241.9</ele>
        <time>2022-04-18T12:14:05Z</time>
      </trkpt>
      <trkpt lat="49.03587" lon="7.69003">
        <ele>241.9</ele>
        <time>2022-04-18T12:14:12Z</time>
      </trkpt>
      <trkpt lat="49.03587" lon="7.68988">
        <ele>241.9</ele>
        <time>2022-04-18T12:14:19Z</time>
      </trkpt>
      <trkpt lat="49.03589" lon="7.68973">
        <ele>241.8</ele>
        <time>2022-04-18T12:14:25Z</time>
      </trkpt>
      <trkpt lat="49.03592" lon="7.6896">
        <ele>241.8</ele>
        <time>2022-04-18T12:14:36Z</time>
      </trkpt>
      <trkpt lat="49.03593" lon="7.68945">
        <ele>241.8</ele>
        <time>2022-04-18T12:14:42Z</time>
      </trkpt>
      <trkpt lat="49.0359" lon="7.6893">
        <ele>241.8</ele>
        <time>2022-04-18T12:14:48Z</time>
      </trkpt>
      <trkpt lat="49.03588" lon="7.68916">
        <ele>241.8</ele>
        <time>2022-04-18T12:14:55Z</time>
      </trkpt>
      <trkpt lat="49.03586" lon="7.68906">
        <ele>241.8</ele>
        <time>2022-04-18T12:15:03Z</time>
      </trkpt>
      <trkpt lat="49.03586" lon="7.68907">
        <ele>241.8</ele>
        <time>2022-04-18T12:15:05Z</time>
      </trkpt>
      <trkpt lat="49.03586" lon="7.68906">
        <ele>241.8</ele>
        <time>2022-04-18T12:15:08Z</time>
      </trkpt>
      <trkpt lat="49.03586" lon="7.68906">
        <ele>241.8</ele>
        <time>2022-04-18T12:15:09Z</time>
      </trkpt>
      <trkpt lat="49.03586" lon="7.68906">
        <ele>241.8</ele>
        <time>2022-04-18T12:15:11Z</time>
      </trkpt>
      <trkpt lat="49.03586" lon="7.68907">
        <ele>241.8</ele>
        <time>2022-04-18T12:15:12Z</time>
      </trkpt>
      <trkpt lat="49.03584" lon="7.68892">
        <ele>241.8</ele>
        <time>2022-04-18T12:15:23Z</time>
      </trkpt>
      <trkpt lat="49.03581" lon="7.68878">
        <ele>241.8</ele>
        <time>2022-04-18T12:15:30Z</time>
      </trkpt>
      <trkpt lat="49.03581" lon="7.68863">
        <ele>241.8</ele>
        <time>2022-04-18T12:15:38Z</time>
      </trkpt>
      <trkpt lat="49.03583" lon="7.68846">
        <ele>241.7</ele>
        <time>2022-04-18T12:15:46Z</time>
      </trkpt>
      <trkpt lat="49.03584" lon="7.68845">
        <ele>241.7</ele>
        <time>2022-04-18T12:15:54Z</time>
      </trkpt>
      <trkpt lat="49.03584" lon="7.68843">
        <ele>241.7</ele>
        <time>2022-04-18T12:16:02Z</time>
      </trkpt>
      <trkpt lat="49.03585" lon="7.68842">
        <ele>241.7</ele>
        <time>2022-04-18T12:16:08Z</time>
      </trkpt>
      <trkpt lat="49.03585" lon="7.6884">
        <ele>241.7</ele>
        <time>2022-04-18T12:16:16Z</time>
      </trkpt>
      <trkpt lat="49.03586" lon="7.68839">
        <ele>241.7</ele>
        <time>2022-04-18T12:16:41Z</time>
      </trkpt>
      <trkpt lat="49.03586" lon="7.68837">
        <ele>241.7</ele>
        <time>2022-04-18T12:16:52Z</time>
      </trkpt>
      <trkpt lat="49.03587" lon="7.68836">
        <ele>241.7</ele>
        <time>2022-04-18T12:17:08Z</time>
      </trkpt>
      <trkpt lat="49.03587" lon="7.68834">
        <ele>241.7</ele>
        <time>2022-04-18T12:17:13Z</time>
      </trkpt>
      <trkpt lat="49.03588" lon="7.68833">
        <ele>241.7</ele>
        <time>2022-04-18T12:17:14Z</time>
      </trkpt>
      <trkpt lat="49.03588" lon="7.68831">
        <ele>241.7</ele>
        <time>2022-04-18T12:17:37Z</time>
      </trkpt>
      <trkpt lat="49.03589" lon="7.6883">
        <ele>241.7</ele>
        <time>2022-04-18T12:17:38Z</time>
      </trkpt>
      <trkpt lat="49.03589" lon="7.68828">
        <ele>241.7</ele>
        <time>2022-04-18T12:19:28Z</time>
      </trkpt>
      <trkpt lat="49.0359" lon="7.68827">
        <ele>241.7</ele>
        <time>2022-04-18T12:19:29Z</time>
      </trkpt>
      <trkpt lat="49.0359" lon="7.68825">
        <ele>241.7</ele>
        <time>2022-04-18T12:20:13Z</time>
      </trkpt>
      <trkpt lat="49.03591" lon="7.68824">
        <ele>241.7</ele>
        <time>2022-04-18T12:20:14Z</time>
      </trkpt>
      <trkpt lat="49.03591" lon="7.68822">
        <ele>241.7</ele>
        <time>2022-04-18T12:20:21Z</time>
      </trkpt>
      <trkpt lat="49.03592" lon="7.68821">
        <ele>241.7</ele>
        <time>2022-04-18T12:20:22Z</time>
      </trkpt>
      <trkpt lat="49.03592" lon="7.68819">
        <ele>241.7</ele>
        <time>2022-04-18T12:20:58Z</time>
      </trkpt>
      <trkpt lat="49.03593" lon="7.68818">
        <ele>241.7</ele>
        <time>2022-04-18T12:21:08Z</time>
      </trkpt>
      <trkpt lat="49.03593" lon="7.68816">
        <ele>241.7</ele>
        <time>2022-04-18T12:21:12Z</time>
      </trkpt>
      <trkpt lat="49.03594" lon="7.68815">
        <ele>241.7</ele>
        <time>2022-04-18T12:21:13Z</time>
      </trkpt>
      <trkpt lat="49.03594" lon="7.68813">
        <ele>241.7</ele>
        <time>2022-04-18T12:21:14Z</time>
      </trkpt>
      <trkpt lat="49.03595" lon="7.68812">
        <ele>241.7</ele>
        <time>2022-04-18T12:21:22Z</time>
      </trkpt>
      <trkpt lat="49.03595" lon="7.6881">
        <ele>241.7</ele>
        <time>2022-04-18T12:21:22Z</time>
      </trkpt>
      <trkpt lat="49.03595" lon="7.6881">
        <ele>241.7</ele>
        <time>2022-04-18T12:21:22Z</time>
      </trkpt>
      <trkpt lat="49.03595" lon="7.6881">
        <ele>241.7</ele>
        <time>2022-04-18T12:21:22Z</time>
      </trkpt>
    </trkseg>
  </trk>
</gpx>